<?xml version='1.0' encoding='UTF-8'?><gpx version="1.1" creator="JPX - https://github.com/jenetics/jpx" xmlns="http://www.topografix.com/GPX/1/1"><trk><trkseg><trkpt lat="44.1507786" lon="10.4124387"><ele>546.0</ele><time>2026-04-18T07:56:32.865Z</time></trkpt><trkpt lat="44.1508124" lon="10.4123331"><ele>546.0</ele><time>2026-04-18T07:56:33.888Z</time></trkpt><trkpt lat="44.1508232" lon="10.4122395"><ele>546.0</ele><time>2026-04-18T07:56:35.905Z</time></trkpt><trkpt lat="44.1508318" lon="10.4121218"><ele>546.0</ele><time>2026-04-18T07:56:38Z</time></trkpt><trkpt lat="44.1509015" lon="10.4120607"><ele>546.0</ele><time>2026-04-18T07:56:40Z</time></trkpt><trkpt lat="44.150971" lon="10.4120241"><ele>546.0</ele><time>2026-04-18T07:56:44Z</time></trkpt><trkpt lat="44.1510413" lon="10.4120477"><ele>543.5</ele><time>2026-04-18T07:56:50Z</time></trkpt><trkpt lat="44.1510998" lon="10.4121128"><ele>541.0</ele><time>2026-04-18T07:56:56Z</time></trkpt><trkpt lat="44.1511701" lon="10.4120722"><ele>538.5</ele><time>2026-04-18T07:57:00Z</time></trkpt><trkpt lat="44.1510819" lon="10.4119567"><ele>536.0</ele><time>2026-04-18T07:57:02Z</time></trkpt><trkpt lat="44.1510022" lon="10.4119322"><ele>533.5</ele><time>2026-04-18T07:57:04Z</time></trkpt><trkpt lat="44.1509368" lon="10.4118877"><ele>531.0</ele><time>2026-04-18T07:57:08.015Z</time></trkpt><trkpt lat="44.1509318" lon="10.411792"><ele>531.0</ele><time>2026-04-18T07:57:12Z</time></trkpt><trkpt lat="44.1510123" lon="10.411762"><ele>531.0</ele><time>2026-04-18T07:57:16Z</time></trkpt><trkpt lat="44.151083" lon="10.411756"><ele>531.0</ele><time>2026-04-18T07:57:19Z</time></trkpt><trkpt lat="44.1511634" lon="10.4117575"><ele>531.0</ele><time>2026-04-18T07:57:22Z</time></trkpt><trkpt lat="44.1512412" lon="10.4117462"><ele>531.0</ele><time>2026-04-18T07:57:25Z</time></trkpt><trkpt lat="44.1513303" lon="10.4117271"><ele>531.0</ele><time>2026-04-18T07:57:28Z</time></trkpt><trkpt lat="44.1514203" lon="10.411713"><ele>531.0</ele><time>2026-04-18T07:57:31Z</time></trkpt><trkpt lat="44.1515062" lon="10.4116938"><ele>531.0</ele><time>2026-04-18T07:57:34Z</time></trkpt><trkpt lat="44.1515961" lon="10.4116862"><ele>531.0</ele><time>2026-04-18T07:57:37Z</time></trkpt><trkpt lat="44.1516835" lon="10.4116669"><ele>531.0</ele><time>2026-04-18T07:57:40Z</time></trkpt><trkpt lat="44.1517685" lon="10.4116329"><ele>531.0</ele><time>2026-04-18T07:57:43Z</time></trkpt><trkpt lat="44.1518535" lon="10.411592"><ele>531.0</ele><time>2026-04-18T07:57:46Z</time></trkpt><trkpt lat="44.1519329" lon="10.4115334"><ele>530.0</ele><time>2026-04-18T07:57:49Z</time></trkpt><trkpt lat="44.1520119" lon="10.4114742"><ele>529.0</ele><time>2026-04-18T07:57:52Z</time></trkpt><trkpt lat="44.1520897" lon="10.4114132"><ele>528.0</ele><time>2026-04-18T07:57:55Z</time></trkpt><trkpt lat="44.1521661" lon="10.4113575"><ele>527.0</ele><time>2026-04-18T07:57:58Z</time></trkpt><trkpt lat="44.1522423" lon="10.411304"><ele>526.0</ele><time>2026-04-18T07:58:01Z</time></trkpt><trkpt lat="44.1523261" lon="10.4112564"><ele>525.0</ele><time>2026-04-18T07:58:04Z</time></trkpt><trkpt lat="44.1524098" lon="10.4112019"><ele>528.2</ele><time>2026-04-18T07:58:07Z</time></trkpt><trkpt lat="44.1524954" lon="10.4111524"><ele>531.4</ele><time>2026-04-18T07:58:10Z</time></trkpt><trkpt lat="44.1525828" lon="10.4111069"><ele>534.6</ele><time>2026-04-18T07:58:13Z</time></trkpt><trkpt lat="44.1526692" lon="10.4110693"><ele>537.8</ele><time>2026-04-18T07:58:16Z</time></trkpt><trkpt lat="44.1527542" lon="10.4110462"><ele>541.0</ele><time>2026-04-18T07:58:19Z</time></trkpt><trkpt lat="44.1528411" lon="10.411054"><ele>541.0</ele><time>2026-04-18T07:58:22Z</time></trkpt><trkpt lat="44.1529246" lon="10.4110878"><ele>541.0</ele><time>2026-04-18T07:58:25Z</time></trkpt><trkpt lat="44.1530082" lon="10.4111186"><ele>541.0</ele><time>2026-04-18T07:58:28Z</time></trkpt><trkpt lat="44.1530856" lon="10.411156"><ele>541.0</ele><time>2026-04-18T07:58:31Z</time></trkpt><trkpt lat="44.1531635" lon="10.4111942"><ele>541.0</ele><time>2026-04-18T07:58:34Z</time></trkpt><trkpt lat="44.1532461" lon="10.4112252"><ele>541.0</ele><time>2026-04-18T07:58:37Z</time></trkpt><trkpt lat="44.1533249" lon="10.4112591"><ele>542.3333333333334</ele><time>2026-04-18T07:58:40Z</time></trkpt><trkpt lat="44.1534079" lon="10.4112872"><ele>543.6666666666667</ele><time>2026-04-18T07:58:43Z</time></trkpt><trkpt lat="44.1534919" lon="10.4113073"><ele>545.0</ele><time>2026-04-18T07:58:46Z</time></trkpt><trkpt lat="44.1535768" lon="10.4113246"><ele>546.3333333333334</ele><time>2026-04-18T07:58:49Z</time></trkpt><trkpt lat="44.1536623" lon="10.4113179"><ele>547.6666666666666</ele><time>2026-04-18T07:58:52Z</time></trkpt><trkpt lat="44.1537452" lon="10.4113096"><ele>549.0</ele><time>2026-04-18T07:58:55Z</time></trkpt><trkpt lat="44.1538331" lon="10.4112937"><ele>549.0</ele><time>2026-04-18T07:58:58Z</time></trkpt><trkpt lat="44.1539216" lon="10.4112752"><ele>549.0</ele><time>2026-04-18T07:59:01Z</time></trkpt><trkpt lat="44.1540096" lon="10.4112538"><ele>549.0</ele><time>2026-04-18T07:59:04Z</time></trkpt><trkpt lat="44.1540951" lon="10.4112358"><ele>549.0</ele><time>2026-04-18T07:59:07Z</time></trkpt><trkpt lat="44.1541812" lon="10.4112211"><ele>549.0</ele><time>2026-04-18T07:59:10Z</time></trkpt><trkpt lat="44.1542656" lon="10.4112059"><ele>549.0</ele><time>2026-04-18T07:59:13Z</time></trkpt><trkpt lat="44.1543517" lon="10.4111851"><ele>551.1666666666666</ele><time>2026-04-18T07:59:16Z</time></trkpt><trkpt lat="44.1544413" lon="10.4111753"><ele>553.3333333333334</ele><time>2026-04-18T07:59:19Z</time></trkpt><trkpt lat="44.1545346" lon="10.4111658"><ele>555.5</ele><time>2026-04-18T07:59:22Z</time></trkpt><trkpt lat="44.1546227" lon="10.4111602"><ele>557.6666666666667</ele><time>2026-04-18T07:59:25Z</time></trkpt><trkpt lat="44.1547089" lon="10.4111555"><ele>559.8333333333334</ele><time>2026-04-18T07:59:28Z</time></trkpt><trkpt lat="44.1547978" lon="10.4111388"><ele>562.0</ele><time>2026-04-18T07:59:31Z</time></trkpt><trkpt lat="44.1548876" lon="10.4111335"><ele>562.8333333333334</ele><time>2026-04-18T07:59:34Z</time></trkpt><trkpt lat="44.1549731" lon="10.4111255"><ele>563.6666666666667</ele><time>2026-04-18T07:59:37Z</time></trkpt><trkpt lat="44.1550553" lon="10.4111188"><ele>564.5</ele><time>2026-04-18T07:59:40Z</time></trkpt><trkpt lat="44.1551419" lon="10.411115"><ele>565.3333333333334</ele><time>2026-04-18T07:59:43Z</time></trkpt><trkpt lat="44.155229" lon="10.4111028"><ele>566.1666666666666</ele><time>2026-04-18T07:59:46Z</time></trkpt><trkpt lat="44.1553124" lon="10.4110992"><ele>567.0</ele><time>2026-04-18T07:59:49Z</time></trkpt><trkpt lat="44.1553981" lon="10.4110846"><ele>567.0</ele><time>2026-04-18T07:59:52Z</time></trkpt><trkpt lat="44.1554861" lon="10.4110584"><ele>567.0</ele><time>2026-04-18T07:59:55Z</time></trkpt><trkpt lat="44.1555681" lon="10.4110385"><ele>567.0</ele><time>2026-04-18T07:59:58Z</time></trkpt><trkpt lat="44.1556548" lon="10.4110155"><ele>567.0</ele><time>2026-04-18T08:00:01Z</time></trkpt><trkpt lat="44.1557416" lon="10.4109892"><ele>567.0</ele><time>2026-04-18T08:00:04Z</time></trkpt><trkpt lat="44.155825" lon="10.4109579"><ele>567.0</ele><time>2026-04-18T08:00:07Z</time></trkpt><trkpt lat="44.1559107" lon="10.4109348"><ele>568.1666666666666</ele><time>2026-04-18T08:00:10Z</time></trkpt><trkpt lat="44.1559947" lon="10.4109075"><ele>569.3333333333334</ele><time>2026-04-18T08:00:13Z</time></trkpt><trkpt lat="44.156077" lon="10.4108859"><ele>570.5</ele><time>2026-04-18T08:00:16Z</time></trkpt><trkpt lat="44.1561591" lon="10.4108535"><ele>571.6666666666667</ele><time>2026-04-18T08:00:19Z</time></trkpt><trkpt lat="44.1562426" lon="10.4108259"><ele>572.8333333333334</ele><time>2026-04-18T08:00:22Z</time></trkpt><trkpt lat="44.156325" lon="10.4107956"><ele>574.0</ele><time>2026-04-18T08:00:25Z</time></trkpt><trkpt lat="44.156408" lon="10.4107616"><ele>574.0</ele><time>2026-04-18T08:00:28Z</time></trkpt><trkpt lat="44.1564899" lon="10.4107262"><ele>574.0</ele><time>2026-04-18T08:00:31Z</time></trkpt><trkpt lat="44.156573" lon="10.4106808"><ele>574.0</ele><time>2026-04-18T08:00:34Z</time></trkpt><trkpt lat="44.1566525" lon="10.410642"><ele>574.0</ele><time>2026-04-18T08:00:37Z</time></trkpt><trkpt lat="44.1567377" lon="10.4106417"><ele>574.0</ele><time>2026-04-18T08:00:40Z</time></trkpt><trkpt lat="44.1568183" lon="10.4106803"><ele>574.0</ele><time>2026-04-18T08:00:43Z</time></trkpt><trkpt lat="44.1568522" lon="10.4107893"><ele>574.0</ele><time>2026-04-18T08:00:46Z</time></trkpt><trkpt lat="44.1567997" lon="10.4108741"><ele>574.0</ele><time>2026-04-18T08:00:49Z</time></trkpt><trkpt lat="44.1567402" lon="10.4109423"><ele>574.0</ele><time>2026-04-18T08:00:52Z</time></trkpt><trkpt lat="44.1566838" lon="10.4110244"><ele>574.0</ele><time>2026-04-18T08:00:55Z</time></trkpt><trkpt lat="44.1566209" lon="10.4111024"><ele>574.0</ele><time>2026-04-18T08:00:58Z</time></trkpt><trkpt lat="44.1565554" lon="10.4111838"><ele>574.0</ele><time>2026-04-18T08:01:01Z</time></trkpt><trkpt lat="44.1564912" lon="10.4112672"><ele>578.3333333333334</ele><time>2026-04-18T08:01:04Z</time></trkpt><trkpt lat="44.1564265" lon="10.4113507"><ele>582.6666666666667</ele><time>2026-04-18T08:01:06.999Z</time></trkpt><trkpt lat="44.1563615" lon="10.4114316"><ele>587.0</ele><time>2026-04-18T08:01:10Z</time></trkpt><trkpt lat="44.156301" lon="10.4115132"><ele>591.3333333333334</ele><time>2026-04-18T08:01:13Z</time></trkpt><trkpt lat="44.1562399" lon="10.4115963"><ele>595.6666666666666</ele><time>2026-04-18T08:01:16Z</time></trkpt><trkpt lat="44.1561803" lon="10.4116816"><ele>600.0</ele><time>2026-04-18T08:01:19Z</time></trkpt><trkpt lat="44.1561179" lon="10.4117568"><ele>600.0</ele><time>2026-04-18T08:01:22Z</time></trkpt><trkpt lat="44.1560515" lon="10.411824"><ele>600.0</ele><time>2026-04-18T08:01:25Z</time></trkpt><trkpt lat="44.1559806" lon="10.4118684"><ele>600.0</ele><time>2026-04-18T08:01:28Z</time></trkpt><trkpt lat="44.1559042" lon="10.4118849"><ele>600.0</ele><time>2026-04-18T08:01:31Z</time></trkpt><trkpt lat="44.1558183" lon="10.4119046"><ele>600.0</ele><time>2026-04-18T08:01:34Z</time></trkpt><trkpt lat="44.1557329" lon="10.4118995"><ele>600.0</ele><time>2026-04-18T08:01:37Z</time></trkpt><trkpt lat="44.1556436" lon="10.4118994"><ele>598.1666666666666</ele><time>2026-04-18T08:01:40Z</time></trkpt><trkpt lat="44.1555595" lon="10.411898"><ele>596.3333333333334</ele><time>2026-04-18T08:01:43Z</time></trkpt><trkpt lat="44.1554779" lon="10.4118893"><ele>594.5</ele><time>2026-04-18T08:01:46Z</time></trkpt><trkpt lat="44.1553965" lon="10.4118842"><ele>592.6666666666667</ele><time>2026-04-18T08:01:49Z</time></trkpt><trkpt lat="44.1553146" lon="10.4118831"><ele>590.8333333333334</ele><time>2026-04-18T08:01:52Z</time></trkpt><trkpt lat="44.1552302" lon="10.4118736"><ele>589.0</ele><time>2026-04-18T08:01:55Z</time></trkpt><trkpt lat="44.155146" lon="10.4118813"><ele>589.0</ele><time>2026-04-18T08:01:58Z</time></trkpt><trkpt lat="44.1550646" lon="10.4119101"><ele>589.0</ele><time>2026-04-18T08:02:01Z</time></trkpt><trkpt lat="44.1549874" lon="10.4119595"><ele>589.0</ele><time>2026-04-18T08:02:04Z</time></trkpt><trkpt lat="44.1549138" lon="10.4120316"><ele>589.0</ele><time>2026-04-18T08:02:07Z</time></trkpt><trkpt lat="44.1548583" lon="10.4121028"><ele>589.0</ele><time>2026-04-18T08:02:10Z</time></trkpt><trkpt lat="44.1548089" lon="10.4121828"><ele>589.0</ele><time>2026-04-18T08:02:13Z</time></trkpt><trkpt lat="44.1547579" lon="10.4122736"><ele>589.5</ele><time>2026-04-18T08:02:16Z</time></trkpt><trkpt lat="44.154697" lon="10.4123594"><ele>590.0</ele><time>2026-04-18T08:02:19Z</time></trkpt><trkpt lat="44.1546536" lon="10.4124235"><ele>590.5</ele><time>2026-04-18T08:02:21Z</time></trkpt><trkpt lat="44.1546042" lon="10.4125277"><ele>591.0</ele><time>2026-04-18T08:02:24Z</time></trkpt><trkpt lat="44.1545532" lon="10.4126226"><ele>591.5</ele><time>2026-04-18T08:02:27Z</time></trkpt><trkpt lat="44.1544939" lon="10.4127203"><ele>592.0</ele><time>2026-04-18T08:02:30Z</time></trkpt><trkpt lat="44.1544382" lon="10.4128169"><ele>592.0</ele><time>2026-04-18T08:02:33Z</time></trkpt><trkpt lat="44.1543993" lon="10.4128924"><ele>592.0</ele><time>2026-04-18T08:02:35Z</time></trkpt><trkpt lat="44.1543566" lon="10.4129992"><ele>592.0</ele><time>2026-04-18T08:02:38Z</time></trkpt><trkpt lat="44.1543275" lon="10.4131067"><ele>592.0</ele><time>2026-04-18T08:02:41Z</time></trkpt><trkpt lat="44.1543076" lon="10.4132262"><ele>592.0</ele><time>2026-04-18T08:02:44Z</time></trkpt><trkpt lat="44.1542997" lon="10.4133489"><ele>592.0</ele><time>2026-04-18T08:02:47Z</time></trkpt><trkpt lat="44.1542891" lon="10.4134785"><ele>594.5</ele><time>2026-04-18T08:02:50Z</time></trkpt><trkpt lat="44.1542669" lon="10.4136016"><ele>597.0</ele><time>2026-04-18T08:02:53Z</time></trkpt><trkpt lat="44.1542451" lon="10.4137196"><ele>599.5</ele><time>2026-04-18T08:02:56Z</time></trkpt><trkpt lat="44.1542039" lon="10.4138254"><ele>602.0</ele><time>2026-04-18T08:02:59Z</time></trkpt><trkpt lat="44.1541404" lon="10.413911"><ele>604.5</ele><time>2026-04-18T08:03:02Z</time></trkpt><trkpt lat="44.1540762" lon="10.4139882"><ele>607.0</ele><time>2026-04-18T08:03:05Z</time></trkpt><trkpt lat="44.1540032" lon="10.4140652"><ele>607.0</ele><time>2026-04-18T08:03:08Z</time></trkpt><trkpt lat="44.1539347" lon="10.4141442"><ele>607.0</ele><time>2026-04-18T08:03:11Z</time></trkpt><trkpt lat="44.1538616" lon="10.4142197"><ele>607.0</ele><time>2026-04-18T08:03:14Z</time></trkpt><trkpt lat="44.1537935" lon="10.414293"><ele>607.0</ele><time>2026-04-18T08:03:17Z</time></trkpt><trkpt lat="44.1537247" lon="10.4143685"><ele>607.0</ele><time>2026-04-18T08:03:20Z</time></trkpt><trkpt lat="44.1536564" lon="10.414445"><ele>607.0</ele><time>2026-04-18T08:03:23Z</time></trkpt><trkpt lat="44.1535874" lon="10.4145202"><ele>607.0</ele><time>2026-04-18T08:03:26Z</time></trkpt><trkpt lat="44.1535226" lon="10.4146021"><ele>607.0</ele><time>2026-04-18T08:03:29Z</time></trkpt><trkpt lat="44.1535156" lon="10.4147066"><ele>607.0</ele><time>2026-04-18T08:03:32Z</time></trkpt><trkpt lat="44.1536009" lon="10.4147499"><ele>607.0</ele><time>2026-04-18T08:03:35Z</time></trkpt><trkpt lat="44.1536849" lon="10.4147005"><ele>607.0</ele><time>2026-04-18T08:03:38Z</time></trkpt><trkpt lat="44.1537654" lon="10.4146449"><ele>607.0</ele><time>2026-04-18T08:03:41Z</time></trkpt><trkpt lat="44.1538466" lon="10.4145981"><ele>607.0</ele><time>2026-04-18T08:03:44Z</time></trkpt><trkpt lat="44.1539257" lon="10.4145431"><ele>607.0</ele><time>2026-04-18T08:03:46.999Z</time></trkpt><trkpt lat="44.1540029" lon="10.4144813"><ele>607.0</ele><time>2026-04-18T08:03:50Z</time></trkpt><trkpt lat="44.1540808" lon="10.4144213"><ele>607.0</ele><time>2026-04-18T08:03:53Z</time></trkpt><trkpt lat="44.1541593" lon="10.414363"><ele>607.0</ele><time>2026-04-18T08:03:56Z</time></trkpt><trkpt lat="44.1542419" lon="10.4143086"><ele>607.0</ele><time>2026-04-18T08:03:59Z</time></trkpt><trkpt lat="44.1543187" lon="10.414242"><ele>608.0</ele><time>2026-04-18T08:04:02Z</time></trkpt><trkpt lat="44.1543992" lon="10.4141793"><ele>609.0</ele><time>2026-04-18T08:04:05Z</time></trkpt><trkpt lat="44.1544718" lon="10.4141019"><ele>610.0</ele><time>2026-04-18T08:04:08Z</time></trkpt><trkpt lat="44.1545353" lon="10.4140122"><ele>611.0</ele><time>2026-04-18T08:04:11Z</time></trkpt><trkpt lat="44.1545809" lon="10.4139034"><ele>612.0</ele><time>2026-04-18T08:04:14Z</time></trkpt><trkpt lat="44.1546161" lon="10.4137853"><ele>612.0</ele><time>2026-04-18T08:04:17Z</time></trkpt><trkpt lat="44.1546425" lon="10.4136697"><ele>612.0</ele><time>2026-04-18T08:04:20Z</time></trkpt><trkpt lat="44.1546725" lon="10.413554"><ele>612.0</ele><time>2026-04-18T08:04:23Z</time></trkpt><trkpt lat="44.1546934" lon="10.4134413"><ele>612.0</ele><time>2026-04-18T08:04:26Z</time></trkpt><trkpt lat="44.1547319" lon="10.4133335"><ele>612.0</ele><time>2026-04-18T08:04:29Z</time></trkpt><trkpt lat="44.1547967" lon="10.4132461"><ele>612.0</ele><time>2026-04-18T08:04:32Z</time></trkpt><trkpt lat="44.1548793" lon="10.4131933"><ele>613.3333333333334</ele><time>2026-04-18T08:04:35Z</time></trkpt><trkpt lat="44.1549563" lon="10.4131351"><ele>614.6666666666666</ele><time>2026-04-18T08:04:38Z</time></trkpt><trkpt lat="44.155027" lon="10.4130928"><ele>616.0</ele><time>2026-04-18T08:04:41Z</time></trkpt><trkpt lat="44.1551012" lon="10.4130456"><ele>617.3333333333333</ele><time>2026-04-18T08:04:44Z</time></trkpt><trkpt lat="44.1551657" lon="10.4129998"><ele>618.6666666666666</ele><time>2026-04-18T08:04:47Z</time></trkpt><trkpt lat="44.155248" lon="10.4129675"><ele>620.0</ele><time>2026-04-18T08:04:50Z</time></trkpt><trkpt lat="44.1553177" lon="10.4129668"><ele>620.0</ele><time>2026-04-18T08:04:52Z</time></trkpt><trkpt lat="44.1553836" lon="10.4129783"><ele>620.0</ele><time>2026-04-18T08:04:54Z</time></trkpt><trkpt lat="44.15545" lon="10.4130001"><ele>620.0</ele><time>2026-04-18T08:04:56Z</time></trkpt><trkpt lat="44.1555157" lon="10.4130282"><ele>620.0</ele><time>2026-04-18T08:04:58Z</time></trkpt><trkpt lat="44.1556058" lon="10.4130553"><ele>620.0</ele><time>2026-04-18T08:05:01Z</time></trkpt><trkpt lat="44.1556698" lon="10.4130665"><ele>620.0</ele><time>2026-04-18T08:05:03Z</time></trkpt><trkpt lat="44.1557365" lon="10.413067"><ele>620.0</ele><time>2026-04-18T08:05:05Z</time></trkpt><trkpt lat="44.155801" lon="10.4130591"><ele>627.0</ele><time>2026-04-18T08:05:07Z</time></trkpt><trkpt lat="44.1558866" lon="10.4130668"><ele>634.0</ele><time>2026-04-18T08:05:10Z</time></trkpt><trkpt lat="44.1559638" lon="10.4130744"><ele>641.0</ele><time>2026-04-18T08:05:13Z</time></trkpt><trkpt lat="44.1560478" lon="10.4130859"><ele>648.0</ele><time>2026-04-18T08:05:16Z</time></trkpt><trkpt lat="44.1561381" lon="10.4130973"><ele>655.0</ele><time>2026-04-18T08:05:19Z</time></trkpt><trkpt lat="44.1562264" lon="10.4131145"><ele>662.0</ele><time>2026-04-18T08:05:22Z</time></trkpt><trkpt lat="44.1563125" lon="10.4131331"><ele>662.0</ele><time>2026-04-18T08:05:25Z</time></trkpt><trkpt lat="44.1564008" lon="10.4131439"><ele>662.0</ele><time>2026-04-18T08:05:28Z</time></trkpt><trkpt lat="44.1564914" lon="10.4131612"><ele>662.0</ele><time>2026-04-18T08:05:31Z</time></trkpt><trkpt lat="44.1565695" lon="10.4131906"><ele>662.0</ele><time>2026-04-18T08:05:34Z</time></trkpt><trkpt lat="44.1566482" lon="10.4132048"><ele>662.0</ele><time>2026-04-18T08:05:36.999Z</time></trkpt><trkpt lat="44.156716" lon="10.41322"><ele>662.0</ele><time>2026-04-18T08:05:39Z</time></trkpt><trkpt lat="44.1567842" lon="10.4132307"><ele>662.6666666666666</ele><time>2026-04-18T08:05:41Z</time></trkpt><trkpt lat="44.1568478" lon="10.4132384"><ele>663.3333333333333</ele><time>2026-04-18T08:05:43Z</time></trkpt><trkpt lat="44.1569289" lon="10.4132442"><ele>664.0</ele><time>2026-04-18T08:05:46Z</time></trkpt><trkpt lat="44.1570199" lon="10.4132446"><ele>664.6666666666666</ele><time>2026-04-18T08:05:49Z</time></trkpt><trkpt lat="44.1571017" lon="10.4132454"><ele>665.3333333333334</ele><time>2026-04-18T08:05:51.999Z</time></trkpt><trkpt lat="44.1571861" lon="10.4132538"><ele>666.0</ele><time>2026-04-18T08:05:55Z</time></trkpt><trkpt lat="44.1572749" lon="10.4132858"><ele>666.0</ele><time>2026-04-18T08:05:58Z</time></trkpt><trkpt lat="44.1573623" lon="10.4133122"><ele>666.0</ele><time>2026-04-18T08:06:01Z</time></trkpt><trkpt lat="44.1574531" lon="10.4133365"><ele>666.0</ele><time>2026-04-18T08:06:04Z</time></trkpt><trkpt lat="44.1575167" lon="10.4133433"><ele>666.0</ele><time>2026-04-18T08:06:06Z</time></trkpt><trkpt lat="44.1575821" lon="10.4133567"><ele>666.0</ele><time>2026-04-18T08:06:08Z</time></trkpt><trkpt lat="44.1576447" lon="10.4133742"><ele>666.0</ele><time>2026-04-18T08:06:10Z</time></trkpt><trkpt lat="44.1577371" lon="10.413404"><ele>666.5</ele><time>2026-04-18T08:06:13Z</time></trkpt><trkpt lat="44.1578287" lon="10.4134254"><ele>667.0</ele><time>2026-04-18T08:06:16Z</time></trkpt><trkpt lat="44.1579201" lon="10.4134525"><ele>667.5</ele><time>2026-04-18T08:06:19Z</time></trkpt><trkpt lat="44.1580095" lon="10.4134415"><ele>668.0</ele><time>2026-04-18T08:06:22Z</time></trkpt><trkpt lat="44.1580827" lon="10.4133719"><ele>668.5</ele><time>2026-04-18T08:06:25Z</time></trkpt><trkpt lat="44.158133" lon="10.4132821"><ele>669.0</ele><time>2026-04-18T08:06:28Z</time></trkpt><trkpt lat="44.1581773" lon="10.4131719"><ele>668.6666666666666</ele><time>2026-04-18T08:06:31Z</time></trkpt><trkpt lat="44.1582181" lon="10.4130606"><ele>668.3333333333334</ele><time>2026-04-18T08:06:34Z</time></trkpt><trkpt lat="44.1582699" lon="10.4129587"><ele>668.0</ele><time>2026-04-18T08:06:37Z</time></trkpt><trkpt lat="44.1583306" lon="10.4128768"><ele>667.6666666666667</ele><time>2026-04-18T08:06:40Z</time></trkpt><trkpt lat="44.1583989" lon="10.4128013"><ele>667.3333333333334</ele><time>2026-04-18T08:06:43Z</time></trkpt><trkpt lat="44.1584623" lon="10.4127149"><ele>667.0</ele><time>2026-04-18T08:06:46Z</time></trkpt><trkpt lat="44.1585056" lon="10.4126499"><ele>667.0</ele><time>2026-04-18T08:06:48Z</time></trkpt><trkpt lat="44.1585423" lon="10.4125768"><ele>667.0</ele><time>2026-04-18T08:06:50Z</time></trkpt><trkpt lat="44.1585861" lon="10.4124709"><ele>667.0</ele><time>2026-04-18T08:06:53Z</time></trkpt><trkpt lat="44.1586336" lon="10.4123635"><ele>667.0</ele><time>2026-04-18T08:06:56Z</time></trkpt><trkpt lat="44.1586718" lon="10.412292"><ele>667.0</ele><time>2026-04-18T08:06:58Z</time></trkpt><trkpt lat="44.1587079" lon="10.4122199"><ele>667.0</ele><time>2026-04-18T08:07:00Z</time></trkpt><trkpt lat="44.1587693" lon="10.4121212"><ele>668.4285714285714</ele><time>2026-04-18T08:07:03Z</time></trkpt><trkpt lat="44.1588157" lon="10.4120608"><ele>669.8571428571429</ele><time>2026-04-18T08:07:05Z</time></trkpt><trkpt lat="44.158879" lon="10.4119912"><ele>671.2857142857142</ele><time>2026-04-18T08:07:08Z</time></trkpt><trkpt lat="44.1589317" lon="10.4119324"><ele>672.7142857142858</ele><time>2026-04-18T08:07:10Z</time></trkpt><trkpt lat="44.1589858" lon="10.4118831"><ele>674.1428571428571</ele><time>2026-04-18T08:07:12Z</time></trkpt><trkpt lat="44.1590458" lon="10.4118304"><ele>675.5714285714286</ele><time>2026-04-18T08:07:14Z</time></trkpt><trkpt lat="44.1591084" lon="10.4117835"><ele>677.0</ele><time>2026-04-18T08:07:16Z</time></trkpt><trkpt lat="44.1591618" lon="10.4117321"><ele>677.0</ele><time>2026-04-18T08:07:18Z</time></trkpt><trkpt lat="44.1592312" lon="10.411674"><ele>677.0</ele><time>2026-04-18T08:07:21Z</time></trkpt><trkpt lat="44.1593044" lon="10.4116133"><ele>677.0</ele><time>2026-04-18T08:07:23.999Z</time></trkpt><trkpt lat="44.1593805" lon="10.4115888"><ele>677.0</ele><time>2026-04-18T08:07:27Z</time></trkpt><trkpt lat="44.159466" lon="10.4115912"><ele>677.0</ele><time>2026-04-18T08:07:30Z</time></trkpt><trkpt lat="44.1595596" lon="10.4116291"><ele>677.0</ele><time>2026-04-18T08:07:33Z</time></trkpt><trkpt lat="44.1596373" lon="10.4116721"><ele>676.9999999999999</ele><time>2026-04-18T08:07:36Z</time></trkpt><trkpt lat="44.1597246" lon="10.4117212"><ele>677.0</ele><time>2026-04-18T08:07:39Z</time></trkpt><trkpt lat="44.1597822" lon="10.4117622"><ele>677.0</ele><time>2026-04-18T08:07:41Z</time></trkpt><trkpt lat="44.1598411" lon="10.4117948"><ele>677.0</ele><time>2026-04-18T08:07:43Z</time></trkpt><trkpt lat="44.1599029" lon="10.4118228"><ele>677.0</ele><time>2026-04-18T08:07:44.999Z</time></trkpt><trkpt lat="44.1599873" lon="10.4118378"><ele>676.9999999999999</ele><time>2026-04-18T08:07:48Z</time></trkpt><trkpt lat="44.1600508" lon="10.4118431"><ele>677.0</ele><time>2026-04-18T08:07:50Z</time></trkpt><trkpt lat="44.160144" lon="10.4118456"><ele>677.6666666666666</ele><time>2026-04-18T08:07:53Z</time></trkpt><trkpt lat="44.1602078" lon="10.411838"><ele>678.3333333333333</ele><time>2026-04-18T08:07:55Z</time></trkpt><trkpt lat="44.1603016" lon="10.4118382"><ele>679.0</ele><time>2026-04-18T08:07:58Z</time></trkpt><trkpt lat="44.1603652" lon="10.4118475"><ele>679.6666666666666</ele><time>2026-04-18T08:08:00Z</time></trkpt><trkpt lat="44.1604362" lon="10.4118555"><ele>680.3333333333334</ele><time>2026-04-18T08:08:02Z</time></trkpt><trkpt lat="44.1604984" lon="10.4118721"><ele>681.0</ele><time>2026-04-18T08:08:04Z</time></trkpt><trkpt lat="44.1605854" lon="10.4119264"><ele>681.0</ele><time>2026-04-18T08:08:07Z</time></trkpt><trkpt lat="44.1606432" lon="10.4119689"><ele>681.0</ele><time>2026-04-18T08:08:09Z</time></trkpt><trkpt lat="44.1607241" lon="10.4120311"><ele>681.0</ele><time>2026-04-18T08:08:12Z</time></trkpt><trkpt lat="44.1608022" lon="10.4121014"><ele>681.0</ele><time>2026-04-18T08:08:15Z</time></trkpt><trkpt lat="44.1608835" lon="10.4121617"><ele>681.0</ele><time>2026-04-18T08:08:18Z</time></trkpt><trkpt lat="44.1609612" lon="10.4122252"><ele>681.0</ele><time>2026-04-18T08:08:21Z</time></trkpt><trkpt lat="44.1610177" lon="10.4122659"><ele>680.4</ele><time>2026-04-18T08:08:23Z</time></trkpt><trkpt lat="44.1611048" lon="10.4123113"><ele>679.8</ele><time>2026-04-18T08:08:26Z</time></trkpt><trkpt lat="44.1611916" lon="10.4123147"><ele>679.1999999999999</ele><time>2026-04-18T08:08:29Z</time></trkpt><trkpt lat="44.1612795" lon="10.4122732"><ele>678.5999999999999</ele><time>2026-04-18T08:08:32Z</time></trkpt><trkpt lat="44.1613431" lon="10.4121844"><ele>678.0</ele><time>2026-04-18T08:08:35Z</time></trkpt><trkpt lat="44.1613938" lon="10.4120855"><ele>678.0</ele><time>2026-04-18T08:08:38Z</time></trkpt><trkpt lat="44.1614399" lon="10.4119847"><ele>678.0</ele><time>2026-04-18T08:08:41Z</time></trkpt><trkpt lat="44.1614937" lon="10.4118906"><ele>678.0</ele><time>2026-04-18T08:08:44Z</time></trkpt><trkpt lat="44.1615424" lon="10.411785"><ele>678.0</ele><time>2026-04-18T08:08:47Z</time></trkpt><trkpt lat="44.1615884" lon="10.4116786"><ele>678.0</ele><time>2026-04-18T08:08:50Z</time></trkpt><trkpt lat="44.1616531" lon="10.4116063"><ele>678.0</ele><time>2026-04-18T08:08:53Z</time></trkpt><trkpt lat="44.1617161" lon="10.4116236"><ele>679.6666666666666</ele><time>2026-04-18T08:08:55Z</time></trkpt><trkpt lat="44.1617258" lon="10.4117354"><ele>681.3333333333334</ele><time>2026-04-18T08:08:58Z</time></trkpt><trkpt lat="44.1616855" lon="10.4118335"><ele>683.0</ele><time>2026-04-18T08:09:01Z</time></trkpt><trkpt lat="44.1616398" lon="10.4119285"><ele>684.6666666666667</ele><time>2026-04-18T08:09:04Z</time></trkpt><trkpt lat="44.1616006" lon="10.4119975"><ele>686.3333333333334</ele><time>2026-04-18T08:09:06Z</time></trkpt><trkpt lat="44.1615615" lon="10.4120959"><ele>688.0</ele><time>2026-04-18T08:09:09Z</time></trkpt><trkpt lat="44.1615313" lon="10.412203"><ele>690.8571428571429</ele><time>2026-04-18T08:09:12.029Z</time></trkpt><trkpt lat="44.1615018" lon="10.4122933"><ele>693.7142857142858</ele><time>2026-04-18T08:09:15Z</time></trkpt><trkpt lat="44.1614659" lon="10.4123851"><ele>696.5714285714287</ele><time>2026-04-18T08:09:18Z</time></trkpt><trkpt lat="44.1614196" lon="10.4124577"><ele>699.4285714285714</ele><time>2026-04-18T08:09:21Z</time></trkpt><trkpt lat="44.1613789" lon="10.4125384"><ele>702.2857142857142</ele><time>2026-04-18T08:09:24Z</time></trkpt><trkpt lat="44.1613269" lon="10.4126104"><ele>705.1428571428572</ele><time>2026-04-18T08:09:27Z</time></trkpt><trkpt lat="44.1612627" lon="10.412656"><ele>708.0</ele><time>2026-04-18T08:09:30Z</time></trkpt><trkpt lat="44.1611902" lon="10.4126756"><ele>708.0</ele><time>2026-04-18T08:09:33Z</time></trkpt><trkpt lat="44.1611161" lon="10.4126894"><ele>708.0</ele><time>2026-04-18T08:09:36Z</time></trkpt><trkpt lat="44.1610415" lon="10.4127025"><ele>708.0</ele><time>2026-04-18T08:09:39Z</time></trkpt><trkpt lat="44.1609711" lon="10.4127128"><ele>708.0</ele><time>2026-04-18T08:09:42Z</time></trkpt><trkpt lat="44.1609" lon="10.4127192"><ele>708.0</ele><time>2026-04-18T08:09:45Z</time></trkpt><trkpt lat="44.1608246" lon="10.412719"><ele>708.0</ele><time>2026-04-18T08:09:48Z</time></trkpt><trkpt lat="44.1607507" lon="10.4127089"><ele>708.0</ele><time>2026-04-18T08:09:51Z</time></trkpt><trkpt lat="44.1606797" lon="10.4126914"><ele>707.4285714285714</ele><time>2026-04-18T08:09:54Z</time></trkpt><trkpt lat="44.160614" lon="10.4126615"><ele>706.8571428571428</ele><time>2026-04-18T08:09:57Z</time></trkpt><trkpt lat="44.1605437" lon="10.412624"><ele>706.2857142857142</ele><time>2026-04-18T08:10:00Z</time></trkpt><trkpt lat="44.1604653" lon="10.4125874"><ele>705.7142857142858</ele><time>2026-04-18T08:10:03Z</time></trkpt><trkpt lat="44.1603903" lon="10.4125755"><ele>705.1428571428571</ele><time>2026-04-18T08:10:06Z</time></trkpt><trkpt lat="44.1603256" lon="10.4125934"><ele>704.5714285714286</ele><time>2026-04-18T08:10:09Z</time></trkpt><trkpt lat="44.1602499" lon="10.4126228"><ele>704.0</ele><time>2026-04-18T08:10:12Z</time></trkpt><trkpt lat="44.1601825" lon="10.412668"><ele>704.0</ele><time>2026-04-18T08:10:15Z</time></trkpt><trkpt lat="44.1601208" lon="10.4127247"><ele>704.0</ele><time>2026-04-18T08:10:18Z</time></trkpt><trkpt lat="44.1600663" lon="10.4127956"><ele>704.0</ele><time>2026-04-18T08:10:21Z</time></trkpt><trkpt lat="44.1600065" lon="10.4128689"><ele>704.0</ele><time>2026-04-18T08:10:24Z</time></trkpt><trkpt lat="44.1599514" lon="10.4129466"><ele>704.0</ele><time>2026-04-18T08:10:27Z</time></trkpt><trkpt lat="44.1599089" lon="10.4130358"><ele>704.0</ele><time>2026-04-18T08:10:30Z</time></trkpt><trkpt lat="44.1598788" lon="10.4131236"><ele>704.0</ele><time>2026-04-18T08:10:33Z</time></trkpt><trkpt lat="44.1598554" lon="10.4132248"><ele>704.0</ele><time>2026-04-18T08:10:36Z</time></trkpt><trkpt lat="44.1598368" lon="10.4133425"><ele>704.0</ele><time>2026-04-18T08:10:39Z</time></trkpt><trkpt lat="44.1598229" lon="10.4134448"><ele>704.0</ele><time>2026-04-18T08:10:42Z</time></trkpt><trkpt lat="44.1598141" lon="10.4135476"><ele>704.0</ele><time>2026-04-18T08:10:44.999Z</time></trkpt><trkpt lat="44.1598029" lon="10.4136552"><ele>704.0</ele><time>2026-04-18T08:10:48Z</time></trkpt><trkpt lat="44.1597865" lon="10.4137585"><ele>704.5</ele><time>2026-04-18T08:10:51Z</time></trkpt><trkpt lat="44.1597645" lon="10.4138767"><ele>705.0</ele><time>2026-04-18T08:10:54Z</time></trkpt><trkpt lat="44.1597322" lon="10.413978"><ele>705.5</ele><time>2026-04-18T08:10:57Z</time></trkpt><trkpt lat="44.1596953" lon="10.4140759"><ele>706.0</ele><time>2026-04-18T08:11:00Z</time></trkpt><trkpt lat="44.1596428" lon="10.414158"><ele>706.5</ele><time>2026-04-18T08:11:03Z</time></trkpt><trkpt lat="44.1595953" lon="10.4142359"><ele>707.0</ele><time>2026-04-18T08:11:06Z</time></trkpt><trkpt lat="44.159551" lon="10.4143307"><ele>707.0</ele><time>2026-04-18T08:11:10Z</time></trkpt><trkpt lat="44.1595176" lon="10.4144298"><ele>707.0</ele><time>2026-04-18T08:11:13Z</time></trkpt><trkpt lat="44.1594913" lon="10.4145391"><ele>707.0</ele><time>2026-04-18T08:11:16Z</time></trkpt><trkpt lat="44.1594805" lon="10.414649"><ele>707.0</ele><time>2026-04-18T08:11:19Z</time></trkpt><trkpt lat="44.1594974" lon="10.4147518"><ele>707.0</ele><time>2026-04-18T08:11:22Z</time></trkpt><trkpt lat="44.1595292" lon="10.4148475"><ele>707.0</ele><time>2026-04-18T08:11:25Z</time></trkpt><trkpt lat="44.1595692" lon="10.4149286"><ele>706.6666666666666</ele><time>2026-04-18T08:11:28Z</time></trkpt><trkpt lat="44.1596227" lon="10.4149953"><ele>706.3333333333333</ele><time>2026-04-18T08:11:31Z</time></trkpt><trkpt lat="44.1596874" lon="10.4150532"><ele>706.0</ele><time>2026-04-18T08:11:34Z</time></trkpt><trkpt lat="44.1597623" lon="10.4150872"><ele>705.6666666666666</ele><time>2026-04-18T08:11:37Z</time></trkpt><trkpt lat="44.1598458" lon="10.4150955"><ele>705.3333333333334</ele><time>2026-04-18T08:11:40Z</time></trkpt><trkpt lat="44.1599194" lon="10.415093"><ele>705.0</ele><time>2026-04-18T08:11:43Z</time></trkpt><trkpt lat="44.1599951" lon="10.4150934"><ele>707.7142857142857</ele><time>2026-04-18T08:11:46Z</time></trkpt><trkpt lat="44.160068" lon="10.4150873"><ele>710.4285714285714</ele><time>2026-04-18T08:11:49Z</time></trkpt><trkpt lat="44.1601433" lon="10.4150671"><ele>713.1428571428571</ele><time>2026-04-18T08:11:52Z</time></trkpt><trkpt lat="44.1602106" lon="10.4150569"><ele>715.8571428571429</ele><time>2026-04-18T08:11:55Z</time></trkpt><trkpt lat="44.1602738" lon="10.4150437"><ele>718.5714285714286</ele><time>2026-04-18T08:11:58Z</time></trkpt><trkpt lat="44.1603458" lon="10.4150418"><ele>721.2857142857142</ele><time>2026-04-18T08:12:01Z</time></trkpt><trkpt lat="44.1604227" lon="10.4150581"><ele>724.0</ele><time>2026-04-18T08:12:04Z</time></trkpt><trkpt lat="44.1604982" lon="10.415095"><ele>724.0</ele><time>2026-04-18T08:12:07Z</time></trkpt><trkpt lat="44.1605674" lon="10.4151572"><ele>724.0</ele><time>2026-04-18T08:12:10Z</time></trkpt><trkpt lat="44.1606309" lon="10.4152186"><ele>724.0</ele><time>2026-04-18T08:12:13Z</time></trkpt><trkpt lat="44.1606902" lon="10.4152793"><ele>724.0</ele><time>2026-04-18T08:12:16Z</time></trkpt><trkpt lat="44.1607581" lon="10.4153479"><ele>724.0</ele><time>2026-04-18T08:12:19Z</time></trkpt><trkpt lat="44.1608266" lon="10.4154166"><ele>724.0</ele><time>2026-04-18T08:12:22Z</time></trkpt><trkpt lat="44.1608828" lon="10.4154833"><ele>723.8333333333334</ele><time>2026-04-18T08:12:25Z</time></trkpt><trkpt lat="44.1609335" lon="10.4155623"><ele>723.6666666666667</ele><time>2026-04-18T08:12:28Z</time></trkpt><trkpt lat="44.1609895" lon="10.4156438"><ele>723.5</ele><time>2026-04-18T08:12:31.018Z</time></trkpt><trkpt lat="44.1610437" lon="10.4157208"><ele>723.3333333333334</ele><time>2026-04-18T08:12:34Z</time></trkpt><trkpt lat="44.1610891" lon="10.4158048"><ele>723.1666666666666</ele><time>2026-04-18T08:12:37.011Z</time></trkpt><trkpt lat="44.1611434" lon="10.4158784"><ele>723.0</ele><time>2026-04-18T08:12:40.043Z</time></trkpt><trkpt lat="44.1611991" lon="10.4159445"><ele>723.0</ele><time>2026-04-18T08:12:43.005Z</time></trkpt><trkpt lat="44.1612431" lon="10.4160308"><ele>723.0</ele><time>2026-04-18T08:12:46Z</time></trkpt><trkpt lat="44.1613054" lon="10.4160986"><ele>723.0</ele><time>2026-04-18T08:12:49Z</time></trkpt><trkpt lat="44.1613636" lon="10.4161729"><ele>723.0</ele><time>2026-04-18T08:12:52Z</time></trkpt><trkpt lat="44.1614233" lon="10.4162447"><ele>723.0</ele><time>2026-04-18T08:12:55Z</time></trkpt><trkpt lat="44.1614984" lon="10.4162948"><ele>723.0</ele><time>2026-04-18T08:12:58Z</time></trkpt><trkpt lat="44.1615581" lon="10.4163571"><ele>724.8333333333334</ele><time>2026-04-18T08:13:01Z</time></trkpt><trkpt lat="44.1616286" lon="10.4164039"><ele>726.6666666666666</ele><time>2026-04-18T08:13:04Z</time></trkpt><trkpt lat="44.1617013" lon="10.4164532"><ele>728.5</ele><time>2026-04-18T08:13:07Z</time></trkpt><trkpt lat="44.1617651" lon="10.4165049"><ele>730.3333333333333</ele><time>2026-04-18T08:13:10Z</time></trkpt><trkpt lat="44.1618331" lon="10.4165565"><ele>732.1666666666666</ele><time>2026-04-18T08:13:13Z</time></trkpt><trkpt lat="44.1619024" lon="10.4165989"><ele>734.0</ele><time>2026-04-18T08:13:16Z</time></trkpt><trkpt lat="44.1619787" lon="10.4166112"><ele>734.0</ele><time>2026-04-18T08:13:19Z</time></trkpt><trkpt lat="44.1620396" lon="10.4165467"><ele>734.0</ele><time>2026-04-18T08:13:22Z</time></trkpt><trkpt lat="44.1620461" lon="10.4164361"><ele>734.0</ele><time>2026-04-18T08:13:25Z</time></trkpt><trkpt lat="44.1619934" lon="10.4163477"><ele>734.0</ele><time>2026-04-18T08:13:28Z</time></trkpt><trkpt lat="44.1619252" lon="10.4162859"><ele>734.0</ele><time>2026-04-18T08:13:31Z</time></trkpt><trkpt lat="44.1618496" lon="10.4162319"><ele>734.0</ele><time>2026-04-18T08:13:34Z</time></trkpt><trkpt lat="44.161774" lon="10.4161847"><ele>732.1666666666666</ele><time>2026-04-18T08:13:37Z</time></trkpt><trkpt lat="44.1616995" lon="10.4161354"><ele>730.3333333333333</ele><time>2026-04-18T08:13:40Z</time></trkpt><trkpt lat="44.1616236" lon="10.4160838"><ele>728.5</ele><time>2026-04-18T08:13:43Z</time></trkpt><trkpt lat="44.1615519" lon="10.4160171"><ele>726.6666666666666</ele><time>2026-04-18T08:13:46Z</time></trkpt><trkpt lat="44.1614905" lon="10.4159428"><ele>724.8333333333334</ele><time>2026-04-18T08:13:49Z</time></trkpt><trkpt lat="44.161433" lon="10.4158584"><ele>723.0</ele><time>2026-04-18T08:13:52Z</time></trkpt><trkpt lat="44.1613755" lon="10.4157716"><ele>723.0</ele><time>2026-04-18T08:13:55Z</time></trkpt><trkpt lat="44.1613273" lon="10.4156891"><ele>723.0</ele><time>2026-04-18T08:13:58Z</time></trkpt><trkpt lat="44.1612742" lon="10.4156015"><ele>723.0</ele><time>2026-04-18T08:14:01Z</time></trkpt><trkpt lat="44.1612219" lon="10.4155176"><ele>723.0</ele><time>2026-04-18T08:14:04Z</time></trkpt><trkpt lat="44.1611882" lon="10.4154313"><ele>723.0</ele><time>2026-04-18T08:14:06.989Z</time></trkpt><trkpt lat="44.1611525" lon="10.4153315"><ele>723.0</ele><time>2026-04-18T08:14:10Z</time></trkpt><trkpt lat="44.1611193" lon="10.4152242"><ele>727.1666666666666</ele><time>2026-04-18T08:14:13Z</time></trkpt><trkpt lat="44.1610877" lon="10.4151227"><ele>731.3333333333334</ele><time>2026-04-18T08:14:16Z</time></trkpt><trkpt lat="44.1610547" lon="10.4150194"><ele>735.5</ele><time>2026-04-18T08:14:19Z</time></trkpt><trkpt lat="44.1610317" lon="10.4149251"><ele>739.6666666666667</ele><time>2026-04-18T08:14:22Z</time></trkpt><trkpt lat="44.1610294" lon="10.414815"><ele>743.8333333333334</ele><time>2026-04-18T08:14:25Z</time></trkpt><trkpt lat="44.1610464" lon="10.4147065"><ele>748.0</ele><time>2026-04-18T08:14:28Z</time></trkpt><trkpt lat="44.1610848" lon="10.4146074"><ele>748.0</ele><time>2026-04-18T08:14:31Z</time></trkpt><trkpt lat="44.1611437" lon="10.4145402"><ele>748.0</ele><time>2026-04-18T08:14:34Z</time></trkpt><trkpt lat="44.1612138" lon="10.4144888"><ele>748.0</ele><time>2026-04-18T08:14:37Z</time></trkpt><trkpt lat="44.1612873" lon="10.4144575"><ele>748.0</ele><time>2026-04-18T08:14:40Z</time></trkpt><trkpt lat="44.1613614" lon="10.4144234"><ele>748.0</ele><time>2026-04-18T08:14:43Z</time></trkpt><trkpt lat="44.1614371" lon="10.4143914"><ele>748.0</ele><time>2026-04-18T08:14:46Z</time></trkpt><trkpt lat="44.1615124" lon="10.4143601"><ele>751.1666666666667</ele><time>2026-04-18T08:14:49Z</time></trkpt><trkpt lat="44.1615911" lon="10.4143286"><ele>754.3333333333334</ele><time>2026-04-18T08:14:52Z</time></trkpt><trkpt lat="44.161668" lon="10.4143031"><ele>757.5</ele><time>2026-04-18T08:14:55Z</time></trkpt><trkpt lat="44.1617331" lon="10.4142508"><ele>760.6666666666666</ele><time>2026-04-18T08:14:58Z</time></trkpt><trkpt lat="44.1617921" lon="10.4141754"><ele>763.8333333333333</ele><time>2026-04-18T08:15:01Z</time></trkpt><trkpt lat="44.1618488" lon="10.4140989"><ele>767.0</ele><time>2026-04-18T08:15:04Z</time></trkpt><trkpt lat="44.161906" lon="10.4140208"><ele>767.0</ele><time>2026-04-18T08:15:06.999Z</time></trkpt><trkpt lat="44.1619669" lon="10.4139484"><ele>767.0</ele><time>2026-04-18T08:15:10Z</time></trkpt><trkpt lat="44.1620205" lon="10.4138704"><ele>767.0</ele><time>2026-04-18T08:15:13Z</time></trkpt><trkpt lat="44.162069" lon="10.4137924"><ele>767.0</ele><time>2026-04-18T08:15:16Z</time></trkpt><trkpt lat="44.1621234" lon="10.4137165"><ele>767.0</ele><time>2026-04-18T08:15:19Z</time></trkpt><trkpt lat="44.1621823" lon="10.4136431"><ele>767.0</ele><time>2026-04-18T08:15:22Z</time></trkpt><trkpt lat="44.1622468" lon="10.4135702"><ele>768.5</ele><time>2026-04-18T08:15:25Z</time></trkpt><trkpt lat="44.1623165" lon="10.4135138"><ele>770.0</ele><time>2026-04-18T08:15:28Z</time></trkpt><trkpt lat="44.1623907" lon="10.4134602"><ele>771.5</ele><time>2026-04-18T08:15:31Z</time></trkpt><trkpt lat="44.1624654" lon="10.4134086"><ele>773.0</ele><time>2026-04-18T08:15:34Z</time></trkpt><trkpt lat="44.1625287" lon="10.4133571"><ele>774.5000000000001</ele><time>2026-04-18T08:15:37Z</time></trkpt><trkpt lat="44.1625939" lon="10.4133149"><ele>776.0</ele><time>2026-04-18T08:15:40Z</time></trkpt><trkpt lat="44.1626701" lon="10.4132663"><ele>776.0000000000001</ele><time>2026-04-18T08:15:43Z</time></trkpt><trkpt lat="44.1627402" lon="10.4132318"><ele>776.0</ele><time>2026-04-18T08:15:46Z</time></trkpt><trkpt lat="44.1628148" lon="10.4131847"><ele>776.0</ele><time>2026-04-18T08:15:49Z</time></trkpt><trkpt lat="44.1628897" lon="10.4131318"><ele>776.0</ele><time>2026-04-18T08:15:52Z</time></trkpt><trkpt lat="44.1629665" lon="10.4130697"><ele>776.0000000000001</ele><time>2026-04-18T08:15:55Z</time></trkpt><trkpt lat="44.1630436" lon="10.4130111"><ele>776.0</ele><time>2026-04-18T08:15:58Z</time></trkpt><trkpt lat="44.1631199" lon="10.4129474"><ele>776.8</ele><time>2026-04-18T08:16:01Z</time></trkpt><trkpt lat="44.1631967" lon="10.4128816"><ele>777.5999999999999</ele><time>2026-04-18T08:16:04Z</time></trkpt><trkpt lat="44.1632693" lon="10.4128025"><ele>778.4</ele><time>2026-04-18T08:16:07Z</time></trkpt><trkpt lat="44.163324" lon="10.4126962"><ele>779.2</ele><time>2026-04-18T08:16:10Z</time></trkpt><trkpt lat="44.1633643" lon="10.412581"><ele>780.0</ele><time>2026-04-18T08:16:13Z</time></trkpt><trkpt lat="44.1633933" lon="10.4124583"><ele>780.0</ele><time>2026-04-18T08:16:16Z</time></trkpt><trkpt lat="44.1634186" lon="10.4123326"><ele>780.0</ele><time>2026-04-18T08:16:19Z</time></trkpt><trkpt lat="44.1634317" lon="10.412245"><ele>780.0</ele><time>2026-04-18T08:16:21Z</time></trkpt><trkpt lat="44.1634556" lon="10.4121256"><ele>780.0</ele><time>2026-04-18T08:16:24Z</time></trkpt><trkpt lat="44.1634793" lon="10.4120437"><ele>780.0</ele><time>2026-04-18T08:16:26Z</time></trkpt><trkpt lat="44.163524" lon="10.4119365"><ele>780.0</ele><time>2026-04-18T08:16:29Z</time></trkpt><trkpt lat="44.1635916" lon="10.4118488"><ele>780.8333333333334</ele><time>2026-04-18T08:16:32Z</time></trkpt><trkpt lat="44.1636717" lon="10.4117929"><ele>781.6666666666667</ele><time>2026-04-18T08:16:35Z</time></trkpt><trkpt lat="44.1637491" lon="10.4117566"><ele>782.5</ele><time>2026-04-18T08:16:38Z</time></trkpt><trkpt lat="44.1638351" lon="10.4117309"><ele>783.3333333333334</ele><time>2026-04-18T08:16:41Z</time></trkpt><trkpt lat="44.1639026" lon="10.4117232"><ele>784.1666666666667</ele><time>2026-04-18T08:16:44Z</time></trkpt><trkpt lat="44.1639759" lon="10.4117294"><ele>785.0</ele><time>2026-04-18T08:16:47Z</time></trkpt><trkpt lat="44.1640469" lon="10.411743"><ele>785.0000000000001</ele><time>2026-04-18T08:16:50Z</time></trkpt><trkpt lat="44.1641215" lon="10.4117718"><ele>785.0</ele><time>2026-04-18T08:16:53Z</time></trkpt><trkpt lat="44.1642016" lon="10.4118043"><ele>785.0</ele><time>2026-04-18T08:16:55.999Z</time></trkpt><trkpt lat="44.1642756" lon="10.4118336"><ele>785.0</ele><time>2026-04-18T08:16:59Z</time></trkpt><trkpt lat="44.1643541" lon="10.4118641"><ele>785.0000000000001</ele><time>2026-04-18T08:17:02.005Z</time></trkpt><trkpt lat="44.164421" lon="10.4119088"><ele>785.0</ele><time>2026-04-18T08:17:05Z</time></trkpt><trkpt lat="44.1644943" lon="10.411942"><ele>785.0000000000001</ele><time>2026-04-18T08:17:08Z</time></trkpt><trkpt lat="44.1645629" lon="10.4119914"><ele>785.0</ele><time>2026-04-18T08:17:11Z</time></trkpt><trkpt lat="44.1646325" lon="10.4120474"><ele>785.0</ele><time>2026-04-18T08:17:14Z</time></trkpt><trkpt lat="44.164686" lon="10.4121374"><ele>785.0</ele><time>2026-04-18T08:17:16.999Z</time></trkpt><trkpt lat="44.1647276" lon="10.4122371"><ele>785.0000000000001</ele><time>2026-04-18T08:17:20Z</time></trkpt><trkpt lat="44.1647693" lon="10.4123319"><ele>785.0</ele><time>2026-04-18T08:17:23Z</time></trkpt><trkpt lat="44.1648057" lon="10.4124293"><ele>786.1666666666667</ele><time>2026-04-18T08:17:26Z</time></trkpt><trkpt lat="44.1648359" lon="10.4125323"><ele>787.3333333333334</ele><time>2026-04-18T08:17:29Z</time></trkpt><trkpt lat="44.1648774" lon="10.4126268"><ele>788.5</ele><time>2026-04-18T08:17:32Z</time></trkpt><trkpt lat="44.1649175" lon="10.4127212"><ele>789.6666666666667</ele><time>2026-04-18T08:17:35Z</time></trkpt><trkpt lat="44.16497" lon="10.4127971"><ele>790.8333333333334</ele><time>2026-04-18T08:17:38Z</time></trkpt><trkpt lat="44.1650347" lon="10.4128602"><ele>792.0</ele><time>2026-04-18T08:17:41Z</time></trkpt><trkpt lat="44.1651122" lon="10.4128675"><ele>792.0</ele><time>2026-04-18T08:17:44Z</time></trkpt><trkpt lat="44.1651865" lon="10.4128289"><ele>792.0</ele><time>2026-04-18T08:17:47Z</time></trkpt><trkpt lat="44.1652483" lon="10.4127621"><ele>792.0</ele><time>2026-04-18T08:17:50Z</time></trkpt><trkpt lat="44.1652937" lon="10.4126774"><ele>792.0</ele><time>2026-04-18T08:17:53Z</time></trkpt><trkpt lat="44.1653375" lon="10.4125806"><ele>792.0</ele><time>2026-04-18T08:17:56Z</time></trkpt><trkpt lat="44.1653782" lon="10.4124787"><ele>792.0</ele><time>2026-04-18T08:17:59Z</time></trkpt><trkpt lat="44.1654205" lon="10.4123821"><ele>792.0</ele><time>2026-04-18T08:18:02Z</time></trkpt><trkpt lat="44.1654551" lon="10.4122855"><ele>792.0</ele><time>2026-04-18T08:18:05Z</time></trkpt><trkpt lat="44.1654964" lon="10.4121916"><ele>792.0</ele><time>2026-04-18T08:18:07.984Z</time></trkpt><trkpt lat="44.1655393" lon="10.4121047"><ele>792.0</ele><time>2026-04-18T08:18:10.925Z</time></trkpt><trkpt lat="44.165582" lon="10.412012"><ele>792.0</ele><time>2026-04-18T08:18:14.019Z</time></trkpt><trkpt lat="44.1656219" lon="10.4119184"><ele>792.0</ele><time>2026-04-18T08:18:17Z</time></trkpt><trkpt lat="44.1656638" lon="10.4118213"><ele>792.1666666666666</ele><time>2026-04-18T08:18:20.081Z</time></trkpt><trkpt lat="44.1656959" lon="10.4117322"><ele>792.3333333333333</ele><time>2026-04-18T08:18:23Z</time></trkpt><trkpt lat="44.1657338" lon="10.4116475"><ele>792.5</ele><time>2026-04-18T08:18:26Z</time></trkpt><trkpt lat="44.1657756" lon="10.4115555"><ele>792.6666666666666</ele><time>2026-04-18T08:18:29Z</time></trkpt><trkpt lat="44.1658144" lon="10.4114625"><ele>792.8333333333333</ele><time>2026-04-18T08:18:32Z</time></trkpt><trkpt lat="44.1658563" lon="10.4113675"><ele>793.0</ele><time>2026-04-18T08:18:35Z</time></trkpt><trkpt lat="44.1658995" lon="10.4112778"><ele>792.9999999999999</ele><time>2026-04-18T08:18:38Z</time></trkpt><trkpt lat="44.1659579" lon="10.4112005"><ele>793.0</ele><time>2026-04-18T08:18:41Z</time></trkpt><trkpt lat="44.166028" lon="10.4111501"><ele>793.0</ele><time>2026-04-18T08:18:44Z</time></trkpt><trkpt lat="44.1661014" lon="10.4111244"><ele>793.0</ele><time>2026-04-18T08:18:47Z</time></trkpt><trkpt lat="44.166176" lon="10.4111041"><ele>792.9999999999999</ele><time>2026-04-18T08:18:50Z</time></trkpt><trkpt lat="44.1662536" lon="10.4110838"><ele>793.0</ele><time>2026-04-18T08:18:53Z</time></trkpt><trkpt lat="44.1663303" lon="10.411066"><ele>792.9999999999999</ele><time>2026-04-18T08:18:56Z</time></trkpt><trkpt lat="44.1664065" lon="10.4110489"><ele>793.0</ele><time>2026-04-18T08:18:59Z</time></trkpt><trkpt lat="44.1664886" lon="10.4110554"><ele>793.0</ele><time>2026-04-18T08:19:02Z</time></trkpt><trkpt lat="44.1665695" lon="10.4110857"><ele>793.0</ele><time>2026-04-18T08:19:05Z</time></trkpt><trkpt lat="44.1666345" lon="10.4111354"><ele>792.9999999999999</ele><time>2026-04-18T08:19:08Z</time></trkpt><trkpt lat="44.1666944" lon="10.4111984"><ele>793.0</ele><time>2026-04-18T08:19:11Z</time></trkpt><trkpt lat="44.1667519" lon="10.4112767"><ele>797.4999999999999</ele><time>2026-04-18T08:19:14Z</time></trkpt><trkpt lat="44.1668123" lon="10.4113548"><ele>802.0</ele><time>2026-04-18T08:19:17Z</time></trkpt><trkpt lat="44.1668638" lon="10.4114489"><ele>806.5</ele><time>2026-04-18T08:19:20Z</time></trkpt><trkpt lat="44.1669096" lon="10.4115406"><ele>811.0</ele><time>2026-04-18T08:19:23Z</time></trkpt><trkpt lat="44.1669554" lon="10.4116275"><ele>815.4999999999999</ele><time>2026-04-18T08:19:26Z</time></trkpt><trkpt lat="44.1669998" lon="10.4117153"><ele>820.0</ele><time>2026-04-18T08:19:29Z</time></trkpt><trkpt lat="44.167045" lon="10.4118034"><ele>819.9999999999999</ele><time>2026-04-18T08:19:32Z</time></trkpt><trkpt lat="44.1670963" lon="10.4118944"><ele>820.0</ele><time>2026-04-18T08:19:35Z</time></trkpt><trkpt lat="44.1671457" lon="10.4119778"><ele>820.0</ele><time>2026-04-18T08:19:38Z</time></trkpt><trkpt lat="44.167202" lon="10.4120647"><ele>820.0</ele><time>2026-04-18T08:19:41Z</time></trkpt><trkpt lat="44.1672518" lon="10.4121624"><ele>819.9999999999999</ele><time>2026-04-18T08:19:44Z</time></trkpt><trkpt lat="44.1673021" lon="10.4122545"><ele>820.0</ele><time>2026-04-18T08:19:47Z</time></trkpt><trkpt lat="44.1673497" lon="10.4123414"><ele>820.4999999999999</ele><time>2026-04-18T08:19:50Z</time></trkpt><trkpt lat="44.1674058" lon="10.4124335"><ele>821.0</ele><time>2026-04-18T08:19:53Z</time></trkpt><trkpt lat="44.1674511" lon="10.4125162"><ele>821.5</ele><time>2026-04-18T08:19:56Z</time></trkpt><trkpt lat="44.1675021" lon="10.412595"><ele>822.0</ele><time>2026-04-18T08:19:59Z</time></trkpt><trkpt lat="44.1675604" lon="10.4126686"><ele>822.4999999999999</ele><time>2026-04-18T08:20:02Z</time></trkpt><trkpt lat="44.1676219" lon="10.4127484"><ele>823.0</ele><time>2026-04-18T08:20:05Z</time></trkpt><trkpt lat="44.1676811" lon="10.4128188"><ele>823.0</ele><time>2026-04-18T08:20:08Z</time></trkpt><trkpt lat="44.1677324" lon="10.412895"><ele>823.0</ele><time>2026-04-18T08:20:11Z</time></trkpt><trkpt lat="44.1677712" lon="10.4129762"><ele>823.0</ele><time>2026-04-18T08:20:14Z</time></trkpt><trkpt lat="44.1678092" lon="10.4130625"><ele>823.0</ele><time>2026-04-18T08:20:17Z</time></trkpt><trkpt lat="44.1678501" lon="10.4131526"><ele>823.0</ele><time>2026-04-18T08:20:20Z</time></trkpt><trkpt lat="44.1678983" lon="10.4132465"><ele>823.0</ele><time>2026-04-18T08:20:23Z</time></trkpt><trkpt lat="44.1679449" lon="10.413324"><ele>823.0</ele><time>2026-04-18T08:20:26Z</time></trkpt><trkpt lat="44.1680062" lon="10.4133918"><ele>825.6666666666666</ele><time>2026-04-18T08:20:29Z</time></trkpt><trkpt lat="44.1680896" lon="10.4134248"><ele>828.3333333333333</ele><time>2026-04-18T08:20:32Z</time></trkpt><trkpt lat="44.1681792" lon="10.4134394"><ele>831.0</ele><time>2026-04-18T08:20:35Z</time></trkpt><trkpt lat="44.1682443" lon="10.4134336"><ele>833.6666666666667</ele><time>2026-04-18T08:20:37Z</time></trkpt><trkpt lat="44.1683307" lon="10.4134254"><ele>836.3333333333334</ele><time>2026-04-18T08:20:40Z</time></trkpt><trkpt lat="44.1684149" lon="10.413417"><ele>839.0</ele><time>2026-04-18T08:20:43Z</time></trkpt><trkpt lat="44.1684973" lon="10.4133987"><ele>839.0000000000001</ele><time>2026-04-18T08:20:46Z</time></trkpt><trkpt lat="44.1685456" lon="10.4133126"><ele>839.0</ele><time>2026-04-18T08:20:49Z</time></trkpt><trkpt lat="44.1685644" lon="10.4132068"><ele>839.0</ele><time>2026-04-18T08:20:52Z</time></trkpt><trkpt lat="44.1685716" lon="10.4130966"><ele>839.0</ele><time>2026-04-18T08:20:55Z</time></trkpt><trkpt lat="44.1685832" lon="10.4129881"><ele>839.0000000000001</ele><time>2026-04-18T08:20:58Z</time></trkpt><trkpt lat="44.1685959" lon="10.4128789"><ele>839.0</ele><time>2026-04-18T08:21:01Z</time></trkpt><trkpt lat="44.168609" lon="10.4127668"><ele>836.6666666666667</ele><time>2026-04-18T08:21:04Z</time></trkpt><trkpt lat="44.1686179" lon="10.4126513"><ele>834.3333333333334</ele><time>2026-04-18T08:21:07Z</time></trkpt><trkpt lat="44.1686254" lon="10.4125357"><ele>832.0</ele><time>2026-04-18T08:21:10Z</time></trkpt><trkpt lat="44.1686337" lon="10.4124238"><ele>829.6666666666667</ele><time>2026-04-18T08:21:13Z</time></trkpt><trkpt lat="44.1686446" lon="10.4123169"><ele>827.3333333333334</ele><time>2026-04-18T08:21:16Z</time></trkpt><trkpt lat="44.1686525" lon="10.4122097"><ele>825.0</ele><time>2026-04-18T08:21:19Z</time></trkpt><trkpt lat="44.168659" lon="10.4121003"><ele>823.8333333333334</ele><time>2026-04-18T08:21:22Z</time></trkpt><trkpt lat="44.1686667" lon="10.4119854"><ele>822.6666666666667</ele><time>2026-04-18T08:21:25Z</time></trkpt><trkpt lat="44.1686689" lon="10.4118738"><ele>821.5</ele><time>2026-04-18T08:21:28Z</time></trkpt><trkpt lat="44.1686832" lon="10.4117646"><ele>820.3333333333334</ele><time>2026-04-18T08:21:31Z</time></trkpt><trkpt lat="44.1687025" lon="10.4116665"><ele>819.1666666666667</ele><time>2026-04-18T08:21:34Z</time></trkpt><trkpt lat="44.1687238" lon="10.4115697"><ele>818.0</ele><time>2026-04-18T08:21:37Z</time></trkpt><trkpt lat="44.168735" lon="10.4114654"><ele>818.0000000000001</ele><time>2026-04-18T08:21:40Z</time></trkpt><trkpt lat="44.1687469" lon="10.4113584"><ele>818.0</ele><time>2026-04-18T08:21:43Z</time></trkpt><trkpt lat="44.1687629" lon="10.4112534"><ele>818.0</ele><time>2026-04-18T08:21:46Z</time></trkpt><trkpt lat="44.1687904" lon="10.4111485"><ele>818.0</ele><time>2026-04-18T08:21:49Z</time></trkpt><trkpt lat="44.1688315" lon="10.411057"><ele>818.0000000000001</ele><time>2026-04-18T08:21:52Z</time></trkpt><trkpt lat="44.1688881" lon="10.4109892"><ele>818.0</ele><time>2026-04-18T08:21:55Z</time></trkpt><trkpt lat="44.168961" lon="10.4109571"><ele>820.6666666666667</ele><time>2026-04-18T08:21:58Z</time></trkpt><trkpt lat="44.169038" lon="10.4109526"><ele>823.3333333333334</ele><time>2026-04-18T08:22:01Z</time></trkpt><trkpt lat="44.1691161" lon="10.4109644"><ele>826.0</ele><time>2026-04-18T08:22:04Z</time></trkpt><trkpt lat="44.1691937" lon="10.4109714"><ele>828.6666666666667</ele><time>2026-04-18T08:22:07Z</time></trkpt><trkpt lat="44.1692737" lon="10.4109828"><ele>831.3333333333334</ele><time>2026-04-18T08:22:10Z</time></trkpt><trkpt lat="44.169349" lon="10.4109836"><ele>834.0</ele><time>2026-04-18T08:22:13Z</time></trkpt><trkpt lat="44.1694247" lon="10.410993"><ele>834.0</ele><time>2026-04-18T08:22:16Z</time></trkpt><trkpt lat="44.1695035" lon="10.4109972"><ele>834.0</ele><time>2026-04-18T08:22:19Z</time></trkpt><trkpt lat="44.1695795" lon="10.4110182"><ele>834.0</ele><time>2026-04-18T08:22:22Z</time></trkpt><trkpt lat="44.1696578" lon="10.4110479"><ele>834.0</ele><time>2026-04-18T08:22:25Z</time></trkpt><trkpt lat="44.1697195" lon="10.4110954"><ele>834.0</ele><time>2026-04-18T08:22:28Z</time></trkpt><trkpt lat="44.169779" lon="10.4111493"><ele>834.0</ele><time>2026-04-18T08:22:31Z</time></trkpt><trkpt lat="44.1698368" lon="10.4112194"><ele>835.1666666666666</ele><time>2026-04-18T08:22:34Z</time></trkpt><trkpt lat="44.1698889" lon="10.4113001"><ele>836.3333333333333</ele><time>2026-04-18T08:22:37Z</time></trkpt><trkpt lat="44.1699473" lon="10.4113797"><ele>837.5</ele><time>2026-04-18T08:22:40Z</time></trkpt><trkpt lat="44.1699961" lon="10.4114702"><ele>838.6666666666666</ele><time>2026-04-18T08:22:43Z</time></trkpt><trkpt lat="44.1700364" lon="10.4115625"><ele>839.8333333333333</ele><time>2026-04-18T08:22:46Z</time></trkpt><trkpt lat="44.1700732" lon="10.4116535"><ele>841.0</ele><time>2026-04-18T08:22:49Z</time></trkpt><trkpt lat="44.1701421" lon="10.4117377"><ele>843.8333333333333</ele><time>2026-04-18T08:22:52Z</time></trkpt><trkpt lat="44.1702079" lon="10.4118219"><ele>846.6666666666666</ele><time>2026-04-18T08:22:55Z</time></trkpt><trkpt lat="44.1702646" lon="10.4118883"><ele>849.5</ele><time>2026-04-18T08:22:58Z</time></trkpt><trkpt lat="44.1703278" lon="10.4119577"><ele>852.3333333333333</ele><time>2026-04-18T08:23:01Z</time></trkpt><trkpt lat="44.1703953" lon="10.4120234"><ele>855.1666666666666</ele><time>2026-04-18T08:23:04Z</time></trkpt><trkpt lat="44.1704604" lon="10.41208"><ele>858.0</ele><time>2026-04-18T08:23:07Z</time></trkpt><trkpt lat="44.1705238" lon="10.4121334"><ele>861.5</ele><time>2026-04-18T08:23:10Z</time></trkpt><trkpt lat="44.1705844" lon="10.4121649"><ele>865.0</ele><time>2026-04-18T08:23:13Z</time></trkpt><trkpt lat="44.170655" lon="10.4122112"><ele>868.5</ele><time>2026-04-18T08:23:16Z</time></trkpt><trkpt lat="44.1707257" lon="10.4122658"><ele>872.0</ele><time>2026-04-18T08:23:19Z</time></trkpt><trkpt lat="44.1707965" lon="10.4123148"><ele>875.5</ele><time>2026-04-18T08:23:22Z</time></trkpt><trkpt lat="44.1708902" lon="10.4123323"><ele>879.0</ele><time>2026-04-18T08:23:25Z</time></trkpt><trkpt lat="44.1709752" lon="10.4123075"><ele>879.1666666666666</ele><time>2026-04-18T08:23:28Z</time></trkpt><trkpt lat="44.1710288" lon="10.4122437"><ele>879.3333333333333</ele><time>2026-04-18T08:23:31Z</time></trkpt><trkpt lat="44.1710368" lon="10.4121425"><ele>879.5</ele><time>2026-04-18T08:23:34Z</time></trkpt><trkpt lat="44.171" lon="10.4120393"><ele>879.6666666666666</ele><time>2026-04-18T08:23:37Z</time></trkpt><trkpt lat="44.170945" lon="10.4119545"><ele>879.8333333333333</ele><time>2026-04-18T08:23:40Z</time></trkpt><trkpt lat="44.1708788" lon="10.4118791"><ele>880.0</ele><time>2026-04-18T08:23:43.009Z</time></trkpt><trkpt lat="44.1708286" lon="10.4117814"><ele>878.1428571428571</ele><time>2026-04-18T08:23:46Z</time></trkpt><trkpt lat="44.1707802" lon="10.4116928"><ele>876.2857142857142</ele><time>2026-04-18T08:23:49.003Z</time></trkpt><trkpt lat="44.1707527" lon="10.4115988"><ele>874.4285714285713</ele><time>2026-04-18T08:23:52Z</time></trkpt><trkpt lat="44.1707351" lon="10.4114963"><ele>872.5714285714286</ele><time>2026-04-18T08:23:55Z</time></trkpt><trkpt lat="44.1707286" lon="10.4114022"><ele>870.7142857142858</ele><time>2026-04-18T08:23:58Z</time></trkpt><trkpt lat="44.1707335" lon="10.4113008"><ele>868.8571428571428</ele><time>2026-04-18T08:24:00.967Z</time></trkpt><trkpt lat="44.1707505" lon="10.4112065"><ele>867.0</ele><time>2026-04-18T08:24:04Z</time></trkpt><trkpt lat="44.1707666" lon="10.4111038"><ele>866.8333333333334</ele><time>2026-04-18T08:24:07Z</time></trkpt><trkpt lat="44.1707731" lon="10.4110019"><ele>866.6666666666667</ele><time>2026-04-18T08:24:10.037Z</time></trkpt><trkpt lat="44.170778" lon="10.4109111"><ele>866.5</ele><time>2026-04-18T08:24:13Z</time></trkpt><trkpt lat="44.1707815" lon="10.4108005"><ele>866.3333333333334</ele><time>2026-04-18T08:24:16Z</time></trkpt><trkpt lat="44.1707777" lon="10.4106909"><ele>866.1666666666667</ele><time>2026-04-18T08:24:19Z</time></trkpt><trkpt lat="44.1707746" lon="10.4105776"><ele>866.0</ele><time>2026-04-18T08:24:22Z</time></trkpt><trkpt lat="44.1707704" lon="10.4104767"><ele>865.8333333333334</ele><time>2026-04-18T08:24:25Z</time></trkpt><trkpt lat="44.1707668" lon="10.4103741"><ele>865.6666666666667</ele><time>2026-04-18T08:24:28Z</time></trkpt><trkpt lat="44.1707666" lon="10.4102589"><ele>865.5</ele><time>2026-04-18T08:24:31Z</time></trkpt><trkpt lat="44.1707647" lon="10.4101519"><ele>865.3333333333333</ele><time>2026-04-18T08:24:34Z</time></trkpt><trkpt lat="44.1707597" lon="10.4100449"><ele>865.1666666666666</ele><time>2026-04-18T08:24:37Z</time></trkpt><trkpt lat="44.1707553" lon="10.4099363"><ele>865.0</ele><time>2026-04-18T08:24:40Z</time></trkpt><trkpt lat="44.1707635" lon="10.4098212"><ele>864.9999999999999</ele><time>2026-04-18T08:24:43Z</time></trkpt><trkpt lat="44.1707858" lon="10.4097109"><ele>865.0</ele><time>2026-04-18T08:24:46Z</time></trkpt><trkpt lat="44.1708131" lon="10.4096067"><ele>865.0</ele><time>2026-04-18T08:24:49Z</time></trkpt><trkpt lat="44.1708501" lon="10.4095085"><ele>865.0</ele><time>2026-04-18T08:24:52Z</time></trkpt><trkpt lat="44.1708874" lon="10.4094107"><ele>864.9999999999999</ele><time>2026-04-18T08:24:55Z</time></trkpt><trkpt lat="44.1709218" lon="10.4093192"><ele>865.0</ele><time>2026-04-18T08:24:58Z</time></trkpt><trkpt lat="44.1709574" lon="10.4092203"><ele>864.3333333333333</ele><time>2026-04-18T08:25:01Z</time></trkpt><trkpt lat="44.1710051" lon="10.409134"><ele>863.6666666666666</ele><time>2026-04-18T08:25:04Z</time></trkpt><trkpt lat="44.1710807" lon="10.4091015"><ele>863.0</ele><time>2026-04-18T08:25:07Z</time></trkpt><trkpt lat="44.1711504" lon="10.4091388"><ele>862.3333333333333</ele><time>2026-04-18T08:25:10Z</time></trkpt><trkpt lat="44.1712117" lon="10.4091901"><ele>861.6666666666666</ele><time>2026-04-18T08:25:13Z</time></trkpt><trkpt lat="44.1712693" lon="10.4092441"><ele>861.0</ele><time>2026-04-18T08:25:16Z</time></trkpt><trkpt lat="44.1713366" lon="10.4092989"><ele>861.0</ele><time>2026-04-18T08:25:19.999Z</time></trkpt><trkpt lat="44.1713926" lon="10.4093564"><ele>861.0</ele><time>2026-04-18T08:25:23Z</time></trkpt><trkpt lat="44.1714703" lon="10.4094173"><ele>861.0</ele><time>2026-04-18T08:25:27Z</time></trkpt><trkpt lat="44.1715449" lon="10.4094714"><ele>861.0</ele><time>2026-04-18T08:25:30Z</time></trkpt><trkpt lat="44.1716147" lon="10.4095066"><ele>861.0</ele><time>2026-04-18T08:25:33Z</time></trkpt><trkpt lat="44.1716901" lon="10.4095331"><ele>861.0</ele><time>2026-04-18T08:25:36Z</time></trkpt><trkpt lat="44.171774" lon="10.4095343"><ele>861.1666666666666</ele><time>2026-04-18T08:25:39Z</time></trkpt><trkpt lat="44.1718557" lon="10.4095237"><ele>861.3333333333333</ele><time>2026-04-18T08:25:42Z</time></trkpt><trkpt lat="44.1719329" lon="10.4095175"><ele>861.5</ele><time>2026-04-18T08:25:44.999Z</time></trkpt><trkpt lat="44.1720032" lon="10.4095275"><ele>861.6666666666666</ele><time>2026-04-18T08:25:48Z</time></trkpt><trkpt lat="44.1720924" lon="10.4095487"><ele>861.8333333333333</ele><time>2026-04-18T08:25:51Z</time></trkpt><trkpt lat="44.1721747" lon="10.4095692"><ele>862.0</ele><time>2026-04-18T08:25:54Z</time></trkpt><trkpt lat="44.1722551" lon="10.4095925"><ele>861.9999999999999</ele><time>2026-04-18T08:25:57Z</time></trkpt><trkpt lat="44.17233" lon="10.4096154"><ele>862.0</ele><time>2026-04-18T08:26:00Z</time></trkpt><trkpt lat="44.1724023" lon="10.4096443"><ele>862.0</ele><time>2026-04-18T08:26:03Z</time></trkpt><trkpt lat="44.1724723" lon="10.409691"><ele>862.0</ele><time>2026-04-18T08:26:06Z</time></trkpt><trkpt lat="44.1725285" lon="10.4097425"><ele>861.9999999999999</ele><time>2026-04-18T08:26:09Z</time></trkpt><trkpt lat="44.1725982" lon="10.4098015"><ele>862.0</ele><time>2026-04-18T08:26:12Z</time></trkpt><trkpt lat="44.1726714" lon="10.4098325"><ele>861.6666666666666</ele><time>2026-04-18T08:26:15Z</time></trkpt><trkpt lat="44.1727472" lon="10.4098362"><ele>861.3333333333333</ele><time>2026-04-18T08:26:18Z</time></trkpt><trkpt lat="44.1728241" lon="10.4098027"><ele>861.0</ele><time>2026-04-18T08:26:21Z</time></trkpt><trkpt lat="44.1728946" lon="10.4097537"><ele>860.6666666666667</ele><time>2026-04-18T08:26:24Z</time></trkpt><trkpt lat="44.1729626" lon="10.4097097"><ele>860.3333333333334</ele><time>2026-04-18T08:26:27Z</time></trkpt><trkpt lat="44.1730328" lon="10.4096688"><ele>860.0</ele><time>2026-04-18T08:26:30Z</time></trkpt><trkpt lat="44.1730983" lon="10.4096254"><ele>860.0</ele><time>2026-04-18T08:26:33Z</time></trkpt><trkpt lat="44.1731695" lon="10.4095851"><ele>860.0</ele><time>2026-04-18T08:26:36Z</time></trkpt><trkpt lat="44.1732394" lon="10.4095491"><ele>860.0</ele><time>2026-04-18T08:26:39Z</time></trkpt><trkpt lat="44.1733041" lon="10.4095154"><ele>860.0</ele><time>2026-04-18T08:26:42Z</time></trkpt><trkpt lat="44.1733692" lon="10.4095135"><ele>860.0</ele><time>2026-04-18T08:26:45Z</time></trkpt><trkpt lat="44.1734491" lon="10.4095273"><ele>860.0</ele><time>2026-04-18T08:26:48Z</time></trkpt><trkpt lat="44.1735194" lon="10.409562"><ele>860.0</ele><time>2026-04-18T08:26:51Z</time></trkpt><trkpt lat="44.1735963" lon="10.4096028"><ele>861.5000000000001</ele><time>2026-04-18T08:26:54Z</time></trkpt><trkpt lat="44.1736726" lon="10.4096428"><ele>863.0</ele><time>2026-04-18T08:26:57Z</time></trkpt><trkpt lat="44.1737499" lon="10.4096837"><ele>864.5</ele><time>2026-04-18T08:27:00Z</time></trkpt><trkpt lat="44.1738338" lon="10.4097114"><ele>866.0</ele><time>2026-04-18T08:27:03Z</time></trkpt><trkpt lat="44.1739149" lon="10.4097473"><ele>867.5000000000001</ele><time>2026-04-18T08:27:06Z</time></trkpt><trkpt lat="44.1739872" lon="10.409777"><ele>869.0</ele><time>2026-04-18T08:27:09Z</time></trkpt><trkpt lat="44.1740542" lon="10.4098192"><ele>876.1666666666667</ele><time>2026-04-18T08:27:12Z</time></trkpt><trkpt lat="44.1741141" lon="10.4098731"><ele>883.3333333333334</ele><time>2026-04-18T08:27:15Z</time></trkpt><trkpt lat="44.1741816" lon="10.409931"><ele>890.5</ele><time>2026-04-18T08:27:18Z</time></trkpt><trkpt lat="44.174252" lon="10.409988"><ele>897.6666666666667</ele><time>2026-04-18T08:27:21Z</time></trkpt><trkpt lat="44.174333" lon="10.4100236"><ele>904.8333333333334</ele><time>2026-04-18T08:27:24Z</time></trkpt><trkpt lat="44.1744081" lon="10.4100511"><ele>912.0</ele><time>2026-04-18T08:27:27Z</time></trkpt><trkpt lat="44.1744804" lon="10.4100752"><ele>912.0</ele><time>2026-04-18T08:27:30Z</time></trkpt><trkpt lat="44.1745493" lon="10.4100991"><ele>912.0</ele><time>2026-04-18T08:27:33Z</time></trkpt><trkpt lat="44.1746188" lon="10.4101265"><ele>912.0</ele><time>2026-04-18T08:27:36Z</time></trkpt><trkpt lat="44.1746934" lon="10.4101807"><ele>912.0</ele><time>2026-04-18T08:27:39Z</time></trkpt><trkpt lat="44.1747695" lon="10.4102321"><ele>912.0</ele><time>2026-04-18T08:27:42Z</time></trkpt><trkpt lat="44.1748533" lon="10.4102664"><ele>912.0</ele><time>2026-04-18T08:27:45Z</time></trkpt><trkpt lat="44.1749337" lon="10.410223"><ele>912.0</ele><time>2026-04-18T08:27:48Z</time></trkpt><trkpt lat="44.1749723" lon="10.4101244"><ele>912.0</ele><time>2026-04-18T08:27:51Z</time></trkpt><trkpt lat="44.1749581" lon="10.4100198"><ele>912.0</ele><time>2026-04-18T08:27:54Z</time></trkpt><trkpt lat="44.1749187" lon="10.4099246"><ele>912.0</ele><time>2026-04-18T08:27:57Z</time></trkpt><trkpt lat="44.1748773" lon="10.4098278"><ele>912.0</ele><time>2026-04-18T08:28:00Z</time></trkpt><trkpt lat="44.1748286" lon="10.409738"><ele>912.0</ele><time>2026-04-18T08:28:03Z</time></trkpt><trkpt lat="44.1747867" lon="10.4096482"><ele>907.8333333333334</ele><time>2026-04-18T08:28:06Z</time></trkpt><trkpt lat="44.1747568" lon="10.409545"><ele>903.6666666666667</ele><time>2026-04-18T08:28:09Z</time></trkpt><trkpt lat="44.1747428" lon="10.4094276"><ele>899.5</ele><time>2026-04-18T08:28:12Z</time></trkpt><trkpt lat="44.1747568" lon="10.4093137"><ele>895.3333333333334</ele><time>2026-04-18T08:28:15Z</time></trkpt><trkpt lat="44.1747849" lon="10.4092"><ele>891.1666666666667</ele><time>2026-04-18T08:28:18Z</time></trkpt><trkpt lat="44.1748167" lon="10.4090941"><ele>887.0</ele><time>2026-04-18T08:28:21Z</time></trkpt><trkpt lat="44.1748449" lon="10.408993"><ele>890.5000000000001</ele><time>2026-04-18T08:28:24Z</time></trkpt><trkpt lat="44.1748682" lon="10.4088908"><ele>894.0</ele><time>2026-04-18T08:28:27Z</time></trkpt><trkpt lat="44.1748896" lon="10.4087879"><ele>897.5</ele><time>2026-04-18T08:28:30Z</time></trkpt><trkpt lat="44.1749198" lon="10.4086809"><ele>901.0</ele><time>2026-04-18T08:28:33Z</time></trkpt><trkpt lat="44.1749677" lon="10.4085906"><ele>904.5000000000001</ele><time>2026-04-18T08:28:36.015Z</time></trkpt><trkpt lat="44.1750295" lon="10.4085183"><ele>908.0</ele><time>2026-04-18T08:28:39Z</time></trkpt><trkpt lat="44.1750792" lon="10.4084581"><ele>908.0000000000001</ele><time>2026-04-18T08:28:42Z</time></trkpt><trkpt lat="44.1751323" lon="10.4083913"><ele>908.0</ele><time>2026-04-18T08:28:45Z</time></trkpt><trkpt lat="44.1751892" lon="10.4083277"><ele>908.0</ele><time>2026-04-18T08:28:48Z</time></trkpt><trkpt lat="44.1752475" lon="10.4082513"><ele>908.0</ele><time>2026-04-18T08:28:51Z</time></trkpt><trkpt lat="44.1753067" lon="10.4081699"><ele>908.0000000000001</ele><time>2026-04-18T08:28:54Z</time></trkpt><trkpt lat="44.1753668" lon="10.4080912"><ele>908.0</ele><time>2026-04-18T08:28:57Z</time></trkpt><trkpt lat="44.1754008" lon="10.4079996"><ele>907.6666666666667</ele><time>2026-04-18T08:29:00Z</time></trkpt><trkpt lat="44.1754089" lon="10.4078892"><ele>907.3333333333334</ele><time>2026-04-18T08:29:03Z</time></trkpt><trkpt lat="44.1753986" lon="10.4077811"><ele>907.0</ele><time>2026-04-18T08:29:06Z</time></trkpt><trkpt lat="44.1753816" lon="10.407673"><ele>906.6666666666667</ele><time>2026-04-18T08:29:09Z</time></trkpt><trkpt lat="44.1753744" lon="10.4075496"><ele>906.3333333333334</ele><time>2026-04-18T08:29:12Z</time></trkpt><trkpt lat="44.1753798" lon="10.4074378"><ele>906.0</ele><time>2026-04-18T08:29:15Z</time></trkpt><trkpt lat="44.1753985" lon="10.4073351"><ele>906.0</ele><time>2026-04-18T08:29:18Z</time></trkpt><trkpt lat="44.1754062" lon="10.4072268"><ele>906.0</ele><time>2026-04-18T08:29:21Z</time></trkpt><trkpt lat="44.1753959" lon="10.4071257"><ele>906.0</ele><time>2026-04-18T08:29:24Z</time></trkpt><trkpt lat="44.1753729" lon="10.4070104"><ele>906.0</ele><time>2026-04-18T08:29:27Z</time></trkpt><trkpt lat="44.17534" lon="10.4068921"><ele>906.0</ele><time>2026-04-18T08:29:30Z</time></trkpt><trkpt lat="44.1753066" lon="10.4067815"><ele>906.0</ele><time>2026-04-18T08:29:33Z</time></trkpt><trkpt lat="44.175274" lon="10.4066723"><ele>907.8333333333334</ele><time>2026-04-18T08:29:35.999Z</time></trkpt><trkpt lat="44.175238" lon="10.4065659"><ele>909.6666666666667</ele><time>2026-04-18T08:29:39Z</time></trkpt><trkpt lat="44.1752031" lon="10.4064703"><ele>911.5</ele><time>2026-04-18T08:29:42Z</time></trkpt><trkpt lat="44.1751747" lon="10.4063688"><ele>913.3333333333334</ele><time>2026-04-18T08:29:45Z</time></trkpt><trkpt lat="44.1751541" lon="10.4062749"><ele>915.1666666666667</ele><time>2026-04-18T08:29:48Z</time></trkpt><trkpt lat="44.1751313" lon="10.4061763"><ele>917.0</ele><time>2026-04-18T08:29:51Z</time></trkpt><trkpt lat="44.175106" lon="10.4060642"><ele>919.3333333333334</ele><time>2026-04-18T08:29:54Z</time></trkpt><trkpt lat="44.1750823" lon="10.4059499"><ele>921.6666666666667</ele><time>2026-04-18T08:29:57Z</time></trkpt><trkpt lat="44.1750655" lon="10.40585"><ele>924.0</ele><time>2026-04-18T08:30:00Z</time></trkpt><trkpt lat="44.1750495" lon="10.4057368"><ele>926.3333333333333</ele><time>2026-04-18T08:30:03Z</time></trkpt><trkpt lat="44.1750392" lon="10.4056303"><ele>928.6666666666666</ele><time>2026-04-18T08:30:06Z</time></trkpt><trkpt lat="44.175031" lon="10.4055264"><ele>931.0</ele><time>2026-04-18T08:30:09Z</time></trkpt><trkpt lat="44.175028" lon="10.4054228"><ele>932.4999999999999</ele><time>2026-04-18T08:30:12Z</time></trkpt><trkpt lat="44.1750233" lon="10.4053058"><ele>934.0</ele><time>2026-04-18T08:30:15Z</time></trkpt><trkpt lat="44.1750117" lon="10.4052164"><ele>935.5</ele><time>2026-04-18T08:30:17Z</time></trkpt><trkpt lat="44.1749929" lon="10.405129"><ele>937.0</ele><time>2026-04-18T08:30:19Z</time></trkpt><trkpt lat="44.1749691" lon="10.4050054"><ele>938.4999999999999</ele><time>2026-04-18T08:30:22Z</time></trkpt><trkpt lat="44.174928" lon="10.4048947"><ele>940.0</ele><time>2026-04-18T08:30:25Z</time></trkpt><trkpt lat="44.174885" lon="10.4047844"><ele>936.7142857142857</ele><time>2026-04-18T08:30:28Z</time></trkpt><trkpt lat="44.1748408" lon="10.4046824"><ele>933.4285714285713</ele><time>2026-04-18T08:30:31Z</time></trkpt><trkpt lat="44.1748053" lon="10.4046077"><ele>930.1428571428571</ele><time>2026-04-18T08:30:33Z</time></trkpt><trkpt lat="44.1747665" lon="10.4045267"><ele>926.8571428571429</ele><time>2026-04-18T08:30:35Z</time></trkpt><trkpt lat="44.1747321" lon="10.4044448"><ele>923.5714285714286</ele><time>2026-04-18T08:30:37Z</time></trkpt><trkpt lat="44.1746955" lon="10.4043687"><ele>920.2857142857142</ele><time>2026-04-18T08:30:39Z</time></trkpt><trkpt lat="44.1746598" lon="10.4042523"><ele>917.0</ele><time>2026-04-18T08:30:42Z</time></trkpt><trkpt lat="44.1746205" lon="10.4041432"><ele>917.0</ele><time>2026-04-18T08:30:45Z</time></trkpt><trkpt lat="44.1745878" lon="10.4040611"><ele>917.0</ele><time>2026-04-18T08:30:47Z</time></trkpt><trkpt lat="44.1745395" lon="10.4039414"><ele>917.0</ele><time>2026-04-18T08:30:50Z</time></trkpt><trkpt lat="44.1745084" lon="10.4038564"><ele>917.0</ele><time>2026-04-18T08:30:52Z</time></trkpt><trkpt lat="44.1744874" lon="10.4037736"><ele>917.0</ele><time>2026-04-18T08:30:54Z</time></trkpt><trkpt lat="44.1744666" lon="10.4036866"><ele>917.0</ele><time>2026-04-18T08:30:56Z</time></trkpt><trkpt lat="44.1744498" lon="10.4036015"><ele>917.0</ele><time>2026-04-18T08:30:58Z</time></trkpt><trkpt lat="44.1744318" lon="10.403472"><ele>916.8333333333334</ele><time>2026-04-18T08:31:01Z</time></trkpt><trkpt lat="44.174427" lon="10.4033839"><ele>916.6666666666667</ele><time>2026-04-18T08:31:03Z</time></trkpt><trkpt lat="44.1744302" lon="10.4032549"><ele>916.5</ele><time>2026-04-18T08:31:06Z</time></trkpt><trkpt lat="44.1744506" lon="10.4031344"><ele>916.3333333333333</ele><time>2026-04-18T08:31:09Z</time></trkpt><trkpt lat="44.174501" lon="10.4030275"><ele>916.1666666666666</ele><time>2026-04-18T08:31:12Z</time></trkpt><trkpt lat="44.1745513" lon="10.4029298"><ele>916.0</ele><time>2026-04-18T08:31:15Z</time></trkpt><trkpt lat="44.1746051" lon="10.4028351"><ele>915.9999999999999</ele><time>2026-04-18T08:31:18Z</time></trkpt><trkpt lat="44.1746634" lon="10.4027387"><ele>916.0</ele><time>2026-04-18T08:31:21Z</time></trkpt><trkpt lat="44.1747159" lon="10.4026361"><ele>916.0</ele><time>2026-04-18T08:31:24Z</time></trkpt><trkpt lat="44.1747963" lon="10.4026062"><ele>916.0</ele><time>2026-04-18T08:31:27Z</time></trkpt><trkpt lat="44.1748295" lon="10.4027025"><ele>915.9999999999999</ele><time>2026-04-18T08:31:30Z</time></trkpt><trkpt lat="44.1747805" lon="10.4027772"><ele>916.0</ele><time>2026-04-18T08:31:33Z</time></trkpt><trkpt lat="44.174721" lon="10.4028491"><ele>916.0</ele><time>2026-04-18T08:31:36Z</time></trkpt><trkpt lat="44.1746658" lon="10.4029147"><ele>916.0</ele><time>2026-04-18T08:31:39Z</time></trkpt><trkpt lat="44.1746202" lon="10.4029959"><ele>916.0</ele><time>2026-04-18T08:31:42Z</time></trkpt><trkpt lat="44.1745905" lon="10.4030937"><ele>916.0</ele><time>2026-04-18T08:31:45Z</time></trkpt><trkpt lat="44.1745764" lon="10.4031995"><ele>916.0</ele><time>2026-04-18T08:31:48Z</time></trkpt><trkpt lat="44.1745825" lon="10.4033047"><ele>916.0</ele><time>2026-04-18T08:31:51Z</time></trkpt><trkpt lat="44.1746104" lon="10.4033922"><ele>916.0</ele><time>2026-04-18T08:31:54Z</time></trkpt><trkpt lat="44.1746511" lon="10.4034732"><ele>917.7142857142857</ele><time>2026-04-18T08:31:57Z</time></trkpt><trkpt lat="44.1746885" lon="10.4035569"><ele>919.4285714285716</ele><time>2026-04-18T08:32:00Z</time></trkpt><trkpt lat="44.1747278" lon="10.4036327"><ele>921.1428571428572</ele><time>2026-04-18T08:32:03Z</time></trkpt><trkpt lat="44.1747726" lon="10.4037117"><ele>922.8571428571429</ele><time>2026-04-18T08:32:06Z</time></trkpt><trkpt lat="44.1748159" lon="10.4037977"><ele>924.5714285714287</ele><time>2026-04-18T08:32:09Z</time></trkpt><trkpt lat="44.1748633" lon="10.4038924"><ele>926.2857142857144</ele><time>2026-04-18T08:32:11.999Z</time></trkpt><trkpt lat="44.1749034" lon="10.403985"><ele>928.0000000000001</ele><time>2026-04-18T08:32:16Z</time></trkpt><trkpt lat="44.1749449" lon="10.4040692"><ele>929.7142857142858</ele><time>2026-04-18T08:32:19Z</time></trkpt><trkpt lat="44.1749807" lon="10.4041511"><ele>931.4285714285714</ele><time>2026-04-18T08:32:22Z</time></trkpt><trkpt lat="44.1750297" lon="10.4042474"><ele>933.1428571428571</ele><time>2026-04-18T08:32:25Z</time></trkpt><trkpt lat="44.1750695" lon="10.4043292"><ele>934.8571428571429</ele><time>2026-04-18T08:32:28Z</time></trkpt><trkpt lat="44.1751155" lon="10.4044185"><ele>936.5714285714284</ele><time>2026-04-18T08:32:31Z</time></trkpt><trkpt lat="44.1751556" lon="10.4044963"><ele>938.2857142857142</ele><time>2026-04-18T08:32:34Z</time></trkpt><trkpt lat="44.175203" lon="10.4045818"><ele>940.0</ele><time>2026-04-18T08:32:37Z</time></trkpt><trkpt lat="44.1752514" lon="10.4046675"><ele>939.9999999999999</ele><time>2026-04-18T08:32:40Z</time></trkpt><trkpt lat="44.1753036" lon="10.4047649"><ele>940.0</ele><time>2026-04-18T08:32:43Z</time></trkpt><trkpt lat="44.1753466" lon="10.4048554"><ele>940.0</ele><time>2026-04-18T08:32:46Z</time></trkpt><trkpt lat="44.1753917" lon="10.4049442"><ele>940.0</ele><time>2026-04-18T08:32:49Z</time></trkpt><trkpt lat="44.1754437" lon="10.4050439"><ele>939.9999999999999</ele><time>2026-04-18T08:32:52Z</time></trkpt><trkpt lat="44.1754915" lon="10.4051348"><ele>940.0</ele><time>2026-04-18T08:32:55Z</time></trkpt><trkpt lat="44.1755406" lon="10.4052229"><ele>939.9999999999999</ele><time>2026-04-18T08:32:58Z</time></trkpt><trkpt lat="44.1755771" lon="10.4053206"><ele>940.0</ele><time>2026-04-18T08:33:01Z</time></trkpt><trkpt lat="44.1756246" lon="10.4054203"><ele>940.0</ele><time>2026-04-18T08:33:04Z</time></trkpt><trkpt lat="44.1756818" lon="10.4055137"><ele>940.0</ele><time>2026-04-18T08:33:07Z</time></trkpt><trkpt lat="44.1757262" lon="10.4056005"><ele>939.9999999999999</ele><time>2026-04-18T08:33:10Z</time></trkpt><trkpt lat="44.1757674" lon="10.4056835"><ele>940.0</ele><time>2026-04-18T08:33:13Z</time></trkpt><trkpt lat="44.1758079" lon="10.4057622"><ele>943.6666666666666</ele><time>2026-04-18T08:33:16Z</time></trkpt><trkpt lat="44.1758482" lon="10.4058419"><ele>947.3333333333333</ele><time>2026-04-18T08:33:19Z</time></trkpt><trkpt lat="44.1758944" lon="10.4059365"><ele>951.0</ele><time>2026-04-18T08:33:22Z</time></trkpt><trkpt lat="44.1759441" lon="10.4060299"><ele>954.6666666666667</ele><time>2026-04-18T08:33:25Z</time></trkpt><trkpt lat="44.1759883" lon="10.4061283"><ele>958.3333333333334</ele><time>2026-04-18T08:33:28Z</time></trkpt><trkpt lat="44.1760367" lon="10.4062156"><ele>962.0</ele><time>2026-04-18T08:33:31Z</time></trkpt><trkpt lat="44.176077" lon="10.4062997"><ele>960.0000000000001</ele><time>2026-04-18T08:33:34Z</time></trkpt><trkpt lat="44.1761165" lon="10.4063857"><ele>958.0</ele><time>2026-04-18T08:33:37Z</time></trkpt><trkpt lat="44.1761573" lon="10.4064663"><ele>956.0</ele><time>2026-04-18T08:33:40Z</time></trkpt><trkpt lat="44.1762026" lon="10.4065524"><ele>954.0</ele><time>2026-04-18T08:33:43Z</time></trkpt><trkpt lat="44.1762451" lon="10.4066461"><ele>952.0000000000001</ele><time>2026-04-18T08:33:46Z</time></trkpt><trkpt lat="44.1762943" lon="10.4067332"><ele>950.0</ele><time>2026-04-18T08:33:49Z</time></trkpt><trkpt lat="44.1763417" lon="10.4068265"><ele>950.0000000000001</ele><time>2026-04-18T08:33:52Z</time></trkpt><trkpt lat="44.1763965" lon="10.4069137"><ele>950.0</ele><time>2026-04-18T08:33:55Z</time></trkpt><trkpt lat="44.1764428" lon="10.4069931"><ele>950.0</ele><time>2026-04-18T08:33:58Z</time></trkpt><trkpt lat="44.1764909" lon="10.4070875"><ele>950.0</ele><time>2026-04-18T08:34:01Z</time></trkpt><trkpt lat="44.1765287" lon="10.4071803"><ele>950.0000000000001</ele><time>2026-04-18T08:34:03.999Z</time></trkpt><trkpt lat="44.1765601" lon="10.4072852"><ele>950.0</ele><time>2026-04-18T08:34:07Z</time></trkpt><trkpt lat="44.176578" lon="10.407387"><ele>949.3333333333334</ele><time>2026-04-18T08:34:10Z</time></trkpt><trkpt lat="44.1765764" lon="10.4074963"><ele>948.6666666666667</ele><time>2026-04-18T08:34:13Z</time></trkpt><trkpt lat="44.1765526" lon="10.4076036"><ele>948.0</ele><time>2026-04-18T08:34:16Z</time></trkpt><trkpt lat="44.1765192" lon="10.4077081"><ele>947.3333333333333</ele><time>2026-04-18T08:34:19Z</time></trkpt><trkpt lat="44.1764834" lon="10.407802"><ele>946.6666666666666</ele><time>2026-04-18T08:34:22Z</time></trkpt><trkpt lat="44.1764539" lon="10.4078991"><ele>946.0</ele><time>2026-04-18T08:34:25Z</time></trkpt><trkpt lat="44.1764154" lon="10.4079955"><ele>945.9999999999999</ele><time>2026-04-18T08:34:28Z</time></trkpt><trkpt lat="44.1763796" lon="10.4081031"><ele>946.0</ele><time>2026-04-18T08:34:32Z</time></trkpt><trkpt lat="44.1763562" lon="10.4081974"><ele>946.0</ele><time>2026-04-18T08:34:35Z</time></trkpt><trkpt lat="44.1763416" lon="10.4083163"><ele>946.0</ele><time>2026-04-18T08:34:38Z</time></trkpt><trkpt lat="44.1763385" lon="10.4084245"><ele>945.9999999999999</ele><time>2026-04-18T08:34:41Z</time></trkpt><trkpt lat="44.1763443" lon="10.4085407"><ele>946.0</ele><time>2026-04-18T08:34:44Z</time></trkpt><trkpt lat="44.1763577" lon="10.4086419"><ele>946.0</ele><time>2026-04-18T08:34:46.999Z</time></trkpt><trkpt lat="44.1763668" lon="10.4087397"><ele>946.0</ele><time>2026-04-18T08:34:50Z</time></trkpt><trkpt lat="44.1763745" lon="10.4088294"><ele>946.0</ele><time>2026-04-18T08:34:53Z</time></trkpt><trkpt lat="44.1763873" lon="10.4089254"><ele>946.0</ele><time>2026-04-18T08:34:56Z</time></trkpt><trkpt lat="44.1763997" lon="10.4090246"><ele>946.0</ele><time>2026-04-18T08:34:59Z</time></trkpt><trkpt lat="44.1764367" lon="10.4091254"><ele>946.0</ele><time>2026-04-18T08:35:02Z</time></trkpt><trkpt lat="44.1764901" lon="10.4092267"><ele>946.0</ele><time>2026-04-18T08:35:05Z</time></trkpt><trkpt lat="44.1765405" lon="10.4092885"><ele>952.1666666666666</ele><time>2026-04-18T08:35:07Z</time></trkpt><trkpt lat="44.1766085" lon="10.4093573"><ele>958.3333333333333</ele><time>2026-04-18T08:35:10Z</time></trkpt><trkpt lat="44.1766848" lon="10.4094093"><ele>964.5</ele><time>2026-04-18T08:35:13Z</time></trkpt><trkpt lat="44.1767548" lon="10.4094452"><ele>970.6666666666667</ele><time>2026-04-18T08:35:16Z</time></trkpt><trkpt lat="44.1768298" lon="10.4094681"><ele>976.8333333333334</ele><time>2026-04-18T08:35:19Z</time></trkpt><trkpt lat="44.1769057" lon="10.4094966"><ele>983.0</ele><time>2026-04-18T08:35:22Z</time></trkpt><trkpt lat="44.176978" lon="10.409528"><ele>983.0000000000001</ele><time>2026-04-18T08:35:25Z</time></trkpt><trkpt lat="44.1770486" lon="10.4095606"><ele>983.0</ele><time>2026-04-18T08:35:27.925Z</time></trkpt><trkpt lat="44.1771262" lon="10.4096153"><ele>983.0</ele><time>2026-04-18T08:35:31Z</time></trkpt><trkpt lat="44.1771952" lon="10.4096849"><ele>983.0</ele><time>2026-04-18T08:35:34Z</time></trkpt><trkpt lat="44.1772336" lon="10.4097573"><ele>983.0000000000001</ele><time>2026-04-18T08:35:36Z</time></trkpt><trkpt lat="44.1772477" lon="10.4098566"><ele>983.0</ele><time>2026-04-18T08:35:39Z</time></trkpt><trkpt lat="44.1772116" lon="10.4099538"><ele>982.0000000000001</ele><time>2026-04-18T08:35:42Z</time></trkpt><trkpt lat="44.1771659" lon="10.4100501"><ele>981.0</ele><time>2026-04-18T08:35:45Z</time></trkpt><trkpt lat="44.1771224" lon="10.4101368"><ele>980.0</ele><time>2026-04-18T08:35:48Z</time></trkpt><trkpt lat="44.177069" lon="10.4102251"><ele>979.0</ele><time>2026-04-18T08:35:51Z</time></trkpt><trkpt lat="44.1770317" lon="10.4103312"><ele>978.0000000000001</ele><time>2026-04-18T08:35:54Z</time></trkpt><trkpt lat="44.1770048" lon="10.4104387"><ele>977.0</ele><time>2026-04-18T08:35:57Z</time></trkpt><trkpt lat="44.1770251" lon="10.4105442"><ele>976.6666666666667</ele><time>2026-04-18T08:36:00Z</time></trkpt><trkpt lat="44.1770816" lon="10.4106387"><ele>976.3333333333334</ele><time>2026-04-18T08:36:03Z</time></trkpt><trkpt lat="44.1771548" lon="10.4107195"><ele>976.0</ele><time>2026-04-18T08:36:06Z</time></trkpt><trkpt lat="44.177227" lon="10.4107881"><ele>975.6666666666667</ele><time>2026-04-18T08:36:09Z</time></trkpt><trkpt lat="44.1772919" lon="10.4108545"><ele>975.3333333333334</ele><time>2026-04-18T08:36:12Z</time></trkpt><trkpt lat="44.177354" lon="10.4109229"><ele>975.0</ele><time>2026-04-18T08:36:15Z</time></trkpt><trkpt lat="44.1774049" lon="10.4109941"><ele>979.8333333333334</ele><time>2026-04-18T08:36:18Z</time></trkpt><trkpt lat="44.177454" lon="10.4110789"><ele>984.6666666666667</ele><time>2026-04-18T08:36:21Z</time></trkpt><trkpt lat="44.1775034" lon="10.4111657"><ele>989.5</ele><time>2026-04-18T08:36:24Z</time></trkpt><trkpt lat="44.1775469" lon="10.4112333"><ele>994.3333333333334</ele><time>2026-04-18T08:36:27Z</time></trkpt><trkpt lat="44.1775808" lon="10.4113412"><ele>999.1666666666667</ele><time>2026-04-18T08:36:31Z</time></trkpt><trkpt lat="44.1775899" lon="10.4114481"><ele>1004.0</ele><time>2026-04-18T08:36:34Z</time></trkpt><trkpt lat="44.1775653" lon="10.4115587"><ele>1004.0000000000001</ele><time>2026-04-18T08:36:37Z</time></trkpt><trkpt lat="44.177536" lon="10.4116674"><ele>1004.0</ele><time>2026-04-18T08:36:40Z</time></trkpt><trkpt lat="44.1775013" lon="10.4117551"><ele>1004.0</ele><time>2026-04-18T08:36:43Z</time></trkpt><trkpt lat="44.1774713" lon="10.4118507"><ele>1004.0</ele><time>2026-04-18T08:36:46Z</time></trkpt><trkpt lat="44.1774725" lon="10.411969"><ele>1004.0000000000001</ele><time>2026-04-18T08:36:49Z</time></trkpt><trkpt lat="44.1775112" lon="10.4120609"><ele>1004.0</ele><time>2026-04-18T08:36:52Z</time></trkpt><trkpt lat="44.1775448" lon="10.4121647"><ele>1003.3333333333334</ele><time>2026-04-18T08:36:55Z</time></trkpt><trkpt lat="44.1775801" lon="10.4122718"><ele>1002.6666666666667</ele><time>2026-04-18T08:36:58Z</time></trkpt><trkpt lat="44.1776118" lon="10.4123714"><ele>1002.0</ele><time>2026-04-18T08:37:01Z</time></trkpt><trkpt lat="44.1776491" lon="10.4124691"><ele>1001.3333333333333</ele><time>2026-04-18T08:37:04Z</time></trkpt><trkpt lat="44.177691" lon="10.4125593"><ele>1000.6666666666666</ele><time>2026-04-18T08:37:07Z</time></trkpt><trkpt lat="44.1777338" lon="10.4126428"><ele>1000.0</ele><time>2026-04-18T08:37:10Z</time></trkpt><trkpt lat="44.1777912" lon="10.4127256"><ele>999.9999999999999</ele><time>2026-04-18T08:37:14Z</time></trkpt><trkpt lat="44.1778558" lon="10.4128019"><ele>1000.0</ele><time>2026-04-18T08:37:17Z</time></trkpt><trkpt lat="44.1779197" lon="10.4128723"><ele>1000.0</ele><time>2026-04-18T08:37:20Z</time></trkpt><trkpt lat="44.1779902" lon="10.4129133"><ele>1000.0</ele><time>2026-04-18T08:37:23Z</time></trkpt><trkpt lat="44.1780555" lon="10.4128641"><ele>999.9999999999999</ele><time>2026-04-18T08:37:27Z</time></trkpt><trkpt lat="44.1780434" lon="10.4127755"><ele>1000.0</ele><time>2026-04-18T08:37:30Z</time></trkpt><trkpt lat="44.1779849" lon="10.4126956"><ele>1000.0</ele><time>2026-04-18T08:37:33Z</time></trkpt><trkpt lat="44.1779299" lon="10.4126235"><ele>1000.0</ele><time>2026-04-18T08:37:36Z</time></trkpt><trkpt lat="44.1778713" lon="10.4125599"><ele>1000.0</ele><time>2026-04-18T08:37:39Z</time></trkpt><trkpt lat="44.177829" lon="10.4124597"><ele>1000.0</ele><time>2026-04-18T08:37:42Z</time></trkpt><trkpt lat="44.1778094" lon="10.4123624"><ele>1000.0</ele><time>2026-04-18T08:37:45Z</time></trkpt><trkpt lat="44.1777953" lon="10.412271"><ele>1000.0</ele><time>2026-04-18T08:37:48Z</time></trkpt><trkpt lat="44.1777937" lon="10.4121744"><ele>1000.0</ele><time>2026-04-18T08:37:51Z</time></trkpt><trkpt lat="44.1777892" lon="10.4120702"><ele>1000.6666666666666</ele><time>2026-04-18T08:37:54Z</time></trkpt><trkpt lat="44.1777867" lon="10.4119673"><ele>1001.3333333333333</ele><time>2026-04-18T08:37:57Z</time></trkpt><trkpt lat="44.1777887" lon="10.4118495"><ele>1002.0</ele><time>2026-04-18T08:38:00Z</time></trkpt><trkpt lat="44.1778015" lon="10.4117433"><ele>1002.6666666666667</ele><time>2026-04-18T08:38:03Z</time></trkpt><trkpt lat="44.1778453" lon="10.4116408"><ele>1003.3333333333334</ele><time>2026-04-18T08:38:06Z</time></trkpt><trkpt lat="44.1778877" lon="10.4115568"><ele>1004.0</ele><time>2026-04-18T08:38:09Z</time></trkpt><trkpt lat="44.177925" lon="10.4114588"><ele>1004.0</ele><time>2026-04-18T08:38:12Z</time></trkpt><trkpt lat="44.177955" lon="10.4113431"><ele>1004.0</ele><time>2026-04-18T08:38:15Z</time></trkpt><trkpt lat="44.1779299" lon="10.4126235"><ele>1003.9999999999999</ele><time>2026-04-18T08:37:36Z</time></trkpt><trkpt lat="44.1778713" lon="10.4125599"><ele>1004.0</ele><time>2026-04-18T08:37:39Z</time></trkpt><trkpt lat="44.177829" lon="10.4124597"><ele>1003.9999999999999</ele><time>2026-04-18T08:37:42Z</time></trkpt><trkpt lat="44.1778094" lon="10.4123624"><ele>1003.9999999999999</ele><time>2026-04-18T08:37:45Z</time></trkpt><trkpt lat="44.1777953" lon="10.412271"><ele>1004.0</ele><time>2026-04-18T08:37:48Z</time></trkpt><trkpt lat="44.1777937" lon="10.4121744"><ele>1003.9999999999999</ele><time>2026-04-18T08:37:51Z</time></trkpt><trkpt lat="44.1777892" lon="10.4120702"><ele>1003.9999999999999</ele><time>2026-04-18T08:37:54Z</time></trkpt><trkpt lat="44.1777867" lon="10.4119673"><ele>1004.0000000000001</ele><time>2026-04-18T08:37:57Z</time></trkpt><trkpt lat="44.1777887" lon="10.4118495"><ele>1004.0</ele><time>2026-04-18T08:38:00Z</time></trkpt><trkpt lat="44.1778015" lon="10.4117433"><ele>1004.0</ele><time>2026-04-18T08:38:03Z</time></trkpt><trkpt lat="44.1778453" lon="10.4116408"><ele>1004.0</ele><time>2026-04-18T08:38:06Z</time></trkpt><trkpt lat="44.1778877" lon="10.4115568"><ele>1004.0000000000001</ele><time>2026-04-18T08:38:09Z</time></trkpt><trkpt lat="44.177925" lon="10.4114588"><ele>1004.0</ele><time>2026-04-18T08:38:12Z</time></trkpt><trkpt lat="44.177955" lon="10.4113431"><ele>1004.4285714285713</ele><time>2026-04-18T08:38:15Z</time></trkpt><trkpt lat="44.1779702" lon="10.41125"><ele>1004.8571428571429</ele><time>2026-04-18T08:38:17Z</time></trkpt><trkpt lat="44.1779847" lon="10.4111571"><ele>1005.2857142857142</ele><time>2026-04-18T08:38:19Z</time></trkpt><trkpt lat="44.1779864" lon="10.4110665"><ele>1005.7142857142857</ele><time>2026-04-18T08:38:21Z</time></trkpt><trkpt lat="44.1779706" lon="10.4109342"><ele>1006.1428571428571</ele><time>2026-04-18T08:38:24Z</time></trkpt><trkpt lat="44.1779486" lon="10.410845"><ele>1006.5714285714286</ele><time>2026-04-18T08:38:26Z</time></trkpt><trkpt lat="44.1779301" lon="10.4107558"><ele>1007.0</ele><time>2026-04-18T08:38:28Z</time></trkpt><trkpt lat="44.1779005" lon="10.4106424"><ele>1007.0000000000001</ele><time>2026-04-18T08:38:31Z</time></trkpt><trkpt lat="44.1778773" lon="10.4105254"><ele>1007.0</ele><time>2026-04-18T08:38:34Z</time></trkpt><trkpt lat="44.1778491" lon="10.4104202"><ele>1007.0</ele><time>2026-04-18T08:38:37Z</time></trkpt><trkpt lat="44.1778334" lon="10.4103152"><ele>1007.0</ele><time>2026-04-18T08:38:40Z</time></trkpt><trkpt lat="44.1778416" lon="10.4101889"><ele>1007.0000000000001</ele><time>2026-04-18T08:38:43Z</time></trkpt><trkpt lat="44.1778573" lon="10.4100754"><ele>1007.0</ele><time>2026-04-18T08:38:46Z</time></trkpt><trkpt lat="44.1778653" lon="10.4099879"><ele>1006.8571428571429</ele><time>2026-04-18T08:38:48Z</time></trkpt><trkpt lat="44.1778973" lon="10.4098792"><ele>1006.7142857142858</ele><time>2026-04-18T08:38:51Z</time></trkpt><trkpt lat="44.1779316" lon="10.4097579"><ele>1006.5714285714287</ele><time>2026-04-18T08:38:54Z</time></trkpt><trkpt lat="44.1779468" lon="10.4096647"><ele>1006.4285714285714</ele><time>2026-04-18T08:38:56Z</time></trkpt><trkpt lat="44.177953" lon="10.4095707"><ele>1006.2857142857144</ele><time>2026-04-18T08:38:58Z</time></trkpt><trkpt lat="44.1779448" lon="10.4094797"><ele>1006.1428571428572</ele><time>2026-04-18T08:39:00Z</time></trkpt><trkpt lat="44.177922" lon="10.4093943"><ele>1006.0</ele><time>2026-04-18T08:39:02Z</time></trkpt><trkpt lat="44.1778903" lon="10.4093169"><ele>1007.6666666666666</ele><time>2026-04-18T08:39:04Z</time></trkpt><trkpt lat="44.1778436" lon="10.4092219"><ele>1009.3333333333333</ele><time>2026-04-18T08:39:07Z</time></trkpt><trkpt lat="44.1778113" lon="10.409146"><ele>1011.0</ele><time>2026-04-18T08:39:09Z</time></trkpt><trkpt lat="44.1777644" lon="10.4090385"><ele>1012.6666666666667</ele><time>2026-04-18T08:39:12Z</time></trkpt><trkpt lat="44.1777341" lon="10.4089567"><ele>1014.3333333333334</ele><time>2026-04-18T08:39:14Z</time></trkpt><trkpt lat="44.1777183" lon="10.4088487"><ele>1016.0</ele><time>2026-04-18T08:39:17Z</time></trkpt><trkpt lat="44.1777149" lon="10.4087269"><ele>1017.1666666666667</ele><time>2026-04-18T08:39:20Z</time></trkpt><trkpt lat="44.1777202" lon="10.4086172"><ele>1018.3333333333334</ele><time>2026-04-18T08:39:23Z</time></trkpt><trkpt lat="44.1777257" lon="10.4085065"><ele>1019.5</ele><time>2026-04-18T08:39:26Z</time></trkpt><trkpt lat="44.1777374" lon="10.4083909"><ele>1020.6666666666667</ele><time>2026-04-18T08:39:29Z</time></trkpt><trkpt lat="44.1777603" lon="10.4082699"><ele>1021.8333333333334</ele><time>2026-04-18T08:39:32Z</time></trkpt><trkpt lat="44.1777958" lon="10.4081624"><ele>1023.0</ele><time>2026-04-18T08:39:35Z</time></trkpt><trkpt lat="44.1778436" lon="10.4080648"><ele>1021.8333333333334</ele><time>2026-04-18T08:39:38Z</time></trkpt><trkpt lat="44.1778902" lon="10.4079798"><ele>1020.6666666666667</ele><time>2026-04-18T08:39:41Z</time></trkpt><trkpt lat="44.1779426" lon="10.4078977"><ele>1019.5</ele><time>2026-04-18T08:39:44Z</time></trkpt><trkpt lat="44.1779948" lon="10.4078157"><ele>1018.3333333333334</ele><time>2026-04-18T08:39:47Z</time></trkpt><trkpt lat="44.1780485" lon="10.4077283"><ele>1017.1666666666667</ele><time>2026-04-18T08:39:50Z</time></trkpt><trkpt lat="44.1780946" lon="10.4076396"><ele>1016.0</ele><time>2026-04-18T08:39:53Z</time></trkpt><trkpt lat="44.1781216" lon="10.4075323"><ele>1016.0000000000001</ele><time>2026-04-18T08:39:56Z</time></trkpt><trkpt lat="44.1781414" lon="10.4074124"><ele>1016.0</ele><time>2026-04-18T08:39:59Z</time></trkpt><trkpt lat="44.1781545" lon="10.4073032"><ele>1016.0</ele><time>2026-04-18T08:40:02Z</time></trkpt><trkpt lat="44.1781654" lon="10.407204"><ele>1016.0</ele><time>2026-04-18T08:40:05Z</time></trkpt><trkpt lat="44.1781786" lon="10.4070925"><ele>1016.0000000000001</ele><time>2026-04-18T08:40:08Z</time></trkpt><trkpt lat="44.1781961" lon="10.4069803"><ele>1016.0</ele><time>2026-04-18T08:40:11Z</time></trkpt><trkpt lat="44.1782171" lon="10.4068759"><ele>1018.6666666666667</ele><time>2026-04-18T08:40:14Z</time></trkpt><trkpt lat="44.1782393" lon="10.406789"><ele>1021.3333333333334</ele><time>2026-04-18T08:40:17Z</time></trkpt><trkpt lat="44.1782615" lon="10.4066915"><ele>1024.0</ele><time>2026-04-18T08:40:20Z</time></trkpt><trkpt lat="44.1782808" lon="10.4065778"><ele>1026.6666666666667</ele><time>2026-04-18T08:40:23Z</time></trkpt><trkpt lat="44.1783088" lon="10.4064753"><ele>1029.3333333333333</ele><time>2026-04-18T08:40:26Z</time></trkpt><trkpt lat="44.1783361" lon="10.4063711"><ele>1032.0</ele><time>2026-04-18T08:40:29Z</time></trkpt><trkpt lat="44.1783734" lon="10.4062687"><ele>1032.0</ele><time>2026-04-18T08:40:32Z</time></trkpt><trkpt lat="44.1784129" lon="10.4061853"><ele>1032.0</ele><time>2026-04-18T08:40:35Z</time></trkpt><trkpt lat="44.1784725" lon="10.4061208"><ele>1032.0</ele><time>2026-04-18T08:40:38Z</time></trkpt><trkpt lat="44.1785489" lon="10.4060881"><ele>1032.0</ele><time>2026-04-18T08:40:41Z</time></trkpt><trkpt lat="44.1786314" lon="10.4061019"><ele>1032.0</ele><time>2026-04-18T08:40:45Z</time></trkpt><trkpt lat="44.1786962" lon="10.4061705"><ele>1032.0</ele><time>2026-04-18T08:40:48Z</time></trkpt><trkpt lat="44.1787578" lon="10.4062519"><ele>1034.1666666666667</ele><time>2026-04-18T08:40:51Z</time></trkpt><trkpt lat="44.1788176" lon="10.4063336"><ele>1036.3333333333333</ele><time>2026-04-18T08:40:54Z</time></trkpt><trkpt lat="44.1788699" lon="10.4064144"><ele>1038.5</ele><time>2026-04-18T08:40:57Z</time></trkpt><trkpt lat="44.1789227" lon="10.4065021"><ele>1040.6666666666665</ele><time>2026-04-18T08:41:00Z</time></trkpt><trkpt lat="44.1789767" lon="10.4065752"><ele>1042.8333333333333</ele><time>2026-04-18T08:41:03Z</time></trkpt><trkpt lat="44.1790413" lon="10.4066537"><ele>1045.0</ele><time>2026-04-18T08:41:06Z</time></trkpt><trkpt lat="44.1791052" lon="10.4067163"><ele>1045.0</ele><time>2026-04-18T08:41:09Z</time></trkpt><trkpt lat="44.1791881" lon="10.4067935"><ele>1045.0</ele><time>2026-04-18T08:41:12Z</time></trkpt><trkpt lat="44.1792646" lon="10.4068424"><ele>1045.0</ele><time>2026-04-18T08:41:14Z</time></trkpt><trkpt lat="44.1793378" lon="10.4068928"><ele>1045.0</ele><time>2026-04-18T08:41:16Z</time></trkpt><trkpt lat="44.1794046" lon="10.406935"><ele>1045.0</ele><time>2026-04-18T08:41:18Z</time></trkpt><trkpt lat="44.1794739" lon="10.4069642"><ele>1045.0</ele><time>2026-04-18T08:41:20Z</time></trkpt><trkpt lat="44.1795417" lon="10.4069967"><ele>1045.0</ele><time>2026-04-18T08:41:22Z</time></trkpt><trkpt lat="44.1796055" lon="10.4070435"><ele>1045.0</ele><time>2026-04-18T08:41:24Z</time></trkpt><trkpt lat="44.1796672" lon="10.4071005"><ele>1045.0</ele><time>2026-04-18T08:41:26Z</time></trkpt><trkpt lat="44.1797249" lon="10.4071622"><ele>1045.0</ele><time>2026-04-18T08:41:28Z</time></trkpt><trkpt lat="44.1797786" lon="10.4072169"><ele>1045.0</ele><time>2026-04-18T08:41:30Z</time></trkpt><trkpt lat="44.1798524" lon="10.4072781"><ele>1045.0</ele><time>2026-04-18T08:41:33Z</time></trkpt><trkpt lat="44.1799262" lon="10.4073347"><ele>1048.5</ele><time>2026-04-18T08:41:36Z</time></trkpt><trkpt lat="44.1799846" lon="10.4073808"><ele>1052.0</ele><time>2026-04-18T08:41:38Z</time></trkpt><trkpt lat="44.1800486" lon="10.4074163"><ele>1055.5</ele><time>2026-04-18T08:41:40Z</time></trkpt><trkpt lat="44.1801268" lon="10.4074494"><ele>1059.0</ele><time>2026-04-18T08:41:42Z</time></trkpt><trkpt lat="44.1802053" lon="10.4074712"><ele>1062.5</ele><time>2026-04-18T08:41:44Z</time></trkpt><trkpt lat="44.1802829" lon="10.4074894"><ele>1066.0</ele><time>2026-04-18T08:41:46Z</time></trkpt><trkpt lat="44.1803546" lon="10.4075171"><ele>1066.0</ele><time>2026-04-18T08:41:48Z</time></trkpt><trkpt lat="44.1804141" lon="10.4075459"><ele>1066.0</ele><time>2026-04-18T08:41:50Z</time></trkpt><trkpt lat="44.1805047" lon="10.4075935"><ele>1066.0</ele><time>2026-04-18T08:41:53Z</time></trkpt><trkpt lat="44.1805751" lon="10.4076203"><ele>1066.0</ele><time>2026-04-18T08:41:55Z</time></trkpt><trkpt lat="44.1806429" lon="10.4076591"><ele>1066.0</ele><time>2026-04-18T08:41:57Z</time></trkpt><trkpt lat="44.1807063" lon="10.4076989"><ele>1066.0</ele><time>2026-04-18T08:41:59Z</time></trkpt><trkpt lat="44.1807633" lon="10.4077488"><ele>1066.0</ele><time>2026-04-18T08:42:01Z</time></trkpt><trkpt lat="44.1808198" lon="10.4077945"><ele>1063.0</ele><time>2026-04-18T08:42:03Z</time></trkpt><trkpt lat="44.1808843" lon="10.407835"><ele>1060.0</ele><time>2026-04-18T08:42:05Z</time></trkpt><trkpt lat="44.1809534" lon="10.4078569"><ele>1057.0</ele><time>2026-04-18T08:42:07Z</time></trkpt><trkpt lat="44.1810274" lon="10.4078762"><ele>1054.0</ele><time>2026-04-18T08:42:09Z</time></trkpt><trkpt lat="44.1810957" lon="10.4078804"><ele>1051.0</ele><time>2026-04-18T08:42:11Z</time></trkpt><trkpt lat="44.1811586" lon="10.4078745"><ele>1048.0</ele><time>2026-04-18T08:42:13Z</time></trkpt><trkpt lat="44.1812272" lon="10.407866"><ele>1045.0</ele><time>2026-04-18T08:42:15Z</time></trkpt><trkpt lat="44.1812976" lon="10.4078622"><ele>1045.0</ele><time>2026-04-18T08:42:17Z</time></trkpt><trkpt lat="44.181361" lon="10.407877"><ele>1045.0</ele><time>2026-04-18T08:42:19Z</time></trkpt><trkpt lat="44.1814286" lon="10.4078823"><ele>1045.0</ele><time>2026-04-18T08:42:21Z</time></trkpt><trkpt lat="44.1815255" lon="10.407883"><ele>1045.0</ele><time>2026-04-18T08:42:24Z</time></trkpt><trkpt lat="44.1815984" lon="10.4078949"><ele>1045.0</ele><time>2026-04-18T08:42:26Z</time></trkpt><trkpt lat="44.1816682" lon="10.4079193"><ele>1045.0</ele><time>2026-04-18T08:42:28Z</time></trkpt><trkpt lat="44.1817344" lon="10.4079484"><ele>1045.0</ele><time>2026-04-18T08:42:30Z</time></trkpt><trkpt lat="44.1817994" lon="10.4079876"><ele>1049.857142857143</ele><time>2026-04-18T08:42:32Z</time></trkpt><trkpt lat="44.1818576" lon="10.4080346"><ele>1054.7142857142856</ele><time>2026-04-18T08:42:34Z</time></trkpt><trkpt lat="44.1819155" lon="10.4080918"><ele>1059.5714285714284</ele><time>2026-04-18T08:42:36Z</time></trkpt><trkpt lat="44.1819699" lon="10.4081537"><ele>1064.4285714285713</ele><time>2026-04-18T08:42:38Z</time></trkpt><trkpt lat="44.182029" lon="10.4082143"><ele>1069.2857142857142</ele><time>2026-04-18T08:42:40Z</time></trkpt><trkpt lat="44.1820971" lon="10.4082566"><ele>1074.142857142857</ele><time>2026-04-18T08:42:42Z</time></trkpt><trkpt lat="44.1821694" lon="10.4082809"><ele>1079.0</ele><time>2026-04-18T08:42:44Z</time></trkpt><trkpt lat="44.182242" lon="10.4082893"><ele>1079.0</ele><time>2026-04-18T08:42:46Z</time></trkpt><trkpt lat="44.1823168" lon="10.4082911"><ele>1079.0</ele><time>2026-04-18T08:42:48Z</time></trkpt><trkpt lat="44.1823893" lon="10.4082924"><ele>1079.0</ele><time>2026-04-18T08:42:50Z</time></trkpt><trkpt lat="44.1824633" lon="10.4082925"><ele>1079.0</ele><time>2026-04-18T08:42:52Z</time></trkpt><trkpt lat="44.1825373" lon="10.4082962"><ele>1079.0</ele><time>2026-04-18T08:42:54Z</time></trkpt><trkpt lat="44.1826132" lon="10.4082963"><ele>1079.0</ele><time>2026-04-18T08:42:56Z</time></trkpt><trkpt lat="44.182687" lon="10.4083001"><ele>1079.0</ele><time>2026-04-18T08:42:58Z</time></trkpt><trkpt lat="44.182758" lon="10.4083147"><ele>1076.5714285714287</ele><time>2026-04-18T08:43:00Z</time></trkpt><trkpt lat="44.1828279" lon="10.4083281"><ele>1074.142857142857</ele><time>2026-04-18T08:43:02Z</time></trkpt><trkpt lat="44.1828981" lon="10.4083577"><ele>1071.7142857142858</ele><time>2026-04-18T08:43:04Z</time></trkpt><trkpt lat="44.1829671" lon="10.408392"><ele>1069.2857142857142</ele><time>2026-04-18T08:43:06Z</time></trkpt><trkpt lat="44.1830316" lon="10.4084381"><ele>1066.857142857143</ele><time>2026-04-18T08:43:08Z</time></trkpt><trkpt lat="44.1830949" lon="10.4084746"><ele>1064.4285714285716</ele><time>2026-04-18T08:43:10Z</time></trkpt><trkpt lat="44.1831669" lon="10.4085031"><ele>1062.0</ele><time>2026-04-18T08:43:12Z</time></trkpt><trkpt lat="44.1832413" lon="10.4085323"><ele>1062.0</ele><time>2026-04-18T08:43:14Z</time></trkpt><trkpt lat="44.1833159" lon="10.4085523"><ele>1062.0</ele><time>2026-04-18T08:43:16Z</time></trkpt><trkpt lat="44.1833882" lon="10.408571"><ele>1062.0</ele><time>2026-04-18T08:43:18Z</time></trkpt><trkpt lat="44.1834586" lon="10.4085832"><ele>1062.0</ele><time>2026-04-18T08:43:20Z</time></trkpt><trkpt lat="44.1835314" lon="10.4085866"><ele>1062.0</ele><time>2026-04-18T08:43:22Z</time></trkpt><trkpt lat="44.1836066" lon="10.4085787"><ele>1062.0</ele><time>2026-04-18T08:43:24Z</time></trkpt><trkpt lat="44.183681" lon="10.4085633"><ele>1062.0</ele><time>2026-04-18T08:43:26Z</time></trkpt><trkpt lat="44.1837561" lon="10.4085488"><ele>1062.0</ele><time>2026-04-18T08:43:28Z</time></trkpt><trkpt lat="44.1838285" lon="10.4085317"><ele>1062.0</ele><time>2026-04-18T08:43:30Z</time></trkpt><trkpt lat="44.1839027" lon="10.4085109"><ele>1062.0</ele><time>2026-04-18T08:43:32Z</time></trkpt><trkpt lat="44.183977" lon="10.4084906"><ele>1062.0</ele><time>2026-04-18T08:43:34Z</time></trkpt><trkpt lat="44.1840495" lon="10.4084714"><ele>1062.0</ele><time>2026-04-18T08:43:36Z</time></trkpt><trkpt lat="44.1841202" lon="10.4084461"><ele>1062.0</ele><time>2026-04-18T08:43:37.999Z</time></trkpt><trkpt lat="44.1841916" lon="10.4084262"><ele>1062.0</ele><time>2026-04-18T08:43:40Z</time></trkpt><trkpt lat="44.1842628" lon="10.40842"><ele>1063.0</ele><time>2026-04-18T08:43:42Z</time></trkpt><trkpt lat="44.1843354" lon="10.408423"><ele>1064.0</ele><time>2026-04-18T08:43:44Z</time></trkpt><trkpt lat="44.1844064" lon="10.4084113"><ele>1065.0</ele><time>2026-04-18T08:43:46Z</time></trkpt><trkpt lat="44.1844754" lon="10.4083738"><ele>1066.0</ele><time>2026-04-18T08:43:48Z</time></trkpt><trkpt lat="44.1845383" lon="10.4083162"><ele>1067.0</ele><time>2026-04-18T08:43:50Z</time></trkpt><trkpt lat="44.1845971" lon="10.4082485"><ele>1068.0</ele><time>2026-04-18T08:43:52Z</time></trkpt><trkpt lat="44.1846442" lon="10.4081677"><ele>1069.0</ele><time>2026-04-18T08:43:54Z</time></trkpt><trkpt lat="44.1846785" lon="10.4080701"><ele>1066.857142857143</ele><time>2026-04-18T08:43:56Z</time></trkpt><trkpt lat="44.1847112" lon="10.407975"><ele>1064.7142857142858</ele><time>2026-04-18T08:43:58Z</time></trkpt><trkpt lat="44.1847448" lon="10.4078807"><ele>1062.5714285714287</ele><time>2026-04-18T08:44:00Z</time></trkpt><trkpt lat="44.1847785" lon="10.4077915"><ele>1060.4285714285716</ele><time>2026-04-18T08:44:02Z</time></trkpt><trkpt lat="44.1848128" lon="10.4077142"><ele>1058.2857142857142</ele><time>2026-04-18T08:44:04Z</time></trkpt><trkpt lat="44.1848705" lon="10.4076434"><ele>1056.1428571428573</ele><time>2026-04-18T08:44:06Z</time></trkpt><trkpt lat="44.1849437" lon="10.4076031"><ele>1054.0</ele><time>2026-04-18T08:44:08Z</time></trkpt><trkpt lat="44.1850202" lon="10.4075881"><ele>1054.0</ele><time>2026-04-18T08:44:10Z</time></trkpt><trkpt lat="44.1850887" lon="10.4076019"><ele>1054.0</ele><time>2026-04-18T08:44:12Z</time></trkpt><trkpt lat="44.1851696" lon="10.4076438"><ele>1054.0</ele><time>2026-04-18T08:44:15Z</time></trkpt><trkpt lat="44.1852343" lon="10.407693"><ele>1054.0</ele><time>2026-04-18T08:44:18Z</time></trkpt><trkpt lat="44.1852952" lon="10.4077552"><ele>1054.0</ele><time>2026-04-18T08:44:21Z</time></trkpt><trkpt lat="44.1853624" lon="10.4078209"><ele>1054.0</ele><time>2026-04-18T08:44:24Z</time></trkpt><trkpt lat="44.1854262" lon="10.40789"><ele>1054.0</ele><time>2026-04-18T08:44:27Z</time></trkpt><trkpt lat="44.1854915" lon="10.4079487"><ele>1054.0</ele><time>2026-04-18T08:44:30Z</time></trkpt><trkpt lat="44.1855498" lon="10.4080107"><ele>1054.0</ele><time>2026-04-18T08:44:33Z</time></trkpt><trkpt lat="44.185614" lon="10.4080772"><ele>1054.0</ele><time>2026-04-18T08:44:36Z</time></trkpt><trkpt lat="44.1856795" lon="10.4081429"><ele>1054.0</ele><time>2026-04-18T08:44:39Z</time></trkpt><trkpt lat="44.1857447" lon="10.4082049"><ele>1054.0</ele><time>2026-04-18T08:44:42Z</time></trkpt><trkpt lat="44.1858107" lon="10.408269"><ele>1058.5</ele><time>2026-04-18T08:44:45Z</time></trkpt><trkpt lat="44.1858644" lon="10.4083194"><ele>1063.0</ele><time>2026-04-18T08:44:48Z</time></trkpt><trkpt lat="44.1859339" lon="10.4083609"><ele>1067.5</ele><time>2026-04-18T08:44:51Z</time></trkpt><trkpt lat="44.1860027" lon="10.4084117"><ele>1072.0</ele><time>2026-04-18T08:44:54Z</time></trkpt><trkpt lat="44.1860689" lon="10.4084645"><ele>1076.5</ele><time>2026-04-18T08:44:57Z</time></trkpt><trkpt lat="44.1861344" lon="10.4085143"><ele>1081.0</ele><time>2026-04-18T08:45:00Z</time></trkpt><trkpt lat="44.1862065" lon="10.4085708"><ele>1081.0</ele><time>2026-04-18T08:45:03Z</time></trkpt><trkpt lat="44.1862707" lon="10.4086313"><ele>1081.0</ele><time>2026-04-18T08:45:06.027Z</time></trkpt><trkpt lat="44.1863347" lon="10.4086972"><ele>1081.0</ele><time>2026-04-18T08:45:09Z</time></trkpt><trkpt lat="44.1864018" lon="10.4087554"><ele>1081.0</ele><time>2026-04-18T08:45:12Z</time></trkpt><trkpt lat="44.1864666" lon="10.4088276"><ele>1081.0</ele><time>2026-04-18T08:45:15Z</time></trkpt><trkpt lat="44.1865015" lon="10.4089248"><ele>1081.0</ele><time>2026-04-18T08:45:18Z</time></trkpt><trkpt lat="44.1865382" lon="10.4090197"><ele>1080.5</ele><time>2026-04-18T08:45:21Z</time></trkpt><trkpt lat="44.1865705" lon="10.4091142"><ele>1080.0</ele><time>2026-04-18T08:45:24Z</time></trkpt><trkpt lat="44.1866043" lon="10.4092109"><ele>1079.5</ele><time>2026-04-18T08:45:27Z</time></trkpt><trkpt lat="44.1866347" lon="10.4093163"><ele>1079.0</ele><time>2026-04-18T08:45:30Z</time></trkpt><trkpt lat="44.1866662" lon="10.4094177"><ele>1078.5</ele><time>2026-04-18T08:45:33Z</time></trkpt><trkpt lat="44.1866902" lon="10.4095234"><ele>1078.0</ele><time>2026-04-18T08:45:36Z</time></trkpt><trkpt lat="44.1867183" lon="10.4096241"><ele>1080.3333333333333</ele><time>2026-04-18T08:45:39Z</time></trkpt><trkpt lat="44.1867351" lon="10.4097317"><ele>1082.6666666666665</ele><time>2026-04-18T08:45:42Z</time></trkpt><trkpt lat="44.1867432" lon="10.4098407"><ele>1085.0</ele><time>2026-04-18T08:45:45Z</time></trkpt><trkpt lat="44.1867579" lon="10.4099534"><ele>1087.3333333333333</ele><time>2026-04-18T08:45:48Z</time></trkpt><trkpt lat="44.1867723" lon="10.4100717"><ele>1089.6666666666667</ele><time>2026-04-18T08:45:51Z</time></trkpt><trkpt lat="44.1867916" lon="10.4101852"><ele>1092.0</ele><time>2026-04-18T08:45:54Z</time></trkpt><trkpt lat="44.1868122" lon="10.4103024"><ele>1092.0</ele><time>2026-04-18T08:45:57Z</time></trkpt><trkpt lat="44.1868322" lon="10.4104143"><ele>1092.0</ele><time>2026-04-18T08:46:00Z</time></trkpt><trkpt lat="44.1868523" lon="10.4105276"><ele>1092.0</ele><time>2026-04-18T08:46:03Z</time></trkpt><trkpt lat="44.1868776" lon="10.4106386"><ele>1092.0</ele><time>2026-04-18T08:46:06Z</time></trkpt><trkpt lat="44.186899" lon="10.410753"><ele>1092.0</ele><time>2026-04-18T08:46:09Z</time></trkpt><trkpt lat="44.1869281" lon="10.4108645"><ele>1092.0</ele><time>2026-04-18T08:46:12Z</time></trkpt><trkpt lat="44.1869564" lon="10.4109742"><ele>1095.5</ele><time>2026-04-18T08:46:15Z</time></trkpt><trkpt lat="44.1869914" lon="10.4110742"><ele>1099.0</ele><time>2026-04-18T08:46:18Z</time></trkpt><trkpt lat="44.1870186" lon="10.4111872"><ele>1102.5</ele><time>2026-04-18T08:46:21Z</time></trkpt><trkpt lat="44.1870441" lon="10.4113"><ele>1106.0</ele><time>2026-04-18T08:46:24Z</time></trkpt><trkpt lat="44.1870708" lon="10.4114053"><ele>1109.5</ele><time>2026-04-18T08:46:27Z</time></trkpt><trkpt lat="44.1870959" lon="10.411519"><ele>1113.0</ele><time>2026-04-18T08:46:30Z</time></trkpt><trkpt lat="44.1871158" lon="10.4116352"><ele>1115.0</ele><time>2026-04-18T08:46:33Z</time></trkpt><trkpt lat="44.1871274" lon="10.4117451"><ele>1117.0</ele><time>2026-04-18T08:46:36Z</time></trkpt><trkpt lat="44.1871301" lon="10.4118574"><ele>1119.0</ele><time>2026-04-18T08:46:39Z</time></trkpt><trkpt lat="44.1871264" lon="10.4119732"><ele>1121.0</ele><time>2026-04-18T08:46:42Z</time></trkpt><trkpt lat="44.1871205" lon="10.4120882"><ele>1123.0</ele><time>2026-04-18T08:46:45Z</time></trkpt><trkpt lat="44.187122" lon="10.4122036"><ele>1125.0</ele><time>2026-04-18T08:46:48Z</time></trkpt><trkpt lat="44.1871306" lon="10.4123221"><ele>1127.1666666666667</ele><time>2026-04-18T08:46:51Z</time></trkpt><trkpt lat="44.1871408" lon="10.4124447"><ele>1129.3333333333333</ele><time>2026-04-18T08:46:54Z</time></trkpt><trkpt lat="44.1871569" lon="10.4125661"><ele>1131.5</ele><time>2026-04-18T08:46:57Z</time></trkpt><trkpt lat="44.1871905" lon="10.4126802"><ele>1133.6666666666665</ele><time>2026-04-18T08:47:00Z</time></trkpt><trkpt lat="44.1872378" lon="10.4127842"><ele>1135.8333333333333</ele><time>2026-04-18T08:47:03Z</time></trkpt><trkpt lat="44.1872798" lon="10.4128514"><ele>1138.0</ele><time>2026-04-18T08:47:05Z</time></trkpt><trkpt lat="44.1873242" lon="10.4129438"><ele>1131.0</ele><time>2026-04-18T08:47:08Z</time></trkpt><trkpt lat="44.1873764" lon="10.413037"><ele>1124.0</ele><time>2026-04-18T08:47:11Z</time></trkpt><trkpt lat="44.1874282" lon="10.4131306"><ele>1117.0</ele><time>2026-04-18T08:47:14Z</time></trkpt><trkpt lat="44.1874784" lon="10.4132175"><ele>1110.0</ele><time>2026-04-18T08:47:17Z</time></trkpt><trkpt lat="44.187526" lon="10.4133163"><ele>1103.0</ele><time>2026-04-18T08:47:20Z</time></trkpt><trkpt lat="44.1875706" lon="10.4134155"><ele>1096.0</ele><time>2026-04-18T08:47:23Z</time></trkpt><trkpt lat="44.1876077" lon="10.4135218"><ele>1096.0</ele><time>2026-04-18T08:47:26Z</time></trkpt><trkpt lat="44.1876267" lon="10.4136287"><ele>1096.0</ele><time>2026-04-18T08:47:29Z</time></trkpt><trkpt lat="44.1876405" lon="10.4137454"><ele>1096.0</ele><time>2026-04-18T08:47:31.999Z</time></trkpt><trkpt lat="44.1876482" lon="10.413866"><ele>1096.0</ele><time>2026-04-18T08:47:35Z</time></trkpt><trkpt lat="44.1876476" lon="10.4139873"><ele>1096.0</ele><time>2026-04-18T08:47:38Z</time></trkpt><trkpt lat="44.1876424" lon="10.4140763"><ele>1096.0</ele><time>2026-04-18T08:47:40Z</time></trkpt><trkpt lat="44.1876297" lon="10.4141677"><ele>1096.7142857142858</ele><time>2026-04-18T08:47:42Z</time></trkpt><trkpt lat="44.187606" lon="10.4142508"><ele>1097.4285714285716</ele><time>2026-04-18T08:47:44Z</time></trkpt><trkpt lat="44.1875577" lon="10.4143551"><ele>1098.142857142857</ele><time>2026-04-18T08:47:47Z</time></trkpt><trkpt lat="44.1875217" lon="10.41443"><ele>1098.857142857143</ele><time>2026-04-18T08:47:49Z</time></trkpt><trkpt lat="44.1874874" lon="10.4145049"><ele>1099.5714285714284</ele><time>2026-04-18T08:47:51Z</time></trkpt><trkpt lat="44.1874567" lon="10.4145861"><ele>1100.2857142857142</ele><time>2026-04-18T08:47:53Z</time></trkpt><trkpt lat="44.1874302" lon="10.4146682"><ele>1101.0</ele><time>2026-04-18T08:47:55Z</time></trkpt><trkpt lat="44.1874074" lon="10.4147526"><ele>1101.0</ele><time>2026-04-18T08:47:57Z</time></trkpt><trkpt lat="44.1873669" lon="10.414871"><ele>1101.0</ele><time>2026-04-18T08:48:00Z</time></trkpt><trkpt lat="44.1873462" lon="10.4149547"><ele>1101.0</ele><time>2026-04-18T08:48:02Z</time></trkpt><trkpt lat="44.1873053" lon="10.4150725"><ele>1101.0</ele><time>2026-04-18T08:48:05Z</time></trkpt><trkpt lat="44.1872739" lon="10.4151949"><ele>1101.0</ele><time>2026-04-18T08:48:08Z</time></trkpt><trkpt lat="44.1872392" lon="10.4153131"><ele>1101.0</ele><time>2026-04-18T08:48:11Z</time></trkpt><trkpt lat="44.1871955" lon="10.4154239"><ele>1111.5</ele><time>2026-04-18T08:48:14Z</time></trkpt><trkpt lat="44.1871647" lon="10.4155405"><ele>1122.0</ele><time>2026-04-18T08:48:17Z</time></trkpt><trkpt lat="44.1871394" lon="10.4156601"><ele>1132.5</ele><time>2026-04-18T08:48:20Z</time></trkpt><trkpt lat="44.1871255" lon="10.4157846"><ele>1143.0</ele><time>2026-04-18T08:48:23Z</time></trkpt><trkpt lat="44.187137" lon="10.4159173"><ele>1153.5</ele><time>2026-04-18T08:48:26Z</time></trkpt><trkpt lat="44.1871556" lon="10.4160087"><ele>1164.0</ele><time>2026-04-18T08:48:28Z</time></trkpt><trkpt lat="44.1871829" lon="10.4160949"><ele>1164.0</ele><time>2026-04-18T08:48:30Z</time></trkpt><trkpt lat="44.1872126" lon="10.4161807"><ele>1164.0</ele><time>2026-04-18T08:48:32Z</time></trkpt><trkpt lat="44.187242" lon="10.416267"><ele>1164.0</ele><time>2026-04-18T08:48:34Z</time></trkpt><trkpt lat="44.1872668" lon="10.4163489"><ele>1164.0</ele><time>2026-04-18T08:48:36Z</time></trkpt><trkpt lat="44.1873162" lon="10.4164601"><ele>1164.0</ele><time>2026-04-18T08:48:39Z</time></trkpt><trkpt lat="44.1873536" lon="10.4165818"><ele>1164.0</ele><time>2026-04-18T08:48:42Z</time></trkpt><trkpt lat="44.1873866" lon="10.4166724"><ele>1155.5</ele><time>2026-04-18T08:48:44Z</time></trkpt><trkpt lat="44.1874256" lon="10.4167577"><ele>1147.0</ele><time>2026-04-18T08:48:46Z</time></trkpt><trkpt lat="44.1874693" lon="10.4168315"><ele>1138.5</ele><time>2026-04-18T08:48:48Z</time></trkpt><trkpt lat="44.1875365" lon="10.4169121"><ele>1130.0</ele><time>2026-04-18T08:48:51Z</time></trkpt><trkpt lat="44.1876093" lon="10.4169808"><ele>1121.5</ele><time>2026-04-18T08:48:54Z</time></trkpt><trkpt lat="44.1876607" lon="10.4170455"><ele>1113.0</ele><time>2026-04-18T08:48:56Z</time></trkpt><trkpt lat="44.1877031" lon="10.4171279"><ele>1115.7142857142858</ele><time>2026-04-18T08:48:58Z</time></trkpt><trkpt lat="44.187722" lon="10.4172198"><ele>1118.4285714285716</ele><time>2026-04-18T08:49:00Z</time></trkpt><trkpt lat="44.1877224" lon="10.417309"><ele>1121.142857142857</ele><time>2026-04-18T08:49:02Z</time></trkpt><trkpt lat="44.1877118" lon="10.4173987"><ele>1123.857142857143</ele><time>2026-04-18T08:49:04Z</time></trkpt><trkpt lat="44.1876794" lon="10.4175232"><ele>1126.5714285714287</ele><time>2026-04-18T08:49:07Z</time></trkpt><trkpt lat="44.1876626" lon="10.4176151"><ele>1129.2857142857142</ele><time>2026-04-18T08:49:09Z</time></trkpt><trkpt lat="44.1876707" lon="10.4177035"><ele>1132.0</ele><time>2026-04-18T08:49:11Z</time></trkpt><trkpt lat="44.1877041" lon="10.4177831"><ele>1132.0</ele><time>2026-04-18T08:49:13Z</time></trkpt><trkpt lat="44.1877537" lon="10.4178498"><ele>1132.0</ele><time>2026-04-18T08:49:15Z</time></trkpt><trkpt lat="44.187809" lon="10.417899"><ele>1132.0</ele><time>2026-04-18T08:49:17Z</time></trkpt><trkpt lat="44.1878778" lon="10.417942"><ele>1132.0</ele><time>2026-04-18T08:49:20Z</time></trkpt><trkpt lat="44.1879591" lon="10.4179935"><ele>1132.0</ele><time>2026-04-18T08:49:23Z</time></trkpt><trkpt lat="44.1880265" lon="10.4180415"><ele>1132.0</ele><time>2026-04-18T08:49:25Z</time></trkpt><trkpt lat="44.1880817" lon="10.4180841"><ele>1132.0</ele><time>2026-04-18T08:49:27Z</time></trkpt><trkpt lat="44.1881523" lon="10.4181334"><ele>1131.0</ele><time>2026-04-18T08:49:29Z</time></trkpt><trkpt lat="44.1882161" lon="10.4181789"><ele>1130.0</ele><time>2026-04-18T08:49:31Z</time></trkpt><trkpt lat="44.1882966" lon="10.4182361"><ele>1129.0</ele><time>2026-04-18T08:49:34Z</time></trkpt><trkpt lat="44.1883549" lon="10.4182805"><ele>1128.0</ele><time>2026-04-18T08:49:36Z</time></trkpt><trkpt lat="44.188398" lon="10.4183532"><ele>1127.0</ele><time>2026-04-18T08:49:38Z</time></trkpt><trkpt lat="44.1884336" lon="10.4184325"><ele>1126.0</ele><time>2026-04-18T08:49:40Z</time></trkpt><trkpt lat="44.18846" lon="10.4185523"><ele>1126.0</ele><time>2026-04-18T08:49:43Z</time></trkpt><trkpt lat="44.1884702" lon="10.4186775"><ele>1126.0</ele><time>2026-04-18T08:49:46Z</time></trkpt><trkpt lat="44.188477" lon="10.4188073"><ele>1126.0</ele><time>2026-04-18T08:49:49Z</time></trkpt><trkpt lat="44.1884937" lon="10.4188927"><ele>1126.0</ele><time>2026-04-18T08:49:51Z</time></trkpt><trkpt lat="44.1885198" lon="10.4190112"><ele>1126.0</ele><time>2026-04-18T08:49:54Z</time></trkpt><trkpt lat="44.1885747" lon="10.4190902"><ele>1126.0</ele><time>2026-04-18T08:49:57Z</time></trkpt><trkpt lat="44.1886597" lon="10.4191381"><ele>1125.6666666666665</ele><time>2026-04-18T08:50:00Z</time></trkpt><trkpt lat="44.1887227" lon="10.4191618"><ele>1125.3333333333333</ele><time>2026-04-18T08:50:02Z</time></trkpt><trkpt lat="44.1887865" lon="10.419172"><ele>1125.0</ele><time>2026-04-18T08:50:04Z</time></trkpt><trkpt lat="44.1888496" lon="10.4191834"><ele>1124.6666666666667</ele><time>2026-04-18T08:50:06Z</time></trkpt><trkpt lat="44.1889435" lon="10.4191963"><ele>1124.3333333333335</ele><time>2026-04-18T08:50:09Z</time></trkpt><trkpt lat="44.1890314" lon="10.4192239"><ele>1124.0</ele><time>2026-04-18T08:50:12Z</time></trkpt><trkpt lat="44.1891092" lon="10.4192804"><ele>1124.0</ele><time>2026-04-18T08:50:15Z</time></trkpt><trkpt lat="44.189163" lon="10.4193382"><ele>1124.0</ele><time>2026-04-18T08:50:17Z</time></trkpt><trkpt lat="44.1892163" lon="10.4194014"><ele>1124.0</ele><time>2026-04-18T08:50:19Z</time></trkpt><trkpt lat="44.1892596" lon="10.4194668"><ele>1124.0</ele><time>2026-04-18T08:50:21Z</time></trkpt><trkpt lat="44.1893207" lon="10.4195657"><ele>1124.0</ele><time>2026-04-18T08:50:24Z</time></trkpt><trkpt lat="44.1893852" lon="10.4196619"><ele>1124.0</ele><time>2026-04-18T08:50:27Z</time></trkpt><trkpt lat="44.189455" lon="10.4197484"><ele>1127.5714285714287</ele><time>2026-04-18T08:50:30Z</time></trkpt><trkpt lat="44.1895293" lon="10.4198246"><ele>1131.142857142857</ele><time>2026-04-18T08:50:33Z</time></trkpt><trkpt lat="44.1895784" lon="10.4198802"><ele>1134.7142857142858</ele><time>2026-04-18T08:50:35Z</time></trkpt><trkpt lat="44.1896277" lon="10.4199388"><ele>1138.2857142857142</ele><time>2026-04-18T08:50:37Z</time></trkpt><trkpt lat="44.1896854" lon="10.4200444"><ele>1141.857142857143</ele><time>2026-04-18T08:50:40Z</time></trkpt><trkpt lat="44.1897165" lon="10.4201225"><ele>1145.4285714285716</ele><time>2026-04-18T08:50:42Z</time></trkpt><trkpt lat="44.1897429" lon="10.4202044"><ele>1149.0</ele><time>2026-04-18T08:50:44Z</time></trkpt><trkpt lat="44.1897726" lon="10.4203243"><ele>1149.0</ele><time>2026-04-18T08:50:47Z</time></trkpt><trkpt lat="44.1898004" lon="10.4204422"><ele>1149.0</ele><time>2026-04-18T08:50:50Z</time></trkpt><trkpt lat="44.1898402" lon="10.4205493"><ele>1149.0</ele><time>2026-04-18T08:50:53Z</time></trkpt><trkpt lat="44.1898918" lon="10.4206502"><ele>1149.0</ele><time>2026-04-18T08:50:56Z</time></trkpt><trkpt lat="44.1899516" lon="10.4207358"><ele>1149.0</ele><time>2026-04-18T08:50:59Z</time></trkpt><trkpt lat="44.1900217" lon="10.4208134"><ele>1149.0</ele><time>2026-04-18T08:51:02Z</time></trkpt><trkpt lat="44.1900913" lon="10.4208867"><ele>1145.5</ele><time>2026-04-18T08:51:05Z</time></trkpt><trkpt lat="44.1901591" lon="10.4209519"><ele>1142.0</ele><time>2026-04-18T08:51:08Z</time></trkpt><trkpt lat="44.1902305" lon="10.421022"><ele>1138.5</ele><time>2026-04-18T08:51:11Z</time></trkpt><trkpt lat="44.1902958" lon="10.4211002"><ele>1135.0</ele><time>2026-04-18T08:51:14Z</time></trkpt><trkpt lat="44.1903569" lon="10.4211907"><ele>1131.5</ele><time>2026-04-18T08:51:17Z</time></trkpt><trkpt lat="44.1904183" lon="10.4212808"><ele>1128.0</ele><time>2026-04-18T08:51:20Z</time></trkpt><trkpt lat="44.1904836" lon="10.4213706"><ele>1130.0</ele><time>2026-04-18T08:51:23Z</time></trkpt><trkpt lat="44.1905522" lon="10.4214594"><ele>1132.0</ele><time>2026-04-18T08:51:26Z</time></trkpt><trkpt lat="44.1905954" lon="10.421525"><ele>1134.0</ele><time>2026-04-18T08:51:28Z</time></trkpt><trkpt lat="44.190638" lon="10.4215901"><ele>1136.0</ele><time>2026-04-18T08:51:30Z</time></trkpt><trkpt lat="44.1906969" lon="10.4216879"><ele>1138.0</ele><time>2026-04-18T08:51:33Z</time></trkpt><trkpt lat="44.1907623" lon="10.4217695"><ele>1140.0</ele><time>2026-04-18T08:51:36Z</time></trkpt><trkpt lat="44.1908158" lon="10.4218223"><ele>1140.0</ele><time>2026-04-18T08:51:38Z</time></trkpt><trkpt lat="44.1908728" lon="10.4218605"><ele>1140.0</ele><time>2026-04-18T08:51:40Z</time></trkpt><trkpt lat="44.1909538" lon="10.4219081"><ele>1140.0</ele><time>2026-04-18T08:51:43Z</time></trkpt><trkpt lat="44.1910399" lon="10.4219521"><ele>1140.0</ele><time>2026-04-18T08:51:46Z</time></trkpt><trkpt lat="44.1911311" lon="10.4219944"><ele>1140.0</ele><time>2026-04-18T08:51:49Z</time></trkpt><trkpt lat="44.1912064" lon="10.4220054"><ele>1140.0</ele><time>2026-04-18T08:51:51Z</time></trkpt><trkpt lat="44.1912705" lon="10.4220263"><ele>1140.0</ele><time>2026-04-18T08:51:53Z</time></trkpt><trkpt lat="44.1913626" lon="10.4220487"><ele>1140.0</ele><time>2026-04-18T08:51:56Z</time></trkpt><trkpt lat="44.1914274" lon="10.4220542"><ele>1140.0</ele><time>2026-04-18T08:51:58Z</time></trkpt><trkpt lat="44.1914921" lon="10.4220626"><ele>1140.0</ele><time>2026-04-18T08:52:00Z</time></trkpt><trkpt lat="44.1915804" lon="10.422057"><ele>1140.0</ele><time>2026-04-18T08:52:03Z</time></trkpt><trkpt lat="44.1916657" lon="10.4220817"><ele>1140.0</ele><time>2026-04-18T08:52:06Z</time></trkpt><trkpt lat="44.1917149" lon="10.42214"><ele>1139.0</ele><time>2026-04-18T08:52:08Z</time></trkpt><trkpt lat="44.1917707" lon="10.422227"><ele>1138.0</ele><time>2026-04-18T08:52:11Z</time></trkpt><trkpt lat="44.1918069" lon="10.4223219"><ele>1137.0</ele><time>2026-04-18T08:52:14Z</time></trkpt><trkpt lat="44.1918262" lon="10.4224329"><ele>1136.0</ele><time>2026-04-18T08:52:17Z</time></trkpt><trkpt lat="44.191851" lon="10.4225148"><ele>1135.0</ele><time>2026-04-18T08:52:19Z</time></trkpt><trkpt lat="44.1918884" lon="10.4226036"><ele>1134.0</ele><time>2026-04-18T08:52:22Z</time></trkpt><trkpt lat="44.1919397" lon="10.4226771"><ele>1134.0</ele><time>2026-04-18T08:52:26Z</time></trkpt><trkpt lat="44.1919923" lon="10.4227515"><ele>1134.0</ele><time>2026-04-18T08:53:06Z</time></trkpt><trkpt lat="44.1920435" lon="10.422817"><ele>1134.0</ele><time>2026-04-18T08:53:09Z</time></trkpt><trkpt lat="44.1920616" lon="10.4229265"><ele>1134.0</ele><time>2026-04-18T08:53:12Z</time></trkpt><trkpt lat="44.1920616" lon="10.4230555"><ele>1134.0</ele><time>2026-04-18T08:53:15Z</time></trkpt><trkpt lat="44.1920475" lon="10.4231439"><ele>1134.0</ele><time>2026-04-18T08:53:17Z</time></trkpt><trkpt lat="44.1920359" lon="10.4232317"><ele>1134.0</ele><time>2026-04-18T08:53:19Z</time></trkpt><trkpt lat="44.1920182" lon="10.423318"><ele>1131.5714285714287</ele><time>2026-04-18T08:53:21Z</time></trkpt><trkpt lat="44.1920193" lon="10.4234066"><ele>1129.142857142857</ele><time>2026-04-18T08:53:23Z</time></trkpt><trkpt lat="44.1920393" lon="10.4234945"><ele>1126.7142857142858</ele><time>2026-04-18T08:53:25Z</time></trkpt><trkpt lat="44.1920779" lon="10.4235661"><ele>1124.2857142857142</ele><time>2026-04-18T08:53:27Z</time></trkpt><trkpt lat="44.1921296" lon="10.4236198"><ele>1121.857142857143</ele><time>2026-04-18T08:53:29Z</time></trkpt><trkpt lat="44.1922184" lon="10.4236425"><ele>1119.4285714285716</ele><time>2026-04-18T08:53:32Z</time></trkpt><trkpt lat="44.1923086" lon="10.4236257"><ele>1117.0</ele><time>2026-04-18T08:53:35Z</time></trkpt><trkpt lat="44.1923906" lon="10.4235833"><ele>1122.6666666666665</ele><time>2026-04-18T08:53:38Z</time></trkpt><trkpt lat="44.1924776" lon="10.4235384"><ele>1128.3333333333333</ele><time>2026-04-18T08:53:41Z</time></trkpt><trkpt lat="44.1925439" lon="10.4235172"><ele>1134.0</ele><time>2026-04-18T08:53:43Z</time></trkpt><trkpt lat="44.1926158" lon="10.4235167"><ele>1139.6666666666667</ele><time>2026-04-18T08:53:45Z</time></trkpt><trkpt lat="44.1926922" lon="10.4235345"><ele>1145.3333333333335</ele><time>2026-04-18T08:53:47Z</time></trkpt><trkpt lat="44.1927641" lon="10.4235659"><ele>1151.0</ele><time>2026-04-18T08:53:49Z</time></trkpt><trkpt lat="44.1928225" lon="10.4236184"><ele>1151.0</ele><time>2026-04-18T08:53:51Z</time></trkpt><trkpt lat="44.1928744" lon="10.423673"><ele>1151.0</ele><time>2026-04-18T08:53:53Z</time></trkpt><trkpt lat="44.192948" lon="10.4237547"><ele>1151.0</ele><time>2026-04-18T08:53:56Z</time></trkpt><trkpt lat="44.1930119" lon="10.4238531"><ele>1151.0</ele><time>2026-04-18T08:53:59Z</time></trkpt><trkpt lat="44.1930549" lon="10.4239192"><ele>1151.0</ele><time>2026-04-18T08:54:01Z</time></trkpt><trkpt lat="44.1931194" lon="10.424005"><ele>1151.0</ele><time>2026-04-18T08:54:04Z</time></trkpt><trkpt lat="44.1931699" lon="10.4240681"><ele>1149.8333333333335</ele><time>2026-04-18T08:54:06Z</time></trkpt><trkpt lat="44.1932151" lon="10.4241346"><ele>1148.6666666666667</ele><time>2026-04-18T08:54:08Z</time></trkpt><trkpt lat="44.1932714" lon="10.4242441"><ele>1147.5</ele><time>2026-04-18T08:54:11Z</time></trkpt><trkpt lat="44.1932842" lon="10.4243703"><ele>1146.3333333333333</ele><time>2026-04-18T08:54:14Z</time></trkpt><trkpt lat="44.1932689" lon="10.4244683"><ele>1145.1666666666665</ele><time>2026-04-18T08:54:16Z</time></trkpt><trkpt lat="44.1932546" lon="10.4245576"><ele>1144.0</ele><time>2026-04-18T08:54:18Z</time></trkpt><trkpt lat="44.1932462" lon="10.4246537"><ele>1143.9999999999998</ele><time>2026-04-18T08:54:20Z</time></trkpt><trkpt lat="44.1932385" lon="10.4247473"><ele>1144.0</ele><time>2026-04-18T08:54:22Z</time></trkpt><trkpt lat="44.1932365" lon="10.4248401"><ele>1144.0</ele><time>2026-04-18T08:54:24Z</time></trkpt><trkpt lat="44.1932369" lon="10.4249376"><ele>1144.0</ele><time>2026-04-18T08:54:26Z</time></trkpt><trkpt lat="44.193243" lon="10.4250387"><ele>1144.0</ele><time>2026-04-18T08:54:28Z</time></trkpt><trkpt lat="44.1932462" lon="10.4251295"><ele>1143.9999999999998</ele><time>2026-04-18T08:54:30Z</time></trkpt><trkpt lat="44.1932505" lon="10.4252196"><ele>1144.0</ele><time>2026-04-18T08:54:32Z</time></trkpt><trkpt lat="44.1932595" lon="10.425316"><ele>1143.9999999999998</ele><time>2026-04-18T08:54:34Z</time></trkpt><trkpt lat="44.193282" lon="10.4254139"><ele>1144.0</ele><time>2026-04-18T08:54:36Z</time></trkpt><trkpt lat="44.1933282" lon="10.425489"><ele>1144.0</ele><time>2026-04-18T08:54:38Z</time></trkpt><trkpt lat="44.1933881" lon="10.4255383"><ele>1144.0</ele><time>2026-04-18T08:54:40Z</time></trkpt><trkpt lat="44.1934547" lon="10.425568"><ele>1144.0</ele><time>2026-04-18T08:54:42Z</time></trkpt><trkpt lat="44.1935244" lon="10.4255824"><ele>1143.9999999999998</ele><time>2026-04-18T08:54:44Z</time></trkpt><trkpt lat="44.1935929" lon="10.4255875"><ele>1144.0</ele><time>2026-04-18T08:54:46Z</time></trkpt><trkpt lat="44.1936689" lon="10.4255936"><ele>1144.8571428571427</ele><time>2026-04-18T08:54:49Z</time></trkpt><trkpt lat="44.1937617" lon="10.4255966"><ele>1145.7142857142858</ele><time>2026-04-18T08:54:52Z</time></trkpt><trkpt lat="44.1938267" lon="10.425603"><ele>1146.5714285714284</ele><time>2026-04-18T08:54:54Z</time></trkpt><trkpt lat="44.1938916" lon="10.4256238"><ele>1147.4285714285713</ele><time>2026-04-18T08:54:56Z</time></trkpt><trkpt lat="44.1939597" lon="10.4256491"><ele>1148.2857142857142</ele><time>2026-04-18T08:54:58Z</time></trkpt><trkpt lat="44.1940217" lon="10.4256811"><ele>1149.142857142857</ele><time>2026-04-18T08:55:00Z</time></trkpt><trkpt lat="44.1940854" lon="10.42572"><ele>1150.0</ele><time>2026-04-18T08:55:02Z</time></trkpt><trkpt lat="44.1941506" lon="10.4257574"><ele>1150.0</ele><time>2026-04-18T08:55:04Z</time></trkpt><trkpt lat="44.1942201" lon="10.4257944"><ele>1150.0</ele><time>2026-04-18T08:55:06Z</time></trkpt><trkpt lat="44.1942796" lon="10.4258338"><ele>1150.0</ele><time>2026-04-18T08:55:08Z</time></trkpt><trkpt lat="44.1943673" lon="10.4258801"><ele>1150.0</ele><time>2026-04-18T08:55:10.999Z</time></trkpt><trkpt lat="44.1944566" lon="10.4259236"><ele>1150.0</ele><time>2026-04-18T08:55:14Z</time></trkpt><trkpt lat="44.1945207" lon="10.4259462"><ele>1150.0</ele><time>2026-04-18T08:55:16Z</time></trkpt><trkpt lat="44.1946055" lon="10.4259719"><ele>1150.0</ele><time>2026-04-18T08:55:19Z</time></trkpt><trkpt lat="44.1946785" lon="10.4259724"><ele>1150.0</ele><time>2026-04-18T08:55:21Z</time></trkpt><trkpt lat="44.1947488" lon="10.4259769"><ele>1150.0</ele><time>2026-04-18T08:55:23Z</time></trkpt><trkpt lat="44.1948155" lon="10.4259693"><ele>1150.0</ele><time>2026-04-18T08:55:25Z</time></trkpt><trkpt lat="44.194885" lon="10.4259613"><ele>1150.0</ele><time>2026-04-18T08:55:27Z</time></trkpt><trkpt lat="44.1949508" lon="10.4259666"><ele>1150.0</ele><time>2026-04-18T08:55:29Z</time></trkpt><trkpt lat="44.1950161" lon="10.4259597"><ele>1150.0</ele><time>2026-04-18T08:55:31Z</time></trkpt><trkpt lat="44.1950794" lon="10.4259626"><ele>1151.8333333333333</ele><time>2026-04-18T08:55:32.995Z</time></trkpt><trkpt lat="44.1951647" lon="10.4259664"><ele>1153.6666666666665</ele><time>2026-04-18T08:55:36.012Z</time></trkpt><trkpt lat="44.1952508" lon="10.4260104"><ele>1155.5</ele><time>2026-04-18T08:55:39Z</time></trkpt><trkpt lat="44.1953093" lon="10.4260602"><ele>1157.3333333333333</ele><time>2026-04-18T08:55:40.969Z</time></trkpt><trkpt lat="44.1953718" lon="10.4261202"><ele>1159.1666666666667</ele><time>2026-04-18T08:55:43Z</time></trkpt><trkpt lat="44.1954281" lon="10.4261832"><ele>1161.0</ele><time>2026-04-18T08:55:44.988Z</time></trkpt><trkpt lat="44.1954759" lon="10.4262549"><ele>1161.5714285714284</ele><time>2026-04-18T08:55:46.987Z</time></trkpt><trkpt lat="44.195515" lon="10.4263344"><ele>1162.142857142857</ele><time>2026-04-18T08:55:49.017Z</time></trkpt><trkpt lat="44.1955447" lon="10.4264154"><ele>1162.7142857142858</ele><time>2026-04-18T08:55:50.975Z</time></trkpt><trkpt lat="44.19558" lon="10.4264922"><ele>1163.2857142857142</ele><time>2026-04-18T08:55:53Z</time></trkpt><trkpt lat="44.1956223" lon="10.4265618"><ele>1163.857142857143</ele><time>2026-04-18T08:55:55Z</time></trkpt><trkpt lat="44.1956658" lon="10.4266256"><ele>1164.4285714285713</ele><time>2026-04-18T08:55:57Z</time></trkpt><trkpt lat="44.1957237" lon="10.4267261"><ele>1165.0</ele><time>2026-04-18T08:56:00Z</time></trkpt><trkpt lat="44.1957801" lon="10.4268274"><ele>1165.0</ele><time>2026-04-18T08:56:03Z</time></trkpt><trkpt lat="44.1958454" lon="10.4269135"><ele>1165.0</ele><time>2026-04-18T08:56:06Z</time></trkpt><trkpt lat="44.1958943" lon="10.4269714"><ele>1165.0</ele><time>2026-04-18T08:56:08.016Z</time></trkpt><trkpt lat="44.1959526" lon="10.4270676"><ele>1165.0</ele><time>2026-04-18T08:56:11Z</time></trkpt><trkpt lat="44.1959762" lon="10.4271545"><ele>1165.0</ele><time>2026-04-18T08:56:12.999Z</time></trkpt><trkpt lat="44.195979" lon="10.4272478"><ele>1165.0</ele><time>2026-04-18T08:56:14.987Z</time></trkpt><trkpt lat="44.1959516" lon="10.4273702"><ele>1163.8571428571427</ele><time>2026-04-18T08:56:18Z</time></trkpt><trkpt lat="44.1959163" lon="10.4274867"><ele>1162.7142857142858</ele><time>2026-04-18T08:56:21.007Z</time></trkpt><trkpt lat="44.1958841" lon="10.4275876"><ele>1161.5714285714284</ele><time>2026-04-18T08:56:24Z</time></trkpt><trkpt lat="44.1958509" lon="10.4276699"><ele>1160.4285714285713</ele><time>2026-04-18T08:56:26Z</time></trkpt><trkpt lat="44.1958134" lon="10.427757"><ele>1159.2857142857142</ele><time>2026-04-18T08:56:28Z</time></trkpt><trkpt lat="44.1957762" lon="10.4278345"><ele>1158.142857142857</ele><time>2026-04-18T08:56:30Z</time></trkpt><trkpt lat="44.1957437" lon="10.4279202"><ele>1157.0</ele><time>2026-04-18T08:56:32Z</time></trkpt><trkpt lat="44.1957069" lon="10.428001"><ele>1160.5714285714284</ele><time>2026-04-18T08:56:34Z</time></trkpt><trkpt lat="44.1956746" lon="10.42808"><ele>1164.142857142857</ele><time>2026-04-18T08:56:36Z</time></trkpt><trkpt lat="44.1956373" lon="10.4281578"><ele>1167.7142857142858</ele><time>2026-04-18T08:56:38Z</time></trkpt><trkpt lat="44.1955933" lon="10.428262"><ele>1171.2857142857142</ele><time>2026-04-18T08:56:41Z</time></trkpt><trkpt lat="44.195549" lon="10.4283354"><ele>1174.857142857143</ele><time>2026-04-18T08:56:43Z</time></trkpt><trkpt lat="44.1955034" lon="10.428397"><ele>1178.4285714285713</ele><time>2026-04-18T08:56:45Z</time></trkpt><trkpt lat="44.1954303" lon="10.4284473"><ele>1182.0</ele><time>2026-04-18T08:56:48Z</time></trkpt><trkpt lat="44.1953534" lon="10.4284832"><ele>1178.3333333333333</ele><time>2026-04-18T08:56:51Z</time></trkpt><trkpt lat="44.1952628" lon="10.428536"><ele>1174.6666666666667</ele><time>2026-04-18T08:56:54Z</time></trkpt><trkpt lat="44.1952036" lon="10.4285865"><ele>1171.0</ele><time>2026-04-18T08:56:56Z</time></trkpt><trkpt lat="44.1951503" lon="10.4286478"><ele>1167.3333333333335</ele><time>2026-04-18T08:56:58Z</time></trkpt><trkpt lat="44.1951089" lon="10.4287262"><ele>1163.6666666666667</ele><time>2026-04-18T08:57:00Z</time></trkpt><trkpt lat="44.1950758" lon="10.4288102"><ele>1160.0</ele><time>2026-04-18T08:57:02Z</time></trkpt><trkpt lat="44.1950454" lon="10.428924"><ele>1160.0</ele><time>2026-04-18T08:57:05Z</time></trkpt><trkpt lat="44.1950238" lon="10.4290083"><ele>1160.0</ele><time>2026-04-18T08:57:07Z</time></trkpt><trkpt lat="44.1949943" lon="10.4290893"><ele>1160.0</ele><time>2026-04-18T08:57:09Z</time></trkpt><trkpt lat="44.1949563" lon="10.429173"><ele>1160.0</ele><time>2026-04-18T08:57:11Z</time></trkpt><trkpt lat="44.1949133" lon="10.4292385"><ele>1160.0</ele><time>2026-04-18T08:57:13Z</time></trkpt><trkpt lat="44.1948619" lon="10.4292963"><ele>1160.0</ele><time>2026-04-18T08:57:15Z</time></trkpt><trkpt lat="44.1948093" lon="10.4293552"><ele>1160.0</ele><time>2026-04-18T08:57:17Z</time></trkpt><trkpt lat="44.1947697" lon="10.4294241"><ele>1161.0</ele><time>2026-04-18T08:57:19Z</time></trkpt><trkpt lat="44.1947415" lon="10.4295062"><ele>1162.0</ele><time>2026-04-18T08:57:21Z</time></trkpt><trkpt lat="44.1947372" lon="10.4296288"><ele>1163.0</ele><time>2026-04-18T08:57:24Z</time></trkpt><trkpt lat="44.1947628" lon="10.4297127"><ele>1164.0</ele><time>2026-04-18T08:57:26Z</time></trkpt><trkpt lat="44.1947991" lon="10.4297888"><ele>1165.0</ele><time>2026-04-18T08:57:28Z</time></trkpt><trkpt lat="44.1948388" lon="10.42986"><ele>1166.0</ele><time>2026-04-18T08:57:30Z</time></trkpt><trkpt lat="44.1948792" lon="10.4299299"><ele>1167.0</ele><time>2026-04-18T08:57:32Z</time></trkpt><trkpt lat="44.1949193" lon="10.4300008"><ele>1167.0</ele><time>2026-04-18T08:57:34Z</time></trkpt><trkpt lat="44.1949588" lon="10.4300756"><ele>1167.0</ele><time>2026-04-18T08:57:36Z</time></trkpt><trkpt lat="44.1949963" lon="10.4301498"><ele>1167.0</ele><time>2026-04-18T08:57:38Z</time></trkpt><trkpt lat="44.1950576" lon="10.4302442"><ele>1167.0</ele><time>2026-04-18T08:57:41Z</time></trkpt><trkpt lat="44.1951123" lon="10.4303384"><ele>1167.0</ele><time>2026-04-18T08:57:44Z</time></trkpt><trkpt lat="44.1951524" lon="10.43041"><ele>1167.0</ele><time>2026-04-18T08:57:46Z</time></trkpt><trkpt lat="44.1951906" lon="10.430482"><ele>1167.0</ele><time>2026-04-18T08:57:48Z</time></trkpt><trkpt lat="44.1952517" lon="10.4305855"><ele>1165.1666666666667</ele><time>2026-04-18T08:57:51Z</time></trkpt><trkpt lat="44.1953126" lon="10.430686"><ele>1163.3333333333333</ele><time>2026-04-18T08:57:54Z</time></trkpt><trkpt lat="44.1953529" lon="10.430757"><ele>1161.5</ele><time>2026-04-18T08:57:56Z</time></trkpt><trkpt lat="44.195411" lon="10.4308555"><ele>1159.6666666666665</ele><time>2026-04-18T08:57:59Z</time></trkpt><trkpt lat="44.1954695" lon="10.4309534"><ele>1157.8333333333333</ele><time>2026-04-18T08:58:02Z</time></trkpt><trkpt lat="44.1955262" lon="10.4310388"><ele>1156.0</ele><time>2026-04-18T08:58:05Z</time></trkpt><trkpt lat="44.1955653" lon="10.4311083"><ele>1156.0</ele><time>2026-04-18T08:58:07Z</time></trkpt><trkpt lat="44.195605" lon="10.4311803"><ele>1156.0</ele><time>2026-04-18T08:58:09Z</time></trkpt><trkpt lat="44.1956467" lon="10.4312471"><ele>1156.0</ele><time>2026-04-18T08:58:11Z</time></trkpt><trkpt lat="44.1956974" lon="10.4313589"><ele>1156.0</ele><time>2026-04-18T08:58:14Z</time></trkpt><trkpt lat="44.1957475" lon="10.4314576"><ele>1156.0</ele><time>2026-04-18T08:58:17Z</time></trkpt><trkpt lat="44.1958049" lon="10.4315486"><ele>1156.0</ele><time>2026-04-18T08:58:20Z</time></trkpt><trkpt lat="44.1958473" lon="10.4316231"><ele>1158.8333333333333</ele><time>2026-04-18T08:58:22Z</time></trkpt><trkpt lat="44.1958986" lon="10.431691"><ele>1161.6666666666665</ele><time>2026-04-18T08:58:24Z</time></trkpt><trkpt lat="44.1959453" lon="10.431753"><ele>1164.5</ele><time>2026-04-18T08:58:26Z</time></trkpt><trkpt lat="44.1960273" lon="10.4318124"><ele>1167.3333333333333</ele><time>2026-04-18T08:58:29Z</time></trkpt><trkpt lat="44.196117" lon="10.431841"><ele>1170.1666666666667</ele><time>2026-04-18T08:58:32Z</time></trkpt><trkpt lat="44.1962022" lon="10.4318455"><ele>1173.0</ele><time>2026-04-18T08:58:35Z</time></trkpt><trkpt lat="44.1962833" lon="10.4318324"><ele>1173.0000000000002</ele><time>2026-04-18T08:58:38Z</time></trkpt><trkpt lat="44.1963704" lon="10.4318458"><ele>1173.0</ele><time>2026-04-18T08:58:41Z</time></trkpt><trkpt lat="44.1964212" lon="10.4318977"><ele>1173.0</ele><time>2026-04-18T08:58:43Z</time></trkpt><trkpt lat="44.1964521" lon="10.4319982"><ele>1173.0</ele><time>2026-04-18T08:58:46Z</time></trkpt><trkpt lat="44.1964747" lon="10.43209"><ele>1173.0</ele><time>2026-04-18T08:58:49Z</time></trkpt><trkpt lat="44.1964933" lon="10.4321764"><ele>1173.0000000000002</ele><time>2026-04-18T08:58:51Z</time></trkpt><trkpt lat="44.1965085" lon="10.4322733"><ele>1173.0</ele><time>2026-04-18T08:58:53Z</time></trkpt><trkpt lat="44.1965381" lon="10.4323905"><ele>1173.2857142857144</ele><time>2026-04-18T08:58:56Z</time></trkpt><trkpt lat="44.1965823" lon="10.4325038"><ele>1173.5714285714287</ele><time>2026-04-18T08:58:59Z</time></trkpt><trkpt lat="44.1966171" lon="10.4325972"><ele>1173.857142857143</ele><time>2026-04-18T08:59:01Z</time></trkpt><trkpt lat="44.1966518" lon="10.4326853"><ele>1174.1428571428573</ele><time>2026-04-18T08:59:03Z</time></trkpt><trkpt lat="44.1966844" lon="10.432761"><ele>1174.4285714285716</ele><time>2026-04-18T08:59:05Z</time></trkpt><trkpt lat="44.1967176" lon="10.4328402"><ele>1174.7142857142858</ele><time>2026-04-18T08:59:07Z</time></trkpt><trkpt lat="44.1967618" lon="10.4329126"><ele>1175.0</ele><time>2026-04-18T08:59:09Z</time></trkpt><trkpt lat="44.1968047" lon="10.4329922"><ele>1175.0</ele><time>2026-04-18T08:59:11Z</time></trkpt><trkpt lat="44.1968481" lon="10.433076"><ele>1175.0</ele><time>2026-04-18T08:59:13Z</time></trkpt><trkpt lat="44.1968852" lon="10.4331654"><ele>1175.0</ele><time>2026-04-18T08:59:15Z</time></trkpt><trkpt lat="44.1969135" lon="10.4332618"><ele>1175.0</ele><time>2026-04-18T08:59:17Z</time></trkpt><trkpt lat="44.1969396" lon="10.4333464"><ele>1175.0</ele><time>2026-04-18T08:59:19Z</time></trkpt><trkpt lat="44.1969628" lon="10.4334361"><ele>1175.0</ele><time>2026-04-18T08:59:21Z</time></trkpt><trkpt lat="44.1969808" lon="10.4335238"><ele>1175.0</ele><time>2026-04-18T08:59:23Z</time></trkpt><trkpt lat="44.1970027" lon="10.4336167"><ele>1175.0</ele><time>2026-04-18T08:59:25Z</time></trkpt><trkpt lat="44.1970296" lon="10.4337023"><ele>1175.0</ele><time>2026-04-18T08:59:27Z</time></trkpt><trkpt lat="44.1970584" lon="10.4337885"><ele>1175.0</ele><time>2026-04-18T08:59:29Z</time></trkpt><trkpt lat="44.1970868" lon="10.4338697"><ele>1175.0</ele><time>2026-04-18T08:59:31Z</time></trkpt><trkpt lat="44.1971211" lon="10.433949"><ele>1175.0</ele><time>2026-04-18T08:59:33Z</time></trkpt><trkpt lat="44.1971602" lon="10.4340303"><ele>1175.0</ele><time>2026-04-18T08:59:35Z</time></trkpt><trkpt lat="44.197198" lon="10.4341006"><ele>1175.0</ele><time>2026-04-18T08:59:37.009Z</time></trkpt><trkpt lat="44.1972406" lon="10.4342079"><ele>1175.142857142857</ele><time>2026-04-18T08:59:40Z</time></trkpt><trkpt lat="44.197248" lon="10.4342971"><ele>1175.2857142857142</ele><time>2026-04-18T08:59:42Z</time></trkpt><trkpt lat="44.1972108" lon="10.4344159"><ele>1175.4285714285716</ele><time>2026-04-18T08:59:45Z</time></trkpt><trkpt lat="44.1971692" lon="10.4344863"><ele>1175.5714285714284</ele><time>2026-04-18T08:59:47Z</time></trkpt><trkpt lat="44.197103" lon="10.4345261"><ele>1175.7142857142858</ele><time>2026-04-18T08:59:49Z</time></trkpt><trkpt lat="44.1970327" lon="10.4345293"><ele>1175.857142857143</ele><time>2026-04-18T08:59:51Z</time></trkpt><trkpt lat="44.1969684" lon="10.4345169"><ele>1176.0</ele><time>2026-04-18T08:59:53Z</time></trkpt><trkpt lat="44.1968994" lon="10.4344924"><ele>1176.0</ele><time>2026-04-18T08:59:55Z</time></trkpt><trkpt lat="44.1968393" lon="10.4344592"><ele>1176.0</ele><time>2026-04-18T08:59:57Z</time></trkpt><trkpt lat="44.1967563" lon="10.4344077"><ele>1176.0</ele><time>2026-04-18T09:00:00Z</time></trkpt><trkpt lat="44.1967017" lon="10.4343638"><ele>1176.0</ele><time>2026-04-18T09:00:02Z</time></trkpt><trkpt lat="44.1966469" lon="10.4343154"><ele>1176.0</ele><time>2026-04-18T09:00:04Z</time></trkpt><trkpt lat="44.1965919" lon="10.434264"><ele>1176.0</ele><time>2026-04-18T09:00:06Z</time></trkpt><trkpt lat="44.1965366" lon="10.4342126"><ele>1176.0</ele><time>2026-04-18T09:00:08Z</time></trkpt><trkpt lat="44.1964811" lon="10.4341676"><ele>1177.3333333333333</ele><time>2026-04-18T09:00:10Z</time></trkpt><trkpt lat="44.1964231" lon="10.4341246"><ele>1178.6666666666667</ele><time>2026-04-18T09:00:12Z</time></trkpt><trkpt lat="44.1963568" lon="10.434103"><ele>1180.0</ele><time>2026-04-18T09:00:14Z</time></trkpt><trkpt lat="44.1962932" lon="10.4340994"><ele>1181.3333333333335</ele><time>2026-04-18T09:00:16Z</time></trkpt><trkpt lat="44.1962021" lon="10.4341165"><ele>1182.6666666666667</ele><time>2026-04-18T09:00:19Z</time></trkpt><trkpt lat="44.1961219" lon="10.4341539"><ele>1184.0</ele><time>2026-04-18T09:00:22Z</time></trkpt><trkpt lat="44.1960413" lon="10.4341994"><ele>1184.0</ele><time>2026-04-18T09:00:25Z</time></trkpt><trkpt lat="44.1959741" lon="10.4342326"><ele>1184.0</ele><time>2026-04-18T09:00:28Z</time></trkpt><trkpt lat="44.1959006" lon="10.4342644"><ele>1184.0</ele><time>2026-04-18T09:00:31Z</time></trkpt><trkpt lat="44.1958264" lon="10.4342854"><ele>1184.0</ele><time>2026-04-18T09:00:34Z</time></trkpt><trkpt lat="44.1957485" lon="10.4342949"><ele>1184.0</ele><time>2026-04-18T09:00:37Z</time></trkpt><trkpt lat="44.1956741" lon="10.4343057"><ele>1184.0</ele><time>2026-04-18T09:00:40Z</time></trkpt><trkpt lat="44.1955981" lon="10.4343256"><ele>1182.5</ele><time>2026-04-18T09:00:43Z</time></trkpt><trkpt lat="44.1955284" lon="10.43435"><ele>1181.0</ele><time>2026-04-18T09:00:46Z</time></trkpt><trkpt lat="44.1954519" lon="10.4343744"><ele>1179.5</ele><time>2026-04-18T09:00:49Z</time></trkpt><trkpt lat="44.1953742" lon="10.4344007"><ele>1178.0</ele><time>2026-04-18T09:00:52Z</time></trkpt><trkpt lat="44.1952958" lon="10.4344319"><ele>1176.5</ele><time>2026-04-18T09:00:55Z</time></trkpt><trkpt lat="44.1952234" lon="10.4344578"><ele>1175.0</ele><time>2026-04-18T09:00:58Z</time></trkpt><trkpt lat="44.1951505" lon="10.4344865"><ele>1175.0</ele><time>2026-04-18T09:01:01Z</time></trkpt><trkpt lat="44.1950822" lon="10.4345181"><ele>1175.0</ele><time>2026-04-18T09:01:04Z</time></trkpt><trkpt lat="44.1950118" lon="10.4345611"><ele>1175.0</ele><time>2026-04-18T09:01:07Z</time></trkpt><trkpt lat="44.1949481" lon="10.4346332"><ele>1175.0</ele><time>2026-04-18T09:01:10Z</time></trkpt><trkpt lat="44.1949123" lon="10.4347325"><ele>1175.0</ele><time>2026-04-18T09:01:13Z</time></trkpt><trkpt lat="44.1948794" lon="10.4348383"><ele>1175.0</ele><time>2026-04-18T09:01:16Z</time></trkpt><trkpt lat="44.1948489" lon="10.4349484"><ele>1176.3333333333335</ele><time>2026-04-18T09:01:19Z</time></trkpt><trkpt lat="44.1948239" lon="10.4350534"><ele>1177.6666666666667</ele><time>2026-04-18T09:01:22Z</time></trkpt><trkpt lat="44.1947897" lon="10.4351584"><ele>1179.0</ele><time>2026-04-18T09:01:25Z</time></trkpt><trkpt lat="44.1947513" lon="10.4352589"><ele>1180.3333333333333</ele><time>2026-04-18T09:01:27.999Z</time></trkpt><trkpt lat="44.1946993" lon="10.4353591"><ele>1181.6666666666665</ele><time>2026-04-18T09:01:31Z</time></trkpt><trkpt lat="44.1946431" lon="10.4354261"><ele>1183.0</ele><time>2026-04-18T09:01:34Z</time></trkpt><trkpt lat="44.1945808" lon="10.4354998"><ele>1188.3333333333333</ele><time>2026-04-18T09:01:37Z</time></trkpt><trkpt lat="44.1945097" lon="10.4355597"><ele>1193.6666666666665</ele><time>2026-04-18T09:01:40Z</time></trkpt><trkpt lat="44.1944342" lon="10.4356019"><ele>1199.0</ele><time>2026-04-18T09:01:43Z</time></trkpt><trkpt lat="44.1943626" lon="10.4356061"><ele>1204.3333333333333</ele><time>2026-04-18T09:01:46Z</time></trkpt><trkpt lat="44.1942829" lon="10.4355973"><ele>1209.6666666666667</ele><time>2026-04-18T09:01:49Z</time></trkpt><trkpt lat="44.1941965" lon="10.435593"><ele>1215.0</ele><time>2026-04-18T09:01:52Z</time></trkpt><trkpt lat="44.1941067" lon="10.4355856"><ele>1215.0</ele><time>2026-04-18T09:01:55Z</time></trkpt><trkpt lat="44.1940256" lon="10.4355741"><ele>1215.0</ele><time>2026-04-18T09:01:58Z</time></trkpt><trkpt lat="44.1939427" lon="10.4355581"><ele>1215.0</ele><time>2026-04-18T09:02:01Z</time></trkpt><trkpt lat="44.1938624" lon="10.4355557"><ele>1215.0</ele><time>2026-04-18T09:02:04Z</time></trkpt><trkpt lat="44.1937802" lon="10.4355407"><ele>1215.0</ele><time>2026-04-18T09:02:07Z</time></trkpt><trkpt lat="44.1936921" lon="10.4355326"><ele>1215.0</ele><time>2026-04-18T09:02:10Z</time></trkpt><trkpt lat="44.1936039" lon="10.4355274"><ele>1214.0</ele><time>2026-04-18T09:02:13Z</time></trkpt><trkpt lat="44.1935195" lon="10.435514"><ele>1213.0</ele><time>2026-04-18T09:02:16Z</time></trkpt><trkpt lat="44.1934373" lon="10.4355061"><ele>1212.0</ele><time>2026-04-18T09:02:19Z</time></trkpt><trkpt lat="44.1933518" lon="10.4354974"><ele>1211.0</ele><time>2026-04-18T09:02:22Z</time></trkpt><trkpt lat="44.1932725" lon="10.4354972"><ele>1210.0</ele><time>2026-04-18T09:02:25Z</time></trkpt><trkpt lat="44.1931941" lon="10.435512"><ele>1209.0</ele><time>2026-04-18T09:02:28Z</time></trkpt><trkpt lat="44.1931183" lon="10.4355292"><ele>1206.3333333333333</ele><time>2026-04-18T09:02:31Z</time></trkpt><trkpt lat="44.1930374" lon="10.4355503"><ele>1203.6666666666667</ele><time>2026-04-18T09:02:34Z</time></trkpt><trkpt lat="44.1929612" lon="10.4355978"><ele>1201.0</ele><time>2026-04-18T09:02:37Z</time></trkpt><trkpt lat="44.1929325" lon="10.4357068"><ele>1198.3333333333335</ele><time>2026-04-18T09:02:40Z</time></trkpt><trkpt lat="44.1929625" lon="10.4358115"><ele>1195.6666666666667</ele><time>2026-04-18T09:02:43Z</time></trkpt><trkpt lat="44.1930224" lon="10.4358805"><ele>1193.0</ele><time>2026-04-18T09:02:46Z</time></trkpt><trkpt lat="44.1930997" lon="10.4359212"><ele>1195.6666666666667</ele><time>2026-04-18T09:02:49Z</time></trkpt><trkpt lat="44.1931776" lon="10.4359581"><ele>1198.3333333333335</ele><time>2026-04-18T09:02:52Z</time></trkpt><trkpt lat="44.1932551" lon="10.4359968"><ele>1201.0</ele><time>2026-04-18T09:02:55Z</time></trkpt><trkpt lat="44.1933287" lon="10.4360482"><ele>1203.6666666666667</ele><time>2026-04-18T09:02:58Z</time></trkpt><trkpt lat="44.1934025" lon="10.4360961"><ele>1206.3333333333333</ele><time>2026-04-18T09:03:01Z</time></trkpt><trkpt lat="44.1934742" lon="10.4361292"><ele>1209.0</ele><time>2026-04-18T09:03:04Z</time></trkpt><trkpt lat="44.193545" lon="10.4361598"><ele>1209.0</ele><time>2026-04-18T09:03:07Z</time></trkpt><trkpt lat="44.1936163" lon="10.4361956"><ele>1209.0</ele><time>2026-04-18T09:03:10Z</time></trkpt><trkpt lat="44.193687" lon="10.4362333"><ele>1209.0</ele><time>2026-04-18T09:03:12.999Z</time></trkpt><trkpt lat="44.193763" lon="10.4362717"><ele>1209.0</ele><time>2026-04-18T09:03:15.999Z</time></trkpt><trkpt lat="44.1938284" lon="10.4363372"><ele>1209.0</ele><time>2026-04-18T09:03:19Z</time></trkpt><trkpt lat="44.1938934" lon="10.4364032"><ele>1209.0</ele><time>2026-04-18T09:03:22Z</time></trkpt><trkpt lat="44.1939655" lon="10.4364834"><ele>1210.6666666666667</ele><time>2026-04-18T09:03:25Z</time></trkpt><trkpt lat="44.1940257" lon="10.436577"><ele>1212.3333333333333</ele><time>2026-04-18T09:03:28Z</time></trkpt><trkpt lat="44.1940657" lon="10.4366743"><ele>1214.0</ele><time>2026-04-18T09:03:31Z</time></trkpt><trkpt lat="44.1941027" lon="10.4367829"><ele>1215.6666666666665</ele><time>2026-04-18T09:03:34Z</time></trkpt><trkpt lat="44.1941425" lon="10.4368784"><ele>1217.3333333333333</ele><time>2026-04-18T09:03:37Z</time></trkpt><trkpt lat="44.194179" lon="10.4369764"><ele>1219.0</ele><time>2026-04-18T09:03:40Z</time></trkpt><trkpt lat="44.1942189" lon="10.4370732"><ele>1216.8333333333333</ele><time>2026-04-18T09:03:43Z</time></trkpt><trkpt lat="44.1942622" lon="10.4371793"><ele>1214.6666666666665</ele><time>2026-04-18T09:03:46Z</time></trkpt><trkpt lat="44.1943155" lon="10.4372735"><ele>1212.5</ele><time>2026-04-18T09:03:49Z</time></trkpt><trkpt lat="44.1943787" lon="10.4373524"><ele>1210.3333333333333</ele><time>2026-04-18T09:03:52Z</time></trkpt><trkpt lat="44.1944407" lon="10.4374272"><ele>1208.1666666666667</ele><time>2026-04-18T09:03:55Z</time></trkpt><trkpt lat="44.1944885" lon="10.4375167"><ele>1206.0</ele><time>2026-04-18T09:03:58Z</time></trkpt><trkpt lat="44.1945373" lon="10.4376006"><ele>1206.0</ele><time>2026-04-18T09:04:01Z</time></trkpt><trkpt lat="44.1945847" lon="10.4376891"><ele>1206.0</ele><time>2026-04-18T09:04:04Z</time></trkpt><trkpt lat="44.1946335" lon="10.4377807"><ele>1206.0</ele><time>2026-04-18T09:04:07Z</time></trkpt><trkpt lat="44.1946662" lon="10.4378964"><ele>1206.0</ele><time>2026-04-18T09:04:10Z</time></trkpt><trkpt lat="44.1946765" lon="10.4380154"><ele>1206.0</ele><time>2026-04-18T09:04:13Z</time></trkpt><trkpt lat="44.1946876" lon="10.4381306"><ele>1206.0</ele><time>2026-04-18T09:04:16Z</time></trkpt><trkpt lat="44.1946916" lon="10.4382237"><ele>1205.6666666666667</ele><time>2026-04-18T09:04:19Z</time></trkpt><trkpt lat="44.1946928" lon="10.4383266"><ele>1205.3333333333333</ele><time>2026-04-18T09:04:22Z</time></trkpt><trkpt lat="44.194689" lon="10.4384452"><ele>1205.0</ele><time>2026-04-18T09:04:25Z</time></trkpt><trkpt lat="44.1946649" lon="10.4385274"><ele>1204.6666666666665</ele><time>2026-04-18T09:04:27Z</time></trkpt><trkpt lat="44.1946156" lon="10.4386378"><ele>1204.3333333333333</ele><time>2026-04-18T09:04:30Z</time></trkpt><trkpt lat="44.1945669" lon="10.438732"><ele>1204.0</ele><time>2026-04-18T09:04:33Z</time></trkpt><trkpt lat="44.1945139" lon="10.4388481"><ele>1204.6666666666665</ele><time>2026-04-18T09:04:36Z</time></trkpt><trkpt lat="44.1944909" lon="10.4389439"><ele>1205.3333333333333</ele><time>2026-04-18T09:04:38Z</time></trkpt><trkpt lat="44.1944959" lon="10.4390723"><ele>1206.0</ele><time>2026-04-18T09:04:41Z</time></trkpt><trkpt lat="44.1945126" lon="10.4391584"><ele>1206.6666666666667</ele><time>2026-04-18T09:04:43Z</time></trkpt><trkpt lat="44.1945317" lon="10.4392447"><ele>1207.3333333333335</ele><time>2026-04-18T09:04:45Z</time></trkpt><trkpt lat="44.19456" lon="10.4393315"><ele>1208.0</ele><time>2026-04-18T09:04:47Z</time></trkpt><trkpt lat="44.1946096" lon="10.4394394"><ele>1208.0000000000002</ele><time>2026-04-18T09:04:50Z</time></trkpt><trkpt lat="44.1946553" lon="10.4395089"><ele>1208.0</ele><time>2026-04-18T09:04:52Z</time></trkpt><trkpt lat="44.1946993" lon="10.4395738"><ele>1208.0</ele><time>2026-04-18T09:04:54Z</time></trkpt><trkpt lat="44.1947449" lon="10.4396372"><ele>1208.0</ele><time>2026-04-18T09:04:56Z</time></trkpt><trkpt lat="44.194779" lon="10.4397524"><ele>1208.0</ele><time>2026-04-18T09:04:59Z</time></trkpt><trkpt lat="44.194784" lon="10.4398416"><ele>1208.0000000000002</ele><time>2026-04-18T09:05:01Z</time></trkpt><trkpt lat="44.1947804" lon="10.4399537"><ele>1208.0</ele><time>2026-04-18T09:05:04Z</time></trkpt><trkpt lat="44.1947748" lon="10.4400708"><ele>1207.7142857142858</ele><time>2026-04-18T09:05:07Z</time></trkpt><trkpt lat="44.1947577" lon="10.4401612"><ele>1207.4285714285716</ele><time>2026-04-18T09:05:09Z</time></trkpt><trkpt lat="44.1947274" lon="10.4402532"><ele>1207.1428571428573</ele><time>2026-04-18T09:05:11Z</time></trkpt><trkpt lat="44.1946924" lon="10.4403357"><ele>1206.857142857143</ele><time>2026-04-18T09:05:13Z</time></trkpt><trkpt lat="44.194649" lon="10.4404092"><ele>1206.5714285714284</ele><time>2026-04-18T09:05:15Z</time></trkpt><trkpt lat="44.1945878" lon="10.4405066"><ele>1206.2857142857144</ele><time>2026-04-18T09:05:18Z</time></trkpt><trkpt lat="44.1945615" lon="10.440587"><ele>1206.0</ele><time>2026-04-18T09:05:20Z</time></trkpt><trkpt lat="44.1945365" lon="10.4406719"><ele>1209.5</ele><time>2026-04-18T09:05:22Z</time></trkpt><trkpt lat="44.1945034" lon="10.4407908"><ele>1213.0</ele><time>2026-04-18T09:05:25Z</time></trkpt><trkpt lat="44.194463" lon="10.4409119"><ele>1216.5</ele><time>2026-04-18T09:05:28Z</time></trkpt><trkpt lat="44.1944424" lon="10.4409969"><ele>1220.0</ele><time>2026-04-18T09:05:30Z</time></trkpt><trkpt lat="44.1944092" lon="10.4410762"><ele>1223.5</ele><time>2026-04-18T09:05:32Z</time></trkpt><trkpt lat="44.1943712" lon="10.4411476"><ele>1227.0</ele><time>2026-04-18T09:05:34Z</time></trkpt><trkpt lat="44.1943225" lon="10.4412154"><ele>1225.6666666666667</ele><time>2026-04-18T09:05:36Z</time></trkpt><trkpt lat="44.19426" lon="10.4413084"><ele>1224.3333333333333</ele><time>2026-04-18T09:05:39Z</time></trkpt><trkpt lat="44.1941979" lon="10.4414019"><ele>1223.0</ele><time>2026-04-18T09:05:42Z</time></trkpt><trkpt lat="44.1941285" lon="10.4414919"><ele>1221.6666666666665</ele><time>2026-04-18T09:05:45Z</time></trkpt><trkpt lat="44.1940674" lon="10.4415387"><ele>1220.3333333333333</ele><time>2026-04-18T09:05:47Z</time></trkpt><trkpt lat="44.1940082" lon="10.4415847"><ele>1219.0</ele><time>2026-04-18T09:05:49Z</time></trkpt><trkpt lat="44.1939512" lon="10.4416258"><ele>1219.0</ele><time>2026-04-18T09:05:51Z</time></trkpt><trkpt lat="44.1938943" lon="10.4416716"><ele>1219.0</ele><time>2026-04-18T09:05:53Z</time></trkpt><trkpt lat="44.1938466" lon="10.4417349"><ele>1219.0</ele><time>2026-04-18T09:05:55Z</time></trkpt><trkpt lat="44.1938285" lon="10.4418605"><ele>1219.0</ele><time>2026-04-18T09:05:58Z</time></trkpt><trkpt lat="44.1938736" lon="10.441969"><ele>1219.0</ele><time>2026-04-18T09:06:01Z</time></trkpt><trkpt lat="44.1939413" lon="10.4420527"><ele>1219.0</ele><time>2026-04-18T09:06:04Z</time></trkpt><trkpt lat="44.1939943" lon="10.4421038"><ele>1222.6666666666665</ele><time>2026-04-18T09:06:06Z</time></trkpt><trkpt lat="44.1940462" lon="10.4421559"><ele>1226.3333333333333</ele><time>2026-04-18T09:06:08Z</time></trkpt><trkpt lat="44.1940969" lon="10.4422096"><ele>1230.0</ele><time>2026-04-18T09:06:10Z</time></trkpt><trkpt lat="44.1941514" lon="10.4422566"><ele>1233.6666666666667</ele><time>2026-04-18T09:06:12Z</time></trkpt><trkpt lat="44.1942291" lon="10.442331"><ele>1237.3333333333335</ele><time>2026-04-18T09:06:15Z</time></trkpt><trkpt lat="44.1943049" lon="10.4424043"><ele>1241.0</ele><time>2026-04-18T09:06:18Z</time></trkpt><trkpt lat="44.1943725" lon="10.4424625"><ele>1241.0</ele><time>2026-04-18T09:06:21Z</time></trkpt><trkpt lat="44.1944386" lon="10.4425065"><ele>1241.0</ele><time>2026-04-18T09:06:24Z</time></trkpt><trkpt lat="44.1945222" lon="10.4425344"><ele>1241.0</ele><time>2026-04-18T09:06:27Z</time></trkpt><trkpt lat="44.194585" lon="10.4425529"><ele>1241.0</ele><time>2026-04-18T09:06:29Z</time></trkpt><trkpt lat="44.1946727" lon="10.4425821"><ele>1241.0</ele><time>2026-04-18T09:06:32Z</time></trkpt><trkpt lat="44.1947379" lon="10.442596"><ele>1241.0</ele><time>2026-04-18T09:06:34Z</time></trkpt><trkpt lat="44.1948022" lon="10.442603"><ele>1241.0</ele><time>2026-04-18T09:06:36Z</time></trkpt><trkpt lat="44.1948671" lon="10.4426143"><ele>1243.7142857142858</ele><time>2026-04-18T09:06:38Z</time></trkpt><trkpt lat="44.1949327" lon="10.4426248"><ele>1246.4285714285713</ele><time>2026-04-18T09:06:40Z</time></trkpt><trkpt lat="44.194998" lon="10.4426392"><ele>1249.142857142857</ele><time>2026-04-18T09:06:42Z</time></trkpt><trkpt lat="44.19509" lon="10.4426582"><ele>1251.857142857143</ele><time>2026-04-18T09:06:45Z</time></trkpt><trkpt lat="44.1951531" lon="10.4426731"><ele>1254.5714285714284</ele><time>2026-04-18T09:06:47Z</time></trkpt><trkpt lat="44.1952197" lon="10.4426817"><ele>1257.2857142857142</ele><time>2026-04-18T09:06:49Z</time></trkpt><trkpt lat="44.1952841" lon="10.4426931"><ele>1260.0</ele><time>2026-04-18T09:06:51Z</time></trkpt><trkpt lat="44.1953498" lon="10.4427076"><ele>1260.0</ele><time>2026-04-18T09:06:53Z</time></trkpt><trkpt lat="44.1954135" lon="10.4427258"><ele>1260.0</ele><time>2026-04-18T09:06:55Z</time></trkpt><trkpt lat="44.1955093" lon="10.44276"><ele>1260.0</ele><time>2026-04-18T09:06:58Z</time></trkpt><trkpt lat="44.1955754" lon="10.4427774"><ele>1260.0</ele><time>2026-04-18T09:07:00Z</time></trkpt><trkpt lat="44.1956466" lon="10.4427876"><ele>1260.0</ele><time>2026-04-18T09:07:02.005Z</time></trkpt><trkpt lat="44.195713" lon="10.4427907"><ele>1260.0</ele><time>2026-04-18T09:07:04Z</time></trkpt><trkpt lat="44.1957784" lon="10.4427893"><ele>1260.0</ele><time>2026-04-18T09:07:06Z</time></trkpt><trkpt lat="44.1958459" lon="10.4427893"><ele>1262.7142857142858</ele><time>2026-04-18T09:07:08Z</time></trkpt><trkpt lat="44.1959141" lon="10.4427896"><ele>1265.4285714285716</ele><time>2026-04-18T09:07:10Z</time></trkpt><trkpt lat="44.1959859" lon="10.4428056"><ele>1268.142857142857</ele><time>2026-04-18T09:07:12Z</time></trkpt><trkpt lat="44.1960569" lon="10.4428369"><ele>1270.857142857143</ele><time>2026-04-18T09:07:14Z</time></trkpt><trkpt lat="44.1961274" lon="10.4428774"><ele>1273.5714285714287</ele><time>2026-04-18T09:07:16.028Z</time></trkpt><trkpt lat="44.196192" lon="10.4429247"><ele>1276.2857142857142</ele><time>2026-04-18T09:07:18Z</time></trkpt><trkpt lat="44.1962594" lon="10.4429754"><ele>1279.0</ele><time>2026-04-18T09:07:19.992Z</time></trkpt><trkpt lat="44.1963239" lon="10.4430272"><ele>1277.0</ele><time>2026-04-18T09:07:22Z</time></trkpt><trkpt lat="44.1963923" lon="10.4430795"><ele>1275.0</ele><time>2026-04-18T09:07:24.004Z</time></trkpt><trkpt lat="44.1964429" lon="10.4431429"><ele>1273.0</ele><time>2026-04-18T09:07:26Z</time></trkpt><trkpt lat="44.1964769" lon="10.4432199"><ele>1271.0</ele><time>2026-04-18T09:07:28Z</time></trkpt><trkpt lat="44.196512" lon="10.4433001"><ele>1269.0</ele><time>2026-04-18T09:07:30Z</time></trkpt><trkpt lat="44.1965538" lon="10.4433794"><ele>1267.0</ele><time>2026-04-18T09:07:32Z</time></trkpt><trkpt lat="44.1965964" lon="10.443456"><ele>1265.0</ele><time>2026-04-18T09:07:34Z</time></trkpt><trkpt lat="44.1966454" lon="10.4435153"><ele>1265.0</ele><time>2026-04-18T09:07:36Z</time></trkpt><trkpt lat="44.1967242" lon="10.4435881"><ele>1265.0</ele><time>2026-04-18T09:07:39Z</time></trkpt><trkpt lat="44.1967905" lon="10.4436456"><ele>1265.0</ele><time>2026-04-18T09:07:41Z</time></trkpt><trkpt lat="44.1968542" lon="10.4436989"><ele>1265.0</ele><time>2026-04-18T09:07:43Z</time></trkpt><trkpt lat="44.1969204" lon="10.4437531"><ele>1265.0</ele><time>2026-04-18T09:07:45Z</time></trkpt><trkpt lat="44.1969837" lon="10.4438099"><ele>1265.0</ele><time>2026-04-18T09:07:47Z</time></trkpt><trkpt lat="44.1970481" lon="10.4438547"><ele>1264.142857142857</ele><time>2026-04-18T09:07:49Z</time></trkpt><trkpt lat="44.1971077" lon="10.443896"><ele>1263.2857142857144</ele><time>2026-04-18T09:07:51Z</time></trkpt><trkpt lat="44.1971699" lon="10.4439312"><ele>1262.4285714285716</ele><time>2026-04-18T09:07:53Z</time></trkpt><trkpt lat="44.1972377" lon="10.4439688"><ele>1261.5714285714284</ele><time>2026-04-18T09:07:55Z</time></trkpt><trkpt lat="44.197311" lon="10.4439975"><ele>1260.7142857142858</ele><time>2026-04-18T09:07:57Z</time></trkpt><trkpt lat="44.1973801" lon="10.4440373"><ele>1259.857142857143</ele><time>2026-04-18T09:07:59Z</time></trkpt><trkpt lat="44.1974409" lon="10.4441122"><ele>1259.0</ele><time>2026-04-18T09:08:01Z</time></trkpt><trkpt lat="44.1974813" lon="10.4442032"><ele>1259.0</ele><time>2026-04-18T09:08:03Z</time></trkpt><trkpt lat="44.1975179" lon="10.4442974"><ele>1259.0</ele><time>2026-04-18T09:08:05Z</time></trkpt><trkpt lat="44.1975496" lon="10.4443945"><ele>1259.0</ele><time>2026-04-18T09:08:07Z</time></trkpt><trkpt lat="44.1975757" lon="10.4444815"><ele>1259.0</ele><time>2026-04-18T09:08:09Z</time></trkpt><trkpt lat="44.1976006" lon="10.4445776"><ele>1259.0</ele><time>2026-04-18T09:08:11Z</time></trkpt><trkpt lat="44.1976309" lon="10.4446729"><ele>1259.0</ele><time>2026-04-18T09:08:13Z</time></trkpt><trkpt lat="44.1976558" lon="10.4447698"><ele>1259.0</ele><time>2026-04-18T09:08:15Z</time></trkpt><trkpt lat="44.1976773" lon="10.4448596"><ele>1256.0</ele><time>2026-04-18T09:08:17Z</time></trkpt><trkpt lat="44.1977046" lon="10.4449526"><ele>1253.0</ele><time>2026-04-18T09:08:19Z</time></trkpt><trkpt lat="44.19773" lon="10.4450473"><ele>1250.0</ele><time>2026-04-18T09:08:21Z</time></trkpt><trkpt lat="44.1977594" lon="10.4451488"><ele>1247.0</ele><time>2026-04-18T09:08:23Z</time></trkpt><trkpt lat="44.1977943" lon="10.4452443"><ele>1244.0</ele><time>2026-04-18T09:08:25Z</time></trkpt><trkpt lat="44.1978267" lon="10.4453389"><ele>1241.0</ele><time>2026-04-18T09:08:27Z</time></trkpt><trkpt lat="44.1978593" lon="10.4454345"><ele>1239.6666666666667</ele><time>2026-04-18T09:08:29Z</time></trkpt><trkpt lat="44.1978908" lon="10.4455319"><ele>1238.3333333333335</ele><time>2026-04-18T09:08:31Z</time></trkpt><trkpt lat="44.1979268" lon="10.4456196"><ele>1237.0</ele><time>2026-04-18T09:08:33Z</time></trkpt><trkpt lat="44.1979745" lon="10.4456933"><ele>1235.6666666666667</ele><time>2026-04-18T09:08:35Z</time></trkpt><trkpt lat="44.1980593" lon="10.4457449"><ele>1234.3333333333333</ele><time>2026-04-18T09:08:38Z</time></trkpt><trkpt lat="44.1981303" lon="10.4457338"><ele>1233.0</ele><time>2026-04-18T09:08:40Z</time></trkpt><trkpt lat="44.1982023" lon="10.4457237"><ele>1236.6666666666667</ele><time>2026-04-18T09:08:42Z</time></trkpt><trkpt lat="44.1982774" lon="10.4457169"><ele>1240.3333333333333</ele><time>2026-04-18T09:08:44Z</time></trkpt><trkpt lat="44.1983523" lon="10.4457349"><ele>1244.0</ele><time>2026-04-18T09:08:46Z</time></trkpt><trkpt lat="44.1984248" lon="10.4457696"><ele>1247.6666666666665</ele><time>2026-04-18T09:08:48Z</time></trkpt><trkpt lat="44.1984906" lon="10.4458185"><ele>1251.3333333333333</ele><time>2026-04-18T09:08:50Z</time></trkpt><trkpt lat="44.198546" lon="10.4458844"><ele>1255.0</ele><time>2026-04-18T09:08:52Z</time></trkpt><trkpt lat="44.1986038" lon="10.4459558"><ele>1255.0</ele><time>2026-04-18T09:08:54Z</time></trkpt><trkpt lat="44.1986545" lon="10.4460268"><ele>1255.0</ele><time>2026-04-18T09:08:56Z</time></trkpt><trkpt lat="44.1987091" lon="10.4460963"><ele>1255.0</ele><time>2026-04-18T09:08:58Z</time></trkpt><trkpt lat="44.198765" lon="10.4461707"><ele>1255.0</ele><time>2026-04-18T09:09:00Z</time></trkpt><trkpt lat="44.1988187" lon="10.4462383"><ele>1255.0</ele><time>2026-04-18T09:09:02Z</time></trkpt><trkpt lat="44.1988741" lon="10.4463046"><ele>1255.0</ele><time>2026-04-18T09:09:04Z</time></trkpt><trkpt lat="44.1989333" lon="10.4463555"><ele>1255.0</ele><time>2026-04-18T09:09:06Z</time></trkpt><trkpt lat="44.1990034" lon="10.4463545"><ele>1256.0</ele><time>2026-04-18T09:09:08Z</time></trkpt><trkpt lat="44.1990706" lon="10.4463167"><ele>1257.0</ele><time>2026-04-18T09:09:10Z</time></trkpt><trkpt lat="44.1991272" lon="10.4462535"><ele>1258.0</ele><time>2026-04-18T09:09:12Z</time></trkpt><trkpt lat="44.1991713" lon="10.4461681"><ele>1259.0</ele><time>2026-04-18T09:09:14Z</time></trkpt><trkpt lat="44.1992092" lon="10.4460782"><ele>1260.0</ele><time>2026-04-18T09:09:16Z</time></trkpt><trkpt lat="44.199242" lon="10.4459831"><ele>1261.0</ele><time>2026-04-18T09:09:18Z</time></trkpt><trkpt lat="44.1992738" lon="10.4458861"><ele>1262.0</ele><time>2026-04-18T09:09:20Z</time></trkpt><trkpt lat="44.1992944" lon="10.4457881"><ele>1262.0</ele><time>2026-04-18T09:09:22Z</time></trkpt><trkpt lat="44.199318" lon="10.445689"><ele>1262.0</ele><time>2026-04-18T09:09:24Z</time></trkpt><trkpt lat="44.199344" lon="10.4455824"><ele>1262.0</ele><time>2026-04-18T09:09:26Z</time></trkpt><trkpt lat="44.1993785" lon="10.4454868"><ele>1262.0</ele><time>2026-04-18T09:09:28Z</time></trkpt><trkpt lat="44.1994122" lon="10.4453966"><ele>1262.0</ele><time>2026-04-18T09:09:30Z</time></trkpt><trkpt lat="44.1994486" lon="10.4453015"><ele>1262.0</ele><time>2026-04-18T09:09:32Z</time></trkpt><trkpt lat="44.1994902" lon="10.4452066"><ele>1266.1666666666667</ele><time>2026-04-18T09:09:34Z</time></trkpt><trkpt lat="44.1995303" lon="10.445108"><ele>1270.3333333333335</ele><time>2026-04-18T09:09:36Z</time></trkpt><trkpt lat="44.1995692" lon="10.4450171"><ele>1274.5</ele><time>2026-04-18T09:09:38Z</time></trkpt><trkpt lat="44.1995981" lon="10.4449212"><ele>1278.6666666666667</ele><time>2026-04-18T09:09:40Z</time></trkpt><trkpt lat="44.1996336" lon="10.4448218"><ele>1282.8333333333333</ele><time>2026-04-18T09:09:42Z</time></trkpt><trkpt lat="44.1996747" lon="10.4447183"><ele>1287.0</ele><time>2026-04-18T09:09:44Z</time></trkpt><trkpt lat="44.1997226" lon="10.4446279"><ele>1284.3333333333333</ele><time>2026-04-18T09:09:46Z</time></trkpt><trkpt lat="44.1997712" lon="10.4445457"><ele>1281.6666666666667</ele><time>2026-04-18T09:09:48Z</time></trkpt><trkpt lat="44.1998186" lon="10.4444711"><ele>1279.0</ele><time>2026-04-18T09:09:50Z</time></trkpt><trkpt lat="44.1998669" lon="10.4443935"><ele>1276.3333333333335</ele><time>2026-04-18T09:09:52Z</time></trkpt><trkpt lat="44.1999283" lon="10.4443151"><ele>1273.6666666666667</ele><time>2026-04-18T09:09:54.012Z</time></trkpt><trkpt lat="44.1999913" lon="10.4442653"><ele>1271.0</ele><time>2026-04-18T09:09:56Z</time></trkpt><trkpt lat="44.2000668" lon="10.4442294"><ele>1271.0000000000002</ele><time>2026-04-18T09:09:58Z</time></trkpt><trkpt lat="44.2001372" lon="10.4441944"><ele>1271.0</ele><time>2026-04-18T09:10:00Z</time></trkpt><trkpt lat="44.200211" lon="10.4441616"><ele>1271.0</ele><time>2026-04-18T09:10:02Z</time></trkpt><trkpt lat="44.2002841" lon="10.4441238"><ele>1271.0</ele><time>2026-04-18T09:10:04Z</time></trkpt><trkpt lat="44.2003526" lon="10.4440931"><ele>1271.0</ele><time>2026-04-18T09:10:06Z</time></trkpt><trkpt lat="44.2004223" lon="10.4440648"><ele>1271.0000000000002</ele><time>2026-04-18T09:10:08Z</time></trkpt><trkpt lat="44.2004914" lon="10.4440383"><ele>1271.0</ele><time>2026-04-18T09:10:10Z</time></trkpt><trkpt lat="44.2005598" lon="10.4440197"><ele>1271.0000000000002</ele><time>2026-04-18T09:10:12Z</time></trkpt><trkpt lat="44.2006264" lon="10.4440019"><ele>1271.0</ele><time>2026-04-18T09:10:14Z</time></trkpt><trkpt lat="44.2006965" lon="10.4439833"><ele>1271.0</ele><time>2026-04-18T09:10:16Z</time></trkpt><trkpt lat="44.2007711" lon="10.4439642"><ele>1271.0</ele><time>2026-04-18T09:10:18Z</time></trkpt><trkpt lat="44.2008463" lon="10.4439551"><ele>1271.0</ele><time>2026-04-18T09:10:20Z</time></trkpt><trkpt lat="44.2009194" lon="10.4439527"><ele>1271.0000000000002</ele><time>2026-04-18T09:10:22Z</time></trkpt><trkpt lat="44.2009848" lon="10.4439864"><ele>1271.0</ele><time>2026-04-18T09:10:24Z</time></trkpt><trkpt lat="44.2010199" lon="10.4440649"><ele>1271.0000000000002</ele><time>2026-04-18T09:10:26Z</time></trkpt><trkpt lat="44.2010229" lon="10.4441638"><ele>1271.0</ele><time>2026-04-18T09:10:28Z</time></trkpt><trkpt lat="44.2010059" lon="10.4442576"><ele>1271.0</ele><time>2026-04-18T09:10:30Z</time></trkpt><trkpt lat="44.2009954" lon="10.4443509"><ele>1271.0</ele><time>2026-04-18T09:10:32Z</time></trkpt><trkpt lat="44.2009831" lon="10.4444455"><ele>1271.0</ele><time>2026-04-18T09:10:34Z</time></trkpt><trkpt lat="44.2009677" lon="10.4445366"><ele>1271.0000000000002</ele><time>2026-04-18T09:10:36Z</time></trkpt><trkpt lat="44.2009719" lon="10.4446689"><ele>1271.0</ele><time>2026-04-18T09:10:39Z</time></trkpt><trkpt lat="44.200996" lon="10.4447536"><ele>1268.4285714285716</ele><time>2026-04-18T09:10:41Z</time></trkpt><trkpt lat="44.2010362" lon="10.4448266"><ele>1265.857142857143</ele><time>2026-04-18T09:10:43Z</time></trkpt><trkpt lat="44.2010839" lon="10.4448879"><ele>1263.2857142857142</ele><time>2026-04-18T09:10:45Z</time></trkpt><trkpt lat="44.2011512" lon="10.4449797"><ele>1260.7142857142858</ele><time>2026-04-18T09:10:48Z</time></trkpt><trkpt lat="44.2011951" lon="10.4450468"><ele>1258.142857142857</ele><time>2026-04-18T09:10:50Z</time></trkpt><trkpt lat="44.2012386" lon="10.4451124"><ele>1255.5714285714287</ele><time>2026-04-18T09:10:52Z</time></trkpt><trkpt lat="44.2012773" lon="10.4452296"><ele>1253.0</ele><time>2026-04-18T09:10:55Z</time></trkpt><trkpt lat="44.2012832" lon="10.445319"><ele>1253.0</ele><time>2026-04-18T09:10:57Z</time></trkpt><trkpt lat="44.2012904" lon="10.4454451"><ele>1253.0</ele><time>2026-04-18T09:11:00Z</time></trkpt><trkpt lat="44.2012923" lon="10.4455723"><ele>1253.0</ele><time>2026-04-18T09:11:03Z</time></trkpt><trkpt lat="44.2013057" lon="10.445663"><ele>1253.0</ele><time>2026-04-18T09:11:05Z</time></trkpt><trkpt lat="44.2013345" lon="10.4457464"><ele>1253.0</ele><time>2026-04-18T09:11:07Z</time></trkpt><trkpt lat="44.2013831" lon="10.4458112"><ele>1253.0</ele><time>2026-04-18T09:11:09Z</time></trkpt><trkpt lat="44.2014456" lon="10.4458364"><ele>1253.0</ele><time>2026-04-18T09:11:11Z</time></trkpt><trkpt lat="44.2015405" lon="10.4458191"><ele>1255.0</ele><time>2026-04-18T09:11:14Z</time></trkpt><trkpt lat="44.2016049" lon="10.445799"><ele>1257.0</ele><time>2026-04-18T09:11:16Z</time></trkpt><trkpt lat="44.201693" lon="10.4457758"><ele>1259.0</ele><time>2026-04-18T09:11:19Z</time></trkpt><trkpt lat="44.2017587" lon="10.4457582"><ele>1261.0</ele><time>2026-04-18T09:11:21Z</time></trkpt><trkpt lat="44.2018472" lon="10.4457477"><ele>1263.0</ele><time>2026-04-18T09:11:24Z</time></trkpt><trkpt lat="44.2019341" lon="10.4457576"><ele>1265.0</ele><time>2026-04-18T09:11:27Z</time></trkpt><trkpt lat="44.2020239" lon="10.445762"><ele>1265.0</ele><time>2026-04-18T09:11:30Z</time></trkpt><trkpt lat="44.2021198" lon="10.4457753"><ele>1265.0</ele><time>2026-04-18T09:11:33Z</time></trkpt><trkpt lat="44.2021777" lon="10.4458207"><ele>1265.0</ele><time>2026-04-18T09:11:35Z</time></trkpt><trkpt lat="44.2022228" lon="10.4458852"><ele>1265.0</ele><time>2026-04-18T09:11:37Z</time></trkpt><trkpt lat="44.2022596" lon="10.4459674"><ele>1265.0</ele><time>2026-04-18T09:11:39Z</time></trkpt><trkpt lat="44.2022861" lon="10.4460504"><ele>1265.0</ele><time>2026-04-18T09:11:41Z</time></trkpt><trkpt lat="44.2023081" lon="10.4461768"><ele>1265.0</ele><time>2026-04-18T09:11:44Z</time></trkpt><trkpt lat="44.2023157" lon="10.4462661"><ele>1265.0</ele><time>2026-04-18T09:11:46Z</time></trkpt><trkpt lat="44.2023207" lon="10.4463602"><ele>1265.0</ele><time>2026-04-18T09:11:48Z</time></trkpt><trkpt lat="44.2023277" lon="10.4464524"><ele>1265.0</ele><time>2026-04-18T09:11:50Z</time></trkpt><trkpt lat="44.2023345" lon="10.4465439"><ele>1265.0</ele><time>2026-04-18T09:11:52Z</time></trkpt><trkpt lat="44.2023431" lon="10.4466313"><ele>1265.0</ele><time>2026-04-18T09:11:54Z</time></trkpt><trkpt lat="44.2023662" lon="10.4467148"><ele>1265.0</ele><time>2026-04-18T09:11:56Z</time></trkpt><trkpt lat="44.2024066" lon="10.4467866"><ele>1266.5714285714284</ele><time>2026-04-18T09:11:58Z</time></trkpt><trkpt lat="44.2024581" lon="10.4468432"><ele>1268.1428571428573</ele><time>2026-04-18T09:12:00Z</time></trkpt><trkpt lat="44.2025143" lon="10.4468849"><ele>1269.7142857142858</ele><time>2026-04-18T09:12:02Z</time></trkpt><trkpt lat="44.2025724" lon="10.4469226"><ele>1271.2857142857142</ele><time>2026-04-18T09:12:04Z</time></trkpt><trkpt lat="44.2026625" lon="10.4469519"><ele>1272.8571428571427</ele><time>2026-04-18T09:12:07Z</time></trkpt><trkpt lat="44.2027514" lon="10.446969"><ele>1274.4285714285716</ele><time>2026-04-18T09:12:10Z</time></trkpt><trkpt lat="44.202815" lon="10.4469672"><ele>1276.0</ele><time>2026-04-18T09:12:12Z</time></trkpt><trkpt lat="44.2029053" lon="10.4469576"><ele>1276.0</ele><time>2026-04-18T09:12:15Z</time></trkpt><trkpt lat="44.2029713" lon="10.4469449"><ele>1276.0</ele><time>2026-04-18T09:12:17Z</time></trkpt><trkpt lat="44.203064" lon="10.4469354"><ele>1276.0</ele><time>2026-04-18T09:12:20Z</time></trkpt><trkpt lat="44.2031277" lon="10.4469292"><ele>1276.0</ele><time>2026-04-18T09:12:22Z</time></trkpt><trkpt lat="44.2031928" lon="10.4469122"><ele>1276.0</ele><time>2026-04-18T09:12:24Z</time></trkpt><trkpt lat="44.203283" lon="10.4469025"><ele>1276.0</ele><time>2026-04-18T09:12:27Z</time></trkpt><trkpt lat="44.2033759" lon="10.4468875"><ele>1278.4285714285716</ele><time>2026-04-18T09:12:30Z</time></trkpt><trkpt lat="44.2034553" lon="10.4468878"><ele>1280.8571428571427</ele><time>2026-04-18T09:12:33Z</time></trkpt><trkpt lat="44.2035266" lon="10.4469244"><ele>1283.2857142857142</ele><time>2026-04-18T09:12:36Z</time></trkpt><trkpt lat="44.2035438" lon="10.4470119"><ele>1285.7142857142858</ele><time>2026-04-18T09:12:38Z</time></trkpt><trkpt lat="44.2035369" lon="10.4471159"><ele>1288.1428571428573</ele><time>2026-04-18T09:12:40Z</time></trkpt><trkpt lat="44.2035133" lon="10.4472133"><ele>1290.5714285714284</ele><time>2026-04-18T09:12:42Z</time></trkpt><trkpt lat="44.2034905" lon="10.4473008"><ele>1293.0</ele><time>2026-04-18T09:12:44Z</time></trkpt><trkpt lat="44.2034672" lon="10.4473885"><ele>1293.0</ele><time>2026-04-18T09:12:46Z</time></trkpt><trkpt lat="44.2034411" lon="10.4474762"><ele>1293.0</ele><time>2026-04-18T09:12:48Z</time></trkpt><trkpt lat="44.2034125" lon="10.4475589"><ele>1293.0</ele><time>2026-04-18T09:12:50Z</time></trkpt><trkpt lat="44.2033891" lon="10.4476444"><ele>1293.0</ele><time>2026-04-18T09:12:52Z</time></trkpt><trkpt lat="44.2033641" lon="10.4477701"><ele>1293.0</ele><time>2026-04-18T09:12:55Z</time></trkpt><trkpt lat="44.2033405" lon="10.447894"><ele>1293.0</ele><time>2026-04-18T09:12:57.999Z</time></trkpt><trkpt lat="44.2033173" lon="10.448012"><ele>1294.3333333333333</ele><time>2026-04-18T09:13:01Z</time></trkpt><trkpt lat="44.2032954" lon="10.4481272"><ele>1295.6666666666667</ele><time>2026-04-18T09:13:05Z</time></trkpt><trkpt lat="44.2032339" lon="10.4482118"><ele>1297.0</ele><time>2026-04-18T09:13:08Z</time></trkpt><trkpt lat="44.2031672" lon="10.4483008"><ele>1298.3333333333335</ele><time>2026-04-18T09:13:11Z</time></trkpt><trkpt lat="44.2031068" lon="10.4483959"><ele>1299.6666666666667</ele><time>2026-04-18T09:13:14Z</time></trkpt><trkpt lat="44.2030418" lon="10.4484827"><ele>1301.0</ele><time>2026-04-18T09:13:17Z</time></trkpt><trkpt lat="44.2029799" lon="10.4485703"><ele>1298.8333333333335</ele><time>2026-04-18T09:13:20Z</time></trkpt><trkpt lat="44.2029191" lon="10.4486587"><ele>1296.6666666666667</ele><time>2026-04-18T09:13:23Z</time></trkpt><trkpt lat="44.2028644" lon="10.4487557"><ele>1294.5</ele><time>2026-04-18T09:13:26Z</time></trkpt><trkpt lat="44.2028104" lon="10.4488549"><ele>1292.3333333333333</ele><time>2026-04-18T09:13:29Z</time></trkpt><trkpt lat="44.2027587" lon="10.4489574"><ele>1290.1666666666665</ele><time>2026-04-18T09:13:32Z</time></trkpt><trkpt lat="44.2027133" lon="10.4490636"><ele>1288.0</ele><time>2026-04-18T09:13:35Z</time></trkpt><trkpt lat="44.2026657" lon="10.4491697"><ele>1288.0</ele><time>2026-04-18T09:13:38Z</time></trkpt><trkpt lat="44.2026248" lon="10.449279"><ele>1288.0</ele><time>2026-04-18T09:13:41Z</time></trkpt><trkpt lat="44.2025733" lon="10.4493851"><ele>1288.0</ele><time>2026-04-18T09:13:44Z</time></trkpt><trkpt lat="44.2025265" lon="10.4494952"><ele>1288.0</ele><time>2026-04-18T09:13:47Z</time></trkpt><trkpt lat="44.2024862" lon="10.4496066"><ele>1288.0</ele><time>2026-04-18T09:13:50Z</time></trkpt><trkpt lat="44.2024519" lon="10.4497236"><ele>1288.142857142857</ele><time>2026-04-18T09:13:53Z</time></trkpt><trkpt lat="44.2024499" lon="10.4498496"><ele>1288.2857142857142</ele><time>2026-04-18T09:13:56Z</time></trkpt><trkpt lat="44.2024729" lon="10.4499345"><ele>1288.4285714285716</ele><time>2026-04-18T09:13:58Z</time></trkpt><trkpt lat="44.2025032" lon="10.4500215"><ele>1288.5714285714284</ele><time>2026-04-18T09:14:00Z</time></trkpt><trkpt lat="44.2025323" lon="10.4501023"><ele>1288.7142857142858</ele><time>2026-04-18T09:14:02Z</time></trkpt><trkpt lat="44.2025736" lon="10.4501713"><ele>1288.857142857143</ele><time>2026-04-18T09:14:04Z</time></trkpt><trkpt lat="44.2026194" lon="10.4502344"><ele>1289.0</ele><time>2026-04-18T09:14:06Z</time></trkpt><trkpt lat="44.2026834" lon="10.4503243"><ele>1289.0</ele><time>2026-04-18T09:14:09Z</time></trkpt><trkpt lat="44.2027488" lon="10.4504081"><ele>1289.0</ele><time>2026-04-18T09:14:12Z</time></trkpt><trkpt lat="44.2028019" lon="10.4505097"><ele>1289.0</ele><time>2026-04-18T09:14:15Z</time></trkpt><trkpt lat="44.2028101" lon="10.4505978"><ele>1289.0</ele><time>2026-04-18T09:14:17Z</time></trkpt><trkpt lat="44.2028011" lon="10.4506912"><ele>1289.0</ele><time>2026-04-18T09:14:19Z</time></trkpt><trkpt lat="44.202785" lon="10.4507876"><ele>1289.0</ele><time>2026-04-18T09:14:21Z</time></trkpt><trkpt lat="44.2027689" lon="10.4508786"><ele>1289.0</ele><time>2026-04-18T09:14:23Z</time></trkpt><trkpt lat="44.202751" lon="10.4509638"><ele>1288.7142857142858</ele><time>2026-04-18T09:14:25Z</time></trkpt><trkpt lat="44.2027355" lon="10.451054"><ele>1288.4285714285713</ele><time>2026-04-18T09:14:27Z</time></trkpt><trkpt lat="44.2027197" lon="10.4511823"><ele>1288.142857142857</ele><time>2026-04-18T09:14:30Z</time></trkpt><trkpt lat="44.2027054" lon="10.4512754"><ele>1287.857142857143</ele><time>2026-04-18T09:14:32Z</time></trkpt><trkpt lat="44.2026937" lon="10.4513657"><ele>1287.5714285714287</ele><time>2026-04-18T09:14:34Z</time></trkpt><trkpt lat="44.2026831" lon="10.4514588"><ele>1287.2857142857142</ele><time>2026-04-18T09:14:36Z</time></trkpt><trkpt lat="44.2026793" lon="10.4515512"><ele>1287.0</ele><time>2026-04-18T09:14:38Z</time></trkpt><trkpt lat="44.2026809" lon="10.4516452"><ele>1288.0</ele><time>2026-04-18T09:14:40Z</time></trkpt><trkpt lat="44.2026945" lon="10.4517381"><ele>1289.0</ele><time>2026-04-18T09:14:42Z</time></trkpt><trkpt lat="44.2027224" lon="10.4518289"><ele>1290.0</ele><time>2026-04-18T09:14:44Z</time></trkpt><trkpt lat="44.2027632" lon="10.4519022"><ele>1291.0</ele><time>2026-04-18T09:14:46Z</time></trkpt><trkpt lat="44.2028197" lon="10.4519626"><ele>1292.0</ele><time>2026-04-18T09:14:48Z</time></trkpt><trkpt lat="44.2028805" lon="10.4520002"><ele>1293.0</ele><time>2026-04-18T09:14:50Z</time></trkpt><trkpt lat="44.2029444" lon="10.4520191"><ele>1294.0</ele><time>2026-04-18T09:14:52Z</time></trkpt><trkpt lat="44.2030138" lon="10.4520183"><ele>1294.0</ele><time>2026-04-18T09:14:54Z</time></trkpt><trkpt lat="44.2030916" lon="10.4520035"><ele>1294.0</ele><time>2026-04-18T09:14:56Z</time></trkpt><trkpt lat="44.2031712" lon="10.45199"><ele>1294.0</ele><time>2026-04-18T09:14:58Z</time></trkpt><trkpt lat="44.2032378" lon="10.4519766"><ele>1294.0</ele><time>2026-04-18T09:15:00Z</time></trkpt><trkpt lat="44.2033291" lon="10.4519566"><ele>1294.0</ele><time>2026-04-18T09:15:03Z</time></trkpt><trkpt lat="44.2034013" lon="10.4519542"><ele>1294.0</ele><time>2026-04-18T09:15:05Z</time></trkpt><trkpt lat="44.2034892" lon="10.4519623"><ele>1297.4285714285713</ele><time>2026-04-18T09:15:07Z</time></trkpt><trkpt lat="44.2035598" lon="10.4519633"><ele>1300.857142857143</ele><time>2026-04-18T09:15:09Z</time></trkpt><trkpt lat="44.2036303" lon="10.4519621"><ele>1304.2857142857142</ele><time>2026-04-18T09:15:11Z</time></trkpt><trkpt lat="44.2037009" lon="10.4519594"><ele>1307.7142857142858</ele><time>2026-04-18T09:15:13Z</time></trkpt><trkpt lat="44.2037673" lon="10.4519586"><ele>1311.142857142857</ele><time>2026-04-18T09:15:15Z</time></trkpt><trkpt lat="44.2038405" lon="10.4519719"><ele>1314.5714285714287</ele><time>2026-04-18T09:15:17Z</time></trkpt><trkpt lat="44.2039168" lon="10.4519764"><ele>1318.0</ele><time>2026-04-18T09:15:19Z</time></trkpt><trkpt lat="44.204002" lon="10.4519744"><ele>1318.0</ele><time>2026-04-18T09:15:21Z</time></trkpt><trkpt lat="44.2040861" lon="10.4519585"><ele>1318.0</ele><time>2026-04-18T09:15:23Z</time></trkpt><trkpt lat="44.2041625" lon="10.4519015"><ele>1318.0</ele><time>2026-04-18T09:15:25Z</time></trkpt><trkpt lat="44.2042222" lon="10.4518187"><ele>1318.0</ele><time>2026-04-18T09:15:27Z</time></trkpt><trkpt lat="44.2042612" lon="10.451721"><ele>1318.0</ele><time>2026-04-18T09:15:29Z</time></trkpt><trkpt lat="44.2042966" lon="10.4516221"><ele>1318.0</ele><time>2026-04-18T09:15:31Z</time></trkpt><trkpt lat="44.2043276" lon="10.4515214"><ele>1318.0</ele><time>2026-04-18T09:15:33Z</time></trkpt><trkpt lat="44.2043619" lon="10.4514157"><ele>1318.0</ele><time>2026-04-18T09:15:35Z</time></trkpt><trkpt lat="44.2043893" lon="10.4513077"><ele>1318.0</ele><time>2026-04-18T09:15:37Z</time></trkpt><trkpt lat="44.2044281" lon="10.4512091"><ele>1318.0</ele><time>2026-04-18T09:15:39Z</time></trkpt><trkpt lat="44.2044676" lon="10.4511044"><ele>1318.0</ele><time>2026-04-18T09:15:41Z</time></trkpt><trkpt lat="44.2045183" lon="10.4510057"><ele>1318.0</ele><time>2026-04-18T09:15:43Z</time></trkpt><trkpt lat="44.2045733" lon="10.4509173"><ele>1320.0</ele><time>2026-04-18T09:15:45Z</time></trkpt><trkpt lat="44.2046223" lon="10.4508251"><ele>1322.0</ele><time>2026-04-18T09:15:47Z</time></trkpt><trkpt lat="44.2046708" lon="10.4507307"><ele>1324.0</ele><time>2026-04-18T09:15:49Z</time></trkpt><trkpt lat="44.2047206" lon="10.4506315"><ele>1326.0</ele><time>2026-04-18T09:15:51Z</time></trkpt><trkpt lat="44.2047644" lon="10.4505197"><ele>1328.0</ele><time>2026-04-18T09:15:53Z</time></trkpt><trkpt lat="44.2048354" lon="10.4504167"><ele>1330.0</ele><time>2026-04-18T09:15:55Z</time></trkpt><trkpt lat="44.2048834" lon="10.4503354"><ele>1330.0</ele><time>2026-04-18T09:15:57Z</time></trkpt><trkpt lat="44.2049339" lon="10.4502637"><ele>1330.0</ele><time>2026-04-18T09:15:59Z</time></trkpt><trkpt lat="44.2049959" lon="10.4501943"><ele>1330.0</ele><time>2026-04-18T09:16:01Z</time></trkpt><trkpt lat="44.2050544" lon="10.4501281"><ele>1330.0</ele><time>2026-04-18T09:16:03Z</time></trkpt><trkpt lat="44.2051234" lon="10.45007"><ele>1330.0</ele><time>2026-04-18T09:16:05Z</time></trkpt><trkpt lat="44.2051985" lon="10.4500089"><ele>1330.0</ele><time>2026-04-18T09:16:07Z</time></trkpt><trkpt lat="44.2052764" lon="10.4499525"><ele>1330.0</ele><time>2026-04-18T09:16:09Z</time></trkpt><trkpt lat="44.205358" lon="10.4498952"><ele>1330.0</ele><time>2026-04-18T09:16:11Z</time></trkpt><trkpt lat="44.2054424" lon="10.4498362"><ele>1330.0</ele><time>2026-04-18T09:16:13Z</time></trkpt><trkpt lat="44.2055129" lon="10.4497754"><ele>1330.0</ele><time>2026-04-18T09:16:14.999Z</time></trkpt><trkpt lat="44.2055902" lon="10.449696"><ele>1330.0</ele><time>2026-04-18T09:16:17Z</time></trkpt><trkpt lat="44.2056591" lon="10.4496295"><ele>1330.0</ele><time>2026-04-18T09:16:19Z</time></trkpt><trkpt lat="44.2057165" lon="10.4495461"><ele>1329.1666666666665</ele><time>2026-04-18T09:16:21Z</time></trkpt><trkpt lat="44.2057854" lon="10.4494663"><ele>1328.3333333333333</ele><time>2026-04-18T09:16:23Z</time></trkpt><trkpt lat="44.2058481" lon="10.4493934"><ele>1327.5</ele><time>2026-04-18T09:16:25Z</time></trkpt><trkpt lat="44.2059117" lon="10.4493126"><ele>1326.6666666666667</ele><time>2026-04-18T09:16:27Z</time></trkpt><trkpt lat="44.2059723" lon="10.4492215"><ele>1325.8333333333335</ele><time>2026-04-18T09:16:29Z</time></trkpt><trkpt lat="44.2060341" lon="10.4491321"><ele>1325.0</ele><time>2026-04-18T09:16:31Z</time></trkpt><trkpt lat="44.2060933" lon="10.4490382"><ele>1325.0</ele><time>2026-04-18T09:16:33Z</time></trkpt><trkpt lat="44.2061476" lon="10.4489498"><ele>1325.0</ele><time>2026-04-18T09:16:35Z</time></trkpt><trkpt lat="44.2062089" lon="10.4488648"><ele>1325.0</ele><time>2026-04-18T09:16:37Z</time></trkpt><trkpt lat="44.2062722" lon="10.4487807"><ele>1325.0</ele><time>2026-04-18T09:16:39Z</time></trkpt><trkpt lat="44.206335" lon="10.4486969"><ele>1325.0</ele><time>2026-04-18T09:16:41Z</time></trkpt><trkpt lat="44.2063856" lon="10.4486142"><ele>1325.0</ele><time>2026-04-18T09:16:43Z</time></trkpt><trkpt lat="44.2064338" lon="10.4485242"><ele>1324.0</ele><time>2026-04-18T09:16:45Z</time></trkpt><trkpt lat="44.2064894" lon="10.4484316"><ele>1323.0</ele><time>2026-04-18T09:16:47Z</time></trkpt><trkpt lat="44.20656" lon="10.4483554"><ele>1322.0</ele><time>2026-04-18T09:16:49Z</time></trkpt><trkpt lat="44.2066361" lon="10.4482913"><ele>1321.0</ele><time>2026-04-18T09:16:51Z</time></trkpt><trkpt lat="44.2066962" lon="10.4482479"><ele>1320.0</ele><time>2026-04-18T09:16:53Z</time></trkpt><trkpt lat="44.2067571" lon="10.4482172"><ele>1319.0</ele><time>2026-04-18T09:16:55Z</time></trkpt><trkpt lat="44.20684" lon="10.4482231"><ele>1319.0</ele><time>2026-04-18T09:16:57Z</time></trkpt><trkpt lat="44.2069214" lon="10.4482706"><ele>1319.0</ele><time>2026-04-18T09:16:59Z</time></trkpt><trkpt lat="44.2069952" lon="10.4483386"><ele>1319.0</ele><time>2026-04-18T09:17:01Z</time></trkpt><trkpt lat="44.2070697" lon="10.4484124"><ele>1319.0</ele><time>2026-04-18T09:17:03Z</time></trkpt><trkpt lat="44.2071428" lon="10.4484724"><ele>1319.0</ele><time>2026-04-18T09:17:05Z</time></trkpt><trkpt lat="44.20722" lon="10.4485384"><ele>1319.0</ele><time>2026-04-18T09:17:07Z</time></trkpt><trkpt lat="44.2073007" lon="10.4485983"><ele>1318.8333333333335</ele><time>2026-04-18T09:17:09Z</time></trkpt><trkpt lat="44.2073842" lon="10.448647"><ele>1318.6666666666667</ele><time>2026-04-18T09:17:11Z</time></trkpt><trkpt lat="44.2074709" lon="10.4486778"><ele>1318.5</ele><time>2026-04-18T09:17:13Z</time></trkpt><trkpt lat="44.2075584" lon="10.4486897"><ele>1318.3333333333333</ele><time>2026-04-18T09:17:15Z</time></trkpt><trkpt lat="44.20765" lon="10.4486693"><ele>1318.1666666666665</ele><time>2026-04-18T09:17:17Z</time></trkpt><trkpt lat="44.2077306" lon="10.4486414"><ele>1318.0</ele><time>2026-04-18T09:17:19Z</time></trkpt><trkpt lat="44.207809" lon="10.4485871"><ele>1318.0</ele><time>2026-04-18T09:17:21Z</time></trkpt><trkpt lat="44.2078814" lon="10.4485237"><ele>1318.0</ele><time>2026-04-18T09:17:23Z</time></trkpt><trkpt lat="44.207951" lon="10.4484414"><ele>1318.0</ele><time>2026-04-18T09:17:25Z</time></trkpt><trkpt lat="44.2080143" lon="10.4483536"><ele>1318.0</ele><time>2026-04-18T09:17:27Z</time></trkpt><trkpt lat="44.2080823" lon="10.4482648"><ele>1318.0</ele><time>2026-04-18T09:17:29Z</time></trkpt><trkpt lat="44.208146" lon="10.4481805"><ele>1318.0</ele><time>2026-04-18T09:17:31Z</time></trkpt><trkpt lat="44.2082134" lon="10.4480981"><ele>1318.5</ele><time>2026-04-18T09:17:33Z</time></trkpt><trkpt lat="44.2082722" lon="10.448007"><ele>1319.0</ele><time>2026-04-18T09:17:35Z</time></trkpt><trkpt lat="44.2083359" lon="10.4479198"><ele>1319.5</ele><time>2026-04-18T09:17:37Z</time></trkpt><trkpt lat="44.2083965" lon="10.4478304"><ele>1320.0</ele><time>2026-04-18T09:17:39Z</time></trkpt><trkpt lat="44.2084567" lon="10.4477445"><ele>1320.5</ele><time>2026-04-18T09:17:41Z</time></trkpt><trkpt lat="44.2085211" lon="10.4476601"><ele>1321.0</ele><time>2026-04-18T09:17:43Z</time></trkpt><trkpt lat="44.2085852" lon="10.4475845"><ele>1321.0</ele><time>2026-04-18T09:17:45Z</time></trkpt><trkpt lat="44.2086562" lon="10.4475235"><ele>1321.0</ele><time>2026-04-18T09:17:47Z</time></trkpt><trkpt lat="44.2087346" lon="10.4474884"><ele>1321.0</ele><time>2026-04-18T09:17:49Z</time></trkpt><trkpt lat="44.2088182" lon="10.4474733"><ele>1321.0</ele><time>2026-04-18T09:17:50.999Z</time></trkpt><trkpt lat="44.2089078" lon="10.4474678"><ele>1321.0</ele><time>2026-04-18T09:17:53Z</time></trkpt><trkpt lat="44.2089978" lon="10.4474499"><ele>1321.0</ele><time>2026-04-18T09:17:55Z</time></trkpt><trkpt lat="44.2090783" lon="10.447406"><ele>1319.3333333333333</ele><time>2026-04-18T09:17:57Z</time></trkpt><trkpt lat="44.2091467" lon="10.4473428"><ele>1317.6666666666665</ele><time>2026-04-18T09:17:59Z</time></trkpt><trkpt lat="44.2092047" lon="10.4472568"><ele>1316.0</ele><time>2026-04-18T09:18:01Z</time></trkpt><trkpt lat="44.2092562" lon="10.4471674"><ele>1314.3333333333333</ele><time>2026-04-18T09:18:03Z</time></trkpt><trkpt lat="44.209309" lon="10.4470723"><ele>1312.6666666666667</ele><time>2026-04-18T09:18:05Z</time></trkpt><trkpt lat="44.2093623" lon="10.4469621"><ele>1311.0</ele><time>2026-04-18T09:18:07Z</time></trkpt><trkpt lat="44.2094295" lon="10.4468781"><ele>1311.6666666666667</ele><time>2026-04-18T09:18:09Z</time></trkpt><trkpt lat="44.2095093" lon="10.4468166"><ele>1312.3333333333333</ele><time>2026-04-18T09:18:11Z</time></trkpt><trkpt lat="44.2095816" lon="10.4467613"><ele>1313.0</ele><time>2026-04-18T09:18:13Z</time></trkpt><trkpt lat="44.2096617" lon="10.4467122"><ele>1313.6666666666665</ele><time>2026-04-18T09:18:15Z</time></trkpt><trkpt lat="44.2097412" lon="10.4466591"><ele>1314.3333333333333</ele><time>2026-04-18T09:18:17Z</time></trkpt><trkpt lat="44.2098229" lon="10.4466015"><ele>1315.0</ele><time>2026-04-18T09:18:19Z</time></trkpt><trkpt lat="44.2099042" lon="10.4465496"><ele>1315.0</ele><time>2026-04-18T09:18:21Z</time></trkpt><trkpt lat="44.209989" lon="10.4464982"><ele>1315.0</ele><time>2026-04-18T09:18:23Z</time></trkpt><trkpt lat="44.2100737" lon="10.446447"><ele>1315.0</ele><time>2026-04-18T09:18:25Z</time></trkpt><trkpt lat="44.2101596" lon="10.4463927"><ele>1315.0</ele><time>2026-04-18T09:18:27Z</time></trkpt><trkpt lat="44.2102392" lon="10.4463412"><ele>1315.0</ele><time>2026-04-18T09:18:29Z</time></trkpt><trkpt lat="44.2103219" lon="10.4462852"><ele>1316.0</ele><time>2026-04-18T09:18:31Z</time></trkpt><trkpt lat="44.2104016" lon="10.4462277"><ele>1317.0</ele><time>2026-04-18T09:18:33Z</time></trkpt><trkpt lat="44.210485" lon="10.4461661"><ele>1318.0</ele><time>2026-04-18T09:18:35Z</time></trkpt><trkpt lat="44.210569" lon="10.4461117"><ele>1319.0</ele><time>2026-04-18T09:18:37Z</time></trkpt><trkpt lat="44.2106468" lon="10.4460563"><ele>1320.0</ele><time>2026-04-18T09:18:39Z</time></trkpt><trkpt lat="44.2107348" lon="10.4460095"><ele>1320.0</ele><time>2026-04-18T09:18:41Z</time></trkpt><trkpt lat="44.2108191" lon="10.4459546"><ele>1320.0</ele><time>2026-04-18T09:18:43Z</time></trkpt><trkpt lat="44.2109024" lon="10.4459075"><ele>1320.0</ele><time>2026-04-18T09:18:45Z</time></trkpt><trkpt lat="44.2109881" lon="10.4458669"><ele>1320.0</ele><time>2026-04-18T09:18:47Z</time></trkpt><trkpt lat="44.2110736" lon="10.4458239"><ele>1320.0</ele><time>2026-04-18T09:18:49Z</time></trkpt><trkpt lat="44.2111655" lon="10.4457983"><ele>1320.0</ele><time>2026-04-18T09:18:51Z</time></trkpt><trkpt lat="44.211256" lon="10.4457656"><ele>1320.0</ele><time>2026-04-18T09:18:53Z</time></trkpt><trkpt lat="44.2113326" lon="10.4457351"><ele>1320.0</ele><time>2026-04-18T09:18:55Z</time></trkpt><trkpt lat="44.2114015" lon="10.4457036"><ele>1320.0</ele><time>2026-04-18T09:18:57Z</time></trkpt><trkpt lat="44.2114861" lon="10.4456872"><ele>1320.0</ele><time>2026-04-18T09:18:59Z</time></trkpt><trkpt lat="44.2115651" lon="10.4456569"><ele>1320.0</ele><time>2026-04-18T09:19:01Z</time></trkpt><trkpt lat="44.2116385" lon="10.4456308"><ele>1318.6666666666667</ele><time>2026-04-18T09:19:03Z</time></trkpt><trkpt lat="44.2117129" lon="10.445599"><ele>1317.3333333333333</ele><time>2026-04-18T09:19:05Z</time></trkpt><trkpt lat="44.2117775" lon="10.4455541"><ele>1316.0</ele><time>2026-04-18T09:19:07Z</time></trkpt><trkpt lat="44.2118575" lon="10.4455087"><ele>1314.6666666666665</ele><time>2026-04-18T09:19:09Z</time></trkpt><trkpt lat="44.2119346" lon="10.4454639"><ele>1313.3333333333333</ele><time>2026-04-18T09:19:11Z</time></trkpt><trkpt lat="44.2120164" lon="10.4454261"><ele>1312.0</ele><time>2026-04-18T09:19:13Z</time></trkpt><trkpt lat="44.2121155" lon="10.4453788"><ele>1312.8</ele><time>2026-04-18T09:19:15Z</time></trkpt><trkpt lat="44.2122019" lon="10.4453194"><ele>1313.6</ele><time>2026-04-18T09:19:17Z</time></trkpt><trkpt lat="44.212291" lon="10.4452765"><ele>1314.3999999999999</ele><time>2026-04-18T09:19:19Z</time></trkpt><trkpt lat="44.2123824" lon="10.4452268"><ele>1315.1999999999998</ele><time>2026-04-18T09:19:21Z</time></trkpt><trkpt lat="44.2124672" lon="10.4451767"><ele>1316.0</ele><time>2026-04-18T09:19:23Z</time></trkpt><trkpt lat="44.2125533" lon="10.4451221"><ele>1316.0</ele><time>2026-04-18T09:19:25Z</time></trkpt><trkpt lat="44.2126347" lon="10.4450656"><ele>1316.0</ele><time>2026-04-18T09:19:27Z</time></trkpt><trkpt lat="44.2127122" lon="10.4449852"><ele>1316.0</ele><time>2026-04-18T09:19:29Z</time></trkpt><trkpt lat="44.2127818" lon="10.4448923"><ele>1316.0</ele><time>2026-04-18T09:19:31Z</time></trkpt><trkpt lat="44.2128656" lon="10.4448348"><ele>1316.0</ele><time>2026-04-18T09:19:33Z</time></trkpt><trkpt lat="44.2129323" lon="10.4448271"><ele>1316.0</ele><time>2026-04-18T09:19:34Z</time></trkpt><trkpt lat="44.2130261" lon="10.4449059"><ele>1316.0</ele><time>2026-04-18T09:19:36Z</time></trkpt><trkpt lat="44.2130702" lon="10.444972"><ele>1316.0</ele><time>2026-04-18T09:19:37Z</time></trkpt><trkpt lat="44.2131647" lon="10.4450372"><ele>1316.0</ele><time>2026-04-18T09:19:39Z</time></trkpt><trkpt lat="44.2132287" lon="10.4450612"><ele>1316.0</ele><time>2026-04-18T09:19:40Z</time></trkpt><trkpt lat="44.2133033" lon="10.4450854"><ele>1316.0</ele><time>2026-04-18T09:19:41Z</time></trkpt><trkpt lat="44.2133778" lon="10.4450955"><ele>1316.0</ele><time>2026-04-18T09:19:42Z</time></trkpt><trkpt lat="44.2134583" lon="10.4451064"><ele>1315.8333333333335</ele><time>2026-04-18T09:19:43Z</time></trkpt><trkpt lat="44.2135398" lon="10.4451225"><ele>1315.6666666666667</ele><time>2026-04-18T09:19:44Z</time></trkpt><trkpt lat="44.2136214" lon="10.4451414"><ele>1315.5</ele><time>2026-04-18T09:19:45Z</time></trkpt><trkpt lat="44.2136987" lon="10.4451448"><ele>1315.3333333333333</ele><time>2026-04-18T09:19:46Z</time></trkpt><trkpt lat="44.2137844" lon="10.4451443"><ele>1315.1666666666665</ele><time>2026-04-18T09:19:47Z</time></trkpt><trkpt lat="44.2138751" lon="10.4451644"><ele>1315.0</ele><time>2026-04-18T09:19:48Z</time></trkpt><trkpt lat="44.2139588" lon="10.4452138"><ele>1316.3333333333333</ele><time>2026-04-18T09:19:49Z</time></trkpt><trkpt lat="44.2140221" lon="10.4452963"><ele>1317.6666666666665</ele><time>2026-04-18T09:19:50Z</time></trkpt><trkpt lat="44.2140562" lon="10.4453943"><ele>1319.0</ele><time>2026-04-18T09:19:51Z</time></trkpt><trkpt lat="44.2140653" lon="10.4455147"><ele>1320.3333333333333</ele><time>2026-04-18T09:19:52Z</time></trkpt><trkpt lat="44.2140366" lon="10.4456222"><ele>1321.6666666666667</ele><time>2026-04-18T09:19:53Z</time></trkpt><trkpt lat="44.2139896" lon="10.4457003"><ele>1323.0</ele><time>2026-04-18T09:19:54Z</time></trkpt><trkpt lat="44.213933" lon="10.4457686"><ele>1319.0</ele><time>2026-04-18T09:19:55Z</time></trkpt><trkpt lat="44.2138811" lon="10.4458439"><ele>1315.0</ele><time>2026-04-18T09:19:56Z</time></trkpt><trkpt lat="44.2138303" lon="10.4459209"><ele>1311.0</ele><time>2026-04-18T09:19:57Z</time></trkpt><trkpt lat="44.213778" lon="10.4459855"><ele>1307.0</ele><time>2026-04-18T09:19:58Z</time></trkpt><trkpt lat="44.2137329" lon="10.4460617"><ele>1303.0</ele><time>2026-04-18T09:19:59Z</time></trkpt><trkpt lat="44.2136913" lon="10.4461389"><ele>1299.0</ele><time>2026-04-18T09:20:00Z</time></trkpt><trkpt lat="44.2136202" lon="10.4462672"><ele>1301.0</ele><time>2026-04-18T09:20:02Z</time></trkpt><trkpt lat="44.2135588" lon="10.4463959"><ele>1303.0</ele><time>2026-04-18T09:20:04Z</time></trkpt><trkpt lat="44.2135078" lon="10.4465067"><ele>1305.0</ele><time>2026-04-18T09:20:06Z</time></trkpt><trkpt lat="44.2134533" lon="10.4466136"><ele>1307.0</ele><time>2026-04-18T09:20:08Z</time></trkpt><trkpt lat="44.2134061" lon="10.4467145"><ele>1309.0</ele><time>2026-04-18T09:20:10Z</time></trkpt><trkpt lat="44.2133553" lon="10.446824"><ele>1309.0</ele><time>2026-04-18T09:20:12Z</time></trkpt><trkpt lat="44.2133167" lon="10.4469389"><ele>1309.0</ele><time>2026-04-18T09:20:14Z</time></trkpt><trkpt lat="44.2132854" lon="10.4470511"><ele>1309.0</ele><time>2026-04-18T09:20:16Z</time></trkpt><trkpt lat="44.2132567" lon="10.4471703"><ele>1309.0</ele><time>2026-04-18T09:20:18Z</time></trkpt><trkpt lat="44.2132386" lon="10.4472938"><ele>1309.0</ele><time>2026-04-18T09:20:20Z</time></trkpt><trkpt lat="44.2132201" lon="10.4474201"><ele>1310.5</ele><time>2026-04-18T09:20:21.999Z</time></trkpt><trkpt lat="44.213203" lon="10.4475425"><ele>1312.0</ele><time>2026-04-18T09:20:24Z</time></trkpt><trkpt lat="44.213202" lon="10.4476621"><ele>1313.5</ele><time>2026-04-18T09:20:26Z</time></trkpt><trkpt lat="44.2132113" lon="10.4477741"><ele>1315.0</ele><time>2026-04-18T09:20:28Z</time></trkpt><trkpt lat="44.2132236" lon="10.4478971"><ele>1316.5</ele><time>2026-04-18T09:20:30Z</time></trkpt><trkpt lat="44.2132408" lon="10.4480168"><ele>1318.0</ele><time>2026-04-18T09:20:32Z</time></trkpt><trkpt lat="44.2132596" lon="10.4481513"><ele>1318.2</ele><time>2026-04-18T09:20:34Z</time></trkpt><trkpt lat="44.2132719" lon="10.4482903"><ele>1318.4</ele><time>2026-04-18T09:20:36Z</time></trkpt><trkpt lat="44.2132783" lon="10.4484386"><ele>1318.6000000000001</ele><time>2026-04-18T09:20:38Z</time></trkpt><trkpt lat="44.2132836" lon="10.448599"><ele>1318.8000000000002</ele><time>2026-04-18T09:20:40Z</time></trkpt><trkpt lat="44.2132865" lon="10.4487601"><ele>1319.0</ele><time>2026-04-18T09:20:42Z</time></trkpt><trkpt lat="44.2132837" lon="10.4488485"><ele>1319.0</ele><time>2026-04-18T09:20:43Z</time></trkpt><trkpt lat="44.2132832" lon="10.4490042"><ele>1319.0</ele><time>2026-04-18T09:20:45Z</time></trkpt><trkpt lat="44.2132696" lon="10.449166"><ele>1319.0</ele><time>2026-04-18T09:20:47Z</time></trkpt><trkpt lat="44.2132666" lon="10.4493342"><ele>1319.0</ele><time>2026-04-18T09:20:49Z</time></trkpt><trkpt lat="44.2132622" lon="10.4494253"><ele>1319.0</ele><time>2026-04-18T09:20:50Z</time></trkpt><trkpt lat="44.2132616" lon="10.449517"><ele>1318.6</ele><time>2026-04-18T09:20:51Z</time></trkpt><trkpt lat="44.2132501" lon="10.4496935"><ele>1318.2</ele><time>2026-04-18T09:20:53Z</time></trkpt><trkpt lat="44.2132297" lon="10.4498651"><ele>1317.8</ele><time>2026-04-18T09:20:55Z</time></trkpt><trkpt lat="44.2132273" lon="10.4499599"><ele>1317.3999999999999</ele><time>2026-04-18T09:20:56Z</time></trkpt><trkpt lat="44.213219" lon="10.4500581"><ele>1317.0</ele><time>2026-04-18T09:20:57Z</time></trkpt><trkpt lat="44.2132145" lon="10.4501577"><ele>1317.0</ele><time>2026-04-18T09:20:58Z</time></trkpt><trkpt lat="44.2132109" lon="10.450255"><ele>1317.0</ele><time>2026-04-18T09:20:59Z</time></trkpt><trkpt lat="44.2132066" lon="10.4503575"><ele>1317.0</ele><time>2026-04-18T09:21:00Z</time></trkpt><trkpt lat="44.2132046" lon="10.4504543"><ele>1317.0</ele><time>2026-04-18T09:21:01Z</time></trkpt><trkpt lat="44.2132079" lon="10.4505566"><ele>1317.0</ele><time>2026-04-18T09:21:02Z</time></trkpt><trkpt lat="44.2132149" lon="10.4506575"><ele>1317.0</ele><time>2026-04-18T09:21:03Z</time></trkpt><trkpt lat="44.2132152" lon="10.4507621"><ele>1317.0</ele><time>2026-04-18T09:21:04Z</time></trkpt><trkpt lat="44.213215" lon="10.4508703"><ele>1315.1666666666667</ele><time>2026-04-18T09:21:05Z</time></trkpt><trkpt lat="44.2132189" lon="10.4509784"><ele>1313.3333333333333</ele><time>2026-04-18T09:21:06Z</time></trkpt><trkpt lat="44.2132218" lon="10.4510886"><ele>1311.5</ele><time>2026-04-18T09:21:07Z</time></trkpt><trkpt lat="44.213221" lon="10.4511994"><ele>1309.6666666666665</ele><time>2026-04-18T09:21:08Z</time></trkpt><trkpt lat="44.2132262" lon="10.4513113"><ele>1307.8333333333333</ele><time>2026-04-18T09:21:09Z</time></trkpt><trkpt lat="44.2132293" lon="10.4514206"><ele>1306.0</ele><time>2026-04-18T09:21:10Z</time></trkpt><trkpt lat="44.2132313" lon="10.4515329"><ele>1304.8333333333333</ele><time>2026-04-18T09:21:11Z</time></trkpt><trkpt lat="44.2132378" lon="10.451644"><ele>1303.6666666666665</ele><time>2026-04-18T09:21:12Z</time></trkpt><trkpt lat="44.2132383" lon="10.4517569"><ele>1302.5</ele><time>2026-04-18T09:21:13Z</time></trkpt><trkpt lat="44.2132416" lon="10.4518643"><ele>1301.3333333333333</ele><time>2026-04-18T09:21:14Z</time></trkpt><trkpt lat="44.21325" lon="10.4519735"><ele>1300.1666666666667</ele><time>2026-04-18T09:21:15Z</time></trkpt><trkpt lat="44.2132579" lon="10.4520783"><ele>1299.0</ele><time>2026-04-18T09:21:16Z</time></trkpt><trkpt lat="44.2132737" lon="10.4521853"><ele>1296.3333333333333</ele><time>2026-04-18T09:21:17Z</time></trkpt><trkpt lat="44.2133165" lon="10.4522691"><ele>1293.6666666666667</ele><time>2026-04-18T09:21:18Z</time></trkpt><trkpt lat="44.2133617" lon="10.4523611"><ele>1291.0</ele><time>2026-04-18T09:21:19Z</time></trkpt><trkpt lat="44.2134094" lon="10.4524463"><ele>1288.3333333333335</ele><time>2026-04-18T09:21:20Z</time></trkpt><trkpt lat="44.213463" lon="10.4525234"><ele>1285.6666666666667</ele><time>2026-04-18T09:21:21Z</time></trkpt><trkpt lat="44.2135285" lon="10.4525633"><ele>1283.0</ele><time>2026-04-18T09:21:22Z</time></trkpt><trkpt lat="44.2136014" lon="10.4525997"><ele>1283.0</ele><time>2026-04-18T09:21:23Z</time></trkpt><trkpt lat="44.2136809" lon="10.4526341"><ele>1283.0</ele><time>2026-04-18T09:21:24Z</time></trkpt><trkpt lat="44.2137575" lon="10.4526745"><ele>1283.0</ele><time>2026-04-18T09:21:25Z</time></trkpt><trkpt lat="44.2138346" lon="10.4527282"><ele>1283.0</ele><time>2026-04-18T09:21:26Z</time></trkpt><trkpt lat="44.2139071" lon="10.4527964"><ele>1283.0</ele><time>2026-04-18T09:21:27Z</time></trkpt><trkpt lat="44.2139743" lon="10.452872"><ele>1283.0</ele><time>2026-04-18T09:21:28Z</time></trkpt><trkpt lat="44.2140329" lon="10.4529518"><ele>1286.5</ele><time>2026-04-18T09:21:29Z</time></trkpt><trkpt lat="44.2140866" lon="10.4530165"><ele>1290.0</ele><time>2026-04-18T09:21:30Z</time></trkpt><trkpt lat="44.2141386" lon="10.4530951"><ele>1293.5</ele><time>2026-04-18T09:21:31Z</time></trkpt><trkpt lat="44.214182" lon="10.4531992"><ele>1297.0</ele><time>2026-04-18T09:21:32Z</time></trkpt><trkpt lat="44.2141846" lon="10.4533238"><ele>1300.5</ele><time>2026-04-18T09:21:33Z</time></trkpt><trkpt lat="44.2141781" lon="10.453442"><ele>1304.0</ele><time>2026-04-18T09:21:34Z</time></trkpt><trkpt lat="44.214158" lon="10.4535624"><ele>1304.0</ele><time>2026-04-18T09:21:35Z</time></trkpt><trkpt lat="44.2141435" lon="10.4536724"><ele>1304.0</ele><time>2026-04-18T09:21:36Z</time></trkpt><trkpt lat="44.2141206" lon="10.4537899"><ele>1304.0</ele><time>2026-04-18T09:21:37Z</time></trkpt><trkpt lat="44.2140858" lon="10.4538994"><ele>1304.0</ele><time>2026-04-18T09:21:38Z</time></trkpt><trkpt lat="44.2140375" lon="10.4540054"><ele>1304.0</ele><time>2026-04-18T09:21:39Z</time></trkpt><trkpt lat="44.2139869" lon="10.4541026"><ele>1304.0</ele><time>2026-04-18T09:21:40Z</time></trkpt><trkpt lat="44.2139239" lon="10.4541976"><ele>1297.5</ele><time>2026-04-18T09:21:41Z</time></trkpt><trkpt lat="44.2138667" lon="10.4542873"><ele>1291.0</ele><time>2026-04-18T09:21:42Z</time></trkpt><trkpt lat="44.2138088" lon="10.4543778"><ele>1284.5</ele><time>2026-04-18T09:21:43Z</time></trkpt><trkpt lat="44.2137742" lon="10.4544849"><ele>1278.0</ele><time>2026-04-18T09:21:44Z</time></trkpt><trkpt lat="44.2137708" lon="10.4546086"><ele>1271.5</ele><time>2026-04-18T09:21:45Z</time></trkpt><trkpt lat="44.2137999" lon="10.4547244"><ele>1265.0</ele><time>2026-04-18T09:21:46Z</time></trkpt><trkpt lat="44.2138585" lon="10.4548116"><ele>1265.0</ele><time>2026-04-18T09:21:47Z</time></trkpt><trkpt lat="44.2139222" lon="10.4548999"><ele>1265.0</ele><time>2026-04-18T09:21:48Z</time></trkpt><trkpt lat="44.2140243" lon="10.4549023"><ele>1265.0</ele><time>2026-04-18T09:21:49Z</time></trkpt><trkpt lat="44.2141074" lon="10.4549561"><ele>1265.0</ele><time>2026-04-18T09:21:50Z</time></trkpt><trkpt lat="44.214159" lon="10.4550662"><ele>1265.0</ele><time>2026-04-18T09:21:51Z</time></trkpt><trkpt lat="44.2142135" lon="10.4551684"><ele>1270.6666666666667</ele><time>2026-04-18T09:21:52Z</time></trkpt><trkpt lat="44.2142737" lon="10.4552592"><ele>1276.3333333333335</ele><time>2026-04-18T09:21:53Z</time></trkpt><trkpt lat="44.2143554" lon="10.4553111"><ele>1282.0</ele><time>2026-04-18T09:21:54Z</time></trkpt><trkpt lat="44.2144452" lon="10.4553133"><ele>1287.6666666666667</ele><time>2026-04-18T09:21:55Z</time></trkpt><trkpt lat="44.2145328" lon="10.45528"><ele>1293.3333333333333</ele><time>2026-04-18T09:21:56Z</time></trkpt><trkpt lat="44.2146204" lon="10.4552523"><ele>1299.0</ele><time>2026-04-18T09:21:57Z</time></trkpt><trkpt lat="44.2147224" lon="10.4552467"><ele>1299.0</ele><time>2026-04-18T09:21:58Z</time></trkpt><trkpt lat="44.2147987" lon="10.4552963"><ele>1299.0</ele><time>2026-04-18T09:21:59Z</time></trkpt><trkpt lat="44.2148821" lon="10.4553518"><ele>1299.0</ele><time>2026-04-18T09:22:00Z</time></trkpt><trkpt lat="44.2149398" lon="10.4554568"><ele>1299.0</ele><time>2026-04-18T09:22:01Z</time></trkpt><trkpt lat="44.2150051" lon="10.4555415"><ele>1299.0</ele><time>2026-04-18T09:22:02Z</time></trkpt><trkpt lat="44.2150607" lon="10.4556317"><ele>1299.0</ele><time>2026-04-18T09:22:03Z</time></trkpt><trkpt lat="44.2151284" lon="10.4557157"><ele>1295.4</ele><time>2026-04-18T09:22:04Z</time></trkpt><trkpt lat="44.2152236" lon="10.4557309"><ele>1291.8000000000002</ele><time>2026-04-18T09:22:05Z</time></trkpt><trkpt lat="44.2153151" lon="10.4557134"><ele>1288.1999999999998</ele><time>2026-04-18T09:22:06Z</time></trkpt><trkpt lat="44.2153983" lon="10.4556697"><ele>1284.6</ele><time>2026-04-18T09:22:07Z</time></trkpt><trkpt lat="44.2154732" lon="10.4556069"><ele>1281.0</ele><time>2026-04-18T09:22:08Z</time></trkpt><trkpt lat="44.2155568" lon="10.4555479"><ele>1281.0</ele><time>2026-04-18T09:22:09Z</time></trkpt><trkpt lat="44.215636" lon="10.4554953"><ele>1281.0</ele><time>2026-04-18T09:22:10Z</time></trkpt><trkpt lat="44.2157254" lon="10.4554552"><ele>1281.0</ele><time>2026-04-18T09:22:11Z</time></trkpt><trkpt lat="44.2158137" lon="10.4554078"><ele>1281.0</ele><time>2026-04-18T09:22:12Z</time></trkpt><trkpt lat="44.2158856" lon="10.4553675"><ele>1281.0</ele><time>2026-04-18T09:22:13Z</time></trkpt><trkpt lat="44.2159737" lon="10.4553059"><ele>1286.5</ele><time>2026-04-18T09:22:14Z</time></trkpt><trkpt lat="44.2160577" lon="10.455232"><ele>1292.0</ele><time>2026-04-18T09:22:15Z</time></trkpt><trkpt lat="44.2161375" lon="10.4551664"><ele>1297.5</ele><time>2026-04-18T09:22:16Z</time></trkpt><trkpt lat="44.2162156" lon="10.4551236"><ele>1303.0</ele><time>2026-04-18T09:22:17Z</time></trkpt><trkpt lat="44.2163018" lon="10.4550889"><ele>1308.5</ele><time>2026-04-18T09:22:18Z</time></trkpt><trkpt lat="44.2163736" lon="10.4550566"><ele>1314.0</ele><time>2026-04-18T09:22:19Z</time></trkpt><trkpt lat="44.2164554" lon="10.4550263"><ele>1310.6666666666667</ele><time>2026-04-18T09:22:20Z</time></trkpt><trkpt lat="44.2165292" lon="10.4549952"><ele>1307.3333333333333</ele><time>2026-04-18T09:22:21Z</time></trkpt><trkpt lat="44.2166032" lon="10.4549667"><ele>1304.0</ele><time>2026-04-18T09:22:22Z</time></trkpt><trkpt lat="44.216668" lon="10.4549508"><ele>1300.6666666666665</ele><time>2026-04-18T09:22:23Z</time></trkpt><trkpt lat="44.216731" lon="10.4549284"><ele>1297.3333333333333</ele><time>2026-04-18T09:22:24Z</time></trkpt><trkpt lat="44.2168612" lon="10.4549233"><ele>1294.0</ele><time>2026-04-18T09:22:26Z</time></trkpt><trkpt lat="44.2169837" lon="10.4549258"><ele>1294.0</ele><time>2026-04-18T09:22:28Z</time></trkpt><trkpt lat="44.217091" lon="10.4549039"><ele>1294.0</ele><time>2026-04-18T09:22:30Z</time></trkpt><trkpt lat="44.2171979" lon="10.4548721"><ele>1294.0</ele><time>2026-04-18T09:22:32Z</time></trkpt><trkpt lat="44.2173037" lon="10.454844"><ele>1294.0</ele><time>2026-04-18T09:22:34Z</time></trkpt><trkpt lat="44.2173898" lon="10.4548186"><ele>1294.0</ele><time>2026-04-18T09:22:36Z</time></trkpt><trkpt lat="44.2174801" lon="10.454791"><ele>1292.3333333333333</ele><time>2026-04-18T09:22:38Z</time></trkpt><trkpt lat="44.217574" lon="10.4547702"><ele>1290.6666666666665</ele><time>2026-04-18T09:22:40Z</time></trkpt><trkpt lat="44.2176564" lon="10.4547461"><ele>1289.0</ele><time>2026-04-18T09:22:42Z</time></trkpt><trkpt lat="44.2177258" lon="10.454725"><ele>1287.3333333333333</ele><time>2026-04-18T09:22:44Z</time></trkpt><trkpt lat="44.2178121" lon="10.4546939"><ele>1285.6666666666667</ele><time>2026-04-18T09:22:46Z</time></trkpt><trkpt lat="44.2178996" lon="10.4546525"><ele>1284.0</ele><time>2026-04-18T09:22:48Z</time></trkpt><trkpt lat="44.2179873" lon="10.4546053"><ele>1287.0</ele><time>2026-04-18T09:22:50Z</time></trkpt><trkpt lat="44.2180735" lon="10.4545509"><ele>1290.0</ele><time>2026-04-18T09:22:52Z</time></trkpt><trkpt lat="44.2181547" lon="10.4544833"><ele>1293.0</ele><time>2026-04-18T09:22:54Z</time></trkpt><trkpt lat="44.2182291" lon="10.4544082"><ele>1296.0</ele><time>2026-04-18T09:22:56Z</time></trkpt><trkpt lat="44.218293" lon="10.4543472"><ele>1299.0</ele><time>2026-04-18T09:22:58Z</time></trkpt><trkpt lat="44.2183635" lon="10.4542805"><ele>1302.0</ele><time>2026-04-18T09:23:00Z</time></trkpt><trkpt lat="44.2184354" lon="10.45422"><ele>1302.0</ele><time>2026-04-18T09:23:02Z</time></trkpt><trkpt lat="44.2185048" lon="10.4541599"><ele>1302.0</ele><time>2026-04-18T09:23:04Z</time></trkpt><trkpt lat="44.2185779" lon="10.4540991"><ele>1302.0</ele><time>2026-04-18T09:23:06Z</time></trkpt><trkpt lat="44.2186407" lon="10.4540438"><ele>1302.0</ele><time>2026-04-18T09:23:08Z</time></trkpt><trkpt lat="44.2187162" lon="10.4540099"><ele>1302.0</ele><time>2026-04-18T09:23:10Z</time></trkpt><trkpt lat="44.2188011" lon="10.4540185"><ele>1302.0</ele><time>2026-04-18T09:23:12Z</time></trkpt><trkpt lat="44.2188715" lon="10.4540886"><ele>1302.0</ele><time>2026-04-18T09:23:14Z</time></trkpt><trkpt lat="44.2189165" lon="10.4541892"><ele>1302.0</ele><time>2026-04-18T09:23:16Z</time></trkpt><trkpt lat="44.2189432" lon="10.4542992"><ele>1302.0</ele><time>2026-04-18T09:23:18Z</time></trkpt><trkpt lat="44.2189482" lon="10.4544243"><ele>1302.0</ele><time>2026-04-18T09:23:20Z</time></trkpt><trkpt lat="44.2189401" lon="10.4545562"><ele>1302.0</ele><time>2026-04-18T09:23:22Z</time></trkpt><trkpt lat="44.2189385" lon="10.4546876"><ele>1302.0</ele><time>2026-04-18T09:23:24Z</time></trkpt><trkpt lat="44.2189475" lon="10.4548173"><ele>1301.8</ele><time>2026-04-18T09:23:26Z</time></trkpt><trkpt lat="44.2189694" lon="10.4549463"><ele>1301.6</ele><time>2026-04-18T09:23:28Z</time></trkpt><trkpt lat="44.2189915" lon="10.4550689"><ele>1301.3999999999999</ele><time>2026-04-18T09:23:30Z</time></trkpt><trkpt lat="44.219035" lon="10.455195"><ele>1301.1999999999998</ele><time>2026-04-18T09:23:32Z</time></trkpt><trkpt lat="44.2190714" lon="10.4553187"><ele>1301.0</ele><time>2026-04-18T09:23:34Z</time></trkpt><trkpt lat="44.2191286" lon="10.4554022"><ele>1296.6666666666667</ele><time>2026-04-18T09:23:36Z</time></trkpt><trkpt lat="44.2191937" lon="10.4554693"><ele>1292.3333333333335</ele><time>2026-04-18T09:23:38Z</time></trkpt><trkpt lat="44.2192691" lon="10.4555073"><ele>1288.0</ele><time>2026-04-18T09:23:40Z</time></trkpt><trkpt lat="44.2193461" lon="10.4555365"><ele>1283.6666666666667</ele><time>2026-04-18T09:23:42Z</time></trkpt><trkpt lat="44.2194179" lon="10.4555533"><ele>1279.3333333333333</ele><time>2026-04-18T09:23:44Z</time></trkpt><trkpt lat="44.2194964" lon="10.4555687"><ele>1275.0</ele><time>2026-04-18T09:23:46Z</time></trkpt><trkpt lat="44.2195744" lon="10.4555804"><ele>1275.0</ele><time>2026-04-18T09:23:48Z</time></trkpt><trkpt lat="44.2196576" lon="10.4555939"><ele>1275.0</ele><time>2026-04-18T09:23:50Z</time></trkpt><trkpt lat="44.2197337" lon="10.4555996"><ele>1275.0</ele><time>2026-04-18T09:23:52Z</time></trkpt><trkpt lat="44.2198082" lon="10.4556164"><ele>1275.0</ele><time>2026-04-18T09:23:54Z</time></trkpt><trkpt lat="44.2198806" lon="10.4556283"><ele>1275.0</ele><time>2026-04-18T09:23:56Z</time></trkpt><trkpt lat="44.2199445" lon="10.4556388"><ele>1275.0</ele><time>2026-04-18T09:23:58Z</time></trkpt><trkpt lat="44.2200355" lon="10.4556527"><ele>1277.0</ele><time>2026-04-18T09:24:01Z</time></trkpt><trkpt lat="44.2201004" lon="10.4556569"><ele>1279.0</ele><time>2026-04-18T09:24:03Z</time></trkpt><trkpt lat="44.2201653" lon="10.4556582"><ele>1281.0</ele><time>2026-04-18T09:24:05Z</time></trkpt><trkpt lat="44.2202292" lon="10.4556545"><ele>1283.0</ele><time>2026-04-18T09:24:07Z</time></trkpt><trkpt lat="44.2202955" lon="10.4556573"><ele>1285.0</ele><time>2026-04-18T09:24:09Z</time></trkpt><trkpt lat="44.2203874" lon="10.4556545"><ele>1287.0</ele><time>2026-04-18T09:24:12Z</time></trkpt><trkpt lat="44.2204524" lon="10.4556534"><ele>1289.0</ele><time>2026-04-18T09:24:14Z</time></trkpt><trkpt lat="44.2205214" lon="10.4556599"><ele>1289.0</ele><time>2026-04-18T09:24:16Z</time></trkpt><trkpt lat="44.2206145" lon="10.4556836"><ele>1289.0</ele><time>2026-04-18T09:24:19Z</time></trkpt><trkpt lat="44.2206767" lon="10.4557153"><ele>1289.0</ele><time>2026-04-18T09:24:21Z</time></trkpt><trkpt lat="44.2207313" lon="10.4557602"><ele>1289.0</ele><time>2026-04-18T09:24:23Z</time></trkpt><trkpt lat="44.2208101" lon="10.4558361"><ele>1289.0</ele><time>2026-04-18T09:24:26Z</time></trkpt><trkpt lat="44.2208607" lon="10.4558929"><ele>1289.0</ele><time>2026-04-18T09:24:28Z</time></trkpt><trkpt lat="44.2209048" lon="10.4559595"><ele>1290.1666666666667</ele><time>2026-04-18T09:24:30Z</time></trkpt><trkpt lat="44.220947" lon="10.456032"><ele>1291.3333333333335</ele><time>2026-04-18T09:24:32Z</time></trkpt><trkpt lat="44.2209912" lon="10.4560946"><ele>1292.5</ele><time>2026-04-18T09:24:34Z</time></trkpt><trkpt lat="44.2210522" lon="10.4561887"><ele>1293.6666666666667</ele><time>2026-04-18T09:24:37Z</time></trkpt><trkpt lat="44.2211047" lon="10.4562828"><ele>1294.8333333333333</ele><time>2026-04-18T09:24:40Z</time></trkpt><trkpt lat="44.2211176" lon="10.4563922"><ele>1296.0</ele><time>2026-04-18T09:24:43Z</time></trkpt><trkpt lat="44.2211077" lon="10.4565043"><ele>1296.0</ele><time>2026-04-18T09:24:46Z</time></trkpt><trkpt lat="44.2210868" lon="10.456617"><ele>1296.0</ele><time>2026-04-18T09:24:49Z</time></trkpt><trkpt lat="44.2210524" lon="10.456728"><ele>1296.0</ele><time>2026-04-18T09:24:52Z</time></trkpt><trkpt lat="44.2209875" lon="10.4567874"><ele>1296.0</ele><time>2026-04-18T09:24:55Z</time></trkpt><trkpt lat="44.2209172" lon="10.4568301"><ele>1296.0</ele><time>2026-04-18T09:24:57.999Z</time></trkpt><trkpt lat="44.2208468" lon="10.4568741"><ele>1296.0</ele><time>2026-04-18T09:25:01Z</time></trkpt><trkpt lat="44.2207764" lon="10.4569093"><ele>1296.0</ele><time>2026-04-18T09:25:04Z</time></trkpt><trkpt lat="44.2207045" lon="10.4569589"><ele>1296.0</ele><time>2026-04-18T09:25:07Z</time></trkpt><trkpt lat="44.2206277" lon="10.4570007"><ele>1296.0</ele><time>2026-04-18T09:25:10Z</time></trkpt><trkpt lat="44.2205605" lon="10.4570356"><ele>1296.0</ele><time>2026-04-18T09:25:13Z</time></trkpt><trkpt lat="44.2204855" lon="10.4570884"><ele>1296.0</ele><time>2026-04-18T09:25:16Z</time></trkpt><trkpt lat="44.2204083" lon="10.4571395"><ele>1296.0</ele><time>2026-04-18T09:25:19Z</time></trkpt><trkpt lat="44.2203406" lon="10.4571892"><ele>1298.0</ele><time>2026-04-18T09:25:22Z</time></trkpt><trkpt lat="44.2202667" lon="10.45725"><ele>1300.0</ele><time>2026-04-18T09:25:25Z</time></trkpt><trkpt lat="44.2201905" lon="10.4573039"><ele>1302.0</ele><time>2026-04-18T09:25:28Z</time></trkpt><trkpt lat="44.2201216" lon="10.4573598"><ele>1304.0</ele><time>2026-04-18T09:25:31Z</time></trkpt><trkpt lat="44.220058" lon="10.4574224"><ele>1306.0</ele><time>2026-04-18T09:25:34Z</time></trkpt><trkpt lat="44.2199978" lon="10.4574941"><ele>1308.0</ele><time>2026-04-18T09:25:37Z</time></trkpt><trkpt lat="44.2199347" lon="10.4575706"><ele>1308.0</ele><time>2026-04-18T09:25:40Z</time></trkpt><trkpt lat="44.2198534" lon="10.4576209"><ele>1308.0</ele><time>2026-04-18T09:25:43Z</time></trkpt><trkpt lat="44.2197759" lon="10.4576501"><ele>1308.0</ele><time>2026-04-18T09:25:46Z</time></trkpt><trkpt lat="44.2196911" lon="10.4576786"><ele>1308.0</ele><time>2026-04-18T09:25:49Z</time></trkpt><trkpt lat="44.2196157" lon="10.4577131"><ele>1308.0</ele><time>2026-04-18T09:25:52Z</time></trkpt><trkpt lat="44.2195404" lon="10.4577536"><ele>1308.0</ele><time>2026-04-18T09:25:55Z</time></trkpt><trkpt lat="44.2194716" lon="10.457785"><ele>1310.0</ele><time>2026-04-18T09:25:58Z</time></trkpt><trkpt lat="44.2194028" lon="10.4578232"><ele>1312.0</ele><time>2026-04-18T09:26:01Z</time></trkpt><trkpt lat="44.2193399" lon="10.4578739"><ele>1314.0</ele><time>2026-04-18T09:26:04Z</time></trkpt><trkpt lat="44.2192695" lon="10.4579236"><ele>1316.0</ele><time>2026-04-18T09:26:07Z</time></trkpt><trkpt lat="44.2191998" lon="10.4579677"><ele>1318.0</ele><time>2026-04-18T09:26:10Z</time></trkpt><trkpt lat="44.2191263" lon="10.4580136"><ele>1320.0</ele><time>2026-04-18T09:26:13Z</time></trkpt><trkpt lat="44.2190463" lon="10.4580413"><ele>1314.8333333333333</ele><time>2026-04-18T09:26:16Z</time></trkpt><trkpt lat="44.2189816" lon="10.4580839"><ele>1309.6666666666667</ele><time>2026-04-18T09:26:19Z</time></trkpt><trkpt lat="44.2189058" lon="10.4581353"><ele>1304.5</ele><time>2026-04-18T09:26:22Z</time></trkpt><trkpt lat="44.2188376" lon="10.4581928"><ele>1299.3333333333335</ele><time>2026-04-18T09:26:25Z</time></trkpt><trkpt lat="44.218781" lon="10.4582781"><ele>1294.1666666666667</ele><time>2026-04-18T09:26:27.999Z</time></trkpt><trkpt lat="44.218752" lon="10.4583853"><ele>1289.0</ele><time>2026-04-18T09:26:31Z</time></trkpt><trkpt lat="44.2187464" lon="10.4584968"><ele>1289.0</ele><time>2026-04-18T09:26:34Z</time></trkpt><trkpt lat="44.2187577" lon="10.458605"><ele>1289.0</ele><time>2026-04-18T09:26:37Z</time></trkpt><trkpt lat="44.2187684" lon="10.4587183"><ele>1289.0</ele><time>2026-04-18T09:26:40Z</time></trkpt><trkpt lat="44.2187773" lon="10.4588245"><ele>1289.0</ele><time>2026-04-18T09:26:43Z</time></trkpt><trkpt lat="44.218765" lon="10.4589359"><ele>1289.0</ele><time>2026-04-18T09:26:46Z</time></trkpt><trkpt lat="44.2187203" lon="10.4590351"><ele>1289.0</ele><time>2026-04-18T09:26:49Z</time></trkpt><trkpt lat="44.2186587" lon="10.4591158"><ele>1292.1666666666667</ele><time>2026-04-18T09:26:52Z</time></trkpt><trkpt lat="44.2186002" lon="10.4591938"><ele>1295.3333333333335</ele><time>2026-04-18T09:26:55Z</time></trkpt><trkpt lat="44.2185477" lon="10.4592714"><ele>1298.5</ele><time>2026-04-18T09:26:58Z</time></trkpt><trkpt lat="44.2184882" lon="10.4593374"><ele>1301.6666666666667</ele><time>2026-04-18T09:27:01Z</time></trkpt><trkpt lat="44.2184274" lon="10.4594077"><ele>1304.8333333333333</ele><time>2026-04-18T09:27:04Z</time></trkpt><trkpt lat="44.2183654" lon="10.4594857"><ele>1308.0</ele><time>2026-04-18T09:27:07Z</time></trkpt><trkpt lat="44.2183176" lon="10.4595736"><ele>1310.8333333333333</ele><time>2026-04-18T09:27:10Z</time></trkpt><trkpt lat="44.2182855" lon="10.4596748"><ele>1313.6666666666667</ele><time>2026-04-18T09:27:13Z</time></trkpt><trkpt lat="44.2182653" lon="10.459788"><ele>1316.5</ele><time>2026-04-18T09:27:16Z</time></trkpt><trkpt lat="44.2182497" lon="10.4599042"><ele>1319.3333333333335</ele><time>2026-04-18T09:27:19Z</time></trkpt><trkpt lat="44.2182365" lon="10.4600163"><ele>1322.1666666666667</ele><time>2026-04-18T09:27:22Z</time></trkpt><trkpt lat="44.2182193" lon="10.4601251"><ele>1325.0</ele><time>2026-04-18T09:27:25Z</time></trkpt><trkpt lat="44.218208" lon="10.4602362"><ele>1325.0</ele><time>2026-04-18T09:27:28Z</time></trkpt><trkpt lat="44.2181791" lon="10.4603374"><ele>1325.0</ele><time>2026-04-18T09:27:31Z</time></trkpt><trkpt lat="44.2181215" lon="10.4604137"><ele>1325.0</ele><time>2026-04-18T09:27:34Z</time></trkpt><trkpt lat="44.2180521" lon="10.4604753"><ele>1325.0</ele><time>2026-04-18T09:27:37Z</time></trkpt><trkpt lat="44.217983" lon="10.4605345"><ele>1325.0</ele><time>2026-04-18T09:27:40Z</time></trkpt><trkpt lat="44.2179223" lon="10.4606045"><ele>1325.0</ele><time>2026-04-18T09:27:43Z</time></trkpt><trkpt lat="44.2178684" lon="10.4606846"><ele>1322.1666666666667</ele><time>2026-04-18T09:27:46Z</time></trkpt><trkpt lat="44.2178229" lon="10.4607799"><ele>1319.3333333333335</ele><time>2026-04-18T09:27:49Z</time></trkpt><trkpt lat="44.2177928" lon="10.4608722"><ele>1316.5</ele><time>2026-04-18T09:27:52Z</time></trkpt><trkpt lat="44.2177781" lon="10.4609881"><ele>1313.6666666666667</ele><time>2026-04-18T09:27:55Z</time></trkpt><trkpt lat="44.2177777" lon="10.4611111"><ele>1310.8333333333333</ele><time>2026-04-18T09:27:58Z</time></trkpt><trkpt lat="44.2177904" lon="10.4612349"><ele>1308.0</ele><time>2026-04-18T09:28:01Z</time></trkpt><trkpt lat="44.2178084" lon="10.461349"><ele>1307.1666666666667</ele><time>2026-04-18T09:28:04Z</time></trkpt><trkpt lat="44.21783" lon="10.4614652"><ele>1306.3333333333333</ele><time>2026-04-18T09:28:07Z</time></trkpt><trkpt lat="44.2178505" lon="10.4615796"><ele>1305.5</ele><time>2026-04-18T09:28:10Z</time></trkpt><trkpt lat="44.2178667" lon="10.4616951"><ele>1304.6666666666665</ele><time>2026-04-18T09:28:13Z</time></trkpt><trkpt lat="44.2178888" lon="10.4618049"><ele>1303.8333333333333</ele><time>2026-04-18T09:28:16Z</time></trkpt><trkpt lat="44.2179115" lon="10.461923"><ele>1303.0</ele><time>2026-04-18T09:28:19Z</time></trkpt><trkpt lat="44.217921" lon="10.4620194"><ele>1302.8333333333333</ele><time>2026-04-18T09:28:21Z</time></trkpt><trkpt lat="44.2179234" lon="10.4621509"><ele>1302.6666666666665</ele><time>2026-04-18T09:28:24.005Z</time></trkpt><trkpt lat="44.2179299" lon="10.4622666"><ele>1302.5</ele><time>2026-04-18T09:28:27Z</time></trkpt><trkpt lat="44.2179181" lon="10.4623825"><ele>1302.3333333333333</ele><time>2026-04-18T09:28:30.032Z</time></trkpt><trkpt lat="44.2179199" lon="10.4625032"><ele>1302.1666666666667</ele><time>2026-04-18T09:28:33Z</time></trkpt><trkpt lat="44.2179267" lon="10.4625952"><ele>1302.0</ele><time>2026-04-18T09:28:35Z</time></trkpt><trkpt lat="44.2179381" lon="10.4626824"><ele>1302.0</ele><time>2026-04-18T09:28:37.009Z</time></trkpt><trkpt lat="44.2179767" lon="10.4627982"><ele>1302.0</ele><time>2026-04-18T09:28:40.058Z</time></trkpt><trkpt lat="44.218011" lon="10.4628979"><ele>1302.0</ele><time>2026-04-18T09:28:43.063Z</time></trkpt><trkpt lat="44.2180346" lon="10.4630246"><ele>1302.0</ele><time>2026-04-18T09:28:46Z</time></trkpt><trkpt lat="44.2180562" lon="10.4631135"><ele>1302.0</ele><time>2026-04-18T09:28:48Z</time></trkpt><trkpt lat="44.2180778" lon="10.4632027"><ele>1302.0</ele><time>2026-04-18T09:28:50.014Z</time></trkpt><trkpt lat="44.2180918" lon="10.4633293"><ele>1303.5</ele><time>2026-04-18T09:28:53Z</time></trkpt><trkpt lat="44.2180987" lon="10.4634211"><ele>1305.0</ele><time>2026-04-18T09:28:55Z</time></trkpt><trkpt lat="44.2181084" lon="10.4635486"><ele>1306.5</ele><time>2026-04-18T09:28:58Z</time></trkpt><trkpt lat="44.2181202" lon="10.4636703"><ele>1308.0</ele><time>2026-04-18T09:29:01Z</time></trkpt><trkpt lat="44.2181429" lon="10.4637999"><ele>1309.5</ele><time>2026-04-18T09:29:04Z</time></trkpt><trkpt lat="44.2181703" lon="10.4638881"><ele>1311.0</ele><time>2026-04-18T09:29:06Z</time></trkpt><trkpt lat="44.2182031" lon="10.4639636"><ele>1316.6666666666667</ele><time>2026-04-18T09:29:08Z</time></trkpt><trkpt lat="44.2182371" lon="10.4640376"><ele>1322.3333333333333</ele><time>2026-04-18T09:29:10.03Z</time></trkpt><trkpt lat="44.2182766" lon="10.4641501"><ele>1328.0</ele><time>2026-04-18T09:29:13Z</time></trkpt><trkpt lat="44.2183083" lon="10.4642268"><ele>1333.6666666666665</ele><time>2026-04-18T09:29:15.005Z</time></trkpt><trkpt lat="44.2183357" lon="10.4643527"><ele>1339.3333333333333</ele><time>2026-04-18T09:29:18Z</time></trkpt><trkpt lat="44.2183273" lon="10.4644439"><ele>1345.0</ele><time>2026-04-18T09:29:20.004Z</time></trkpt><trkpt lat="44.2182784" lon="10.4645353"><ele>1345.0</ele><time>2026-04-18T09:29:22.016Z</time></trkpt><trkpt lat="44.2182119" lon="10.4645858"><ele>1345.0</ele><time>2026-04-18T09:29:24Z</time></trkpt><trkpt lat="44.2181426" lon="10.464595"><ele>1345.0</ele><time>2026-04-18T09:29:26Z</time></trkpt><trkpt lat="44.2180792" lon="10.4645834"><ele>1345.0</ele><time>2026-04-18T09:29:27.949Z</time></trkpt><trkpt lat="44.2180151" lon="10.4645623"><ele>1345.0</ele><time>2026-04-18T09:29:29.965Z</time></trkpt><trkpt lat="44.2179466" lon="10.464548"><ele>1345.0</ele><time>2026-04-18T09:29:32Z</time></trkpt><trkpt lat="44.2178752" lon="10.4645396"><ele>1345.0</ele><time>2026-04-18T09:29:34.003Z</time></trkpt><trkpt lat="44.2178072" lon="10.4645088"><ele>1343.0</ele><time>2026-04-18T09:29:36Z</time></trkpt><trkpt lat="44.2177454" lon="10.4644692"><ele>1341.0</ele><time>2026-04-18T09:29:37.909Z</time></trkpt><trkpt lat="44.2176825" lon="10.4644287"><ele>1339.0</ele><time>2026-04-18T09:29:40Z</time></trkpt><trkpt lat="44.217626" lon="10.464386"><ele>1337.0</ele><time>2026-04-18T09:29:42Z</time></trkpt><trkpt lat="44.2175729" lon="10.4643331"><ele>1335.0</ele><time>2026-04-18T09:29:44Z</time></trkpt><trkpt lat="44.2174882" lon="10.464267"><ele>1333.0</ele><time>2026-04-18T09:29:47Z</time></trkpt><trkpt lat="44.2174245" lon="10.4642259"><ele>1331.0</ele><time>2026-04-18T09:29:48.999Z</time></trkpt><trkpt lat="44.2173649" lon="10.464184"><ele>1334.4285714285716</ele><time>2026-04-18T09:29:51Z</time></trkpt><trkpt lat="44.2173067" lon="10.4641458"><ele>1337.857142857143</ele><time>2026-04-18T09:29:53Z</time></trkpt><trkpt lat="44.2172221" lon="10.4640841"><ele>1341.2857142857142</ele><time>2026-04-18T09:29:56Z</time></trkpt><trkpt lat="44.2171632" lon="10.4640443"><ele>1344.7142857142858</ele><time>2026-04-18T09:29:58Z</time></trkpt><trkpt lat="44.2171035" lon="10.4639988"><ele>1348.142857142857</ele><time>2026-04-18T09:30:00Z</time></trkpt><trkpt lat="44.2170491" lon="10.463949"><ele>1351.5714285714287</ele><time>2026-04-18T09:30:02Z</time></trkpt><trkpt lat="44.2170012" lon="10.4638864"><ele>1355.0</ele><time>2026-04-18T09:30:04Z</time></trkpt><trkpt lat="44.2169517" lon="10.463823"><ele>1349.3333333333335</ele><time>2026-04-18T09:30:06Z</time></trkpt><trkpt lat="44.2169022" lon="10.4637656"><ele>1343.6666666666667</ele><time>2026-04-18T09:30:08Z</time></trkpt><trkpt lat="44.2168348" lon="10.4636933"><ele>1338.0</ele><time>2026-04-18T09:30:11Z</time></trkpt><trkpt lat="44.2167589" lon="10.4636395"><ele>1332.3333333333333</ele><time>2026-04-18T09:30:14Z</time></trkpt><trkpt lat="44.2166727" lon="10.4636157"><ele>1326.6666666666665</ele><time>2026-04-18T09:30:17Z</time></trkpt><trkpt lat="44.2165826" lon="10.4636328"><ele>1321.0</ele><time>2026-04-18T09:30:20Z</time></trkpt><trkpt lat="44.216491" lon="10.4636659"><ele>1322.3333333333333</ele><time>2026-04-18T09:30:23Z</time></trkpt><trkpt lat="44.2164053" lon="10.4637072"><ele>1323.6666666666665</ele><time>2026-04-18T09:30:26Z</time></trkpt><trkpt lat="44.2163443" lon="10.4637307"><ele>1325.0</ele><time>2026-04-18T09:30:28Z</time></trkpt><trkpt lat="44.2162543" lon="10.4637631"><ele>1326.3333333333333</ele><time>2026-04-18T09:30:31Z</time></trkpt><trkpt lat="44.2161889" lon="10.4637854"><ele>1327.6666666666667</ele><time>2026-04-18T09:30:33Z</time></trkpt><trkpt lat="44.2160979" lon="10.4638056"><ele>1329.0</ele><time>2026-04-18T09:30:36Z</time></trkpt><trkpt lat="44.2160041" lon="10.4638051"><ele>1329.0</ele><time>2026-04-18T09:30:39Z</time></trkpt><trkpt lat="44.2159136" lon="10.463775"><ele>1329.0</ele><time>2026-04-18T09:30:42Z</time></trkpt><trkpt lat="44.2158502" lon="10.4637497"><ele>1329.0</ele><time>2026-04-18T09:30:44Z</time></trkpt><trkpt lat="44.2157808" lon="10.4637348"><ele>1329.0</ele><time>2026-04-18T09:30:46Z</time></trkpt><trkpt lat="44.2157178" lon="10.4637255"><ele>1329.0</ele><time>2026-04-18T09:30:48Z</time></trkpt><trkpt lat="44.2156514" lon="10.4637138"><ele>1329.0</ele><time>2026-04-18T09:30:50Z</time></trkpt><trkpt lat="44.2155853" lon="10.4637133"><ele>1329.0</ele><time>2026-04-18T09:30:52Z</time></trkpt><trkpt lat="44.2155214" lon="10.4637035"><ele>1331.3333333333333</ele><time>2026-04-18T09:30:54Z</time></trkpt><trkpt lat="44.2154263" lon="10.4636847"><ele>1333.6666666666667</ele><time>2026-04-18T09:30:57Z</time></trkpt><trkpt lat="44.2153609" lon="10.463662"><ele>1336.0</ele><time>2026-04-18T09:30:59Z</time></trkpt><trkpt lat="44.2152992" lon="10.4636348"><ele>1338.3333333333335</ele><time>2026-04-18T09:31:01Z</time></trkpt><trkpt lat="44.215215" lon="10.4635884"><ele>1340.6666666666667</ele><time>2026-04-18T09:31:04Z</time></trkpt><trkpt lat="44.215128" lon="10.4635411"><ele>1343.0</ele><time>2026-04-18T09:31:07Z</time></trkpt><trkpt lat="44.21504" lon="10.4634993"><ele>1343.0</ele><time>2026-04-18T09:31:10Z</time></trkpt><trkpt lat="44.2149495" lon="10.4634467"><ele>1343.0</ele><time>2026-04-18T09:31:13Z</time></trkpt><trkpt lat="44.2148895" lon="10.4634091"><ele>1343.0</ele><time>2026-04-18T09:31:15Z</time></trkpt><trkpt lat="44.2148027" lon="10.4633648"><ele>1343.0</ele><time>2026-04-18T09:31:18Z</time></trkpt><trkpt lat="44.2147448" lon="10.4633288"><ele>1343.0</ele><time>2026-04-18T09:31:20Z</time></trkpt><trkpt lat="44.2146619" lon="10.4632759"><ele>1343.0</ele><time>2026-04-18T09:31:23Z</time></trkpt><trkpt lat="44.2146052" lon="10.463236"><ele>1340.5</ele><time>2026-04-18T09:31:25Z</time></trkpt><trkpt lat="44.2145253" lon="10.4631641"><ele>1338.0</ele><time>2026-04-18T09:31:28Z</time></trkpt><trkpt lat="44.2144426" lon="10.4630961"><ele>1335.5</ele><time>2026-04-18T09:31:31Z</time></trkpt><trkpt lat="44.2143866" lon="10.463047"><ele>1333.0</ele><time>2026-04-18T09:31:33Z</time></trkpt><trkpt lat="44.2143314" lon="10.4630026"><ele>1330.5</ele><time>2026-04-18T09:31:35Z</time></trkpt><trkpt lat="44.2142676" lon="10.4629522"><ele>1328.0</ele><time>2026-04-18T09:31:37Z</time></trkpt><trkpt lat="44.2141826" lon="10.4629012"><ele>1328.0</ele><time>2026-04-18T09:31:40Z</time></trkpt><trkpt lat="44.2140931" lon="10.4628813"><ele>1328.0</ele><time>2026-04-18T09:31:43Z</time></trkpt><trkpt lat="44.213998" lon="10.4628776"><ele>1328.0</ele><time>2026-04-18T09:31:46Z</time></trkpt><trkpt lat="44.2139307" lon="10.4628783"><ele>1328.0</ele><time>2026-04-18T09:31:48.004Z</time></trkpt><trkpt lat="44.2138375" lon="10.4628849"><ele>1328.0</ele><time>2026-04-18T09:31:51Z</time></trkpt><trkpt lat="44.2137467" lon="10.4629136"><ele>1328.0</ele><time>2026-04-18T09:31:54Z</time></trkpt><trkpt lat="44.2136839" lon="10.4629435"><ele>1331.3333333333335</ele><time>2026-04-18T09:31:56Z</time></trkpt><trkpt lat="44.2135997" lon="10.4630017"><ele>1334.6666666666667</ele><time>2026-04-18T09:31:59Z</time></trkpt><trkpt lat="44.2135202" lon="10.4630503"><ele>1338.0</ele><time>2026-04-18T09:32:02Z</time></trkpt><trkpt lat="44.2134668" lon="10.4631276"><ele>1341.3333333333333</ele><time>2026-04-18T09:32:05Z</time></trkpt><trkpt lat="44.2134129" lon="10.4632287"><ele>1344.6666666666665</ele><time>2026-04-18T09:32:08Z</time></trkpt><trkpt lat="44.2133758" lon="10.4633403"><ele>1348.0</ele><time>2026-04-18T09:32:11Z</time></trkpt><trkpt lat="44.2133629" lon="10.4634529"><ele>1348.0000000000002</ele><time>2026-04-18T09:32:14Z</time></trkpt><trkpt lat="44.2133608" lon="10.4635706"><ele>1348.0</ele><time>2026-04-18T09:32:17Z</time></trkpt><trkpt lat="44.2133687" lon="10.4636581"><ele>1348.0</ele><time>2026-04-18T09:32:19Z</time></trkpt><trkpt lat="44.2133957" lon="10.4637761"><ele>1348.0</ele><time>2026-04-18T09:32:22Z</time></trkpt><trkpt lat="44.2134201" lon="10.4638612"><ele>1348.0</ele><time>2026-04-18T09:32:24Z</time></trkpt><trkpt lat="44.2134437" lon="10.4639527"><ele>1348.0000000000002</ele><time>2026-04-18T09:32:26Z</time></trkpt><trkpt lat="44.2134806" lon="10.464033"><ele>1348.0</ele><time>2026-04-18T09:32:28Z</time></trkpt><trkpt lat="44.2135256" lon="10.4640984"><ele>1348.2857142857144</ele><time>2026-04-18T09:32:30Z</time></trkpt><trkpt lat="44.2135755" lon="10.4641521"><ele>1348.5714285714287</ele><time>2026-04-18T09:32:32Z</time></trkpt><trkpt lat="44.2136261" lon="10.4642069"><ele>1348.857142857143</ele><time>2026-04-18T09:32:34Z</time></trkpt><trkpt lat="44.2136976" lon="10.4642788"><ele>1349.1428571428573</ele><time>2026-04-18T09:32:36.999Z</time></trkpt><trkpt lat="44.2137515" lon="10.464332"><ele>1349.4285714285716</ele><time>2026-04-18T09:32:39Z</time></trkpt><trkpt lat="44.2138011" lon="10.4643911"><ele>1349.7142857142858</ele><time>2026-04-18T09:32:41Z</time></trkpt><trkpt lat="44.2138534" lon="10.4644478"><ele>1350.0</ele><time>2026-04-18T09:32:43Z</time></trkpt><trkpt lat="44.2139053" lon="10.4645046"><ele>1350.0</ele><time>2026-04-18T09:32:45Z</time></trkpt><trkpt lat="44.213959" lon="10.4645536"><ele>1350.0</ele><time>2026-04-18T09:32:47Z</time></trkpt><trkpt lat="44.2140378" lon="10.4646241"><ele>1350.0</ele><time>2026-04-18T09:32:50Z</time></trkpt><trkpt lat="44.2141121" lon="10.4647035"><ele>1350.0</ele><time>2026-04-18T09:32:53Z</time></trkpt><trkpt lat="44.2141572" lon="10.4647682"><ele>1350.0</ele><time>2026-04-18T09:32:55Z</time></trkpt><trkpt lat="44.2141928" lon="10.4648427"><ele>1350.0</ele><time>2026-04-18T09:32:57Z</time></trkpt><trkpt lat="44.2142306" lon="10.4649171"><ele>1350.0</ele><time>2026-04-18T09:32:59Z</time></trkpt><trkpt lat="44.2142675" lon="10.4649967"><ele>1349.142857142857</ele><time>2026-04-18T09:33:01Z</time></trkpt><trkpt lat="44.2143006" lon="10.4650724"><ele>1348.2857142857142</ele><time>2026-04-18T09:33:03Z</time></trkpt><trkpt lat="44.2143371" lon="10.4651448"><ele>1347.4285714285716</ele><time>2026-04-18T09:33:05Z</time></trkpt><trkpt lat="44.2143791" lon="10.4652157"><ele>1346.5714285714284</ele><time>2026-04-18T09:33:07Z</time></trkpt><trkpt lat="44.2144253" lon="10.4652829"><ele>1345.7142857142858</ele><time>2026-04-18T09:33:09Z</time></trkpt><trkpt lat="44.2144731" lon="10.4653496"><ele>1344.857142857143</ele><time>2026-04-18T09:33:11Z</time></trkpt><trkpt lat="44.2145215" lon="10.4654141"><ele>1344.0</ele><time>2026-04-18T09:33:13Z</time></trkpt><trkpt lat="44.2145712" lon="10.465476"><ele>1344.0</ele><time>2026-04-18T09:33:15Z</time></trkpt><trkpt lat="44.2146192" lon="10.4655388"><ele>1344.0</ele><time>2026-04-18T09:33:16.999Z</time></trkpt><trkpt lat="44.2146685" lon="10.4655947"><ele>1344.0</ele><time>2026-04-18T09:33:19Z</time></trkpt><trkpt lat="44.2147359" lon="10.4656745"><ele>1344.0</ele><time>2026-04-18T09:33:22Z</time></trkpt><trkpt lat="44.2147854" lon="10.4657339"><ele>1344.0</ele><time>2026-04-18T09:33:24Z</time></trkpt><trkpt lat="44.2148332" lon="10.4658381"><ele>1344.0</ele><time>2026-04-18T09:33:27Z</time></trkpt><trkpt lat="44.2148568" lon="10.4659199"><ele>1344.0</ele><time>2026-04-18T09:33:29Z</time></trkpt><trkpt lat="44.2148811" lon="10.4660103"><ele>1349.5</ele><time>2026-04-18T09:33:31Z</time></trkpt><trkpt lat="44.2149004" lon="10.4660969"><ele>1355.0</ele><time>2026-04-18T09:33:33Z</time></trkpt><trkpt lat="44.2149252" lon="10.4662148"><ele>1360.5</ele><time>2026-04-18T09:33:36Z</time></trkpt><trkpt lat="44.2149429" lon="10.4663024"><ele>1366.0</ele><time>2026-04-18T09:33:38Z</time></trkpt><trkpt lat="44.2149632" lon="10.4664159"><ele>1371.5</ele><time>2026-04-18T09:33:41Z</time></trkpt><trkpt lat="44.2149805" lon="10.4665383"><ele>1377.0</ele><time>2026-04-18T09:33:44Z</time></trkpt><trkpt lat="44.2149824" lon="10.4666374"><ele>1377.0</ele><time>2026-04-18T09:33:47Z</time></trkpt><trkpt lat="44.214943" lon="10.4667373"><ele>1377.0</ele><time>2026-04-18T09:33:50Z</time></trkpt><trkpt lat="44.214899" lon="10.4668005"><ele>1377.0</ele><time>2026-04-18T09:33:52Z</time></trkpt><trkpt lat="44.2148359" lon="10.4668725"><ele>1377.0</ele><time>2026-04-18T09:33:54Z</time></trkpt><trkpt lat="44.2147685" lon="10.4669345"><ele>1377.0</ele><time>2026-04-18T09:33:56Z</time></trkpt><trkpt lat="44.2147051" lon="10.4669967"><ele>1377.0</ele><time>2026-04-18T09:33:58Z</time></trkpt><trkpt lat="44.2146418" lon="10.4670431"><ele>1375.0</ele><time>2026-04-18T09:34:00Z</time></trkpt><trkpt lat="44.2145844" lon="10.4670896"><ele>1373.0</ele><time>2026-04-18T09:34:02Z</time></trkpt><trkpt lat="44.2145298" lon="10.4671503"><ele>1371.0</ele><time>2026-04-18T09:34:04Z</time></trkpt><trkpt lat="44.2144771" lon="10.4672074"><ele>1369.0</ele><time>2026-04-18T09:34:06Z</time></trkpt><trkpt lat="44.2144208" lon="10.4672656"><ele>1367.0</ele><time>2026-04-18T09:34:08Z</time></trkpt><trkpt lat="44.2143735" lon="10.4673359"><ele>1365.0</ele><time>2026-04-18T09:34:10Z</time></trkpt><trkpt lat="44.2143358" lon="10.4674153"><ele>1363.0</ele><time>2026-04-18T09:34:12Z</time></trkpt><trkpt lat="44.2143018" lon="10.4675355"><ele>1363.0</ele><time>2026-04-18T09:34:15Z</time></trkpt><trkpt lat="44.2142793" lon="10.4676231"><ele>1363.0</ele><time>2026-04-18T09:34:17Z</time></trkpt><trkpt lat="44.2142573" lon="10.4677065"><ele>1363.0</ele><time>2026-04-18T09:34:19Z</time></trkpt><trkpt lat="44.214239" lon="10.4677965"><ele>1363.0</ele><time>2026-04-18T09:34:21Z</time></trkpt><trkpt lat="44.2142164" lon="10.467884"><ele>1363.0</ele><time>2026-04-18T09:34:23Z</time></trkpt><trkpt lat="44.2141949" lon="10.4679801"><ele>1363.0</ele><time>2026-04-18T09:34:25Z</time></trkpt><trkpt lat="44.214166" lon="10.4680685"><ele>1363.0</ele><time>2026-04-18T09:34:27Z</time></trkpt><trkpt lat="44.2141306" lon="10.4681473"><ele>1362.2857142857142</ele><time>2026-04-18T09:34:29Z</time></trkpt><trkpt lat="44.2140927" lon="10.4682286"><ele>1361.5714285714287</ele><time>2026-04-18T09:34:31Z</time></trkpt><trkpt lat="44.2140507" lon="10.4683015"><ele>1360.857142857143</ele><time>2026-04-18T09:34:33Z</time></trkpt><trkpt lat="44.2140157" lon="10.4683753"><ele>1360.142857142857</ele><time>2026-04-18T09:34:35Z</time></trkpt><trkpt lat="44.2139853" lon="10.468453"><ele>1359.4285714285716</ele><time>2026-04-18T09:34:37Z</time></trkpt><trkpt lat="44.2139437" lon="10.4685702"><ele>1358.7142857142858</ele><time>2026-04-18T09:34:40Z</time></trkpt><trkpt lat="44.2139225" lon="10.4686561"><ele>1358.0</ele><time>2026-04-18T09:34:42Z</time></trkpt><trkpt lat="44.2138996" lon="10.4687767"><ele>1358.0</ele><time>2026-04-18T09:34:45Z</time></trkpt><trkpt lat="44.2138762" lon="10.4688902"><ele>1358.0</ele><time>2026-04-18T09:34:47.999Z</time></trkpt><trkpt lat="44.2138732" lon="10.4689968"><ele>1358.0</ele><time>2026-04-18T09:34:52Z</time></trkpt><trkpt lat="44.2138529" lon="10.4691154"><ele>1358.0</ele><time>2026-04-18T09:34:55Z</time></trkpt><trkpt lat="44.2138467" lon="10.4692358"><ele>1358.0</ele><time>2026-04-18T09:34:58Z</time></trkpt><trkpt lat="44.213843" lon="10.4693387"><ele>1358.0</ele><time>2026-04-18T09:35:01Z</time></trkpt><trkpt lat="44.2138282" lon="10.4694584"><ele>1358.0</ele><time>2026-04-18T09:35:04Z</time></trkpt><trkpt lat="44.2138195" lon="10.4695832"><ele>1358.0</ele><time>2026-04-18T09:35:07Z</time></trkpt><trkpt lat="44.2138108" lon="10.469699"><ele>1358.0</ele><time>2026-04-18T09:35:10Z</time></trkpt><trkpt lat="44.213801" lon="10.4698206"><ele>1358.0</ele><time>2026-04-18T09:35:13Z</time></trkpt><trkpt lat="44.2137888" lon="10.4699438"><ele>1358.0</ele><time>2026-04-18T09:35:16Z</time></trkpt><trkpt lat="44.2137778" lon="10.470071"><ele>1358.0</ele><time>2026-04-18T09:35:19Z</time></trkpt><trkpt lat="44.2137694" lon="10.4701907"><ele>1358.3333333333335</ele><time>2026-04-18T09:35:22Z</time></trkpt><trkpt lat="44.2137586" lon="10.4703141"><ele>1358.6666666666667</ele><time>2026-04-18T09:35:25Z</time></trkpt><trkpt lat="44.2137507" lon="10.4704019"><ele>1359.0</ele><time>2026-04-18T09:35:27Z</time></trkpt><trkpt lat="44.2137405" lon="10.4704937"><ele>1359.3333333333333</ele><time>2026-04-18T09:35:29Z</time></trkpt><trkpt lat="44.2137363" lon="10.4705814"><ele>1359.6666666666665</ele><time>2026-04-18T09:35:31Z</time></trkpt><trkpt lat="44.2137329" lon="10.4707142"><ele>1360.0</ele><time>2026-04-18T09:35:34Z</time></trkpt><trkpt lat="44.213735" lon="10.4708436"><ele>1359.8333333333333</ele><time>2026-04-18T09:35:37Z</time></trkpt><trkpt lat="44.2137397" lon="10.4709737"><ele>1359.6666666666665</ele><time>2026-04-18T09:35:40Z</time></trkpt><trkpt lat="44.213743" lon="10.4711052"><ele>1359.5</ele><time>2026-04-18T09:35:43Z</time></trkpt><trkpt lat="44.2137453" lon="10.4711933"><ele>1359.3333333333333</ele><time>2026-04-18T09:35:45Z</time></trkpt><trkpt lat="44.2137481" lon="10.471283"><ele>1359.1666666666667</ele><time>2026-04-18T09:35:47Z</time></trkpt><trkpt lat="44.2137508" lon="10.4714098"><ele>1359.0</ele><time>2026-04-18T09:35:50Z</time></trkpt><trkpt lat="44.2137525" lon="10.4715411"><ele>1359.0</ele><time>2026-04-18T09:35:53Z</time></trkpt><trkpt lat="44.2137666" lon="10.4716311"><ele>1359.0</ele><time>2026-04-18T09:35:55Z</time></trkpt><trkpt lat="44.2137907" lon="10.4717147"><ele>1359.0</ele><time>2026-04-18T09:35:57Z</time></trkpt><trkpt lat="44.2138315" lon="10.4717836"><ele>1359.0</ele><time>2026-04-18T09:35:59Z</time></trkpt><trkpt lat="44.2138835" lon="10.4718374"><ele>1359.0</ele><time>2026-04-18T09:36:01Z</time></trkpt><trkpt lat="44.2139467" lon="10.4718696"><ele>1359.0</ele><time>2026-04-18T09:36:03Z</time></trkpt><trkpt lat="44.2140373" lon="10.4718992"><ele>1359.0</ele><time>2026-04-18T09:36:06Z</time></trkpt><trkpt lat="44.2141029" lon="10.4719033"><ele>1365.8333333333333</ele><time>2026-04-18T09:36:08Z</time></trkpt><trkpt lat="44.2141951" lon="10.471899"><ele>1372.6666666666667</ele><time>2026-04-18T09:36:11Z</time></trkpt><trkpt lat="44.2142784" lon="10.4719092"><ele>1379.5</ele><time>2026-04-18T09:36:14Z</time></trkpt><trkpt lat="44.2143432" lon="10.4719255"><ele>1386.3333333333335</ele><time>2026-04-18T09:36:16Z</time></trkpt><trkpt lat="44.2144331" lon="10.4719677"><ele>1393.1666666666667</ele><time>2026-04-18T09:36:19Z</time></trkpt><trkpt lat="44.214502" lon="10.4719922"><ele>1400.0</ele><time>2026-04-18T09:36:21Z</time></trkpt><trkpt lat="44.2145662" lon="10.4720159"><ele>1400.0</ele><time>2026-04-18T09:36:23Z</time></trkpt><trkpt lat="44.2146591" lon="10.4720472"><ele>1400.0</ele><time>2026-04-18T09:36:26Z</time></trkpt><trkpt lat="44.2147413" lon="10.4720588"><ele>1400.0</ele><time>2026-04-18T09:36:29Z</time></trkpt><trkpt lat="44.2148112" lon="10.4720673"><ele>1400.0</ele><time>2026-04-18T09:36:31Z</time></trkpt><trkpt lat="44.2148882" lon="10.4720826"><ele>1400.0</ele><time>2026-04-18T09:36:33Z</time></trkpt><trkpt lat="44.214962" lon="10.4721171"><ele>1400.0</ele><time>2026-04-18T09:36:35Z</time></trkpt><trkpt lat="44.2150257" lon="10.4721763"><ele>1399.8333333333335</ele><time>2026-04-18T09:36:37Z</time></trkpt><trkpt lat="44.2150803" lon="10.4722614"><ele>1399.6666666666667</ele><time>2026-04-18T09:36:39Z</time></trkpt><trkpt lat="44.2151192" lon="10.4723585"><ele>1399.5</ele><time>2026-04-18T09:36:41Z</time></trkpt><trkpt lat="44.2151571" lon="10.4724398"><ele>1399.3333333333333</ele><time>2026-04-18T09:36:43Z</time></trkpt><trkpt lat="44.2151953" lon="10.472534"><ele>1399.1666666666665</ele><time>2026-04-18T09:36:45Z</time></trkpt><trkpt lat="44.2152359" lon="10.4726287"><ele>1399.0</ele><time>2026-04-18T09:36:47Z</time></trkpt><trkpt lat="44.2152801" lon="10.4727142"><ele>1399.0</ele><time>2026-04-18T09:36:49Z</time></trkpt><trkpt lat="44.2153359" lon="10.472781"><ele>1399.0</ele><time>2026-04-18T09:36:51Z</time></trkpt><trkpt lat="44.2153942" lon="10.4728265"><ele>1399.0</ele><time>2026-04-18T09:36:53Z</time></trkpt><trkpt lat="44.2154568" lon="10.4728678"><ele>1399.0</ele><time>2026-04-18T09:36:55Z</time></trkpt><trkpt lat="44.2155158" lon="10.4729122"><ele>1399.0</ele><time>2026-04-18T09:36:57Z</time></trkpt><trkpt lat="44.2155699" lon="10.4729764"><ele>1399.0</ele><time>2026-04-18T09:36:59Z</time></trkpt><trkpt lat="44.2155939" lon="10.4730709"><ele>1399.0</ele><time>2026-04-18T09:37:01Z</time></trkpt><trkpt lat="44.2155906" lon="10.4731745"><ele>1398.4285714285713</ele><time>2026-04-18T09:37:03Z</time></trkpt><trkpt lat="44.2155815" lon="10.4732679"><ele>1397.857142857143</ele><time>2026-04-18T09:37:04.999Z</time></trkpt><trkpt lat="44.2155651" lon="10.4733705"><ele>1397.2857142857142</ele><time>2026-04-18T09:37:07Z</time></trkpt><trkpt lat="44.2155547" lon="10.4734699"><ele>1396.7142857142858</ele><time>2026-04-18T09:37:09Z</time></trkpt><trkpt lat="44.2155465" lon="10.4735675"><ele>1396.142857142857</ele><time>2026-04-18T09:37:11Z</time></trkpt><trkpt lat="44.215536" lon="10.4736705"><ele>1395.5714285714287</ele><time>2026-04-18T09:37:13Z</time></trkpt><trkpt lat="44.2155228" lon="10.4737786"><ele>1395.0</ele><time>2026-04-18T09:37:15Z</time></trkpt><trkpt lat="44.2155062" lon="10.4738815"><ele>1395.0</ele><time>2026-04-18T09:37:17Z</time></trkpt><trkpt lat="44.2154804" lon="10.4739799"><ele>1395.0</ele><time>2026-04-18T09:37:19Z</time></trkpt><trkpt lat="44.2154438" lon="10.474074"><ele>1395.0</ele><time>2026-04-18T09:37:21Z</time></trkpt><trkpt lat="44.2153983" lon="10.4741585"><ele>1395.0</ele><time>2026-04-18T09:37:23Z</time></trkpt><trkpt lat="44.2153525" lon="10.474232"><ele>1395.0</ele><time>2026-04-18T09:37:24.999Z</time></trkpt><trkpt lat="44.2153036" lon="10.474302"><ele>1395.0</ele><time>2026-04-18T09:37:27Z</time></trkpt><trkpt lat="44.2152537" lon="10.4743704"><ele>1395.0</ele><time>2026-04-18T09:37:29Z</time></trkpt><trkpt lat="44.2152016" lon="10.4744365"><ele>1395.0</ele><time>2026-04-18T09:37:31Z</time></trkpt><trkpt lat="44.2151555" lon="10.4745039"><ele>1395.0</ele><time>2026-04-18T09:37:33Z</time></trkpt><trkpt lat="44.215105" lon="10.4745659"><ele>1395.0</ele><time>2026-04-18T09:37:35Z</time></trkpt><trkpt lat="44.2150519" lon="10.4746261"><ele>1395.0</ele><time>2026-04-18T09:37:37Z</time></trkpt><trkpt lat="44.2149915" lon="10.4746935"><ele>1395.0</ele><time>2026-04-18T09:37:39Z</time></trkpt><trkpt lat="44.2149219" lon="10.474746"><ele>1395.0</ele><time>2026-04-18T09:37:41Z</time></trkpt><trkpt lat="44.2148585" lon="10.4747874"><ele>1395.0</ele><time>2026-04-18T09:37:43Z</time></trkpt><trkpt lat="44.2147947" lon="10.474816"><ele>1394.857142857143</ele><time>2026-04-18T09:37:45Z</time></trkpt><trkpt lat="44.2147411" lon="10.4748685"><ele>1394.7142857142856</ele><time>2026-04-18T09:37:47Z</time></trkpt><trkpt lat="44.2147096" lon="10.4749606"><ele>1394.5714285714284</ele><time>2026-04-18T09:37:49Z</time></trkpt><trkpt lat="44.2147077" lon="10.4750625"><ele>1394.4285714285716</ele><time>2026-04-18T09:37:51Z</time></trkpt><trkpt lat="44.2147195" lon="10.4751656"><ele>1394.2857142857142</ele><time>2026-04-18T09:37:53Z</time></trkpt><trkpt lat="44.2147379" lon="10.4752613"><ele>1394.142857142857</ele><time>2026-04-18T09:37:55Z</time></trkpt><trkpt lat="44.2147559" lon="10.4753596"><ele>1394.0</ele><time>2026-04-18T09:37:57Z</time></trkpt><trkpt lat="44.2147761" lon="10.4754515"><ele>1394.0</ele><time>2026-04-18T09:37:59Z</time></trkpt><trkpt lat="44.2147906" lon="10.475538"><ele>1394.0</ele><time>2026-04-18T09:38:01Z</time></trkpt><trkpt lat="44.214812" lon="10.4756554"><ele>1394.0</ele><time>2026-04-18T09:38:04Z</time></trkpt><trkpt lat="44.2148388" lon="10.4757806"><ele>1394.0</ele><time>2026-04-18T09:38:07Z</time></trkpt><trkpt lat="44.2148585" lon="10.4758644"><ele>1394.0</ele><time>2026-04-18T09:38:09Z</time></trkpt><trkpt lat="44.2148852" lon="10.475987"><ele>1394.0</ele><time>2026-04-18T09:38:12Z</time></trkpt><trkpt lat="44.2149076" lon="10.4761073"><ele>1396.0</ele><time>2026-04-18T09:38:15Z</time></trkpt><trkpt lat="44.2149327" lon="10.476221"><ele>1398.0</ele><time>2026-04-18T09:38:18Z</time></trkpt><trkpt lat="44.2149753" lon="10.4763332"><ele>1400.0</ele><time>2026-04-18T09:38:21Z</time></trkpt><trkpt lat="44.2150157" lon="10.476403"><ele>1402.0</ele><time>2026-04-18T09:38:23Z</time></trkpt><trkpt lat="44.2150817" lon="10.4764824"><ele>1404.0</ele><time>2026-04-18T09:38:26Z</time></trkpt><trkpt lat="44.2151582" lon="10.4765509"><ele>1406.0</ele><time>2026-04-18T09:38:28.999Z</time></trkpt><trkpt lat="44.2152296" lon="10.4766036"><ele>1406.0</ele><time>2026-04-18T09:38:32Z</time></trkpt><trkpt lat="44.2153005" lon="10.4766612"><ele>1406.0</ele><time>2026-04-18T09:38:35Z</time></trkpt><trkpt lat="44.2153774" lon="10.4767106"><ele>1406.0</ele><time>2026-04-18T09:38:38Z</time></trkpt><trkpt lat="44.2154572" lon="10.4767717"><ele>1406.0</ele><time>2026-04-18T09:38:41Z</time></trkpt><trkpt lat="44.2155049" lon="10.4768771"><ele>1406.0</ele><time>2026-04-18T09:38:44Z</time></trkpt><trkpt lat="44.2155134" lon="10.4769696"><ele>1406.0</ele><time>2026-04-18T09:38:46Z</time></trkpt><trkpt lat="44.2155149" lon="10.4770594"><ele>1406.0</ele><time>2026-04-18T09:38:48Z</time></trkpt><trkpt lat="44.2155066" lon="10.4771532"><ele>1406.0</ele><time>2026-04-18T09:38:50Z</time></trkpt><trkpt lat="44.2155041" lon="10.4772823"><ele>1406.0</ele><time>2026-04-18T09:38:53Z</time></trkpt><trkpt lat="44.2155007" lon="10.4774015"><ele>1406.0</ele><time>2026-04-18T09:38:56Z</time></trkpt><trkpt lat="44.215504" lon="10.4775142"><ele>1406.0</ele><time>2026-04-18T09:38:59Z</time></trkpt><trkpt lat="44.2155116" lon="10.4776296"><ele>1406.0</ele><time>2026-04-18T09:39:02Z</time></trkpt><trkpt lat="44.2155117" lon="10.4777448"><ele>1406.0</ele><time>2026-04-18T09:39:05Z</time></trkpt><trkpt lat="44.2155213" lon="10.4778603"><ele>1406.0</ele><time>2026-04-18T09:39:08Z</time></trkpt><trkpt lat="44.2155284" lon="10.4779884"><ele>1406.0</ele><time>2026-04-18T09:39:11Z</time></trkpt><trkpt lat="44.2155324" lon="10.4780762"><ele>1406.0</ele><time>2026-04-18T09:39:13Z</time></trkpt><trkpt lat="44.2155334" lon="10.478204"><ele>1406.0</ele><time>2026-04-18T09:39:16Z</time></trkpt><trkpt lat="44.215536" lon="10.4783086"><ele>1406.0</ele><time>2026-04-18T09:39:19Z</time></trkpt><trkpt lat="44.2155544" lon="10.4783992"><ele>1407.4285714285713</ele><time>2026-04-18T09:39:22Z</time></trkpt><trkpt lat="44.215556" lon="10.4784907"><ele>1408.857142857143</ele><time>2026-04-18T09:39:25Z</time></trkpt><trkpt lat="44.2155611" lon="10.4785861"><ele>1410.2857142857142</ele><time>2026-04-18T09:39:27.999Z</time></trkpt><trkpt lat="44.2155565" lon="10.4786739"><ele>1411.7142857142858</ele><time>2026-04-18T09:39:31Z</time></trkpt><trkpt lat="44.2155395" lon="10.4787611"><ele>1413.142857142857</ele><time>2026-04-18T09:39:34Z</time></trkpt><trkpt lat="44.2154878" lon="10.4788245"><ele>1414.5714285714287</ele><time>2026-04-18T09:39:37Z</time></trkpt><trkpt lat="44.2154256" lon="10.4788603"><ele>1416.0</ele><time>2026-04-18T09:39:40Z</time></trkpt><trkpt lat="44.2153595" lon="10.4788649"><ele>1416.0</ele><time>2026-04-18T09:39:43Z</time></trkpt><trkpt lat="44.2152944" lon="10.4788491"><ele>1416.0</ele><time>2026-04-18T09:39:45.999Z</time></trkpt><trkpt lat="44.215233" lon="10.4788131"><ele>1416.0</ele><time>2026-04-18T09:39:49Z</time></trkpt><trkpt lat="44.215174" lon="10.4787693"><ele>1416.0</ele><time>2026-04-18T09:39:52Z</time></trkpt><trkpt lat="44.2151079" lon="10.4787392"><ele>1416.0</ele><time>2026-04-18T09:39:55Z</time></trkpt><trkpt lat="44.2150324" lon="10.4787305"><ele>1416.0</ele><time>2026-04-18T09:39:58Z</time></trkpt><trkpt lat="44.2149614" lon="10.4787306"><ele>1416.0</ele><time>2026-04-18T09:40:01Z</time></trkpt><trkpt lat="44.2148975" lon="10.478743"><ele>1421.0</ele><time>2026-04-18T09:40:04Z</time></trkpt><trkpt lat="44.2148178" lon="10.4787736"><ele>1426.0</ele><time>2026-04-18T09:40:08Z</time></trkpt><trkpt lat="44.2147474" lon="10.4787999"><ele>1431.0</ele><time>2026-04-18T09:40:11Z</time></trkpt><trkpt lat="44.2146769" lon="10.4788298"><ele>1436.0</ele><time>2026-04-18T09:40:14Z</time></trkpt><trkpt lat="44.2146087" lon="10.4788535"><ele>1441.0</ele><time>2026-04-18T09:40:17Z</time></trkpt><trkpt lat="44.2145443" lon="10.4788749"><ele>1446.0</ele><time>2026-04-18T09:40:20Z</time></trkpt><trkpt lat="44.2144804" lon="10.4788982"><ele>1451.0</ele><time>2026-04-18T09:40:23Z</time></trkpt><trkpt lat="44.2144005" lon="10.4789399"><ele>1451.0</ele><time>2026-04-18T09:40:26Z</time></trkpt><trkpt lat="44.2143302" lon="10.4789533"><ele>1451.0</ele><time>2026-04-18T09:40:29Z</time></trkpt><trkpt lat="44.214256" lon="10.4789636"><ele>1451.0</ele><time>2026-04-18T09:40:32Z</time></trkpt><trkpt lat="44.2141808" lon="10.4789707"><ele>1451.0</ele><time>2026-04-18T09:40:35Z</time></trkpt><trkpt lat="44.2141019" lon="10.4789767"><ele>1451.0</ele><time>2026-04-18T09:40:38Z</time></trkpt><trkpt lat="44.2140274" lon="10.4789763"><ele>1451.0</ele><time>2026-04-18T09:40:41Z</time></trkpt><trkpt lat="44.2139544" lon="10.4789656"><ele>1451.0</ele><time>2026-04-18T09:40:44Z</time></trkpt><trkpt lat="44.2138786" lon="10.4789297"><ele>1449.8333333333335</ele><time>2026-04-18T09:40:47Z</time></trkpt><trkpt lat="44.2138091" lon="10.4788729"><ele>1448.6666666666667</ele><time>2026-04-18T09:40:50Z</time></trkpt><trkpt lat="44.213749" lon="10.4788023"><ele>1447.5</ele><time>2026-04-18T09:40:53Z</time></trkpt><trkpt lat="44.2136997" lon="10.4787363"><ele>1446.3333333333333</ele><time>2026-04-18T09:40:56Z</time></trkpt><trkpt lat="44.2136482" lon="10.4786547"><ele>1445.1666666666665</ele><time>2026-04-18T09:41:00Z</time></trkpt><trkpt lat="44.2135962" lon="10.4785664"><ele>1444.0</ele><time>2026-04-18T09:41:04Z</time></trkpt><trkpt lat="44.2135364" lon="10.4784887"><ele>1444.0</ele><time>2026-04-18T09:41:08Z</time></trkpt><trkpt lat="44.2134667" lon="10.4784288"><ele>1444.0</ele><time>2026-04-18T09:41:12Z</time></trkpt><trkpt lat="44.2134143" lon="10.4783745"><ele>1444.0</ele><time>2026-04-18T09:41:15Z</time></trkpt><trkpt lat="44.2133628" lon="10.4783211"><ele>1444.0</ele><time>2026-04-18T09:41:18Z</time></trkpt><trkpt lat="44.2133101" lon="10.478269"><ele>1444.0</ele><time>2026-04-18T09:41:21Z</time></trkpt><trkpt lat="44.2132359" lon="10.4781872"><ele>1444.0</ele><time>2026-04-18T09:41:25Z</time></trkpt><trkpt lat="44.2131854" lon="10.4781306"><ele>1444.0</ele><time>2026-04-18T09:41:28Z</time></trkpt><trkpt lat="44.2131359" lon="10.4780725"><ele>1442.2857142857144</ele><time>2026-04-18T09:41:31Z</time></trkpt><trkpt lat="44.2130863" lon="10.4780118"><ele>1440.5714285714284</ele><time>2026-04-18T09:41:34Z</time></trkpt><trkpt lat="44.2130321" lon="10.4779635"><ele>1438.857142857143</ele><time>2026-04-18T09:41:37Z</time></trkpt><trkpt lat="44.2129695" lon="10.4779389"><ele>1437.1428571428573</ele><time>2026-04-18T09:41:40Z</time></trkpt><trkpt lat="44.212905" lon="10.4779215"><ele>1435.4285714285716</ele><time>2026-04-18T09:41:43Z</time></trkpt><trkpt lat="44.2128389" lon="10.47792"><ele>1433.7142857142858</ele><time>2026-04-18T09:41:46Z</time></trkpt><trkpt lat="44.2127753" lon="10.4779275"><ele>1432.0</ele><time>2026-04-18T09:41:49Z</time></trkpt><trkpt lat="44.2127092" lon="10.4779387"><ele>1435.857142857143</ele><time>2026-04-18T09:41:52Z</time></trkpt><trkpt lat="44.2126476" lon="10.4779651"><ele>1439.7142857142858</ele><time>2026-04-18T09:41:55Z</time></trkpt><trkpt lat="44.2125711" lon="10.4779992"><ele>1443.5714285714284</ele><time>2026-04-18T09:41:58Z</time></trkpt><trkpt lat="44.2124992" lon="10.4780317"><ele>1447.4285714285716</ele><time>2026-04-18T09:42:01Z</time></trkpt><trkpt lat="44.2124295" lon="10.4780685"><ele>1451.2857142857142</ele><time>2026-04-18T09:42:04Z</time></trkpt><trkpt lat="44.2123572" lon="10.4781087"><ele>1455.142857142857</ele><time>2026-04-18T09:42:07Z</time></trkpt><trkpt lat="44.2122879" lon="10.478141"><ele>1459.0</ele><time>2026-04-18T09:42:10Z</time></trkpt><trkpt lat="44.2122184" lon="10.4781757"><ele>1459.1666666666665</ele><time>2026-04-18T09:42:13Z</time></trkpt><trkpt lat="44.2121551" lon="10.4782249"><ele>1459.3333333333333</ele><time>2026-04-18T09:42:16Z</time></trkpt><trkpt lat="44.2120803" lon="10.4782799"><ele>1459.5</ele><time>2026-04-18T09:42:20Z</time></trkpt><trkpt lat="44.2120173" lon="10.478314"><ele>1459.6666666666667</ele><time>2026-04-18T09:42:23Z</time></trkpt><trkpt lat="44.2119411" lon="10.4783457"><ele>1459.8333333333335</ele><time>2026-04-18T09:42:26Z</time></trkpt><trkpt lat="44.2118653" lon="10.4783519"><ele>1460.0</ele><time>2026-04-18T09:42:29Z</time></trkpt><trkpt lat="44.2117855" lon="10.4783471"><ele>1460.0</ele><time>2026-04-18T09:42:32Z</time></trkpt><trkpt lat="44.2117164" lon="10.478302"><ele>1460.0</ele><time>2026-04-18T09:42:35Z</time></trkpt><trkpt lat="44.2116465" lon="10.47827"><ele>1460.0</ele><time>2026-04-18T09:42:38Z</time></trkpt><trkpt lat="44.2115704" lon="10.4782801"><ele>1460.0</ele><time>2026-04-18T09:42:41Z</time></trkpt><trkpt lat="44.2115064" lon="10.4783084"><ele>1460.0</ele><time>2026-04-18T09:42:44Z</time></trkpt><trkpt lat="44.2114592" lon="10.4783846"><ele>1460.0</ele><time>2026-04-18T09:42:47Z</time></trkpt><trkpt lat="44.211436" lon="10.4784991"><ele>1460.5</ele><time>2026-04-18T09:42:50Z</time></trkpt><trkpt lat="44.2114493" lon="10.4786173"><ele>1461.0</ele><time>2026-04-18T09:42:53Z</time></trkpt><trkpt lat="44.2114812" lon="10.4787334"><ele>1461.5</ele><time>2026-04-18T09:42:56Z</time></trkpt><trkpt lat="44.2115069" lon="10.4788378"><ele>1462.0</ele><time>2026-04-18T09:42:59Z</time></trkpt><trkpt lat="44.2115189" lon="10.4789501"><ele>1462.5</ele><time>2026-04-18T09:43:02Z</time></trkpt><trkpt lat="44.2115326" lon="10.4790389"><ele>1463.0</ele><time>2026-04-18T09:43:04.009Z</time></trkpt><trkpt lat="44.2115452" lon="10.479135"><ele>1463.0</ele><time>2026-04-18T09:43:06Z</time></trkpt><trkpt lat="44.211562" lon="10.4792279"><ele>1463.0</ele><time>2026-04-18T09:43:08Z</time></trkpt><trkpt lat="44.2115872" lon="10.4793161"><ele>1463.0</ele><time>2026-04-18T09:43:10.002Z</time></trkpt><trkpt lat="44.2116165" lon="10.4793959"><ele>1463.0</ele><time>2026-04-18T09:43:11.949Z</time></trkpt><trkpt lat="44.2116526" lon="10.4794794"><ele>1463.0</ele><time>2026-04-18T09:43:14Z</time></trkpt><trkpt lat="44.211693" lon="10.4795587"><ele>1463.0</ele><time>2026-04-18T09:43:16Z</time></trkpt><trkpt lat="44.2117388" lon="10.4796329"><ele>1463.0</ele><time>2026-04-18T09:43:18Z</time></trkpt><trkpt lat="44.2117996" lon="10.4797265"><ele>1462.1666666666667</ele><time>2026-04-18T09:43:21Z</time></trkpt><trkpt lat="44.2118457" lon="10.479788"><ele>1461.3333333333335</ele><time>2026-04-18T09:43:23.006Z</time></trkpt><trkpt lat="44.2119143" lon="10.4798608"><ele>1460.5</ele><time>2026-04-18T09:43:26Z</time></trkpt><trkpt lat="44.2119905" lon="10.4799046"><ele>1459.6666666666667</ele><time>2026-04-18T09:43:29Z</time></trkpt><trkpt lat="44.2120749" lon="10.4799603"><ele>1458.8333333333333</ele><time>2026-04-18T09:43:32Z</time></trkpt><trkpt lat="44.212161" lon="10.4800085"><ele>1458.0</ele><time>2026-04-18T09:43:35.006Z</time></trkpt><trkpt lat="44.2122272" lon="10.4800644"><ele>1458.0</ele><time>2026-04-18T09:43:38Z</time></trkpt><trkpt lat="44.2122912" lon="10.480148"><ele>1458.0</ele><time>2026-04-18T09:43:41Z</time></trkpt><trkpt lat="44.2123423" lon="10.4802461"><ele>1458.0</ele><time>2026-04-18T09:43:44Z</time></trkpt><trkpt lat="44.212381" lon="10.4803491"><ele>1458.0</ele><time>2026-04-18T09:43:47Z</time></trkpt><trkpt lat="44.2124066" lon="10.4804626"><ele>1458.0</ele><time>2026-04-18T09:43:50Z</time></trkpt><trkpt lat="44.2124221" lon="10.4805733"><ele>1458.0</ele><time>2026-04-18T09:43:52.999Z</time></trkpt><trkpt lat="44.2124625" lon="10.4806778"><ele>1458.6666666666667</ele><time>2026-04-18T09:43:56Z</time></trkpt><trkpt lat="44.2125175" lon="10.4807594"><ele>1459.3333333333333</ele><time>2026-04-18T09:43:59Z</time></trkpt><trkpt lat="44.2125849" lon="10.4808339"><ele>1460.0</ele><time>2026-04-18T09:44:02Z</time></trkpt><trkpt lat="44.212655" lon="10.4808953"><ele>1460.6666666666665</ele><time>2026-04-18T09:44:05Z</time></trkpt><trkpt lat="44.2127205" lon="10.4809617"><ele>1461.3333333333333</ele><time>2026-04-18T09:44:08Z</time></trkpt><trkpt lat="44.2127851" lon="10.4810328"><ele>1462.0</ele><time>2026-04-18T09:44:11Z</time></trkpt><trkpt lat="44.2128131" lon="10.4811408"><ele>1462.0</ele><time>2026-04-18T09:44:14Z</time></trkpt><trkpt lat="44.212836" lon="10.4812567"><ele>1462.0</ele><time>2026-04-18T09:44:17Z</time></trkpt><trkpt lat="44.2128522" lon="10.481373"><ele>1462.0</ele><time>2026-04-18T09:44:20Z</time></trkpt><trkpt lat="44.2128606" lon="10.4814869"><ele>1462.0</ele><time>2026-04-18T09:44:23Z</time></trkpt><trkpt lat="44.2128595" lon="10.4816075"><ele>1462.0</ele><time>2026-04-18T09:44:26Z</time></trkpt><trkpt lat="44.2128442" lon="10.4817351"><ele>1462.0</ele><time>2026-04-18T09:44:29Z</time></trkpt><trkpt lat="44.212829" lon="10.4818491"><ele>1461.3333333333333</ele><time>2026-04-18T09:44:32Z</time></trkpt><trkpt lat="44.2128092" lon="10.4819627"><ele>1460.6666666666665</ele><time>2026-04-18T09:44:35Z</time></trkpt><trkpt lat="44.2127975" lon="10.4820793"><ele>1460.0</ele><time>2026-04-18T09:44:38Z</time></trkpt><trkpt lat="44.2127939" lon="10.4821919"><ele>1459.3333333333333</ele><time>2026-04-18T09:44:41Z</time></trkpt><trkpt lat="44.2128029" lon="10.4822933"><ele>1458.6666666666667</ele><time>2026-04-18T09:44:44Z</time></trkpt><trkpt lat="44.2128092" lon="10.4824003"><ele>1458.0</ele><time>2026-04-18T09:44:47Z</time></trkpt><trkpt lat="44.2127975" lon="10.4825109"><ele>1458.0</ele><time>2026-04-18T09:44:50Z</time></trkpt><trkpt lat="44.2127855" lon="10.4826224"><ele>1458.0</ele><time>2026-04-18T09:44:53Z</time></trkpt><trkpt lat="44.212784" lon="10.4827508"><ele>1458.0</ele><time>2026-04-18T09:44:56Z</time></trkpt><trkpt lat="44.2128114" lon="10.4828685"><ele>1458.0</ele><time>2026-04-18T09:44:59Z</time></trkpt><trkpt lat="44.212842" lon="10.4829578"><ele>1458.0</ele><time>2026-04-18T09:45:02Z</time></trkpt><trkpt lat="44.2128792" lon="10.4830395"><ele>1458.0</ele><time>2026-04-18T09:45:05Z</time></trkpt><trkpt lat="44.2129126" lon="10.4831312"><ele>1458.7142857142858</ele><time>2026-04-18T09:45:08Z</time></trkpt><trkpt lat="44.2129351" lon="10.4832342"><ele>1459.4285714285713</ele><time>2026-04-18T09:45:11Z</time></trkpt><trkpt lat="44.2129378" lon="10.4833291"><ele>1460.142857142857</ele><time>2026-04-18T09:45:14Z</time></trkpt><trkpt lat="44.2129287" lon="10.4834214"><ele>1460.857142857143</ele><time>2026-04-18T09:45:17Z</time></trkpt><trkpt lat="44.2129168" lon="10.4835248"><ele>1461.5714285714284</ele><time>2026-04-18T09:45:20Z</time></trkpt><trkpt lat="44.2129051" lon="10.4836318"><ele>1462.2857142857142</ele><time>2026-04-18T09:45:23Z</time></trkpt><trkpt lat="44.2128924" lon="10.483738"><ele>1463.0</ele><time>2026-04-18T09:45:26Z</time></trkpt><trkpt lat="44.2128841" lon="10.4838367"><ele>1463.857142857143</ele><time>2026-04-18T09:45:29Z</time></trkpt><trkpt lat="44.2128929" lon="10.4839504"><ele>1464.7142857142858</ele><time>2026-04-18T09:45:33Z</time></trkpt><trkpt lat="44.212904" lon="10.4840464"><ele>1465.5714285714284</ele><time>2026-04-18T09:45:36Z</time></trkpt><trkpt lat="44.2129187" lon="10.4841464"><ele>1466.4285714285716</ele><time>2026-04-18T09:45:39Z</time></trkpt><trkpt lat="44.2129435" lon="10.4842407"><ele>1467.2857142857142</ele><time>2026-04-18T09:45:42Z</time></trkpt><trkpt lat="44.2129734" lon="10.4843287"><ele>1468.142857142857</ele><time>2026-04-18T09:45:45Z</time></trkpt><trkpt lat="44.2130128" lon="10.4844226"><ele>1469.0</ele><time>2026-04-18T09:45:48Z</time></trkpt><trkpt lat="44.2130477" lon="10.4845131"><ele>1470.142857142857</ele><time>2026-04-18T09:45:51Z</time></trkpt><trkpt lat="44.2130609" lon="10.4845999"><ele>1471.2857142857142</ele><time>2026-04-18T09:45:54Z</time></trkpt><trkpt lat="44.2130532" lon="10.4847191"><ele>1472.4285714285716</ele><time>2026-04-18T09:45:58Z</time></trkpt><trkpt lat="44.2130295" lon="10.484829"><ele>1473.5714285714284</ele><time>2026-04-18T09:46:02Z</time></trkpt><trkpt lat="44.2130105" lon="10.4849236"><ele>1474.7142857142858</ele><time>2026-04-18T09:46:06Z</time></trkpt><trkpt lat="44.2129789" lon="10.4850173"><ele>1475.857142857143</ele><time>2026-04-18T09:46:10Z</time></trkpt><trkpt lat="44.2129604" lon="10.4851044"><ele>1477.0</ele><time>2026-04-18T09:46:13Z</time></trkpt><trkpt lat="44.2129434" lon="10.4851985"><ele>1477.0</ele><time>2026-04-18T09:46:16Z</time></trkpt><trkpt lat="44.2129213" lon="10.4852851"><ele>1477.0</ele><time>2026-04-18T09:46:19Z</time></trkpt><trkpt lat="44.2128882" lon="10.4853893"><ele>1477.0</ele><time>2026-04-18T09:46:23Z</time></trkpt><trkpt lat="44.2128443" lon="10.4854813"><ele>1477.0</ele><time>2026-04-18T09:46:27Z</time></trkpt><trkpt lat="44.212805" lon="10.4855678"><ele>1477.0</ele><time>2026-04-18T09:46:31Z</time></trkpt><trkpt lat="44.2127938" lon="10.4856639"><ele>1477.0</ele><time>2026-04-18T09:46:35Z</time></trkpt><trkpt lat="44.212795" lon="10.4857595"><ele>1477.0</ele><time>2026-04-18T09:46:38Z</time></trkpt><trkpt lat="44.2128075" lon="10.4858468"><ele>1478.0</ele><time>2026-04-18T09:46:41Z</time></trkpt><trkpt lat="44.2128385" lon="10.4859583"><ele>1479.0</ele><time>2026-04-18T09:46:45Z</time></trkpt><trkpt lat="44.2128683" lon="10.4860433"><ele>1480.0</ele><time>2026-04-18T09:46:48Z</time></trkpt><trkpt lat="44.2128932" lon="10.4861317"><ele>1481.0</ele><time>2026-04-18T09:46:51Z</time></trkpt><trkpt lat="44.2129384" lon="10.4862271"><ele>1482.0</ele><time>2026-04-18T09:46:55Z</time></trkpt><trkpt lat="44.2129773" lon="10.4862984"><ele>1483.0</ele><time>2026-04-18T09:46:58Z</time></trkpt><trkpt lat="44.2130258" lon="10.4863812"><ele>1484.0</ele><time>2026-04-18T09:47:02Z</time></trkpt><trkpt lat="44.213054" lon="10.4864601"><ele>1485.2857142857142</ele><time>2026-04-18T09:47:05Z</time></trkpt><trkpt lat="44.2130805" lon="10.4865682"><ele>1486.5714285714284</ele><time>2026-04-18T09:47:09Z</time></trkpt><trkpt lat="44.2130716" lon="10.4866611"><ele>1487.857142857143</ele><time>2026-04-18T09:47:12Z</time></trkpt><trkpt lat="44.2130134" lon="10.4867384"><ele>1489.142857142857</ele><time>2026-04-18T09:47:16Z</time></trkpt><trkpt lat="44.2129485" lon="10.4867611"><ele>1490.4285714285713</ele><time>2026-04-18T09:47:19Z</time></trkpt><trkpt lat="44.2128818" lon="10.4867764"><ele>1491.7142857142858</ele><time>2026-04-18T09:47:22Z</time></trkpt><trkpt lat="44.2128164" lon="10.4867938"><ele>1493.0</ele><time>2026-04-18T09:47:25Z</time></trkpt><trkpt lat="44.2127366" lon="10.4868084"><ele>1493.0</ele><time>2026-04-18T09:47:29Z</time></trkpt><trkpt lat="44.2126784" lon="10.4868526"><ele>1493.0</ele><time>2026-04-18T09:47:32Z</time></trkpt><trkpt lat="44.2126198" lon="10.4868881"><ele>1493.0</ele><time>2026-04-18T09:47:35Z</time></trkpt><trkpt lat="44.2125606" lon="10.4869271"><ele>1493.0</ele><time>2026-04-18T09:47:38Z</time></trkpt><trkpt lat="44.2125029" lon="10.4869742"><ele>1493.0</ele><time>2026-04-18T09:47:41Z</time></trkpt><trkpt lat="44.2124467" lon="10.4870186"><ele>1493.0</ele><time>2026-04-18T09:47:44Z</time></trkpt><trkpt lat="44.2123889" lon="10.487064"><ele>1493.0</ele><time>2026-04-18T09:47:47Z</time></trkpt><trkpt lat="44.2123334" lon="10.4871119"><ele>1494.2857142857144</ele><time>2026-04-18T09:47:50Z</time></trkpt><trkpt lat="44.2122741" lon="10.48715"><ele>1495.5714285714284</ele><time>2026-04-18T09:47:53Z</time></trkpt><trkpt lat="44.2122131" lon="10.4871938"><ele>1496.857142857143</ele><time>2026-04-18T09:47:56Z</time></trkpt><trkpt lat="44.2121488" lon="10.4872343"><ele>1498.1428571428573</ele><time>2026-04-18T09:47:58.999Z</time></trkpt><trkpt lat="44.212083" lon="10.487238"><ele>1499.4285714285716</ele><time>2026-04-18T09:48:02Z</time></trkpt><trkpt lat="44.2120185" lon="10.4871887"><ele>1500.7142857142858</ele><time>2026-04-18T09:48:06Z</time></trkpt><trkpt lat="44.2119757" lon="10.4871223"><ele>1502.0</ele><time>2026-04-18T09:48:09Z</time></trkpt><trkpt lat="44.211927" lon="10.4870355"><ele>1502.0</ele><time>2026-04-18T09:48:13Z</time></trkpt><trkpt lat="44.2118766" lon="10.4869501"><ele>1502.0</ele><time>2026-04-18T09:48:17Z</time></trkpt><trkpt lat="44.2118344" lon="10.486857"><ele>1502.0</ele><time>2026-04-18T09:48:21Z</time></trkpt><trkpt lat="44.2117757" lon="10.4867734"><ele>1502.0</ele><time>2026-04-18T09:48:24.999Z</time></trkpt><trkpt lat="44.2117273" lon="10.4866852"><ele>1502.0</ele><time>2026-04-18T09:48:29Z</time></trkpt><trkpt lat="44.21168" lon="10.4866187"><ele>1502.0</ele><time>2026-04-18T09:48:32Z</time></trkpt><trkpt lat="44.2116251" lon="10.4865749"><ele>1502.0000000000002</ele><time>2026-04-18T09:48:35Z</time></trkpt><trkpt lat="44.2115493" lon="10.4865656"><ele>1502.0</ele><time>2026-04-18T09:48:39Z</time></trkpt><trkpt lat="44.211489" lon="10.4866109"><ele>1502.0</ele><time>2026-04-18T09:48:43Z</time></trkpt><trkpt lat="44.2114546" lon="10.4866913"><ele>1502.0</ele><time>2026-04-18T09:48:47Z</time></trkpt><trkpt lat="44.2114216" lon="10.4867851"><ele>1502.0</ele><time>2026-04-18T09:48:51Z</time></trkpt><trkpt lat="44.2114039" lon="10.4868885"><ele>1502.0000000000002</ele><time>2026-04-18T09:48:55Z</time></trkpt><trkpt lat="44.211376" lon="10.4869894"><ele>1502.0</ele><time>2026-04-18T09:48:59Z</time></trkpt><trkpt lat="44.2113547" lon="10.4870832"><ele>1504.6666666666667</ele><time>2026-04-18T09:49:03Z</time></trkpt><trkpt lat="44.211337" lon="10.4871911"><ele>1507.3333333333335</ele><time>2026-04-18T09:49:07Z</time></trkpt><trkpt lat="44.2113147" lon="10.4873006"><ele>1510.0</ele><time>2026-04-18T09:49:11Z</time></trkpt><trkpt lat="44.2113017" lon="10.4874107"><ele>1512.6666666666667</ele><time>2026-04-18T09:49:15Z</time></trkpt><trkpt lat="44.2112775" lon="10.4875194"><ele>1515.3333333333333</ele><time>2026-04-18T09:49:19Z</time></trkpt><trkpt lat="44.2112565" lon="10.4876066"><ele>1518.0</ele><time>2026-04-18T09:49:22Z</time></trkpt><trkpt lat="44.211233" lon="10.4876949"><ele>1518.0</ele><time>2026-04-18T09:49:25Z</time></trkpt><trkpt lat="44.2112064" lon="10.4877775"><ele>1518.0</ele><time>2026-04-18T09:49:28Z</time></trkpt><trkpt lat="44.2111635" lon="10.487857"><ele>1518.0</ele><time>2026-04-18T09:49:31Z</time></trkpt><trkpt lat="44.2111071" lon="10.4879126"><ele>1518.0</ele><time>2026-04-18T09:49:34Z</time></trkpt><trkpt lat="44.2110299" lon="10.4879586"><ele>1518.0</ele><time>2026-04-18T09:49:38Z</time></trkpt><trkpt lat="44.2109706" lon="10.4879897"><ele>1518.0</ele><time>2026-04-18T09:49:41Z</time></trkpt><trkpt lat="44.210905" lon="10.4880171"><ele>1518.0</ele><time>2026-04-18T09:49:44Z</time></trkpt><trkpt lat="44.2108452" lon="10.4880576"><ele>1519.3333333333333</ele><time>2026-04-18T09:49:47Z</time></trkpt><trkpt lat="44.2107655" lon="10.4880913"><ele>1520.6666666666667</ele><time>2026-04-18T09:49:51Z</time></trkpt><trkpt lat="44.2107045" lon="10.4881203"><ele>1522.0</ele><time>2026-04-18T09:49:54Z</time></trkpt><trkpt lat="44.2106304" lon="10.4881525"><ele>1523.3333333333335</ele><time>2026-04-18T09:49:58Z</time></trkpt><trkpt lat="44.2105561" lon="10.4881661"><ele>1524.6666666666667</ele><time>2026-04-18T09:50:02Z</time></trkpt><trkpt lat="44.2104794" lon="10.4881787"><ele>1526.0</ele><time>2026-04-18T09:50:06Z</time></trkpt><trkpt lat="44.2103996" lon="10.4881856"><ele>1526.0</ele><time>2026-04-18T09:50:10Z</time></trkpt><trkpt lat="44.2103398" lon="10.488217"><ele>1526.0</ele><time>2026-04-18T09:50:13Z</time></trkpt><trkpt lat="44.210276" lon="10.4882536"><ele>1526.0</ele><time>2026-04-18T09:50:16Z</time></trkpt><trkpt lat="44.2102164" lon="10.4882885"><ele>1526.0</ele><time>2026-04-18T09:50:19Z</time></trkpt><trkpt lat="44.2101543" lon="10.4883169"><ele>1526.0</ele><time>2026-04-18T09:50:22Z</time></trkpt><trkpt lat="44.210074" lon="10.4883376"><ele>1526.0</ele><time>2026-04-18T09:50:26Z</time></trkpt><trkpt lat="44.2100002" lon="10.488379"><ele>1526.0</ele><time>2026-04-18T09:50:30Z</time></trkpt><trkpt lat="44.2099418" lon="10.4884162"><ele>1526.0</ele><time>2026-04-18T09:50:34Z</time></trkpt><trkpt lat="44.2098753" lon="10.4884637"><ele>1526.0</ele><time>2026-04-18T09:50:39Z</time></trkpt><trkpt lat="44.2098019" lon="10.4884868"><ele>1526.0</ele><time>2026-04-18T09:50:44Z</time></trkpt><trkpt lat="44.209733" lon="10.4885175"><ele>1526.0</ele><time>2026-04-18T09:50:48Z</time></trkpt><trkpt lat="44.209665" lon="10.4885451"><ele>1526.0</ele><time>2026-04-18T09:50:52Z</time></trkpt><trkpt lat="44.2095994" lon="10.488578"><ele>1526.0</ele><time>2026-04-18T09:50:56Z</time></trkpt><trkpt lat="44.2095321" lon="10.4886007"><ele>1526.0</ele><time>2026-04-18T09:51:00Z</time></trkpt><trkpt lat="44.2094599" lon="10.4886034"><ele>1526.0</ele><time>2026-04-18T09:51:04Z</time></trkpt><trkpt lat="44.2093951" lon="10.4886145"><ele>1526.0</ele><time>2026-04-18T09:51:07Z</time></trkpt><trkpt lat="44.2093126" lon="10.4886282"><ele>1526.0</ele><time>2026-04-18T09:51:10Z</time></trkpt><trkpt lat="44.2092363" lon="10.4886206"><ele>1526.0</ele><time>2026-04-18T09:51:14Z</time></trkpt><trkpt lat="44.2091709" lon="10.4886423"><ele>1526.0</ele><time>2026-04-18T09:51:18Z</time></trkpt><trkpt lat="44.2091036" lon="10.4886623"><ele>1526.0</ele><time>2026-04-18T09:51:23Z</time></trkpt><trkpt lat="44.2090556" lon="10.4885747"><ele>1526.0</ele><time>2026-04-18T09:53:26Z</time></trkpt><trkpt lat="44.2089934" lon="10.4885515"><ele>1527.142857142857</ele><time>2026-04-18T09:53:30Z</time></trkpt><trkpt lat="44.2089316" lon="10.4885152"><ele>1528.2857142857142</ele><time>2026-04-18T09:53:35Z</time></trkpt><trkpt lat="44.2088665" lon="10.488508"><ele>1529.4285714285716</ele><time>2026-04-18T09:53:40Z</time></trkpt><trkpt lat="44.2088141" lon="10.4884405"><ele>1530.5714285714284</ele><time>2026-04-18T09:53:46Z</time></trkpt><trkpt lat="44.2087486" lon="10.4884199"><ele>1531.7142857142858</ele><time>2026-04-18T09:53:52Z</time></trkpt><trkpt lat="44.2086847" lon="10.48843"><ele>1532.857142857143</ele><time>2026-04-18T09:53:57Z</time></trkpt><trkpt lat="44.2086203" lon="10.4883932"><ele>1534.0</ele><time>2026-04-18T09:54:02Z</time></trkpt><trkpt lat="44.2085506" lon="10.4883799"><ele>1534.0</ele><time>2026-04-18T09:54:07Z</time></trkpt><trkpt lat="44.2084877" lon="10.4883577"><ele>1534.0</ele><time>2026-04-18T09:54:12Z</time></trkpt><trkpt lat="44.2084232" lon="10.4883217"><ele>1534.0</ele><time>2026-04-18T09:54:17Z</time></trkpt><trkpt lat="44.2083627" lon="10.4882823"><ele>1534.0</ele><time>2026-04-18T09:54:22Z</time></trkpt><trkpt lat="44.2083032" lon="10.4882421"><ele>1534.0</ele><time>2026-04-18T09:54:27Z</time></trkpt><trkpt lat="44.208239" lon="10.4882124"><ele>1534.0</ele><time>2026-04-18T09:54:32Z</time></trkpt><trkpt lat="44.2081709" lon="10.4881996"><ele>1534.0</ele><time>2026-04-18T09:54:37Z</time></trkpt><trkpt lat="44.2080991" lon="10.4881959"><ele>1534.5714285714287</ele><time>2026-04-18T09:54:42Z</time></trkpt><trkpt lat="44.2080375" lon="10.4882179"><ele>1535.1428571428573</ele><time>2026-04-18T09:54:47Z</time></trkpt><trkpt lat="44.2079742" lon="10.4882339"><ele>1535.7142857142858</ele><time>2026-04-18T09:54:52Z</time></trkpt><trkpt lat="44.2079078" lon="10.488215"><ele>1536.2857142857142</ele><time>2026-04-18T09:54:57Z</time></trkpt><trkpt lat="44.2078453" lon="10.4881799"><ele>1536.857142857143</ele><time>2026-04-18T09:55:02Z</time></trkpt><trkpt lat="44.2077786" lon="10.4881471"><ele>1537.4285714285713</ele><time>2026-04-18T09:55:07Z</time></trkpt><trkpt lat="44.2077269" lon="10.4880792"><ele>1538.0</ele><time>2026-04-18T09:55:12Z</time></trkpt><trkpt lat="44.2076826" lon="10.4880102"><ele>1538.0</ele><time>2026-04-18T09:55:17Z</time></trkpt><trkpt lat="44.2076259" lon="10.4879571"><ele>1538.0</ele><time>2026-04-18T09:55:22Z</time></trkpt><trkpt lat="44.2075689" lon="10.4879011"><ele>1538.0</ele><time>2026-04-18T09:55:27Z</time></trkpt><trkpt lat="44.2075173" lon="10.4878263"><ele>1538.0</ele><time>2026-04-18T09:55:33Z</time></trkpt><trkpt lat="44.207458" lon="10.4877707"><ele>1538.0</ele><time>2026-04-18T09:55:38Z</time></trkpt><trkpt lat="44.2074068" lon="10.4877037"><ele>1538.0</ele><time>2026-04-18T09:55:43Z</time></trkpt><trkpt lat="44.2073531" lon="10.4876429"><ele>1538.0</ele><time>2026-04-18T09:55:48Z</time></trkpt><trkpt lat="44.2072908" lon="10.4876038"><ele>1542.0</ele><time>2026-04-18T09:55:53Z</time></trkpt><trkpt lat="44.2072219" lon="10.4875874"><ele>1546.0</ele><time>2026-04-18T09:55:59Z</time></trkpt><trkpt lat="44.2071539" lon="10.4875904"><ele>1550.0</ele><time>2026-04-18T09:56:04Z</time></trkpt><trkpt lat="44.2070844" lon="10.4876101"><ele>1554.0</ele><time>2026-04-18T09:56:09Z</time></trkpt><trkpt lat="44.2070191" lon="10.4876102"><ele>1558.0</ele><time>2026-04-18T09:56:14Z</time></trkpt><trkpt lat="44.2069523" lon="10.4876152"><ele>1562.0</ele><time>2026-04-18T09:56:19Z</time></trkpt><trkpt lat="44.2068888" lon="10.4876221"><ele>1566.0</ele><time>2026-04-18T09:56:24Z</time></trkpt><trkpt lat="44.2068188" lon="10.4876282"><ele>1566.0</ele><time>2026-04-18T09:56:29Z</time></trkpt><trkpt lat="44.2067493" lon="10.487616"><ele>1566.0</ele><time>2026-04-18T09:56:34Z</time></trkpt><trkpt lat="44.2066877" lon="10.4875965"><ele>1566.0</ele><time>2026-04-18T09:56:39Z</time></trkpt><trkpt lat="44.2066167" lon="10.4875828"><ele>1566.0</ele><time>2026-04-18T09:56:44Z</time></trkpt><trkpt lat="44.2065491" lon="10.4875495"><ele>1566.0</ele><time>2026-04-18T09:56:49Z</time></trkpt><trkpt lat="44.2064843" lon="10.4875184"><ele>1566.0</ele><time>2026-04-18T09:56:54Z</time></trkpt><trkpt lat="44.2064207" lon="10.4874966"><ele>1566.0</ele><time>2026-04-18T09:56:59Z</time></trkpt><trkpt lat="44.2063592" lon="10.4874595"><ele>1567.2857142857142</ele><time>2026-04-18T09:57:04Z</time></trkpt><trkpt lat="44.2062962" lon="10.4874266"><ele>1568.5714285714287</ele><time>2026-04-18T09:57:09Z</time></trkpt><trkpt lat="44.2062345" lon="10.4874006"><ele>1569.857142857143</ele><time>2026-04-18T09:57:14Z</time></trkpt><trkpt lat="44.2061716" lon="10.4873608"><ele>1571.142857142857</ele><time>2026-04-18T09:57:19Z</time></trkpt><trkpt lat="44.2060988" lon="10.4873305"><ele>1572.4285714285716</ele><time>2026-04-18T09:57:25Z</time></trkpt><trkpt lat="44.2060251" lon="10.4873294"><ele>1573.7142857142858</ele><time>2026-04-18T09:57:29.999Z</time></trkpt><trkpt lat="44.2059553" lon="10.487326"><ele>1575.0</ele><time>2026-04-18T09:57:35Z</time></trkpt><trkpt lat="44.2058945" lon="10.4873495"><ele>1575.0</ele><time>2026-04-18T09:57:40Z</time></trkpt><trkpt lat="44.2058204" lon="10.4873577"><ele>1575.0</ele><time>2026-04-18T09:57:46Z</time></trkpt><trkpt lat="44.2057573" lon="10.4873412"><ele>1575.0</ele><time>2026-04-18T09:57:51Z</time></trkpt><trkpt lat="44.2056906" lon="10.4873219"><ele>1575.0</ele><time>2026-04-18T09:57:56Z</time></trkpt><trkpt lat="44.2056175" lon="10.4873041"><ele>1575.0</ele><time>2026-04-18T09:58:01Z</time></trkpt><trkpt lat="44.2055554" lon="10.4872644"><ele>1575.0</ele><time>2026-04-18T09:58:06Z</time></trkpt><trkpt lat="44.2055013" lon="10.4872184"><ele>1575.0</ele><time>2026-04-18T09:58:10Z</time></trkpt><trkpt lat="44.2054307" lon="10.4871772"><ele>1577.2857142857142</ele><time>2026-04-18T09:58:15Z</time></trkpt><trkpt lat="44.2053557" lon="10.4871743"><ele>1579.5714285714284</ele><time>2026-04-18T09:58:20Z</time></trkpt><trkpt lat="44.2052864" lon="10.4871926"><ele>1581.857142857143</ele><time>2026-04-18T09:58:25Z</time></trkpt><trkpt lat="44.2052219" lon="10.4872386"><ele>1584.142857142857</ele><time>2026-04-18T09:58:30Z</time></trkpt><trkpt lat="44.2051635" lon="10.4872967"><ele>1586.4285714285713</ele><time>2026-04-18T09:58:35Z</time></trkpt><trkpt lat="44.2051135" lon="10.4873547"><ele>1588.7142857142858</ele><time>2026-04-18T09:58:40Z</time></trkpt><trkpt lat="44.2050581" lon="10.4874141"><ele>1591.0</ele><time>2026-04-18T09:58:45Z</time></trkpt><trkpt lat="44.2049998" lon="10.4874744"><ele>1591.0</ele><time>2026-04-18T09:58:50Z</time></trkpt><trkpt lat="44.2049348" lon="10.4875281"><ele>1591.0</ele><time>2026-04-18T09:58:55Z</time></trkpt><trkpt lat="44.204866" lon="10.48756"><ele>1591.0</ele><time>2026-04-18T09:59:00Z</time></trkpt><trkpt lat="44.2047863" lon="10.4875711"><ele>1591.0</ele><time>2026-04-18T09:59:05Z</time></trkpt><trkpt lat="44.20471" lon="10.4875731"><ele>1591.0</ele><time>2026-04-18T09:59:10Z</time></trkpt><trkpt lat="44.2046391" lon="10.4875861"><ele>1591.0</ele><time>2026-04-18T09:59:15Z</time></trkpt><trkpt lat="44.2045672" lon="10.487592"><ele>1591.0</ele><time>2026-04-18T09:59:21Z</time></trkpt><trkpt lat="44.2044995" lon="10.4876155"><ele>1593.2857142857144</ele><time>2026-04-18T09:59:26Z</time></trkpt><trkpt lat="44.2044274" lon="10.4876383"><ele>1595.5714285714284</ele><time>2026-04-18T09:59:31Z</time></trkpt><trkpt lat="44.2043557" lon="10.4876558"><ele>1597.857142857143</ele><time>2026-04-18T09:59:36Z</time></trkpt><trkpt lat="44.2042861" lon="10.4876697"><ele>1600.1428571428573</ele><time>2026-04-18T09:59:41Z</time></trkpt><trkpt lat="44.2042204" lon="10.4876743"><ele>1602.4285714285716</ele><time>2026-04-18T09:59:45Z</time></trkpt><trkpt lat="44.2041555" lon="10.4876724"><ele>1604.7142857142858</ele><time>2026-04-18T09:59:50Z</time></trkpt><trkpt lat="44.2040846" lon="10.4876784"><ele>1607.0</ele><time>2026-04-18T09:59:55Z</time></trkpt><trkpt lat="44.20401" lon="10.4876817"><ele>1606.7142857142858</ele><time>2026-04-18T10:00:00Z</time></trkpt><trkpt lat="44.203944" lon="10.4876588"><ele>1606.4285714285716</ele><time>2026-04-18T10:00:04Z</time></trkpt><trkpt lat="44.2038717" lon="10.4876298"><ele>1606.1428571428573</ele><time>2026-04-18T10:00:08Z</time></trkpt><trkpt lat="44.2038072" lon="10.4876024"><ele>1605.857142857143</ele><time>2026-04-18T10:00:12Z</time></trkpt><trkpt lat="44.2037386" lon="10.4875849"><ele>1605.5714285714284</ele><time>2026-04-18T10:00:16Z</time></trkpt><trkpt lat="44.2036747" lon="10.4875554"><ele>1605.2857142857144</ele><time>2026-04-18T10:00:20Z</time></trkpt><trkpt lat="44.2036227" lon="10.4874967"><ele>1605.0</ele><time>2026-04-18T10:00:24Z</time></trkpt><trkpt lat="44.2035682" lon="10.4874486"><ele>1605.0</ele><time>2026-04-18T10:00:28Z</time></trkpt><trkpt lat="44.2035123" lon="10.487403"><ele>1605.0</ele><time>2026-04-18T10:00:32Z</time></trkpt><trkpt lat="44.2034531" lon="10.4873562"><ele>1605.0</ele><time>2026-04-18T10:00:36Z</time></trkpt><trkpt lat="44.2033974" lon="10.4873077"><ele>1605.0</ele><time>2026-04-18T10:00:40Z</time></trkpt><trkpt lat="44.2033251" lon="10.4872683"><ele>1605.0</ele><time>2026-04-18T10:00:44Z</time></trkpt><trkpt lat="44.2032666" lon="10.4872296"><ele>1605.0</ele><time>2026-04-18T10:00:48Z</time></trkpt><trkpt lat="44.2032018" lon="10.4871967"><ele>1605.0</ele><time>2026-04-18T10:00:52Z</time></trkpt><trkpt lat="44.2031348" lon="10.4871751"><ele>1604.857142857143</ele><time>2026-04-18T10:00:56Z</time></trkpt><trkpt lat="44.2030643" lon="10.487154"><ele>1604.7142857142856</ele><time>2026-04-18T10:01:00Z</time></trkpt><trkpt lat="44.2030006" lon="10.4871486"><ele>1604.5714285714284</ele><time>2026-04-18T10:01:04Z</time></trkpt><trkpt lat="44.2029338" lon="10.4871486"><ele>1604.4285714285716</ele><time>2026-04-18T10:01:08Z</time></trkpt><trkpt lat="44.202859" lon="10.4871329"><ele>1604.2857142857142</ele><time>2026-04-18T10:01:13Z</time></trkpt><trkpt lat="44.2027836" lon="10.4871168"><ele>1604.142857142857</ele><time>2026-04-18T10:01:17Z</time></trkpt><trkpt lat="44.2027042" lon="10.4871103"><ele>1604.0</ele><time>2026-04-18T10:01:21Z</time></trkpt><trkpt lat="44.2026324" lon="10.4870993"><ele>1604.0</ele><time>2026-04-18T10:01:25Z</time></trkpt><trkpt lat="44.2025601" lon="10.4870998"><ele>1604.0</ele><time>2026-04-18T10:01:29Z</time></trkpt><trkpt lat="44.202481" lon="10.4870887"><ele>1604.0</ele><time>2026-04-18T10:01:33Z</time></trkpt><trkpt lat="44.2024" lon="10.4870956"><ele>1604.0</ele><time>2026-04-18T10:01:37Z</time></trkpt><trkpt lat="44.2023395" lon="10.4871287"><ele>1604.0</ele><time>2026-04-18T10:01:40Z</time></trkpt><trkpt lat="44.2022619" lon="10.4871631"><ele>1604.0</ele><time>2026-04-18T10:01:44Z</time></trkpt><trkpt lat="44.2021987" lon="10.4872029"><ele>1604.0</ele><time>2026-04-18T10:01:47Z</time></trkpt><trkpt lat="44.2021338" lon="10.4872408"><ele>1605.0</ele><time>2026-04-18T10:01:50Z</time></trkpt><trkpt lat="44.2020763" lon="10.4872975"><ele>1606.0</ele><time>2026-04-18T10:01:53Z</time></trkpt><trkpt lat="44.2020077" lon="10.4873377"><ele>1607.0</ele><time>2026-04-18T10:01:56Z</time></trkpt><trkpt lat="44.2019406" lon="10.4873744"><ele>1608.0</ele><time>2026-04-18T10:01:59Z</time></trkpt><trkpt lat="44.2018662" lon="10.4874194"><ele>1609.0</ele><time>2026-04-18T10:02:02Z</time></trkpt><trkpt lat="44.2018025" lon="10.4874711"><ele>1610.0</ele><time>2026-04-18T10:02:05Z</time></trkpt><trkpt lat="44.2017381" lon="10.4875229"><ele>1611.0</ele><time>2026-04-18T10:02:08Z</time></trkpt><trkpt lat="44.2016768" lon="10.4875656"><ele>1611.0</ele><time>2026-04-18T10:02:11Z</time></trkpt><trkpt lat="44.2016165" lon="10.4876034"><ele>1611.0</ele><time>2026-04-18T10:02:14Z</time></trkpt><trkpt lat="44.2015606" lon="10.4876724"><ele>1611.0</ele><time>2026-04-18T10:02:19Z</time></trkpt><trkpt lat="44.2014912" lon="10.4877195"><ele>1611.0</ele><time>2026-04-18T10:02:23Z</time></trkpt><trkpt lat="44.2014309" lon="10.4877605"><ele>1611.0</ele><time>2026-04-18T10:02:27Z</time></trkpt><trkpt lat="44.2013632" lon="10.4878225"><ele>1611.0</ele><time>2026-04-18T10:02:31Z</time></trkpt><trkpt lat="44.2013048" lon="10.4878629"><ele>1611.0</ele><time>2026-04-18T10:02:34Z</time></trkpt><trkpt lat="44.2012349" lon="10.4879074"><ele>1610.857142857143</ele><time>2026-04-18T10:02:38Z</time></trkpt><trkpt lat="44.2011683" lon="10.4879235"><ele>1610.7142857142858</ele><time>2026-04-18T10:02:41Z</time></trkpt><trkpt lat="44.2011024" lon="10.4879338"><ele>1610.5714285714284</ele><time>2026-04-18T10:02:44Z</time></trkpt><trkpt lat="44.2010421" lon="10.4879596"><ele>1610.4285714285716</ele><time>2026-04-18T10:02:47Z</time></trkpt><trkpt lat="44.2009681" lon="10.4880017"><ele>1610.2857142857142</ele><time>2026-04-18T10:02:51Z</time></trkpt><trkpt lat="44.2008966" lon="10.4880361"><ele>1610.142857142857</ele><time>2026-04-18T10:02:55Z</time></trkpt><trkpt lat="44.2008224" lon="10.4880585"><ele>1610.0</ele><time>2026-04-18T10:02:59Z</time></trkpt><trkpt lat="44.200761" lon="10.4880983"><ele>1612.142857142857</ele><time>2026-04-18T10:03:03Z</time></trkpt><trkpt lat="44.2006851" lon="10.488134"><ele>1614.2857142857142</ele><time>2026-04-18T10:03:08Z</time></trkpt><trkpt lat="44.2006184" lon="10.4881658"><ele>1616.4285714285716</ele><time>2026-04-18T10:03:12Z</time></trkpt><trkpt lat="44.2005527" lon="10.4881904"><ele>1618.5714285714284</ele><time>2026-04-18T10:03:16Z</time></trkpt><trkpt lat="44.2004751" lon="10.4882209"><ele>1620.7142857142858</ele><time>2026-04-18T10:03:20.983Z</time></trkpt><trkpt lat="44.2004034" lon="10.488259"><ele>1622.857142857143</ele><time>2026-04-18T10:03:25.073Z</time></trkpt><trkpt lat="44.2003375" lon="10.4882941"><ele>1625.0</ele><time>2026-04-18T10:03:29.008Z</time></trkpt><trkpt lat="44.2002731" lon="10.4883189"><ele>1626.6666666666665</ele><time>2026-04-18T10:03:33Z</time></trkpt><trkpt lat="44.2001904" lon="10.4883279"><ele>1628.3333333333333</ele><time>2026-04-18T10:03:37Z</time></trkpt><trkpt lat="44.2001091" lon="10.4883178"><ele>1630.0</ele><time>2026-04-18T10:03:41Z</time></trkpt><trkpt lat="44.2000329" lon="10.4882857"><ele>1631.6666666666665</ele><time>2026-04-18T10:03:45Z</time></trkpt><trkpt lat="44.1999628" lon="10.4882753"><ele>1633.3333333333333</ele><time>2026-04-18T10:03:49Z</time></trkpt><trkpt lat="44.1998885" lon="10.4882537"><ele>1635.0</ele><time>2026-04-18T10:03:53Z</time></trkpt><trkpt lat="44.1998144" lon="10.4882264"><ele>1633.857142857143</ele><time>2026-04-18T10:03:57Z</time></trkpt><trkpt lat="44.1997483" lon="10.4881861"><ele>1632.7142857142858</ele><time>2026-04-18T10:04:01Z</time></trkpt><trkpt lat="44.1996871" lon="10.4881334"><ele>1631.5714285714284</ele><time>2026-04-18T10:04:05Z</time></trkpt><trkpt lat="44.199614" lon="10.4880972"><ele>1630.4285714285716</ele><time>2026-04-18T10:04:09Z</time></trkpt><trkpt lat="44.1995579" lon="10.4880567"><ele>1629.2857142857142</ele><time>2026-04-18T10:04:12Z</time></trkpt><trkpt lat="44.1994852" lon="10.488004"><ele>1628.142857142857</ele><time>2026-04-18T10:04:16Z</time></trkpt><trkpt lat="44.1994134" lon="10.4879534"><ele>1627.0</ele><time>2026-04-18T10:04:20Z</time></trkpt><trkpt lat="44.1993397" lon="10.4879016"><ele>1626.9999999999998</ele><time>2026-04-18T10:04:24Z</time></trkpt><trkpt lat="44.199265" lon="10.4878563"><ele>1627.0</ele><time>2026-04-18T10:04:28Z</time></trkpt><trkpt lat="44.199212" lon="10.4878079"><ele>1627.0</ele><time>2026-04-18T10:04:31Z</time></trkpt><trkpt lat="44.1991527" lon="10.4877671"><ele>1627.0</ele><time>2026-04-18T10:04:34.034Z</time></trkpt><trkpt lat="44.1990797" lon="10.4877523"><ele>1627.0</ele><time>2026-04-18T10:04:38Z</time></trkpt><trkpt lat="44.1989985" lon="10.4877408"><ele>1626.9999999999998</ele><time>2026-04-18T10:04:42Z</time></trkpt><trkpt lat="44.1989356" lon="10.4877477"><ele>1627.0</ele><time>2026-04-18T10:04:45Z</time></trkpt><trkpt lat="44.1988737" lon="10.4877654"><ele>1628.2857142857142</ele><time>2026-04-18T10:04:48Z</time></trkpt><trkpt lat="44.1988007" lon="10.4878026"><ele>1629.5714285714284</ele><time>2026-04-18T10:04:52Z</time></trkpt><trkpt lat="44.1987407" lon="10.4878305"><ele>1630.8571428571427</ele><time>2026-04-18T10:04:56Z</time></trkpt><trkpt lat="44.1986767" lon="10.4878104"><ele>1632.142857142857</ele><time>2026-04-18T10:05:00Z</time></trkpt><trkpt lat="44.1986155" lon="10.4877854"><ele>1633.4285714285716</ele><time>2026-04-18T10:05:03Z</time></trkpt><trkpt lat="44.1985535" lon="10.4877626"><ele>1634.7142857142856</ele><time>2026-04-18T10:05:06Z</time></trkpt><trkpt lat="44.198473" lon="10.4877483"><ele>1636.0</ele><time>2026-04-18T10:05:10Z</time></trkpt><trkpt lat="44.198398" lon="10.4877146"><ele>1636.0000000000002</ele><time>2026-04-18T10:05:14Z</time></trkpt><trkpt lat="44.1983269" lon="10.4876669"><ele>1636.0</ele><time>2026-04-18T10:05:18Z</time></trkpt><trkpt lat="44.1982542" lon="10.4876203"><ele>1636.0</ele><time>2026-04-18T10:05:22Z</time></trkpt><trkpt lat="44.1981761" lon="10.4875787"><ele>1636.0</ele><time>2026-04-18T10:05:26Z</time></trkpt><trkpt lat="44.1981153" lon="10.4875493"><ele>1636.0000000000002</ele><time>2026-04-18T10:05:29Z</time></trkpt><trkpt lat="44.1980358" lon="10.4875164"><ele>1636.0</ele><time>2026-04-18T10:05:33Z</time></trkpt><trkpt lat="44.1979557" lon="10.4874863"><ele>1637.4285714285713</ele><time>2026-04-18T10:05:36.999Z</time></trkpt><trkpt lat="44.1978919" lon="10.4874649"><ele>1638.857142857143</ele><time>2026-04-18T10:05:40Z</time></trkpt><trkpt lat="44.1978302" lon="10.4874471"><ele>1640.2857142857142</ele><time>2026-04-18T10:05:43Z</time></trkpt><trkpt lat="44.1977579" lon="10.4874295"><ele>1641.7142857142858</ele><time>2026-04-18T10:05:46Z</time></trkpt><trkpt lat="44.1976872" lon="10.4874102"><ele>1643.1428571428573</ele><time>2026-04-18T10:05:49Z</time></trkpt><trkpt lat="44.1976143" lon="10.4873642"><ele>1644.5714285714287</ele><time>2026-04-18T10:05:53Z</time></trkpt><trkpt lat="44.1975339" lon="10.487353"><ele>1646.0</ele><time>2026-04-18T10:05:57Z</time></trkpt><trkpt lat="44.1974687" lon="10.4873527"><ele>1645.9999999999998</ele><time>2026-04-18T10:06:00Z</time></trkpt><trkpt lat="44.1973891" lon="10.4873688"><ele>1646.0</ele><time>2026-04-18T10:06:04Z</time></trkpt><trkpt lat="44.1973106" lon="10.4873974"><ele>1646.0</ele><time>2026-04-18T10:06:08Z</time></trkpt><trkpt lat="44.1972464" lon="10.4874029"><ele>1646.0</ele><time>2026-04-18T10:06:11Z</time></trkpt><trkpt lat="44.1971645" lon="10.4873997"><ele>1645.9999999999998</ele><time>2026-04-18T10:06:15Z</time></trkpt><trkpt lat="44.1970847" lon="10.4874029"><ele>1646.0</ele><time>2026-04-18T10:06:19Z</time></trkpt><trkpt lat="44.1970017" lon="10.4874148"><ele>1646.857142857143</ele><time>2026-04-18T10:06:23Z</time></trkpt><trkpt lat="44.1969348" lon="10.4874303"><ele>1647.7142857142858</ele><time>2026-04-18T10:06:26Z</time></trkpt><trkpt lat="44.196867" lon="10.4874512"><ele>1648.5714285714284</ele><time>2026-04-18T10:06:29Z</time></trkpt><trkpt lat="44.196806" lon="10.4874753"><ele>1649.4285714285716</ele><time>2026-04-18T10:06:31.999Z</time></trkpt><trkpt lat="44.1967388" lon="10.4874994"><ele>1650.2857142857142</ele><time>2026-04-18T10:06:35Z</time></trkpt><trkpt lat="44.1966778" lon="10.4875417"><ele>1651.142857142857</ele><time>2026-04-18T10:06:38Z</time></trkpt><trkpt lat="44.1966105" lon="10.4875843"><ele>1652.0</ele><time>2026-04-18T10:06:42Z</time></trkpt><trkpt lat="44.1965439" lon="10.4876"><ele>1651.5714285714287</ele><time>2026-04-18T10:06:46Z</time></trkpt><trkpt lat="44.1964962" lon="10.4876629"><ele>1651.142857142857</ele><time>2026-04-18T10:06:51Z</time></trkpt><trkpt lat="44.1964439" lon="10.4877469"><ele>1650.7142857142858</ele><time>2026-04-18T10:06:55Z</time></trkpt><trkpt lat="44.1964065" lon="10.4878195"><ele>1650.2857142857142</ele><time>2026-04-18T10:06:58Z</time></trkpt><trkpt lat="44.196366" lon="10.4878871"><ele>1649.857142857143</ele><time>2026-04-18T10:07:01Z</time></trkpt><trkpt lat="44.1963013" lon="10.4879556"><ele>1649.4285714285716</ele><time>2026-04-18T10:07:05Z</time></trkpt><trkpt lat="44.1962315" lon="10.4880117"><ele>1649.0</ele><time>2026-04-18T10:07:09Z</time></trkpt><trkpt lat="44.1961567" lon="10.4879923"><ele>1648.9999999999998</ele><time>2026-04-18T10:07:13Z</time></trkpt><trkpt lat="44.1960913" lon="10.4879271"><ele>1649.0</ele><time>2026-04-18T10:07:17Z</time></trkpt><trkpt lat="44.1960381" lon="10.4878443"><ele>1649.0</ele><time>2026-04-18T10:07:21Z</time></trkpt><trkpt lat="44.1959874" lon="10.4877766"><ele>1649.0</ele><time>2026-04-18T10:07:25.02Z</time></trkpt><trkpt lat="44.1959301" lon="10.4877014"><ele>1648.9999999999998</ele><time>2026-04-18T10:07:29Z</time></trkpt><trkpt lat="44.1958619" lon="10.4876336"><ele>1649.0</ele><time>2026-04-18T10:07:33Z</time></trkpt><trkpt lat="44.19581" lon="10.487576"><ele>1648.9999999999998</ele><time>2026-04-18T10:07:36Z</time></trkpt><trkpt lat="44.1957436" lon="10.4875577"><ele>1649.0</ele><time>2026-04-18T10:07:40Z</time></trkpt><trkpt lat="44.1956773" lon="10.4875737"><ele>1649.0</ele><time>2026-04-18T10:07:45Z</time></trkpt><trkpt lat="44.1956986" lon="10.4876684"><ele>1649.0</ele><time>2026-04-18T10:08:51Z</time></trkpt><trkpt lat="44.1957083" lon="10.4877815"><ele>1648.9999999999998</ele><time>2026-04-18T10:08:53.002Z</time></trkpt><trkpt lat="44.1957183" lon="10.4879307"><ele>1649.0</ele><time>2026-04-18T10:08:55Z</time></trkpt><trkpt lat="44.1957312" lon="10.4880183"><ele>1648.6666666666665</ele><time>2026-04-18T10:08:56Z</time></trkpt><trkpt lat="44.1957362" lon="10.4881108"><ele>1648.3333333333333</ele><time>2026-04-18T10:08:57Z</time></trkpt><trkpt lat="44.195742" lon="10.4882077"><ele>1648.0</ele><time>2026-04-18T10:08:58Z</time></trkpt><trkpt lat="44.1957465" lon="10.4883101"><ele>1647.6666666666665</ele><time>2026-04-18T10:08:59Z</time></trkpt><trkpt lat="44.1957596" lon="10.4884205"><ele>1647.3333333333333</ele><time>2026-04-18T10:09:00Z</time></trkpt><trkpt lat="44.1957734" lon="10.4885363"><ele>1647.0</ele><time>2026-04-18T10:09:01Z</time></trkpt><trkpt lat="44.195777" lon="10.4886541"><ele>1647.1666666666667</ele><time>2026-04-18T10:09:02Z</time></trkpt><trkpt lat="44.1957716" lon="10.4887753"><ele>1647.3333333333335</ele><time>2026-04-18T10:09:03Z</time></trkpt><trkpt lat="44.1957624" lon="10.488897"><ele>1647.5</ele><time>2026-04-18T10:09:04Z</time></trkpt><trkpt lat="44.1957486" lon="10.4890124"><ele>1647.6666666666667</ele><time>2026-04-18T10:09:05Z</time></trkpt><trkpt lat="44.1957323" lon="10.4891278"><ele>1647.8333333333335</ele><time>2026-04-18T10:09:06Z</time></trkpt><trkpt lat="44.195716" lon="10.4892435"><ele>1648.0</ele><time>2026-04-18T10:09:07Z</time></trkpt><trkpt lat="44.1957047" lon="10.4893603"><ele>1648.0</ele><time>2026-04-18T10:09:08Z</time></trkpt><trkpt lat="44.1956857" lon="10.4894785"><ele>1648.0</ele><time>2026-04-18T10:09:09Z</time></trkpt><trkpt lat="44.1956573" lon="10.4895954"><ele>1648.0</ele><time>2026-04-18T10:09:10Z</time></trkpt><trkpt lat="44.1956247" lon="10.4897124"><ele>1648.0</ele><time>2026-04-18T10:09:11Z</time></trkpt><trkpt lat="44.1955963" lon="10.4898344"><ele>1648.0</ele><time>2026-04-18T10:09:12Z</time></trkpt><trkpt lat="44.1955657" lon="10.4899598"><ele>1644.0</ele><time>2026-04-18T10:09:13Z</time></trkpt><trkpt lat="44.1955343" lon="10.4900933"><ele>1640.0</ele><time>2026-04-18T10:09:14Z</time></trkpt><trkpt lat="44.1955012" lon="10.4902292"><ele>1636.0</ele><time>2026-04-18T10:09:15Z</time></trkpt><trkpt lat="44.1954679" lon="10.4903655"><ele>1632.0</ele><time>2026-04-18T10:09:16Z</time></trkpt><trkpt lat="44.1954344" lon="10.4904953"><ele>1628.0</ele><time>2026-04-18T10:09:17Z</time></trkpt><trkpt lat="44.1953998" lon="10.4906218"><ele>1627.9999999999998</ele><time>2026-04-18T10:09:18Z</time></trkpt><trkpt lat="44.1953656" lon="10.4907462"><ele>1628.0</ele><time>2026-04-18T10:09:19Z</time></trkpt><trkpt lat="44.1953331" lon="10.4908674"><ele>1628.0</ele><time>2026-04-18T10:09:20Z</time></trkpt><trkpt lat="44.1952972" lon="10.4909775"><ele>1628.0</ele><time>2026-04-18T10:09:21Z</time></trkpt><trkpt lat="44.1952598" lon="10.4910844"><ele>1627.9999999999998</ele><time>2026-04-18T10:09:22Z</time></trkpt><trkpt lat="44.1952237" lon="10.491186"><ele>1628.0</ele><time>2026-04-18T10:09:23Z</time></trkpt><trkpt lat="44.1951923" lon="10.4912835"><ele>1628.6666666666665</ele><time>2026-04-18T10:09:24Z</time></trkpt><trkpt lat="44.1951582" lon="10.4913845"><ele>1629.3333333333333</ele><time>2026-04-18T10:09:25Z</time></trkpt><trkpt lat="44.1951278" lon="10.4914814"><ele>1630.0</ele><time>2026-04-18T10:09:26Z</time></trkpt><trkpt lat="44.1950953" lon="10.4915797"><ele>1630.6666666666665</ele><time>2026-04-18T10:09:27Z</time></trkpt><trkpt lat="44.1950591" lon="10.4916722"><ele>1631.3333333333333</ele><time>2026-04-18T10:09:27.999Z</time></trkpt><trkpt lat="44.195018" lon="10.491765"><ele>1632.0</ele><time>2026-04-18T10:09:29Z</time></trkpt><trkpt lat="44.1949657" lon="10.4918572"><ele>1632.0</ele><time>2026-04-18T10:09:30Z</time></trkpt><trkpt lat="44.1949124" lon="10.4919525"><ele>1632.0</ele><time>2026-04-18T10:09:31Z</time></trkpt><trkpt lat="44.1948623" lon="10.4920521"><ele>1632.0</ele><time>2026-04-18T10:09:32Z</time></trkpt><trkpt lat="44.1948129" lon="10.4921594"><ele>1632.0</ele><time>2026-04-18T10:09:33Z</time></trkpt><trkpt lat="44.1947619" lon="10.4922655"><ele>1632.0</ele><time>2026-04-18T10:09:34Z</time></trkpt><trkpt lat="44.1947143" lon="10.4923778"><ele>1630.1666666666667</ele><time>2026-04-18T10:09:35Z</time></trkpt><trkpt lat="44.1946703" lon="10.4924899"><ele>1628.3333333333335</ele><time>2026-04-18T10:09:36Z</time></trkpt><trkpt lat="44.1946313" lon="10.4926069"><ele>1626.5</ele><time>2026-04-18T10:09:37Z</time></trkpt><trkpt lat="44.1945909" lon="10.4927166"><ele>1624.6666666666667</ele><time>2026-04-18T10:09:38Z</time></trkpt><trkpt lat="44.1945622" lon="10.4928152"><ele>1622.8333333333335</ele><time>2026-04-18T10:09:39Z</time></trkpt><trkpt lat="44.1945313" lon="10.4928927"><ele>1621.0</ele><time>2026-04-18T10:09:40Z</time></trkpt><trkpt lat="44.1944942" lon="10.492989"><ele>1621.0000000000002</ele><time>2026-04-18T10:09:42Z</time></trkpt><trkpt lat="44.1944711" lon="10.4930758"><ele>1621.0</ele><time>2026-04-18T10:10:06Z</time></trkpt><trkpt lat="44.194468" lon="10.4931687"><ele>1621.0</ele><time>2026-04-18T10:10:09Z</time></trkpt><trkpt lat="44.1944312" lon="10.4932656"><ele>1621.0</ele><time>2026-04-18T10:10:12Z</time></trkpt><trkpt lat="44.194381" lon="10.4933631"><ele>1621.0000000000002</ele><time>2026-04-18T10:10:15Z</time></trkpt><trkpt lat="44.194323" lon="10.4934709"><ele>1621.0</ele><time>2026-04-18T10:10:18Z</time></trkpt><trkpt lat="44.194269" lon="10.4935462"><ele>1621.0000000000002</ele><time>2026-04-18T10:10:20Z</time></trkpt><trkpt lat="44.1942118" lon="10.4936269"><ele>1621.0</ele><time>2026-04-18T10:10:22Z</time></trkpt><trkpt lat="44.1941334" lon="10.4936901"><ele>1621.0</ele><time>2026-04-18T10:10:24Z</time></trkpt><trkpt lat="44.1940651" lon="10.4937711"><ele>1621.0</ele><time>2026-04-18T10:10:26Z</time></trkpt><trkpt lat="44.1940088" lon="10.4938584"><ele>1621.0000000000002</ele><time>2026-04-18T10:10:28Z</time></trkpt><trkpt lat="44.1939845" lon="10.4939594"><ele>1621.0</ele><time>2026-04-18T10:10:30Z</time></trkpt><trkpt lat="44.1939694" lon="10.4940645"><ele>1621.5714285714287</ele><time>2026-04-18T10:10:32Z</time></trkpt><trkpt lat="44.1939674" lon="10.4941596"><ele>1622.142857142857</ele><time>2026-04-18T10:10:34Z</time></trkpt><trkpt lat="44.1939813" lon="10.4942719"><ele>1622.7142857142858</ele><time>2026-04-18T10:10:37Z</time></trkpt><trkpt lat="44.1940003" lon="10.4943565"><ele>1623.2857142857142</ele><time>2026-04-18T10:10:40Z</time></trkpt><trkpt lat="44.1940435" lon="10.4944547"><ele>1623.857142857143</ele><time>2026-04-18T10:10:44Z</time></trkpt><trkpt lat="44.1940778" lon="10.4945399"><ele>1624.4285714285716</ele><time>2026-04-18T10:10:47Z</time></trkpt><trkpt lat="44.1940951" lon="10.4946371"><ele>1625.0</ele><time>2026-04-18T10:10:50Z</time></trkpt><trkpt lat="44.1941109" lon="10.4947356"><ele>1624.9999999999998</ele><time>2026-04-18T10:10:53Z</time></trkpt><trkpt lat="44.194103" lon="10.4948571"><ele>1625.0</ele><time>2026-04-18T10:10:57Z</time></trkpt><trkpt lat="44.1940965" lon="10.4949482"><ele>1625.0</ele><time>2026-04-18T10:10:59Z</time></trkpt><trkpt lat="44.1940755" lon="10.4950704"><ele>1625.0</ele><time>2026-04-18T10:11:01Z</time></trkpt><trkpt lat="44.193998" lon="10.4951777"><ele>1624.9999999999998</ele><time>2026-04-18T10:11:03Z</time></trkpt><trkpt lat="44.1939341" lon="10.4952112"><ele>1625.0</ele><time>2026-04-18T10:11:04Z</time></trkpt><trkpt lat="44.1938712" lon="10.495238"><ele>1622.2</ele><time>2026-04-18T10:11:04.999Z</time></trkpt><trkpt lat="44.1937681" lon="10.4952875"><ele>1619.4</ele><time>2026-04-18T10:11:07Z</time></trkpt><trkpt lat="44.1936656" lon="10.4953633"><ele>1616.6</ele><time>2026-04-18T10:11:09Z</time></trkpt><trkpt lat="44.1936146" lon="10.4954163"><ele>1613.8</ele><time>2026-04-18T10:11:10Z</time></trkpt><trkpt lat="44.1935536" lon="10.4955342"><ele>1611.0</ele><time>2026-04-18T10:11:12Z</time></trkpt><trkpt lat="44.1935306" lon="10.4956909"><ele>1611.0</ele><time>2026-04-18T10:11:14Z</time></trkpt><trkpt lat="44.193515" lon="10.4958557"><ele>1611.0</ele><time>2026-04-18T10:11:16Z</time></trkpt><trkpt lat="44.1934882" lon="10.4960211"><ele>1611.0</ele><time>2026-04-18T10:11:18Z</time></trkpt><trkpt lat="44.1934402" lon="10.4961593"><ele>1611.0</ele><time>2026-04-18T10:11:20Z</time></trkpt><trkpt lat="44.1933892" lon="10.4962615"><ele>1611.0</ele><time>2026-04-18T10:11:22Z</time></trkpt><trkpt lat="44.1933478" lon="10.4963376"><ele>1612.5</ele><time>2026-04-18T10:11:24Z</time></trkpt><trkpt lat="44.1932985" lon="10.4964227"><ele>1614.0</ele><time>2026-04-18T10:11:28Z</time></trkpt><trkpt lat="44.1932569" lon="10.4964935"><ele>1615.5</ele><time>2026-04-18T10:11:32Z</time></trkpt><trkpt lat="44.1932131" lon="10.4965804"><ele>1617.0</ele><time>2026-04-18T10:11:36Z</time></trkpt><trkpt lat="44.1931695" lon="10.496668"><ele>1618.5</ele><time>2026-04-18T10:11:40Z</time></trkpt><trkpt lat="44.1931282" lon="10.4967503"><ele>1620.0</ele><time>2026-04-18T10:11:44Z</time></trkpt><trkpt lat="44.1930776" lon="10.4968406"><ele>1619.6666666666667</ele><time>2026-04-18T10:11:48Z</time></trkpt><trkpt lat="44.193028" lon="10.4969199"><ele>1619.3333333333335</ele><time>2026-04-18T10:11:52Z</time></trkpt><trkpt lat="44.1929784" lon="10.4970002"><ele>1619.0</ele><time>2026-04-18T10:11:56Z</time></trkpt><trkpt lat="44.1929212" lon="10.4970745"><ele>1618.6666666666667</ele><time>2026-04-18T10:12:00Z</time></trkpt><trkpt lat="44.1928658" lon="10.4971514"><ele>1618.3333333333335</ele><time>2026-04-18T10:12:04Z</time></trkpt><trkpt lat="44.1928095" lon="10.4972146"><ele>1618.0</ele><time>2026-04-18T10:12:08Z</time></trkpt><trkpt lat="44.1927573" lon="10.4972897"><ele>1618.0</ele><time>2026-04-18T10:12:12Z</time></trkpt><trkpt lat="44.192701" lon="10.4973591"><ele>1618.0</ele><time>2026-04-18T10:12:16Z</time></trkpt><trkpt lat="44.1926384" lon="10.4974208"><ele>1618.0</ele><time>2026-04-18T10:12:20Z</time></trkpt><trkpt lat="44.1925751" lon="10.4974884"><ele>1618.0</ele><time>2026-04-18T10:12:24Z</time></trkpt><trkpt lat="44.1925194" lon="10.4975498"><ele>1618.0</ele><time>2026-04-18T10:12:28Z</time></trkpt><trkpt lat="44.1924646" lon="10.4976144"><ele>1618.0</ele><time>2026-04-18T10:12:32Z</time></trkpt><trkpt lat="44.1924137" lon="10.4976826"><ele>1618.0</ele><time>2026-04-18T10:12:36Z</time></trkpt><trkpt lat="44.1923647" lon="10.4977384"><ele>1617.1666666666667</ele><time>2026-04-18T10:12:39Z</time></trkpt><trkpt lat="44.1923078" lon="10.4978164"><ele>1616.3333333333335</ele><time>2026-04-18T10:12:43Z</time></trkpt><trkpt lat="44.1922604" lon="10.4978953"><ele>1615.5</ele><time>2026-04-18T10:12:47Z</time></trkpt><trkpt lat="44.1922199" lon="10.4979991"><ele>1614.6666666666665</ele><time>2026-04-18T10:12:51Z</time></trkpt><trkpt lat="44.192179" lon="10.4981125"><ele>1613.8333333333333</ele><time>2026-04-18T10:12:53.999Z</time></trkpt><trkpt lat="44.1921437" lon="10.4982065"><ele>1613.0</ele><time>2026-04-18T10:12:56Z</time></trkpt><trkpt lat="44.1921061" lon="10.4983031"><ele>1613.0</ele><time>2026-04-18T10:12:58Z</time></trkpt><trkpt lat="44.1920632" lon="10.4984097"><ele>1613.0</ele><time>2026-04-18T10:13:00Z</time></trkpt><trkpt lat="44.1920155" lon="10.4985172"><ele>1613.0</ele><time>2026-04-18T10:13:02Z</time></trkpt><trkpt lat="44.1919748" lon="10.4986332"><ele>1613.0</ele><time>2026-04-18T10:13:04Z</time></trkpt><trkpt lat="44.1919388" lon="10.4987457"><ele>1613.0</ele><time>2026-04-18T10:13:06Z</time></trkpt><trkpt lat="44.1918854" lon="10.4988502"><ele>1614.1666666666665</ele><time>2026-04-18T10:13:08Z</time></trkpt><trkpt lat="44.191839" lon="10.4989568"><ele>1615.3333333333333</ele><time>2026-04-18T10:13:10Z</time></trkpt><trkpt lat="44.1917899" lon="10.4990564"><ele>1616.5</ele><time>2026-04-18T10:13:12Z</time></trkpt><trkpt lat="44.1917447" lon="10.4991539"><ele>1617.6666666666665</ele><time>2026-04-18T10:13:14Z</time></trkpt><trkpt lat="44.1916859" lon="10.4992431"><ele>1618.8333333333333</ele><time>2026-04-18T10:13:16Z</time></trkpt><trkpt lat="44.1916349" lon="10.499328"><ele>1620.0</ele><time>2026-04-18T10:13:18Z</time></trkpt><trkpt lat="44.1915756" lon="10.499397"><ele>1619.9999999999998</ele><time>2026-04-18T10:13:20Z</time></trkpt><trkpt lat="44.1915221" lon="10.4994593"><ele>1620.0</ele><time>2026-04-18T10:13:22Z</time></trkpt><trkpt lat="44.1914691" lon="10.4995537"><ele>1620.0</ele><time>2026-04-18T10:13:25Z</time></trkpt><trkpt lat="44.1914102" lon="10.4996212"><ele>1620.0</ele><time>2026-04-18T10:13:28Z</time></trkpt><trkpt lat="44.1913544" lon="10.4996828"><ele>1620.0</ele><time>2026-04-18T10:13:31Z</time></trkpt><trkpt lat="44.1912938" lon="10.4997228"><ele>1619.9999999999998</ele><time>2026-04-18T10:13:34Z</time></trkpt><trkpt lat="44.1912363" lon="10.4997604"><ele>1620.0</ele><time>2026-04-18T10:13:37Z</time></trkpt><trkpt lat="44.191179" lon="10.4998005"><ele>1620.0</ele><time>2026-04-18T10:13:40Z</time></trkpt><trkpt lat="44.1911121" lon="10.4998272"><ele>1620.0</ele><time>2026-04-18T10:13:43Z</time></trkpt><trkpt lat="44.1910333" lon="10.499864"><ele>1620.0</ele><time>2026-04-18T10:13:47Z</time></trkpt><trkpt lat="44.1909566" lon="10.4998966"><ele>1620.0</ele><time>2026-04-18T10:13:51Z</time></trkpt><trkpt lat="44.1908918" lon="10.4999066"><ele>1620.0</ele><time>2026-04-18T10:13:54Z</time></trkpt><trkpt lat="44.1908175" lon="10.4999472"><ele>1620.0</ele><time>2026-04-18T10:13:58Z</time></trkpt><trkpt lat="44.1907521" lon="10.5000166"><ele>1619.9999999999998</ele><time>2026-04-18T10:14:02Z</time></trkpt><trkpt lat="44.1907158" lon="10.5000893"><ele>1620.0</ele><time>2026-04-18T10:14:05Z</time></trkpt><trkpt lat="44.1906728" lon="10.5001538"><ele>1620.0</ele><time>2026-04-18T10:14:08Z</time></trkpt><trkpt lat="44.1906208" lon="10.5002155"><ele>1620.0</ele><time>2026-04-18T10:14:11Z</time></trkpt><trkpt lat="44.1905478" lon="10.5002823"><ele>1620.0</ele><time>2026-04-18T10:14:15Z</time></trkpt><trkpt lat="44.1904769" lon="10.5003363"><ele>1619.9999999999998</ele><time>2026-04-18T10:14:19Z</time></trkpt><trkpt lat="44.1904074" lon="10.5003815"><ele>1620.0</ele><time>2026-04-18T10:14:23Z</time></trkpt><trkpt lat="44.1903369" lon="10.5004063"><ele>1621.7142857142856</ele><time>2026-04-18T10:14:26Z</time></trkpt><trkpt lat="44.1902744" lon="10.5004319"><ele>1623.4285714285713</ele><time>2026-04-18T10:14:29Z</time></trkpt><trkpt lat="44.1902" lon="10.5004447"><ele>1625.142857142857</ele><time>2026-04-18T10:14:32Z</time></trkpt><trkpt lat="44.1901277" lon="10.5004593"><ele>1626.8571428571427</ele><time>2026-04-18T10:14:35Z</time></trkpt><trkpt lat="44.1900693" lon="10.5004956"><ele>1628.5714285714287</ele><time>2026-04-18T10:14:38Z</time></trkpt><trkpt lat="44.1900114" lon="10.5005439"><ele>1630.2857142857142</ele><time>2026-04-18T10:14:41Z</time></trkpt><trkpt lat="44.1899428" lon="10.5005947"><ele>1632.0</ele><time>2026-04-18T10:14:44Z</time></trkpt><trkpt lat="44.189875" lon="10.5006355"><ele>1628.7142857142858</ele><time>2026-04-18T10:14:47Z</time></trkpt><trkpt lat="44.1898103" lon="10.5006731"><ele>1625.4285714285716</ele><time>2026-04-18T10:14:50Z</time></trkpt><trkpt lat="44.1897421" lon="10.5007367"><ele>1622.142857142857</ele><time>2026-04-18T10:14:54Z</time></trkpt><trkpt lat="44.1896919" lon="10.5008049"><ele>1618.857142857143</ele><time>2026-04-18T10:14:57Z</time></trkpt><trkpt lat="44.1896329" lon="10.500891"><ele>1615.5714285714284</ele><time>2026-04-18T10:15:00Z</time></trkpt><trkpt lat="44.189593" lon="10.5009608"><ele>1612.2857142857142</ele><time>2026-04-18T10:15:02Z</time></trkpt><trkpt lat="44.1895488" lon="10.5010375"><ele>1609.0</ele><time>2026-04-18T10:15:04Z</time></trkpt><trkpt lat="44.1895119" lon="10.5011165"><ele>1609.0000000000002</ele><time>2026-04-18T10:15:06Z</time></trkpt><trkpt lat="44.1894907" lon="10.5012061"><ele>1609.0</ele><time>2026-04-18T10:15:08Z</time></trkpt><trkpt lat="44.1894751" lon="10.5013014"><ele>1609.0</ele><time>2026-04-18T10:15:10Z</time></trkpt><trkpt lat="44.1894662" lon="10.5014136"><ele>1609.0</ele><time>2026-04-18T10:15:12Z</time></trkpt><trkpt lat="44.1894869" lon="10.501566"><ele>1609.0000000000002</ele><time>2026-04-18T10:15:14Z</time></trkpt><trkpt lat="44.1895023" lon="10.5017235"><ele>1609.0</ele><time>2026-04-18T10:15:16Z</time></trkpt><trkpt lat="44.1895013" lon="10.501884"><ele>1609.4</ele><time>2026-04-18T10:15:18Z</time></trkpt><trkpt lat="44.1894917" lon="10.5020367"><ele>1609.8000000000002</ele><time>2026-04-18T10:15:20Z</time></trkpt><trkpt lat="44.1894694" lon="10.5021779"><ele>1610.1999999999998</ele><time>2026-04-18T10:15:22Z</time></trkpt><trkpt lat="44.1894326" lon="10.5023174"><ele>1610.6</ele><time>2026-04-18T10:15:24Z</time></trkpt><trkpt lat="44.1893781" lon="10.5024461"><ele>1611.0</ele><time>2026-04-18T10:15:26Z</time></trkpt><trkpt lat="44.1893234" lon="10.5025834"><ele>1611.6</ele><time>2026-04-18T10:15:28Z</time></trkpt><trkpt lat="44.1892795" lon="10.5027256"><ele>1612.1999999999998</ele><time>2026-04-18T10:15:30Z</time></trkpt><trkpt lat="44.1892643" lon="10.5028121"><ele>1612.8000000000002</ele><time>2026-04-18T10:15:31Z</time></trkpt><trkpt lat="44.1892599" lon="10.5029785"><ele>1613.4</ele><time>2026-04-18T10:15:33Z</time></trkpt><trkpt lat="44.1892218" lon="10.5030782"><ele>1614.0</ele><time>2026-04-18T10:15:34Z</time></trkpt><trkpt lat="44.1891752" lon="10.5031674"><ele>1614.8333333333333</ele><time>2026-04-18T10:15:35Z</time></trkpt><trkpt lat="44.1891193" lon="10.5032546"><ele>1615.6666666666665</ele><time>2026-04-18T10:15:36Z</time></trkpt><trkpt lat="44.1890708" lon="10.5033422"><ele>1616.5</ele><time>2026-04-18T10:15:37Z</time></trkpt><trkpt lat="44.1890193" lon="10.5034182"><ele>1617.3333333333333</ele><time>2026-04-18T10:15:38Z</time></trkpt><trkpt lat="44.1889679" lon="10.5035174"><ele>1618.1666666666665</ele><time>2026-04-18T10:15:39Z</time></trkpt><trkpt lat="44.1889118" lon="10.5036045"><ele>1619.0</ele><time>2026-04-18T10:15:40Z</time></trkpt><trkpt lat="44.1888399" lon="10.5036933"><ele>1614.0</ele><time>2026-04-18T10:15:41Z</time></trkpt><trkpt lat="44.1887827" lon="10.5037911"><ele>1609.0</ele><time>2026-04-18T10:15:42Z</time></trkpt><trkpt lat="44.1887281" lon="10.503909"><ele>1604.0</ele><time>2026-04-18T10:15:43Z</time></trkpt><trkpt lat="44.1886786" lon="10.5040319"><ele>1599.0</ele><time>2026-04-18T10:15:44Z</time></trkpt><trkpt lat="44.1886227" lon="10.5041572"><ele>1594.0</ele><time>2026-04-18T10:15:45Z</time></trkpt><trkpt lat="44.1885638" lon="10.5042827"><ele>1594.0</ele><time>2026-04-18T10:15:46Z</time></trkpt><trkpt lat="44.188513" lon="10.5044166"><ele>1594.0</ele><time>2026-04-18T10:15:47Z</time></trkpt><trkpt lat="44.1884609" lon="10.5045423"><ele>1594.0</ele><time>2026-04-18T10:15:48Z</time></trkpt><trkpt lat="44.18841" lon="10.5046749"><ele>1594.0</ele><time>2026-04-18T10:15:49Z</time></trkpt><trkpt lat="44.1883583" lon="10.5047984"><ele>1594.0</ele><time>2026-04-18T10:15:50Z</time></trkpt><trkpt lat="44.1882939" lon="10.5049196"><ele>1594.8000000000002</ele><time>2026-04-18T10:15:51Z</time></trkpt><trkpt lat="44.1882411" lon="10.5050339"><ele>1595.6000000000001</ele><time>2026-04-18T10:15:52Z</time></trkpt><trkpt lat="44.1881769" lon="10.5051443"><ele>1596.4</ele><time>2026-04-18T10:15:53Z</time></trkpt><trkpt lat="44.1881118" lon="10.5052512"><ele>1597.2</ele><time>2026-04-18T10:15:54Z</time></trkpt><trkpt lat="44.188044" lon="10.5053726"><ele>1598.0</ele><time>2026-04-18T10:15:55Z</time></trkpt><trkpt lat="44.187975" lon="10.5054724"><ele>1595.2</ele><time>2026-04-18T10:15:56Z</time></trkpt><trkpt lat="44.1879029" lon="10.5055682"><ele>1592.4</ele><time>2026-04-18T10:15:57Z</time></trkpt><trkpt lat="44.1878224" lon="10.505668"><ele>1589.6000000000001</ele><time>2026-04-18T10:15:58Z</time></trkpt><trkpt lat="44.1877439" lon="10.5057704"><ele>1586.8000000000002</ele><time>2026-04-18T10:15:59Z</time></trkpt><trkpt lat="44.1876674" lon="10.5058671"><ele>1584.0</ele><time>2026-04-18T10:16:00Z</time></trkpt><trkpt lat="44.1875921" lon="10.5059673"><ele>1584.0</ele><time>2026-04-18T10:16:01Z</time></trkpt><trkpt lat="44.1875163" lon="10.5060679"><ele>1584.0</ele><time>2026-04-18T10:16:02Z</time></trkpt><trkpt lat="44.1874406" lon="10.5061705"><ele>1584.0</ele><time>2026-04-18T10:16:03Z</time></trkpt><trkpt lat="44.1873668" lon="10.5062723"><ele>1584.0</ele><time>2026-04-18T10:16:04Z</time></trkpt><trkpt lat="44.1873018" lon="10.5063867"><ele>1584.0</ele><time>2026-04-18T10:16:05Z</time></trkpt><trkpt lat="44.1872429" lon="10.5065033"><ele>1579.8000000000002</ele><time>2026-04-18T10:16:06Z</time></trkpt><trkpt lat="44.1871901" lon="10.5066214"><ele>1575.6000000000001</ele><time>2026-04-18T10:16:07Z</time></trkpt><trkpt lat="44.1871451" lon="10.5067448"><ele>1571.4</ele><time>2026-04-18T10:16:08Z</time></trkpt><trkpt lat="44.1871052" lon="10.5068527"><ele>1567.2</ele><time>2026-04-18T10:16:08.999Z</time></trkpt><trkpt lat="44.1870624" lon="10.5069641"><ele>1563.0</ele><time>2026-04-18T10:16:10Z</time></trkpt><trkpt lat="44.1870259" lon="10.5070741"><ele>1565.0</ele><time>2026-04-18T10:16:11Z</time></trkpt><trkpt lat="44.1869892" lon="10.5071772"><ele>1567.0</ele><time>2026-04-18T10:16:12Z</time></trkpt><trkpt lat="44.1869532" lon="10.5072792"><ele>1569.0</ele><time>2026-04-18T10:16:13Z</time></trkpt><trkpt lat="44.1869167" lon="10.5073756"><ele>1571.0</ele><time>2026-04-18T10:16:14Z</time></trkpt><trkpt lat="44.1868802" lon="10.5074644"><ele>1573.0</ele><time>2026-04-18T10:16:15Z</time></trkpt><trkpt lat="44.1868578" lon="10.5075619"><ele>1575.0</ele><time>2026-04-18T10:16:16Z</time></trkpt><trkpt lat="44.1868403" lon="10.5076543"><ele>1575.0</ele><time>2026-04-18T10:16:17Z</time></trkpt><trkpt lat="44.1868255" lon="10.507799"><ele>1575.0</ele><time>2026-04-18T10:16:19Z</time></trkpt><trkpt lat="44.186862" lon="10.5079241"><ele>1575.0</ele><time>2026-04-18T10:16:21Z</time></trkpt><trkpt lat="44.1869067" lon="10.5080039"><ele>1575.0</ele><time>2026-04-18T10:16:23Z</time></trkpt><trkpt lat="44.186966" lon="10.5080693"><ele>1575.0</ele><time>2026-04-18T10:16:26Z</time></trkpt><trkpt lat="44.1870076" lon="10.508147"><ele>1575.0</ele><time>2026-04-18T10:16:30Z</time></trkpt><trkpt lat="44.1870164" lon="10.5082351"><ele>1575.857142857143</ele><time>2026-04-18T10:16:34Z</time></trkpt><trkpt lat="44.1870069" lon="10.5083256"><ele>1576.7142857142858</ele><time>2026-04-18T10:16:38Z</time></trkpt><trkpt lat="44.1869851" lon="10.5084273"><ele>1577.5714285714284</ele><time>2026-04-18T10:16:42Z</time></trkpt><trkpt lat="44.1869454" lon="10.5085032"><ele>1578.4285714285716</ele><time>2026-04-18T10:16:46Z</time></trkpt><trkpt lat="44.1869167" lon="10.5085914"><ele>1579.2857142857142</ele><time>2026-04-18T10:16:51Z</time></trkpt><trkpt lat="44.1868926" lon="10.5086787"><ele>1580.142857142857</ele><time>2026-04-18T10:16:56Z</time></trkpt><trkpt lat="44.1868702" lon="10.5087628"><ele>1581.0</ele><time>2026-04-18T10:17:01Z</time></trkpt><trkpt lat="44.1868629" lon="10.5088538"><ele>1582.4285714285713</ele><time>2026-04-18T10:17:06Z</time></trkpt><trkpt lat="44.1868499" lon="10.5089455"><ele>1583.8571428571427</ele><time>2026-04-18T10:17:11Z</time></trkpt><trkpt lat="44.1868379" lon="10.5090391"><ele>1585.2857142857142</ele><time>2026-04-18T10:17:17Z</time></trkpt><trkpt lat="44.1867971" lon="10.5091347"><ele>1586.7142857142858</ele><time>2026-04-18T10:17:22Z</time></trkpt><trkpt lat="44.1867451" lon="10.5091978"><ele>1588.142857142857</ele><time>2026-04-18T10:17:26Z</time></trkpt><trkpt lat="44.1866915" lon="10.5092733"><ele>1589.5714285714287</ele><time>2026-04-18T10:17:32Z</time></trkpt><trkpt lat="44.1866392" lon="10.5093289"><ele>1591.0</ele><time>2026-04-18T10:17:37Z</time></trkpt><trkpt lat="44.1865857" lon="10.5093977"><ele>1591.0</ele><time>2026-04-18T10:17:43Z</time></trkpt><trkpt lat="44.1865471" lon="10.5094774"><ele>1591.0</ele><time>2026-04-18T10:17:47Z</time></trkpt><trkpt lat="44.1865057" lon="10.5095533"><ele>1591.0</ele><time>2026-04-18T10:17:51Z</time></trkpt><trkpt lat="44.186465" lon="10.5096418"><ele>1591.0</ele><time>2026-04-18T10:17:56Z</time></trkpt><trkpt lat="44.1864361" lon="10.5097328"><ele>1591.0</ele><time>2026-04-18T10:18:00Z</time></trkpt><trkpt lat="44.186428" lon="10.5098232"><ele>1591.0</ele><time>2026-04-18T10:18:04Z</time></trkpt><trkpt lat="44.1864013" lon="10.5099226"><ele>1591.0</ele><time>2026-04-18T10:18:08Z</time></trkpt><trkpt lat="44.1863641" lon="10.5100344"><ele>1591.6666666666667</ele><time>2026-04-18T10:18:11Z</time></trkpt><trkpt lat="44.1863142" lon="10.5101319"><ele>1592.3333333333335</ele><time>2026-04-18T10:18:13Z</time></trkpt><trkpt lat="44.1862568" lon="10.5102487"><ele>1593.0</ele><time>2026-04-18T10:18:15Z</time></trkpt><trkpt lat="44.1862179" lon="10.5103675"><ele>1593.6666666666665</ele><time>2026-04-18T10:18:17Z</time></trkpt><trkpt lat="44.1861884" lon="10.5104578"><ele>1594.3333333333333</ele><time>2026-04-18T10:18:19Z</time></trkpt><trkpt lat="44.1861511" lon="10.5105331"><ele>1595.0</ele><time>2026-04-18T10:18:21Z</time></trkpt><trkpt lat="44.1861177" lon="10.5106418"><ele>1595.0</ele><time>2026-04-18T10:18:24Z</time></trkpt><trkpt lat="44.1860922" lon="10.5107252"><ele>1595.0</ele><time>2026-04-18T10:18:27Z</time></trkpt><trkpt lat="44.1860434" lon="10.5107958"><ele>1595.0</ele><time>2026-04-18T10:18:31Z</time></trkpt><trkpt lat="44.1859933" lon="10.5108498"><ele>1595.0</ele><time>2026-04-18T10:18:34Z</time></trkpt><trkpt lat="44.1859317" lon="10.5108786"><ele>1595.0</ele><time>2026-04-18T10:18:36Z</time></trkpt><trkpt lat="44.1858608" lon="10.5108979"><ele>1595.0</ele><time>2026-04-18T10:18:39Z</time></trkpt><trkpt lat="44.1858047" lon="10.510947"><ele>1595.0</ele><time>2026-04-18T10:18:42Z</time></trkpt><trkpt lat="44.1857516" lon="10.5109965"><ele>1595.0</ele><time>2026-04-18T10:18:45Z</time></trkpt><trkpt lat="44.1856919" lon="10.5110422"><ele>1595.0</ele><time>2026-04-18T10:18:49Z</time></trkpt><trkpt lat="44.1856229" lon="10.5110723"><ele>1595.0</ele><time>2026-04-18T10:18:54Z</time></trkpt><trkpt lat="44.185562" lon="10.5111195"><ele>1595.0</ele><time>2026-04-18T10:18:59Z</time></trkpt><trkpt lat="44.185499" lon="10.5111725"><ele>1595.0</ele><time>2026-04-18T10:19:04Z</time></trkpt><trkpt lat="44.1854475" lon="10.5112262"><ele>1595.0</ele><time>2026-04-18T10:19:09Z</time></trkpt><trkpt lat="44.1853907" lon="10.5113012"><ele>1595.0</ele><time>2026-04-18T10:19:14Z</time></trkpt><trkpt lat="44.1853444" lon="10.5113615"><ele>1595.7142857142858</ele><time>2026-04-18T10:19:18Z</time></trkpt><trkpt lat="44.1852821" lon="10.5114156"><ele>1596.4285714285713</ele><time>2026-04-18T10:19:22Z</time></trkpt><trkpt lat="44.1852236" lon="10.5114712"><ele>1597.1428571428573</ele><time>2026-04-18T10:19:27Z</time></trkpt><trkpt lat="44.1851576" lon="10.511503"><ele>1597.857142857143</ele><time>2026-04-18T10:19:32Z</time></trkpt><trkpt lat="44.1850949" lon="10.5115539"><ele>1598.5714285714287</ele><time>2026-04-18T10:19:36Z</time></trkpt><trkpt lat="44.1850297" lon="10.5116077"><ele>1599.2857142857144</ele><time>2026-04-18T10:19:40Z</time></trkpt><trkpt lat="44.1849728" lon="10.5116889"><ele>1600.0</ele><time>2026-04-18T10:19:44Z</time></trkpt><trkpt lat="44.184935" lon="10.5117731"><ele>1600.0000000000002</ele><time>2026-04-18T10:19:48Z</time></trkpt><trkpt lat="44.1848975" lon="10.5118469"><ele>1600.0</ele><time>2026-04-18T10:19:52Z</time></trkpt><trkpt lat="44.1848465" lon="10.5119188"><ele>1600.0</ele><time>2026-04-18T10:19:56Z</time></trkpt><trkpt lat="44.1847975" lon="10.511986"><ele>1600.0</ele><time>2026-04-18T10:20:00Z</time></trkpt><trkpt lat="44.184745" lon="10.5120494"><ele>1600.0</ele><time>2026-04-18T10:20:04Z</time></trkpt><trkpt lat="44.184697" lon="10.5121213"><ele>1600.0000000000002</ele><time>2026-04-18T10:20:08Z</time></trkpt><trkpt lat="44.1846666" lon="10.5122096"><ele>1600.0</ele><time>2026-04-18T10:20:12Z</time></trkpt><trkpt lat="44.1846304" lon="10.5122881"><ele>1599.857142857143</ele><time>2026-04-18T10:20:16Z</time></trkpt><trkpt lat="44.1845808" lon="10.5123698"><ele>1599.7142857142858</ele><time>2026-04-18T10:20:21Z</time></trkpt><trkpt lat="44.1845378" lon="10.5124358"><ele>1599.5714285714284</ele><time>2026-04-18T10:20:25Z</time></trkpt><trkpt lat="44.1844828" lon="10.5125082"><ele>1599.4285714285716</ele><time>2026-04-18T10:20:30Z</time></trkpt><trkpt lat="44.1844281" lon="10.5125742"><ele>1599.2857142857142</ele><time>2026-04-18T10:20:35Z</time></trkpt><trkpt lat="44.1843807" lon="10.512633"><ele>1599.142857142857</ele><time>2026-04-18T10:20:40Z</time></trkpt><trkpt lat="44.1843263" lon="10.5127003"><ele>1599.0</ele><time>2026-04-18T10:20:45Z</time></trkpt><trkpt lat="44.1842798" lon="10.5127612"><ele>1598.9999999999998</ele><time>2026-04-18T10:20:50Z</time></trkpt><trkpt lat="44.1842244" lon="10.5128329"><ele>1599.0</ele><time>2026-04-18T10:20:54.999Z</time></trkpt><trkpt lat="44.1841752" lon="10.5128927"><ele>1599.0</ele><time>2026-04-18T10:21:00Z</time></trkpt><trkpt lat="44.1841173" lon="10.5129566"><ele>1599.0</ele><time>2026-04-18T10:21:06Z</time></trkpt><trkpt lat="44.1840625" lon="10.5130195"><ele>1599.0</ele><time>2026-04-18T10:21:10Z</time></trkpt><trkpt lat="44.184009" lon="10.5130895"><ele>1598.9999999999998</ele><time>2026-04-18T10:21:14Z</time></trkpt><trkpt lat="44.1839623" lon="10.5131506"><ele>1599.0</ele><time>2026-04-18T10:21:18Z</time></trkpt><trkpt lat="44.1839141" lon="10.5132127"><ele>1599.7142857142856</ele><time>2026-04-18T10:21:21.999Z</time></trkpt><trkpt lat="44.1838623" lon="10.5132639"><ele>1600.4285714285713</ele><time>2026-04-18T10:21:26.935Z</time></trkpt><trkpt lat="44.1838046" lon="10.5133197"><ele>1601.142857142857</ele><time>2026-04-18T10:21:31Z</time></trkpt><trkpt lat="44.1837516" lon="10.5133946"><ele>1601.8571428571427</ele><time>2026-04-18T10:21:35Z</time></trkpt><trkpt lat="44.1836984" lon="10.5134627"><ele>1602.5714285714287</ele><time>2026-04-18T10:21:39Z</time></trkpt><trkpt lat="44.1836567" lon="10.5135368"><ele>1603.2857142857142</ele><time>2026-04-18T10:21:43Z</time></trkpt><trkpt lat="44.1836156" lon="10.5136209"><ele>1604.0</ele><time>2026-04-18T10:21:48Z</time></trkpt><trkpt lat="44.1835716" lon="10.5137065"><ele>1603.4285714285716</ele><time>2026-04-18T10:21:52.939Z</time></trkpt><trkpt lat="44.1835308" lon="10.5137939"><ele>1602.857142857143</ele><time>2026-04-18T10:21:57.978Z</time></trkpt><trkpt lat="44.1834782" lon="10.5138501"><ele>1602.2857142857142</ele><time>2026-04-18T10:22:02Z</time></trkpt><trkpt lat="44.1834202" lon="10.5139094"><ele>1601.7142857142858</ele><time>2026-04-18T10:22:06.981Z</time></trkpt><trkpt lat="44.1833659" lon="10.5139732"><ele>1601.142857142857</ele><time>2026-04-18T10:22:10.72Z</time></trkpt><trkpt lat="44.1833206" lon="10.5140496"><ele>1600.5714285714287</ele><time>2026-04-18T10:22:15Z</time></trkpt><trkpt lat="44.1832776" lon="10.5141323"><ele>1600.0</ele><time>2026-04-18T10:22:20Z</time></trkpt><trkpt lat="44.1832235" lon="10.5141942"><ele>1600.8333333333335</ele><time>2026-04-18T10:22:25.02Z</time></trkpt><trkpt lat="44.1831777" lon="10.5142662"><ele>1601.6666666666667</ele><time>2026-04-18T10:22:29Z</time></trkpt><trkpt lat="44.1831311" lon="10.5143486"><ele>1602.5</ele><time>2026-04-18T10:22:34Z</time></trkpt><trkpt lat="44.1830885" lon="10.5144457"><ele>1603.3333333333335</ele><time>2026-04-18T10:22:39Z</time></trkpt><trkpt lat="44.1830273" lon="10.5145234"><ele>1604.1666666666667</ele><time>2026-04-18T10:22:43.001Z</time></trkpt><trkpt lat="44.1829667" lon="10.5145665"><ele>1605.0</ele><time>2026-04-18T10:22:47Z</time></trkpt><trkpt lat="44.1828916" lon="10.5146006"><ele>1605.0</ele><time>2026-04-18T10:22:52Z</time></trkpt><trkpt lat="44.1828345" lon="10.5146483"><ele>1605.0</ele><time>2026-04-18T10:22:57Z</time></trkpt><trkpt lat="44.1827829" lon="10.5146989"><ele>1605.0</ele><time>2026-04-18T10:23:02Z</time></trkpt><trkpt lat="44.1827454" lon="10.5147925"><ele>1605.0</ele><time>2026-04-18T10:23:07Z</time></trkpt><trkpt lat="44.1827257" lon="10.5148986"><ele>1605.0</ele><time>2026-04-18T10:23:12Z</time></trkpt><trkpt lat="44.1827056" lon="10.5149819"><ele>1605.0</ele><time>2026-04-18T10:23:16.036Z</time></trkpt><trkpt lat="44.1826772" lon="10.5150833"><ele>1605.0</ele><time>2026-04-18T10:23:21.043Z</time></trkpt><trkpt lat="44.1826628" lon="10.5151869"><ele>1605.0</ele><time>2026-04-18T10:23:26Z</time></trkpt><trkpt lat="44.1826572" lon="10.5152879"><ele>1605.0</ele><time>2026-04-18T10:23:30.954Z</time></trkpt><trkpt lat="44.1826523" lon="10.5153763"><ele>1605.0</ele><time>2026-04-18T10:23:36Z</time></trkpt><trkpt lat="44.1826542" lon="10.515465"><ele>1605.0</ele><time>2026-04-18T10:23:40.999Z</time></trkpt><trkpt lat="44.1826594" lon="10.5155628"><ele>1605.0</ele><time>2026-04-18T10:23:45.921Z</time></trkpt><trkpt lat="44.1826675" lon="10.515663"><ele>1605.0</ele><time>2026-04-18T10:23:50.979Z</time></trkpt><trkpt lat="44.1826563" lon="10.5157597"><ele>1605.0</ele><time>2026-04-18T10:23:56Z</time></trkpt><trkpt lat="44.1826333" lon="10.5158522"><ele>1606.5</ele><time>2026-04-18T10:24:01Z</time></trkpt><trkpt lat="44.182613" lon="10.5159545"><ele>1608.0</ele><time>2026-04-18T10:24:06Z</time></trkpt><trkpt lat="44.1825833" lon="10.5160444"><ele>1609.5</ele><time>2026-04-18T10:24:11Z</time></trkpt><trkpt lat="44.182554" lon="10.5161363"><ele>1611.0</ele><time>2026-04-18T10:24:16Z</time></trkpt><trkpt lat="44.1825229" lon="10.5162257"><ele>1612.5</ele><time>2026-04-18T10:24:21Z</time></trkpt><trkpt lat="44.1824797" lon="10.5163096"><ele>1614.0</ele><time>2026-04-18T10:24:26Z</time></trkpt><trkpt lat="44.1824243" lon="10.5163998"><ele>1614.5714285714287</ele><time>2026-04-18T10:24:31Z</time></trkpt><trkpt lat="44.182375" lon="10.5164666"><ele>1615.142857142857</ele><time>2026-04-18T10:24:36Z</time></trkpt><trkpt lat="44.1823341" lon="10.5165525"><ele>1615.7142857142858</ele><time>2026-04-18T10:24:41Z</time></trkpt><trkpt lat="44.1822824" lon="10.5166213"><ele>1616.2857142857142</ele><time>2026-04-18T10:24:46Z</time></trkpt><trkpt lat="44.1822387" lon="10.5166946"><ele>1616.857142857143</ele><time>2026-04-18T10:24:51Z</time></trkpt><trkpt lat="44.1821971" lon="10.5167789"><ele>1617.4285714285716</ele><time>2026-04-18T10:24:57Z</time></trkpt><trkpt lat="44.18216" lon="10.5168627"><ele>1618.0</ele><time>2026-04-18T10:25:15Z</time></trkpt><trkpt lat="44.1821196" lon="10.516948"><ele>1618.0</ele><time>2026-04-18T10:25:20Z</time></trkpt><trkpt lat="44.182069" lon="10.5170184"><ele>1618.0</ele><time>2026-04-18T10:25:26Z</time></trkpt><trkpt lat="44.1820225" lon="10.5171125"><ele>1618.0</ele><time>2026-04-18T10:25:33Z</time></trkpt><trkpt lat="44.1819941" lon="10.5171922"><ele>1618.0</ele><time>2026-04-18T10:25:39Z</time></trkpt><trkpt lat="44.1820297" lon="10.5172753"><ele>1618.0</ele><time>2026-04-18T10:25:45Z</time></trkpt><trkpt lat="44.1819553" lon="10.5172525"><ele>1618.0</ele><time>2026-04-18T10:26:35Z</time></trkpt><trkpt lat="44.1818845" lon="10.5172558"><ele>1618.0</ele><time>2026-04-18T10:26:40Z</time></trkpt><trkpt lat="44.1818198" lon="10.5172966"><ele>1619.5714285714287</ele><time>2026-04-18T10:26:45Z</time></trkpt><trkpt lat="44.1817544" lon="10.517299"><ele>1621.1428571428573</ele><time>2026-04-18T10:26:50Z</time></trkpt><trkpt lat="44.1816808" lon="10.5172846"><ele>1622.7142857142858</ele><time>2026-04-18T10:26:57Z</time></trkpt><trkpt lat="44.1816273" lon="10.5173434"><ele>1624.2857142857142</ele><time>2026-04-18T10:27:02Z</time></trkpt><trkpt lat="44.1815753" lon="10.5173991"><ele>1625.857142857143</ele><time>2026-04-18T10:27:07Z</time></trkpt><trkpt lat="44.1815228" lon="10.5174494"><ele>1627.4285714285713</ele><time>2026-04-18T10:27:12Z</time></trkpt><trkpt lat="44.1814584" lon="10.5174808"><ele>1629.0</ele><time>2026-04-18T10:27:17Z</time></trkpt><trkpt lat="44.1814107" lon="10.5175396"><ele>1630.4285714285713</ele><time>2026-04-18T10:27:21Z</time></trkpt><trkpt lat="44.1813564" lon="10.5176131"><ele>1631.857142857143</ele><time>2026-04-18T10:27:26Z</time></trkpt><trkpt lat="44.1813082" lon="10.5176707"><ele>1633.2857142857142</ele><time>2026-04-18T10:27:30Z</time></trkpt><trkpt lat="44.1812437" lon="10.5177333"><ele>1634.7142857142858</ele><time>2026-04-18T10:27:35Z</time></trkpt><trkpt lat="44.1811857" lon="10.5178063"><ele>1636.1428571428573</ele><time>2026-04-18T10:27:40Z</time></trkpt><trkpt lat="44.181134" lon="10.5178624"><ele>1637.5714285714287</ele><time>2026-04-18T10:27:44Z</time></trkpt><trkpt lat="44.1810693" lon="10.5179072"><ele>1639.0</ele><time>2026-04-18T10:27:48Z</time></trkpt><trkpt lat="44.1809914" lon="10.5179346"><ele>1639.7142857142858</ele><time>2026-04-18T10:28:05Z</time></trkpt><trkpt lat="44.1809281" lon="10.5179664"><ele>1640.4285714285716</ele><time>2026-04-18T10:28:09Z</time></trkpt><trkpt lat="44.1808567" lon="10.5179962"><ele>1641.142857142857</ele><time>2026-04-18T10:28:15Z</time></trkpt><trkpt lat="44.1807972" lon="10.5180282"><ele>1641.857142857143</ele><time>2026-04-18T10:28:21Z</time></trkpt><trkpt lat="44.1807327" lon="10.5180755"><ele>1642.5714285714284</ele><time>2026-04-18T10:28:27Z</time></trkpt><trkpt lat="44.1806755" lon="10.5181455"><ele>1643.2857142857142</ele><time>2026-04-18T10:28:32Z</time></trkpt><trkpt lat="44.1806247" lon="10.5182142"><ele>1644.0</ele><time>2026-04-18T10:28:37Z</time></trkpt><trkpt lat="44.1805629" lon="10.5182439"><ele>1646.142857142857</ele><time>2026-04-18T10:28:42Z</time></trkpt><trkpt lat="44.1804921" lon="10.5182786"><ele>1648.2857142857142</ele><time>2026-04-18T10:28:48Z</time></trkpt><trkpt lat="44.1804263" lon="10.5183143"><ele>1650.4285714285716</ele><time>2026-04-18T10:28:54Z</time></trkpt><trkpt lat="44.1803538" lon="10.5183242"><ele>1652.5714285714284</ele><time>2026-04-18T10:29:00Z</time></trkpt><trkpt lat="44.18029" lon="10.5183381"><ele>1654.7142857142858</ele><time>2026-04-18T10:29:05Z</time></trkpt><trkpt lat="44.180219" lon="10.5183454"><ele>1656.857142857143</ele><time>2026-04-18T10:29:10.999Z</time></trkpt><trkpt lat="44.1801562" lon="10.5183687"><ele>1659.0</ele><time>2026-04-18T10:29:16Z</time></trkpt><trkpt lat="44.1800918" lon="10.5183815"><ele>1659.0</ele><time>2026-04-18T10:29:23Z</time></trkpt><trkpt lat="44.1800202" lon="10.5184212"><ele>1659.0</ele><time>2026-04-18T10:29:28Z</time></trkpt><trkpt lat="44.1799452" lon="10.5184561"><ele>1659.0</ele><time>2026-04-18T10:29:31Z</time></trkpt><trkpt lat="44.1798819" lon="10.5185158"><ele>1659.0</ele><time>2026-04-18T10:29:34Z</time></trkpt><trkpt lat="44.1797617" lon="10.5185491"><ele>1659.0</ele><time>2026-04-18T10:29:38Z</time></trkpt><trkpt lat="44.1796923" lon="10.5185986"><ele>1659.0</ele><time>2026-04-18T10:29:41Z</time></trkpt><trkpt lat="44.1796217" lon="10.5186366"><ele>1657.7142857142858</ele><time>2026-04-18T10:29:43Z</time></trkpt><trkpt lat="44.1795536" lon="10.518672"><ele>1656.4285714285716</ele><time>2026-04-18T10:29:45Z</time></trkpt><trkpt lat="44.1794823" lon="10.5187153"><ele>1655.142857142857</ele><time>2026-04-18T10:29:47Z</time></trkpt><trkpt lat="44.1794176" lon="10.5187937"><ele>1653.857142857143</ele><time>2026-04-18T10:29:50Z</time></trkpt><trkpt lat="44.1793793" lon="10.5188667"><ele>1652.5714285714287</ele><time>2026-04-18T10:29:52Z</time></trkpt><trkpt lat="44.1793424" lon="10.518965"><ele>1651.2857142857142</ele><time>2026-04-18T10:29:55Z</time></trkpt><trkpt lat="44.1792888" lon="10.5190207"><ele>1650.0</ele><time>2026-04-18T10:29:58Z</time></trkpt><trkpt lat="44.1792154" lon="10.5190598"><ele>1650.0</ele><time>2026-04-18T10:30:02Z</time></trkpt><trkpt lat="44.1791397" lon="10.5190964"><ele>1650.0</ele><time>2026-04-18T10:30:07Z</time></trkpt><trkpt lat="44.179106" lon="10.5191763"><ele>1650.0</ele><time>2026-04-18T10:30:11Z</time></trkpt><trkpt lat="44.1790483" lon="10.5192408"><ele>1650.0</ele><time>2026-04-18T10:30:14Z</time></trkpt><trkpt lat="44.1789862" lon="10.5192765"><ele>1650.0</ele><time>2026-04-18T10:30:17Z</time></trkpt><trkpt lat="44.1789263" lon="10.5193435"><ele>1650.0</ele><time>2026-04-18T10:30:20Z</time></trkpt><trkpt lat="44.1788466" lon="10.5193978"><ele>1648.857142857143</ele><time>2026-04-18T10:30:23Z</time></trkpt><trkpt lat="44.1787989" lon="10.5194861"><ele>1647.7142857142858</ele><time>2026-04-18T10:30:26Z</time></trkpt><trkpt lat="44.1787459" lon="10.5195569"><ele>1646.5714285714287</ele><time>2026-04-18T10:30:30Z</time></trkpt><trkpt lat="44.1787055" lon="10.519631"><ele>1645.4285714285716</ele><time>2026-04-18T10:30:34Z</time></trkpt><trkpt lat="44.1786484" lon="10.5196799"><ele>1644.2857142857142</ele><time>2026-04-18T10:30:38Z</time></trkpt><trkpt lat="44.1785767" lon="10.5196926"><ele>1643.1428571428573</ele><time>2026-04-18T10:30:42Z</time></trkpt><trkpt lat="44.1785096" lon="10.5197091"><ele>1642.0</ele><time>2026-04-18T10:30:45Z</time></trkpt><trkpt lat="44.1784429" lon="10.5197537"><ele>1642.0000000000002</ele><time>2026-04-18T10:30:50Z</time></trkpt><trkpt lat="44.1783789" lon="10.5197952"><ele>1642.0</ele><time>2026-04-18T10:30:55Z</time></trkpt><trkpt lat="44.1782979" lon="10.5198291"><ele>1642.0</ele><time>2026-04-18T10:30:59Z</time></trkpt><trkpt lat="44.1782394" lon="10.5198948"><ele>1642.0</ele><time>2026-04-18T10:31:01Z</time></trkpt><trkpt lat="44.1781855" lon="10.5199558"><ele>1642.0</ele><time>2026-04-18T10:31:03Z</time></trkpt><trkpt lat="44.1781279" lon="10.5199999"><ele>1642.0000000000002</ele><time>2026-04-18T10:31:05Z</time></trkpt><trkpt lat="44.1780624" lon="10.5200706"><ele>1642.0</ele><time>2026-04-18T10:31:08Z</time></trkpt><trkpt lat="44.1780265" lon="10.520151"><ele>1642.1428571428573</ele><time>2026-04-18T10:31:12Z</time></trkpt><trkpt lat="44.177977" lon="10.5202205"><ele>1642.2857142857142</ele><time>2026-04-18T10:31:16Z</time></trkpt><trkpt lat="44.1779052" lon="10.5202655"><ele>1642.4285714285716</ele><time>2026-04-18T10:31:22Z</time></trkpt><trkpt lat="44.1778499" lon="10.52032"><ele>1642.5714285714287</ele><time>2026-04-18T10:31:27Z</time></trkpt><trkpt lat="44.1777914" lon="10.5203775"><ele>1642.7142857142858</ele><time>2026-04-18T10:31:30Z</time></trkpt><trkpt lat="44.1777313" lon="10.5204285"><ele>1642.857142857143</ele><time>2026-04-18T10:31:33Z</time></trkpt><trkpt lat="44.1776507" lon="10.5204373"><ele>1643.0</ele><time>2026-04-18T10:31:38Z</time></trkpt><trkpt lat="44.1775746" lon="10.5204768"><ele>1643.0</ele><time>2026-04-18T10:31:42Z</time></trkpt><trkpt lat="44.1775069" lon="10.5205286"><ele>1643.0</ele><time>2026-04-18T10:31:46Z</time></trkpt><trkpt lat="44.1774401" lon="10.5205902"><ele>1643.0</ele><time>2026-04-18T10:31:50Z</time></trkpt><trkpt lat="44.1773762" lon="10.5206429"><ele>1643.0</ele><time>2026-04-18T10:31:54Z</time></trkpt><trkpt lat="44.1773189" lon="10.5206816"><ele>1643.0</ele><time>2026-04-18T10:32:00Z</time></trkpt><trkpt lat="44.1772637" lon="10.5207248"><ele>1643.0</ele><time>2026-04-18T10:32:03Z</time></trkpt><trkpt lat="44.1772016" lon="10.520771"><ele>1643.0</ele><time>2026-04-18T10:32:07Z</time></trkpt><trkpt lat="44.1771455" lon="10.5208206"><ele>1642.7142857142856</ele><time>2026-04-18T10:32:11Z</time></trkpt><trkpt lat="44.1770891" lon="10.5208667"><ele>1642.4285714285716</ele><time>2026-04-18T10:32:15Z</time></trkpt><trkpt lat="44.1770236" lon="10.5208997"><ele>1642.142857142857</ele><time>2026-04-18T10:32:19Z</time></trkpt><trkpt lat="44.1769653" lon="10.5209509"><ele>1641.8571428571427</ele><time>2026-04-18T10:32:23Z</time></trkpt><trkpt lat="44.1769071" lon="10.5210037"><ele>1641.5714285714284</ele><time>2026-04-18T10:32:27Z</time></trkpt><trkpt lat="44.1768492" lon="10.5210608"><ele>1641.2857142857142</ele><time>2026-04-18T10:32:31Z</time></trkpt><trkpt lat="44.176783" lon="10.5211074"><ele>1641.0</ele><time>2026-04-18T10:32:36Z</time></trkpt><trkpt lat="44.1767357" lon="10.5211697"><ele>1640.9999999999998</ele><time>2026-04-18T10:32:40Z</time></trkpt><trkpt lat="44.1766812" lon="10.5212304"><ele>1641.0</ele><time>2026-04-18T10:32:44Z</time></trkpt><trkpt lat="44.1766316" lon="10.5212924"><ele>1641.0</ele><time>2026-04-18T10:32:48Z</time></trkpt><trkpt lat="44.1765797" lon="10.5213491"><ele>1641.0</ele><time>2026-04-18T10:32:52Z</time></trkpt><trkpt lat="44.1765272" lon="10.5214144"><ele>1641.0</ele><time>2026-04-18T10:32:56Z</time></trkpt><trkpt lat="44.1764767" lon="10.5214903"><ele>1640.9999999999998</ele><time>2026-04-18T10:33:00Z</time></trkpt><trkpt lat="44.1764287" lon="10.5215603"><ele>1641.0</ele><time>2026-04-18T10:33:04Z</time></trkpt><trkpt lat="44.1763737" lon="10.5216278"><ele>1643.142857142857</ele><time>2026-04-18T10:33:08Z</time></trkpt><trkpt lat="44.1763261" lon="10.5216906"><ele>1645.2857142857142</ele><time>2026-04-18T10:33:11Z</time></trkpt><trkpt lat="44.1762764" lon="10.5217557"><ele>1647.4285714285716</ele><time>2026-04-18T10:33:14Z</time></trkpt><trkpt lat="44.1762165" lon="10.521819"><ele>1649.5714285714284</ele><time>2026-04-18T10:33:18Z</time></trkpt><trkpt lat="44.1761582" lon="10.5218741"><ele>1651.7142857142858</ele><time>2026-04-18T10:33:22Z</time></trkpt><trkpt lat="44.1760932" lon="10.5219264"><ele>1653.857142857143</ele><time>2026-04-18T10:33:26Z</time></trkpt><trkpt lat="44.1760253" lon="10.5219826"><ele>1656.0</ele><time>2026-04-18T10:33:30Z</time></trkpt><trkpt lat="44.1759587" lon="10.5220485"><ele>1656.5714285714287</ele><time>2026-04-18T10:33:34Z</time></trkpt><trkpt lat="44.1758928" lon="10.5220883"><ele>1657.142857142857</ele><time>2026-04-18T10:33:38Z</time></trkpt><trkpt lat="44.1758254" lon="10.5221358"><ele>1657.7142857142858</ele><time>2026-04-18T10:33:42Z</time></trkpt><trkpt lat="44.1757701" lon="10.5221823"><ele>1658.2857142857142</ele><time>2026-04-18T10:33:46Z</time></trkpt><trkpt lat="44.1757095" lon="10.5222335"><ele>1658.857142857143</ele><time>2026-04-18T10:33:50Z</time></trkpt><trkpt lat="44.1756624" lon="10.5223099"><ele>1659.4285714285716</ele><time>2026-04-18T10:33:54Z</time></trkpt><trkpt lat="44.1756222" lon="10.5223779"><ele>1660.0</ele><time>2026-04-18T10:33:58Z</time></trkpt><trkpt lat="44.1755751" lon="10.5224598"><ele>1660.857142857143</ele><time>2026-04-18T10:34:02Z</time></trkpt><trkpt lat="44.1755292" lon="10.5225411"><ele>1661.7142857142858</ele><time>2026-04-18T10:34:06Z</time></trkpt><trkpt lat="44.1754897" lon="10.5226307"><ele>1662.5714285714284</ele><time>2026-04-18T10:34:10Z</time></trkpt><trkpt lat="44.1754443" lon="10.5227105"><ele>1663.4285714285716</ele><time>2026-04-18T10:34:14Z</time></trkpt><trkpt lat="44.175399" lon="10.5227836"><ele>1664.2857142857142</ele><time>2026-04-18T10:34:18Z</time></trkpt><trkpt lat="44.1753558" lon="10.5228597"><ele>1665.142857142857</ele><time>2026-04-18T10:34:22Z</time></trkpt><trkpt lat="44.1753097" lon="10.5229278"><ele>1666.0</ele><time>2026-04-18T10:34:26Z</time></trkpt><trkpt lat="44.1752605" lon="10.5229869"><ele>1666.0</ele><time>2026-04-18T10:34:30Z</time></trkpt><trkpt lat="44.1752183" lon="10.5230523"><ele>1666.0</ele><time>2026-04-18T10:34:34Z</time></trkpt><trkpt lat="44.1751634" lon="10.5231173"><ele>1666.0</ele><time>2026-04-18T10:34:39Z</time></trkpt><trkpt lat="44.1751188" lon="10.5231794"><ele>1666.0</ele><time>2026-04-18T10:34:43Z</time></trkpt><trkpt lat="44.1750636" lon="10.5232478"><ele>1666.0</ele><time>2026-04-18T10:38:51Z</time></trkpt><trkpt lat="44.1749859" lon="10.5232749"><ele>1666.0</ele><time>2026-04-18T10:38:56Z</time></trkpt><trkpt lat="44.1748973" lon="10.5233202"><ele>1666.0</ele><time>2026-04-18T10:38:59Z</time></trkpt><trkpt lat="44.1748189" lon="10.5233673"><ele>1665.8333333333335</ele><time>2026-04-18T10:39:01Z</time></trkpt><trkpt lat="44.1747534" lon="10.5234078"><ele>1665.6666666666667</ele><time>2026-04-18T10:39:03Z</time></trkpt><trkpt lat="44.1746761" lon="10.5234435"><ele>1665.5</ele><time>2026-04-18T10:39:06Z</time></trkpt><trkpt lat="44.1745758" lon="10.5234835"><ele>1665.3333333333335</ele><time>2026-04-18T10:39:09Z</time></trkpt><trkpt lat="44.1744959" lon="10.5235251"><ele>1665.1666666666667</ele><time>2026-04-18T10:39:11Z</time></trkpt><trkpt lat="44.1744361" lon="10.5235585"><ele>1665.0</ele><time>2026-04-18T10:39:13Z</time></trkpt><trkpt lat="44.17436" lon="10.5236099"><ele>1665.0</ele><time>2026-04-18T10:39:16Z</time></trkpt><trkpt lat="44.174301" lon="10.5236556"><ele>1665.0</ele><time>2026-04-18T10:39:18Z</time></trkpt><trkpt lat="44.1742219" lon="10.5237155"><ele>1665.0</ele><time>2026-04-18T10:39:20Z</time></trkpt><trkpt lat="44.1741479" lon="10.5237951"><ele>1665.0</ele><time>2026-04-18T10:39:22Z</time></trkpt><trkpt lat="44.1740744" lon="10.5238833"><ele>1665.0</ele><time>2026-04-18T10:39:24Z</time></trkpt><trkpt lat="44.1740041" lon="10.5239754"><ele>1665.0</ele><time>2026-04-18T10:39:26Z</time></trkpt><trkpt lat="44.173928" lon="10.5240602"><ele>1665.1666666666667</ele><time>2026-04-18T10:39:28Z</time></trkpt><trkpt lat="44.1738654" lon="10.5241666"><ele>1665.3333333333335</ele><time>2026-04-18T10:39:30Z</time></trkpt><trkpt lat="44.1738095" lon="10.524264"><ele>1665.5</ele><time>2026-04-18T10:39:32Z</time></trkpt><trkpt lat="44.1737579" lon="10.5243247"><ele>1665.6666666666667</ele><time>2026-04-18T10:39:34Z</time></trkpt><trkpt lat="44.1736999" lon="10.5243869"><ele>1665.8333333333335</ele><time>2026-04-18T10:39:38Z</time></trkpt><trkpt lat="44.1736389" lon="10.5244443"><ele>1666.0</ele><time>2026-04-18T10:39:43Z</time></trkpt><trkpt lat="44.1735836" lon="10.5244981"><ele>1666.0</ele><time>2026-04-18T10:39:47Z</time></trkpt><trkpt lat="44.1735327" lon="10.5245521"><ele>1666.0</ele><time>2026-04-18T10:39:51Z</time></trkpt><trkpt lat="44.1734773" lon="10.5245987"><ele>1666.0</ele><time>2026-04-18T10:39:55Z</time></trkpt><trkpt lat="44.1734065" lon="10.5246401"><ele>1666.0</ele><time>2026-04-18T10:40:00Z</time></trkpt><trkpt lat="44.1733395" lon="10.5246493"><ele>1666.0</ele><time>2026-04-18T10:40:04Z</time></trkpt><trkpt lat="44.173272" lon="10.5246342"><ele>1666.0</ele><time>2026-04-18T10:40:07Z</time></trkpt><trkpt lat="44.1731876" lon="10.5245795"><ele>1666.0</ele><time>2026-04-18T10:40:10Z</time></trkpt><trkpt lat="44.1731245" lon="10.5245575"><ele>1666.7142857142858</ele><time>2026-04-18T10:40:12Z</time></trkpt><trkpt lat="44.1730508" lon="10.524561"><ele>1667.4285714285716</ele><time>2026-04-18T10:40:14Z</time></trkpt><trkpt lat="44.1729946" lon="10.5246087"><ele>1668.142857142857</ele><time>2026-04-18T10:40:17Z</time></trkpt><trkpt lat="44.172937" lon="10.5246665"><ele>1668.857142857143</ele><time>2026-04-18T10:40:21Z</time></trkpt><trkpt lat="44.172874" lon="10.5247192"><ele>1669.5714285714287</ele><time>2026-04-18T10:40:25Z</time></trkpt><trkpt lat="44.1727985" lon="10.5247082"><ele>1670.2857142857142</ele><time>2026-04-18T10:40:30Z</time></trkpt><trkpt lat="44.1727267" lon="10.5246551"><ele>1671.0</ele><time>2026-04-18T10:40:34Z</time></trkpt><trkpt lat="44.172657" lon="10.5246007"><ele>1671.0</ele><time>2026-04-18T10:40:38Z</time></trkpt><trkpt lat="44.1726006" lon="10.5245366"><ele>1671.0</ele><time>2026-04-18T10:40:43Z</time></trkpt><trkpt lat="44.172531" lon="10.5244743"><ele>1671.0</ele><time>2026-04-18T10:40:47Z</time></trkpt><trkpt lat="44.1724702" lon="10.5244204"><ele>1671.0</ele><time>2026-04-18T10:40:50Z</time></trkpt><trkpt lat="44.1724004" lon="10.5243782"><ele>1671.0</ele><time>2026-04-18T10:40:52Z</time></trkpt><trkpt lat="44.1723401" lon="10.5243445"><ele>1671.0</ele><time>2026-04-18T10:40:54Z</time></trkpt><trkpt lat="44.17228" lon="10.5243181"><ele>1671.0</ele><time>2026-04-18T10:40:56Z</time></trkpt><trkpt lat="44.1722113" lon="10.5242727"><ele>1669.4285714285713</ele><time>2026-04-18T10:40:59Z</time></trkpt><trkpt lat="44.1721512" lon="10.5242413"><ele>1667.857142857143</ele><time>2026-04-18T10:41:02Z</time></trkpt><trkpt lat="44.1720835" lon="10.5242265"><ele>1666.2857142857142</ele><time>2026-04-18T10:41:04Z</time></trkpt><trkpt lat="44.172016" lon="10.524225"><ele>1664.7142857142858</ele><time>2026-04-18T10:41:06Z</time></trkpt><trkpt lat="44.1719441" lon="10.5242212"><ele>1663.1428571428573</ele><time>2026-04-18T10:41:10Z</time></trkpt><trkpt lat="44.1718638" lon="10.5242287"><ele>1661.5714285714287</ele><time>2026-04-18T10:41:14Z</time></trkpt><trkpt lat="44.1717988" lon="10.5242279"><ele>1660.0</ele><time>2026-04-18T10:41:20Z</time></trkpt><trkpt lat="44.1717312" lon="10.5241979"><ele>1660.0</ele><time>2026-04-18T10:41:33Z</time></trkpt><trkpt lat="44.1716681" lon="10.5241967"><ele>1660.0</ele><time>2026-04-18T10:41:48Z</time></trkpt><trkpt lat="44.1716023" lon="10.5241645"><ele>1660.0</ele><time>2026-04-18T10:42:12Z</time></trkpt><trkpt lat="44.1714936" lon="10.5241585"><ele>1660.0</ele><time>2026-04-18T10:42:45Z</time></trkpt><trkpt lat="44.1714274" lon="10.5241516"><ele>1660.0</ele><time>2026-04-18T10:43:16Z</time></trkpt><trkpt lat="44.171375" lon="10.5240952"><ele>1660.0</ele><time>2026-04-18T10:43:34Z</time></trkpt><trkpt lat="44.171309" lon="10.5240923"><ele>1660.0</ele><time>2026-04-18T10:43:45Z</time></trkpt><trkpt lat="44.1712459" lon="10.52411"><ele>1657.8333333333335</ele><time>2026-04-18T10:44:15Z</time></trkpt><trkpt lat="44.1711588" lon="10.5241444"><ele>1655.6666666666667</ele><time>2026-04-18T10:44:45Z</time></trkpt><trkpt lat="44.1710725" lon="10.5240985"><ele>1653.5</ele><time>2026-04-18T10:45:05Z</time></trkpt><trkpt lat="44.1709991" lon="10.5240479"><ele>1651.3333333333335</ele><time>2026-04-18T10:45:17Z</time></trkpt><trkpt lat="44.1709387" lon="10.5240079"><ele>1649.1666666666667</ele><time>2026-04-18T10:45:27Z</time></trkpt><trkpt lat="44.170884" lon="10.5239611"><ele>1647.0</ele><time>2026-04-18T10:45:40Z</time></trkpt><trkpt lat="44.1708212" lon="10.5239035"><ele>1647.0</ele><time>2026-04-18T10:45:52Z</time></trkpt><trkpt lat="44.1707708" lon="10.5238182"><ele>1647.0</ele><time>2026-04-18T10:45:58Z</time></trkpt><trkpt lat="44.1707204" lon="10.5237368"><ele>1647.0</ele><time>2026-04-18T10:46:08Z</time></trkpt><trkpt lat="44.1706802" lon="10.5236555"><ele>1647.0</ele><time>2026-04-18T10:46:13Z</time></trkpt><trkpt lat="44.1706476" lon="10.5235617"><ele>1647.0</ele><time>2026-04-18T10:46:18Z</time></trkpt><trkpt lat="44.1706361" lon="10.5234631"><ele>1647.0</ele><time>2026-04-18T10:46:22Z</time></trkpt><trkpt lat="44.1706074" lon="10.5233116"><ele>1643.2857142857144</ele><time>2026-04-18T10:46:46Z</time></trkpt><trkpt lat="44.1706082" lon="10.523218"><ele>1639.5714285714284</ele><time>2026-04-18T10:46:58Z</time></trkpt><trkpt lat="44.170601" lon="10.5231226"><ele>1635.857142857143</ele><time>2026-04-18T10:47:19Z</time></trkpt><trkpt lat="44.1705729" lon="10.5230368"><ele>1632.1428571428573</ele><time>2026-04-18T10:47:30Z</time></trkpt><trkpt lat="44.170571" lon="10.5229469"><ele>1628.4285714285716</ele><time>2026-04-18T10:47:35Z</time></trkpt><trkpt lat="44.1705586" lon="10.5228454"><ele>1624.7142857142858</ele><time>2026-04-18T10:47:39Z</time></trkpt><trkpt lat="44.1705378" lon="10.5227471"><ele>1621.0</ele><time>2026-04-18T10:47:44Z</time></trkpt><trkpt lat="44.1705205" lon="10.5226582"><ele>1621.0</ele><time>2026-04-18T10:47:48Z</time></trkpt><trkpt lat="44.1704666" lon="10.5224923"><ele>1621.0</ele><time>2026-04-18T10:47:51Z</time></trkpt><trkpt lat="44.1704313" lon="10.5223562"><ele>1621.0</ele><time>2026-04-18T10:47:54Z</time></trkpt><trkpt lat="44.1704129" lon="10.5222481"><ele>1621.0</ele><time>2026-04-18T10:47:56Z</time></trkpt><trkpt lat="44.1703638" lon="10.522132"><ele>1621.0</ele><time>2026-04-18T10:47:59Z</time></trkpt><trkpt lat="44.1703344" lon="10.5220364"><ele>1622.0</ele><time>2026-04-18T10:48:01Z</time></trkpt><trkpt lat="44.1702655" lon="10.5218749"><ele>1623.0</ele><time>2026-04-18T10:48:03Z</time></trkpt><trkpt lat="44.1702077" lon="10.5217564"><ele>1624.0</ele><time>2026-04-18T10:48:05Z</time></trkpt><trkpt lat="44.1701612" lon="10.521671"><ele>1625.0</ele><time>2026-04-18T10:48:07Z</time></trkpt><trkpt lat="44.1701008" lon="10.5216185"><ele>1626.0</ele><time>2026-04-18T10:48:11Z</time></trkpt><trkpt lat="44.1700423" lon="10.521566"><ele>1626.0</ele><time>2026-04-18T10:48:15.999Z</time></trkpt><trkpt lat="44.1699652" lon="10.5215343"><ele>1626.0</ele><time>2026-04-18T10:48:20Z</time></trkpt><trkpt lat="44.1698867" lon="10.5214877"><ele>1626.0</ele><time>2026-04-18T10:48:23Z</time></trkpt><trkpt lat="44.169823" lon="10.5214681"><ele>1626.0</ele><time>2026-04-18T10:48:26Z</time></trkpt><trkpt lat="44.1697365" lon="10.5214434"><ele>1626.0</ele><time>2026-04-18T10:48:29Z</time></trkpt><trkpt lat="44.1696644" lon="10.5214123"><ele>1626.0</ele><time>2026-04-18T10:48:32Z</time></trkpt><trkpt lat="44.1695907" lon="10.5213655"><ele>1625.7142857142858</ele><time>2026-04-18T10:48:36Z</time></trkpt><trkpt lat="44.1695278" lon="10.5213344"><ele>1625.4285714285713</ele><time>2026-04-18T10:48:39Z</time></trkpt><trkpt lat="44.16947" lon="10.5212798"><ele>1625.142857142857</ele><time>2026-04-18T10:48:42Z</time></trkpt><trkpt lat="44.1693954" lon="10.5212071"><ele>1624.857142857143</ele><time>2026-04-18T10:48:45Z</time></trkpt><trkpt lat="44.1693699" lon="10.5211196"><ele>1624.5714285714284</ele><time>2026-04-18T10:48:47Z</time></trkpt><trkpt lat="44.169361" lon="10.5210181"><ele>1624.2857142857142</ele><time>2026-04-18T10:48:51Z</time></trkpt><trkpt lat="44.1693675" lon="10.5209135"><ele>1624.0</ele><time>2026-04-18T10:48:56Z</time></trkpt><trkpt lat="44.1693489" lon="10.5208231"><ele>1624.0000000000002</ele><time>2026-04-18T10:49:00Z</time></trkpt><trkpt lat="44.169308" lon="10.5207451"><ele>1624.0</ele><time>2026-04-18T10:49:04Z</time></trkpt><trkpt lat="44.1692707" lon="10.5206642"><ele>1624.0</ele><time>2026-04-18T10:49:07Z</time></trkpt><trkpt lat="44.1692317" lon="10.5205766"><ele>1624.0</ele><time>2026-04-18T10:49:11Z</time></trkpt><trkpt lat="44.1692026" lon="10.5204937"><ele>1624.0000000000002</ele><time>2026-04-18T10:49:14Z</time></trkpt><trkpt lat="44.1691706" lon="10.5204007"><ele>1624.0</ele><time>2026-04-18T10:49:18Z</time></trkpt><trkpt lat="44.1691496" lon="10.5202672"><ele>1622.7142857142858</ele><time>2026-04-18T10:49:43Z</time></trkpt><trkpt lat="44.1691097" lon="10.5201687"><ele>1621.4285714285716</ele><time>2026-04-18T10:49:49Z</time></trkpt><trkpt lat="44.1690722" lon="10.5200837"><ele>1620.142857142857</ele><time>2026-04-18T10:49:54Z</time></trkpt><trkpt lat="44.1690403" lon="10.5199984"><ele>1618.857142857143</ele><time>2026-04-18T10:49:59Z</time></trkpt><trkpt lat="44.1689899" lon="10.5199318"><ele>1617.5714285714287</ele><time>2026-04-18T10:50:05Z</time></trkpt><trkpt lat="44.1689945" lon="10.5198423"><ele>1616.2857142857142</ele><time>2026-04-18T10:50:17Z</time></trkpt><trkpt lat="44.1689653" lon="10.5197473"><ele>1615.0</ele><time>2026-04-18T10:50:55Z</time></trkpt><trkpt lat="44.1689347" lon="10.5196616"><ele>1618.4285714285713</ele><time>2026-04-18T10:50:58.999Z</time></trkpt><trkpt lat="44.168892" lon="10.5195837"><ele>1621.857142857143</ele><time>2026-04-18T10:51:05Z</time></trkpt><trkpt lat="44.1688585" lon="10.519503"><ele>1625.2857142857142</ele><time>2026-04-18T10:51:11Z</time></trkpt><trkpt lat="44.1688275" lon="10.5194135"><ele>1628.7142857142858</ele><time>2026-04-18T10:51:16Z</time></trkpt><trkpt lat="44.1687876" lon="10.5193138"><ele>1632.1428571428573</ele><time>2026-04-18T10:51:20Z</time></trkpt><trkpt lat="44.1687539" lon="10.5192188"><ele>1635.5714285714287</ele><time>2026-04-18T10:51:24Z</time></trkpt><trkpt lat="44.1687488" lon="10.5191262"><ele>1639.0</ele><time>2026-04-18T10:51:27Z</time></trkpt><trkpt lat="44.1687242" lon="10.5189942"><ele>1639.0000000000002</ele><time>2026-04-18T10:51:37Z</time></trkpt><trkpt lat="44.1687155" lon="10.5188989"><ele>1639.0</ele><time>2026-04-18T10:51:42Z</time></trkpt><trkpt lat="44.1687027" lon="10.518805"><ele>1639.0</ele><time>2026-04-18T10:51:46Z</time></trkpt><trkpt lat="44.1686969" lon="10.5187028"><ele>1639.0</ele><time>2026-04-18T10:51:50Z</time></trkpt><trkpt lat="44.1686876" lon="10.5185768"><ele>1639.0000000000002</ele><time>2026-04-18T10:51:53Z</time></trkpt><trkpt lat="44.1686825" lon="10.5184653"><ele>1639.0</ele><time>2026-04-18T10:51:55Z</time></trkpt><trkpt lat="44.1686886" lon="10.5183509"><ele>1635.3333333333335</ele><time>2026-04-18T10:51:58Z</time></trkpt><trkpt lat="44.1687361" lon="10.5182388"><ele>1631.6666666666667</ele><time>2026-04-18T10:52:01Z</time></trkpt><trkpt lat="44.1687692" lon="10.5181429"><ele>1628.0</ele><time>2026-04-18T10:52:03Z</time></trkpt><trkpt lat="44.1687942" lon="10.518043"><ele>1624.3333333333335</ele><time>2026-04-18T10:52:05Z</time></trkpt><trkpt lat="44.1688007" lon="10.5179231"><ele>1620.6666666666667</ele><time>2026-04-18T10:52:08Z</time></trkpt><trkpt lat="44.1688081" lon="10.5178178"><ele>1617.0</ele><time>2026-04-18T10:52:10Z</time></trkpt><trkpt lat="44.1688475" lon="10.5177139"><ele>1614.3333333333333</ele><time>2026-04-18T10:52:12Z</time></trkpt><trkpt lat="44.1688756" lon="10.517604"><ele>1611.6666666666665</ele><time>2026-04-18T10:52:14Z</time></trkpt><trkpt lat="44.1689093" lon="10.5175049"><ele>1609.0</ele><time>2026-04-18T10:52:16Z</time></trkpt><trkpt lat="44.1689453" lon="10.5173987"><ele>1606.3333333333333</ele><time>2026-04-18T10:52:18Z</time></trkpt><trkpt lat="44.168966" lon="10.5173095"><ele>1603.6666666666665</ele><time>2026-04-18T10:52:20Z</time></trkpt><trkpt lat="44.168993" lon="10.5172142"><ele>1601.0</ele><time>2026-04-18T10:52:33Z</time></trkpt><trkpt lat="44.1690416" lon="10.5171107"><ele>1601.8333333333333</ele><time>2026-04-18T10:52:37Z</time></trkpt><trkpt lat="44.1690776" lon="10.5170217"><ele>1602.6666666666665</ele><time>2026-04-18T10:52:39Z</time></trkpt><trkpt lat="44.1691106" lon="10.5169394"><ele>1603.5</ele><time>2026-04-18T10:52:41Z</time></trkpt><trkpt lat="44.1691508" lon="10.5168484"><ele>1604.3333333333335</ele><time>2026-04-18T10:52:44Z</time></trkpt><trkpt lat="44.1692007" lon="10.5167727"><ele>1605.1666666666667</ele><time>2026-04-18T10:52:46Z</time></trkpt><trkpt lat="44.1692492" lon="10.516655"><ele>1606.0</ele><time>2026-04-18T10:52:48Z</time></trkpt><trkpt lat="44.1692822" lon="10.5165614"><ele>1606.0000000000002</ele><time>2026-04-18T10:52:50Z</time></trkpt><trkpt lat="44.1693178" lon="10.5164657"><ele>1606.0</ele><time>2026-04-18T10:52:53Z</time></trkpt><trkpt lat="44.169369" lon="10.5164034"><ele>1606.0</ele><time>2026-04-18T10:52:55Z</time></trkpt><trkpt lat="44.1694196" lon="10.5163096"><ele>1606.0</ele><time>2026-04-18T10:52:57Z</time></trkpt><trkpt lat="44.1694458" lon="10.5162016"><ele>1606.0000000000002</ele><time>2026-04-18T10:52:59Z</time></trkpt><trkpt lat="44.1694356" lon="10.5161109"><ele>1606.0</ele><time>2026-04-18T10:53:01Z</time></trkpt><trkpt lat="44.1694485" lon="10.5160057"><ele>1606.2857142857142</ele><time>2026-04-18T10:53:04Z</time></trkpt><trkpt lat="44.1694861" lon="10.5159217"><ele>1606.5714285714284</ele><time>2026-04-18T10:53:10Z</time></trkpt><trkpt lat="44.1695063" lon="10.5158377"><ele>1606.8571428571427</ele><time>2026-04-18T10:53:20Z</time></trkpt><trkpt lat="44.1695529" lon="10.5157549"><ele>1607.142857142857</ele><time>2026-04-18T10:53:26Z</time></trkpt><trkpt lat="44.1695983" lon="10.5156704"><ele>1607.4285714285716</ele><time>2026-04-18T10:53:30.999Z</time></trkpt><trkpt lat="44.1696117" lon="10.5155739"><ele>1607.7142857142856</ele><time>2026-04-18T10:53:43Z</time></trkpt><trkpt lat="44.1696519" lon="10.5154836"><ele>1608.0</ele><time>2026-04-18T10:53:47Z</time></trkpt><trkpt lat="44.1696893" lon="10.5153678"><ele>1608.0</ele><time>2026-04-18T10:53:50Z</time></trkpt><trkpt lat="44.169722" lon="10.5152677"><ele>1608.0</ele><time>2026-04-18T10:53:54Z</time></trkpt><trkpt lat="44.169761" lon="10.5151953"><ele>1608.0</ele><time>2026-04-18T10:54:02Z</time></trkpt><trkpt lat="44.1697906" lon="10.5151011"><ele>1608.0</ele><time>2026-04-18T10:54:06Z</time></trkpt><trkpt lat="44.169837" lon="10.5150367"><ele>1608.0</ele><time>2026-04-18T10:54:11Z</time></trkpt><trkpt lat="44.169867" lon="10.5151203"><ele>1608.0</ele><time>2026-04-18T10:54:25Z</time></trkpt><trkpt lat="44.1698509" lon="10.5152203"><ele>1608.0</ele><time>2026-04-18T10:54:30Z</time></trkpt><trkpt lat="44.1698246" lon="10.5153201"><ele>1608.3333333333333</ele><time>2026-04-18T10:54:34Z</time></trkpt><trkpt lat="44.1698246" lon="10.5154324"><ele>1608.6666666666665</ele><time>2026-04-18T10:54:37Z</time></trkpt><trkpt lat="44.1698088" lon="10.5155567"><ele>1609.0</ele><time>2026-04-18T10:54:40Z</time></trkpt><trkpt lat="44.1698121" lon="10.5156534"><ele>1609.3333333333333</ele><time>2026-04-18T10:54:42Z</time></trkpt><trkpt lat="44.1698079" lon="10.5157747"><ele>1609.6666666666665</ele><time>2026-04-18T10:54:45Z</time></trkpt><trkpt lat="44.169817" lon="10.5158737"><ele>1610.0</ele><time>2026-04-18T10:54:47Z</time></trkpt><trkpt lat="44.1698655" lon="10.5159799"><ele>1605.1666666666665</ele><time>2026-04-18T10:54:49Z</time></trkpt><trkpt lat="44.1699066" lon="10.5160875"><ele>1600.3333333333333</ele><time>2026-04-18T10:54:51Z</time></trkpt><trkpt lat="44.1699326" lon="10.5161773"><ele>1595.5</ele><time>2026-04-18T10:54:52Z</time></trkpt><trkpt lat="44.1699867" lon="10.5163158"><ele>1590.6666666666665</ele><time>2026-04-18T10:54:54Z</time></trkpt><trkpt lat="44.1699907" lon="10.516436"><ele>1585.8333333333333</ele><time>2026-04-18T10:54:56Z</time></trkpt><trkpt lat="44.1699874" lon="10.5165298"><ele>1581.0</ele><time>2026-04-18T10:54:58Z</time></trkpt><trkpt lat="44.1699608" lon="10.5166143"><ele>1580.4</ele><time>2026-04-18T10:54:59Z</time></trkpt><trkpt lat="44.1699179" lon="10.5167325"><ele>1579.8</ele><time>2026-04-18T10:55:01Z</time></trkpt><trkpt lat="44.1698853" lon="10.5168513"><ele>1579.2</ele><time>2026-04-18T10:55:03Z</time></trkpt><trkpt lat="44.1698679" lon="10.5169885"><ele>1578.6000000000001</ele><time>2026-04-18T10:55:05Z</time></trkpt><trkpt lat="44.1698392" lon="10.5171735"><ele>1578.0</ele><time>2026-04-18T10:55:07Z</time></trkpt><trkpt lat="44.1698209" lon="10.5173135"><ele>1582.2</ele><time>2026-04-18T10:55:09Z</time></trkpt><trkpt lat="44.1697779" lon="10.5174517"><ele>1586.4</ele><time>2026-04-18T10:55:11Z</time></trkpt><trkpt lat="44.1697614" lon="10.517606"><ele>1590.6000000000001</ele><time>2026-04-18T10:55:13Z</time></trkpt><trkpt lat="44.1697335" lon="10.5176972"><ele>1594.8000000000002</ele><time>2026-04-18T10:55:14Z</time></trkpt><trkpt lat="44.1696962" lon="10.5177959"><ele>1599.0</ele><time>2026-04-18T10:55:16Z</time></trkpt><trkpt lat="44.1696709" lon="10.5179071"><ele>1599.0</ele><time>2026-04-18T10:55:19Z</time></trkpt><trkpt lat="44.1696906" lon="10.5180301"><ele>1599.0</ele><time>2026-04-18T10:55:22Z</time></trkpt><trkpt lat="44.1697414" lon="10.5181009"><ele>1599.0</ele><time>2026-04-18T10:55:24Z</time></trkpt><trkpt lat="44.1698071" lon="10.5181831"><ele>1599.0</ele><time>2026-04-18T10:55:26Z</time></trkpt><trkpt lat="44.1698689" lon="10.5182586"><ele>1599.0</ele><time>2026-04-18T10:55:27Z</time></trkpt><trkpt lat="44.1699057" lon="10.5183347"><ele>1599.0</ele><time>2026-04-18T10:55:29Z</time></trkpt><trkpt lat="44.1699694" lon="10.5184013"><ele>1594.1666666666667</ele><time>2026-04-18T10:55:31Z</time></trkpt><trkpt lat="44.1700328" lon="10.5184956"><ele>1589.3333333333335</ele><time>2026-04-18T10:55:33Z</time></trkpt><trkpt lat="44.1700533" lon="10.5185824"><ele>1584.5</ele><time>2026-04-18T10:55:36Z</time></trkpt><trkpt lat="44.17007" lon="10.5186809"><ele>1579.6666666666667</ele><time>2026-04-18T10:55:38Z</time></trkpt><trkpt lat="44.1701268" lon="10.5187569"><ele>1574.8333333333335</ele><time>2026-04-18T10:55:41Z</time></trkpt><trkpt lat="44.1701927" lon="10.5187489"><ele>1570.0</ele><time>2026-04-18T10:55:43Z</time></trkpt><trkpt lat="44.1702709" lon="10.5187451"><ele>1570.0000000000002</ele><time>2026-04-18T10:55:45Z</time></trkpt><trkpt lat="44.1703274" lon="10.5187956"><ele>1570.0</ele><time>2026-04-18T10:55:47Z</time></trkpt><trkpt lat="44.1704043" lon="10.5188905"><ele>1570.0</ele><time>2026-04-18T10:55:50Z</time></trkpt><trkpt lat="44.1704649" lon="10.5189564"><ele>1570.0</ele><time>2026-04-18T10:55:52Z</time></trkpt><trkpt lat="44.1705457" lon="10.5190363"><ele>1570.0000000000002</ele><time>2026-04-18T10:55:54Z</time></trkpt><trkpt lat="44.1706202" lon="10.5191086"><ele>1570.0</ele><time>2026-04-18T10:55:56Z</time></trkpt><trkpt lat="44.1707016" lon="10.5192043"><ele>1568.8333333333335</ele><time>2026-04-18T10:55:58Z</time></trkpt><trkpt lat="44.1707553" lon="10.5193379"><ele>1567.6666666666667</ele><time>2026-04-18T10:56:00Z</time></trkpt><trkpt lat="44.1707897" lon="10.5194697"><ele>1566.5</ele><time>2026-04-18T10:56:02Z</time></trkpt><trkpt lat="44.1708151" lon="10.5195767"><ele>1565.3333333333335</ele><time>2026-04-18T10:56:04Z</time></trkpt><trkpt lat="44.1708643" lon="10.5196599"><ele>1564.1666666666667</ele><time>2026-04-18T10:56:07Z</time></trkpt><trkpt lat="44.170892" lon="10.5195761"><ele>1563.0</ele><time>2026-04-18T10:56:12Z</time></trkpt><trkpt lat="44.170868" lon="10.5194712"><ele>1564.1666666666667</ele><time>2026-04-18T10:56:16Z</time></trkpt><trkpt lat="44.1708608" lon="10.5193499"><ele>1565.3333333333335</ele><time>2026-04-18T10:56:20Z</time></trkpt><trkpt lat="44.1708478" lon="10.5192447"><ele>1566.5</ele><time>2026-04-18T10:56:24Z</time></trkpt><trkpt lat="44.1708174" lon="10.5191368"><ele>1567.6666666666667</ele><time>2026-04-18T10:56:28.009Z</time></trkpt><trkpt lat="44.1707614" lon="10.5190528"><ele>1568.8333333333335</ele><time>2026-04-18T10:56:31Z</time></trkpt><trkpt lat="44.1707025" lon="10.5189769"><ele>1570.0</ele><time>2026-04-18T10:56:34.002Z</time></trkpt><trkpt lat="44.1706687" lon="10.5188808"><ele>1570.0000000000002</ele><time>2026-04-18T10:56:37Z</time></trkpt><trkpt lat="44.1706272" lon="10.5187693"><ele>1570.0</ele><time>2026-04-18T10:56:40Z</time></trkpt><trkpt lat="44.1705828" lon="10.5186763"><ele>1570.0</ele><time>2026-04-18T10:56:42Z</time></trkpt><trkpt lat="44.1705535" lon="10.5185965"><ele>1570.0</ele><time>2026-04-18T10:56:44Z</time></trkpt><trkpt lat="44.1705259" lon="10.5184624"><ele>1570.0000000000002</ele><time>2026-04-18T10:56:47Z</time></trkpt><trkpt lat="44.1705234" lon="10.5183599"><ele>1570.0</ele><time>2026-04-18T10:56:49Z</time></trkpt><trkpt lat="44.1705418" lon="10.5182732"><ele>1569.6666666666667</ele><time>2026-04-18T10:56:51Z</time></trkpt><trkpt lat="44.1705601" lon="10.5181864"><ele>1569.3333333333335</ele><time>2026-04-18T10:56:53Z</time></trkpt><trkpt lat="44.1705693" lon="10.5180927"><ele>1569.0</ele><time>2026-04-18T10:56:55Z</time></trkpt><trkpt lat="44.1705837" lon="10.51797"><ele>1568.6666666666665</ele><time>2026-04-18T10:56:58Z</time></trkpt><trkpt lat="44.1705848" lon="10.5178807"><ele>1568.3333333333333</ele><time>2026-04-18T10:57:00Z</time></trkpt><trkpt lat="44.1705429" lon="10.5177637"><ele>1568.0</ele><time>2026-04-18T10:57:03Z</time></trkpt><trkpt lat="44.1705044" lon="10.5176696"><ele>1567.9999999999998</ele><time>2026-04-18T10:57:06Z</time></trkpt><trkpt lat="44.1705513" lon="10.5175851"><ele>1568.0</ele><time>2026-04-18T10:57:10Z</time></trkpt><trkpt lat="44.1706235" lon="10.5175796"><ele>1568.0</ele><time>2026-04-18T10:57:13Z</time></trkpt><trkpt lat="44.1707039" lon="10.5175805"><ele>1568.0</ele><time>2026-04-18T10:57:16Z</time></trkpt><trkpt lat="44.1707706" lon="10.5175443"><ele>1567.9999999999998</ele><time>2026-04-18T10:57:18Z</time></trkpt><trkpt lat="44.1708327" lon="10.5174652"><ele>1568.0</ele><time>2026-04-18T10:57:20Z</time></trkpt><trkpt lat="44.1708545" lon="10.5173623"><ele>1563.8000000000002</ele><time>2026-04-18T10:57:22Z</time></trkpt><trkpt lat="44.1708469" lon="10.5172248"><ele>1559.6</ele><time>2026-04-18T10:57:24Z</time></trkpt><trkpt lat="44.1708547" lon="10.5170472"><ele>1555.4</ele><time>2026-04-18T10:57:26Z</time></trkpt><trkpt lat="44.1708986" lon="10.5169527"><ele>1551.1999999999998</ele><time>2026-04-18T10:57:28Z</time></trkpt><trkpt lat="44.170955" lon="10.5168935"><ele>1547.0</ele><time>2026-04-18T10:57:30Z</time></trkpt><trkpt lat="44.1710181" lon="10.5168133"><ele>1546.9999999999998</ele><time>2026-04-18T10:57:33Z</time></trkpt><trkpt lat="44.1710497" lon="10.5167338"><ele>1547.0</ele><time>2026-04-18T10:57:36Z</time></trkpt><trkpt lat="44.1710552" lon="10.5166217"><ele>1547.0</ele><time>2026-04-18T10:57:39Z</time></trkpt><trkpt lat="44.171028" lon="10.5165315"><ele>1547.0</ele><time>2026-04-18T10:57:41Z</time></trkpt><trkpt lat="44.1709899" lon="10.516434"><ele>1546.9999999999998</ele><time>2026-04-18T10:57:43Z</time></trkpt><trkpt lat="44.1709526" lon="10.5163213"><ele>1547.0</ele><time>2026-04-18T10:57:45Z</time></trkpt><trkpt lat="44.1709211" lon="10.5161885"><ele>1546.1999999999998</ele><time>2026-04-18T10:57:47Z</time></trkpt><trkpt lat="44.1708771" lon="10.5160775"><ele>1545.4</ele><time>2026-04-18T10:57:49Z</time></trkpt><trkpt lat="44.1708381" lon="10.5159457"><ele>1544.6</ele><time>2026-04-18T10:57:51Z</time></trkpt><trkpt lat="44.1708284" lon="10.5158086"><ele>1543.8000000000002</ele><time>2026-04-18T10:57:53Z</time></trkpt><trkpt lat="44.1708135" lon="10.5156916"><ele>1543.0</ele><time>2026-04-18T10:57:55Z</time></trkpt><trkpt lat="44.1708185" lon="10.5155559"><ele>1543.0</ele><time>2026-04-18T10:57:57Z</time></trkpt><trkpt lat="44.1708463" lon="10.5154191"><ele>1543.0</ele><time>2026-04-18T10:57:59Z</time></trkpt><trkpt lat="44.1708956" lon="10.5152777"><ele>1543.0</ele><time>2026-04-18T10:58:01Z</time></trkpt><trkpt lat="44.1709513" lon="10.515134"><ele>1543.0</ele><time>2026-04-18T10:58:03Z</time></trkpt><trkpt lat="44.1709828" lon="10.5150534"><ele>1543.0</ele><time>2026-04-18T10:58:04Z</time></trkpt><trkpt lat="44.1710248" lon="10.5149786"><ele>1543.3333333333335</ele><time>2026-04-18T10:58:05Z</time></trkpt><trkpt lat="44.1710544" lon="10.5148955"><ele>1543.6666666666667</ele><time>2026-04-18T10:58:06Z</time></trkpt><trkpt lat="44.1710761" lon="10.5148014"><ele>1544.0</ele><time>2026-04-18T10:58:07Z</time></trkpt><trkpt lat="44.1710826" lon="10.5147117"><ele>1544.3333333333335</ele><time>2026-04-18T10:58:08Z</time></trkpt><trkpt lat="44.1710901" lon="10.5146219"><ele>1544.6666666666667</ele><time>2026-04-18T10:58:09Z</time></trkpt><trkpt lat="44.1711003" lon="10.5144656"><ele>1545.0</ele><time>2026-04-18T10:58:11Z</time></trkpt><trkpt lat="44.1711058" lon="10.5142892"><ele>1545.1666666666667</ele><time>2026-04-18T10:58:13Z</time></trkpt><trkpt lat="44.1710954" lon="10.5141223"><ele>1545.3333333333335</ele><time>2026-04-18T10:58:15Z</time></trkpt><trkpt lat="44.1710767" lon="10.5140235"><ele>1545.5</ele><time>2026-04-18T10:58:16Z</time></trkpt><trkpt lat="44.1710589" lon="10.5139309"><ele>1545.6666666666667</ele><time>2026-04-18T10:58:17Z</time></trkpt><trkpt lat="44.1710501" lon="10.5138212"><ele>1545.8333333333335</ele><time>2026-04-18T10:58:18Z</time></trkpt><trkpt lat="44.1710457" lon="10.5137166"><ele>1546.0</ele><time>2026-04-18T10:58:19Z</time></trkpt><trkpt lat="44.1710321" lon="10.5136087"><ele>1544.1666666666667</ele><time>2026-04-18T10:58:20Z</time></trkpt><trkpt lat="44.1710094" lon="10.5135085"><ele>1542.3333333333335</ele><time>2026-04-18T10:58:21Z</time></trkpt><trkpt lat="44.1709933" lon="10.5134051"><ele>1540.5</ele><time>2026-04-18T10:58:22Z</time></trkpt><trkpt lat="44.1709688" lon="10.5132951"><ele>1538.6666666666667</ele><time>2026-04-18T10:58:23Z</time></trkpt><trkpt lat="44.1709456" lon="10.5132008"><ele>1536.8333333333335</ele><time>2026-04-18T10:58:24Z</time></trkpt><trkpt lat="44.1709271" lon="10.5131161"><ele>1535.0</ele><time>2026-04-18T10:58:25Z</time></trkpt><trkpt lat="44.1708917" lon="10.5129488"><ele>1535.0</ele><time>2026-04-18T10:58:27Z</time></trkpt><trkpt lat="44.1708677" lon="10.512863"><ele>1535.0</ele><time>2026-04-18T10:58:28Z</time></trkpt><trkpt lat="44.1708499" lon="10.5127016"><ele>1535.0</ele><time>2026-04-18T10:58:30Z</time></trkpt><trkpt lat="44.1708537" lon="10.5126088"><ele>1535.0</ele><time>2026-04-18T10:58:31Z</time></trkpt><trkpt lat="44.1708625" lon="10.5125208"><ele>1535.0</ele><time>2026-04-18T10:58:32Z</time></trkpt><trkpt lat="44.1709155" lon="10.5123627"><ele>1535.0</ele><time>2026-04-18T10:58:34Z</time></trkpt><trkpt lat="44.1709597" lon="10.5122989"><ele>1535.0</ele><time>2026-04-18T10:58:35Z</time></trkpt><trkpt lat="44.1710031" lon="10.5122202"><ele>1535.0</ele><time>2026-04-18T10:58:36Z</time></trkpt><trkpt lat="44.1710914" lon="10.5121"><ele>1535.0</ele><time>2026-04-18T10:58:38Z</time></trkpt><trkpt lat="44.1711433" lon="10.5120444"><ele>1535.0</ele><time>2026-04-18T10:58:39Z</time></trkpt><trkpt lat="44.1712023" lon="10.511994"><ele>1535.0</ele><time>2026-04-18T10:58:40Z</time></trkpt><trkpt lat="44.1713112" lon="10.5118976"><ele>1537.0</ele><time>2026-04-18T10:58:42Z</time></trkpt><trkpt lat="44.1713745" lon="10.5118618"><ele>1539.0</ele><time>2026-04-18T10:58:43Z</time></trkpt><trkpt lat="44.1714343" lon="10.5118247"><ele>1541.0</ele><time>2026-04-18T10:58:44Z</time></trkpt><trkpt lat="44.1715005" lon="10.5118091"><ele>1543.0</ele><time>2026-04-18T10:58:45Z</time></trkpt><trkpt lat="44.1715674" lon="10.511796"><ele>1544.9999999999998</ele><time>2026-04-18T10:58:46Z</time></trkpt><trkpt lat="44.1717082" lon="10.511784"><ele>1547.0</ele><time>2026-04-18T10:58:48Z</time></trkpt><trkpt lat="44.1718276" lon="10.5117773"><ele>1542.0</ele><time>2026-04-18T10:58:50Z</time></trkpt><trkpt lat="44.1719168" lon="10.5117194"><ele>1537.0</ele><time>2026-04-18T10:58:52Z</time></trkpt><trkpt lat="44.1719297" lon="10.5116102"><ele>1532.0</ele><time>2026-04-18T10:58:54Z</time></trkpt><trkpt lat="44.1719094" lon="10.5114648"><ele>1527.0</ele><time>2026-04-18T10:58:56Z</time></trkpt><trkpt lat="44.1718784" lon="10.5113066"><ele>1522.0</ele><time>2026-04-18T10:58:58Z</time></trkpt><trkpt lat="44.1718548" lon="10.5111539"><ele>1522.0</ele><time>2026-04-18T10:59:00Z</time></trkpt><trkpt lat="44.1718179" lon="10.510996"><ele>1522.0</ele><time>2026-04-18T10:59:02Z</time></trkpt><trkpt lat="44.1717656" lon="10.510845"><ele>1522.0</ele><time>2026-04-18T10:59:04Z</time></trkpt><trkpt lat="44.171741" lon="10.5107548"><ele>1522.0</ele><time>2026-04-18T10:59:05Z</time></trkpt><trkpt lat="44.1717321" lon="10.5106608"><ele>1522.0</ele><time>2026-04-18T10:59:06Z</time></trkpt><trkpt lat="44.171719" lon="10.5105681"><ele>1522.0</ele><time>2026-04-18T10:59:07Z</time></trkpt><trkpt lat="44.171723" lon="10.5104678"><ele>1521.8333333333333</ele><time>2026-04-18T10:59:08Z</time></trkpt><trkpt lat="44.171716" lon="10.5103791"><ele>1521.6666666666665</ele><time>2026-04-18T10:59:09Z</time></trkpt><trkpt lat="44.1717353" lon="10.5102662"><ele>1521.5</ele><time>2026-04-18T10:59:10Z</time></trkpt><trkpt lat="44.1717511" lon="10.5101635"><ele>1521.3333333333333</ele><time>2026-04-18T10:59:11Z</time></trkpt><trkpt lat="44.171772" lon="10.5100549"><ele>1521.1666666666667</ele><time>2026-04-18T10:59:12Z</time></trkpt><trkpt lat="44.1717871" lon="10.5099536"><ele>1521.0</ele><time>2026-04-18T10:59:13Z</time></trkpt><trkpt lat="44.1718122" lon="10.5098522"><ele>1521.0</ele><time>2026-04-18T10:59:14Z</time></trkpt><trkpt lat="44.1718425" lon="10.5097437"><ele>1521.0</ele><time>2026-04-18T10:59:15Z</time></trkpt><trkpt lat="44.1718766" lon="10.5096694"><ele>1521.0</ele><time>2026-04-18T10:59:16Z</time></trkpt><trkpt lat="44.1719247" lon="10.5095719"><ele>1521.0</ele><time>2026-04-18T10:59:17Z</time></trkpt><trkpt lat="44.1719639" lon="10.5094997"><ele>1521.0</ele><time>2026-04-18T10:59:18Z</time></trkpt><trkpt lat="44.1720164" lon="10.5094479"><ele>1521.0</ele><time>2026-04-18T10:59:19Z</time></trkpt><trkpt lat="44.1720741" lon="10.5094125"><ele>1521.0</ele><time>2026-04-18T10:59:20Z</time></trkpt><trkpt lat="44.172132" lon="10.5093749"><ele>1521.6666666666667</ele><time>2026-04-18T10:59:21Z</time></trkpt><trkpt lat="44.172206" lon="10.509327"><ele>1522.3333333333333</ele><time>2026-04-18T10:59:23Z</time></trkpt><trkpt lat="44.172243" lon="10.5092197"><ele>1523.0</ele><time>2026-04-18T10:59:26Z</time></trkpt><trkpt lat="44.172269" lon="10.5091243"><ele>1523.6666666666665</ele><time>2026-04-18T10:59:28Z</time></trkpt><trkpt lat="44.1722683" lon="10.5090046"><ele>1524.3333333333333</ele><time>2026-04-18T10:59:30Z</time></trkpt><trkpt lat="44.1722354" lon="10.5088792"><ele>1525.0</ele><time>2026-04-18T10:59:32Z</time></trkpt><trkpt lat="44.1722036" lon="10.5087517"><ele>1523.6666666666665</ele><time>2026-04-18T10:59:34Z</time></trkpt><trkpt lat="44.1721692" lon="10.5086486"><ele>1522.3333333333333</ele><time>2026-04-18T10:59:36Z</time></trkpt><trkpt lat="44.1721155" lon="10.5085431"><ele>1521.0</ele><time>2026-04-18T10:59:38Z</time></trkpt><trkpt lat="44.1720766" lon="10.5084512"><ele>1519.6666666666667</ele><time>2026-04-18T10:59:40Z</time></trkpt><trkpt lat="44.1720422" lon="10.5083373"><ele>1518.3333333333335</ele><time>2026-04-18T10:59:43Z</time></trkpt><trkpt lat="44.1720199" lon="10.5082538"><ele>1517.0</ele><time>2026-04-18T10:59:45Z</time></trkpt><trkpt lat="44.1720058" lon="10.5081464"><ele>1517.0</ele><time>2026-04-18T10:59:48Z</time></trkpt><trkpt lat="44.1719875" lon="10.5080507"><ele>1517.0</ele><time>2026-04-18T10:59:51Z</time></trkpt><trkpt lat="44.1719572" lon="10.5079608"><ele>1517.0</ele><time>2026-04-18T10:59:54Z</time></trkpt><trkpt lat="44.1719419" lon="10.5078711"><ele>1517.0</ele><time>2026-04-18T10:59:57Z</time></trkpt><trkpt lat="44.1719354" lon="10.5077836"><ele>1517.0</ele><time>2026-04-18T11:00:00Z</time></trkpt><trkpt lat="44.171929" lon="10.5076667"><ele>1517.0</ele><time>2026-04-18T11:00:04Z</time></trkpt><trkpt lat="44.1719386" lon="10.5075789"><ele>1517.0</ele><time>2026-04-18T11:00:07Z</time></trkpt><trkpt lat="44.1719314" lon="10.5074715"><ele>1515.5714285714284</ele><time>2026-04-18T11:00:10Z</time></trkpt><trkpt lat="44.1719212" lon="10.5073816"><ele>1514.1428571428573</ele><time>2026-04-18T11:00:13Z</time></trkpt><trkpt lat="44.1718855" lon="10.5072929"><ele>1512.7142857142858</ele><time>2026-04-18T11:00:17Z</time></trkpt><trkpt lat="44.1718445" lon="10.5072184"><ele>1511.2857142857142</ele><time>2026-04-18T11:00:21Z</time></trkpt><trkpt lat="44.1717963" lon="10.5071388"><ele>1509.8571428571427</ele><time>2026-04-18T11:00:25Z</time></trkpt><trkpt lat="44.171767" lon="10.5070437"><ele>1508.4285714285716</ele><time>2026-04-18T11:00:29Z</time></trkpt><trkpt lat="44.1717256" lon="10.5069675"><ele>1507.0</ele><time>2026-04-18T11:00:34.015Z</time></trkpt><trkpt lat="44.1716742" lon="10.506895"><ele>1506.2857142857144</ele><time>2026-04-18T11:00:36.96Z</time></trkpt><trkpt lat="44.1716275" lon="10.5068291"><ele>1505.5714285714284</ele><time>2026-04-18T11:00:39.947Z</time></trkpt><trkpt lat="44.1715895" lon="10.506755"><ele>1504.857142857143</ele><time>2026-04-18T11:00:42.924Z</time></trkpt><trkpt lat="44.1715559" lon="10.5066755"><ele>1504.1428571428573</ele><time>2026-04-18T11:00:47.018Z</time></trkpt><trkpt lat="44.1715107" lon="10.5065915"><ele>1503.4285714285716</ele><time>2026-04-18T11:00:50Z</time></trkpt><trkpt lat="44.1714378" lon="10.5065365"><ele>1502.7142857142858</ele><time>2026-04-18T11:00:53.011Z</time></trkpt><trkpt lat="44.1713542" lon="10.5065265"><ele>1502.0</ele><time>2026-04-18T11:00:56Z</time></trkpt><trkpt lat="44.1712998" lon="10.506471"><ele>1502.0000000000002</ele><time>2026-04-18T11:00:59Z</time></trkpt><trkpt lat="44.1712557" lon="10.5063948"><ele>1502.0</ele><time>2026-04-18T11:01:02Z</time></trkpt><trkpt lat="44.1712115" lon="10.5063288"><ele>1502.0</ele><time>2026-04-18T11:01:05Z</time></trkpt><trkpt lat="44.1711437" lon="10.50628"><ele>1502.0</ele><time>2026-04-18T11:01:09Z</time></trkpt><trkpt lat="44.1710925" lon="10.5062027"><ele>1502.0</ele><time>2026-04-18T11:01:13Z</time></trkpt><trkpt lat="44.1710872" lon="10.5061142"><ele>1502.0000000000002</ele><time>2026-04-18T11:01:18Z</time></trkpt><trkpt lat="44.171084" lon="10.5060236"><ele>1502.0</ele><time>2026-04-18T11:01:22Z</time></trkpt><trkpt lat="44.1710665" lon="10.5059279"><ele>1500.5</ele><time>2026-04-18T11:01:25Z</time></trkpt><trkpt lat="44.1710485" lon="10.5058242"><ele>1499.0</ele><time>2026-04-18T11:01:27.999Z</time></trkpt><trkpt lat="44.1710246" lon="10.5057153"><ele>1497.5</ele><time>2026-04-18T11:01:31Z</time></trkpt><trkpt lat="44.1709928" lon="10.5056073"><ele>1496.0</ele><time>2026-04-18T11:01:34Z</time></trkpt><trkpt lat="44.1709738" lon="10.5054959"><ele>1494.5</ele><time>2026-04-18T11:01:37Z</time></trkpt><trkpt lat="44.1709487" lon="10.5053742"><ele>1493.0</ele><time>2026-04-18T11:01:40Z</time></trkpt><trkpt lat="44.1709211" lon="10.505266"><ele>1491.4285714285716</ele><time>2026-04-18T11:01:43Z</time></trkpt><trkpt lat="44.1709003" lon="10.5051526"><ele>1489.8571428571427</ele><time>2026-04-18T11:01:46Z</time></trkpt><trkpt lat="44.1708698" lon="10.5050715"><ele>1488.2857142857142</ele><time>2026-04-18T11:01:49Z</time></trkpt><trkpt lat="44.1708142" lon="10.5050111"><ele>1486.7142857142858</ele><time>2026-04-18T11:01:52Z</time></trkpt><trkpt lat="44.1707493" lon="10.5050115"><ele>1485.1428571428573</ele><time>2026-04-18T11:01:55Z</time></trkpt><trkpt lat="44.170674" lon="10.5050164"><ele>1483.5714285714284</ele><time>2026-04-18T11:01:59Z</time></trkpt><trkpt lat="44.1706379" lon="10.5051112"><ele>1482.0</ele><time>2026-04-18T11:02:05Z</time></trkpt><trkpt lat="44.1706243" lon="10.5052325"><ele>1482.0</ele><time>2026-04-18T11:02:08Z</time></trkpt><trkpt lat="44.1709738" lon="10.5054959"><ele>1482.0</ele><time>2026-04-18T11:01:37Z</time></trkpt><trkpt lat="44.1709487" lon="10.5053742"><ele>1482.0</ele><time>2026-04-18T11:01:40Z</time></trkpt><trkpt lat="44.1709211" lon="10.505266"><ele>1482.0</ele><time>2026-04-18T11:01:43Z</time></trkpt><trkpt lat="44.1709003" lon="10.5051526"><ele>1482.0</ele><time>2026-04-18T11:01:46Z</time></trkpt><trkpt lat="44.1708698" lon="10.5050715"><ele>1482.0</ele><time>2026-04-18T11:01:49Z</time></trkpt><trkpt lat="44.1708142" lon="10.5050111"><ele>1482.0</ele><time>2026-04-18T11:01:52Z</time></trkpt><trkpt lat="44.1707493" lon="10.5050115"><ele>1482.0</ele><time>2026-04-18T11:01:55Z</time></trkpt><trkpt lat="44.170674" lon="10.5050164"><ele>1482.0</ele><time>2026-04-18T11:01:59Z</time></trkpt><trkpt lat="44.1706379" lon="10.5051112"><ele>1478.0</ele><time>2026-04-18T11:02:05Z</time></trkpt><trkpt lat="44.1706243" lon="10.5052325"><ele>1474.0</ele><time>2026-04-18T11:02:08Z</time></trkpt><trkpt lat="44.170605" lon="10.5053285"><ele>1470.0</ele><time>2026-04-18T11:02:10Z</time></trkpt><trkpt lat="44.1705795" lon="10.505436"><ele>1466.0</ele><time>2026-04-18T11:02:12Z</time></trkpt><trkpt lat="44.1705335" lon="10.5055824"><ele>1462.0</ele><time>2026-04-18T11:02:14Z</time></trkpt><trkpt lat="44.170487" lon="10.5057219"><ele>1462.0</ele><time>2026-04-18T11:02:16Z</time></trkpt><trkpt lat="44.17045" lon="10.505795"><ele>1462.0</ele><time>2026-04-18T11:02:17Z</time></trkpt><trkpt lat="44.170414" lon="10.5058742"><ele>1462.0</ele><time>2026-04-18T11:02:18Z</time></trkpt><trkpt lat="44.1703506" lon="10.5059704"><ele>1462.0</ele><time>2026-04-18T11:02:19Z</time></trkpt><trkpt lat="44.1702866" lon="10.5060516"><ele>1462.0</ele><time>2026-04-18T11:02:20Z</time></trkpt><trkpt lat="44.1702256" lon="10.5061143"><ele>1462.0</ele><time>2026-04-18T11:02:21Z</time></trkpt><trkpt lat="44.1701643" lon="10.5061956"><ele>1464.0</ele><time>2026-04-18T11:02:22Z</time></trkpt><trkpt lat="44.1701122" lon="10.5062622"><ele>1466.0</ele><time>2026-04-18T11:02:23Z</time></trkpt><trkpt lat="44.1700677" lon="10.5063255"><ele>1468.0</ele><time>2026-04-18T11:02:24Z</time></trkpt><trkpt lat="44.1700156" lon="10.5064018"><ele>1470.0</ele><time>2026-04-18T11:02:25Z</time></trkpt><trkpt lat="44.1699735" lon="10.5064808"><ele>1472.0</ele><time>2026-04-18T11:02:26Z</time></trkpt><trkpt lat="44.1699345" lon="10.506562"><ele>1474.0</ele><time>2026-04-18T11:02:27Z</time></trkpt><trkpt lat="44.1698674" lon="10.5066946"><ele>1472.2</ele><time>2026-04-18T11:02:29Z</time></trkpt><trkpt lat="44.1698075" lon="10.5068204"><ele>1470.4</ele><time>2026-04-18T11:02:31Z</time></trkpt><trkpt lat="44.1697547" lon="10.5068831"><ele>1468.6</ele><time>2026-04-18T11:02:32Z</time></trkpt><trkpt lat="44.1697101" lon="10.5069465"><ele>1466.8</ele><time>2026-04-18T11:02:33Z</time></trkpt><trkpt lat="44.169607" lon="10.5070383"><ele>1465.0</ele><time>2026-04-18T11:02:35Z</time></trkpt><trkpt lat="44.1694919" lon="10.5071189"><ele>1465.0</ele><time>2026-04-18T11:02:37Z</time></trkpt><trkpt lat="44.1694296" lon="10.5072355"><ele>1465.0</ele><time>2026-04-18T11:02:39Z</time></trkpt><trkpt lat="44.1693285" lon="10.5073312"><ele>1465.0</ele><time>2026-04-18T11:02:41Z</time></trkpt><trkpt lat="44.1692364" lon="10.5074314"><ele>1465.0</ele><time>2026-04-18T11:02:43Z</time></trkpt><trkpt lat="44.1691827" lon="10.5074908"><ele>1465.0</ele><time>2026-04-18T11:02:44Z</time></trkpt><trkpt lat="44.1691169" lon="10.507526"><ele>1465.0</ele><time>2026-04-18T11:02:45Z</time></trkpt><trkpt lat="44.1690329" lon="10.5076303"><ele>1465.0</ele><time>2026-04-18T11:02:47Z</time></trkpt><trkpt lat="44.1689511" lon="10.507733"><ele>1465.0</ele><time>2026-04-18T11:02:49Z</time></trkpt><trkpt lat="44.1688846" lon="10.5078291"><ele>1465.0</ele><time>2026-04-18T11:02:51Z</time></trkpt><trkpt lat="44.1687733" lon="10.507936"><ele>1463.8</ele><time>2026-04-18T11:02:53Z</time></trkpt><trkpt lat="44.1686987" lon="10.5079834"><ele>1462.6</ele><time>2026-04-18T11:02:54Z</time></trkpt><trkpt lat="44.168605" lon="10.5080304"><ele>1461.4</ele><time>2026-04-18T11:02:56Z</time></trkpt><trkpt lat="44.1685394" lon="10.5080719"><ele>1460.2</ele><time>2026-04-18T11:02:57Z</time></trkpt><trkpt lat="44.1683998" lon="10.5081467"><ele>1459.0</ele><time>2026-04-18T11:02:59Z</time></trkpt><trkpt lat="44.1683279" lon="10.5081897"><ele>1459.0</ele><time>2026-04-18T11:03:00Z</time></trkpt><trkpt lat="44.1682295" lon="10.5082628"><ele>1459.0</ele><time>2026-04-18T11:03:02Z</time></trkpt><trkpt lat="44.1681922" lon="10.5083621"><ele>1459.0</ele><time>2026-04-18T11:03:04Z</time></trkpt><trkpt lat="44.1681292" lon="10.5084784"><ele>1459.0</ele><time>2026-04-18T11:03:06Z</time></trkpt><trkpt lat="44.1680596" lon="10.5085479"><ele>1459.0</ele><time>2026-04-18T11:03:08Z</time></trkpt><trkpt lat="44.1679986" lon="10.5085878"><ele>1459.0</ele><time>2026-04-18T11:03:09Z</time></trkpt><trkpt lat="44.1679149" lon="10.508619"><ele>1459.75</ele><time>2026-04-18T11:03:11Z</time></trkpt><trkpt lat="44.1678061" lon="10.5086489"><ele>1460.5</ele><time>2026-04-18T11:03:13Z</time></trkpt><trkpt lat="44.1677029" lon="10.5087191"><ele>1461.25</ele><time>2026-04-18T11:03:15Z</time></trkpt><trkpt lat="44.1675858" lon="10.5087762"><ele>1462.0</ele><time>2026-04-18T11:03:17Z</time></trkpt><trkpt lat="44.1674832" lon="10.5088175"><ele>1462.0</ele><time>2026-04-18T11:03:19Z</time></trkpt><trkpt lat="44.1673853" lon="10.5088488"><ele>1462.0</ele><time>2026-04-18T11:03:21Z</time></trkpt><trkpt lat="44.1673279" lon="10.5088897"><ele>1462.0</ele><time>2026-04-18T11:03:22Z</time></trkpt><trkpt lat="44.1672498" lon="10.508909"><ele>1462.0</ele><time>2026-04-18T11:03:23Z</time></trkpt><trkpt lat="44.1671381" lon="10.5089952"><ele>1462.0</ele><time>2026-04-18T11:03:25Z</time></trkpt><trkpt lat="44.1670738" lon="10.509058"><ele>1454.6</ele><time>2026-04-18T11:03:26Z</time></trkpt><trkpt lat="44.1669684" lon="10.5091378"><ele>1447.1999999999998</ele><time>2026-04-18T11:03:28Z</time></trkpt><trkpt lat="44.1669062" lon="10.5091844"><ele>1439.8</ele><time>2026-04-18T11:03:29Z</time></trkpt><trkpt lat="44.1668415" lon="10.5092778"><ele>1432.4</ele><time>2026-04-18T11:03:31Z</time></trkpt><trkpt lat="44.1667692" lon="10.5092604"><ele>1425.0</ele><time>2026-04-18T11:03:34Z</time></trkpt><trkpt lat="44.1668169" lon="10.5091387"><ele>1425.0</ele><time>2026-04-18T11:03:37Z</time></trkpt><trkpt lat="44.1668769" lon="10.5091011"><ele>1425.0</ele><time>2026-04-18T11:03:39Z</time></trkpt><trkpt lat="44.1669849" lon="10.5089869"><ele>1425.0</ele><time>2026-04-18T11:03:41Z</time></trkpt><trkpt lat="44.167038" lon="10.5089131"><ele>1425.0</ele><time>2026-04-18T11:03:42Z</time></trkpt><trkpt lat="44.1670965" lon="10.508851"><ele>1425.0</ele><time>2026-04-18T11:03:43Z</time></trkpt><trkpt lat="44.167154" lon="10.5087771"><ele>1425.0</ele><time>2026-04-18T11:03:44Z</time></trkpt><trkpt lat="44.1672171" lon="10.5087055"><ele>1425.6666666666667</ele><time>2026-04-18T11:03:45Z</time></trkpt><trkpt lat="44.1672744" lon="10.5086662"><ele>1426.3333333333333</ele><time>2026-04-18T11:03:46Z</time></trkpt><trkpt lat="44.167332" lon="10.5086077"><ele>1427.0</ele><time>2026-04-18T11:03:47Z</time></trkpt><trkpt lat="44.1674471" lon="10.5085228"><ele>1427.6666666666665</ele><time>2026-04-18T11:03:49Z</time></trkpt><trkpt lat="44.1674992" lon="10.5084504"><ele>1428.3333333333333</ele><time>2026-04-18T11:03:50Z</time></trkpt><trkpt lat="44.1675558" lon="10.5084038"><ele>1429.0</ele><time>2026-04-18T11:03:51Z</time></trkpt><trkpt lat="44.1676083" lon="10.5083321"><ele>1429.0</ele><time>2026-04-18T11:03:52Z</time></trkpt><trkpt lat="44.1676881" lon="10.5082447"><ele>1429.0</ele><time>2026-04-18T11:03:54Z</time></trkpt><trkpt lat="44.1677401" lon="10.5081387"><ele>1429.0</ele><time>2026-04-18T11:03:56Z</time></trkpt><trkpt lat="44.1677618" lon="10.5079607"><ele>1429.0</ele><time>2026-04-18T11:03:58Z</time></trkpt><trkpt lat="44.1678164" lon="10.5078316"><ele>1429.0</ele><time>2026-04-18T11:04:00Z</time></trkpt><trkpt lat="44.1678838" lon="10.5077773"><ele>1429.8000000000002</ele><time>2026-04-18T11:04:02Z</time></trkpt><trkpt lat="44.1679204" lon="10.5076969"><ele>1430.6000000000001</ele><time>2026-04-18T11:04:04Z</time></trkpt><trkpt lat="44.168" lon="10.5076477"><ele>1431.4</ele><time>2026-04-18T11:04:08Z</time></trkpt><trkpt lat="44.1680798" lon="10.5075603"><ele>1432.2</ele><time>2026-04-18T11:04:11Z</time></trkpt><trkpt lat="44.1681693" lon="10.5074708"><ele>1433.0</ele><time>2026-04-18T11:04:13Z</time></trkpt><trkpt lat="44.1682412" lon="10.5073798"><ele>1433.0</ele><time>2026-04-18T11:04:15Z</time></trkpt><trkpt lat="44.1683107" lon="10.5073202"><ele>1433.0</ele><time>2026-04-18T11:04:17Z</time></trkpt><trkpt lat="44.1683802" lon="10.5072578"><ele>1433.0</ele><time>2026-04-18T11:04:19Z</time></trkpt><trkpt lat="44.1683848" lon="10.5071561"><ele>1433.0</ele><time>2026-04-18T11:04:21Z</time></trkpt><trkpt lat="44.1683908" lon="10.5070476"><ele>1433.0</ele><time>2026-04-18T11:04:23Z</time></trkpt><trkpt lat="44.1684364" lon="10.506902"><ele>1433.0</ele><time>2026-04-18T11:04:25Z</time></trkpt><trkpt lat="44.1684768" lon="10.5067909"><ele>1428.5</ele><time>2026-04-18T11:04:27Z</time></trkpt><trkpt lat="44.168542" lon="10.5067469"><ele>1424.0</ele><time>2026-04-18T11:04:29Z</time></trkpt><trkpt lat="44.168609" lon="10.506716"><ele>1419.5</ele><time>2026-04-18T11:04:31Z</time></trkpt><trkpt lat="44.1686695" lon="10.5066354"><ele>1415.0</ele><time>2026-04-18T11:04:34Z</time></trkpt><trkpt lat="44.1687399" lon="10.5065424"><ele>1410.5</ele><time>2026-04-18T11:04:37Z</time></trkpt><trkpt lat="44.1687961" lon="10.5064138"><ele>1406.0</ele><time>2026-04-18T11:04:39Z</time></trkpt><trkpt lat="44.1688417" lon="10.5062831"><ele>1402.6666666666667</ele><time>2026-04-18T11:04:41Z</time></trkpt><trkpt lat="44.1688822" lon="10.5061631"><ele>1399.3333333333335</ele><time>2026-04-18T11:04:43Z</time></trkpt><trkpt lat="44.1688806" lon="10.5060319"><ele>1396.0</ele><time>2026-04-18T11:04:45Z</time></trkpt><trkpt lat="44.1689044" lon="10.5059185"><ele>1392.6666666666667</ele><time>2026-04-18T11:04:47Z</time></trkpt><trkpt lat="44.1689278" lon="10.50583"><ele>1389.3333333333333</ele><time>2026-04-18T11:04:48Z</time></trkpt><trkpt lat="44.1689731" lon="10.505722"><ele>1386.0</ele><time>2026-04-18T11:04:50Z</time></trkpt><trkpt lat="44.1690026" lon="10.5056167"><ele>1386.0</ele><time>2026-04-18T11:04:52Z</time></trkpt><trkpt lat="44.1690001" lon="10.5055211"><ele>1386.0</ele><time>2026-04-18T11:04:53Z</time></trkpt><trkpt lat="44.1690062" lon="10.5053845"><ele>1386.0</ele><time>2026-04-18T11:04:55Z</time></trkpt><trkpt lat="44.168966" lon="10.5052492"><ele>1386.0</ele><time>2026-04-18T11:04:57Z</time></trkpt><trkpt lat="44.1689386" lon="10.5051648"><ele>1386.0</ele><time>2026-04-18T11:04:58Z</time></trkpt><trkpt lat="44.1688983" lon="10.5050342"><ele>1386.0</ele><time>2026-04-18T11:05:00Z</time></trkpt><trkpt lat="44.1688963" lon="10.5049057"><ele>1383.4</ele><time>2026-04-18T11:05:02Z</time></trkpt><trkpt lat="44.1688887" lon="10.504773"><ele>1380.8</ele><time>2026-04-18T11:05:04Z</time></trkpt><trkpt lat="44.1688975" lon="10.504628"><ele>1378.2</ele><time>2026-04-18T11:05:06Z</time></trkpt><trkpt lat="44.1688834" lon="10.5045266"><ele>1375.6000000000001</ele><time>2026-04-18T11:05:08Z</time></trkpt><trkpt lat="44.1688521" lon="10.5044358"><ele>1373.0</ele><time>2026-04-18T11:05:10Z</time></trkpt><trkpt lat="44.1688417" lon="10.5062831"><ele>1375.1666666666667</ele><time>2026-04-18T11:04:41Z</time></trkpt><trkpt lat="44.1688822" lon="10.5061631"><ele>1377.3333333333335</ele><time>2026-04-18T11:04:43Z</time></trkpt><trkpt lat="44.1688806" lon="10.5060319"><ele>1379.5</ele><time>2026-04-18T11:04:45Z</time></trkpt><trkpt lat="44.1689044" lon="10.5059185"><ele>1381.6666666666667</ele><time>2026-04-18T11:04:47Z</time></trkpt><trkpt lat="44.1689278" lon="10.50583"><ele>1383.8333333333333</ele><time>2026-04-18T11:04:48Z</time></trkpt><trkpt lat="44.1689731" lon="10.505722"><ele>1386.0</ele><time>2026-04-18T11:04:50Z</time></trkpt><trkpt lat="44.1690026" lon="10.5056167"><ele>1386.0</ele><time>2026-04-18T11:04:52Z</time></trkpt><trkpt lat="44.1690001" lon="10.5055211"><ele>1386.0</ele><time>2026-04-18T11:04:53Z</time></trkpt><trkpt lat="44.1690062" lon="10.5053845"><ele>1386.0</ele><time>2026-04-18T11:04:55Z</time></trkpt><trkpt lat="44.168966" lon="10.5052492"><ele>1386.0</ele><time>2026-04-18T11:04:57Z</time></trkpt><trkpt lat="44.1689386" lon="10.5051648"><ele>1386.0</ele><time>2026-04-18T11:04:58Z</time></trkpt><trkpt lat="44.1688983" lon="10.5050342"><ele>1386.0</ele><time>2026-04-18T11:05:00Z</time></trkpt><trkpt lat="44.1688963" lon="10.5049057"><ele>1383.8333333333333</ele><time>2026-04-18T11:05:02Z</time></trkpt><trkpt lat="44.1688887" lon="10.504773"><ele>1381.6666666666667</ele><time>2026-04-18T11:05:04Z</time></trkpt><trkpt lat="44.1688975" lon="10.504628"><ele>1379.5</ele><time>2026-04-18T11:05:06Z</time></trkpt><trkpt lat="44.1688834" lon="10.5045266"><ele>1377.3333333333335</ele><time>2026-04-18T11:05:08Z</time></trkpt><trkpt lat="44.1688521" lon="10.5044358"><ele>1375.1666666666667</ele><time>2026-04-18T11:05:10Z</time></trkpt><trkpt lat="44.1687938" lon="10.5043978"><ele>1373.0</ele><time>2026-04-18T11:05:12Z</time></trkpt><trkpt lat="44.1687343" lon="10.5044591"><ele>1373.0</ele><time>2026-04-18T11:05:15Z</time></trkpt><trkpt lat="44.168727" lon="10.5045906"><ele>1373.0</ele><time>2026-04-18T11:05:17Z</time></trkpt><trkpt lat="44.1687252" lon="10.5047451"><ele>1373.0</ele><time>2026-04-18T11:05:19Z</time></trkpt><trkpt lat="44.1687385" lon="10.5048952"><ele>1373.0</ele><time>2026-04-18T11:05:21Z</time></trkpt><trkpt lat="44.1687423" lon="10.5049975"><ele>1373.0</ele><time>2026-04-18T11:05:23Z</time></trkpt><trkpt lat="44.1687226" lon="10.5051188"><ele>1373.0</ele><time>2026-04-18T11:05:25Z</time></trkpt><trkpt lat="44.1686899" lon="10.5052303"><ele>1373.0</ele><time>2026-04-18T11:05:27Z</time></trkpt><trkpt lat="44.1686487" lon="10.5053075"><ele>1373.0</ele><time>2026-04-18T11:05:28Z</time></trkpt><trkpt lat="44.1686105" lon="10.5054005"><ele>1373.0</ele><time>2026-04-18T11:05:30Z</time></trkpt><trkpt lat="44.1685359" lon="10.5054994"><ele>1373.0</ele><time>2026-04-18T11:05:32Z</time></trkpt><trkpt lat="44.1684561" lon="10.5055755"><ele>1373.0</ele><time>2026-04-18T11:05:34Z</time></trkpt><trkpt lat="44.1683853" lon="10.5056514"><ele>1371.2</ele><time>2026-04-18T11:05:36Z</time></trkpt><trkpt lat="44.1683233" lon="10.5056969"><ele>1369.4</ele><time>2026-04-18T11:05:37Z</time></trkpt><trkpt lat="44.168201" lon="10.5057661"><ele>1367.6000000000001</ele><time>2026-04-18T11:05:39Z</time></trkpt><trkpt lat="44.1681002" lon="10.5058373"><ele>1365.8000000000002</ele><time>2026-04-18T11:05:41Z</time></trkpt><trkpt lat="44.1680353" lon="10.505875"><ele>1364.0</ele><time>2026-04-18T11:05:42Z</time></trkpt><trkpt lat="44.1679227" lon="10.5059195"><ele>1364.0</ele><time>2026-04-18T11:05:44Z</time></trkpt><trkpt lat="44.1678548" lon="10.5059595"><ele>1364.0</ele><time>2026-04-18T11:05:45Z</time></trkpt><trkpt lat="44.1677954" lon="10.5059892"><ele>1364.0</ele><time>2026-04-18T11:05:46Z</time></trkpt><trkpt lat="44.1677204" lon="10.5060573"><ele>1364.0</ele><time>2026-04-18T11:05:48Z</time></trkpt><trkpt lat="44.1676316" lon="10.5060837"><ele>1364.0</ele><time>2026-04-18T11:05:50Z</time></trkpt><trkpt lat="44.1675214" lon="10.5060757"><ele>1364.0</ele><time>2026-04-18T11:05:52Z</time></trkpt><trkpt lat="44.167393" lon="10.5060797"><ele>1359.2</ele><time>2026-04-18T11:05:54Z</time></trkpt><trkpt lat="44.1672776" lon="10.506102"><ele>1354.4</ele><time>2026-04-18T11:05:56Z</time></trkpt><trkpt lat="44.1672086" lon="10.5061232"><ele>1349.6</ele><time>2026-04-18T11:05:57Z</time></trkpt><trkpt lat="44.1671452" lon="10.506147"><ele>1344.8</ele><time>2026-04-18T11:05:58Z</time></trkpt><trkpt lat="44.1670208" lon="10.5061431"><ele>1340.0</ele><time>2026-04-18T11:06:00Z</time></trkpt><trkpt lat="44.1668979" lon="10.5061465"><ele>1339.9999999999998</ele><time>2026-04-18T11:06:02Z</time></trkpt><trkpt lat="44.1668257" lon="10.5061707"><ele>1340.0</ele><time>2026-04-18T11:06:03Z</time></trkpt><trkpt lat="44.1667643" lon="10.5061939"><ele>1340.0</ele><time>2026-04-18T11:06:04Z</time></trkpt><trkpt lat="44.1666955" lon="10.5062212"><ele>1340.0</ele><time>2026-04-18T11:06:05Z</time></trkpt><trkpt lat="44.1666217" lon="10.5062493"><ele>1340.0</ele><time>2026-04-18T11:06:06Z</time></trkpt><trkpt lat="44.16655" lon="10.5063044"><ele>1339.9999999999998</ele><time>2026-04-18T11:06:07Z</time></trkpt><trkpt lat="44.1664898" lon="10.5063413"><ele>1340.0</ele><time>2026-04-18T11:06:08Z</time></trkpt><trkpt lat="44.1663795" lon="10.5063957"><ele>1337.4</ele><time>2026-04-18T11:06:10Z</time></trkpt><trkpt lat="44.1662852" lon="10.5064963"><ele>1334.8</ele><time>2026-04-18T11:06:12Z</time></trkpt><trkpt lat="44.1662091" lon="10.5065617"><ele>1332.1999999999998</ele><time>2026-04-18T11:06:14Z</time></trkpt><trkpt lat="44.1661271" lon="10.5066809"><ele>1329.6</ele><time>2026-04-18T11:06:16Z</time></trkpt><trkpt lat="44.1660895" lon="10.5068349"><ele>1327.0</ele><time>2026-04-18T11:06:18Z</time></trkpt><trkpt lat="44.1660934" lon="10.5069823"><ele>1330.3999999999999</ele><time>2026-04-18T11:06:20Z</time></trkpt><trkpt lat="44.1661107" lon="10.5070985"><ele>1333.8</ele><time>2026-04-18T11:06:22Z</time></trkpt><trkpt lat="44.1661314" lon="10.5072459"><ele>1337.2</ele><time>2026-04-18T11:06:24Z</time></trkpt><trkpt lat="44.1661024" lon="10.5073758"><ele>1340.6</ele><time>2026-04-18T11:06:27Z</time></trkpt><trkpt lat="44.166022" lon="10.5074582"><ele>1344.0</ele><time>2026-04-18T11:06:30Z</time></trkpt><trkpt lat="44.1659695" lon="10.5075252"><ele>1344.0</ele><time>2026-04-18T11:06:31Z</time></trkpt><trkpt lat="44.1658669" lon="10.5076"><ele>1344.0</ele><time>2026-04-18T11:06:33Z</time></trkpt><trkpt lat="44.1658037" lon="10.5076311"><ele>1344.0</ele><time>2026-04-18T11:06:35Z</time></trkpt><trkpt lat="44.1657599" lon="10.5077089"><ele>1344.0</ele><time>2026-04-18T11:06:38Z</time></trkpt><trkpt lat="44.1657131" lon="10.5077866"><ele>1344.0</ele><time>2026-04-18T11:06:41Z</time></trkpt><trkpt lat="44.1656548" lon="10.5078416"><ele>1344.0</ele><time>2026-04-18T11:06:43Z</time></trkpt><trkpt lat="44.1656184" lon="10.507914"><ele>1344.0</ele><time>2026-04-18T11:06:45Z</time></trkpt><trkpt lat="44.165557" lon="10.5079579"><ele>1344.0</ele><time>2026-04-18T11:06:47Z</time></trkpt><trkpt lat="44.1654786" lon="10.5079697"><ele>1344.0</ele><time>2026-04-18T11:06:49Z</time></trkpt><trkpt lat="44.1653971" lon="10.5080104"><ele>1344.0</ele><time>2026-04-18T11:06:51Z</time></trkpt><trkpt lat="44.1653279" lon="10.5080654"><ele>1344.0</ele><time>2026-04-18T11:06:53Z</time></trkpt><trkpt lat="44.1652476" lon="10.5081259"><ele>1344.0</ele><time>2026-04-18T11:06:55Z</time></trkpt><trkpt lat="44.1651432" lon="10.5080878"><ele>1344.0</ele><time>2026-04-18T11:06:56Z</time></trkpt><trkpt lat="44.1650463" lon="10.5081011"><ele>1344.0</ele><time>2026-04-18T11:06:58Z</time></trkpt><trkpt lat="44.1649233" lon="10.5080851"><ele>1344.0</ele><time>2026-04-18T11:07:00Z</time></trkpt><trkpt lat="44.1648111" lon="10.5080398"><ele>1344.0</ele><time>2026-04-18T11:07:02Z</time></trkpt><trkpt lat="44.1647205" lon="10.5080066"><ele>1344.0</ele><time>2026-04-18T11:07:04Z</time></trkpt><trkpt lat="44.1646166" lon="10.5079889"><ele>1340.1666666666667</ele><time>2026-04-18T11:07:06Z</time></trkpt><trkpt lat="44.1645492" lon="10.5080076"><ele>1336.3333333333333</ele><time>2026-04-18T11:07:08Z</time></trkpt><trkpt lat="44.1644445" lon="10.5080055"><ele>1332.5</ele><time>2026-04-18T11:07:10Z</time></trkpt><trkpt lat="44.164341" lon="10.5079623"><ele>1328.6666666666665</ele><time>2026-04-18T11:07:12Z</time></trkpt><trkpt lat="44.1642738" lon="10.5079618"><ele>1324.8333333333333</ele><time>2026-04-18T11:07:14Z</time></trkpt><trkpt lat="44.1642044" lon="10.5079989"><ele>1321.0</ele><time>2026-04-18T11:07:17Z</time></trkpt><trkpt lat="44.1641749" lon="10.5081333"><ele>1321.0</ele><time>2026-04-18T11:07:20Z</time></trkpt><trkpt lat="44.164143" lon="10.5082592"><ele>1321.0</ele><time>2026-04-18T11:07:22Z</time></trkpt><trkpt lat="44.1641304" lon="10.5083686"><ele>1321.0</ele><time>2026-04-18T11:07:24Z</time></trkpt><trkpt lat="44.1641716" lon="10.5085221"><ele>1321.0</ele><time>2026-04-18T11:07:26Z</time></trkpt><trkpt lat="44.1642345" lon="10.5086334"><ele>1321.0</ele><time>2026-04-18T11:07:28Z</time></trkpt><trkpt lat="44.1642849" lon="10.508719"><ele>1318.8</ele><time>2026-04-18T11:07:30Z</time></trkpt><trkpt lat="44.1643054" lon="10.5088196"><ele>1316.6</ele><time>2026-04-18T11:07:32Z</time></trkpt><trkpt lat="44.1643045" lon="10.5089135"><ele>1314.4</ele><time>2026-04-18T11:07:33Z</time></trkpt><trkpt lat="44.1643678" lon="10.5090516"><ele>1312.2</ele><time>2026-04-18T11:07:35Z</time></trkpt><trkpt lat="44.1644259" lon="10.5091963"><ele>1310.0</ele><time>2026-04-18T11:07:37Z</time></trkpt><trkpt lat="44.164486" lon="10.5093193"><ele>1310.0</ele><time>2026-04-18T11:07:39Z</time></trkpt><trkpt lat="44.1645304" lon="10.5094115"><ele>1310.0</ele><time>2026-04-18T11:07:41Z</time></trkpt><trkpt lat="44.1645306" lon="10.5095104"><ele>1310.0</ele><time>2026-04-18T11:07:43Z</time></trkpt><trkpt lat="44.1644946" lon="10.5096219"><ele>1310.0</ele><time>2026-04-18T11:07:46Z</time></trkpt><trkpt lat="44.1644774" lon="10.5097369"><ele>1310.0</ele><time>2026-04-18T11:07:48Z</time></trkpt><trkpt lat="44.1644539" lon="10.5099115"><ele>1307.1666666666667</ele><time>2026-04-18T11:07:50Z</time></trkpt><trkpt lat="44.1644336" lon="10.5099994"><ele>1304.3333333333335</ele><time>2026-04-18T11:07:51Z</time></trkpt><trkpt lat="44.1644024" lon="10.5101387"><ele>1301.5</ele><time>2026-04-18T11:07:53Z</time></trkpt><trkpt lat="44.1643883" lon="10.5102584"><ele>1298.6666666666667</ele><time>2026-04-18T11:07:55Z</time></trkpt><trkpt lat="44.164425" lon="10.5103666"><ele>1295.8333333333333</ele><time>2026-04-18T11:07:57Z</time></trkpt><trkpt lat="44.1644637" lon="10.5104555"><ele>1293.0</ele><time>2026-04-18T11:07:59Z</time></trkpt><trkpt lat="44.1645116" lon="10.5105291"><ele>1293.0</ele><time>2026-04-18T11:08:01Z</time></trkpt><trkpt lat="44.1644824" lon="10.5106356"><ele>1293.0</ele><time>2026-04-18T11:08:05Z</time></trkpt><trkpt lat="44.1644113" lon="10.5106849"><ele>1293.0</ele><time>2026-04-18T11:08:10Z</time></trkpt><trkpt lat="44.1643399" lon="10.5106583"><ele>1293.0</ele><time>2026-04-18T11:08:13Z</time></trkpt><trkpt lat="44.1643261" lon="10.5105424"><ele>1293.0</ele><time>2026-04-18T11:08:15Z</time></trkpt><trkpt lat="44.1643525" lon="10.5104219"><ele>1293.0</ele><time>2026-04-18T11:08:18Z</time></trkpt><trkpt lat="44.1643711" lon="10.5103181"><ele>1293.0</ele><time>2026-04-18T11:08:21Z</time></trkpt><trkpt lat="44.1643525" lon="10.5102304"><ele>1293.0</ele><time>2026-04-18T11:08:23Z</time></trkpt><trkpt lat="44.1643416" lon="10.5101387"><ele>1293.0</ele><time>2026-04-18T11:08:25Z</time></trkpt><trkpt lat="44.1640384" lon="10.509186"><ele>1289.0</ele><time>2026-04-18T11:08:26Z</time></trkpt><trkpt lat="44.1639749" lon="10.5090693"><ele>1285.0</ele><time>2026-04-18T11:08:28Z</time></trkpt><trkpt lat="44.1639055" lon="10.508997"><ele>1281.0</ele><time>2026-04-18T11:08:30Z</time></trkpt><trkpt lat="44.1638394" lon="10.5089541"><ele>1277.0</ele><time>2026-04-18T11:08:32Z</time></trkpt><trkpt lat="44.1637663" lon="10.5089084"><ele>1273.0</ele><time>2026-04-18T11:08:37Z</time></trkpt><trkpt lat="44.1637127" lon="10.5088587"><ele>1269.0</ele><time>2026-04-18T11:08:41Z</time></trkpt><trkpt lat="44.1636747" lon="10.5087771"><ele>1271.142857142857</ele><time>2026-04-18T11:08:45Z</time></trkpt><trkpt lat="44.1636396" lon="10.5086729"><ele>1273.2857142857142</ele><time>2026-04-18T11:08:49Z</time></trkpt><trkpt lat="44.1636148" lon="10.5085806"><ele>1275.4285714285713</ele><time>2026-04-18T11:08:52Z</time></trkpt><trkpt lat="44.1635979" lon="10.5084738"><ele>1277.5714285714284</ele><time>2026-04-18T11:08:54Z</time></trkpt><trkpt lat="44.1635832" lon="10.5083755"><ele>1279.7142857142858</ele><time>2026-04-18T11:08:56Z</time></trkpt><trkpt lat="44.1635624" lon="10.5082762"><ele>1281.8571428571427</ele><time>2026-04-18T11:08:59Z</time></trkpt><trkpt lat="44.1635884" lon="10.5081908"><ele>1284.0</ele><time>2026-04-18T11:09:01Z</time></trkpt><trkpt lat="44.1636233" lon="10.5080853"><ele>1283.9999999999998</ele><time>2026-04-18T11:09:03Z</time></trkpt><trkpt lat="44.1636394" lon="10.5079879"><ele>1284.0</ele><time>2026-04-18T11:09:05Z</time></trkpt><trkpt lat="44.163622" lon="10.5078897"><ele>1284.0</ele><time>2026-04-18T11:09:07Z</time></trkpt><trkpt lat="44.1635888" lon="10.5078055"><ele>1284.0</ele><time>2026-04-18T11:09:09Z</time></trkpt><trkpt lat="44.1635623" lon="10.5077212"><ele>1284.0</ele><time>2026-04-18T11:09:12Z</time></trkpt><trkpt lat="44.1635174" lon="10.5076349"><ele>1283.9999999999998</ele><time>2026-04-18T11:09:16Z</time></trkpt><trkpt lat="44.163466" lon="10.5075617"><ele>1284.0</ele><time>2026-04-18T11:09:20Z</time></trkpt><trkpt lat="44.1634187" lon="10.5075032"><ele>1284.5</ele><time>2026-04-18T11:09:22Z</time></trkpt><trkpt lat="44.1633698" lon="10.5074316"><ele>1285.0</ele><time>2026-04-18T11:09:24Z</time></trkpt><trkpt lat="44.1633208" lon="10.5073266"><ele>1285.5</ele><time>2026-04-18T11:09:27Z</time></trkpt><trkpt lat="44.1633074" lon="10.5072245"><ele>1286.0</ele><time>2026-04-18T11:09:31Z</time></trkpt><trkpt lat="44.1632519" lon="10.5071542"><ele>1286.5</ele><time>2026-04-18T11:10:15Z</time></trkpt><trkpt lat="44.1631962" lon="10.5072017"><ele>1287.0</ele><time>2026-04-18T11:10:18Z</time></trkpt><trkpt lat="44.1632033" lon="10.5073162"><ele>1287.0</ele><time>2026-04-18T11:10:21Z</time></trkpt><trkpt lat="44.1632239" lon="10.5074118"><ele>1287.0</ele><time>2026-04-18T11:10:23Z</time></trkpt><trkpt lat="44.1632567" lon="10.5075068"><ele>1287.0</ele><time>2026-04-18T11:10:25Z</time></trkpt><trkpt lat="44.163296" lon="10.5075762"><ele>1287.0</ele><time>2026-04-18T11:10:27Z</time></trkpt><trkpt lat="44.1633401" lon="10.5076491"><ele>1287.0</ele><time>2026-04-18T11:10:29Z</time></trkpt><trkpt lat="44.163385" lon="10.5077389"><ele>1287.0</ele><time>2026-04-18T11:10:31Z</time></trkpt><trkpt lat="44.1634098" lon="10.5078285"><ele>1287.0</ele><time>2026-04-18T11:10:33Z</time></trkpt><trkpt lat="44.1633915" lon="10.5079227"><ele>1286.3999999999999</ele><time>2026-04-18T11:10:35Z</time></trkpt><trkpt lat="44.1633157" lon="10.5080102"><ele>1285.8</ele><time>2026-04-18T11:10:37Z</time></trkpt><trkpt lat="44.1632762" lon="10.5081344"><ele>1285.2</ele><time>2026-04-18T11:10:39Z</time></trkpt><trkpt lat="44.1632686" lon="10.508263"><ele>1284.6</ele><time>2026-04-18T11:10:41Z</time></trkpt><trkpt lat="44.1632739" lon="10.5084112"><ele>1284.0</ele><time>2026-04-18T11:10:43Z</time></trkpt><trkpt lat="44.1632769" lon="10.5085714"><ele>1284.0</ele><time>2026-04-18T11:10:45Z</time></trkpt><trkpt lat="44.1632628" lon="10.5087161"><ele>1284.0</ele><time>2026-04-18T11:10:47Z</time></trkpt><trkpt lat="44.1632241" lon="10.5088562"><ele>1284.0</ele><time>2026-04-18T11:10:49Z</time></trkpt><trkpt lat="44.1632148" lon="10.5089821"><ele>1284.0</ele><time>2026-04-18T11:10:51Z</time></trkpt><trkpt lat="44.1631808" lon="10.5091208"><ele>1284.0</ele><time>2026-04-18T11:10:53Z</time></trkpt><trkpt lat="44.1631242" lon="10.5091757"><ele>1278.142857142857</ele><time>2026-04-18T11:10:57Z</time></trkpt><trkpt lat="44.1631357" lon="10.5090858"><ele>1272.2857142857142</ele><time>2026-04-18T11:11:20Z</time></trkpt><trkpt lat="44.1631386" lon="10.5089536"><ele>1266.4285714285716</ele><time>2026-04-18T11:11:23Z</time></trkpt><trkpt lat="44.1631395" lon="10.5088565"><ele>1260.5714285714284</ele><time>2026-04-18T11:11:25Z</time></trkpt><trkpt lat="44.1631337" lon="10.5087601"><ele>1254.7142857142858</ele><time>2026-04-18T11:11:27Z</time></trkpt><trkpt lat="44.163112" lon="10.5086537"><ele>1248.857142857143</ele><time>2026-04-18T11:11:29Z</time></trkpt><trkpt lat="44.1630805" lon="10.5085707"><ele>1243.0</ele><time>2026-04-18T11:11:31Z</time></trkpt><trkpt lat="44.1630349" lon="10.5084773"><ele>1243.0</ele><time>2026-04-18T11:11:33Z</time></trkpt><trkpt lat="44.1629879" lon="10.5083706"><ele>1243.0</ele><time>2026-04-18T11:11:35Z</time></trkpt><trkpt lat="44.1629704" lon="10.5082173"><ele>1243.0</ele><time>2026-04-18T11:11:37Z</time></trkpt><trkpt lat="44.1629802" lon="10.5080765"><ele>1243.0</ele><time>2026-04-18T11:11:39Z</time></trkpt><trkpt lat="44.1629465" lon="10.5079254"><ele>1243.0</ele><time>2026-04-18T11:11:41Z</time></trkpt><trkpt lat="44.1629007" lon="10.507783"><ele>1243.857142857143</ele><time>2026-04-18T11:11:43Z</time></trkpt><trkpt lat="44.1628593" lon="10.5077055"><ele>1244.7142857142858</ele><time>2026-04-18T11:11:44Z</time></trkpt><trkpt lat="44.1628168" lon="10.5076374"><ele>1245.5714285714284</ele><time>2026-04-18T11:11:45Z</time></trkpt><trkpt lat="44.1627684" lon="10.5075612"><ele>1246.4285714285716</ele><time>2026-04-18T11:11:46Z</time></trkpt><trkpt lat="44.1627206" lon="10.5074824"><ele>1247.2857142857142</ele><time>2026-04-18T11:11:47Z</time></trkpt><trkpt lat="44.1626648" lon="10.5073942"><ele>1248.142857142857</ele><time>2026-04-18T11:11:48Z</time></trkpt><trkpt lat="44.1626108" lon="10.5073051"><ele>1249.0</ele><time>2026-04-18T11:11:49Z</time></trkpt><trkpt lat="44.1625736" lon="10.5072258"><ele>1249.0</ele><time>2026-04-18T11:11:50Z</time></trkpt><trkpt lat="44.1625312" lon="10.5070994"><ele>1249.0</ele><time>2026-04-18T11:11:52Z</time></trkpt><trkpt lat="44.1624917" lon="10.5069833"><ele>1249.0</ele><time>2026-04-18T11:11:54Z</time></trkpt><trkpt lat="44.1624567" lon="10.5068947"><ele>1249.0</ele><time>2026-04-18T11:11:56Z</time></trkpt><trkpt lat="44.1624302" lon="10.5068104"><ele>1249.0</ele><time>2026-04-18T11:11:58Z</time></trkpt><trkpt lat="44.1623688" lon="10.5067168"><ele>1249.0</ele><time>2026-04-18T11:12:00Z</time></trkpt><trkpt lat="44.1623623" lon="10.5066262"><ele>1249.5</ele><time>2026-04-18T11:12:03Z</time></trkpt><trkpt lat="44.1624151" lon="10.5065234"><ele>1250.0</ele><time>2026-04-18T11:12:06Z</time></trkpt><trkpt lat="44.1624609" lon="10.5064209"><ele>1250.5</ele><time>2026-04-18T11:12:08Z</time></trkpt><trkpt lat="44.1625145" lon="10.5063145"><ele>1251.0</ele><time>2026-04-18T11:12:10Z</time></trkpt><trkpt lat="44.1625571" lon="10.50624"><ele>1251.5</ele><time>2026-04-18T11:12:12Z</time></trkpt><trkpt lat="44.1626311" lon="10.5061336"><ele>1252.0</ele><time>2026-04-18T11:12:14Z</time></trkpt><trkpt lat="44.1627263" lon="10.5060433"><ele>1247.8</ele><time>2026-04-18T11:12:16Z</time></trkpt><trkpt lat="44.1628339" lon="10.5059768"><ele>1243.6</ele><time>2026-04-18T11:12:18Z</time></trkpt><trkpt lat="44.1629372" lon="10.5059144"><ele>1239.3999999999999</ele><time>2026-04-18T11:12:20Z</time></trkpt><trkpt lat="44.1630058" lon="10.5059049"><ele>1235.2</ele><time>2026-04-18T11:12:21Z</time></trkpt><trkpt lat="44.163076" lon="10.5058868"><ele>1231.0</ele><time>2026-04-18T11:12:22Z</time></trkpt><trkpt lat="44.1631528" lon="10.505858"><ele>1232.142857142857</ele><time>2026-04-18T11:12:23Z</time></trkpt><trkpt lat="44.163233" lon="10.5058156"><ele>1233.2857142857142</ele><time>2026-04-18T11:12:24Z</time></trkpt><trkpt lat="44.1633127" lon="10.5057746"><ele>1234.4285714285716</ele><time>2026-04-18T11:12:25Z</time></trkpt><trkpt lat="44.1633812" lon="10.5057384"><ele>1235.5714285714284</ele><time>2026-04-18T11:12:26Z</time></trkpt><trkpt lat="44.1634459" lon="10.5056991"><ele>1236.7142857142858</ele><time>2026-04-18T11:12:27Z</time></trkpt><trkpt lat="44.1635004" lon="10.5056507"><ele>1237.857142857143</ele><time>2026-04-18T11:12:28Z</time></trkpt><trkpt lat="44.1635532" lon="10.5056012"><ele>1239.0</ele><time>2026-04-18T11:12:29Z</time></trkpt><trkpt lat="44.1636488" lon="10.5055335"><ele>1239.0</ele><time>2026-04-18T11:12:31Z</time></trkpt><trkpt lat="44.163711" lon="10.5054971"><ele>1239.0</ele><time>2026-04-18T11:12:32Z</time></trkpt><trkpt lat="44.1638101" lon="10.5054577"><ele>1239.0</ele><time>2026-04-18T11:12:34Z</time></trkpt><trkpt lat="44.1638637" lon="10.5053621"><ele>1239.0</ele><time>2026-04-18T11:12:37Z</time></trkpt><trkpt lat="44.1638271" lon="10.5052568"><ele>1239.0</ele><time>2026-04-18T11:12:41Z</time></trkpt><trkpt lat="44.1637507" lon="10.505281"><ele>1239.0</ele><time>2026-04-18T11:12:44Z</time></trkpt><trkpt lat="44.1636701" lon="10.5053587"><ele>1239.0</ele><time>2026-04-18T11:12:46Z</time></trkpt><trkpt lat="44.1635688" lon="10.505397"><ele>1239.0</ele><time>2026-04-18T11:12:48Z</time></trkpt><trkpt lat="44.163501" lon="10.5054238"><ele>1239.0</ele><time>2026-04-18T11:12:49Z</time></trkpt><trkpt lat="44.1633848" lon="10.5054399"><ele>1239.0</ele><time>2026-04-18T11:12:51Z</time></trkpt><trkpt lat="44.1632683" lon="10.5054698"><ele>1239.0</ele><time>2026-04-18T11:12:53Z</time></trkpt><trkpt lat="44.1631714" lon="10.5054935"><ele>1237.4</ele><time>2026-04-18T11:12:55Z</time></trkpt><trkpt lat="44.1630692" lon="10.5055071"><ele>1235.8000000000002</ele><time>2026-04-18T11:12:57Z</time></trkpt><trkpt lat="44.1629526" lon="10.505472"><ele>1234.1999999999998</ele><time>2026-04-18T11:12:59Z</time></trkpt><trkpt lat="44.1628499" lon="10.5054324"><ele>1232.6</ele><time>2026-04-18T11:13:01Z</time></trkpt><trkpt lat="44.1627627" lon="10.5054183"><ele>1231.0</ele><time>2026-04-18T11:13:02.999Z</time></trkpt><trkpt lat="44.1626755" lon="10.5054215"><ele>1231.0</ele><time>2026-04-18T11:13:05Z</time></trkpt><trkpt lat="44.1625546" lon="10.5054154"><ele>1231.0</ele><time>2026-04-18T11:13:07Z</time></trkpt><trkpt lat="44.1624645" lon="10.5054036"><ele>1231.0</ele><time>2026-04-18T11:13:09Z</time></trkpt><trkpt lat="44.1623971" lon="10.5053999"><ele>1231.0</ele><time>2026-04-18T11:13:11Z</time></trkpt><trkpt lat="44.1623187" lon="10.5053533"><ele>1231.0</ele><time>2026-04-18T11:13:13Z</time></trkpt><trkpt lat="44.1622349" lon="10.5052984"><ele>1226.0</ele><time>2026-04-18T11:13:15Z</time></trkpt><trkpt lat="44.1621716" lon="10.5053036"><ele>1221.0</ele><time>2026-04-18T11:13:17Z</time></trkpt><trkpt lat="44.1620919" lon="10.50535"><ele>1216.0</ele><time>2026-04-18T11:13:19Z</time></trkpt><trkpt lat="44.1620191" lon="10.5054274"><ele>1211.0</ele><time>2026-04-18T11:13:21Z</time></trkpt><trkpt lat="44.1619243" lon="10.5055101"><ele>1206.0</ele><time>2026-04-18T11:13:23Z</time></trkpt><trkpt lat="44.1618467" lon="10.5055526"><ele>1201.0</ele><time>2026-04-18T11:13:25Z</time></trkpt><trkpt lat="44.1617894" lon="10.5056271"><ele>1201.0</ele><time>2026-04-18T11:13:27Z</time></trkpt><trkpt lat="44.1617324" lon="10.5056784"><ele>1201.0</ele><time>2026-04-18T11:13:29Z</time></trkpt><trkpt lat="44.1616823" lon="10.505786"><ele>1201.0</ele><time>2026-04-18T11:13:31Z</time></trkpt><trkpt lat="44.1616452" lon="10.5058974"><ele>1201.0</ele><time>2026-04-18T11:13:32Z</time></trkpt><trkpt lat="44.1616208" lon="10.5060491"><ele>1201.0</ele><time>2026-04-18T11:13:34Z</time></trkpt><trkpt lat="44.1615962" lon="10.506134"><ele>1201.0</ele><time>2026-04-18T11:13:35Z</time></trkpt><trkpt lat="44.1616042" lon="10.5062452"><ele>1202.6</ele><time>2026-04-18T11:13:36Z</time></trkpt><trkpt lat="44.161596" lon="10.506386"><ele>1204.1999999999998</ele><time>2026-04-18T11:13:38Z</time></trkpt><trkpt lat="44.1615908" lon="10.5064773"><ele>1205.8000000000002</ele><time>2026-04-18T11:13:39Z</time></trkpt><trkpt lat="44.1615732" lon="10.5066448"><ele>1207.4</ele><time>2026-04-18T11:13:41Z</time></trkpt><trkpt lat="44.1615708" lon="10.5067357"><ele>1209.0</ele><time>2026-04-18T11:13:42Z</time></trkpt><trkpt lat="44.1615645" lon="10.5069069"><ele>1209.0</ele><time>2026-04-18T11:13:44Z</time></trkpt><trkpt lat="44.1616014" lon="10.5070533"><ele>1209.0</ele><time>2026-04-18T11:13:46Z</time></trkpt><trkpt lat="44.1616201" lon="10.5071379"><ele>1209.0</ele><time>2026-04-18T11:13:47Z</time></trkpt><trkpt lat="44.1616482" lon="10.5072759"><ele>1209.0</ele><time>2026-04-18T11:13:49Z</time></trkpt><trkpt lat="44.161659" lon="10.5073867"><ele>1209.0</ele><time>2026-04-18T11:13:51Z</time></trkpt><trkpt lat="44.161678" lon="10.5074772"><ele>1209.0</ele><time>2026-04-18T11:13:52.999Z</time></trkpt><trkpt lat="44.161655" lon="10.507593"><ele>1208.5</ele><time>2026-04-18T11:13:55Z</time></trkpt><trkpt lat="44.1616185" lon="10.5076795"><ele>1208.0</ele><time>2026-04-18T11:13:58Z</time></trkpt><trkpt lat="44.1615602" lon="10.5077585"><ele>1207.5</ele><time>2026-04-18T11:14:00Z</time></trkpt><trkpt lat="44.1615235" lon="10.5078503"><ele>1207.0</ele><time>2026-04-18T11:14:02Z</time></trkpt><trkpt lat="44.1615059" lon="10.5079571"><ele>1206.5</ele><time>2026-04-18T11:14:04Z</time></trkpt><trkpt lat="44.1615177" lon="10.5080543"><ele>1206.0</ele><time>2026-04-18T11:14:06Z</time></trkpt><trkpt lat="44.1615641" lon="10.5081363"><ele>1204.5</ele><time>2026-04-18T11:14:08Z</time></trkpt><trkpt lat="44.1615576" lon="10.508231"><ele>1203.0</ele><time>2026-04-18T11:14:11Z</time></trkpt><trkpt lat="44.1614813" lon="10.5081746"><ele>1201.5</ele><time>2026-04-18T11:14:16Z</time></trkpt><trkpt lat="44.161438" lon="10.5080832"><ele>1200.0</ele><time>2026-04-18T11:14:19Z</time></trkpt><trkpt lat="44.1614019" lon="10.5080026"><ele>1198.5</ele><time>2026-04-18T11:14:21Z</time></trkpt><trkpt lat="44.1613838" lon="10.5079094"><ele>1197.0</ele><time>2026-04-18T11:14:23Z</time></trkpt><trkpt lat="44.1613863" lon="10.5077894"><ele>1189.8333333333333</ele><time>2026-04-18T11:14:25Z</time></trkpt><trkpt lat="44.1614136" lon="10.507686"><ele>1182.6666666666667</ele><time>2026-04-18T11:14:27Z</time></trkpt><trkpt lat="44.1614505" lon="10.5075951"><ele>1175.5</ele><time>2026-04-18T11:14:29Z</time></trkpt><trkpt lat="44.1614668" lon="10.5074972"><ele>1168.3333333333335</ele><time>2026-04-18T11:14:31Z</time></trkpt><trkpt lat="44.1614483" lon="10.5073834"><ele>1161.1666666666667</ele><time>2026-04-18T11:14:33Z</time></trkpt><trkpt lat="44.1614311" lon="10.5072964"><ele>1154.0</ele><time>2026-04-18T11:14:34Z</time></trkpt><trkpt lat="44.1613765" lon="10.5072225"><ele>1154.0</ele><time>2026-04-18T11:14:36Z</time></trkpt><trkpt lat="44.161313" lon="10.5071582"><ele>1154.0</ele><time>2026-04-18T11:14:38Z</time></trkpt><trkpt lat="44.1612722" lon="10.507062"><ele>1154.0</ele><time>2026-04-18T11:14:40Z</time></trkpt><trkpt lat="44.1612395" lon="10.5069866"><ele>1154.0</ele><time>2026-04-18T11:14:42Z</time></trkpt><trkpt lat="44.1612066" lon="10.5069058"><ele>1154.0</ele><time>2026-04-18T11:14:44Z</time></trkpt><trkpt lat="44.1611762" lon="10.5067532"><ele>1154.0</ele><time>2026-04-18T11:14:46Z</time></trkpt><trkpt lat="44.161137" lon="10.5065902"><ele>1153.8</ele><time>2026-04-18T11:14:48Z</time></trkpt><trkpt lat="44.1611204" lon="10.5064347"><ele>1153.6000000000001</ele><time>2026-04-18T11:14:50Z</time></trkpt><trkpt lat="44.1611126" lon="10.5063012"><ele>1153.4</ele><time>2026-04-18T11:14:52Z</time></trkpt><trkpt lat="44.1611132" lon="10.5061612"><ele>1153.2</ele><time>2026-04-18T11:14:54Z</time></trkpt><trkpt lat="44.1610983" lon="10.5060526"><ele>1153.0</ele><time>2026-04-18T11:14:56Z</time></trkpt><trkpt lat="44.161086" lon="10.5059647"><ele>1153.0</ele><time>2026-04-18T11:14:58Z</time></trkpt><trkpt lat="44.1610327" lon="10.5058214"><ele>1153.0</ele><time>2026-04-18T11:15:00Z</time></trkpt><trkpt lat="44.1610027" lon="10.5057181"><ele>1153.0</ele><time>2026-04-18T11:15:02Z</time></trkpt><trkpt lat="44.1609534" lon="10.5055975"><ele>1153.0</ele><time>2026-04-18T11:15:04Z</time></trkpt><trkpt lat="44.1609327" lon="10.5054838"><ele>1153.0</ele><time>2026-04-18T11:15:06Z</time></trkpt><trkpt lat="44.1609097" lon="10.5053985"><ele>1153.0</ele><time>2026-04-18T11:15:08Z</time></trkpt><trkpt lat="44.1608939" lon="10.5053006"><ele>1151.857142857143</ele><time>2026-04-18T11:15:10Z</time></trkpt><trkpt lat="44.1608755" lon="10.5052003"><ele>1150.7142857142858</ele><time>2026-04-18T11:15:13Z</time></trkpt><trkpt lat="44.1608409" lon="10.5050862"><ele>1149.5714285714287</ele><time>2026-04-18T11:15:16Z</time></trkpt><trkpt lat="44.1608026" lon="10.5050094"><ele>1148.4285714285716</ele><time>2026-04-18T11:15:19Z</time></trkpt><trkpt lat="44.1608463" lon="10.5049448"><ele>1147.2857142857142</ele><time>2026-04-18T11:15:22Z</time></trkpt><trkpt lat="44.1609107" lon="10.5048941"><ele>1146.1428571428573</ele><time>2026-04-18T11:15:25Z</time></trkpt><trkpt lat="44.1609699" lon="10.5048506"><ele>1145.0</ele><time>2026-04-18T11:15:28Z</time></trkpt><trkpt lat="44.1610465" lon="10.5048207"><ele>1145.0000000000002</ele><time>2026-04-18T11:15:32Z</time></trkpt><trkpt lat="44.1610979" lon="10.504765"><ele>1145.0</ele><time>2026-04-18T11:15:36Z</time></trkpt><trkpt lat="44.1611609" lon="10.5047177"><ele>1145.0</ele><time>2026-04-18T11:17:00Z</time></trkpt><trkpt lat="44.1612094" lon="10.5046494"><ele>1145.0</ele><time>2026-04-18T11:17:02Z</time></trkpt><trkpt lat="44.1612578" lon="10.5045666"><ele>1145.0</ele><time>2026-04-18T11:17:04Z</time></trkpt><trkpt lat="44.1613088" lon="10.5044923"><ele>1145.0000000000002</ele><time>2026-04-18T11:17:06Z</time></trkpt><trkpt lat="44.1613729" lon="10.5044199"><ele>1145.0</ele><time>2026-04-18T11:17:08Z</time></trkpt><trkpt lat="44.1614364" lon="10.5043531"><ele>1143.7142857142858</ele><time>2026-04-18T11:17:10Z</time></trkpt><trkpt lat="44.1614915" lon="10.5043034"><ele>1142.4285714285716</ele><time>2026-04-18T11:17:12Z</time></trkpt><trkpt lat="44.1615657" lon="10.5042468"><ele>1141.142857142857</ele><time>2026-04-18T11:17:14Z</time></trkpt><trkpt lat="44.1616375" lon="10.5042025"><ele>1139.857142857143</ele><time>2026-04-18T11:17:16Z</time></trkpt><trkpt lat="44.1616967" lon="10.5041723"><ele>1138.5714285714284</ele><time>2026-04-18T11:17:18Z</time></trkpt><trkpt lat="44.1617632" lon="10.5041404"><ele>1137.2857142857142</ele><time>2026-04-18T11:17:20Z</time></trkpt><trkpt lat="44.1618264" lon="10.5041253"><ele>1136.0</ele><time>2026-04-18T11:17:22Z</time></trkpt><trkpt lat="44.1618987" lon="10.5041202"><ele>1136.0</ele><time>2026-04-18T11:17:26Z</time></trkpt><trkpt lat="44.1619285" lon="10.5040377"><ele>1136.0</ele><time>2026-04-18T11:17:45Z</time></trkpt><trkpt lat="44.1620021" lon="10.5040906"><ele>1136.0</ele><time>2026-04-18T11:20:49Z</time></trkpt><trkpt lat="44.1620799" lon="10.5040902"><ele>1136.0</ele><time>2026-04-18T11:20:51Z</time></trkpt><trkpt lat="44.1621597" lon="10.5040872"><ele>1136.0</ele><time>2026-04-18T11:20:53Z</time></trkpt><trkpt lat="44.1622414" lon="10.504028"><ele>1136.0</ele><time>2026-04-18T11:20:55Z</time></trkpt><trkpt lat="44.162314" lon="10.5039358"><ele>1136.0</ele><time>2026-04-18T11:20:57Z</time></trkpt><trkpt lat="44.1623302" lon="10.5037813"><ele>1136.0</ele><time>2026-04-18T11:20:59Z</time></trkpt><trkpt lat="44.1623002" lon="10.5036198"><ele>1136.0</ele><time>2026-04-18T11:21:01Z</time></trkpt><trkpt lat="44.1622753" lon="10.5035356"><ele>1136.0</ele><time>2026-04-18T11:21:02Z</time></trkpt><trkpt lat="44.1622067" lon="10.5033866"><ele>1136.0</ele><time>2026-04-18T11:21:04Z</time></trkpt><trkpt lat="44.1621767" lon="10.5033086"><ele>1132.3333333333335</ele><time>2026-04-18T11:21:05Z</time></trkpt><trkpt lat="44.1621159" lon="10.5031551"><ele>1128.6666666666667</ele><time>2026-04-18T11:21:07Z</time></trkpt><trkpt lat="44.1620901" lon="10.5030717"><ele>1125.0</ele><time>2026-04-18T11:21:08Z</time></trkpt><trkpt lat="44.1620634" lon="10.5029891"><ele>1121.3333333333333</ele><time>2026-04-18T11:21:09Z</time></trkpt><trkpt lat="44.1619787" lon="10.5028694"><ele>1117.6666666666665</ele><time>2026-04-18T11:21:11Z</time></trkpt><trkpt lat="44.1619578" lon="10.5027866"><ele>1114.0</ele><time>2026-04-18T11:21:12Z</time></trkpt><trkpt lat="44.1619011" lon="10.5026557"><ele>1113.0</ele><time>2026-04-18T11:21:14Z</time></trkpt><trkpt lat="44.1618223" lon="10.5025665"><ele>1112.0</ele><time>2026-04-18T11:21:16Z</time></trkpt><trkpt lat="44.161766" lon="10.5025179"><ele>1111.0</ele><time>2026-04-18T11:21:17Z</time></trkpt><trkpt lat="44.1617026" lon="10.5023897"><ele>1110.0</ele><time>2026-04-18T11:21:19Z</time></trkpt><trkpt lat="44.1616727" lon="10.5022458"><ele>1109.0</ele><time>2026-04-18T11:21:21Z</time></trkpt><trkpt lat="44.1616696" lon="10.5021218"><ele>1107.3333333333335</ele><time>2026-04-18T11:21:23Z</time></trkpt><trkpt lat="44.1617024" lon="10.5020274"><ele>1105.6666666666667</ele><time>2026-04-18T11:21:26Z</time></trkpt><trkpt lat="44.1617809" lon="10.501954"><ele>1104.0</ele><time>2026-04-18T11:21:29Z</time></trkpt><trkpt lat="44.1618468" lon="10.5018892"><ele>1102.3333333333333</ele><time>2026-04-18T11:21:31Z</time></trkpt><trkpt lat="44.1619187" lon="10.5018272"><ele>1100.6666666666665</ele><time>2026-04-18T11:21:34Z</time></trkpt><trkpt lat="44.1619796" lon="10.5018035"><ele>1099.0</ele><time>2026-04-18T11:21:37Z</time></trkpt><trkpt lat="44.1620352" lon="10.5017546"><ele>1099.0</ele><time>2026-04-18T11:21:41Z</time></trkpt><trkpt lat="44.1621186" lon="10.5017058"><ele>1099.0</ele><time>2026-04-18T11:21:44Z</time></trkpt><trkpt lat="44.162175" lon="10.501637"><ele>1099.0</ele><time>2026-04-18T11:21:46Z</time></trkpt><trkpt lat="44.1621974" lon="10.5015364"><ele>1099.0</ele><time>2026-04-18T11:21:48Z</time></trkpt><trkpt lat="44.1621947" lon="10.5014306"><ele>1099.0</ele><time>2026-04-18T11:21:50Z</time></trkpt><trkpt lat="44.1621843" lon="10.5013258"><ele>1099.0</ele><time>2026-04-18T11:21:52Z</time></trkpt><trkpt lat="44.1621534" lon="10.5012383"><ele>1097.5</ele><time>2026-04-18T11:21:54Z</time></trkpt><trkpt lat="44.1620904" lon="10.5011465"><ele>1096.0</ele><time>2026-04-18T11:21:57Z</time></trkpt><trkpt lat="44.1620232" lon="10.5010801"><ele>1094.5</ele><time>2026-04-18T11:21:59Z</time></trkpt><trkpt lat="44.1619644" lon="10.5010271"><ele>1093.0</ele><time>2026-04-18T11:22:01Z</time></trkpt><trkpt lat="44.1619215" lon="10.5009181"><ele>1091.5</ele><time>2026-04-18T11:22:03Z</time></trkpt><trkpt lat="44.1618787" lon="10.500805"><ele>1090.0</ele><time>2026-04-18T11:22:05Z</time></trkpt><trkpt lat="44.1618205" lon="10.5006687"><ele>1090.0</ele><time>2026-04-18T11:22:07Z</time></trkpt><trkpt lat="44.1617675" lon="10.5005376"><ele>1090.0</ele><time>2026-04-18T11:22:09Z</time></trkpt><trkpt lat="44.1617186" lon="10.5003943"><ele>1090.0</ele><time>2026-04-18T11:22:11Z</time></trkpt><trkpt lat="44.161702" lon="10.5002722"><ele>1090.0</ele><time>2026-04-18T11:22:13Z</time></trkpt><trkpt lat="44.1617161" lon="10.5001337"><ele>1090.0</ele><time>2026-04-18T11:22:15Z</time></trkpt><trkpt lat="44.1617502" lon="10.5000575"><ele>1088.8333333333333</ele><time>2026-04-18T11:22:16Z</time></trkpt><trkpt lat="44.1617814" lon="10.4999766"><ele>1087.6666666666665</ele><time>2026-04-18T11:22:17Z</time></trkpt><trkpt lat="44.1618422" lon="10.4998621"><ele>1086.5</ele><time>2026-04-18T11:22:19Z</time></trkpt><trkpt lat="44.1618997" lon="10.4997621"><ele>1085.3333333333333</ele><time>2026-04-18T11:22:21Z</time></trkpt><trkpt lat="44.1619558" lon="10.4996808"><ele>1084.1666666666667</ele><time>2026-04-18T11:22:23Z</time></trkpt><trkpt lat="44.1620512" lon="10.4996412"><ele>1083.0</ele><time>2026-04-18T11:22:25Z</time></trkpt><trkpt lat="44.1621539" lon="10.4996146"><ele>1083.3333333333333</ele><time>2026-04-18T11:22:27Z</time></trkpt><trkpt lat="44.1622257" lon="10.499559"><ele>1083.6666666666667</ele><time>2026-04-18T11:22:29Z</time></trkpt><trkpt lat="44.1622598" lon="10.4994658"><ele>1084.0</ele><time>2026-04-18T11:22:31Z</time></trkpt><trkpt lat="44.1622615" lon="10.4993533"><ele>1084.3333333333335</ele><time>2026-04-18T11:22:33Z</time></trkpt><trkpt lat="44.1621951" lon="10.4992783"><ele>1084.6666666666667</ele><time>2026-04-18T11:22:36Z</time></trkpt><trkpt lat="44.1621059" lon="10.4992562"><ele>1085.0</ele><time>2026-04-18T11:22:39Z</time></trkpt><trkpt lat="44.1620007" lon="10.4993071"><ele>1085.0</ele><time>2026-04-18T11:22:41Z</time></trkpt><trkpt lat="44.1618939" lon="10.4993706"><ele>1085.0</ele><time>2026-04-18T11:22:43Z</time></trkpt><trkpt lat="44.161836" lon="10.4994158"><ele>1085.0</ele><time>2026-04-18T11:22:44Z</time></trkpt><trkpt lat="44.1617734" lon="10.4994606"><ele>1085.0</ele><time>2026-04-18T11:22:45Z</time></trkpt><trkpt lat="44.1617087" lon="10.4995028"><ele>1085.0</ele><time>2026-04-18T11:22:46Z</time></trkpt><trkpt lat="44.1616505" lon="10.4995437"><ele>1085.0</ele><time>2026-04-18T11:22:47Z</time></trkpt><trkpt lat="44.1615961" lon="10.4995896"><ele>1078.0</ele><time>2026-04-18T11:22:48Z</time></trkpt><trkpt lat="44.1615019" lon="10.4996598"><ele>1071.0</ele><time>2026-04-18T11:22:50Z</time></trkpt><trkpt lat="44.1614303" lon="10.4997149"><ele>1064.0</ele><time>2026-04-18T11:22:52Z</time></trkpt><trkpt lat="44.1613557" lon="10.4997672"><ele>1057.0</ele><time>2026-04-18T11:22:54Z</time></trkpt><trkpt lat="44.161316" lon="10.4998392"><ele>1050.0</ele><time>2026-04-18T11:22:56Z</time></trkpt><trkpt lat="44.1612966" lon="10.499943"><ele>1043.0</ele><time>2026-04-18T11:22:59Z</time></trkpt><trkpt lat="44.1612776" lon="10.5000338"><ele>1043.0</ele><time>2026-04-18T11:23:01Z</time></trkpt><trkpt lat="44.1612495" lon="10.5001544"><ele>1043.0</ele><time>2026-04-18T11:23:03Z</time></trkpt><trkpt lat="44.1612509" lon="10.5002732"><ele>1043.0</ele><time>2026-04-18T11:23:06Z</time></trkpt><trkpt lat="44.1612645" lon="10.5003645"><ele>1043.0</ele><time>2026-04-18T11:23:09Z</time></trkpt><trkpt lat="44.1612771" lon="10.5004569"><ele>1043.0</ele><time>2026-04-18T11:23:11Z</time></trkpt><trkpt lat="44.1612865" lon="10.5005634"><ele>1043.0</ele><time>2026-04-18T11:23:13Z</time></trkpt><trkpt lat="44.1612696" lon="10.5006883"><ele>1044.6</ele><time>2026-04-18T11:23:16Z</time></trkpt><trkpt lat="44.161227" lon="10.5008054"><ele>1046.1999999999998</ele><time>2026-04-18T11:23:18Z</time></trkpt><trkpt lat="44.1611654" lon="10.5009112"><ele>1047.8</ele><time>2026-04-18T11:23:20Z</time></trkpt><trkpt lat="44.1611043" lon="10.500965"><ele>1049.3999999999999</ele><time>2026-04-18T11:23:22Z</time></trkpt><trkpt lat="44.1610322" lon="10.501048"><ele>1051.0</ele><time>2026-04-18T11:23:24Z</time></trkpt><trkpt lat="44.1609386" lon="10.5011714"><ele>1051.0</ele><time>2026-04-18T11:23:26Z</time></trkpt><trkpt lat="44.1608839" lon="10.5012293"><ele>1051.0</ele><time>2026-04-18T11:23:27Z</time></trkpt><trkpt lat="44.1608255" lon="10.5012781"><ele>1051.0</ele><time>2026-04-18T11:23:28Z</time></trkpt><trkpt lat="44.1607638" lon="10.5013195"><ele>1051.0</ele><time>2026-04-18T11:23:29Z</time></trkpt><trkpt lat="44.1606582" lon="10.5013795"><ele>1051.0</ele><time>2026-04-18T11:23:31Z</time></trkpt><trkpt lat="44.1605704" lon="10.5014492"><ele>1051.0</ele><time>2026-04-18T11:23:33Z</time></trkpt><trkpt lat="44.160523" lon="10.5015507"><ele>1048.2</ele><time>2026-04-18T11:23:35Z</time></trkpt><trkpt lat="44.1605322" lon="10.5016972"><ele>1045.3999999999999</ele><time>2026-04-18T11:23:37Z</time></trkpt><trkpt lat="44.1605635" lon="10.5018338"><ele>1042.6</ele><time>2026-04-18T11:23:39Z</time></trkpt><trkpt lat="44.160587" lon="10.5019298"><ele>1039.8</ele><time>2026-04-18T11:23:41Z</time></trkpt><trkpt lat="44.1605178" lon="10.5019789"><ele>1037.0</ele><time>2026-04-18T11:23:45Z</time></trkpt><trkpt lat="44.1604455" lon="10.5018848"><ele>1037.0</ele><time>2026-04-18T11:23:48Z</time></trkpt><trkpt lat="44.1604192" lon="10.5017706"><ele>1037.0</ele><time>2026-04-18T11:23:50Z</time></trkpt><trkpt lat="44.1603604" lon="10.5016406"><ele>1037.0</ele><time>2026-04-18T11:23:52Z</time></trkpt><trkpt lat="44.1603115" lon="10.5015131"><ele>1037.0</ele><time>2026-04-18T11:23:54Z</time></trkpt><trkpt lat="44.1602834" lon="10.5014079"><ele>1037.0</ele><time>2026-04-18T11:23:56Z</time></trkpt><trkpt lat="44.1602533" lon="10.5013068"><ele>1034.0</ele><time>2026-04-18T11:23:59Z</time></trkpt><trkpt lat="44.1602744" lon="10.5011833"><ele>1031.0</ele><time>2026-04-18T11:24:03Z</time></trkpt><trkpt lat="44.1603304" lon="10.5011037"><ele>1028.0</ele><time>2026-04-18T11:24:05Z</time></trkpt><trkpt lat="44.1604256" lon="10.5010307"><ele>1025.0</ele><time>2026-04-18T11:24:07Z</time></trkpt><trkpt lat="44.1605294" lon="10.5009544"><ele>1022.0</ele><time>2026-04-18T11:24:09Z</time></trkpt><trkpt lat="44.1606155" lon="10.5008642"><ele>1022.0</ele><time>2026-04-18T11:24:11Z</time></trkpt><trkpt lat="44.1606901" lon="10.5007811"><ele>1022.0</ele><time>2026-04-18T11:24:13Z</time></trkpt><trkpt lat="44.1607308" lon="10.5006814"><ele>1022.0</ele><time>2026-04-18T11:24:15Z</time></trkpt><trkpt lat="44.1607435" lon="10.5005734"><ele>1022.0</ele><time>2026-04-18T11:24:17Z</time></trkpt><trkpt lat="44.1607173" lon="10.5004355"><ele>1022.0</ele><time>2026-04-18T11:24:19Z</time></trkpt><trkpt lat="44.1607292" lon="10.5002742"><ele>1021.1666666666667</ele><time>2026-04-18T11:24:21Z</time></trkpt><trkpt lat="44.1607594" lon="10.5001876"><ele>1020.3333333333334</ele><time>2026-04-18T11:24:22Z</time></trkpt><trkpt lat="44.1607904" lon="10.5000634"><ele>1019.5</ele><time>2026-04-18T11:24:24Z</time></trkpt><trkpt lat="44.1608036" lon="10.4999452"><ele>1018.6666666666667</ele><time>2026-04-18T11:24:26Z</time></trkpt><trkpt lat="44.1607827" lon="10.4998269"><ele>1017.8333333333334</ele><time>2026-04-18T11:24:28Z</time></trkpt><trkpt lat="44.1607245" lon="10.4997592"><ele>1017.0</ele><time>2026-04-18T11:24:30Z</time></trkpt><trkpt lat="44.1606242" lon="10.4997257"><ele>1017.0</ele><time>2026-04-18T11:24:32Z</time></trkpt><trkpt lat="44.1605256" lon="10.49974"><ele>1017.0</ele><time>2026-04-18T11:24:34Z</time></trkpt><trkpt lat="44.1604458" lon="10.4997776"><ele>1017.0</ele><time>2026-04-18T11:24:36Z</time></trkpt><trkpt lat="44.1603785" lon="10.4997867"><ele>1017.0</ele><time>2026-04-18T11:24:38Z</time></trkpt><trkpt lat="44.160309" lon="10.4997791"><ele>1017.0</ele><time>2026-04-18T11:24:42Z</time></trkpt><trkpt lat="44.1602351" lon="10.4997764"><ele>1017.0</ele><time>2026-04-18T11:24:46Z</time></trkpt><trkpt lat="44.1601711" lon="10.4997378"><ele>1017.0</ele><time>2026-04-18T11:24:51Z</time></trkpt><trkpt lat="44.1601242" lon="10.4996649"><ele>1017.0</ele><time>2026-04-18T11:24:56Z</time></trkpt><trkpt lat="44.1600811" lon="10.4995718"><ele>1017.0</ele><time>2026-04-18T11:24:59Z</time></trkpt><trkpt lat="44.160042" lon="10.4994882"><ele>1017.0</ele><time>2026-04-18T11:25:01Z</time></trkpt><trkpt lat="44.159984" lon="10.4994216"><ele>1017.0</ele><time>2026-04-18T11:25:02Z</time></trkpt><trkpt lat="44.15994" lon="10.4993575"><ele>1017.0</ele><time>2026-04-18T11:25:03Z</time></trkpt><trkpt lat="44.1598285" lon="10.4992837"><ele>1017.6666666666666</ele><time>2026-04-18T11:25:05Z</time></trkpt><trkpt lat="44.1597671" lon="10.4992634"><ele>1018.3333333333333</ele><time>2026-04-18T11:25:06Z</time></trkpt><trkpt lat="44.1596922" lon="10.4992528"><ele>1019.0</ele><time>2026-04-18T11:25:07Z</time></trkpt><trkpt lat="44.1596313" lon="10.4992217"><ele>1019.6666666666666</ele><time>2026-04-18T11:25:08Z</time></trkpt><trkpt lat="44.1595644" lon="10.4992094"><ele>1020.3333333333333</ele><time>2026-04-18T11:25:09Z</time></trkpt><trkpt lat="44.159431" lon="10.4991971"><ele>1021.0</ele><time>2026-04-18T11:25:11Z</time></trkpt><trkpt lat="44.1593671" lon="10.4991981"><ele>1020.9999999999999</ele><time>2026-04-18T11:25:12Z</time></trkpt><trkpt lat="44.1593008" lon="10.4991858"><ele>1021.0</ele><time>2026-04-18T11:25:13Z</time></trkpt><trkpt lat="44.1592182" lon="10.4991754"><ele>1021.0</ele><time>2026-04-18T11:25:15Z</time></trkpt><trkpt lat="44.1591302" lon="10.4991838"><ele>1021.0</ele><time>2026-04-18T11:25:18Z</time></trkpt><trkpt lat="44.159065" lon="10.4991706"><ele>1020.9999999999999</ele><time>2026-04-18T11:25:21Z</time></trkpt><trkpt lat="44.1590159" lon="10.4991016"><ele>1021.0</ele><time>2026-04-18T11:25:25Z</time></trkpt><trkpt lat="44.1589861" lon="10.4989873"><ele>1017.1666666666666</ele><time>2026-04-18T11:25:29Z</time></trkpt><trkpt lat="44.1589668" lon="10.498894"><ele>1013.3333333333333</ele><time>2026-04-18T11:25:31Z</time></trkpt><trkpt lat="44.1589383" lon="10.4987763"><ele>1009.5</ele><time>2026-04-18T11:25:33Z</time></trkpt><trkpt lat="44.1588956" lon="10.4986578"><ele>1005.6666666666667</ele><time>2026-04-18T11:25:35Z</time></trkpt><trkpt lat="44.1588575" lon="10.4985871"><ele>1001.8333333333334</ele><time>2026-04-18T11:25:36Z</time></trkpt><trkpt lat="44.1588073" lon="10.4985302"><ele>998.0</ele><time>2026-04-18T11:25:37Z</time></trkpt><trkpt lat="44.1587259" lon="10.4983982"><ele>998.0000000000001</ele><time>2026-04-18T11:25:39Z</time></trkpt><trkpt lat="44.1586767" lon="10.498333"><ele>998.0</ele><time>2026-04-18T11:25:40Z</time></trkpt><trkpt lat="44.1586202" lon="10.4982706"><ele>998.0000000000001</ele><time>2026-04-18T11:25:41Z</time></trkpt><trkpt lat="44.1585554" lon="10.4982153"><ele>998.0000000000001</ele><time>2026-04-18T11:25:42Z</time></trkpt><trkpt lat="44.1585009" lon="10.4981526"><ele>998.0</ele><time>2026-04-18T11:25:43Z</time></trkpt><trkpt lat="44.1584604" lon="10.4980706"><ele>998.0000000000001</ele><time>2026-04-18T11:25:44Z</time></trkpt><trkpt lat="44.1584259" lon="10.4979868"><ele>998.0000000000001</ele><time>2026-04-18T11:25:45Z</time></trkpt><trkpt lat="44.158392" lon="10.4978965"><ele>1002.4</ele><time>2026-04-18T11:25:46Z</time></trkpt><trkpt lat="44.158364" lon="10.4978058"><ele>1006.8</ele><time>2026-04-18T11:25:47Z</time></trkpt><trkpt lat="44.1583406" lon="10.4977124"><ele>1011.2</ele><time>2026-04-18T11:25:47.999Z</time></trkpt><trkpt lat="44.1582731" lon="10.497595"><ele>1015.6</ele><time>2026-04-18T11:25:50Z</time></trkpt><trkpt lat="44.1582496" lon="10.4974466"><ele>1020.0</ele><time>2026-04-18T11:25:52Z</time></trkpt><trkpt lat="44.1582292" lon="10.4973121"><ele>1020.0</ele><time>2026-04-18T11:25:54Z</time></trkpt><trkpt lat="44.1582271" lon="10.4971713"><ele>1020.0</ele><time>2026-04-18T11:25:56Z</time></trkpt><trkpt lat="44.1582584" lon="10.4970674"><ele>1020.0</ele><time>2026-04-18T11:25:58Z</time></trkpt><trkpt lat="44.1582283" lon="10.4969772"><ele>1020.0</ele><time>2026-04-18T11:26:00Z</time></trkpt><trkpt lat="44.1581616" lon="10.4969332"><ele>1020.0</ele><time>2026-04-18T11:26:02Z</time></trkpt><trkpt lat="44.1580637" lon="10.4968927"><ele>1020.0</ele><time>2026-04-18T11:26:04Z</time></trkpt><trkpt lat="44.1579737" lon="10.4968441"><ele>1016.0</ele><time>2026-04-18T11:26:06Z</time></trkpt><trkpt lat="44.1578711" lon="10.4968062"><ele>1012.0</ele><time>2026-04-18T11:26:08Z</time></trkpt><trkpt lat="44.1577547" lon="10.496776"><ele>1008.0</ele><time>2026-04-18T11:26:10Z</time></trkpt><trkpt lat="44.1576731" lon="10.4967703"><ele>1004.0</ele><time>2026-04-18T11:26:12Z</time></trkpt><trkpt lat="44.1575966" lon="10.4967431"><ele>1000.0</ele><time>2026-04-18T11:26:15Z</time></trkpt><trkpt lat="44.1575276" lon="10.4967082"><ele>999.9999999999999</ele><time>2026-04-18T11:26:19Z</time></trkpt><trkpt lat="44.1574564" lon="10.4967082"><ele>1000.0</ele><time>2026-04-18T11:26:22Z</time></trkpt><trkpt lat="44.1573919" lon="10.4967378"><ele>1000.0</ele><time>2026-04-18T11:26:25Z</time></trkpt><trkpt lat="44.1573206" lon="10.4967737"><ele>1000.0</ele><time>2026-04-18T11:26:29Z</time></trkpt><trkpt lat="44.1572432" lon="10.4967933"><ele>999.9999999999999</ele><time>2026-04-18T11:26:32Z</time></trkpt><trkpt lat="44.1571718" lon="10.4968003"><ele>1000.0</ele><time>2026-04-18T11:26:35Z</time></trkpt><trkpt lat="44.1570888" lon="10.4967764"><ele>996.1666666666666</ele><time>2026-04-18T11:26:38Z</time></trkpt><trkpt lat="44.157022" lon="10.4967769"><ele>992.3333333333333</ele><time>2026-04-18T11:26:41Z</time></trkpt><trkpt lat="44.1569395" lon="10.4967766"><ele>988.5</ele><time>2026-04-18T11:26:45Z</time></trkpt><trkpt lat="44.1568747" lon="10.4967345"><ele>984.6666666666667</ele><time>2026-04-18T11:26:49Z</time></trkpt><trkpt lat="44.1568468" lon="10.4966287"><ele>980.8333333333334</ele><time>2026-04-18T11:26:53Z</time></trkpt><trkpt lat="44.1568594" lon="10.4965001"><ele>977.0</ele><time>2026-04-18T11:26:56Z</time></trkpt><trkpt lat="44.1569077" lon="10.4963785"><ele>977.0</ele><time>2026-04-18T11:26:58Z</time></trkpt><trkpt lat="44.1569405" lon="10.4963035"><ele>977.0</ele><time>2026-04-18T11:26:59Z</time></trkpt><trkpt lat="44.1570186" lon="10.4961622"><ele>977.0</ele><time>2026-04-18T11:27:01Z</time></trkpt><trkpt lat="44.1570658" lon="10.4960941"><ele>977.0</ele><time>2026-04-18T11:27:02Z</time></trkpt><trkpt lat="44.1571043" lon="10.4960235"><ele>977.0</ele><time>2026-04-18T11:27:03Z</time></trkpt><trkpt lat="44.1571774" lon="10.4958737"><ele>976.857142857143</ele><time>2026-04-18T11:27:05Z</time></trkpt><trkpt lat="44.1572174" lon="10.4957922"><ele>976.7142857142858</ele><time>2026-04-18T11:27:06Z</time></trkpt><trkpt lat="44.1572517" lon="10.4957117"><ele>976.5714285714286</ele><time>2026-04-18T11:27:07Z</time></trkpt><trkpt lat="44.1572875" lon="10.4956357"><ele>976.4285714285714</ele><time>2026-04-18T11:27:08Z</time></trkpt><trkpt lat="44.1573284" lon="10.4955536"><ele>976.2857142857142</ele><time>2026-04-18T11:27:09Z</time></trkpt><trkpt lat="44.157367" lon="10.495465"><ele>976.142857142857</ele><time>2026-04-18T11:27:10Z</time></trkpt><trkpt lat="44.1574156" lon="10.4953895"><ele>975.9999999999999</ele><time>2026-04-18T11:27:11Z</time></trkpt><trkpt lat="44.1574558" lon="10.4953062"><ele>975.9999999999999</ele><time>2026-04-18T11:27:12Z</time></trkpt><trkpt lat="44.1574975" lon="10.4952292"><ele>976.0</ele><time>2026-04-18T11:27:13Z</time></trkpt><trkpt lat="44.1575402" lon="10.4951626"><ele>976.0</ele><time>2026-04-18T11:27:14Z</time></trkpt><trkpt lat="44.1576033" lon="10.4950374"><ele>976.0</ele><time>2026-04-18T11:27:16Z</time></trkpt><trkpt lat="44.1576201" lon="10.4949161"><ele>975.9999999999999</ele><time>2026-04-18T11:27:18Z</time></trkpt><trkpt lat="44.1576317" lon="10.4947658"><ele>976.0</ele><time>2026-04-18T11:27:20Z</time></trkpt><trkpt lat="44.1576375" lon="10.494673"><ele>972.4</ele><time>2026-04-18T11:27:21Z</time></trkpt><trkpt lat="44.1576466" lon="10.4945841"><ele>968.8</ele><time>2026-04-18T11:27:22Z</time></trkpt><trkpt lat="44.1576701" lon="10.4944355"><ele>965.1999999999999</ele><time>2026-04-18T11:27:24Z</time></trkpt><trkpt lat="44.1577419" lon="10.4943229"><ele>961.5999999999999</ele><time>2026-04-18T11:27:26Z</time></trkpt><trkpt lat="44.1578249" lon="10.4942089"><ele>958.0</ele><time>2026-04-18T11:27:28Z</time></trkpt><trkpt lat="44.1578864" lon="10.4940703"><ele>958.0</ele><time>2026-04-18T11:27:30Z</time></trkpt><trkpt lat="44.1579594" lon="10.4939974"><ele>958.0</ele><time>2026-04-18T11:27:32Z</time></trkpt><trkpt lat="44.1580466" lon="10.4939497"><ele>958.0</ele><time>2026-04-18T11:27:34Z</time></trkpt><trkpt lat="44.1581547" lon="10.4938653"><ele>958.0</ele><time>2026-04-18T11:27:36Z</time></trkpt><trkpt lat="44.1582373" lon="10.4938269"><ele>958.0</ele><time>2026-04-18T11:27:38Z</time></trkpt><trkpt lat="44.1583034" lon="10.4938279"><ele>957.7142857142857</ele><time>2026-04-18T11:27:40Z</time></trkpt><trkpt lat="44.1583679" lon="10.4937895"><ele>957.4285714285716</ele><time>2026-04-18T11:27:42Z</time></trkpt><trkpt lat="44.1583845" lon="10.4936836"><ele>957.1428571428572</ele><time>2026-04-18T11:27:45Z</time></trkpt><trkpt lat="44.1583349" lon="10.4936207"><ele>956.8571428571429</ele><time>2026-04-18T11:27:50Z</time></trkpt><trkpt lat="44.1582821" lon="10.4935704"><ele>956.5714285714287</ele><time>2026-04-18T11:27:55.022Z</time></trkpt><trkpt lat="44.1582317" lon="10.4935119"><ele>956.2857142857144</ele><time>2026-04-18T11:27:59Z</time></trkpt><trkpt lat="44.1581795" lon="10.4934579"><ele>956.0000000000001</ele><time>2026-04-18T11:28:01Z</time></trkpt><trkpt lat="44.1581137" lon="10.4933668"><ele>956.0000000000001</ele><time>2026-04-18T11:28:04Z</time></trkpt><trkpt lat="44.158058" lon="10.4932233"><ele>956.0</ele><time>2026-04-18T11:28:06Z</time></trkpt><trkpt lat="44.158053" lon="10.4931108"><ele>956.0</ele><time>2026-04-18T11:28:08Z</time></trkpt><trkpt lat="44.1580916" lon="10.4930087"><ele>956.0</ele><time>2026-04-18T11:28:10Z</time></trkpt><trkpt lat="44.1581299" lon="10.4929194"><ele>956.0000000000001</ele><time>2026-04-18T11:28:12Z</time></trkpt><trkpt lat="44.15818" lon="10.4928275"><ele>956.0</ele><time>2026-04-18T11:28:14Z</time></trkpt><trkpt lat="44.158202" lon="10.4927382"><ele>961.1428571428573</ele><time>2026-04-18T11:28:16Z</time></trkpt><trkpt lat="44.1581547" lon="10.4926469"><ele>966.2857142857143</ele><time>2026-04-18T11:28:19Z</time></trkpt><trkpt lat="44.1580834" lon="10.4926207"><ele>971.4285714285716</ele><time>2026-04-18T11:28:24Z</time></trkpt><trkpt lat="44.1580178" lon="10.4926461"><ele>976.5714285714287</ele><time>2026-04-18T11:28:31Z</time></trkpt><trkpt lat="44.1579516" lon="10.4926576"><ele>981.7142857142858</ele><time>2026-04-18T11:28:39Z</time></trkpt><trkpt lat="44.1578839" lon="10.4926731"><ele>986.8571428571429</ele><time>2026-04-18T11:28:45Z</time></trkpt><trkpt lat="44.1578146" lon="10.4926982"><ele>992.0</ele><time>2026-04-18T11:28:51Z</time></trkpt><trkpt lat="44.1577538" lon="10.4927238"><ele>992.0</ele><time>2026-04-18T11:28:56Z</time></trkpt><trkpt lat="44.1576881" lon="10.492761"><ele>992.0000000000001</ele><time>2026-04-18T11:29:02Z</time></trkpt><trkpt lat="44.1576367" lon="10.4928334"><ele>992.0</ele><time>2026-04-18T11:29:08Z</time></trkpt><trkpt lat="44.1575859" lon="10.4928989"><ele>992.0</ele><time>2026-04-18T11:29:14.034Z</time></trkpt><trkpt lat="44.1575213" lon="10.4929124"><ele>992.0000000000001</ele><time>2026-04-18T11:29:20Z</time></trkpt><trkpt lat="44.1574551" lon="10.4929098"><ele>992.0</ele><time>2026-04-18T11:29:26Z</time></trkpt><trkpt lat="44.1573861" lon="10.4928929"><ele>992.0</ele><time>2026-04-18T11:29:32Z</time></trkpt><trkpt lat="44.157316" lon="10.4928732"><ele>991.0</ele><time>2026-04-18T11:31:00.004Z</time></trkpt><trkpt lat="44.1572537" lon="10.4928565"><ele>990.0000000000001</ele><time>2026-04-18T11:31:04.061Z</time></trkpt><trkpt lat="44.1571861" lon="10.4928387"><ele>989.0</ele><time>2026-04-18T11:31:08.968Z</time></trkpt><trkpt lat="44.1571239" lon="10.4928098"><ele>988.0</ele><time>2026-04-18T11:31:14Z</time></trkpt><trkpt lat="44.1570697" lon="10.4927608"><ele>987.0000000000001</ele><time>2026-04-18T11:31:19Z</time></trkpt><trkpt lat="44.1570213" lon="10.4926963"><ele>986.0</ele><time>2026-04-18T11:31:24.012Z</time></trkpt><trkpt lat="44.1569715" lon="10.4926395"><ele>985.0</ele><time>2026-04-18T11:31:28Z</time></trkpt><trkpt lat="44.1569171" lon="10.4925829"><ele>985.0</ele><time>2026-04-18T11:31:33Z</time></trkpt><trkpt lat="44.1568728" lon="10.4925088"><ele>985.0000000000001</ele><time>2026-04-18T11:31:38Z</time></trkpt><trkpt lat="44.1568416" lon="10.4924093"><ele>985.0</ele><time>2026-04-18T11:31:43Z</time></trkpt><trkpt lat="44.1568019" lon="10.4923293"><ele>985.0</ele><time>2026-04-18T11:31:47Z</time></trkpt><trkpt lat="44.1567522" lon="10.4922638"><ele>985.0000000000001</ele><time>2026-04-18T11:31:51Z</time></trkpt><trkpt lat="44.1566854" lon="10.4922539"><ele>985.0</ele><time>2026-04-18T11:31:56Z</time></trkpt><trkpt lat="44.1566132" lon="10.4922633"><ele>985.0</ele><time>2026-04-18T11:32:01Z</time></trkpt><trkpt lat="44.1565483" lon="10.4922898"><ele>983.7142857142858</ele><time>2026-04-18T11:32:06Z</time></trkpt><trkpt lat="44.1564834" lon="10.4923286"><ele>982.4285714285716</ele><time>2026-04-18T11:32:11Z</time></trkpt><trkpt lat="44.1564116" lon="10.4923678"><ele>981.1428571428571</ele><time>2026-04-18T11:32:16Z</time></trkpt><trkpt lat="44.1563439" lon="10.4923693"><ele>979.8571428571429</ele><time>2026-04-18T11:32:21Z</time></trkpt><trkpt lat="44.1562642" lon="10.4923578"><ele>978.5714285714286</ele><time>2026-04-18T11:32:26Z</time></trkpt><trkpt lat="44.1561876" lon="10.492363"><ele>977.2857142857142</ele><time>2026-04-18T11:32:30Z</time></trkpt><trkpt lat="44.1561151" lon="10.4923801"><ele>975.9999999999999</ele><time>2026-04-18T11:32:35Z</time></trkpt><trkpt lat="44.1560437" lon="10.4923965"><ele>975.9999999999999</ele><time>2026-04-18T11:32:41Z</time></trkpt><trkpt lat="44.1559797" lon="10.4923926"><ele>976.0</ele><time>2026-04-18T11:32:45Z</time></trkpt><trkpt lat="44.1559114" lon="10.4924119"><ele>975.9999999999999</ele><time>2026-04-18T11:32:49Z</time></trkpt><trkpt lat="44.1558414" lon="10.4923806"><ele>975.9999999999999</ele><time>2026-04-18T11:32:55Z</time></trkpt><trkpt lat="44.1558157" lon="10.4922918"><ele>976.0</ele><time>2026-04-18T11:33:00.999Z</time></trkpt><trkpt lat="44.1557974" lon="10.4921892"><ele>975.9999999999999</ele><time>2026-04-18T11:33:07Z</time></trkpt><trkpt lat="44.15577" lon="10.4921081"><ele>975.9999999999999</ele><time>2026-04-18T11:33:11Z</time></trkpt><trkpt lat="44.1557371" lon="10.492015"><ele>975.7142857142856</ele><time>2026-04-18T11:33:16Z</time></trkpt><trkpt lat="44.1557088" lon="10.4919276"><ele>975.4285714285713</ele><time>2026-04-18T11:33:20Z</time></trkpt><trkpt lat="44.1556701" lon="10.4918548"><ele>975.1428571428571</ele><time>2026-04-18T11:33:24Z</time></trkpt><trkpt lat="44.1556336" lon="10.4917819"><ele>974.8571428571428</ele><time>2026-04-18T11:33:28Z</time></trkpt><trkpt lat="44.1556006" lon="10.4917016"><ele>974.5714285714284</ele><time>2026-04-18T11:33:32Z</time></trkpt><trkpt lat="44.1555655" lon="10.4916071"><ele>974.2857142857143</ele><time>2026-04-18T11:33:37Z</time></trkpt><trkpt lat="44.1555216" lon="10.491523"><ele>974.0</ele><time>2026-04-18T11:33:42Z</time></trkpt><trkpt lat="44.1554808" lon="10.4914431"><ele>974.0</ele><time>2026-04-18T11:33:47Z</time></trkpt><trkpt lat="44.1554252" lon="10.4913694"><ele>974.0</ele><time>2026-04-18T11:33:52Z</time></trkpt><trkpt lat="44.1553848" lon="10.4912786"><ele>974.0</ele><time>2026-04-18T11:33:57Z</time></trkpt><trkpt lat="44.1553324" lon="10.4911991"><ele>974.0</ele><time>2026-04-18T11:34:01Z</time></trkpt><trkpt lat="44.1552911" lon="10.4911277"><ele>974.0</ele><time>2026-04-18T11:34:05Z</time></trkpt><trkpt lat="44.1552203" lon="10.4910965"><ele>974.0</ele><time>2026-04-18T11:34:09Z</time></trkpt><trkpt lat="44.1551554" lon="10.4910821"><ele>974.0</ele><time>2026-04-18T11:34:13Z</time></trkpt><trkpt lat="44.1550824" lon="10.4910636"><ele>977.7142857142858</ele><time>2026-04-18T11:34:18Z</time></trkpt><trkpt lat="44.1550089" lon="10.4910419"><ele>981.4285714285713</ele><time>2026-04-18T11:34:23Z</time></trkpt><trkpt lat="44.1549416" lon="10.4910039"><ele>985.1428571428571</ele><time>2026-04-18T11:34:28Z</time></trkpt><trkpt lat="44.1548881" lon="10.4909404"><ele>988.8571428571429</ele><time>2026-04-18T11:34:33Z</time></trkpt><trkpt lat="44.1548371" lon="10.4908628"><ele>992.5714285714287</ele><time>2026-04-18T11:34:38Z</time></trkpt><trkpt lat="44.1547699" lon="10.4908101"><ele>996.2857142857142</ele><time>2026-04-18T11:34:43Z</time></trkpt><trkpt lat="44.1546989" lon="10.4908105"><ele>1000.0</ele><time>2026-04-18T11:34:47Z</time></trkpt><trkpt lat="44.1546233" lon="10.4908019"><ele>1000.0</ele><time>2026-04-18T11:34:52Z</time></trkpt><trkpt lat="44.1545581" lon="10.4907722"><ele>1000.0</ele><time>2026-04-18T11:34:57Z</time></trkpt><trkpt lat="44.1544827" lon="10.490743"><ele>1000.0</ele><time>2026-04-18T11:35:02Z</time></trkpt><trkpt lat="44.1544054" lon="10.4907426"><ele>1000.0</ele><time>2026-04-18T11:35:07Z</time></trkpt><trkpt lat="44.1543395" lon="10.4907648"><ele>1000.0</ele><time>2026-04-18T11:35:11Z</time></trkpt><trkpt lat="44.1542744" lon="10.4907828"><ele>1000.0</ele><time>2026-04-18T11:35:15Z</time></trkpt><trkpt lat="44.1541985" lon="10.4907911"><ele>1000.0</ele><time>2026-04-18T11:35:20Z</time></trkpt><trkpt lat="44.1541198" lon="10.4907795"><ele>1000.0</ele><time>2026-04-18T11:35:25Z</time></trkpt><trkpt lat="44.154056" lon="10.4907457"><ele>1000.0</ele><time>2026-04-18T11:35:29Z</time></trkpt><trkpt lat="44.1540031" lon="10.4906953"><ele>1000.0</ele><time>2026-04-18T11:35:33.999Z</time></trkpt><trkpt lat="44.1539456" lon="10.4906458"><ele>1000.0</ele><time>2026-04-18T11:35:39Z</time></trkpt><trkpt lat="44.1538787" lon="10.4905883"><ele>1000.0</ele><time>2026-04-18T11:35:44Z</time></trkpt><trkpt lat="44.1538181" lon="10.4905494"><ele>1000.0</ele><time>2026-04-18T11:35:48Z</time></trkpt><trkpt lat="44.1537493" lon="10.4904992"><ele>1000.0</ele><time>2026-04-18T11:35:53Z</time></trkpt><trkpt lat="44.1536843" lon="10.4904376"><ele>997.4285714285713</ele><time>2026-04-18T11:35:58Z</time></trkpt><trkpt lat="44.1536359" lon="10.490381"><ele>994.8571428571429</ele><time>2026-04-18T11:36:02Z</time></trkpt><trkpt lat="44.1535809" lon="10.4903022"><ele>992.2857142857142</ele><time>2026-04-18T11:36:07Z</time></trkpt><trkpt lat="44.1535531" lon="10.4902097"><ele>989.7142857142857</ele><time>2026-04-18T11:36:12Z</time></trkpt><trkpt lat="44.153584" lon="10.4901318"><ele>987.1428571428571</ele><time>2026-04-18T11:36:16Z</time></trkpt><trkpt lat="44.1536261" lon="10.4900624"><ele>984.5714285714286</ele><time>2026-04-18T11:36:20Z</time></trkpt><trkpt lat="44.1536936" lon="10.4899982"><ele>982.0</ele><time>2026-04-18T11:36:24Z</time></trkpt><trkpt lat="44.1537496" lon="10.489939"><ele>982.0</ele><time>2026-04-18T11:36:27Z</time></trkpt><trkpt lat="44.1538023" lon="10.4898875"><ele>981.9999999999999</ele><time>2026-04-18T11:36:30Z</time></trkpt><trkpt lat="44.1538593" lon="10.4898285"><ele>982.0</ele><time>2026-04-18T11:36:34Z</time></trkpt><trkpt lat="44.1539229" lon="10.4897589"><ele>982.0</ele><time>2026-04-18T11:36:39Z</time></trkpt><trkpt lat="44.1539762" lon="10.4897004"><ele>981.9999999999999</ele><time>2026-04-18T11:36:43Z</time></trkpt><trkpt lat="44.1540354" lon="10.4896527"><ele>982.0</ele><time>2026-04-18T11:36:47Z</time></trkpt><trkpt lat="44.1541027" lon="10.4896109"><ele>982.0</ele><time>2026-04-18T11:36:52Z</time></trkpt><trkpt lat="44.1541611" lon="10.4895518"><ele>986.6666666666666</ele><time>2026-04-18T11:36:57Z</time></trkpt><trkpt lat="44.154222" lon="10.4894964"><ele>991.3333333333333</ele><time>2026-04-18T11:37:00Z</time></trkpt><trkpt lat="44.1542913" lon="10.4894341"><ele>996.0</ele><time>2026-04-18T11:37:03.029Z</time></trkpt><trkpt lat="44.1543568" lon="10.4893481"><ele>1000.6666666666667</ele><time>2026-04-18T11:37:05Z</time></trkpt><trkpt lat="44.1544202" lon="10.4892596"><ele>1005.3333333333334</ele><time>2026-04-18T11:37:07Z</time></trkpt><trkpt lat="44.1544572" lon="10.4891466"><ele>1010.0</ele><time>2026-04-18T11:37:09Z</time></trkpt><trkpt lat="44.1544804" lon="10.4890223"><ele>1010.0000000000001</ele><time>2026-04-18T11:37:11Z</time></trkpt><trkpt lat="44.1544954" lon="10.4889006"><ele>1010.0</ele><time>2026-04-18T11:37:13Z</time></trkpt><trkpt lat="44.1545016" lon="10.488775"><ele>1010.0</ele><time>2026-04-18T11:37:15Z</time></trkpt><trkpt lat="44.1545035" lon="10.4886637"><ele>1010.0</ele><time>2026-04-18T11:37:17Z</time></trkpt><trkpt lat="44.154503" lon="10.4885572"><ele>1010.0000000000001</ele><time>2026-04-18T11:37:19Z</time></trkpt><trkpt lat="44.1545112" lon="10.4884615"><ele>1010.0</ele><time>2026-04-18T11:37:21Z</time></trkpt><trkpt lat="44.1545252" lon="10.4883757"><ele>1006.8333333333334</ele><time>2026-04-18T11:37:23Z</time></trkpt><trkpt lat="44.1545412" lon="10.4882665"><ele>1003.6666666666667</ele><time>2026-04-18T11:37:26Z</time></trkpt><trkpt lat="44.1545406" lon="10.4881651"><ele>1000.5</ele><time>2026-04-18T11:37:29Z</time></trkpt><trkpt lat="44.1545217" lon="10.4880515"><ele>997.3333333333333</ele><time>2026-04-18T11:37:33Z</time></trkpt><trkpt lat="44.154486" lon="10.4879681"><ele>994.1666666666666</ele><time>2026-04-18T11:37:35Z</time></trkpt><trkpt lat="44.154432" lon="10.4878292"><ele>991.0</ele><time>2026-04-18T11:37:37Z</time></trkpt><trkpt lat="44.1544001" lon="10.4876637"><ele>990.5999999999999</ele><time>2026-04-18T11:37:39Z</time></trkpt><trkpt lat="44.1544174" lon="10.4875052"><ele>990.1999999999999</ele><time>2026-04-18T11:37:41Z</time></trkpt><trkpt lat="44.1544257" lon="10.4874163"><ele>989.8000000000001</ele><time>2026-04-18T11:37:42Z</time></trkpt><trkpt lat="44.1544363" lon="10.4872438"><ele>989.4000000000001</ele><time>2026-04-18T11:37:44Z</time></trkpt><trkpt lat="44.1544314" lon="10.4870755"><ele>989.0</ele><time>2026-04-18T11:37:46Z</time></trkpt><trkpt lat="44.1544341" lon="10.4869865"><ele>989.0000000000001</ele><time>2026-04-18T11:37:47Z</time></trkpt><trkpt lat="44.1544448" lon="10.4868987"><ele>989.0</ele><time>2026-04-18T11:37:48Z</time></trkpt><trkpt lat="44.1544653" lon="10.4868102"><ele>989.0</ele><time>2026-04-18T11:37:49Z</time></trkpt><trkpt lat="44.1544905" lon="10.4867291"><ele>989.0</ele><time>2026-04-18T11:37:50Z</time></trkpt><trkpt lat="44.154514" lon="10.4866469"><ele>989.0000000000001</ele><time>2026-04-18T11:37:51Z</time></trkpt><trkpt lat="44.1545336" lon="10.4864808"><ele>989.0</ele><time>2026-04-18T11:37:53Z</time></trkpt><trkpt lat="44.1545324" lon="10.4863247"><ele>992.6666666666667</ele><time>2026-04-18T11:37:55Z</time></trkpt><trkpt lat="44.1545521" lon="10.4862328"><ele>996.3333333333334</ele><time>2026-04-18T11:37:56Z</time></trkpt><trkpt lat="44.1545631" lon="10.4861367"><ele>1000.0</ele><time>2026-04-18T11:37:57Z</time></trkpt><trkpt lat="44.1545701" lon="10.4859774"><ele>1003.6666666666667</ele><time>2026-04-18T11:37:59Z</time></trkpt><trkpt lat="44.1545326" lon="10.4858494"><ele>1007.3333333333334</ele><time>2026-04-18T11:38:00.999Z</time></trkpt><trkpt lat="44.154483" lon="10.4857896"><ele>1011.0</ele><time>2026-04-18T11:38:03Z</time></trkpt><trkpt lat="44.1544222" lon="10.4857359"><ele>1010.9999999999999</ele><time>2026-04-18T11:38:08Z</time></trkpt><trkpt lat="44.1543577" lon="10.4857312"><ele>1011.0</ele><time>2026-04-18T11:38:12Z</time></trkpt><trkpt lat="44.1542888" lon="10.4857415"><ele>1010.9999999999999</ele><time>2026-04-18T11:38:17Z</time></trkpt><trkpt lat="44.154228" lon="10.4857767"><ele>1010.9999999999999</ele><time>2026-04-18T11:38:22Z</time></trkpt><trkpt lat="44.1541564" lon="10.4858278"><ele>1011.0</ele><time>2026-04-18T11:38:27Z</time></trkpt><trkpt lat="44.1540929" lon="10.4858364"><ele>1010.9999999999999</ele><time>2026-04-18T11:38:31Z</time></trkpt><trkpt lat="44.1540244" lon="10.4858429"><ele>1010.9999999999999</ele><time>2026-04-18T11:38:35Z</time></trkpt><trkpt lat="44.153956" lon="10.4858409"><ele>1009.9999999999999</ele><time>2026-04-18T11:38:39Z</time></trkpt><trkpt lat="44.1538902" lon="10.4858321"><ele>1009.0</ele><time>2026-04-18T11:38:43Z</time></trkpt><trkpt lat="44.1538258" lon="10.4858229"><ele>1007.9999999999999</ele><time>2026-04-18T11:38:47Z</time></trkpt><trkpt lat="44.1537551" lon="10.4858038"><ele>1006.9999999999999</ele><time>2026-04-18T11:38:52Z</time></trkpt><trkpt lat="44.1536923" lon="10.4857837"><ele>1006.0</ele><time>2026-04-18T11:38:56Z</time></trkpt><trkpt lat="44.1536211" lon="10.4857459"><ele>1004.9999999999999</ele><time>2026-04-18T11:39:00.999Z</time></trkpt><trkpt lat="44.1535566" lon="10.4857132"><ele>1003.9999999999999</ele><time>2026-04-18T11:39:05Z</time></trkpt><trkpt lat="44.1534931" lon="10.4856956"><ele>1004.0000000000001</ele><time>2026-04-18T11:39:07.999Z</time></trkpt><trkpt lat="44.1533996" lon="10.485721"><ele>1004.0</ele><time>2026-04-18T11:39:11Z</time></trkpt><trkpt lat="44.1533267" lon="10.4857585"><ele>1004.0</ele><time>2026-04-18T11:39:13Z</time></trkpt><trkpt lat="44.1532632" lon="10.4858032"><ele>1004.0</ele><time>2026-04-18T11:39:15Z</time></trkpt><trkpt lat="44.1531973" lon="10.4858441"><ele>1004.0000000000001</ele><time>2026-04-18T11:39:17Z</time></trkpt><trkpt lat="44.1531295" lon="10.4858559"><ele>1004.0</ele><time>2026-04-18T11:39:19Z</time></trkpt><trkpt lat="44.1530605" lon="10.4858565"><ele>1002.8571428571427</ele><time>2026-04-18T11:39:21Z</time></trkpt><trkpt lat="44.152996" lon="10.4858525"><ele>1001.7142857142857</ele><time>2026-04-18T11:39:23Z</time></trkpt><trkpt lat="44.1529248" lon="10.4858653"><ele>1000.5714285714284</ele><time>2026-04-18T11:39:26Z</time></trkpt><trkpt lat="44.1528536" lon="10.48589"><ele>999.4285714285713</ele><time>2026-04-18T11:39:30Z</time></trkpt><trkpt lat="44.1527875" lon="10.4859069"><ele>998.2857142857142</ele><time>2026-04-18T11:39:34Z</time></trkpt><trkpt lat="44.1527231" lon="10.4858923"><ele>997.1428571428571</ele><time>2026-04-18T11:39:38Z</time></trkpt><trkpt lat="44.1527097" lon="10.4857628"><ele>996.0</ele><time>2026-04-18T11:39:42Z</time></trkpt><trkpt lat="44.1526792" lon="10.485653"><ele>996.0</ele><time>2026-04-18T11:39:44Z</time></trkpt><trkpt lat="44.1526163" lon="10.4855806"><ele>995.9999999999999</ele><time>2026-04-18T11:39:46Z</time></trkpt><trkpt lat="44.1525675" lon="10.4855209"><ele>996.0</ele><time>2026-04-18T11:39:48Z</time></trkpt><trkpt lat="44.1525389" lon="10.4854388"><ele>996.0</ele><time>2026-04-18T11:39:53Z</time></trkpt><trkpt lat="44.1524936" lon="10.4853498"><ele>995.9999999999999</ele><time>2026-04-18T11:39:58Z</time></trkpt><trkpt lat="44.1524445" lon="10.4852844"><ele>996.0</ele><time>2026-04-18T11:40:04Z</time></trkpt><trkpt lat="44.1523732" lon="10.4852629"><ele>996.0</ele><time>2026-04-18T11:40:09.03Z</time></trkpt><trkpt lat="44.1523054" lon="10.4852889"><ele>1000.7142857142857</ele><time>2026-04-18T11:40:14.006Z</time></trkpt><trkpt lat="44.1522324" lon="10.4853109"><ele>1005.4285714285713</ele><time>2026-04-18T11:40:20.001Z</time></trkpt><trkpt lat="44.1521695" lon="10.4852974"><ele>1010.1428571428571</ele><time>2026-04-18T11:40:24Z</time></trkpt><trkpt lat="44.1520992" lon="10.4852801"><ele>1014.8571428571429</ele><time>2026-04-18T11:40:29Z</time></trkpt><trkpt lat="44.1520285" lon="10.4852679"><ele>1019.5714285714286</ele><time>2026-04-18T11:40:34Z</time></trkpt><trkpt lat="44.1519688" lon="10.4852211"><ele>1024.2857142857142</ele><time>2026-04-18T11:40:39Z</time></trkpt><trkpt lat="44.1519087" lon="10.4851752"><ele>1029.0</ele><time>2026-04-18T11:40:44Z</time></trkpt><trkpt lat="44.1518359" lon="10.4851559"><ele>1029.0</ele><time>2026-04-18T11:40:49Z</time></trkpt><trkpt lat="44.1517637" lon="10.4851879"><ele>1029.0</ele><time>2026-04-18T11:40:54Z</time></trkpt><trkpt lat="44.1517037" lon="10.4852179"><ele>1029.0</ele><time>2026-04-18T11:40:59Z</time></trkpt><trkpt lat="44.1516411" lon="10.4852388"><ele>1029.0</ele><time>2026-04-18T11:41:04Z</time></trkpt><trkpt lat="44.1515705" lon="10.4852645"><ele>1029.0</ele><time>2026-04-18T11:41:09Z</time></trkpt><trkpt lat="44.1515106" lon="10.4852941"><ele>1029.0</ele><time>2026-04-18T11:41:14Z</time></trkpt><trkpt lat="44.1514515" lon="10.4853253"><ele>1029.0</ele><time>2026-04-18T11:41:18Z</time></trkpt><trkpt lat="44.1513846" lon="10.4853604"><ele>1029.857142857143</ele><time>2026-04-18T11:41:23Z</time></trkpt><trkpt lat="44.1513302" lon="10.4854115"><ele>1030.7142857142858</ele><time>2026-04-18T11:41:28Z</time></trkpt><trkpt lat="44.1512694" lon="10.4854419"><ele>1031.5714285714284</ele><time>2026-04-18T11:41:33Z</time></trkpt><trkpt lat="44.151201" lon="10.4854472"><ele>1032.4285714285716</ele><time>2026-04-18T11:41:39Z</time></trkpt><trkpt lat="44.1512477" lon="10.4853664"><ele>1033.2857142857142</ele><time>2026-04-18T11:41:45Z</time></trkpt><trkpt lat="44.1513092" lon="10.485319"><ele>1034.142857142857</ele><time>2026-04-18T11:41:51Z</time></trkpt><trkpt lat="44.1513722" lon="10.4852762"><ele>1035.0</ele><time>2026-04-18T11:41:56Z</time></trkpt><trkpt lat="44.1514279" lon="10.4852317"><ele>1035.0</ele><time>2026-04-18T11:42:01.014Z</time></trkpt><trkpt lat="44.1514698" lon="10.48516"><ele>1035.0</ele><time>2026-04-18T11:42:06Z</time></trkpt><trkpt lat="44.1514324" lon="10.4850707"><ele>1035.0</ele><time>2026-04-18T11:42:11Z</time></trkpt><trkpt lat="44.1513657" lon="10.4850993"><ele>1035.0</ele><time>2026-04-18T11:42:15.93Z</time></trkpt><trkpt lat="44.1513215" lon="10.4851633"><ele>1035.0</ele><time>2026-04-18T11:42:21Z</time></trkpt><trkpt lat="44.1512606" lon="10.4852001"><ele>1035.0</ele><time>2026-04-18T11:42:26Z</time></trkpt><trkpt lat="44.1511918" lon="10.4852384"><ele>1035.0</ele><time>2026-04-18T11:42:31Z</time></trkpt><trkpt lat="44.1511234" lon="10.4852712"><ele>1035.0</ele><time>2026-04-18T11:42:36Z</time></trkpt><trkpt lat="44.1510567" lon="10.4853025"><ele>1035.0</ele><time>2026-04-18T11:42:41Z</time></trkpt><trkpt lat="44.1509863" lon="10.4853313"><ele>1035.0</ele><time>2026-04-18T11:42:46Z</time></trkpt><trkpt lat="44.150923" lon="10.4852837"><ele>1035.0</ele><time>2026-04-18T11:42:52Z</time></trkpt><trkpt lat="44.1509652" lon="10.4852067"><ele>1035.0</ele><time>2026-04-18T11:42:57Z</time></trkpt><trkpt lat="44.1510368" lon="10.4851713"><ele>1035.0</ele><time>2026-04-18T11:43:02Z</time></trkpt><trkpt lat="44.1510987" lon="10.4851308"><ele>1035.0</ele><time>2026-04-18T11:43:07Z</time></trkpt><trkpt lat="44.1511402" lon="10.4850635"><ele>1035.0</ele><time>2026-04-18T11:43:12Z</time></trkpt><trkpt lat="44.1511205" lon="10.4849696"><ele>1035.0</ele><time>2026-04-18T11:43:17Z</time></trkpt><trkpt lat="44.1510524" lon="10.4849648"><ele>1035.0</ele><time>2026-04-18T11:43:22Z</time></trkpt><trkpt lat="44.1509934" lon="10.4850053"><ele>1035.0</ele><time>2026-04-18T11:43:27Z</time></trkpt><trkpt lat="44.1509278" lon="10.4850295"><ele>1035.0</ele><time>2026-04-18T11:43:32Z</time></trkpt><trkpt lat="44.1508629" lon="10.4849965"><ele>1035.0</ele><time>2026-04-18T11:43:37Z</time></trkpt><trkpt lat="44.1508196" lon="10.4849227"><ele>1035.0</ele><time>2026-04-18T11:43:42Z</time></trkpt><trkpt lat="44.1508263" lon="10.4848294"><ele>1035.0</ele><time>2026-04-18T11:43:46Z</time></trkpt><trkpt lat="44.1508625" lon="10.4847339"><ele>1035.0</ele><time>2026-04-18T11:43:50.999Z</time></trkpt><trkpt lat="44.1509016" lon="10.4846481"><ele>1035.0</ele><time>2026-04-18T11:43:56Z</time></trkpt><trkpt lat="44.1509352" lon="10.4845526"><ele>1035.0</ele><time>2026-04-18T11:44:01Z</time></trkpt><trkpt lat="44.1509549" lon="10.4844653"><ele>1035.0</ele><time>2026-04-18T11:44:05Z</time></trkpt><trkpt lat="44.1509946" lon="10.4843809"><ele>1035.0</ele><time>2026-04-18T11:44:10Z</time></trkpt><trkpt lat="44.1510434" lon="10.484293"><ele>1035.0</ele><time>2026-04-18T11:44:15Z</time></trkpt><trkpt lat="44.1510883" lon="10.4842073"><ele>1035.142857142857</ele><time>2026-04-18T11:44:20Z</time></trkpt><trkpt lat="44.1511307" lon="10.4841329"><ele>1035.2857142857142</ele><time>2026-04-18T11:44:24Z</time></trkpt><trkpt lat="44.1511621" lon="10.4840332"><ele>1035.4285714285716</ele><time>2026-04-18T11:44:29Z</time></trkpt><trkpt lat="44.1511905" lon="10.4839357"><ele>1035.5714285714284</ele><time>2026-04-18T11:44:34Z</time></trkpt><trkpt lat="44.1512242" lon="10.4838465"><ele>1035.7142857142858</ele><time>2026-04-18T11:44:38Z</time></trkpt><trkpt lat="44.1512617" lon="10.4837538"><ele>1035.857142857143</ele><time>2026-04-18T11:44:43Z</time></trkpt><trkpt lat="44.151296" lon="10.4836655"><ele>1036.0</ele><time>2026-04-18T11:44:48Z</time></trkpt><trkpt lat="44.1512927" lon="10.4835648"><ele>1038.4285714285713</ele><time>2026-04-18T11:44:53Z</time></trkpt><trkpt lat="44.1512593" lon="10.4834721"><ele>1040.857142857143</ele><time>2026-04-18T11:44:58Z</time></trkpt><trkpt lat="44.151209" lon="10.4834073"><ele>1043.2857142857142</ele><time>2026-04-18T11:45:02Z</time></trkpt><trkpt lat="44.1511528" lon="10.4833432"><ele>1045.7142857142858</ele><time>2026-04-18T11:45:06Z</time></trkpt><trkpt lat="44.1510978" lon="10.4832876"><ele>1048.142857142857</ele><time>2026-04-18T11:45:11Z</time></trkpt><trkpt lat="44.15103" lon="10.4832407"><ele>1050.5714285714284</ele><time>2026-04-18T11:45:15Z</time></trkpt><trkpt lat="44.1509688" lon="10.4831855"><ele>1053.0</ele><time>2026-04-18T11:45:20Z</time></trkpt><trkpt lat="44.1509192" lon="10.4831314"><ele>1052.9999999999998</ele><time>2026-04-18T11:45:24Z</time></trkpt><trkpt lat="44.1508598" lon="10.4830627"><ele>1053.0</ele><time>2026-04-18T11:45:28.999Z</time></trkpt><trkpt lat="44.1508034" lon="10.4830194"><ele>1053.0</ele><time>2026-04-18T11:45:33Z</time></trkpt><trkpt lat="44.1507298" lon="10.4829787"><ele>1053.0</ele><time>2026-04-18T11:45:38Z</time></trkpt><trkpt lat="44.1506635" lon="10.4829412"><ele>1053.0</ele><time>2026-04-18T11:45:43Z</time></trkpt><trkpt lat="44.1506011" lon="10.4828945"><ele>1052.9999999999998</ele><time>2026-04-18T11:45:48Z</time></trkpt><trkpt lat="44.1505476" lon="10.4828478"><ele>1053.0</ele><time>2026-04-18T11:45:53Z</time></trkpt><trkpt lat="44.1505001" lon="10.4827838"><ele>1052.5714285714284</ele><time>2026-04-18T11:45:57Z</time></trkpt><trkpt lat="44.1504594" lon="10.482716"><ele>1052.142857142857</ele><time>2026-04-18T11:46:01Z</time></trkpt><trkpt lat="44.150418" lon="10.4826472"><ele>1051.7142857142858</ele><time>2026-04-18T11:46:05Z</time></trkpt><trkpt lat="44.1503946" lon="10.4825476"><ele>1051.2857142857142</ele><time>2026-04-18T11:46:10Z</time></trkpt><trkpt lat="44.1503773" lon="10.4824625"><ele>1050.857142857143</ele><time>2026-04-18T11:46:14Z</time></trkpt><trkpt lat="44.1503534" lon="10.4823618"><ele>1050.4285714285713</ele><time>2026-04-18T11:46:19Z</time></trkpt><trkpt lat="44.150329" lon="10.4822714"><ele>1050.0</ele><time>2026-04-18T11:46:24Z</time></trkpt><trkpt lat="44.1503069" lon="10.4821865"><ele>1050.0</ele><time>2026-04-18T11:46:28Z</time></trkpt><trkpt lat="44.1502889" lon="10.4820997"><ele>1050.0</ele><time>2026-04-18T11:46:32Z</time></trkpt><trkpt lat="44.1502605" lon="10.4820009"><ele>1050.0</ele><time>2026-04-18T11:46:37Z</time></trkpt><trkpt lat="44.1502285" lon="10.4819224"><ele>1050.0</ele><time>2026-04-18T11:46:41Z</time></trkpt><trkpt lat="44.1501901" lon="10.4818338"><ele>1050.0</ele><time>2026-04-18T11:46:46Z</time></trkpt><trkpt lat="44.1501655" lon="10.481749"><ele>1050.0</ele><time>2026-04-18T11:46:51Z</time></trkpt><trkpt lat="44.1501671" lon="10.4816605"><ele>1050.0</ele><time>2026-04-18T11:46:56Z</time></trkpt><trkpt lat="44.1501805" lon="10.4815626"><ele>1052.3333333333333</ele><time>2026-04-18T11:47:02Z</time></trkpt><trkpt lat="44.1501917" lon="10.4814757"><ele>1054.6666666666667</ele><time>2026-04-18T11:47:07Z</time></trkpt><trkpt lat="44.1502051" lon="10.4813894"><ele>1057.0</ele><time>2026-04-18T11:47:12Z</time></trkpt><trkpt lat="44.150248" lon="10.4813033"><ele>1059.3333333333335</ele><time>2026-04-18T11:47:28Z</time></trkpt><trkpt lat="44.1503386" lon="10.4813154"><ele>1061.6666666666667</ele><time>2026-04-18T11:47:31Z</time></trkpt><trkpt lat="44.1504303" lon="10.4813819"><ele>1064.0</ele><time>2026-04-18T11:47:34Z</time></trkpt><trkpt lat="44.1504964" lon="10.4813824"><ele>1064.0</ele><time>2026-04-18T11:47:34.999Z</time></trkpt><trkpt lat="44.1505893" lon="10.4813727"><ele>1064.0</ele><time>2026-04-18T11:47:37Z</time></trkpt><trkpt lat="44.150702" lon="10.481311"><ele>1064.0</ele><time>2026-04-18T11:47:39Z</time></trkpt><trkpt lat="44.1507811" lon="10.4812275"><ele>1064.0</ele><time>2026-04-18T11:47:41Z</time></trkpt><trkpt lat="44.1508598" lon="10.4811239"><ele>1064.0</ele><time>2026-04-18T11:47:43Z</time></trkpt><trkpt lat="44.1509564" lon="10.481041"><ele>1063.5</ele><time>2026-04-18T11:47:45Z</time></trkpt><trkpt lat="44.1510181" lon="10.4810077"><ele>1063.0</ele><time>2026-04-18T11:47:46Z</time></trkpt><trkpt lat="44.1510886" lon="10.4809723"><ele>1062.5</ele><time>2026-04-18T11:47:47Z</time></trkpt><trkpt lat="44.1511595" lon="10.4809363"><ele>1062.0</ele><time>2026-04-18T11:47:48Z</time></trkpt><trkpt lat="44.1512412" lon="10.4809091"><ele>1061.5</ele><time>2026-04-18T11:47:49Z</time></trkpt><trkpt lat="44.1513168" lon="10.4808886"><ele>1061.0</ele><time>2026-04-18T11:47:50Z</time></trkpt><trkpt lat="44.1514055" lon="10.4808715"><ele>1061.0</ele><time>2026-04-18T11:47:51Z</time></trkpt><trkpt lat="44.151478" lon="10.4808746"><ele>1061.0</ele><time>2026-04-18T11:47:52Z</time></trkpt><trkpt lat="44.1515674" lon="10.4808674"><ele>1061.0</ele><time>2026-04-18T11:47:53Z</time></trkpt><trkpt lat="44.1516499" lon="10.480863"><ele>1061.0</ele><time>2026-04-18T11:47:54Z</time></trkpt><trkpt lat="44.1517292" lon="10.4808702"><ele>1061.0</ele><time>2026-04-18T11:47:55Z</time></trkpt><trkpt lat="44.1518173" lon="10.4808719"><ele>1061.0</ele><time>2026-04-18T11:47:56Z</time></trkpt><trkpt lat="44.1519106" lon="10.4808526"><ele>1062.3333333333335</ele><time>2026-04-18T11:47:57Z</time></trkpt><trkpt lat="44.152007" lon="10.4808384"><ele>1063.6666666666667</ele><time>2026-04-18T11:47:58Z</time></trkpt><trkpt lat="44.1520999" lon="10.4808253"><ele>1065.0</ele><time>2026-04-18T11:47:59Z</time></trkpt><trkpt lat="44.1521846" lon="10.4808249"><ele>1066.3333333333333</ele><time>2026-04-18T11:48:00Z</time></trkpt><trkpt lat="44.1522707" lon="10.4807897"><ele>1067.6666666666665</ele><time>2026-04-18T11:48:01Z</time></trkpt><trkpt lat="44.15235" lon="10.4807739"><ele>1069.0</ele><time>2026-04-18T11:48:02Z</time></trkpt><trkpt lat="44.152447" lon="10.4807436"><ele>1069.3333333333333</ele><time>2026-04-18T11:48:03Z</time></trkpt><trkpt lat="44.152539" lon="10.4807299"><ele>1069.6666666666665</ele><time>2026-04-18T11:48:04Z</time></trkpt><trkpt lat="44.1526073" lon="10.4807297"><ele>1070.0</ele><time>2026-04-18T11:48:04.999Z</time></trkpt><trkpt lat="44.1526851" lon="10.4807422"><ele>1070.3333333333333</ele><time>2026-04-18T11:48:06Z</time></trkpt><trkpt lat="44.1527676" lon="10.4807512"><ele>1070.6666666666667</ele><time>2026-04-18T11:48:07Z</time></trkpt><trkpt lat="44.1528555" lon="10.4807621"><ele>1071.0</ele><time>2026-04-18T11:48:08Z</time></trkpt><trkpt lat="44.1529306" lon="10.4807568"><ele>1071.0</ele><time>2026-04-18T11:48:09Z</time></trkpt><trkpt lat="44.1530005" lon="10.4807523"><ele>1071.0</ele><time>2026-04-18T11:48:10Z</time></trkpt><trkpt lat="44.1530826" lon="10.4807477"><ele>1071.0</ele><time>2026-04-18T11:48:11Z</time></trkpt><trkpt lat="44.1531738" lon="10.4807301"><ele>1071.0</ele><time>2026-04-18T11:48:12Z</time></trkpt><trkpt lat="44.1532475" lon="10.4807028"><ele>1071.0</ele><time>2026-04-18T11:48:13Z</time></trkpt><trkpt lat="44.1533224" lon="10.4806616"><ele>1071.0</ele><time>2026-04-18T11:48:14Z</time></trkpt><trkpt lat="44.1533758" lon="10.4805967"><ele>1070.3333333333333</ele><time>2026-04-18T11:48:15Z</time></trkpt><trkpt lat="44.1534482" lon="10.480549"><ele>1069.6666666666667</ele><time>2026-04-18T11:48:16Z</time></trkpt><trkpt lat="44.1534895" lon="10.4804784"><ele>1069.0</ele><time>2026-04-18T11:48:17Z</time></trkpt><trkpt lat="44.1535548" lon="10.4803958"><ele>1068.3333333333335</ele><time>2026-04-18T11:48:19Z</time></trkpt><trkpt lat="44.1536134" lon="10.4803201"><ele>1067.6666666666667</ele><time>2026-04-18T11:48:21Z</time></trkpt><trkpt lat="44.1536669" lon="10.4802405"><ele>1067.0</ele><time>2026-04-18T11:48:24Z</time></trkpt><trkpt lat="44.1536961" lon="10.4801472"><ele>1064.142857142857</ele><time>2026-04-18T11:48:58Z</time></trkpt><trkpt lat="44.1537009" lon="10.4800567"><ele>1061.2857142857142</ele><time>2026-04-18T11:49:02Z</time></trkpt><trkpt lat="44.1537108" lon="10.47996"><ele>1058.4285714285716</ele><time>2026-04-18T11:49:07Z</time></trkpt><trkpt lat="44.1537103" lon="10.4798637"><ele>1055.5714285714284</ele><time>2026-04-18T11:49:11Z</time></trkpt><trkpt lat="44.1537064" lon="10.4797559"><ele>1052.7142857142858</ele><time>2026-04-18T11:49:16Z</time></trkpt><trkpt lat="44.1537142" lon="10.4796674"><ele>1049.857142857143</ele><time>2026-04-18T11:49:20Z</time></trkpt><trkpt lat="44.153718" lon="10.4795707"><ele>1047.0</ele><time>2026-04-18T11:49:25Z</time></trkpt><trkpt lat="44.1537143" lon="10.4794749"><ele>1046.1428571428573</ele><time>2026-04-18T11:49:29Z</time></trkpt><trkpt lat="44.1537131" lon="10.4793763"><ele>1045.2857142857142</ele><time>2026-04-18T11:49:33Z</time></trkpt><trkpt lat="44.1537011" lon="10.4792879"><ele>1044.4285714285716</ele><time>2026-04-18T11:49:37Z</time></trkpt><trkpt lat="44.1537128" lon="10.4791968"><ele>1043.5714285714287</ele><time>2026-04-18T11:49:41Z</time></trkpt><trkpt lat="44.153739" lon="10.4791146"><ele>1042.7142857142858</ele><time>2026-04-18T11:49:45Z</time></trkpt><trkpt lat="44.1537737" lon="10.479028"><ele>1041.857142857143</ele><time>2026-04-18T11:49:49Z</time></trkpt><trkpt lat="44.1538062" lon="10.4789445"><ele>1041.0</ele><time>2026-04-18T11:49:53Z</time></trkpt><trkpt lat="44.1538419" lon="10.4788565"><ele>1041.0</ele><time>2026-04-18T11:49:57Z</time></trkpt><trkpt lat="44.1538776" lon="10.4787735"><ele>1041.0</ele><time>2026-04-18T11:50:01Z</time></trkpt><trkpt lat="44.1539195" lon="10.4786848"><ele>1041.0</ele><time>2026-04-18T11:50:06Z</time></trkpt><trkpt lat="44.1539591" lon="10.4786008"><ele>1041.0</ele><time>2026-04-18T11:50:10Z</time></trkpt><trkpt lat="44.153999" lon="10.4785057"><ele>1041.0</ele><time>2026-04-18T11:50:15Z</time></trkpt><trkpt lat="44.1540408" lon="10.4784222"><ele>1041.0</ele><time>2026-04-18T11:50:19Z</time></trkpt><trkpt lat="44.1540848" lon="10.4783591"><ele>1041.0</ele><time>2026-04-18T11:50:22Z</time></trkpt><trkpt lat="44.1541214" lon="10.4782708"><ele>1044.7142857142858</ele><time>2026-04-18T11:50:25Z</time></trkpt><trkpt lat="44.1541617" lon="10.4781767"><ele>1048.4285714285716</ele><time>2026-04-18T11:50:29.007Z</time></trkpt><trkpt lat="44.1541855" lon="10.478081"><ele>1052.142857142857</ele><time>2026-04-18T11:50:33Z</time></trkpt><trkpt lat="44.1541916" lon="10.4779734"><ele>1055.857142857143</ele><time>2026-04-18T11:50:37Z</time></trkpt><trkpt lat="44.1541914" lon="10.4778854"><ele>1059.5714285714284</ele><time>2026-04-18T11:50:40Z</time></trkpt><trkpt lat="44.1541804" lon="10.4777987"><ele>1063.2857142857142</ele><time>2026-04-18T11:50:42.992Z</time></trkpt><trkpt lat="44.1541737" lon="10.4776982"><ele>1067.0</ele><time>2026-04-18T11:50:45.999Z</time></trkpt><trkpt lat="44.1541653" lon="10.4776079"><ele>1067.0</ele><time>2026-04-18T11:50:48.985Z</time></trkpt><trkpt lat="44.1541498" lon="10.4775112"><ele>1067.0</ele><time>2026-04-18T11:50:54.006Z</time></trkpt><trkpt lat="44.1541545" lon="10.4774224"><ele>1067.0</ele><time>2026-04-18T11:50:58Z</time></trkpt><trkpt lat="44.1541583" lon="10.477321"><ele>1067.0</ele><time>2026-04-18T11:51:01.019Z</time></trkpt><trkpt lat="44.1541608" lon="10.4772052"><ele>1067.0</ele><time>2026-04-18T11:51:03Z</time></trkpt><trkpt lat="44.1541649" lon="10.4770898"><ele>1067.0</ele><time>2026-04-18T11:51:05Z</time></trkpt><trkpt lat="44.1541742" lon="10.47697"><ele>1066.142857142857</ele><time>2026-04-18T11:51:07Z</time></trkpt><trkpt lat="44.1541864" lon="10.4768576"><ele>1065.2857142857142</ele><time>2026-04-18T11:51:09Z</time></trkpt><trkpt lat="44.1542124" lon="10.4767644"><ele>1064.4285714285716</ele><time>2026-04-18T11:51:10.975Z</time></trkpt><trkpt lat="44.1542571" lon="10.4766804"><ele>1063.5714285714284</ele><time>2026-04-18T11:51:14.053Z</time></trkpt><trkpt lat="44.1542844" lon="10.4765953"><ele>1062.7142857142858</ele><time>2026-04-18T11:51:19.989Z</time></trkpt><trkpt lat="44.1543188" lon="10.4765091"><ele>1061.857142857143</ele><time>2026-04-18T11:51:25Z</time></trkpt><trkpt lat="44.154351" lon="10.4764216"><ele>1061.0</ele><time>2026-04-18T11:51:29Z</time></trkpt><trkpt lat="44.1543886" lon="10.4763476"><ele>1058.6666666666667</ele><time>2026-04-18T11:51:33.031Z</time></trkpt><trkpt lat="44.1544252" lon="10.4762487"><ele>1056.3333333333335</ele><time>2026-04-18T11:51:38.008Z</time></trkpt><trkpt lat="44.1544447" lon="10.4761357"><ele>1054.0</ele><time>2026-04-18T11:51:43Z</time></trkpt><trkpt lat="44.1544767" lon="10.4760295"><ele>1051.6666666666667</ele><time>2026-04-18T11:51:46Z</time></trkpt><trkpt lat="44.1545039" lon="10.4759131"><ele>1049.3333333333333</ele><time>2026-04-18T11:51:49Z</time></trkpt><trkpt lat="44.1545318" lon="10.4758193"><ele>1047.0</ele><time>2026-04-18T11:51:50.925Z</time></trkpt><trkpt lat="44.1545665" lon="10.4757237"><ele>1047.0</ele><time>2026-04-18T11:51:53Z</time></trkpt><trkpt lat="44.154587" lon="10.4756154"><ele>1047.0</ele><time>2026-04-18T11:51:55Z</time></trkpt><trkpt lat="44.1545955" lon="10.475499"><ele>1047.0</ele><time>2026-04-18T11:51:57Z</time></trkpt><trkpt lat="44.1545888" lon="10.4753835"><ele>1047.0</ele><time>2026-04-18T11:51:59Z</time></trkpt><trkpt lat="44.1545899" lon="10.4752421"><ele>1047.0</ele><time>2026-04-18T11:52:01Z</time></trkpt><trkpt lat="44.1545787" lon="10.4751032"><ele>1047.0</ele><time>2026-04-18T11:52:03Z</time></trkpt><trkpt lat="44.1545422" lon="10.4749709"><ele>1048.5</ele><time>2026-04-18T11:52:05Z</time></trkpt><trkpt lat="44.1544809" lon="10.4748737"><ele>1050.0</ele><time>2026-04-18T11:52:07Z</time></trkpt><trkpt lat="44.1544203" lon="10.4747967"><ele>1051.5</ele><time>2026-04-18T11:52:10Z</time></trkpt><trkpt lat="44.1543593" lon="10.4747392"><ele>1053.0</ele><time>2026-04-18T11:52:15Z</time></trkpt><trkpt lat="44.154311" lon="10.4746756"><ele>1054.5</ele><time>2026-04-18T11:52:18.999Z</time></trkpt><trkpt lat="44.1542588" lon="10.4746064"><ele>1056.0</ele><time>2026-04-18T11:52:23Z</time></trkpt><trkpt lat="44.154201" lon="10.4745369"><ele>1051.857142857143</ele><time>2026-04-18T11:52:28Z</time></trkpt><trkpt lat="44.1541316" lon="10.4744829"><ele>1047.7142857142858</ele><time>2026-04-18T11:52:32Z</time></trkpt><trkpt lat="44.1540717" lon="10.4744512"><ele>1043.5714285714287</ele><time>2026-04-18T11:52:35Z</time></trkpt><trkpt lat="44.1540011" lon="10.4744205"><ele>1039.4285714285716</ele><time>2026-04-18T11:52:39Z</time></trkpt><trkpt lat="44.1539441" lon="10.4743647"><ele>1035.2857142857144</ele><time>2026-04-18T11:52:43.011Z</time></trkpt><trkpt lat="44.1539001" lon="10.4742746"><ele>1031.142857142857</ele><time>2026-04-18T11:52:47Z</time></trkpt><trkpt lat="44.1538558" lon="10.4741959"><ele>1027.0</ele><time>2026-04-18T11:52:51Z</time></trkpt><trkpt lat="44.1538019" lon="10.4741366"><ele>1027.0</ele><time>2026-04-18T11:52:55Z</time></trkpt><trkpt lat="44.153754" lon="10.4740707"><ele>1027.0</ele><time>2026-04-18T11:52:59Z</time></trkpt><trkpt lat="44.153738" lon="10.4739748"><ele>1027.0</ele><time>2026-04-18T11:53:04Z</time></trkpt><trkpt lat="44.15376" lon="10.4738894"><ele>1027.0</ele><time>2026-04-18T11:53:08Z</time></trkpt><trkpt lat="44.1537802" lon="10.4738017"><ele>1027.0</ele><time>2026-04-18T11:53:12Z</time></trkpt><trkpt lat="44.1537998" lon="10.4737182"><ele>1027.0</ele><time>2026-04-18T11:53:16Z</time></trkpt><trkpt lat="44.1538215" lon="10.473629"><ele>1027.0</ele><time>2026-04-18T11:53:20Z</time></trkpt><trkpt lat="44.1538402" lon="10.4735437"><ele>1029.4285714285716</ele><time>2026-04-18T11:53:24Z</time></trkpt><trkpt lat="44.1538572" lon="10.4734485"><ele>1031.857142857143</ele><time>2026-04-18T11:53:28Z</time></trkpt><trkpt lat="44.1538756" lon="10.4733432"><ele>1034.2857142857142</ele><time>2026-04-18T11:53:33Z</time></trkpt><trkpt lat="44.153891" lon="10.473237"><ele>1036.7142857142858</ele><time>2026-04-18T11:53:38Z</time></trkpt><trkpt lat="44.1539107" lon="10.4731452"><ele>1039.142857142857</ele><time>2026-04-18T11:53:43Z</time></trkpt><trkpt lat="44.1539643" lon="10.4730904"><ele>1041.5714285714287</ele><time>2026-04-18T11:54:30Z</time></trkpt><trkpt lat="44.1540303" lon="10.4730581"><ele>1044.0</ele><time>2026-04-18T11:54:32Z</time></trkpt><trkpt lat="44.1541171" lon="10.4729891"><ele>1047.0</ele><time>2026-04-18T11:54:34Z</time></trkpt><trkpt lat="44.1541932" lon="10.4728837"><ele>1050.0</ele><time>2026-04-18T11:54:36Z</time></trkpt><trkpt lat="44.1542745" lon="10.472756"><ele>1053.0</ele><time>2026-04-18T11:54:38Z</time></trkpt><trkpt lat="44.1543171" lon="10.4726868"><ele>1056.0</ele><time>2026-04-18T11:54:39Z</time></trkpt><trkpt lat="44.1543603" lon="10.4726187"><ele>1059.0</ele><time>2026-04-18T11:54:40Z</time></trkpt><trkpt lat="44.1544019" lon="10.4725499"><ele>1062.0</ele><time>2026-04-18T11:54:41Z</time></trkpt><trkpt lat="44.1544557" lon="10.4724834"><ele>1062.0</ele><time>2026-04-18T11:54:42Z</time></trkpt><trkpt lat="44.1545085" lon="10.4724184"><ele>1062.0</ele><time>2026-04-18T11:54:43Z</time></trkpt><trkpt lat="44.1545858" lon="10.4723084"><ele>1062.0</ele><time>2026-04-18T11:54:45Z</time></trkpt><trkpt lat="44.1546562" lon="10.4722089"><ele>1062.0</ele><time>2026-04-18T11:54:47Z</time></trkpt><trkpt lat="44.1547298" lon="10.4720884"><ele>1062.0</ele><time>2026-04-18T11:54:49Z</time></trkpt><trkpt lat="44.1547757" lon="10.4720267"><ele>1061.8333333333333</ele><time>2026-04-18T11:54:50Z</time></trkpt><trkpt lat="44.1548517" lon="10.4719184"><ele>1061.6666666666667</ele><time>2026-04-18T11:54:52Z</time></trkpt><trkpt lat="44.154926" lon="10.4718064"><ele>1061.5</ele><time>2026-04-18T11:54:54Z</time></trkpt><trkpt lat="44.1549652" lon="10.4717329"><ele>1061.3333333333335</ele><time>2026-04-18T11:54:55Z</time></trkpt><trkpt lat="44.1550048" lon="10.4716571"><ele>1061.1666666666667</ele><time>2026-04-18T11:54:56Z</time></trkpt><trkpt lat="44.1550429" lon="10.4715753"><ele>1061.0</ele><time>2026-04-18T11:54:57Z</time></trkpt><trkpt lat="44.1550911" lon="10.4714948"><ele>1061.0</ele><time>2026-04-18T11:54:58Z</time></trkpt><trkpt lat="44.1551303" lon="10.4714204"><ele>1061.0</ele><time>2026-04-18T11:54:59Z</time></trkpt><trkpt lat="44.1551939" lon="10.4713087"><ele>1061.0</ele><time>2026-04-18T11:55:01Z</time></trkpt><trkpt lat="44.1552493" lon="10.4712526"><ele>1061.0</ele><time>2026-04-18T11:55:03Z</time></trkpt><trkpt lat="44.1553378" lon="10.4712642"><ele>1061.0</ele><time>2026-04-18T11:55:06Z</time></trkpt><trkpt lat="44.1553841" lon="10.4713426"><ele>1061.0</ele><time>2026-04-18T11:55:08Z</time></trkpt><trkpt lat="44.1554166" lon="10.4714253"><ele>1061.0000000000002</ele><time>2026-04-18T11:55:09Z</time></trkpt><trkpt lat="44.1554521" lon="10.4715004"><ele>1061.0</ele><time>2026-04-18T11:55:10Z</time></trkpt><trkpt lat="44.1554966" lon="10.4715718"><ele>1061.0</ele><time>2026-04-18T11:55:11Z</time></trkpt><trkpt lat="44.1555407" lon="10.4716426"><ele>1061.0</ele><time>2026-04-18T11:55:11.999Z</time></trkpt><trkpt lat="44.1555815" lon="10.4717103"><ele>1061.0</ele><time>2026-04-18T11:55:13Z</time></trkpt><trkpt lat="44.1556399" lon="10.4718162"><ele>1061.0000000000002</ele><time>2026-04-18T11:55:15Z</time></trkpt><trkpt lat="44.1556726" lon="10.4717255"><ele>1061.0</ele><time>2026-04-18T11:55:20Z</time></trkpt><trkpt lat="44.1555953" lon="10.4715707"><ele>1061.0</ele><time>2026-04-18T11:55:23Z</time></trkpt><trkpt lat="44.1555484" lon="10.4714157"><ele>1061.0</ele><time>2026-04-18T11:55:25Z</time></trkpt><trkpt lat="44.155506" lon="10.4712813"><ele>1061.0</ele><time>2026-04-18T11:55:27Z</time></trkpt><trkpt lat="44.1554789" lon="10.4711009"><ele>1061.0</ele><time>2026-04-18T11:55:29Z</time></trkpt><trkpt lat="44.1554736" lon="10.4709467"><ele>1055.3999999999999</ele><time>2026-04-18T11:55:31Z</time></trkpt><trkpt lat="44.155459" lon="10.470793"><ele>1049.8</ele><time>2026-04-18T11:55:33Z</time></trkpt><trkpt lat="44.1554213" lon="10.4706536"><ele>1044.1999999999998</ele><time>2026-04-18T11:55:35Z</time></trkpt><trkpt lat="44.1553684" lon="10.4705231"><ele>1038.6</ele><time>2026-04-18T11:55:37Z</time></trkpt><trkpt lat="44.1553165" lon="10.4704576"><ele>1033.0</ele><time>2026-04-18T11:55:40Z</time></trkpt><trkpt lat="44.1552536" lon="10.4704173"><ele>1033.0</ele><time>2026-04-18T11:56:28Z</time></trkpt><trkpt lat="44.1551905" lon="10.470482"><ele>1033.0</ele><time>2026-04-18T11:56:31Z</time></trkpt><trkpt lat="44.1551485" lon="10.4705715"><ele>1033.0</ele><time>2026-04-18T11:56:33Z</time></trkpt><trkpt lat="44.1550937" lon="10.4706909"><ele>1033.0</ele><time>2026-04-18T11:56:35Z</time></trkpt><trkpt lat="44.1550459" lon="10.4707874"><ele>1033.0</ele><time>2026-04-18T11:56:37Z</time></trkpt><trkpt lat="44.1549919" lon="10.4708865"><ele>1033.0</ele><time>2026-04-18T11:56:39Z</time></trkpt><trkpt lat="44.1549254" lon="10.470992"><ele>1032.6666666666665</ele><time>2026-04-18T11:56:41Z</time></trkpt><trkpt lat="44.154866" lon="10.4710872"><ele>1032.3333333333333</ele><time>2026-04-18T11:56:43Z</time></trkpt><trkpt lat="44.1548169" lon="10.4711799"><ele>1032.0</ele><time>2026-04-18T11:56:45Z</time></trkpt><trkpt lat="44.1547706" lon="10.471285"><ele>1031.6666666666667</ele><time>2026-04-18T11:56:47Z</time></trkpt><trkpt lat="44.1547162" lon="10.4713458"><ele>1031.3333333333335</ele><time>2026-04-18T11:56:49Z</time></trkpt><trkpt lat="44.1547005" lon="10.471239"><ele>1031.0</ele><time>2026-04-18T11:56:54Z</time></trkpt><trkpt lat="44.1547534" lon="10.4711542"><ele>1031.3999999999999</ele><time>2026-04-18T11:56:56Z</time></trkpt><trkpt lat="44.1548031" lon="10.47104"><ele>1031.8</ele><time>2026-04-18T11:56:58Z</time></trkpt><trkpt lat="44.1548565" lon="10.4709081"><ele>1032.1999999999998</ele><time>2026-04-18T11:57:00Z</time></trkpt><trkpt lat="44.1549125" lon="10.4707654"><ele>1032.6</ele><time>2026-04-18T11:57:02Z</time></trkpt><trkpt lat="44.1549713" lon="10.4706096"><ele>1033.0</ele><time>2026-04-18T11:57:04Z</time></trkpt><trkpt lat="44.1550009" lon="10.4705298"><ele>1033.0</ele><time>2026-04-18T11:57:05Z</time></trkpt><trkpt lat="44.1550337" lon="10.470447"><ele>1033.0</ele><time>2026-04-18T11:57:06Z</time></trkpt><trkpt lat="44.1550514" lon="10.4703583"><ele>1033.0</ele><time>2026-04-18T11:57:07Z</time></trkpt><trkpt lat="44.1550652" lon="10.4702603"><ele>1033.0</ele><time>2026-04-18T11:57:08Z</time></trkpt><trkpt lat="44.1550702" lon="10.4701702"><ele>1033.0</ele><time>2026-04-18T11:57:09Z</time></trkpt><trkpt lat="44.1550763" lon="10.4700075"><ele>1033.0</ele><time>2026-04-18T11:57:11Z</time></trkpt><trkpt lat="44.1551064" lon="10.4698823"><ele>1029.6666666666665</ele><time>2026-04-18T11:57:13Z</time></trkpt><trkpt lat="44.1551243" lon="10.4697459"><ele>1026.3333333333333</ele><time>2026-04-18T11:57:15Z</time></trkpt><trkpt lat="44.1551921" lon="10.4697101"><ele>1023.0</ele><time>2026-04-18T11:57:17Z</time></trkpt><trkpt lat="44.1552769" lon="10.4697686"><ele>1019.6666666666667</ele><time>2026-04-18T11:57:19Z</time></trkpt><trkpt lat="44.1553203" lon="10.4698344"><ele>1016.3333333333334</ele><time>2026-04-18T11:57:20Z</time></trkpt><trkpt lat="44.1553715" lon="10.4699099"><ele>1013.0</ele><time>2026-04-18T11:57:21Z</time></trkpt><trkpt lat="44.1554254" lon="10.4699847"><ele>1013.0</ele><time>2026-04-18T11:57:22Z</time></trkpt><trkpt lat="44.1554819" lon="10.4700516"><ele>1013.0000000000001</ele><time>2026-04-18T11:57:23Z</time></trkpt><trkpt lat="44.1555316" lon="10.4701208"><ele>1013.0</ele><time>2026-04-18T11:57:24Z</time></trkpt><trkpt lat="44.1555891" lon="10.4701753"><ele>1013.0</ele><time>2026-04-18T11:57:25Z</time></trkpt><trkpt lat="44.1556465" lon="10.4702175"><ele>1013.0000000000001</ele><time>2026-04-18T11:57:26Z</time></trkpt><trkpt lat="44.1556998" lon="10.4702767"><ele>1013.0</ele><time>2026-04-18T11:57:27Z</time></trkpt><trkpt lat="44.1557474" lon="10.4703363"><ele>1013.0</ele><time>2026-04-18T11:57:28Z</time></trkpt><trkpt lat="44.1558099" lon="10.4704159"><ele>1015.4</ele><time>2026-04-18T11:57:29Z</time></trkpt><trkpt lat="44.1558661" lon="10.4704724"><ele>1017.8</ele><time>2026-04-18T11:57:30Z</time></trkpt><trkpt lat="44.1559448" lon="10.4706017"><ele>1020.2</ele><time>2026-04-18T11:57:32Z</time></trkpt><trkpt lat="44.1559998" lon="10.4707568"><ele>1022.6</ele><time>2026-04-18T11:57:34Z</time></trkpt><trkpt lat="44.1560284" lon="10.4708416"><ele>1025.0</ele><time>2026-04-18T11:57:35Z</time></trkpt><trkpt lat="44.1560521" lon="10.4709366"><ele>1025.0</ele><time>2026-04-18T11:57:36Z</time></trkpt><trkpt lat="44.1560685" lon="10.4710287"><ele>1025.0</ele><time>2026-04-18T11:57:37Z</time></trkpt><trkpt lat="44.1560811" lon="10.4711178"><ele>1025.0</ele><time>2026-04-18T11:57:38Z</time></trkpt><trkpt lat="44.1561525" lon="10.4712454"><ele>1025.0</ele><time>2026-04-18T11:57:40Z</time></trkpt><trkpt lat="44.1562032" lon="10.4713078"><ele>1025.0</ele><time>2026-04-18T11:57:41Z</time></trkpt><trkpt lat="44.1562583" lon="10.4713753"><ele>1025.0</ele><time>2026-04-18T11:57:42Z</time></trkpt><trkpt lat="44.156313" lon="10.4714424"><ele>1029.3333333333335</ele><time>2026-04-18T11:57:43Z</time></trkpt><trkpt lat="44.1563735" lon="10.4715059"><ele>1033.6666666666667</ele><time>2026-04-18T11:57:44Z</time></trkpt><trkpt lat="44.1564325" lon="10.4715799"><ele>1038.0</ele><time>2026-04-18T11:57:45Z</time></trkpt><trkpt lat="44.1564959" lon="10.4716599"><ele>1042.3333333333333</ele><time>2026-04-18T11:57:46Z</time></trkpt><trkpt lat="44.1565583" lon="10.4717502"><ele>1046.6666666666665</ele><time>2026-04-18T11:57:47Z</time></trkpt><trkpt lat="44.1566285" lon="10.4718173"><ele>1051.0</ele><time>2026-04-18T11:57:48Z</time></trkpt><trkpt lat="44.1566965" lon="10.4718985"><ele>1046.1666666666665</ele><time>2026-04-18T11:57:49Z</time></trkpt><trkpt lat="44.1567607" lon="10.4719661"><ele>1041.3333333333333</ele><time>2026-04-18T11:57:50Z</time></trkpt><trkpt lat="44.1568248" lon="10.472038"><ele>1036.5</ele><time>2026-04-18T11:57:51Z</time></trkpt><trkpt lat="44.156887" lon="10.4720938"><ele>1031.6666666666667</ele><time>2026-04-18T11:57:52Z</time></trkpt><trkpt lat="44.1569341" lon="10.4721545"><ele>1026.8333333333335</ele><time>2026-04-18T11:57:53Z</time></trkpt><trkpt lat="44.1570052" lon="10.4722797"><ele>1022.0</ele><time>2026-04-18T11:57:55Z</time></trkpt><trkpt lat="44.1570306" lon="10.4723672"><ele>1022.0000000000001</ele><time>2026-04-18T11:57:56Z</time></trkpt><trkpt lat="44.1570525" lon="10.4724559"><ele>1022.0</ele><time>2026-04-18T11:57:57Z</time></trkpt><trkpt lat="44.157055" lon="10.4726198"><ele>1022.0</ele><time>2026-04-18T11:57:59Z</time></trkpt><trkpt lat="44.1570697" lon="10.4727052"><ele>1022.0</ele><time>2026-04-18T11:58:00Z</time></trkpt><trkpt lat="44.1570932" lon="10.4727955"><ele>1022.0000000000001</ele><time>2026-04-18T11:58:01Z</time></trkpt><trkpt lat="44.1571257" lon="10.4728802"><ele>1022.0</ele><time>2026-04-18T11:58:02Z</time></trkpt><trkpt lat="44.1571663" lon="10.4729547"><ele>1020.4000000000001</ele><time>2026-04-18T11:58:03Z</time></trkpt><trkpt lat="44.157247" lon="10.4730625"><ele>1018.8000000000001</ele><time>2026-04-18T11:58:05Z</time></trkpt><trkpt lat="44.1573443" lon="10.4730984"><ele>1017.2</ele><time>2026-04-18T11:58:07Z</time></trkpt><trkpt lat="44.1574376" lon="10.4730583"><ele>1015.6</ele><time>2026-04-18T11:58:09Z</time></trkpt><trkpt lat="44.1575346" lon="10.4730178"><ele>1014.0</ele><time>2026-04-18T11:58:11Z</time></trkpt><trkpt lat="44.157642" lon="10.4729864"><ele>1014.0</ele><time>2026-04-18T11:58:13Z</time></trkpt><trkpt lat="44.1577847" lon="10.4729768"><ele>1014.0</ele><time>2026-04-18T11:58:15Z</time></trkpt><trkpt lat="44.1578533" lon="10.4729875"><ele>1014.0</ele><time>2026-04-18T11:58:16Z</time></trkpt><trkpt lat="44.1579233" lon="10.4729752"><ele>1014.0</ele><time>2026-04-18T11:58:17Z</time></trkpt><trkpt lat="44.1579954" lon="10.4729459"><ele>1014.0</ele><time>2026-04-18T11:58:18Z</time></trkpt><trkpt lat="44.1580618" lon="10.4729015"><ele>1014.0</ele><time>2026-04-18T11:58:19Z</time></trkpt><trkpt lat="44.1581207" lon="10.4728245"><ele>1008.0</ele><time>2026-04-18T11:58:20Z</time></trkpt><trkpt lat="44.1581732" lon="10.472721"><ele>1002.0</ele><time>2026-04-18T11:58:21Z</time></trkpt><trkpt lat="44.158231" lon="10.4726282"><ele>996.0</ele><time>2026-04-18T11:58:22Z</time></trkpt><trkpt lat="44.1582868" lon="10.4725617"><ele>990.0</ele><time>2026-04-18T11:58:23Z</time></trkpt><trkpt lat="44.1583387" lon="10.4725112"><ele>984.0</ele><time>2026-04-18T11:58:24Z</time></trkpt><trkpt lat="44.1584419" lon="10.4724416"><ele>978.0</ele><time>2026-04-18T11:58:26Z</time></trkpt><trkpt lat="44.1585424" lon="10.4724804"><ele>978.0</ele><time>2026-04-18T11:58:28Z</time></trkpt><trkpt lat="44.1586319" lon="10.4725011"><ele>978.0000000000001</ele><time>2026-04-18T11:58:30Z</time></trkpt><trkpt lat="44.1586987" lon="10.4724932"><ele>978.0</ele><time>2026-04-18T11:58:34Z</time></trkpt><trkpt lat="44.1587559" lon="10.4724538"><ele>978.0</ele><time>2026-04-18T11:58:37Z</time></trkpt><trkpt lat="44.1588098" lon="10.472404"><ele>978.0000000000001</ele><time>2026-04-18T11:58:40Z</time></trkpt><trkpt lat="44.1588735" lon="10.4723441"><ele>978.0</ele><time>2026-04-18T11:58:44Z</time></trkpt><trkpt lat="44.1589409" lon="10.4723154"><ele>978.0</ele><time>2026-04-18T11:58:49Z</time></trkpt><trkpt lat="44.1590178" lon="10.4722878"><ele>980.4285714285714</ele><time>2026-04-18T11:58:53Z</time></trkpt><trkpt lat="44.1590893" lon="10.4722597"><ele>982.8571428571429</ele><time>2026-04-18T11:58:57Z</time></trkpt><trkpt lat="44.1591534" lon="10.4722508"><ele>985.2857142857143</ele><time>2026-04-18T11:59:01Z</time></trkpt><trkpt lat="44.1592163" lon="10.4722156"><ele>987.7142857142858</ele><time>2026-04-18T11:59:05Z</time></trkpt><trkpt lat="44.159276" lon="10.4721771"><ele>990.1428571428571</ele><time>2026-04-18T11:59:09Z</time></trkpt><trkpt lat="44.1593493" lon="10.4721592"><ele>992.5714285714287</ele><time>2026-04-18T11:59:14Z</time></trkpt><trkpt lat="44.1594005" lon="10.47222"><ele>995.0</ele><time>2026-04-18T11:59:18Z</time></trkpt><trkpt lat="44.1594417" lon="10.4723002"><ele>995.0000000000001</ele><time>2026-04-18T11:59:21Z</time></trkpt><trkpt lat="44.1594768" lon="10.4723757"><ele>995.0</ele><time>2026-04-18T11:59:23Z</time></trkpt><trkpt lat="44.159514" lon="10.4724732"><ele>995.0</ele><time>2026-04-18T11:59:25Z</time></trkpt><trkpt lat="44.1595578" lon="10.4725916"><ele>995.0</ele><time>2026-04-18T11:59:27Z</time></trkpt><trkpt lat="44.1595957" lon="10.4727262"><ele>995.0000000000001</ele><time>2026-04-18T11:59:29Z</time></trkpt><trkpt lat="44.1596419" lon="10.4728585"><ele>995.0</ele><time>2026-04-18T11:59:31Z</time></trkpt><trkpt lat="44.1596847" lon="10.472991"><ele>998.4285714285714</ele><time>2026-04-18T11:59:33Z</time></trkpt><trkpt lat="44.1597167" lon="10.4731053"><ele>1001.8571428571429</ele><time>2026-04-18T11:59:35Z</time></trkpt><trkpt lat="44.1597256" lon="10.4732017"><ele>1005.2857142857143</ele><time>2026-04-18T11:59:37Z</time></trkpt><trkpt lat="44.1597333" lon="10.4732987"><ele>1008.7142857142858</ele><time>2026-04-18T11:59:40Z</time></trkpt><trkpt lat="44.1597269" lon="10.4733871"><ele>1012.1428571428571</ele><time>2026-04-18T11:59:44Z</time></trkpt><trkpt lat="44.1597159" lon="10.4734971"><ele>1015.5714285714287</ele><time>2026-04-18T11:59:48Z</time></trkpt><trkpt lat="44.159706" lon="10.4736054"><ele>1019.0000000000001</ele><time>2026-04-18T11:59:51Z</time></trkpt><trkpt lat="44.1597033" lon="10.4736976"><ele>1020.0000000000001</ele><time>2026-04-18T11:59:53Z</time></trkpt><trkpt lat="44.1596981" lon="10.4738035"><ele>1021.0</ele><time>2026-04-18T11:59:56Z</time></trkpt><trkpt lat="44.1597037" lon="10.4739073"><ele>1022.0</ele><time>2026-04-18T11:59:59Z</time></trkpt><trkpt lat="44.1596944" lon="10.4740202"><ele>1023.0</ele><time>2026-04-18T12:00:02Z</time></trkpt><trkpt lat="44.1596803" lon="10.4741399"><ele>1024.0</ele><time>2026-04-18T12:00:05Z</time></trkpt><trkpt lat="44.1596667" lon="10.4742509"><ele>1025.0</ele><time>2026-04-18T12:00:08Z</time></trkpt><trkpt lat="44.1596317" lon="10.4743561"><ele>1025.0</ele><time>2026-04-18T12:00:12Z</time></trkpt><trkpt lat="44.1595821" lon="10.4744542"><ele>1025.0</ele><time>2026-04-18T12:00:15Z</time></trkpt><trkpt lat="44.159541" lon="10.4745647"><ele>1025.0</ele><time>2026-04-18T12:00:18Z</time></trkpt><trkpt lat="44.1595294" lon="10.474667"><ele>1025.0</ele><time>2026-04-18T12:00:20Z</time></trkpt><trkpt lat="44.1595236" lon="10.4747862"><ele>1025.0</ele><time>2026-04-18T12:00:22Z</time></trkpt><trkpt lat="44.1595178" lon="10.4748954"><ele>1025.0</ele><time>2026-04-18T12:00:24Z</time></trkpt><trkpt lat="44.1595164" lon="10.4750028"><ele>1024.8333333333335</ele><time>2026-04-18T12:00:26Z</time></trkpt><trkpt lat="44.1595129" lon="10.4751286"><ele>1024.6666666666667</ele><time>2026-04-18T12:00:29Z</time></trkpt><trkpt lat="44.1595176" lon="10.4752403"><ele>1024.5</ele><time>2026-04-18T12:00:32Z</time></trkpt><trkpt lat="44.1595259" lon="10.4753387"><ele>1024.3333333333333</ele><time>2026-04-18T12:00:35Z</time></trkpt><trkpt lat="44.1595426" lon="10.475453"><ele>1024.1666666666665</ele><time>2026-04-18T12:00:38Z</time></trkpt><trkpt lat="44.1595607" lon="10.4755405"><ele>1024.0</ele><time>2026-04-18T12:00:40Z</time></trkpt><trkpt lat="44.1595877" lon="10.4756665"><ele>1023.9999999999999</ele><time>2026-04-18T12:00:43Z</time></trkpt><trkpt lat="44.1596219" lon="10.4757757"><ele>1024.0</ele><time>2026-04-18T12:00:46Z</time></trkpt><trkpt lat="44.1596356" lon="10.4758906"><ele>1024.0</ele><time>2026-04-18T12:00:49Z</time></trkpt><trkpt lat="44.1596276" lon="10.4759795"><ele>1024.0</ele><time>2026-04-18T12:00:51Z</time></trkpt><trkpt lat="44.1596075" lon="10.4761081"><ele>1023.9999999999999</ele><time>2026-04-18T12:00:54Z</time></trkpt><trkpt lat="44.159611" lon="10.4762188"><ele>1024.0</ele><time>2026-04-18T12:00:57Z</time></trkpt><trkpt lat="44.1596172" lon="10.4763241"><ele>1023.6666666666666</ele><time>2026-04-18T12:01:00Z</time></trkpt><trkpt lat="44.1596106" lon="10.4764577"><ele>1023.3333333333333</ele><time>2026-04-18T12:01:03Z</time></trkpt><trkpt lat="44.1596194" lon="10.4765474"><ele>1023.0</ele><time>2026-04-18T12:01:05Z</time></trkpt><trkpt lat="44.1596263" lon="10.4766674"><ele>1022.6666666666667</ele><time>2026-04-18T12:01:08Z</time></trkpt><trkpt lat="44.1596396" lon="10.4767643"><ele>1022.3333333333334</ele><time>2026-04-18T12:01:11Z</time></trkpt><trkpt lat="44.1596607" lon="10.4768761"><ele>1022.0</ele><time>2026-04-18T12:01:14Z</time></trkpt><trkpt lat="44.1596851" lon="10.4769979"><ele>1022.0000000000001</ele><time>2026-04-18T12:01:17Z</time></trkpt><trkpt lat="44.1597069" lon="10.4770951"><ele>1022.0</ele><time>2026-04-18T12:01:20Z</time></trkpt><trkpt lat="44.1597285" lon="10.4771964"><ele>1022.0</ele><time>2026-04-18T12:01:23Z</time></trkpt><trkpt lat="44.1597575" lon="10.4772956"><ele>1022.0</ele><time>2026-04-18T12:01:26Z</time></trkpt><trkpt lat="44.1597678" lon="10.4774174"><ele>1022.0000000000001</ele><time>2026-04-18T12:01:29Z</time></trkpt><trkpt lat="44.1597364" lon="10.4775297"><ele>1022.0</ele><time>2026-04-18T12:01:32Z</time></trkpt><trkpt lat="44.1596973" lon="10.4776006"><ele>1022.2</ele><time>2026-04-18T12:01:34Z</time></trkpt><trkpt lat="44.159642" lon="10.4776682"><ele>1022.4000000000001</ele><time>2026-04-18T12:01:36Z</time></trkpt><trkpt lat="44.159608" lon="10.4777703"><ele>1022.5999999999999</ele><time>2026-04-18T12:01:38Z</time></trkpt><trkpt lat="44.1596399" lon="10.4779028"><ele>1022.8</ele><time>2026-04-18T12:01:40Z</time></trkpt><trkpt lat="44.159705" lon="10.4780082"><ele>1023.0</ele><time>2026-04-18T12:01:42Z</time></trkpt><trkpt lat="44.1597929" lon="10.4781138"><ele>1017.6666666666666</ele><time>2026-04-18T12:01:44Z</time></trkpt><trkpt lat="44.1598718" lon="10.4782387"><ele>1012.3333333333333</ele><time>2026-04-18T12:01:46Z</time></trkpt><trkpt lat="44.159908" lon="10.4783166"><ele>1007.0</ele><time>2026-04-18T12:01:46.999Z</time></trkpt><trkpt lat="44.1599369" lon="10.4784088"><ele>1001.6666666666666</ele><time>2026-04-18T12:01:48Z</time></trkpt><trkpt lat="44.1599639" lon="10.4785065"><ele>996.3333333333333</ele><time>2026-04-18T12:01:49Z</time></trkpt><trkpt lat="44.1599858" lon="10.4786039"><ele>991.0</ele><time>2026-04-18T12:01:50Z</time></trkpt><trkpt lat="44.1599946" lon="10.4786919"><ele>995.5999999999999</ele><time>2026-04-18T12:01:51Z</time></trkpt><trkpt lat="44.1600264" lon="10.478831"><ele>1000.1999999999999</ele><time>2026-04-18T12:01:53Z</time></trkpt><trkpt lat="44.1601105" lon="10.4789"><ele>1004.8000000000001</ele><time>2026-04-18T12:01:55Z</time></trkpt><trkpt lat="44.1602211" lon="10.4788832"><ele>1009.4000000000001</ele><time>2026-04-18T12:01:57Z</time></trkpt><trkpt lat="44.1602857" lon="10.4788488"><ele>1014.0</ele><time>2026-04-18T12:01:58Z</time></trkpt><trkpt lat="44.1603366" lon="10.4787845"><ele>1010.1666666666666</ele><time>2026-04-18T12:01:59Z</time></trkpt><trkpt lat="44.1603779" lon="10.478712"><ele>1006.3333333333333</ele><time>2026-04-18T12:01:59.999Z</time></trkpt><trkpt lat="44.1604098" lon="10.478556"><ele>1002.5</ele><time>2026-04-18T12:02:02Z</time></trkpt><trkpt lat="44.1604382" lon="10.478431"><ele>998.6666666666666</ele><time>2026-04-18T12:02:04Z</time></trkpt><trkpt lat="44.1604536" lon="10.4783307"><ele>994.8333333333333</ele><time>2026-04-18T12:02:06Z</time></trkpt><trkpt lat="44.1604837" lon="10.478227"><ele>991.0</ele><time>2026-04-18T12:02:09Z</time></trkpt><trkpt lat="44.1605145" lon="10.4781463"><ele>990.9999999999999</ele><time>2026-04-18T12:02:12Z</time></trkpt><trkpt lat="44.1605771" lon="10.4780717"><ele>991.0</ele><time>2026-04-18T12:02:16Z</time></trkpt><trkpt lat="44.1606463" lon="10.4780307"><ele>991.0</ele><time>2026-04-18T12:02:19Z</time></trkpt><trkpt lat="44.1607332" lon="10.4779928"><ele>991.0</ele><time>2026-04-18T12:02:22Z</time></trkpt><trkpt lat="44.1608081" lon="10.4779681"><ele>990.9999999999999</ele><time>2026-04-18T12:02:25Z</time></trkpt><trkpt lat="44.1608761" lon="10.4779513"><ele>991.0</ele><time>2026-04-18T12:02:28Z</time></trkpt><trkpt lat="44.160939" lon="10.477944"><ele>989.3333333333333</ele><time>2026-04-18T12:02:31Z</time></trkpt><trkpt lat="44.1610087" lon="10.4779292"><ele>987.6666666666666</ele><time>2026-04-18T12:02:34Z</time></trkpt><trkpt lat="44.1610892" lon="10.477916"><ele>986.0</ele><time>2026-04-18T12:02:37Z</time></trkpt><trkpt lat="44.1611715" lon="10.4779034"><ele>984.3333333333333</ele><time>2026-04-18T12:02:40Z</time></trkpt><trkpt lat="44.1612468" lon="10.477932"><ele>982.6666666666666</ele><time>2026-04-18T12:02:42Z</time></trkpt><trkpt lat="44.161331" lon="10.4780053"><ele>981.0</ele><time>2026-04-18T12:02:44Z</time></trkpt><trkpt lat="44.1614214" lon="10.4781066"><ele>981.0</ele><time>2026-04-18T12:02:46Z</time></trkpt><trkpt lat="44.1614789" lon="10.4781451"><ele>980.9999999999999</ele><time>2026-04-18T12:02:47Z</time></trkpt><trkpt lat="44.1616038" lon="10.4781514"><ele>980.9999999999999</ele><time>2026-04-18T12:02:49Z</time></trkpt><trkpt lat="44.1617171" lon="10.4780833"><ele>981.0</ele><time>2026-04-18T12:02:51Z</time></trkpt><trkpt lat="44.1618166" lon="10.4779865"><ele>981.0</ele><time>2026-04-18T12:02:53Z</time></trkpt><trkpt lat="44.1619055" lon="10.4778717"><ele>977.5999999999999</ele><time>2026-04-18T12:02:55Z</time></trkpt><trkpt lat="44.1619791" lon="10.4777458"><ele>974.1999999999999</ele><time>2026-04-18T12:02:57Z</time></trkpt><trkpt lat="44.1620451" lon="10.4776428"><ele>970.8000000000001</ele><time>2026-04-18T12:02:59Z</time></trkpt><trkpt lat="44.1621478" lon="10.4776078"><ele>967.4000000000001</ele><time>2026-04-18T12:03:01Z</time></trkpt><trkpt lat="44.1622591" lon="10.4776006"><ele>964.0</ele><time>2026-04-18T12:03:03Z</time></trkpt><trkpt lat="44.1623682" lon="10.4776026"><ele>964.0</ele><time>2026-04-18T12:03:05Z</time></trkpt><trkpt lat="44.1624807" lon="10.4776333"><ele>964.0</ele><time>2026-04-18T12:03:07Z</time></trkpt><trkpt lat="44.1625768" lon="10.4776894"><ele>964.0</ele><time>2026-04-18T12:03:09Z</time></trkpt><trkpt lat="44.1626755" lon="10.4777694"><ele>964.0</ele><time>2026-04-18T12:03:11Z</time></trkpt><trkpt lat="44.1627852" lon="10.4778504"><ele>967.4000000000001</ele><time>2026-04-18T12:03:13Z</time></trkpt><trkpt lat="44.162889" lon="10.4779563"><ele>970.8000000000001</ele><time>2026-04-18T12:03:15Z</time></trkpt><trkpt lat="44.162932" lon="10.4780235"><ele>974.1999999999999</ele><time>2026-04-18T12:03:16Z</time></trkpt><trkpt lat="44.1629985" lon="10.47813"><ele>977.5999999999999</ele><time>2026-04-18T12:03:18Z</time></trkpt><trkpt lat="44.1630953" lon="10.4781453"><ele>981.0</ele><time>2026-04-18T12:03:20Z</time></trkpt><trkpt lat="44.1631733" lon="10.4780757"><ele>983.1999999999999</ele><time>2026-04-18T12:03:22Z</time></trkpt><trkpt lat="44.1632595" lon="10.4779496"><ele>985.3999999999999</ele><time>2026-04-18T12:03:24Z</time></trkpt><trkpt lat="44.1633087" lon="10.477871"><ele>987.6</ele><time>2026-04-18T12:03:25Z</time></trkpt><trkpt lat="44.1633441" lon="10.4777741"><ele>989.8</ele><time>2026-04-18T12:03:26Z</time></trkpt><trkpt lat="44.1633802" lon="10.477683"><ele>992.0</ele><time>2026-04-18T12:03:27Z</time></trkpt><trkpt lat="44.1634202" lon="10.4775376"><ele>987.6</ele><time>2026-04-18T12:03:28Z</time></trkpt><trkpt lat="44.1634529" lon="10.4773974"><ele>983.2</ele><time>2026-04-18T12:03:29Z</time></trkpt><trkpt lat="44.1634741" lon="10.4772379"><ele>978.8</ele><time>2026-04-18T12:03:30Z</time></trkpt><trkpt lat="44.1634815" lon="10.477078"><ele>974.4</ele><time>2026-04-18T12:03:31Z</time></trkpt><trkpt lat="44.1634832" lon="10.4769395"><ele>970.0</ele><time>2026-04-18T12:03:32Z</time></trkpt><trkpt lat="44.1634839" lon="10.4768188"><ele>964.8</ele><time>2026-04-18T12:03:33Z</time></trkpt><trkpt lat="44.1634823" lon="10.4767192"><ele>959.6</ele><time>2026-04-18T12:03:34Z</time></trkpt><trkpt lat="44.1634818" lon="10.4766279"><ele>954.4000000000001</ele><time>2026-04-18T12:03:35Z</time></trkpt><trkpt lat="44.1634917" lon="10.4764821"><ele>949.2</ele><time>2026-04-18T12:03:37Z</time></trkpt><trkpt lat="44.1635538" lon="10.4763763"><ele>944.0</ele><time>2026-04-18T12:03:39Z</time></trkpt><trkpt lat="44.1636588" lon="10.4763299"><ele>944.0</ele><time>2026-04-18T12:03:41Z</time></trkpt><trkpt lat="44.1637674" lon="10.4762762"><ele>944.0000000000001</ele><time>2026-04-18T12:03:43Z</time></trkpt><trkpt lat="44.1638619" lon="10.4762213"><ele>944.0000000000001</ele><time>2026-04-18T12:03:45Z</time></trkpt><trkpt lat="44.1639399" lon="10.4761328"><ele>944.0</ele><time>2026-04-18T12:03:47Z</time></trkpt><trkpt lat="44.1640044" lon="10.476027"><ele>944.0</ele><time>2026-04-18T12:03:49Z</time></trkpt><trkpt lat="44.1640466" lon="10.4759513"><ele>941.6666666666667</ele><time>2026-04-18T12:03:51Z</time></trkpt><trkpt lat="44.1640869" lon="10.4758779"><ele>939.3333333333334</ele><time>2026-04-18T12:03:53Z</time></trkpt><trkpt lat="44.1641247" lon="10.4757869"><ele>937.0</ele><time>2026-04-18T12:03:56Z</time></trkpt><trkpt lat="44.1641611" lon="10.4756838"><ele>934.6666666666667</ele><time>2026-04-18T12:04:00Z</time></trkpt><trkpt lat="44.1641976" lon="10.4755766"><ele>932.3333333333334</ele><time>2026-04-18T12:04:03Z</time></trkpt><trkpt lat="44.1642295" lon="10.4754831"><ele>930.0</ele><time>2026-04-18T12:04:05Z</time></trkpt><trkpt lat="44.1642783" lon="10.4753747"><ele>930.0</ele><time>2026-04-18T12:04:07Z</time></trkpt><trkpt lat="44.1643233" lon="10.475308"><ele>930.0</ele><time>2026-04-18T12:04:08Z</time></trkpt><trkpt lat="44.1643876" lon="10.4752162"><ele>930.0</ele><time>2026-04-18T12:04:10Z</time></trkpt><trkpt lat="44.1644607" lon="10.475096"><ele>930.0</ele><time>2026-04-18T12:04:12Z</time></trkpt><trkpt lat="44.1645091" lon="10.4750258"><ele>930.0</ele><time>2026-04-18T12:04:13Z</time></trkpt><trkpt lat="44.1645594" lon="10.4749503"><ele>930.0</ele><time>2026-04-18T12:04:14Z</time></trkpt><trkpt lat="44.1646228" lon="10.4748699"><ele>930.0</ele><time>2026-04-18T12:04:15Z</time></trkpt><trkpt lat="44.1646923" lon="10.4747962"><ele>930.0</ele><time>2026-04-18T12:04:16Z</time></trkpt><trkpt lat="44.1647619" lon="10.4747246"><ele>930.0</ele><time>2026-04-18T12:04:17Z</time></trkpt><trkpt lat="44.1648156" lon="10.4746351"><ele>930.0</ele><time>2026-04-18T12:04:18Z</time></trkpt><trkpt lat="44.1648579" lon="10.4745477"><ele>930.0</ele><time>2026-04-18T12:04:19Z</time></trkpt><trkpt lat="44.1649005" lon="10.474399"><ele>930.0</ele><time>2026-04-18T12:04:21Z</time></trkpt><trkpt lat="44.1649364" lon="10.474271"><ele>930.3333333333334</ele><time>2026-04-18T12:04:23Z</time></trkpt><trkpt lat="44.1650008" lon="10.474189"><ele>930.6666666666667</ele><time>2026-04-18T12:04:25Z</time></trkpt><trkpt lat="44.1650785" lon="10.4741614"><ele>931.0</ele><time>2026-04-18T12:04:27Z</time></trkpt><trkpt lat="44.1651614" lon="10.4741681"><ele>931.3333333333334</ele><time>2026-04-18T12:04:29Z</time></trkpt><trkpt lat="44.1652613" lon="10.4742188"><ele>931.6666666666667</ele><time>2026-04-18T12:04:31Z</time></trkpt><trkpt lat="44.1653481" lon="10.4742604"><ele>932.0</ele><time>2026-04-18T12:04:33Z</time></trkpt><trkpt lat="44.1654193" lon="10.4743279"><ele>932.0</ele><time>2026-04-18T12:04:35Z</time></trkpt><trkpt lat="44.1654731" lon="10.4744591"><ele>932.0</ele><time>2026-04-18T12:04:37Z</time></trkpt><trkpt lat="44.1655361" lon="10.4745952"><ele>932.0</ele><time>2026-04-18T12:04:39Z</time></trkpt><trkpt lat="44.1656059" lon="10.4747416"><ele>932.0</ele><time>2026-04-18T12:04:41Z</time></trkpt><trkpt lat="44.1656291" lon="10.474842"><ele>932.0</ele><time>2026-04-18T12:04:42Z</time></trkpt><trkpt lat="44.165648" lon="10.4749343"><ele>931.6666666666667</ele><time>2026-04-18T12:04:43Z</time></trkpt><trkpt lat="44.1656653" lon="10.4750392"><ele>931.3333333333334</ele><time>2026-04-18T12:04:44Z</time></trkpt><trkpt lat="44.1656799" lon="10.4751474"><ele>931.0</ele><time>2026-04-18T12:04:45Z</time></trkpt><trkpt lat="44.1656977" lon="10.4752629"><ele>930.6666666666667</ele><time>2026-04-18T12:04:46Z</time></trkpt><trkpt lat="44.1657175" lon="10.4753801"><ele>930.3333333333334</ele><time>2026-04-18T12:04:47Z</time></trkpt><trkpt lat="44.1657413" lon="10.4755185"><ele>930.0</ele><time>2026-04-18T12:04:48Z</time></trkpt><trkpt lat="44.1657742" lon="10.4756619"><ele>931.6</ele><time>2026-04-18T12:04:48.999Z</time></trkpt><trkpt lat="44.1658117" lon="10.475806"><ele>933.2</ele><time>2026-04-18T12:04:50Z</time></trkpt><trkpt lat="44.1658582" lon="10.4759373"><ele>934.8</ele><time>2026-04-18T12:04:51Z</time></trkpt><trkpt lat="44.1659024" lon="10.4760604"><ele>936.4</ele><time>2026-04-18T12:04:52Z</time></trkpt><trkpt lat="44.1659472" lon="10.4761718"><ele>938.0</ele><time>2026-04-18T12:04:53Z</time></trkpt><trkpt lat="44.165992" lon="10.4762731"><ele>939.5000000000001</ele><time>2026-04-18T12:04:54Z</time></trkpt><trkpt lat="44.1660168" lon="10.4763781"><ele>941.0</ele><time>2026-04-18T12:04:55Z</time></trkpt><trkpt lat="44.1660474" lon="10.4764857"><ele>942.5</ele><time>2026-04-18T12:04:56Z</time></trkpt><trkpt lat="44.1660752" lon="10.4765914"><ele>944.0</ele><time>2026-04-18T12:04:57Z</time></trkpt><trkpt lat="44.1660974" lon="10.4767046"><ele>945.5000000000001</ele><time>2026-04-18T12:04:58Z</time></trkpt><trkpt lat="44.1661067" lon="10.4768173"><ele>947.0</ele><time>2026-04-18T12:04:59Z</time></trkpt><trkpt lat="44.1661091" lon="10.4769412"><ele>947.0000000000001</ele><time>2026-04-18T12:05:00Z</time></trkpt><trkpt lat="44.1661036" lon="10.4770691"><ele>947.0</ele><time>2026-04-18T12:05:01Z</time></trkpt><trkpt lat="44.1660977" lon="10.4772008"><ele>947.0</ele><time>2026-04-18T12:05:02Z</time></trkpt><trkpt lat="44.166087" lon="10.4773284"><ele>947.0</ele><time>2026-04-18T12:05:03Z</time></trkpt><trkpt lat="44.1660694" lon="10.4774347"><ele>947.0000000000001</ele><time>2026-04-18T12:05:04Z</time></trkpt><trkpt lat="44.1660648" lon="10.4775336"><ele>947.0</ele><time>2026-04-18T12:05:05Z</time></trkpt><trkpt lat="44.1660744" lon="10.4777041"><ele>947.3333333333334</ele><time>2026-04-18T12:05:07Z</time></trkpt><trkpt lat="44.1661097" lon="10.4778583"><ele>947.6666666666667</ele><time>2026-04-18T12:05:09Z</time></trkpt><trkpt lat="44.1661544" lon="10.4779785"><ele>948.0</ele><time>2026-04-18T12:05:11Z</time></trkpt><trkpt lat="44.1662097" lon="10.4780466"><ele>948.3333333333333</ele><time>2026-04-18T12:05:13Z</time></trkpt><trkpt lat="44.1662882" lon="10.4780537"><ele>948.6666666666666</ele><time>2026-04-18T12:05:16Z</time></trkpt><trkpt lat="44.1663508" lon="10.4780153"><ele>949.0</ele><time>2026-04-18T12:05:18Z</time></trkpt><trkpt lat="44.1664204" lon="10.4779474"><ele>948.9999999999999</ele><time>2026-04-18T12:05:20Z</time></trkpt><trkpt lat="44.166486" lon="10.477892"><ele>949.0</ele><time>2026-04-18T12:05:22Z</time></trkpt><trkpt lat="44.1665716" lon="10.4778282"><ele>949.0</ele><time>2026-04-18T12:05:25Z</time></trkpt><trkpt lat="44.1666315" lon="10.4777849"><ele>949.0</ele><time>2026-04-18T12:05:27Z</time></trkpt><trkpt lat="44.1666947" lon="10.477729"><ele>948.9999999999999</ele><time>2026-04-18T12:05:30Z</time></trkpt><trkpt lat="44.166749" lon="10.4776642"><ele>949.0</ele><time>2026-04-18T12:05:33Z</time></trkpt><trkpt lat="44.166799" lon="10.4776041"><ele>944.857142857143</ele><time>2026-04-18T12:05:37Z</time></trkpt><trkpt lat="44.1668542" lon="10.477549"><ele>940.7142857142858</ele><time>2026-04-18T12:05:40Z</time></trkpt><trkpt lat="44.1668993" lon="10.4774722"><ele>936.5714285714286</ele><time>2026-04-18T12:05:43Z</time></trkpt><trkpt lat="44.1669518" lon="10.4773928"><ele>932.4285714285714</ele><time>2026-04-18T12:05:47Z</time></trkpt><trkpt lat="44.1670042" lon="10.4773177"><ele>928.2857142857142</ele><time>2026-04-18T12:05:51Z</time></trkpt><trkpt lat="44.1670555" lon="10.4772315"><ele>924.142857142857</ele><time>2026-04-18T12:05:55Z</time></trkpt><trkpt lat="44.1671086" lon="10.4771698"><ele>919.9999999999999</ele><time>2026-04-18T12:05:58Z</time></trkpt><trkpt lat="44.1671665" lon="10.4770923"><ele>917.1666666666667</ele><time>2026-04-18T12:06:01Z</time></trkpt><trkpt lat="44.1672254" lon="10.4769987"><ele>914.3333333333334</ele><time>2026-04-18T12:06:05Z</time></trkpt><trkpt lat="44.1672763" lon="10.476944"><ele>911.5</ele><time>2026-04-18T12:06:08Z</time></trkpt><trkpt lat="44.1673512" lon="10.4769113"><ele>908.6666666666667</ele><time>2026-04-18T12:06:12Z</time></trkpt><trkpt lat="44.1674333" lon="10.4769492"><ele>905.8333333333334</ele><time>2026-04-18T12:06:16Z</time></trkpt><trkpt lat="44.1674919" lon="10.4770215"><ele>903.0</ele><time>2026-04-18T12:06:19Z</time></trkpt><trkpt lat="44.1675495" lon="10.4770976"><ele>909.3333333333334</ele><time>2026-04-18T12:06:22Z</time></trkpt><trkpt lat="44.1676069" lon="10.4771586"><ele>915.6666666666667</ele><time>2026-04-18T12:06:25Z</time></trkpt><trkpt lat="44.1676775" lon="10.4772207"><ele>922.0</ele><time>2026-04-18T12:06:28Z</time></trkpt><trkpt lat="44.1677438" lon="10.47728"><ele>928.3333333333334</ele><time>2026-04-18T12:06:31Z</time></trkpt><trkpt lat="44.1678135" lon="10.4773646"><ele>934.6666666666667</ele><time>2026-04-18T12:06:34Z</time></trkpt><trkpt lat="44.1678916" lon="10.4774457"><ele>941.0</ele><time>2026-04-18T12:06:37Z</time></trkpt><trkpt lat="44.1679501" lon="10.4774905"><ele>941.0000000000001</ele><time>2026-04-18T12:06:39Z</time></trkpt><trkpt lat="44.1680257" lon="10.477553"><ele>941.0</ele><time>2026-04-18T12:06:42Z</time></trkpt><trkpt lat="44.1681027" lon="10.4776096"><ele>941.0</ele><time>2026-04-18T12:06:45Z</time></trkpt><trkpt lat="44.1681754" lon="10.4776711"><ele>941.0</ele><time>2026-04-18T12:06:48Z</time></trkpt><trkpt lat="44.1682269" lon="10.477749"><ele>941.0000000000001</ele><time>2026-04-18T12:06:51Z</time></trkpt><trkpt lat="44.1682658" lon="10.4778385"><ele>941.0</ele><time>2026-04-18T12:06:54Z</time></trkpt><trkpt lat="44.1683123" lon="10.4779266"><ele>939.8333333333334</ele><time>2026-04-18T12:06:57Z</time></trkpt><trkpt lat="44.1683612" lon="10.4780128"><ele>938.6666666666667</ele><time>2026-04-18T12:07:00Z</time></trkpt><trkpt lat="44.1683845" lon="10.4781054"><ele>937.5</ele><time>2026-04-18T12:07:03Z</time></trkpt><trkpt lat="44.168389" lon="10.4782294"><ele>936.3333333333333</ele><time>2026-04-18T12:07:06Z</time></trkpt><trkpt lat="44.1683931" lon="10.4783487"><ele>935.1666666666666</ele><time>2026-04-18T12:07:09Z</time></trkpt><trkpt lat="44.1684147" lon="10.4784681"><ele>934.0</ele><time>2026-04-18T12:07:11Z</time></trkpt><trkpt lat="44.1684391" lon="10.4785814"><ele>934.0</ele><time>2026-04-18T12:07:13Z</time></trkpt><trkpt lat="44.1684921" lon="10.4786945"><ele>934.0000000000001</ele><time>2026-04-18T12:07:15Z</time></trkpt><trkpt lat="44.1685597" lon="10.4787819"><ele>934.0000000000001</ele><time>2026-04-18T12:07:17Z</time></trkpt><trkpt lat="44.1686133" lon="10.4788828"><ele>934.0</ele><time>2026-04-18T12:07:19Z</time></trkpt><trkpt lat="44.168651" lon="10.479001"><ele>934.0</ele><time>2026-04-18T12:07:21Z</time></trkpt><trkpt lat="44.1686732" lon="10.4791304"><ele>938.0</ele><time>2026-04-18T12:07:23Z</time></trkpt><trkpt lat="44.1686878" lon="10.4792874"><ele>942.0</ele><time>2026-04-18T12:07:25Z</time></trkpt><trkpt lat="44.1687086" lon="10.479447"><ele>946.0</ele><time>2026-04-18T12:07:27Z</time></trkpt><trkpt lat="44.168744" lon="10.479601"><ele>950.0</ele><time>2026-04-18T12:07:29Z</time></trkpt><trkpt lat="44.1687634" lon="10.479763"><ele>950.5000000000001</ele><time>2026-04-18T12:07:31Z</time></trkpt><trkpt lat="44.1687208" lon="10.4798982"><ele>951.0</ele><time>2026-04-18T12:07:33Z</time></trkpt><trkpt lat="44.1686921" lon="10.4800182"><ele>951.5</ele><time>2026-04-18T12:07:35Z</time></trkpt><trkpt lat="44.1686701" lon="10.4801263"><ele>952.0</ele><time>2026-04-18T12:07:37Z</time></trkpt><trkpt lat="44.1686603" lon="10.4802209"><ele>952.5000000000001</ele><time>2026-04-18T12:07:39Z</time></trkpt><trkpt lat="44.1686439" lon="10.4803385"><ele>953.0</ele><time>2026-04-18T12:07:42Z</time></trkpt><trkpt lat="44.1686312" lon="10.4804451"><ele>951.5000000000001</ele><time>2026-04-18T12:07:45Z</time></trkpt><trkpt lat="44.1686288" lon="10.4805588"><ele>950.0</ele><time>2026-04-18T12:07:48Z</time></trkpt><trkpt lat="44.1686228" lon="10.4806765"><ele>948.5</ele><time>2026-04-18T12:07:51Z</time></trkpt><trkpt lat="44.1686119" lon="10.480805"><ele>947.0</ele><time>2026-04-18T12:07:54Z</time></trkpt><trkpt lat="44.1685862" lon="10.4809308"><ele>945.5000000000001</ele><time>2026-04-18T12:07:57Z</time></trkpt><trkpt lat="44.1685781" lon="10.4810201"><ele>944.0</ele><time>2026-04-18T12:07:59Z</time></trkpt><trkpt lat="44.1685614" lon="10.4811299"><ele>944.0</ele><time>2026-04-18T12:08:02Z</time></trkpt><trkpt lat="44.1685429" lon="10.4812275"><ele>944.0</ele><time>2026-04-18T12:08:05Z</time></trkpt><trkpt lat="44.1685234" lon="10.4813197"><ele>944.0</ele><time>2026-04-18T12:08:08Z</time></trkpt><trkpt lat="44.1684951" lon="10.4814167"><ele>944.0</ele><time>2026-04-18T12:08:11Z</time></trkpt><trkpt lat="44.1684717" lon="10.4815313"><ele>944.0</ele><time>2026-04-18T12:08:14Z</time></trkpt><trkpt lat="44.1684441" lon="10.4816127"><ele>944.0</ele><time>2026-04-18T12:08:16Z</time></trkpt><trkpt lat="44.1684062" lon="10.4816919"><ele>944.0</ele><time>2026-04-18T12:08:18Z</time></trkpt><trkpt lat="44.1683516" lon="10.4817661"><ele>940.8000000000001</ele><time>2026-04-18T12:08:20Z</time></trkpt><trkpt lat="44.1682824" lon="10.4818522"><ele>937.6000000000001</ele><time>2026-04-18T12:08:22Z</time></trkpt><trkpt lat="44.1682003" lon="10.4819566"><ele>934.4</ele><time>2026-04-18T12:08:24Z</time></trkpt><trkpt lat="44.1681658" lon="10.4820391"><ele>931.2</ele><time>2026-04-18T12:08:25Z</time></trkpt><trkpt lat="44.1681062" lon="10.4821783"><ele>928.0</ele><time>2026-04-18T12:08:27Z</time></trkpt><trkpt lat="44.1680441" lon="10.4822937"><ele>935.8</ele><time>2026-04-18T12:08:28.999Z</time></trkpt><trkpt lat="44.1679679" lon="10.4823996"><ele>943.5999999999999</ele><time>2026-04-18T12:08:31Z</time></trkpt><trkpt lat="44.1679257" lon="10.4824726"><ele>951.4000000000001</ele><time>2026-04-18T12:08:32Z</time></trkpt><trkpt lat="44.1678849" lon="10.4825512"><ele>959.2</ele><time>2026-04-18T12:08:33Z</time></trkpt><trkpt lat="44.1678328" lon="10.4827057"><ele>967.0</ele><time>2026-04-18T12:08:35Z</time></trkpt><trkpt lat="44.1677783" lon="10.4828158"><ele>967.0</ele><time>2026-04-18T12:08:37Z</time></trkpt><trkpt lat="44.1677474" lon="10.4829356"><ele>967.0</ele><time>2026-04-18T12:08:39Z</time></trkpt><trkpt lat="44.1677811" lon="10.4830243"><ele>967.0</ele><time>2026-04-18T12:08:42Z</time></trkpt><trkpt lat="44.1678556" lon="10.4830425"><ele>967.0</ele><time>2026-04-18T12:08:46Z</time></trkpt><trkpt lat="44.1679181" lon="10.4830231"><ele>967.0</ele><time>2026-04-18T12:08:49Z</time></trkpt><trkpt lat="44.1679913" lon="10.4829965"><ele>967.0</ele><time>2026-04-18T12:08:52Z</time></trkpt><trkpt lat="44.1680524" lon="10.4829499"><ele>967.0</ele><time>2026-04-18T12:08:55Z</time></trkpt><trkpt lat="44.1681149" lon="10.4829091"><ele>967.0</ele><time>2026-04-18T12:08:58Z</time></trkpt><trkpt lat="44.1681784" lon="10.4828771"><ele>967.0</ele><time>2026-04-18T12:09:01Z</time></trkpt><trkpt lat="44.168259" lon="10.4828479"><ele>967.0</ele><time>2026-04-18T12:09:05Z</time></trkpt><trkpt lat="44.1683342" lon="10.4828415"><ele>967.0</ele><time>2026-04-18T12:09:09Z</time></trkpt><trkpt lat="44.1684133" lon="10.4828398"><ele>967.0</ele><time>2026-04-18T12:09:13Z</time></trkpt><trkpt lat="44.1684914" lon="10.4828474"><ele>967.0</ele><time>2026-04-18T12:09:17Z</time></trkpt><trkpt lat="44.1685548" lon="10.4828551"><ele>967.0</ele><time>2026-04-18T12:09:21Z</time></trkpt><trkpt lat="44.1686344" lon="10.4828388"><ele>959.3333333333333</ele><time>2026-04-18T12:09:25Z</time></trkpt><trkpt lat="44.1687083" lon="10.4828215"><ele>951.6666666666666</ele><time>2026-04-18T12:09:29Z</time></trkpt><trkpt lat="44.1687912" lon="10.4828179"><ele>944.0</ele><time>2026-04-18T12:09:33Z</time></trkpt><trkpt lat="44.1688701" lon="10.4828001"><ele>936.3333333333333</ele><time>2026-04-18T12:09:37Z</time></trkpt><trkpt lat="44.1689356" lon="10.4827866"><ele>928.6666666666666</ele><time>2026-04-18T12:09:40Z</time></trkpt><trkpt lat="44.1690028" lon="10.4827854"><ele>921.0</ele><time>2026-04-18T12:09:44Z</time></trkpt><trkpt lat="44.1690828" lon="10.4828034"><ele>920.857142857143</ele><time>2026-04-18T12:09:48Z</time></trkpt><trkpt lat="44.1691472" lon="10.4827784"><ele>920.7142857142858</ele><time>2026-04-18T12:09:51Z</time></trkpt><trkpt lat="44.1692133" lon="10.4827664"><ele>920.5714285714286</ele><time>2026-04-18T12:09:54Z</time></trkpt><trkpt lat="44.1692765" lon="10.4827491"><ele>920.4285714285714</ele><time>2026-04-18T12:09:57Z</time></trkpt><trkpt lat="44.1693424" lon="10.4827161"><ele>920.2857142857142</ele><time>2026-04-18T12:10:00Z</time></trkpt><trkpt lat="44.1694179" lon="10.482675"><ele>920.142857142857</ele><time>2026-04-18T12:10:04Z</time></trkpt><trkpt lat="44.1695097" lon="10.4826296"><ele>919.9999999999999</ele><time>2026-04-18T12:10:09Z</time></trkpt><trkpt lat="44.1695737" lon="10.48262"><ele>919.9999999999999</ele><time>2026-04-18T12:10:13Z</time></trkpt><trkpt lat="44.1696376" lon="10.48262"><ele>920.0</ele><time>2026-04-18T12:10:16.999Z</time></trkpt><trkpt lat="44.1697116" lon="10.4826283"><ele>919.9999999999999</ele><time>2026-04-18T12:10:21Z</time></trkpt><trkpt lat="44.1697838" lon="10.4826183"><ele>919.9999999999999</ele><time>2026-04-18T12:10:24Z</time></trkpt><trkpt lat="44.1698613" lon="10.4826077"><ele>920.0</ele><time>2026-04-18T12:10:28Z</time></trkpt><trkpt lat="44.1699281" lon="10.482577"><ele>919.9999999999999</ele><time>2026-04-18T12:10:32.027Z</time></trkpt><trkpt lat="44.1699976" lon="10.4825502"><ele>919.9999999999999</ele><time>2026-04-18T12:10:36Z</time></trkpt><trkpt lat="44.1700666" lon="10.4825098"><ele>919.9999999999999</ele><time>2026-04-18T12:10:41Z</time></trkpt><trkpt lat="44.1701338" lon="10.4824814"><ele>920.0</ele><time>2026-04-18T12:10:47Z</time></trkpt><trkpt lat="44.1701985" lon="10.4824656"><ele>919.9999999999999</ele><time>2026-04-18T12:10:53Z</time></trkpt><trkpt lat="44.170129" lon="10.4824893"><ele>919.9999999999999</ele><time>2026-04-18T12:11:06.951Z</time></trkpt><trkpt lat="44.1700578" lon="10.4825295"><ele>920.0</ele><time>2026-04-18T12:11:11Z</time></trkpt><trkpt lat="44.1699869" lon="10.4825555"><ele>919.9999999999999</ele><time>2026-04-18T12:11:14Z</time></trkpt><trkpt lat="44.169913" lon="10.4825695"><ele>919.9999999999999</ele><time>2026-04-18T12:11:17Z</time></trkpt><trkpt lat="44.1698408" lon="10.4825847"><ele>920.0000000000001</ele><time>2026-04-18T12:11:20Z</time></trkpt><trkpt lat="44.1697753" lon="10.4825931"><ele>920.0</ele><time>2026-04-18T12:11:23Z</time></trkpt><trkpt lat="44.1697017" lon="10.4825994"><ele>920.0</ele><time>2026-04-18T12:11:27Z</time></trkpt><trkpt lat="44.1696337" lon="10.4826053"><ele>920.0</ele><time>2026-04-18T12:11:31.968Z</time></trkpt><trkpt lat="44.1695699" lon="10.4826114"><ele>920.0000000000001</ele><time>2026-04-18T12:11:35.867Z</time></trkpt><trkpt lat="44.1694782" lon="10.4826289"><ele>920.0</ele><time>2026-04-18T12:11:39Z</time></trkpt><trkpt lat="44.1693953" lon="10.4826755"><ele>920.0000000000001</ele><time>2026-04-18T12:11:41Z</time></trkpt><trkpt lat="44.169335" lon="10.4827042"><ele>920.0</ele><time>2026-04-18T12:11:42Z</time></trkpt><trkpt lat="44.1692087" lon="10.4827218"><ele>920.0</ele><time>2026-04-18T12:11:44Z</time></trkpt><trkpt lat="44.1691418" lon="10.4827226"><ele>920.0</ele><time>2026-04-18T12:11:45Z</time></trkpt><trkpt lat="44.1690698" lon="10.4827201"><ele>920.0000000000001</ele><time>2026-04-18T12:11:46Z</time></trkpt><trkpt lat="44.1689927" lon="10.4827168"><ele>920.0</ele><time>2026-04-18T12:11:47Z</time></trkpt><trkpt lat="44.1689084" lon="10.4827146"><ele>920.1666666666667</ele><time>2026-04-18T12:11:48Z</time></trkpt><trkpt lat="44.1688318" lon="10.4827353"><ele>920.3333333333334</ele><time>2026-04-18T12:11:49Z</time></trkpt><trkpt lat="44.1687537" lon="10.4827648"><ele>920.5</ele><time>2026-04-18T12:11:50Z</time></trkpt><trkpt lat="44.1686749" lon="10.482798"><ele>920.6666666666667</ele><time>2026-04-18T12:11:51Z</time></trkpt><trkpt lat="44.1685915" lon="10.482831"><ele>920.8333333333334</ele><time>2026-04-18T12:11:52Z</time></trkpt><trkpt lat="44.1685107" lon="10.4828568"><ele>921.0</ele><time>2026-04-18T12:11:53Z</time></trkpt><trkpt lat="44.168421" lon="10.4828559"><ele>921.0</ele><time>2026-04-18T12:11:54Z</time></trkpt><trkpt lat="44.168334" lon="10.4828563"><ele>921.0</ele><time>2026-04-18T12:11:55Z</time></trkpt><trkpt lat="44.1682594" lon="10.4828717"><ele>921.0</ele><time>2026-04-18T12:11:56Z</time></trkpt><trkpt lat="44.1681849" lon="10.4828971"><ele>921.0</ele><time>2026-04-18T12:11:57Z</time></trkpt><trkpt lat="44.168111" lon="10.4829442"><ele>921.0</ele><time>2026-04-18T12:11:58Z</time></trkpt><trkpt lat="44.1680023" lon="10.4830305"><ele>921.0</ele><time>2026-04-18T12:12:00Z</time></trkpt><trkpt lat="44.1679102" lon="10.4830855"><ele>926.5</ele><time>2026-04-18T12:12:02Z</time></trkpt><trkpt lat="44.1678223" lon="10.4830742"><ele>932.0</ele><time>2026-04-18T12:12:04Z</time></trkpt><trkpt lat="44.1677949" lon="10.4829905"><ele>937.5</ele><time>2026-04-18T12:12:06Z</time></trkpt><trkpt lat="44.1677981" lon="10.4828743"><ele>943.0</ele><time>2026-04-18T12:12:09Z</time></trkpt><trkpt lat="44.1678162" lon="10.4827591"><ele>948.5</ele><time>2026-04-18T12:12:13Z</time></trkpt><trkpt lat="44.1678395" lon="10.4826497"><ele>954.0</ele><time>2026-04-18T12:12:17Z</time></trkpt><trkpt lat="44.1678728" lon="10.4825449"><ele>955.8571428571428</ele><time>2026-04-18T12:12:21Z</time></trkpt><trkpt lat="44.167922" lon="10.4824729"><ele>957.7142857142856</ele><time>2026-04-18T12:12:24Z</time></trkpt><trkpt lat="44.1679813" lon="10.4824022"><ele>959.5714285714286</ele><time>2026-04-18T12:12:28Z</time></trkpt><trkpt lat="44.1680263" lon="10.4823373"><ele>961.4285714285713</ele><time>2026-04-18T12:12:31Z</time></trkpt><trkpt lat="44.1680605" lon="10.4822635"><ele>963.2857142857142</ele><time>2026-04-18T12:12:34Z</time></trkpt><trkpt lat="44.1681008" lon="10.4821936"><ele>965.1428571428571</ele><time>2026-04-18T12:12:37Z</time></trkpt><trkpt lat="44.1681179" lon="10.482091"><ele>967.0</ele><time>2026-04-18T12:12:41Z</time></trkpt><trkpt lat="44.1681659" lon="10.4820016"><ele>961.4285714285714</ele><time>2026-04-18T12:12:45Z</time></trkpt><trkpt lat="44.1682381" lon="10.4819392"><ele>955.8571428571429</ele><time>2026-04-18T12:12:49Z</time></trkpt><trkpt lat="44.1682954" lon="10.481861"><ele>950.2857142857143</ele><time>2026-04-18T12:12:53Z</time></trkpt><trkpt lat="44.1683436" lon="10.4817867"><ele>944.7142857142858</ele><time>2026-04-18T12:12:56.999Z</time></trkpt><trkpt lat="44.1683888" lon="10.4817071"><ele>939.1428571428571</ele><time>2026-04-18T12:13:01Z</time></trkpt><trkpt lat="44.1684357" lon="10.4816474"><ele>933.5714285714287</ele><time>2026-04-18T12:13:04Z</time></trkpt><trkpt lat="44.1684646" lon="10.4815621"><ele>928.0000000000001</ele><time>2026-04-18T12:13:07Z</time></trkpt><trkpt lat="44.1684945" lon="10.4814805"><ele>928.0</ele><time>2026-04-18T12:13:10Z</time></trkpt><trkpt lat="44.1685204" lon="10.4813718"><ele>928.0</ele><time>2026-04-18T12:13:14Z</time></trkpt><trkpt lat="44.1685606" lon="10.4812651"><ele>928.0</ele><time>2026-04-18T12:13:17Z</time></trkpt><trkpt lat="44.168585" lon="10.4811586"><ele>928.0</ele><time>2026-04-18T12:13:19Z</time></trkpt><trkpt lat="44.1686015" lon="10.481021"><ele>928.0</ele><time>2026-04-18T12:13:21Z</time></trkpt><trkpt lat="44.1686188" lon="10.4808791"><ele>931.2</ele><time>2026-04-18T12:13:23Z</time></trkpt><trkpt lat="44.1686357" lon="10.4807351"><ele>934.4</ele><time>2026-04-18T12:13:25Z</time></trkpt><trkpt lat="44.168643" lon="10.4806046"><ele>937.6000000000001</ele><time>2026-04-18T12:13:27Z</time></trkpt><trkpt lat="44.1686415" lon="10.4804583"><ele>940.8000000000001</ele><time>2026-04-18T12:13:29Z</time></trkpt><trkpt lat="44.1686544" lon="10.4803226"><ele>944.0</ele><time>2026-04-18T12:13:31Z</time></trkpt><trkpt lat="44.1686734" lon="10.4802005"><ele>945.2</ele><time>2026-04-18T12:13:33Z</time></trkpt><trkpt lat="44.1686907" lon="10.4800665"><ele>946.4000000000001</ele><time>2026-04-18T12:13:35Z</time></trkpt><trkpt lat="44.168732" lon="10.4799296"><ele>947.6</ele><time>2026-04-18T12:13:37Z</time></trkpt><trkpt lat="44.168761" lon="10.479797"><ele>948.8</ele><time>2026-04-18T12:13:39Z</time></trkpt><trkpt lat="44.1687715" lon="10.4796658"><ele>950.0</ele><time>2026-04-18T12:13:41Z</time></trkpt><trkpt lat="44.1687388" lon="10.4795509"><ele>950.0000000000001</ele><time>2026-04-18T12:13:43Z</time></trkpt><trkpt lat="44.1687019" lon="10.4794559"><ele>950.0</ele><time>2026-04-18T12:13:45Z</time></trkpt><trkpt lat="44.1686811" lon="10.4793555"><ele>950.0</ele><time>2026-04-18T12:13:48Z</time></trkpt><trkpt lat="44.1686681" lon="10.4792529"><ele>950.0</ele><time>2026-04-18T12:13:52Z</time></trkpt><trkpt lat="44.1686656" lon="10.4791452"><ele>950.0000000000001</ele><time>2026-04-18T12:13:55.999Z</time></trkpt><trkpt lat="44.1686525" lon="10.4790378"><ele>950.0</ele><time>2026-04-18T12:14:00Z</time></trkpt><trkpt lat="44.1686139" lon="10.4789376"><ele>950.0</ele><time>2026-04-18T12:14:04Z</time></trkpt><trkpt lat="44.1685689" lon="10.4788565"><ele>950.0000000000001</ele><time>2026-04-18T12:14:08Z</time></trkpt><trkpt lat="44.1685144" lon="10.4787726"><ele>950.0</ele><time>2026-04-18T12:14:12Z</time></trkpt><trkpt lat="44.1684701" lon="10.4787101"><ele>950.0</ele><time>2026-04-18T12:14:15Z</time></trkpt><trkpt lat="44.1684261" lon="10.4786196"><ele>950.0000000000001</ele><time>2026-04-18T12:14:19Z</time></trkpt><trkpt lat="44.1683958" lon="10.4785205"><ele>950.0</ele><time>2026-04-18T12:14:23Z</time></trkpt><trkpt lat="44.1683872" lon="10.4784325"><ele>950.0</ele><time>2026-04-18T12:14:26Z</time></trkpt><trkpt lat="44.1683802" lon="10.4783452"><ele>947.3333333333334</ele><time>2026-04-18T12:14:29Z</time></trkpt><trkpt lat="44.1683814" lon="10.4782331"><ele>944.6666666666667</ele><time>2026-04-18T12:14:33Z</time></trkpt><trkpt lat="44.1683862" lon="10.478128"><ele>942.0</ele><time>2026-04-18T12:14:37Z</time></trkpt><trkpt lat="44.1683701" lon="10.4780188"><ele>939.3333333333333</ele><time>2026-04-18T12:14:41Z</time></trkpt><trkpt lat="44.1683282" lon="10.4779245"><ele>936.6666666666666</ele><time>2026-04-18T12:14:45Z</time></trkpt><trkpt lat="44.1682911" lon="10.4778512"><ele>934.0</ele><time>2026-04-18T12:14:48Z</time></trkpt><trkpt lat="44.168251" lon="10.4777616"><ele>935.1666666666666</ele><time>2026-04-18T12:14:51Z</time></trkpt><trkpt lat="44.168201" lon="10.477691"><ele>936.3333333333333</ele><time>2026-04-18T12:14:54Z</time></trkpt><trkpt lat="44.1681296" lon="10.4776239"><ele>937.5</ele><time>2026-04-18T12:14:57Z</time></trkpt><trkpt lat="44.1680522" lon="10.4775611"><ele>938.6666666666667</ele><time>2026-04-18T12:15:00Z</time></trkpt><trkpt lat="44.1680033" lon="10.4775014"><ele>939.8333333333334</ele><time>2026-04-18T12:15:02Z</time></trkpt><trkpt lat="44.1679316" lon="10.4774325"><ele>941.0</ele><time>2026-04-18T12:15:05Z</time></trkpt><trkpt lat="44.1678736" lon="10.47737"><ele>940.9999999999999</ele><time>2026-04-18T12:15:07.999Z</time></trkpt><trkpt lat="44.1678158" lon="10.4773218"><ele>941.0</ele><time>2026-04-18T12:15:12Z</time></trkpt><trkpt lat="44.1677663" lon="10.477254"><ele>940.9999999999999</ele><time>2026-04-18T12:15:16Z</time></trkpt><trkpt lat="44.1677083" lon="10.4772062"><ele>940.9999999999999</ele><time>2026-04-18T12:15:20Z</time></trkpt><trkpt lat="44.1676398" lon="10.4771472"><ele>941.0</ele><time>2026-04-18T12:15:24Z</time></trkpt><trkpt lat="44.1675812" lon="10.4770867"><ele>940.9999999999999</ele><time>2026-04-18T12:15:27Z</time></trkpt><trkpt lat="44.1675244" lon="10.4770093"><ele>940.9999999999999</ele><time>2026-04-18T12:15:31Z</time></trkpt><trkpt lat="44.16746" lon="10.4769304"><ele>937.5000000000001</ele><time>2026-04-18T12:15:35Z</time></trkpt><trkpt lat="44.1673912" lon="10.4768837"><ele>934.0</ele><time>2026-04-18T12:15:38Z</time></trkpt><trkpt lat="44.1673143" lon="10.4769094"><ele>930.5</ele><time>2026-04-18T12:15:41Z</time></trkpt><trkpt lat="44.1672412" lon="10.4769752"><ele>927.0</ele><time>2026-04-18T12:15:44Z</time></trkpt><trkpt lat="44.1671713" lon="10.4770625"><ele>923.5000000000001</ele><time>2026-04-18T12:15:47Z</time></trkpt><trkpt lat="44.1671138" lon="10.477143"><ele>920.0</ele><time>2026-04-18T12:15:49Z</time></trkpt><trkpt lat="44.1670602" lon="10.4772232"><ele>920.0</ele><time>2026-04-18T12:15:51Z</time></trkpt><trkpt lat="44.1669878" lon="10.477326"><ele>920.0</ele><time>2026-04-18T12:15:53Z</time></trkpt><trkpt lat="44.1669256" lon="10.4774287"><ele>920.0</ele><time>2026-04-18T12:15:55Z</time></trkpt><trkpt lat="44.166851" lon="10.4775118"><ele>920.0</ele><time>2026-04-18T12:15:57Z</time></trkpt><trkpt lat="44.1667735" lon="10.4775825"><ele>920.0</ele><time>2026-04-18T12:15:59Z</time></trkpt><trkpt lat="44.1666859" lon="10.4776767"><ele>920.0</ele><time>2026-04-18T12:16:01Z</time></trkpt><trkpt lat="44.1666066" lon="10.4777681"><ele>920.0</ele><time>2026-04-18T12:16:03Z</time></trkpt><trkpt lat="44.1665242" lon="10.4778499"><ele>920.0</ele><time>2026-04-18T12:16:05Z</time></trkpt><trkpt lat="44.1664416" lon="10.4779145"><ele>920.0</ele><time>2026-04-18T12:16:07Z</time></trkpt><trkpt lat="44.1663717" lon="10.4779748"><ele>920.0</ele><time>2026-04-18T12:16:09Z</time></trkpt><trkpt lat="44.1663074" lon="10.4780154"><ele>924.142857142857</ele><time>2026-04-18T12:16:12Z</time></trkpt><trkpt lat="44.1662371" lon="10.4780396"><ele>928.2857142857142</ele><time>2026-04-18T12:16:16Z</time></trkpt><trkpt lat="44.1661697" lon="10.4779969"><ele>932.4285714285714</ele><time>2026-04-18T12:16:21Z</time></trkpt><trkpt lat="44.1661235" lon="10.4779083"><ele>936.5714285714286</ele><time>2026-04-18T12:16:25Z</time></trkpt><trkpt lat="44.1660895" lon="10.4778194"><ele>940.7142857142858</ele><time>2026-04-18T12:16:30Z</time></trkpt><trkpt lat="44.1660568" lon="10.4777329"><ele>944.857142857143</ele><time>2026-04-18T12:16:34Z</time></trkpt><trkpt lat="44.1660383" lon="10.4776299"><ele>949.0000000000001</ele><time>2026-04-18T12:16:39Z</time></trkpt><trkpt lat="44.166082" lon="10.4775379"><ele>949.0000000000001</ele><time>2026-04-18T12:16:42Z</time></trkpt><trkpt lat="44.1661089" lon="10.4774553"><ele>949.0</ele><time>2026-04-18T12:16:45Z</time></trkpt><trkpt lat="44.1661044" lon="10.4773399"><ele>949.0000000000001</ele><time>2026-04-18T12:16:49Z</time></trkpt><trkpt lat="44.1660953" lon="10.4772492"><ele>949.0000000000001</ele><time>2026-04-18T12:16:52Z</time></trkpt><trkpt lat="44.1660845" lon="10.4771508"><ele>949.0</ele><time>2026-04-18T12:16:55Z</time></trkpt><trkpt lat="44.1660835" lon="10.4770514"><ele>949.0000000000001</ele><time>2026-04-18T12:16:58Z</time></trkpt><trkpt lat="44.1660922" lon="10.4769578"><ele>949.0000000000001</ele><time>2026-04-18T12:17:01Z</time></trkpt><trkpt lat="44.1660963" lon="10.476866"><ele>948.7142857142858</ele><time>2026-04-18T12:17:04Z</time></trkpt><trkpt lat="44.1660853" lon="10.4767758"><ele>948.4285714285714</ele><time>2026-04-18T12:17:07Z</time></trkpt><trkpt lat="44.166071" lon="10.4766694"><ele>948.1428571428571</ele><time>2026-04-18T12:17:11Z</time></trkpt><trkpt lat="44.1660676" lon="10.4765563"><ele>947.8571428571429</ele><time>2026-04-18T12:17:26Z</time></trkpt><trkpt lat="44.1660355" lon="10.4764682"><ele>947.5714285714284</ele><time>2026-04-18T12:17:41Z</time></trkpt><trkpt lat="44.1660139" lon="10.4763831"><ele>947.2857142857142</ele><time>2026-04-18T12:17:48Z</time></trkpt><trkpt lat="44.1660194" lon="10.4762923"><ele>947.0</ele><time>2026-04-18T12:23:12Z</time></trkpt><trkpt lat="44.1659764" lon="10.4762071"><ele>945.5000000000001</ele><time>2026-04-18T12:23:16Z</time></trkpt><trkpt lat="44.1659281" lon="10.4761381"><ele>944.0</ele><time>2026-04-18T12:23:19Z</time></trkpt><trkpt lat="44.165893" lon="10.4760566"><ele>942.5</ele><time>2026-04-18T12:23:21Z</time></trkpt><trkpt lat="44.1658541" lon="10.4759499"><ele>941.0</ele><time>2026-04-18T12:23:23Z</time></trkpt><trkpt lat="44.1658147" lon="10.4758341"><ele>939.5000000000001</ele><time>2026-04-18T12:23:25Z</time></trkpt><trkpt lat="44.1657777" lon="10.4757279"><ele>938.0</ele><time>2026-04-18T12:23:27Z</time></trkpt><trkpt lat="44.165745" lon="10.4756216"><ele>938.0</ele><time>2026-04-18T12:23:30Z</time></trkpt><trkpt lat="44.1657244" lon="10.475518"><ele>938.0</ele><time>2026-04-18T12:23:31.999Z</time></trkpt><trkpt lat="44.1657025" lon="10.4754173"><ele>938.0</ele><time>2026-04-18T12:23:34Z</time></trkpt><trkpt lat="44.1656898" lon="10.4753196"><ele>938.0</ele><time>2026-04-18T12:23:36Z</time></trkpt><trkpt lat="44.1656786" lon="10.4752218"><ele>938.0</ele><time>2026-04-18T12:23:38Z</time></trkpt><trkpt lat="44.1656713" lon="10.4751323"><ele>938.0</ele><time>2026-04-18T12:23:40Z</time></trkpt><trkpt lat="44.1656543" lon="10.4750141"><ele>938.0</ele><time>2026-04-18T12:23:43Z</time></trkpt><trkpt lat="44.1656158" lon="10.4748887"><ele>937.1428571428571</ele><time>2026-04-18T12:23:46Z</time></trkpt><trkpt lat="44.1655873" lon="10.4747943"><ele>936.2857142857142</ele><time>2026-04-18T12:23:48Z</time></trkpt><trkpt lat="44.1655624" lon="10.4747064"><ele>935.4285714285714</ele><time>2026-04-18T12:23:50Z</time></trkpt><trkpt lat="44.1655297" lon="10.4746097"><ele>934.5714285714286</ele><time>2026-04-18T12:23:54Z</time></trkpt><trkpt lat="44.1655092" lon="10.4745192"><ele>933.7142857142857</ele><time>2026-04-18T12:24:34Z</time></trkpt><trkpt lat="44.1654741" lon="10.4744329"><ele>932.8571428571429</ele><time>2026-04-18T12:24:42Z</time></trkpt><trkpt lat="44.165448" lon="10.4743251"><ele>932.0</ele><time>2026-04-18T12:38:02Z</time></trkpt><trkpt lat="44.1653807" lon="10.4743083"><ele>932.0000000000001</ele><time>2026-04-18T12:38:11Z</time></trkpt><trkpt lat="44.1653167" lon="10.474265"><ele>932.0</ele><time>2026-04-18T12:38:14Z</time></trkpt><trkpt lat="44.1652465" lon="10.4742361"><ele>932.0</ele><time>2026-04-18T12:38:17Z</time></trkpt><trkpt lat="44.1651678" lon="10.4742015"><ele>932.0</ele><time>2026-04-18T12:38:20Z</time></trkpt><trkpt lat="44.1650775" lon="10.4741736"><ele>932.0000000000001</ele><time>2026-04-18T12:38:23Z</time></trkpt><trkpt lat="44.1649869" lon="10.4742011"><ele>932.0</ele><time>2026-04-18T12:38:26Z</time></trkpt><trkpt lat="44.1649254" lon="10.4743021"><ele>932.0</ele><time>2026-04-18T12:38:29Z</time></trkpt><trkpt lat="44.1648978" lon="10.4743907"><ele>932.0</ele><time>2026-04-18T12:38:31Z</time></trkpt><trkpt lat="44.1648719" lon="10.4744746"><ele>932.0</ele><time>2026-04-18T12:38:33Z</time></trkpt><trkpt lat="44.164822" lon="10.4745736"><ele>932.0</ele><time>2026-04-18T12:38:36Z</time></trkpt><trkpt lat="44.1647618" lon="10.4746504"><ele>932.0</ele><time>2026-04-18T12:38:39Z</time></trkpt><trkpt lat="44.1647149" lon="10.4747269"><ele>932.0</ele><time>2026-04-18T12:38:43Z</time></trkpt><trkpt lat="44.1646594" lon="10.4747754"><ele>932.0</ele><time>2026-04-18T12:38:47Z</time></trkpt><trkpt lat="44.1646027" lon="10.474843"><ele>931.6666666666667</ele><time>2026-04-18T12:38:50Z</time></trkpt><trkpt lat="44.1645596" lon="10.474909"><ele>931.3333333333334</ele><time>2026-04-18T12:38:52Z</time></trkpt><trkpt lat="44.1645142" lon="10.4749832"><ele>931.0</ele><time>2026-04-18T12:38:54Z</time></trkpt><trkpt lat="44.1644606" lon="10.4750818"><ele>930.6666666666667</ele><time>2026-04-18T12:38:57Z</time></trkpt><trkpt lat="44.1644073" lon="10.4751586"><ele>930.3333333333334</ele><time>2026-04-18T12:39:00Z</time></trkpt><trkpt lat="44.1643502" lon="10.47524"><ele>930.0</ele><time>2026-04-18T12:39:03Z</time></trkpt><trkpt lat="44.1642879" lon="10.4753336"><ele>935.1666666666666</ele><time>2026-04-18T12:39:06Z</time></trkpt><trkpt lat="44.164244" lon="10.4754382"><ele>940.3333333333333</ele><time>2026-04-18T12:39:09Z</time></trkpt><trkpt lat="44.1642114" lon="10.4755277"><ele>945.5</ele><time>2026-04-18T12:39:12Z</time></trkpt><trkpt lat="44.1641868" lon="10.475609"><ele>950.6666666666666</ele><time>2026-04-18T12:39:14Z</time></trkpt><trkpt lat="44.164149" lon="10.4757072"><ele>955.8333333333333</ele><time>2026-04-18T12:39:17Z</time></trkpt><trkpt lat="44.1641037" lon="10.4758087"><ele>961.0</ele><time>2026-04-18T12:39:19Z</time></trkpt><trkpt lat="44.1640476" lon="10.4759181"><ele>958.1666666666666</ele><time>2026-04-18T12:39:21Z</time></trkpt><trkpt lat="44.1639892" lon="10.4760194"><ele>955.3333333333333</ele><time>2026-04-18T12:39:23Z</time></trkpt><trkpt lat="44.1639257" lon="10.4761154"><ele>952.5</ele><time>2026-04-18T12:39:25Z</time></trkpt><trkpt lat="44.1638506" lon="10.4761787"><ele>949.6666666666667</ele><time>2026-04-18T12:39:27Z</time></trkpt><trkpt lat="44.1637894" lon="10.4762237"><ele>946.8333333333334</ele><time>2026-04-18T12:39:46Z</time></trkpt><trkpt lat="44.1637202" lon="10.47627"><ele>944.0</ele><time>2026-04-18T12:41:58Z</time></trkpt><trkpt lat="44.1636186" lon="10.4763221"><ele>944.0000000000001</ele><time>2026-04-18T12:42:01Z</time></trkpt><trkpt lat="44.1635425" lon="10.4763661"><ele>944.0</ele><time>2026-04-18T12:42:03Z</time></trkpt><trkpt lat="44.163492" lon="10.4764511"><ele>944.0</ele><time>2026-04-18T12:42:05Z</time></trkpt><trkpt lat="44.1634731" lon="10.4765559"><ele>944.0</ele><time>2026-04-18T12:42:07Z</time></trkpt><trkpt lat="44.1634693" lon="10.4766619"><ele>944.0000000000001</ele><time>2026-04-18T12:42:09Z</time></trkpt><trkpt lat="44.1634666" lon="10.4767737"><ele>944.0</ele><time>2026-04-18T12:42:11Z</time></trkpt><trkpt lat="44.1634749" lon="10.4768781"><ele>944.0000000000001</ele><time>2026-04-18T12:42:13Z</time></trkpt><trkpt lat="44.1634852" lon="10.4769882"><ele>944.0</ele><time>2026-04-18T12:42:15Z</time></trkpt><trkpt lat="44.1634861" lon="10.4771121"><ele>944.0</ele><time>2026-04-18T12:42:17Z</time></trkpt><trkpt lat="44.1634757" lon="10.4772429"><ele>944.0</ele><time>2026-04-18T12:42:19Z</time></trkpt><trkpt lat="44.1634622" lon="10.4773687"><ele>944.0000000000001</ele><time>2026-04-18T12:42:21Z</time></trkpt><trkpt lat="44.1634424" lon="10.4774866"><ele>944.0</ele><time>2026-04-18T12:42:23Z</time></trkpt><trkpt lat="44.1634104" lon="10.4775931"><ele>948.3333333333334</ele><time>2026-04-18T12:42:25Z</time></trkpt><trkpt lat="44.1633802" lon="10.4776983"><ele>952.6666666666667</ele><time>2026-04-18T12:42:28Z</time></trkpt><trkpt lat="44.1633336" lon="10.4777983"><ele>957.0</ele><time>2026-04-18T12:42:31Z</time></trkpt><trkpt lat="44.1632918" lon="10.4778723"><ele>961.3333333333333</ele><time>2026-04-18T12:42:33Z</time></trkpt><trkpt lat="44.1632418" lon="10.4779456"><ele>965.6666666666666</ele><time>2026-04-18T12:42:35Z</time></trkpt><trkpt lat="44.1631943" lon="10.4780318"><ele>970.0</ele><time>2026-04-18T12:42:37Z</time></trkpt><trkpt lat="44.1631427" lon="10.4781024"><ele>968.9999999999999</ele><time>2026-04-18T12:42:39Z</time></trkpt><trkpt lat="44.163069" lon="10.478126"><ele>968.0</ele><time>2026-04-18T12:42:41Z</time></trkpt><trkpt lat="44.1630051" lon="10.4780815"><ele>967.0</ele><time>2026-04-18T12:42:43Z</time></trkpt><trkpt lat="44.1629565" lon="10.4780079"><ele>966.0</ele><time>2026-04-18T12:42:45Z</time></trkpt><trkpt lat="44.1628813" lon="10.477921"><ele>964.9999999999999</ele><time>2026-04-18T12:42:48Z</time></trkpt><trkpt lat="44.1628212" lon="10.4778645"><ele>964.0</ele><time>2026-04-18T12:42:51Z</time></trkpt><trkpt lat="44.1627528" lon="10.4778157"><ele>963.9999999999999</ele><time>2026-04-18T12:43:12Z</time></trkpt><trkpt lat="44.16267" lon="10.4777572"><ele>964.0</ele><time>2026-04-18T12:43:15Z</time></trkpt><trkpt lat="44.1626005" lon="10.4777085"><ele>964.0</ele><time>2026-04-18T12:43:17Z</time></trkpt><trkpt lat="44.162541" lon="10.4776792"><ele>964.0</ele><time>2026-04-18T12:43:18Z</time></trkpt><trkpt lat="44.162445" lon="10.4776271"><ele>963.9999999999999</ele><time>2026-04-18T12:43:20Z</time></trkpt><trkpt lat="44.1623429" lon="10.4776102"><ele>964.0</ele><time>2026-04-18T12:43:22Z</time></trkpt><trkpt lat="44.1622494" lon="10.4776146"><ele>963.4000000000001</ele><time>2026-04-18T12:43:24Z</time></trkpt><trkpt lat="44.1621513" lon="10.4776195"><ele>962.8000000000001</ele><time>2026-04-18T12:43:26Z</time></trkpt><trkpt lat="44.1620553" lon="10.4776553"><ele>962.1999999999999</ele><time>2026-04-18T12:43:28Z</time></trkpt><trkpt lat="44.1619892" lon="10.4777337"><ele>961.5999999999999</ele><time>2026-04-18T12:43:30Z</time></trkpt><trkpt lat="44.1619316" lon="10.4778362"><ele>961.0</ele><time>2026-04-18T12:43:32Z</time></trkpt><trkpt lat="44.161866" lon="10.4779263"><ele>965.0</ele><time>2026-04-18T12:43:34Z</time></trkpt><trkpt lat="44.1617875" lon="10.4780022"><ele>968.9999999999999</ele><time>2026-04-18T12:43:36Z</time></trkpt><trkpt lat="44.1617041" lon="10.478067"><ele>972.9999999999999</ele><time>2026-04-18T12:43:38Z</time></trkpt><trkpt lat="44.1616188" lon="10.4781175"><ele>977.0</ele><time>2026-04-18T12:43:40Z</time></trkpt><trkpt lat="44.1615174" lon="10.4781361"><ele>981.0</ele><time>2026-04-18T12:43:42Z</time></trkpt><trkpt lat="44.1614223" lon="10.478091"><ele>981.0</ele><time>2026-04-18T12:43:44Z</time></trkpt><trkpt lat="44.1613369" lon="10.4780079"><ele>980.9999999999999</ele><time>2026-04-18T12:43:46Z</time></trkpt><trkpt lat="44.1612502" lon="10.4779276"><ele>980.9999999999999</ele><time>2026-04-18T12:43:48Z</time></trkpt><trkpt lat="44.1611639" lon="10.4778824"><ele>981.0</ele><time>2026-04-18T12:43:50Z</time></trkpt><trkpt lat="44.1610648" lon="10.4778828"><ele>981.0</ele><time>2026-04-18T12:43:52Z</time></trkpt><trkpt lat="44.1609682" lon="10.4779122"><ele>981.0</ele><time>2026-04-18T12:43:54Z</time></trkpt><trkpt lat="44.1608619" lon="10.4779455"><ele>980.9999999999999</ele><time>2026-04-18T12:43:56Z</time></trkpt><trkpt lat="44.160767" lon="10.4779774"><ele>980.9999999999999</ele><time>2026-04-18T12:43:58Z</time></trkpt><trkpt lat="44.1606688" lon="10.4780118"><ele>981.0</ele><time>2026-04-18T12:44:00Z</time></trkpt><trkpt lat="44.1605768" lon="10.4780615"><ele>981.0</ele><time>2026-04-18T12:44:02Z</time></trkpt><trkpt lat="44.1605056" lon="10.4781309"><ele>983.0</ele><time>2026-04-18T12:44:04Z</time></trkpt><trkpt lat="44.1604529" lon="10.4782542"><ele>984.9999999999999</ele><time>2026-04-18T12:44:06Z</time></trkpt><trkpt lat="44.1604193" lon="10.4784065"><ele>986.9999999999999</ele><time>2026-04-18T12:44:08Z</time></trkpt><trkpt lat="44.1603832" lon="10.478549"><ele>989.0</ele><time>2026-04-18T12:44:10Z</time></trkpt><trkpt lat="44.1603319" lon="10.478704"><ele>991.0</ele><time>2026-04-18T12:44:12Z</time></trkpt><trkpt lat="44.1602974" lon="10.4787783"><ele>990.9999999999999</ele><time>2026-04-18T12:44:13Z</time></trkpt><trkpt lat="44.1602092" lon="10.4788767"><ele>991.0</ele><time>2026-04-18T12:44:15Z</time></trkpt><trkpt lat="44.1601266" lon="10.4788734"><ele>991.0</ele><time>2026-04-18T12:44:17Z</time></trkpt><trkpt lat="44.1600437" lon="10.4788623"><ele>991.0</ele><time>2026-04-18T12:44:19Z</time></trkpt><trkpt lat="44.1599939" lon="10.4787722"><ele>990.9999999999999</ele><time>2026-04-18T12:44:21Z</time></trkpt><trkpt lat="44.1599661" lon="10.4786553"><ele>991.0</ele><time>2026-04-18T12:44:23Z</time></trkpt><trkpt lat="44.1599487" lon="10.4785386"><ele>991.0</ele><time>2026-04-18T12:44:25Z</time></trkpt><trkpt lat="44.1599161" lon="10.4784175"><ele>990.9999999999999</ele><time>2026-04-18T12:44:27Z</time></trkpt><trkpt lat="44.1598883" lon="10.4782941"><ele>990.9999999999999</ele><time>2026-04-18T12:44:29Z</time></trkpt><trkpt lat="44.1598426" lon="10.4781847"><ele>991.0</ele><time>2026-04-18T12:44:31Z</time></trkpt><trkpt lat="44.1597676" lon="10.4780889"><ele>991.0</ele><time>2026-04-18T12:44:33Z</time></trkpt><trkpt lat="44.159694" lon="10.477989"><ele>996.3333333333333</ele><time>2026-04-18T12:44:35Z</time></trkpt><trkpt lat="44.1596388" lon="10.4778859"><ele>1001.6666666666666</ele><time>2026-04-18T12:44:37Z</time></trkpt><trkpt lat="44.1596112" lon="10.4777561"><ele>1007.0</ele><time>2026-04-18T12:44:39Z</time></trkpt><trkpt lat="44.1596446" lon="10.4776452"><ele>1012.3333333333333</ele><time>2026-04-18T12:44:41Z</time></trkpt><trkpt lat="44.1597027" lon="10.4775578"><ele>1017.6666666666666</ele><time>2026-04-18T12:44:43Z</time></trkpt><trkpt lat="44.1597358" lon="10.4774443"><ele>1023.0</ele><time>2026-04-18T12:44:45Z</time></trkpt><trkpt lat="44.1597425" lon="10.4773311"><ele>1023.0</ele><time>2026-04-18T12:44:47Z</time></trkpt><trkpt lat="44.1597187" lon="10.4772114"><ele>1023.0</ele><time>2026-04-18T12:44:49Z</time></trkpt><trkpt lat="44.159682" lon="10.4770945"><ele>1023.0</ele><time>2026-04-18T12:44:51Z</time></trkpt><trkpt lat="44.1596573" lon="10.477003"><ele>1023.0</ele><time>2026-04-18T12:44:53Z</time></trkpt><trkpt lat="44.1596483" lon="10.4768883"><ele>1023.0</ele><time>2026-04-18T12:45:07Z</time></trkpt><trkpt lat="44.1596259" lon="10.4767791"><ele>1023.0</ele><time>2026-04-18T12:45:09Z</time></trkpt><trkpt lat="44.1596079" lon="10.4766536"><ele>1022.8</ele><time>2026-04-18T12:45:11Z</time></trkpt><trkpt lat="44.1596155" lon="10.4765043"><ele>1022.5999999999999</ele><time>2026-04-18T12:45:13Z</time></trkpt><trkpt lat="44.1596184" lon="10.4763596"><ele>1022.4000000000001</ele><time>2026-04-18T12:45:15Z</time></trkpt><trkpt lat="44.1596082" lon="10.4762209"><ele>1022.2</ele><time>2026-04-18T12:45:17Z</time></trkpt><trkpt lat="44.1596208" lon="10.4760626"><ele>1022.0</ele><time>2026-04-18T12:45:19Z</time></trkpt><trkpt lat="44.1596386" lon="10.4759354"><ele>1022.0</ele><time>2026-04-18T12:45:21Z</time></trkpt><trkpt lat="44.1596321" lon="10.475801"><ele>1022.0</ele><time>2026-04-18T12:45:23Z</time></trkpt><trkpt lat="44.1595798" lon="10.4756499"><ele>1022.0</ele><time>2026-04-18T12:45:25Z</time></trkpt><trkpt lat="44.1595447" lon="10.4755062"><ele>1022.0</ele><time>2026-04-18T12:45:26.999Z</time></trkpt><trkpt lat="44.1595108" lon="10.4753444"><ele>1022.0</ele><time>2026-04-18T12:45:29Z</time></trkpt><trkpt lat="44.1595225" lon="10.4751818"><ele>1022.0</ele><time>2026-04-18T12:45:31Z</time></trkpt><trkpt lat="44.1594972" lon="10.475098"><ele>1022.0</ele><time>2026-04-18T12:45:32Z</time></trkpt><trkpt lat="44.1595027" lon="10.4749321"><ele>1022.0</ele><time>2026-04-18T12:45:34Z</time></trkpt><trkpt lat="44.1595227" lon="10.4747809"><ele>1022.0</ele><time>2026-04-18T12:45:36Z</time></trkpt><trkpt lat="44.1595209" lon="10.4746614"><ele>1022.0</ele><time>2026-04-18T12:45:38Z</time></trkpt><trkpt lat="44.1595473" lon="10.4745493"><ele>1022.6</ele><time>2026-04-18T12:45:40Z</time></trkpt><trkpt lat="44.1595975" lon="10.4744505"><ele>1023.2</ele><time>2026-04-18T12:45:42Z</time></trkpt><trkpt lat="44.1596494" lon="10.4743511"><ele>1023.8</ele><time>2026-04-18T12:45:44Z</time></trkpt><trkpt lat="44.1596828" lon="10.474243"><ele>1024.4</ele><time>2026-04-18T12:45:46Z</time></trkpt><trkpt lat="44.1597143" lon="10.4741056"><ele>1025.0</ele><time>2026-04-18T12:45:48Z</time></trkpt><trkpt lat="44.1597161" lon="10.4739714"><ele>1025.0</ele><time>2026-04-18T12:45:50Z</time></trkpt><trkpt lat="44.1597111" lon="10.473827"><ele>1025.0</ele><time>2026-04-18T12:45:52Z</time></trkpt><trkpt lat="44.1597098" lon="10.4736618"><ele>1025.0</ele><time>2026-04-18T12:45:54Z</time></trkpt><trkpt lat="44.1597067" lon="10.4735062"><ele>1025.0</ele><time>2026-04-18T12:45:56Z</time></trkpt><trkpt lat="44.1596953" lon="10.4733652"><ele>1025.0</ele><time>2026-04-18T12:45:58Z</time></trkpt><trkpt lat="44.1597143" lon="10.4731925"><ele>1023.8</ele><time>2026-04-18T12:46:00Z</time></trkpt><trkpt lat="44.1596957" lon="10.4731033"><ele>1022.6</ele><time>2026-04-18T12:46:01Z</time></trkpt><trkpt lat="44.1596737" lon="10.4730125"><ele>1021.4000000000001</ele><time>2026-04-18T12:46:02Z</time></trkpt><trkpt lat="44.1596364" lon="10.4728497"><ele>1020.2</ele><time>2026-04-18T12:46:04Z</time></trkpt><trkpt lat="44.1595901" lon="10.4727026"><ele>1019.0</ele><time>2026-04-18T12:46:06Z</time></trkpt><trkpt lat="44.1595487" lon="10.4725658"><ele>1015.0000000000001</ele><time>2026-04-18T12:46:08Z</time></trkpt><trkpt lat="44.159519" lon="10.4724446"><ele>1011.0</ele><time>2026-04-18T12:46:10Z</time></trkpt><trkpt lat="44.1594843" lon="10.4723314"><ele>1007.0</ele><time>2026-04-18T12:46:12Z</time></trkpt><trkpt lat="44.1594374" lon="10.4722448"><ele>1003.0</ele><time>2026-04-18T12:46:14Z</time></trkpt><trkpt lat="44.1593982" lon="10.47216"><ele>999.0000000000001</ele><time>2026-04-18T12:46:16Z</time></trkpt><trkpt lat="44.1593448" lon="10.4721096"><ele>995.0</ele><time>2026-04-18T12:46:18Z</time></trkpt><trkpt lat="44.1592738" lon="10.4721187"><ele>995.0</ele><time>2026-04-18T12:46:20Z</time></trkpt><trkpt lat="44.159193" lon="10.4721685"><ele>995.0</ele><time>2026-04-18T12:46:22Z</time></trkpt><trkpt lat="44.159094" lon="10.4722155"><ele>995.0</ele><time>2026-04-18T12:46:24Z</time></trkpt><trkpt lat="44.1589952" lon="10.472257"><ele>995.0</ele><time>2026-04-18T12:46:26Z</time></trkpt><trkpt lat="44.1588814" lon="10.472308"><ele>995.0</ele><time>2026-04-18T12:46:28Z</time></trkpt><trkpt lat="44.1587745" lon="10.4724027"><ele>992.1666666666667</ele><time>2026-04-18T12:46:30Z</time></trkpt><trkpt lat="44.1587101" lon="10.4724507"><ele>989.3333333333334</ele><time>2026-04-18T12:46:31Z</time></trkpt><trkpt lat="44.1585891" lon="10.4724935"><ele>986.5</ele><time>2026-04-18T12:46:33Z</time></trkpt><trkpt lat="44.158527" lon="10.4724467"><ele>983.6666666666667</ele><time>2026-04-18T12:46:34Z</time></trkpt><trkpt lat="44.1584556" lon="10.4724131"><ele>980.8333333333334</ele><time>2026-04-18T12:46:35Z</time></trkpt><trkpt lat="44.1583846" lon="10.472433"><ele>978.0</ele><time>2026-04-18T12:46:36Z</time></trkpt><trkpt lat="44.1583151" lon="10.4724706"><ele>978.0</ele><time>2026-04-18T12:46:37Z</time></trkpt><trkpt lat="44.1582335" lon="10.472585"><ele>978.0</ele><time>2026-04-18T12:46:39Z</time></trkpt><trkpt lat="44.1581773" lon="10.472685"><ele>978.0</ele><time>2026-04-18T12:46:41Z</time></trkpt><trkpt lat="44.1581309" lon="10.4727742"><ele>978.0</ele><time>2026-04-18T12:46:43Z</time></trkpt><trkpt lat="44.1580847" lon="10.4728598"><ele>978.0</ele><time>2026-04-18T12:46:45Z</time></trkpt><trkpt lat="44.1580159" lon="10.4729424"><ele>984.0</ele><time>2026-04-18T12:46:48Z</time></trkpt><trkpt lat="44.1579529" lon="10.4729788"><ele>990.0</ele><time>2026-04-18T12:46:50Z</time></trkpt><trkpt lat="44.1578677" lon="10.4729952"><ele>996.0</ele><time>2026-04-18T12:46:52Z</time></trkpt><trkpt lat="44.1577911" lon="10.4730002"><ele>1002.0</ele><time>2026-04-18T12:46:54Z</time></trkpt><trkpt lat="44.1577097" lon="10.4729949"><ele>1008.0</ele><time>2026-04-18T12:46:56Z</time></trkpt><trkpt lat="44.1576135" lon="10.4730045"><ele>1014.0</ele><time>2026-04-18T12:46:58Z</time></trkpt><trkpt lat="44.1575331" lon="10.4730379"><ele>1014.0</ele><time>2026-04-18T12:47:00Z</time></trkpt><trkpt lat="44.1574644" lon="10.473076"><ele>1014.0</ele><time>2026-04-18T12:47:02Z</time></trkpt><trkpt lat="44.1573984" lon="10.4731027"><ele>1014.0</ele><time>2026-04-18T12:47:04Z</time></trkpt><trkpt lat="44.1573176" lon="10.4730929"><ele>1014.0</ele><time>2026-04-18T12:47:06Z</time></trkpt><trkpt lat="44.1572521" lon="10.473027"><ele>1014.0</ele><time>2026-04-18T12:47:08Z</time></trkpt><trkpt lat="44.1572006" lon="10.472945"><ele>1014.0</ele><time>2026-04-18T12:47:10Z</time></trkpt><trkpt lat="44.157158" lon="10.4728406"><ele>1015.3333333333334</ele><time>2026-04-18T12:47:12Z</time></trkpt><trkpt lat="44.157139" lon="10.4727304"><ele>1016.6666666666667</ele><time>2026-04-18T12:47:14Z</time></trkpt><trkpt lat="44.1571261" lon="10.4726217"><ele>1018.0</ele><time>2026-04-18T12:47:16Z</time></trkpt><trkpt lat="44.1571208" lon="10.4725186"><ele>1019.3333333333334</ele><time>2026-04-18T12:47:18Z</time></trkpt><trkpt lat="44.1571147" lon="10.47242"><ele>1020.6666666666667</ele><time>2026-04-18T12:47:20Z</time></trkpt><trkpt lat="44.1571012" lon="10.4723174"><ele>1022.0</ele><time>2026-04-18T12:47:22Z</time></trkpt><trkpt lat="44.1570795" lon="10.4722061"><ele>1017.4000000000001</ele><time>2026-04-18T12:47:24Z</time></trkpt><trkpt lat="44.1570329" lon="10.4721"><ele>1012.8000000000001</ele><time>2026-04-18T12:47:26Z</time></trkpt><trkpt lat="44.1569638" lon="10.4719897"><ele>1008.2</ele><time>2026-04-18T12:47:28Z</time></trkpt><trkpt lat="44.1568971" lon="10.4718986"><ele>1003.6</ele><time>2026-04-18T12:47:30Z</time></trkpt><trkpt lat="44.1568294" lon="10.4718039"><ele>999.0</ele><time>2026-04-18T12:47:32Z</time></trkpt><trkpt lat="44.1567672" lon="10.4716993"><ele>999.0</ele><time>2026-04-18T12:47:34Z</time></trkpt><trkpt lat="44.1567032" lon="10.4715983"><ele>999.0000000000001</ele><time>2026-04-18T12:47:36Z</time></trkpt><trkpt lat="44.1566644" lon="10.4715033"><ele>999.0000000000001</ele><time>2026-04-18T12:47:38Z</time></trkpt><trkpt lat="44.1566156" lon="10.4713963"><ele>999.0</ele><time>2026-04-18T12:47:40Z</time></trkpt><trkpt lat="44.1565584" lon="10.4712704"><ele>999.0</ele><time>2026-04-18T12:47:42Z</time></trkpt><trkpt lat="44.1564915" lon="10.4711764"><ele>1003.3333333333334</ele><time>2026-04-18T12:47:44Z</time></trkpt><trkpt lat="44.1564343" lon="10.4710854"><ele>1007.6666666666667</ele><time>2026-04-18T12:47:46Z</time></trkpt><trkpt lat="44.1563816" lon="10.4709682"><ele>1012.0</ele><time>2026-04-18T12:47:48Z</time></trkpt><trkpt lat="44.1563476" lon="10.4708486"><ele>1016.3333333333334</ele><time>2026-04-18T12:47:50Z</time></trkpt><trkpt lat="44.1563292" lon="10.4707383"><ele>1020.6666666666667</ele><time>2026-04-18T12:47:52Z</time></trkpt><trkpt lat="44.1563207" lon="10.470643"><ele>1025.0</ele><time>2026-04-18T12:47:54Z</time></trkpt><trkpt lat="44.1563123" lon="10.4705337"><ele>1019.8333333333334</ele><time>2026-04-18T12:47:56Z</time></trkpt><trkpt lat="44.1563008" lon="10.4704282"><ele>1014.6666666666667</ele><time>2026-04-18T12:47:58Z</time></trkpt><trkpt lat="44.156277" lon="10.4703384"><ele>1009.5</ele><time>2026-04-18T12:48:00Z</time></trkpt><trkpt lat="44.156233" lon="10.4702501"><ele>1004.3333333333333</ele><time>2026-04-18T12:48:02Z</time></trkpt><trkpt lat="44.1561357" lon="10.4701865"><ele>999.1666666666666</ele><time>2026-04-18T12:48:04Z</time></trkpt><trkpt lat="44.1560502" lon="10.4701072"><ele>994.0</ele><time>2026-04-18T12:48:06Z</time></trkpt><trkpt lat="44.1559992" lon="10.4700552"><ele>994.0</ele><time>2026-04-18T12:48:07Z</time></trkpt><trkpt lat="44.1559147" lon="10.4699457"><ele>994.0000000000001</ele><time>2026-04-18T12:48:09Z</time></trkpt><trkpt lat="44.1558693" lon="10.4698807"><ele>994.0000000000001</ele><time>2026-04-18T12:48:10Z</time></trkpt><trkpt lat="44.1557773" lon="10.4697607"><ele>994.0</ele><time>2026-04-18T12:48:12Z</time></trkpt><trkpt lat="44.1556924" lon="10.4696501"><ele>994.0</ele><time>2026-04-18T12:48:14Z</time></trkpt><trkpt lat="44.1556182" lon="10.4695227"><ele>992.2</ele><time>2026-04-18T12:48:16Z</time></trkpt><trkpt lat="44.1555678" lon="10.4693921"><ele>990.4000000000001</ele><time>2026-04-18T12:48:18Z</time></trkpt><trkpt lat="44.1555439" lon="10.4692234"><ele>988.6</ele><time>2026-04-18T12:48:19.999Z</time></trkpt><trkpt lat="44.1555351" lon="10.4691354"><ele>986.8</ele><time>2026-04-18T12:48:21Z</time></trkpt><trkpt lat="44.1554583" lon="10.4689842"><ele>985.0</ele><time>2026-04-18T12:48:23Z</time></trkpt><trkpt lat="44.155332" lon="10.4688876"><ele>984.9999999999999</ele><time>2026-04-18T12:48:25Z</time></trkpt><trkpt lat="44.1552517" lon="10.4688264"><ele>985.0</ele><time>2026-04-18T12:48:26Z</time></trkpt><trkpt lat="44.1551658" lon="10.4687812"><ele>985.0</ele><time>2026-04-18T12:48:27Z</time></trkpt><trkpt lat="44.1550695" lon="10.4687332"><ele>985.0</ele><time>2026-04-18T12:48:28Z</time></trkpt><trkpt lat="44.1549893" lon="10.4687196"><ele>984.9999999999999</ele><time>2026-04-18T12:48:29Z</time></trkpt><trkpt lat="44.154917" lon="10.4687349"><ele>985.0</ele><time>2026-04-18T12:48:30Z</time></trkpt><trkpt lat="44.154851" lon="10.468768"><ele>979.1666666666666</ele><time>2026-04-18T12:48:31Z</time></trkpt><trkpt lat="44.1547831" lon="10.4688105"><ele>973.3333333333333</ele><time>2026-04-18T12:48:32Z</time></trkpt><trkpt lat="44.1547083" lon="10.4688713"><ele>967.5</ele><time>2026-04-18T12:48:33Z</time></trkpt><trkpt lat="44.1546282" lon="10.4689218"><ele>961.6666666666667</ele><time>2026-04-18T12:48:34Z</time></trkpt><trkpt lat="44.1545113" lon="10.4690125"><ele>955.8333333333334</ele><time>2026-04-18T12:48:36Z</time></trkpt><trkpt lat="44.1544919" lon="10.4690979"><ele>950.0</ele><time>2026-04-18T12:48:37Z</time></trkpt><trkpt lat="44.15449" lon="10.469274"><ele>950.0000000000001</ele><time>2026-04-18T12:48:39Z</time></trkpt><trkpt lat="44.154489" lon="10.4693728"><ele>950.0</ele><time>2026-04-18T12:48:40Z</time></trkpt><trkpt lat="44.1544757" lon="10.4694786"><ele>950.0</ele><time>2026-04-18T12:48:41Z</time></trkpt><trkpt lat="44.1544475" lon="10.4695835"><ele>950.0</ele><time>2026-04-18T12:48:42Z</time></trkpt><trkpt lat="44.1544048" lon="10.4696829"><ele>950.0000000000001</ele><time>2026-04-18T12:48:43Z</time></trkpt><trkpt lat="44.154352" lon="10.4697829"><ele>950.0</ele><time>2026-04-18T12:48:44Z</time></trkpt><trkpt lat="44.1542942" lon="10.4698861"><ele>947.8</ele><time>2026-04-18T12:48:45Z</time></trkpt><trkpt lat="44.1542307" lon="10.4700012"><ele>945.6</ele><time>2026-04-18T12:48:46Z</time></trkpt><trkpt lat="44.1541602" lon="10.4701165"><ele>943.4000000000001</ele><time>2026-04-18T12:48:47Z</time></trkpt><trkpt lat="44.1540837" lon="10.4702278"><ele>941.2</ele><time>2026-04-18T12:48:48Z</time></trkpt><trkpt lat="44.1540075" lon="10.4703199"><ele>939.0</ele><time>2026-04-18T12:48:49Z</time></trkpt><trkpt lat="44.1539339" lon="10.4703814"><ele>939.0</ele><time>2026-04-18T12:48:50Z</time></trkpt><trkpt lat="44.1538671" lon="10.470419"><ele>939.0000000000001</ele><time>2026-04-18T12:48:51Z</time></trkpt><trkpt lat="44.1538002" lon="10.470435"><ele>939.0000000000001</ele><time>2026-04-18T12:48:52Z</time></trkpt><trkpt lat="44.1536919" lon="10.4703945"><ele>939.0</ele><time>2026-04-18T12:48:54Z</time></trkpt><trkpt lat="44.1536322" lon="10.470338"><ele>939.0</ele><time>2026-04-18T12:48:55Z</time></trkpt><trkpt lat="44.153489" lon="10.4703302"><ele>939.0</ele><time>2026-04-18T12:48:57Z</time></trkpt><trkpt lat="44.1534127" lon="10.4703358"><ele>939.0</ele><time>2026-04-18T12:48:58Z</time></trkpt><trkpt lat="44.1533325" lon="10.4703553"><ele>939.0</ele><time>2026-04-18T12:48:59Z</time></trkpt><trkpt lat="44.1532443" lon="10.4703669"><ele>939.0</ele><time>2026-04-18T12:49:00Z</time></trkpt><trkpt lat="44.1531616" lon="10.4703887"><ele>939.0</ele><time>2026-04-18T12:49:01Z</time></trkpt><trkpt lat="44.1530569" lon="10.4703729"><ele>939.0</ele><time>2026-04-18T12:49:02Z</time></trkpt><trkpt lat="44.1529667" lon="10.4703412"><ele>941.0</ele><time>2026-04-18T12:49:03Z</time></trkpt><trkpt lat="44.1528699" lon="10.4702745"><ele>943.0000000000001</ele><time>2026-04-18T12:49:04Z</time></trkpt><trkpt lat="44.1527791" lon="10.4701988"><ele>945.0000000000001</ele><time>2026-04-18T12:49:05Z</time></trkpt><trkpt lat="44.1526894" lon="10.4701264"><ele>947.0</ele><time>2026-04-18T12:49:06Z</time></trkpt><trkpt lat="44.152587" lon="10.4700646"><ele>949.0</ele><time>2026-04-18T12:49:07Z</time></trkpt><trkpt lat="44.152492" lon="10.4700017"><ele>949.0000000000001</ele><time>2026-04-18T12:49:08Z</time></trkpt><trkpt lat="44.152412" lon="10.4699467"><ele>949.0</ele><time>2026-04-18T12:49:09Z</time></trkpt><trkpt lat="44.1523472" lon="10.4698891"><ele>949.0000000000001</ele><time>2026-04-18T12:49:10Z</time></trkpt><trkpt lat="44.1522972" lon="10.4698164"><ele>949.0000000000001</ele><time>2026-04-18T12:49:11Z</time></trkpt><trkpt lat="44.1522576" lon="10.4697201"><ele>949.0</ele><time>2026-04-18T12:49:12Z</time></trkpt><trkpt lat="44.1522284" lon="10.4696365"><ele>949.0000000000001</ele><time>2026-04-18T12:49:13Z</time></trkpt><trkpt lat="44.1522028" lon="10.4695558"><ele>949.0000000000001</ele><time>2026-04-18T12:49:14Z</time></trkpt><trkpt lat="44.1521026" lon="10.4694736"><ele>947.1666666666666</ele><time>2026-04-18T12:49:16Z</time></trkpt><trkpt lat="44.1520137" lon="10.4694648"><ele>945.3333333333333</ele><time>2026-04-18T12:49:17Z</time></trkpt><trkpt lat="44.1519353" lon="10.4694262"><ele>943.5</ele><time>2026-04-18T12:49:18Z</time></trkpt><trkpt lat="44.1518541" lon="10.4693905"><ele>941.6666666666667</ele><time>2026-04-18T12:49:19Z</time></trkpt><trkpt lat="44.1517835" lon="10.469357"><ele>939.8333333333334</ele><time>2026-04-18T12:49:20Z</time></trkpt><trkpt lat="44.1517163" lon="10.4693136"><ele>938.0</ele><time>2026-04-18T12:49:21Z</time></trkpt><trkpt lat="44.151676" lon="10.4692115"><ele>938.0</ele><time>2026-04-18T12:49:22Z</time></trkpt><trkpt lat="44.1516325" lon="10.4690913"><ele>938.0</ele><time>2026-04-18T12:49:23Z</time></trkpt><trkpt lat="44.151596" lon="10.4689677"><ele>938.0</ele><time>2026-04-18T12:49:24Z</time></trkpt><trkpt lat="44.1515627" lon="10.4688238"><ele>938.0</ele><time>2026-04-18T12:49:25Z</time></trkpt><trkpt lat="44.151542" lon="10.4686709"><ele>938.0</ele><time>2026-04-18T12:49:26Z</time></trkpt><trkpt lat="44.1515184" lon="10.4685388"><ele>939.5000000000001</ele><time>2026-04-18T12:49:27Z</time></trkpt><trkpt lat="44.1515028" lon="10.468419"><ele>941.0</ele><time>2026-04-18T12:49:28Z</time></trkpt><trkpt lat="44.1514745" lon="10.4683156"><ele>942.5</ele><time>2026-04-18T12:49:29Z</time></trkpt><trkpt lat="44.1514325" lon="10.4682219"><ele>944.0</ele><time>2026-04-18T12:49:30Z</time></trkpt><trkpt lat="44.1513713" lon="10.4681391"><ele>945.5000000000001</ele><time>2026-04-18T12:49:31Z</time></trkpt><trkpt lat="44.1512997" lon="10.4680564"><ele>947.0</ele><time>2026-04-18T12:49:32Z</time></trkpt><trkpt lat="44.151219" lon="10.4679758"><ele>940.8</ele><time>2026-04-18T12:49:33Z</time></trkpt><trkpt lat="44.151127" lon="10.4678898"><ele>934.6</ele><time>2026-04-18T12:49:34Z</time></trkpt><trkpt lat="44.1510376" lon="10.4678049"><ele>928.3999999999999</ele><time>2026-04-18T12:49:35Z</time></trkpt><trkpt lat="44.1509544" lon="10.467718"><ele>922.1999999999999</ele><time>2026-04-18T12:49:36Z</time></trkpt><trkpt lat="44.1508754" lon="10.467634"><ele>916.0</ele><time>2026-04-18T12:49:37Z</time></trkpt><trkpt lat="44.1508249" lon="10.4675417"><ele>916.0</ele><time>2026-04-18T12:49:38Z</time></trkpt><trkpt lat="44.1507751" lon="10.4674387"><ele>915.9999999999999</ele><time>2026-04-18T12:49:39Z</time></trkpt><trkpt lat="44.1507355" lon="10.4673197"><ele>915.9999999999999</ele><time>2026-04-18T12:49:40Z</time></trkpt><trkpt lat="44.1506948" lon="10.4671906"><ele>916.0</ele><time>2026-04-18T12:49:41Z</time></trkpt><trkpt lat="44.1506678" lon="10.4670465"><ele>916.0</ele><time>2026-04-18T12:49:42Z</time></trkpt><trkpt lat="44.1506694" lon="10.4669044"><ele>911.6666666666666</ele><time>2026-04-18T12:49:43Z</time></trkpt><trkpt lat="44.150656" lon="10.4667691"><ele>907.3333333333333</ele><time>2026-04-18T12:49:44Z</time></trkpt><trkpt lat="44.1506514" lon="10.4666444"><ele>903.0</ele><time>2026-04-18T12:49:45Z</time></trkpt><trkpt lat="44.1506373" lon="10.466525"><ele>898.6666666666667</ele><time>2026-04-18T12:49:46Z</time></trkpt><trkpt lat="44.1505972" lon="10.4664339"><ele>894.3333333333334</ele><time>2026-04-18T12:49:47Z</time></trkpt><trkpt lat="44.1505617" lon="10.4663569"><ele>890.0</ele><time>2026-04-18T12:49:48Z</time></trkpt><trkpt lat="44.1505047" lon="10.4662956"><ele>888.3333333333334</ele><time>2026-04-18T12:49:49Z</time></trkpt><trkpt lat="44.1504308" lon="10.4662487"><ele>886.6666666666667</ele><time>2026-04-18T12:49:50Z</time></trkpt><trkpt lat="44.1503516" lon="10.4662283"><ele>885.0</ele><time>2026-04-18T12:49:51Z</time></trkpt><trkpt lat="44.150259" lon="10.4662182"><ele>883.3333333333333</ele><time>2026-04-18T12:49:52Z</time></trkpt><trkpt lat="44.1501695" lon="10.4662082"><ele>881.6666666666666</ele><time>2026-04-18T12:49:53Z</time></trkpt><trkpt lat="44.150085" lon="10.466192"><ele>880.0</ele><time>2026-04-18T12:49:54Z</time></trkpt><trkpt lat="44.1500051" lon="10.4661718"><ele>879.9999999999999</ele><time>2026-04-18T12:49:55Z</time></trkpt><trkpt lat="44.1498925" lon="10.4661187"><ele>880.0</ele><time>2026-04-18T12:49:57Z</time></trkpt><trkpt lat="44.1498397" lon="10.4660697"><ele>880.0</ele><time>2026-04-18T12:49:58Z</time></trkpt><trkpt lat="44.1497964" lon="10.4659997"><ele>880.0</ele><time>2026-04-18T12:49:59Z</time></trkpt><trkpt lat="44.1497606" lon="10.4659164"><ele>879.9999999999999</ele><time>2026-04-18T12:50:00Z</time></trkpt><trkpt lat="44.1497208" lon="10.4658257"><ele>880.0</ele><time>2026-04-18T12:50:01Z</time></trkpt><trkpt lat="44.1496853" lon="10.4657408"><ele>880.4999999999999</ele><time>2026-04-18T12:50:02Z</time></trkpt><trkpt lat="44.1496525" lon="10.465652"><ele>881.0</ele><time>2026-04-18T12:50:03Z</time></trkpt><trkpt lat="44.1496392" lon="10.4655459"><ele>881.5</ele><time>2026-04-18T12:50:04Z</time></trkpt><trkpt lat="44.1496341" lon="10.4654445"><ele>882.0</ele><time>2026-04-18T12:50:05Z</time></trkpt><trkpt lat="44.1496412" lon="10.4653406"><ele>882.4999999999999</ele><time>2026-04-18T12:50:06Z</time></trkpt><trkpt lat="44.1496445" lon="10.465236"><ele>883.0</ele><time>2026-04-18T12:50:07Z</time></trkpt><trkpt lat="44.149651" lon="10.46512"><ele>882.9999999999999</ele><time>2026-04-18T12:50:08Z</time></trkpt><trkpt lat="44.1496522" lon="10.465015"><ele>883.0</ele><time>2026-04-18T12:50:09Z</time></trkpt><trkpt lat="44.1496576" lon="10.4649108"><ele>883.0</ele><time>2026-04-18T12:50:10Z</time></trkpt><trkpt lat="44.1496515" lon="10.4648042"><ele>883.0</ele><time>2026-04-18T12:50:11Z</time></trkpt><trkpt lat="44.149649" lon="10.4646966"><ele>882.9999999999999</ele><time>2026-04-18T12:50:12Z</time></trkpt><trkpt lat="44.1496419" lon="10.4645817"><ele>883.0</ele><time>2026-04-18T12:50:13Z</time></trkpt><trkpt lat="44.1496325" lon="10.4644673"><ele>882.8333333333333</ele><time>2026-04-18T12:50:14Z</time></trkpt><trkpt lat="44.1496031" lon="10.4643649"><ele>882.6666666666666</ele><time>2026-04-18T12:50:15Z</time></trkpt><trkpt lat="44.1495384" lon="10.4642728"><ele>882.5</ele><time>2026-04-18T12:50:15.999Z</time></trkpt><trkpt lat="44.1494761" lon="10.4642056"><ele>882.3333333333333</ele><time>2026-04-18T12:50:17Z</time></trkpt><trkpt lat="44.1494062" lon="10.4641365"><ele>882.1666666666666</ele><time>2026-04-18T12:50:18Z</time></trkpt><trkpt lat="44.1493346" lon="10.464059"><ele>882.0</ele><time>2026-04-18T12:50:19Z</time></trkpt><trkpt lat="44.1492635" lon="10.463985"><ele>882.0</ele><time>2026-04-18T12:50:20Z</time></trkpt><trkpt lat="44.1491959" lon="10.4639132"><ele>882.0</ele><time>2026-04-18T12:50:21Z</time></trkpt><trkpt lat="44.1491311" lon="10.4638331"><ele>882.0</ele><time>2026-04-18T12:50:22Z</time></trkpt><trkpt lat="44.1490733" lon="10.4637386"><ele>882.0</ele><time>2026-04-18T12:50:23Z</time></trkpt><trkpt lat="44.1490265" lon="10.4636273"><ele>882.0</ele><time>2026-04-18T12:50:24Z</time></trkpt><trkpt lat="44.1489938" lon="10.4635122"><ele>882.0</ele><time>2026-04-18T12:50:25Z</time></trkpt><trkpt lat="44.1489563" lon="10.4634111"><ele>884.6</ele><time>2026-04-18T12:50:26Z</time></trkpt><trkpt lat="44.1489118" lon="10.4632864"><ele>887.2</ele><time>2026-04-18T12:50:27Z</time></trkpt><trkpt lat="44.1488661" lon="10.4631747"><ele>889.8</ele><time>2026-04-18T12:50:28Z</time></trkpt><trkpt lat="44.1488127" lon="10.463055"><ele>892.4</ele><time>2026-04-18T12:50:29Z</time></trkpt><trkpt lat="44.1487919" lon="10.4629274"><ele>895.0</ele><time>2026-04-18T12:50:30Z</time></trkpt><trkpt lat="44.1487877" lon="10.4627924"><ele>895.0</ele><time>2026-04-18T12:50:31Z</time></trkpt><trkpt lat="44.148776" lon="10.4626698"><ele>895.0</ele><time>2026-04-18T12:50:32Z</time></trkpt><trkpt lat="44.1487599" lon="10.4625324"><ele>895.0</ele><time>2026-04-18T12:50:33Z</time></trkpt><trkpt lat="44.1487221" lon="10.4624122"><ele>895.0</ele><time>2026-04-18T12:50:34Z</time></trkpt><trkpt lat="44.1486933" lon="10.4622857"><ele>895.0</ele><time>2026-04-18T12:50:35Z</time></trkpt><trkpt lat="44.1486604" lon="10.4621637"><ele>890.8</ele><time>2026-04-18T12:50:36Z</time></trkpt><trkpt lat="44.1486247" lon="10.4620302"><ele>886.6</ele><time>2026-04-18T12:50:37Z</time></trkpt><trkpt lat="44.1485855" lon="10.4619046"><ele>882.4000000000001</ele><time>2026-04-18T12:50:38Z</time></trkpt><trkpt lat="44.1485361" lon="10.4617812"><ele>878.2</ele><time>2026-04-18T12:50:39Z</time></trkpt><trkpt lat="44.1484961" lon="10.4616566"><ele>874.0</ele><time>2026-04-18T12:50:40Z</time></trkpt><trkpt lat="44.1484512" lon="10.4615468"><ele>873.9999999999999</ele><time>2026-04-18T12:50:41Z</time></trkpt><trkpt lat="44.1484128" lon="10.4614476"><ele>874.0</ele><time>2026-04-18T12:50:42Z</time></trkpt><trkpt lat="44.1483628" lon="10.4613686"><ele>874.0</ele><time>2026-04-18T12:50:43Z</time></trkpt><trkpt lat="44.1482876" lon="10.4613278"><ele>874.0</ele><time>2026-04-18T12:50:44Z</time></trkpt><trkpt lat="44.1482077" lon="10.4612918"><ele>873.9999999999999</ele><time>2026-04-18T12:50:45Z</time></trkpt><trkpt lat="44.148131" lon="10.4612511"><ele>874.0</ele><time>2026-04-18T12:50:46Z</time></trkpt><trkpt lat="44.1480464" lon="10.4611948"><ele>872.8000000000001</ele><time>2026-04-18T12:50:47Z</time></trkpt><trkpt lat="44.1479494" lon="10.4611466"><ele>871.6000000000001</ele><time>2026-04-18T12:50:48Z</time></trkpt><trkpt lat="44.1478649" lon="10.4610767"><ele>870.4</ele><time>2026-04-18T12:50:49Z</time></trkpt><trkpt lat="44.1477591" lon="10.4610143"><ele>869.2</ele><time>2026-04-18T12:50:50Z</time></trkpt><trkpt lat="44.1476675" lon="10.4609694"><ele>868.0</ele><time>2026-04-18T12:50:51Z</time></trkpt><trkpt lat="44.1475795" lon="10.4609132"><ele>868.0</ele><time>2026-04-18T12:50:52Z</time></trkpt><trkpt lat="44.1474932" lon="10.4608475"><ele>868.0</ele><time>2026-04-18T12:50:53Z</time></trkpt><trkpt lat="44.1474316" lon="10.4607665"><ele>868.0</ele><time>2026-04-18T12:50:54Z</time></trkpt><trkpt lat="44.1473607" lon="10.4606572"><ele>868.0</ele><time>2026-04-18T12:50:55Z</time></trkpt><trkpt lat="44.1473116" lon="10.460535"><ele>868.0</ele><time>2026-04-18T12:50:56Z</time></trkpt><trkpt lat="44.1472612" lon="10.4604018"><ele>868.8</ele><time>2026-04-18T12:50:57Z</time></trkpt><trkpt lat="44.1472039" lon="10.4602731"><ele>869.5999999999999</ele><time>2026-04-18T12:50:58Z</time></trkpt><trkpt lat="44.1471116" lon="10.4601496"><ele>870.4000000000001</ele><time>2026-04-18T12:50:59Z</time></trkpt><trkpt lat="44.147033" lon="10.4600522"><ele>871.2</ele><time>2026-04-18T12:51:00Z</time></trkpt><trkpt lat="44.1469605" lon="10.459945"><ele>872.0</ele><time>2026-04-18T12:51:01Z</time></trkpt><trkpt lat="44.1468791" lon="10.4598379"><ele>872.0</ele><time>2026-04-18T12:51:02Z</time></trkpt><trkpt lat="44.1468049" lon="10.459727"><ele>872.0</ele><time>2026-04-18T12:51:03Z</time></trkpt><trkpt lat="44.1467177" lon="10.459623"><ele>872.0</ele><time>2026-04-18T12:51:04Z</time></trkpt><trkpt lat="44.1466367" lon="10.4595129"><ele>872.0</ele><time>2026-04-18T12:51:05Z</time></trkpt><trkpt lat="44.1465554" lon="10.4593993"><ele>874.2</ele><time>2026-04-18T12:51:06Z</time></trkpt><trkpt lat="44.1464808" lon="10.4592849"><ele>876.4000000000001</ele><time>2026-04-18T12:51:07Z</time></trkpt><trkpt lat="44.1463965" lon="10.4591821"><ele>878.5999999999999</ele><time>2026-04-18T12:51:08Z</time></trkpt><trkpt lat="44.1463072" lon="10.4590842"><ele>880.8</ele><time>2026-04-18T12:51:09Z</time></trkpt><trkpt lat="44.1462286" lon="10.4589771"><ele>883.0</ele><time>2026-04-18T12:51:10Z</time></trkpt><trkpt lat="44.146159" lon="10.4588552"><ele>877.75</ele><time>2026-04-18T12:51:11Z</time></trkpt><trkpt lat="44.1461123" lon="10.4587056"><ele>872.5</ele><time>2026-04-18T12:51:12Z</time></trkpt><trkpt lat="44.1460744" lon="10.4585545"><ele>867.25</ele><time>2026-04-18T12:51:13Z</time></trkpt><trkpt lat="44.1460492" lon="10.4584036"><ele>862.0</ele><time>2026-04-18T12:51:14Z</time></trkpt><trkpt lat="44.1460258" lon="10.458237"><ele>862.0</ele><time>2026-04-18T12:51:15Z</time></trkpt><trkpt lat="44.1460324" lon="10.4580814"><ele>862.0</ele><time>2026-04-18T12:51:16Z</time></trkpt><trkpt lat="44.1460245" lon="10.4579214"><ele>862.0</ele><time>2026-04-18T12:51:17Z</time></trkpt><trkpt lat="44.1460141" lon="10.4577668"><ele>862.0</ele><time>2026-04-18T12:51:18Z</time></trkpt><trkpt lat="44.1459681" lon="10.4576245"><ele>859.0</ele><time>2026-04-18T12:51:19Z</time></trkpt><trkpt lat="44.1459307" lon="10.4574885"><ele>856.0</ele><time>2026-04-18T12:51:20Z</time></trkpt><trkpt lat="44.1458865" lon="10.457351"><ele>853.0</ele><time>2026-04-18T12:51:21Z</time></trkpt><trkpt lat="44.1458511" lon="10.4572125"><ele>850.0</ele><time>2026-04-18T12:51:22Z</time></trkpt><trkpt lat="44.1458111" lon="10.4571015"><ele>847.0</ele><time>2026-04-18T12:51:23Z</time></trkpt><trkpt lat="44.1457577" lon="10.457001"><ele>850.3333333333333</ele><time>2026-04-18T12:51:24Z</time></trkpt><trkpt lat="44.1456938" lon="10.4569267"><ele>853.6666666666666</ele><time>2026-04-18T12:51:25Z</time></trkpt><trkpt lat="44.1456149" lon="10.4568757"><ele>857.0</ele><time>2026-04-18T12:51:26Z</time></trkpt><trkpt lat="44.1455451" lon="10.4568274"><ele>860.3333333333333</ele><time>2026-04-18T12:51:27Z</time></trkpt><trkpt lat="44.1454849" lon="10.4567742"><ele>863.6666666666666</ele><time>2026-04-18T12:51:28Z</time></trkpt><trkpt lat="44.1454507" lon="10.4566641"><ele>867.0</ele><time>2026-04-18T12:51:29Z</time></trkpt><trkpt lat="44.1454328" lon="10.4565641"><ele>867.0</ele><time>2026-04-18T12:51:30Z</time></trkpt><trkpt lat="44.1454072" lon="10.4564814"><ele>867.0</ele><time>2026-04-18T12:51:31Z</time></trkpt><trkpt lat="44.1453921" lon="10.4563852"><ele>867.0</ele><time>2026-04-18T12:51:32Z</time></trkpt><trkpt lat="44.1453746" lon="10.456292"><ele>867.0</ele><time>2026-04-18T12:51:33Z</time></trkpt><trkpt lat="44.1453391" lon="10.4561947"><ele>867.0</ele><time>2026-04-18T12:51:34Z</time></trkpt><trkpt lat="44.1453062" lon="10.4560327"><ele>867.0</ele><time>2026-04-18T12:51:36Z</time></trkpt><trkpt lat="44.1452836" lon="10.4559357"><ele>863.8333333333334</ele><time>2026-04-18T12:51:37Z</time></trkpt><trkpt lat="44.1452876" lon="10.4558432"><ele>860.6666666666667</ele><time>2026-04-18T12:51:38Z</time></trkpt><trkpt lat="44.1452936" lon="10.4557525"><ele>857.5</ele><time>2026-04-18T12:51:39Z</time></trkpt><trkpt lat="44.1453389" lon="10.4556531"><ele>854.3333333333334</ele><time>2026-04-18T12:51:40Z</time></trkpt><trkpt lat="44.145335" lon="10.4554908"><ele>851.1666666666667</ele><time>2026-04-18T12:51:42Z</time></trkpt><trkpt lat="44.145269" lon="10.4554722"><ele>848.0</ele><time>2026-04-18T12:51:43Z</time></trkpt><trkpt lat="44.1451537" lon="10.455478"><ele>848.0000000000001</ele><time>2026-04-18T12:51:45Z</time></trkpt><trkpt lat="44.1450917" lon="10.4554952"><ele>848.0</ele><time>2026-04-18T12:51:46Z</time></trkpt><trkpt lat="44.1450297" lon="10.4555215"><ele>848.0</ele><time>2026-04-18T12:51:47Z</time></trkpt><trkpt lat="44.1449136" lon="10.4555709"><ele>848.0</ele><time>2026-04-18T12:51:49Z</time></trkpt><trkpt lat="44.1448489" lon="10.4555865"><ele>848.0000000000001</ele><time>2026-04-18T12:51:50Z</time></trkpt><trkpt lat="44.1447827" lon="10.4556004"><ele>848.0</ele><time>2026-04-18T12:51:51Z</time></trkpt><trkpt lat="44.1447111" lon="10.4556154"><ele>846.0000000000001</ele><time>2026-04-18T12:51:52Z</time></trkpt><trkpt lat="44.1446339" lon="10.4555851"><ele>844.0</ele><time>2026-04-18T12:51:53Z</time></trkpt><trkpt lat="44.1445658" lon="10.4555462"><ele>842.0</ele><time>2026-04-18T12:51:54Z</time></trkpt><trkpt lat="44.1445017" lon="10.455471"><ele>840.0</ele><time>2026-04-18T12:51:55Z</time></trkpt><trkpt lat="44.1444683" lon="10.4553773"><ele>838.0000000000001</ele><time>2026-04-18T12:51:56Z</time></trkpt><trkpt lat="44.1444312" lon="10.4552801"><ele>836.0</ele><time>2026-04-18T12:51:57Z</time></trkpt><trkpt lat="44.1443896" lon="10.4552073"><ele>836.0000000000001</ele><time>2026-04-18T12:51:58Z</time></trkpt><trkpt lat="44.1443407" lon="10.4551366"><ele>836.0</ele><time>2026-04-18T12:51:59Z</time></trkpt><trkpt lat="44.1442553" lon="10.455066"><ele>836.0</ele><time>2026-04-18T12:52:00Z</time></trkpt><trkpt lat="44.1441939" lon="10.4550055"><ele>836.0</ele><time>2026-04-18T12:52:01Z</time></trkpt><trkpt lat="44.1441266" lon="10.4549273"><ele>836.0000000000001</ele><time>2026-04-18T12:52:02Z</time></trkpt><trkpt lat="44.1440732" lon="10.4548467"><ele>836.0</ele><time>2026-04-18T12:52:03Z</time></trkpt><trkpt lat="44.1440132" lon="10.4547815"><ele>835.8571428571429</ele><time>2026-04-18T12:52:04Z</time></trkpt><trkpt lat="44.1439666" lon="10.4546981"><ele>835.7142857142857</ele><time>2026-04-18T12:52:05Z</time></trkpt><trkpt lat="44.143921" lon="10.4546185"><ele>835.5714285714287</ele><time>2026-04-18T12:52:06Z</time></trkpt><trkpt lat="44.1438716" lon="10.4545428"><ele>835.4285714285714</ele><time>2026-04-18T12:52:07Z</time></trkpt><trkpt lat="44.1438277" lon="10.454469"><ele>835.2857142857143</ele><time>2026-04-18T12:52:08Z</time></trkpt><trkpt lat="44.1437838" lon="10.4544001"><ele>835.1428571428572</ele><time>2026-04-18T12:52:09Z</time></trkpt><trkpt lat="44.1437375" lon="10.4543268"><ele>835.0</ele><time>2026-04-18T12:52:10Z</time></trkpt><trkpt lat="44.1436844" lon="10.4542621"><ele>834.9999999999999</ele><time>2026-04-18T12:52:11Z</time></trkpt><trkpt lat="44.1436246" lon="10.4541981"><ele>835.0</ele><time>2026-04-18T12:52:12Z</time></trkpt><trkpt lat="44.1435699" lon="10.4541331"><ele>835.0</ele><time>2026-04-18T12:52:13Z</time></trkpt><trkpt lat="44.1435086" lon="10.4540705"><ele>835.0</ele><time>2026-04-18T12:52:14Z</time></trkpt><trkpt lat="44.1434386" lon="10.4540129"><ele>834.9999999999999</ele><time>2026-04-18T12:52:15Z</time></trkpt><trkpt lat="44.1433696" lon="10.4539575"><ele>835.0</ele><time>2026-04-18T12:52:16Z</time></trkpt><trkpt lat="44.1432943" lon="10.4539056"><ele>835.0</ele><time>2026-04-18T12:52:17Z</time></trkpt><trkpt lat="44.1432148" lon="10.4538473"><ele>835.0</ele><time>2026-04-18T12:52:18Z</time></trkpt><trkpt lat="44.1431358" lon="10.4537869"><ele>835.0</ele><time>2026-04-18T12:52:19Z</time></trkpt><trkpt lat="44.1430593" lon="10.4537147"><ele>835.0</ele><time>2026-04-18T12:52:20Z</time></trkpt><trkpt lat="44.1429856" lon="10.4536396"><ele>835.0</ele><time>2026-04-18T12:52:21Z</time></trkpt><trkpt lat="44.1429163" lon="10.4535499"><ele>836.2</ele><time>2026-04-18T12:52:22Z</time></trkpt><trkpt lat="44.1428525" lon="10.4534616"><ele>837.4</ele><time>2026-04-18T12:52:23Z</time></trkpt><trkpt lat="44.1427903" lon="10.4533619"><ele>838.5999999999999</ele><time>2026-04-18T12:52:24Z</time></trkpt><trkpt lat="44.1427375" lon="10.4532573"><ele>839.8</ele><time>2026-04-18T12:52:25Z</time></trkpt><trkpt lat="44.1426828" lon="10.4531514"><ele>841.0</ele><time>2026-04-18T12:52:26Z</time></trkpt><trkpt lat="44.142635" lon="10.4530475"><ele>838.4999999999999</ele><time>2026-04-18T12:52:27Z</time></trkpt><trkpt lat="44.1426004" lon="10.4529334"><ele>836.0</ele><time>2026-04-18T12:52:28Z</time></trkpt><trkpt lat="44.1425746" lon="10.4528172"><ele>833.5</ele><time>2026-04-18T12:52:28.999Z</time></trkpt><trkpt lat="44.1425669" lon="10.4527008"><ele>831.0</ele><time>2026-04-18T12:52:30Z</time></trkpt><trkpt lat="44.1425663" lon="10.4525918"><ele>828.4999999999999</ele><time>2026-04-18T12:52:31Z</time></trkpt><trkpt lat="44.1425622" lon="10.4524803"><ele>826.0</ele><time>2026-04-18T12:52:32Z</time></trkpt><trkpt lat="44.142549" lon="10.4523778"><ele>826.0</ele><time>2026-04-18T12:52:33Z</time></trkpt><trkpt lat="44.1425398" lon="10.452275"><ele>826.0</ele><time>2026-04-18T12:52:34Z</time></trkpt><trkpt lat="44.1425089" lon="10.4521693"><ele>826.0</ele><time>2026-04-18T12:52:35Z</time></trkpt><trkpt lat="44.1424887" lon="10.4520823"><ele>826.0</ele><time>2026-04-18T12:52:36Z</time></trkpt><trkpt lat="44.1424682" lon="10.4519819"><ele>826.0</ele><time>2026-04-18T12:52:37Z</time></trkpt><trkpt lat="44.1424347" lon="10.4518887"><ele>826.0</ele><time>2026-04-18T12:52:37.999Z</time></trkpt><trkpt lat="44.1423933" lon="10.4518054"><ele>826.0</ele><time>2026-04-18T12:52:39Z</time></trkpt><trkpt lat="44.1423437" lon="10.4517429"><ele>825.5714285714286</ele><time>2026-04-18T12:52:40Z</time></trkpt><trkpt lat="44.1422915" lon="10.4516763"><ele>825.1428571428571</ele><time>2026-04-18T12:52:41Z</time></trkpt><trkpt lat="44.142224" lon="10.4516378"><ele>824.7142857142858</ele><time>2026-04-18T12:52:42Z</time></trkpt><trkpt lat="44.1421488" lon="10.4515918"><ele>824.2857142857142</ele><time>2026-04-18T12:52:43Z</time></trkpt><trkpt lat="44.1420858" lon="10.451565"><ele>823.8571428571429</ele><time>2026-04-18T12:52:44Z</time></trkpt><trkpt lat="44.1420216" lon="10.4515444"><ele>823.4285714285714</ele><time>2026-04-18T12:52:45Z</time></trkpt><trkpt lat="44.141957" lon="10.4515252"><ele>823.0</ele><time>2026-04-18T12:52:46Z</time></trkpt><trkpt lat="44.1418314" lon="10.4515118"><ele>822.9999999999999</ele><time>2026-04-18T12:52:48Z</time></trkpt><trkpt lat="44.141704" lon="10.451504"><ele>823.0</ele><time>2026-04-18T12:52:50Z</time></trkpt><trkpt lat="44.1416347" lon="10.4515099"><ele>823.0</ele><time>2026-04-18T12:52:51Z</time></trkpt><trkpt lat="44.1415575" lon="10.4515214"><ele>823.0</ele><time>2026-04-18T12:52:52Z</time></trkpt><trkpt lat="44.1414774" lon="10.4515257"><ele>822.9999999999999</ele><time>2026-04-18T12:52:53Z</time></trkpt><trkpt lat="44.1413946" lon="10.4515403"><ele>823.0</ele><time>2026-04-18T12:52:54Z</time></trkpt><trkpt lat="44.141316" lon="10.4515416"><ele>823.0</ele><time>2026-04-18T12:52:54.999Z</time></trkpt><trkpt lat="44.1412384" lon="10.451551"><ele>823.0</ele><time>2026-04-18T12:52:56Z</time></trkpt><trkpt lat="44.1411444" lon="10.4515761"><ele>823.0</ele><time>2026-04-18T12:52:56.999Z</time></trkpt><trkpt lat="44.1410488" lon="10.4515931"><ele>823.0</ele><time>2026-04-18T12:52:58Z</time></trkpt><trkpt lat="44.1409532" lon="10.4516049"><ele>823.0</ele><time>2026-04-18T12:52:59Z</time></trkpt><trkpt lat="44.1408619" lon="10.4515676"><ele>823.0</ele><time>2026-04-18T12:53:00Z</time></trkpt><trkpt lat="44.1407596" lon="10.451528"><ele>823.0</ele><time>2026-04-18T12:53:01Z</time></trkpt><trkpt lat="44.140642" lon="10.4514396"><ele>823.0</ele><time>2026-04-18T12:53:02Z</time></trkpt><trkpt lat="44.1405285" lon="10.4514068"><ele>823.0</ele><time>2026-04-18T12:53:03Z</time></trkpt><trkpt lat="44.1404133" lon="10.451375"><ele>824.6666666666666</ele><time>2026-04-18T12:53:04Z</time></trkpt><trkpt lat="44.1403086" lon="10.4513503"><ele>826.3333333333333</ele><time>2026-04-18T12:53:05Z</time></trkpt><trkpt lat="44.1402078" lon="10.4513229"><ele>828.0</ele><time>2026-04-18T12:53:06Z</time></trkpt><trkpt lat="44.1401266" lon="10.4512796"><ele>829.6666666666667</ele><time>2026-04-18T12:53:07Z</time></trkpt><trkpt lat="44.1400674" lon="10.4512378"><ele>831.3333333333334</ele><time>2026-04-18T12:53:08Z</time></trkpt><trkpt lat="44.1400112" lon="10.4511749"><ele>833.0</ele><time>2026-04-18T12:53:09Z</time></trkpt><trkpt lat="44.1399653" lon="10.4510938"><ele>827.5000000000001</ele><time>2026-04-18T12:53:10Z</time></trkpt><trkpt lat="44.1399527" lon="10.45098"><ele>822.0</ele><time>2026-04-18T12:53:11Z</time></trkpt><trkpt lat="44.1399599" lon="10.4508679"><ele>816.5</ele><time>2026-04-18T12:53:12Z</time></trkpt><trkpt lat="44.1399672" lon="10.4507575"><ele>811.0</ele><time>2026-04-18T12:53:13Z</time></trkpt><trkpt lat="44.1399803" lon="10.4506475"><ele>805.5000000000001</ele><time>2026-04-18T12:53:14Z</time></trkpt><trkpt lat="44.1399697" lon="10.4505484"><ele>800.0</ele><time>2026-04-18T12:53:15Z</time></trkpt><trkpt lat="44.1399492" lon="10.4504612"><ele>799.5000000000001</ele><time>2026-04-18T12:53:16Z</time></trkpt><trkpt lat="44.1399075" lon="10.4503946"><ele>799.0</ele><time>2026-04-18T12:53:17Z</time></trkpt><trkpt lat="44.1398398" lon="10.4503406"><ele>798.5</ele><time>2026-04-18T12:53:18Z</time></trkpt><trkpt lat="44.1397573" lon="10.4503097"><ele>798.0</ele><time>2026-04-18T12:53:19Z</time></trkpt><trkpt lat="44.1396673" lon="10.4502911"><ele>797.5000000000001</ele><time>2026-04-18T12:53:20Z</time></trkpt><trkpt lat="44.1395713" lon="10.4502788"><ele>797.0</ele><time>2026-04-18T12:53:21Z</time></trkpt><trkpt lat="44.1394675" lon="10.4502491"><ele>797.0</ele><time>2026-04-18T12:53:22Z</time></trkpt><trkpt lat="44.1393681" lon="10.450209"><ele>797.0</ele><time>2026-04-18T12:53:23Z</time></trkpt><trkpt lat="44.1392691" lon="10.4501457"><ele>797.0</ele><time>2026-04-18T12:53:24Z</time></trkpt><trkpt lat="44.1391809" lon="10.4500749"><ele>797.0</ele><time>2026-04-18T12:53:25Z</time></trkpt><trkpt lat="44.1391119" lon="10.4499904"><ele>797.0</ele><time>2026-04-18T12:53:26Z</time></trkpt><trkpt lat="44.1390712" lon="10.4498891"><ele>797.0000000000001</ele><time>2026-04-18T12:53:27Z</time></trkpt><trkpt lat="44.1390723" lon="10.4497786"><ele>797.0</ele><time>2026-04-18T12:53:27.999Z</time></trkpt><trkpt lat="44.1390616" lon="10.4496671"><ele>797.0</ele><time>2026-04-18T12:53:29Z</time></trkpt><trkpt lat="44.139055" lon="10.449575"><ele>797.0</ele><time>2026-04-18T12:53:30Z</time></trkpt><trkpt lat="44.1390224" lon="10.4494476"><ele>797.0000000000001</ele><time>2026-04-18T12:53:31Z</time></trkpt><trkpt lat="44.1389919" lon="10.449323"><ele>797.0</ele><time>2026-04-18T12:53:32Z</time></trkpt><trkpt lat="44.1389604" lon="10.4492021"><ele>797.8</ele><time>2026-04-18T12:53:33Z</time></trkpt><trkpt lat="44.1389251" lon="10.4490738"><ele>798.6</ele><time>2026-04-18T12:53:34Z</time></trkpt><trkpt lat="44.1388817" lon="10.4489466"><ele>799.4</ele><time>2026-04-18T12:53:35Z</time></trkpt><trkpt lat="44.138822" lon="10.4488433"><ele>800.1999999999999</ele><time>2026-04-18T12:53:36Z</time></trkpt><trkpt lat="44.1387461" lon="10.4487376"><ele>801.0</ele><time>2026-04-18T12:53:37Z</time></trkpt><trkpt lat="44.1386643" lon="10.4486555"><ele>795.8</ele><time>2026-04-18T12:53:38Z</time></trkpt><trkpt lat="44.1385653" lon="10.4485873"><ele>790.5999999999999</ele><time>2026-04-18T12:53:38.999Z</time></trkpt><trkpt lat="44.1384651" lon="10.4485305"><ele>785.4</ele><time>2026-04-18T12:53:40Z</time></trkpt><trkpt lat="44.1383692" lon="10.448476"><ele>780.2</ele><time>2026-04-18T12:53:41Z</time></trkpt><trkpt lat="44.1382645" lon="10.448443"><ele>775.0</ele><time>2026-04-18T12:53:42Z</time></trkpt><trkpt lat="44.1381688" lon="10.4483861"><ele>775.0</ele><time>2026-04-18T12:53:43Z</time></trkpt><trkpt lat="44.1380661" lon="10.4483364"><ele>775.0</ele><time>2026-04-18T12:53:44Z</time></trkpt><trkpt lat="44.1379685" lon="10.4482805"><ele>775.0</ele><time>2026-04-18T12:53:45Z</time></trkpt><trkpt lat="44.1378738" lon="10.4482229"><ele>775.0</ele><time>2026-04-18T12:53:46Z</time></trkpt><trkpt lat="44.1377859" lon="10.4481892"><ele>775.0</ele><time>2026-04-18T12:53:47Z</time></trkpt><trkpt lat="44.1376886" lon="10.4481551"><ele>775.0</ele><time>2026-04-18T12:53:48Z</time></trkpt><trkpt lat="44.1375787" lon="10.4481677"><ele>775.0</ele><time>2026-04-18T12:53:48.999Z</time></trkpt><trkpt lat="44.1374893" lon="10.4481719"><ele>775.0</ele><time>2026-04-18T12:53:50Z</time></trkpt><trkpt lat="44.1373874" lon="10.4481863"><ele>775.0</ele><time>2026-04-18T12:53:51Z</time></trkpt><trkpt lat="44.1372901" lon="10.4481723"><ele>775.0</ele><time>2026-04-18T12:53:52Z</time></trkpt><trkpt lat="44.1371913" lon="10.4481628"><ele>774.6666666666666</ele><time>2026-04-18T12:53:53Z</time></trkpt><trkpt lat="44.1371156" lon="10.4481405"><ele>774.3333333333333</ele><time>2026-04-18T12:53:54Z</time></trkpt><trkpt lat="44.1370332" lon="10.4481424"><ele>774.0</ele><time>2026-04-18T12:53:55Z</time></trkpt><trkpt lat="44.1369495" lon="10.4481643"><ele>773.6666666666667</ele><time>2026-04-18T12:53:56Z</time></trkpt><trkpt lat="44.1368639" lon="10.4482054"><ele>773.3333333333334</ele><time>2026-04-18T12:53:57Z</time></trkpt><trkpt lat="44.1367721" lon="10.448236"><ele>773.0</ele><time>2026-04-18T12:53:58Z</time></trkpt><trkpt lat="44.1366615" lon="10.4482007"><ele>773.0</ele><time>2026-04-18T12:53:59Z</time></trkpt><trkpt lat="44.1365559" lon="10.4481602"><ele>773.0</ele><time>2026-04-18T12:54:00Z</time></trkpt><trkpt lat="44.1364582" lon="10.4480958"><ele>773.0</ele><time>2026-04-18T12:54:01Z</time></trkpt><trkpt lat="44.1363553" lon="10.4479881"><ele>773.0</ele><time>2026-04-18T12:54:02Z</time></trkpt><trkpt lat="44.1362612" lon="10.4478959"><ele>767.5</ele><time>2026-04-18T12:54:03Z</time></trkpt><trkpt lat="44.1361596" lon="10.447809"><ele>762.0</ele><time>2026-04-18T12:54:04Z</time></trkpt><trkpt lat="44.1360539" lon="10.4477297"><ele>756.5</ele><time>2026-04-18T12:54:05Z</time></trkpt><trkpt lat="44.1359485" lon="10.4476477"><ele>751.0</ele><time>2026-04-18T12:54:06Z</time></trkpt><trkpt lat="44.1358324" lon="10.447569"><ele>751.0</ele><time>2026-04-18T12:54:07Z</time></trkpt><trkpt lat="44.1357348" lon="10.447494"><ele>751.0</ele><time>2026-04-18T12:54:08Z</time></trkpt><trkpt lat="44.1356382" lon="10.4474287"><ele>751.0</ele><time>2026-04-18T12:54:09Z</time></trkpt><trkpt lat="44.1355609" lon="10.4473659"><ele>751.0</ele><time>2026-04-18T12:54:10Z</time></trkpt><trkpt lat="44.1354871" lon="10.4473255"><ele>751.0</ele><time>2026-04-18T12:54:11Z</time></trkpt><trkpt lat="44.1354019" lon="10.4472935"><ele>753.5999999999999</ele><time>2026-04-18T12:54:12Z</time></trkpt><trkpt lat="44.1353144" lon="10.4472674"><ele>756.2</ele><time>2026-04-18T12:54:13Z</time></trkpt><trkpt lat="44.1352145" lon="10.4472273"><ele>758.8</ele><time>2026-04-18T12:54:14Z</time></trkpt><trkpt lat="44.1351384" lon="10.4471908"><ele>761.4000000000001</ele><time>2026-04-18T12:54:15Z</time></trkpt><trkpt lat="44.1350596" lon="10.4470769"><ele>764.0</ele><time>2026-04-18T12:54:16Z</time></trkpt><trkpt lat="44.1349693" lon="10.4469747"><ele>759.75</ele><time>2026-04-18T12:54:17Z</time></trkpt><trkpt lat="44.1348782" lon="10.446864"><ele>755.5</ele><time>2026-04-18T12:54:18Z</time></trkpt><trkpt lat="44.1347876" lon="10.4467482"><ele>751.25</ele><time>2026-04-18T12:54:19Z</time></trkpt><trkpt lat="44.1347038" lon="10.446651"><ele>747.0</ele><time>2026-04-18T12:54:20Z</time></trkpt><trkpt lat="44.134624" lon="10.4465376"><ele>747.0</ele><time>2026-04-18T12:54:21Z</time></trkpt><trkpt lat="44.134554" lon="10.4464367"><ele>747.0</ele><time>2026-04-18T12:54:22Z</time></trkpt><trkpt lat="44.1345026" lon="10.4463317"><ele>747.0</ele><time>2026-04-18T12:54:23Z</time></trkpt><trkpt lat="44.1344783" lon="10.4462197"><ele>747.0</ele><time>2026-04-18T12:54:24Z</time></trkpt><trkpt lat="44.1344556" lon="10.4460956"><ele>747.0</ele><time>2026-04-18T12:54:25Z</time></trkpt><trkpt lat="44.1344351" lon="10.4459598"><ele>744.0</ele><time>2026-04-18T12:54:26Z</time></trkpt><trkpt lat="44.1344166" lon="10.4458031"><ele>741.0</ele><time>2026-04-18T12:54:27Z</time></trkpt><trkpt lat="44.1343995" lon="10.4456555"><ele>738.0</ele><time>2026-04-18T12:54:28Z</time></trkpt><trkpt lat="44.1343871" lon="10.445524"><ele>735.0</ele><time>2026-04-18T12:54:28.999Z</time></trkpt><trkpt lat="44.1343744" lon="10.4453927"><ele>732.0</ele><time>2026-04-18T12:54:30Z</time></trkpt><trkpt lat="44.1343546" lon="10.445294"><ele>730.5</ele><time>2026-04-18T12:54:31Z</time></trkpt><trkpt lat="44.1343331" lon="10.4452043"><ele>729.0</ele><time>2026-04-18T12:54:32Z</time></trkpt><trkpt lat="44.1342543" lon="10.4450822"><ele>727.5</ele><time>2026-04-18T12:54:34Z</time></trkpt><trkpt lat="44.134198" lon="10.4450337"><ele>726.0</ele><time>2026-04-18T12:54:35Z</time></trkpt><trkpt lat="44.1341306" lon="10.4449667"><ele>724.5</ele><time>2026-04-18T12:54:36Z</time></trkpt><trkpt lat="44.1340547" lon="10.4449162"><ele>723.0</ele><time>2026-04-18T12:54:37Z</time></trkpt><trkpt lat="44.1339637" lon="10.4448631"><ele>723.0</ele><time>2026-04-18T12:54:38Z</time></trkpt><trkpt lat="44.1338635" lon="10.4448275"><ele>723.0</ele><time>2026-04-18T12:54:39Z</time></trkpt><trkpt lat="44.1337603" lon="10.4447876"><ele>723.0</ele><time>2026-04-18T12:54:40Z</time></trkpt><trkpt lat="44.1336646" lon="10.4447496"><ele>723.0</ele><time>2026-04-18T12:54:41Z</time></trkpt><trkpt lat="44.1335774" lon="10.4447032"><ele>723.0</ele><time>2026-04-18T12:54:42Z</time></trkpt><trkpt lat="44.1335017" lon="10.4446481"><ele>718.0</ele><time>2026-04-18T12:54:43Z</time></trkpt><trkpt lat="44.1334306" lon="10.4445838"><ele>713.0</ele><time>2026-04-18T12:54:44Z</time></trkpt><trkpt lat="44.1333721" lon="10.4445158"><ele>708.0</ele><time>2026-04-18T12:54:45Z</time></trkpt><trkpt lat="44.1333216" lon="10.4444498"><ele>703.0</ele><time>2026-04-18T12:54:46Z</time></trkpt><trkpt lat="44.133247" lon="10.4443468"><ele>698.0</ele><time>2026-04-18T12:54:48Z</time></trkpt><trkpt lat="44.1332338" lon="10.4442409"><ele>693.0</ele><time>2026-04-18T12:54:51Z</time></trkpt><trkpt lat="44.1332867" lon="10.4441926"><ele>693.0</ele><time>2026-04-18T12:54:58Z</time></trkpt><trkpt lat="44.133353" lon="10.4442164"><ele>693.0</ele><time>2026-04-18T12:55:00Z</time></trkpt><trkpt lat="44.1334529" lon="10.444262"><ele>693.0</ele><time>2026-04-18T12:55:02Z</time></trkpt><trkpt lat="44.1335763" lon="10.4443401"><ele>693.0</ele><time>2026-04-18T12:55:04Z</time></trkpt><trkpt lat="44.133641" lon="10.4443753"><ele>693.0</ele><time>2026-04-18T12:55:05Z</time></trkpt><trkpt lat="44.1337232" lon="10.4444189"><ele>693.0</ele><time>2026-04-18T12:55:06Z</time></trkpt><trkpt lat="44.1338043" lon="10.4444508"><ele>693.0</ele><time>2026-04-18T12:55:07Z</time></trkpt><trkpt lat="44.1338939" lon="10.4444748"><ele>693.0</ele><time>2026-04-18T12:55:08Z</time></trkpt><trkpt lat="44.1339918" lon="10.4444888"><ele>693.0</ele><time>2026-04-18T12:55:09Z</time></trkpt><trkpt lat="44.1340977" lon="10.444498"><ele>693.0</ele><time>2026-04-18T12:55:10Z</time></trkpt><trkpt lat="44.1342035" lon="10.4445006"><ele>690.8</ele><time>2026-04-18T12:55:11Z</time></trkpt><trkpt lat="44.1343096" lon="10.4445072"><ele>688.5999999999999</ele><time>2026-04-18T12:55:12Z</time></trkpt><trkpt lat="44.1344169" lon="10.4445146"><ele>686.4000000000001</ele><time>2026-04-18T12:55:13Z</time></trkpt><trkpt lat="44.1345139" lon="10.4445225"><ele>684.2</ele><time>2026-04-18T12:55:14Z</time></trkpt><trkpt lat="44.1346007" lon="10.4445461"><ele>682.0</ele><time>2026-04-18T12:55:15Z</time></trkpt><trkpt lat="44.1346851" lon="10.4446003"><ele>683.0</ele><time>2026-04-18T12:55:16Z</time></trkpt><trkpt lat="44.134771" lon="10.4446676"><ele>684.0</ele><time>2026-04-18T12:55:16.999Z</time></trkpt><trkpt lat="44.1348561" lon="10.4447443"><ele>685.0</ele><time>2026-04-18T12:55:18Z</time></trkpt><trkpt lat="44.1349343" lon="10.4448169"><ele>686.0</ele><time>2026-04-18T12:55:19Z</time></trkpt><trkpt lat="44.1349981" lon="10.4448963"><ele>687.0</ele><time>2026-04-18T12:55:20Z</time></trkpt><trkpt lat="44.1350465" lon="10.4449978"><ele>687.0</ele><time>2026-04-18T12:55:21Z</time></trkpt><trkpt lat="44.1350823" lon="10.4451179"><ele>687.0</ele><time>2026-04-18T12:55:22Z</time></trkpt><trkpt lat="44.135125" lon="10.4452448"><ele>687.0</ele><time>2026-04-18T12:55:23Z</time></trkpt><trkpt lat="44.1351946" lon="10.4453586"><ele>687.0</ele><time>2026-04-18T12:55:24Z</time></trkpt><trkpt lat="44.1352588" lon="10.4454609"><ele>687.0</ele><time>2026-04-18T12:55:25Z</time></trkpt><trkpt lat="44.1353594" lon="10.4455342"><ele>687.3333333333334</ele><time>2026-04-18T12:55:26Z</time></trkpt><trkpt lat="44.1354395" lon="10.4456168"><ele>687.6666666666666</ele><time>2026-04-18T12:55:27Z</time></trkpt><trkpt lat="44.1354851" lon="10.4456879"><ele>688.0</ele><time>2026-04-18T12:55:28Z</time></trkpt><trkpt lat="44.135559" lon="10.4457342"><ele>688.3333333333333</ele><time>2026-04-18T12:55:29Z</time></trkpt><trkpt lat="44.1356508" lon="10.4457339"><ele>688.6666666666666</ele><time>2026-04-18T12:55:30Z</time></trkpt><trkpt lat="44.1357371" lon="10.4457033"><ele>689.0</ele><time>2026-04-18T12:55:31Z</time></trkpt><trkpt lat="44.1358206" lon="10.4456479"><ele>689.0</ele><time>2026-04-18T12:55:32Z</time></trkpt><trkpt lat="44.1359005" lon="10.4455702"><ele>689.0</ele><time>2026-04-18T12:55:33Z</time></trkpt><trkpt lat="44.1359715" lon="10.4454632"><ele>689.0</ele><time>2026-04-18T12:55:34Z</time></trkpt><trkpt lat="44.136061" lon="10.4453885"><ele>689.0</ele><time>2026-04-18T12:55:35Z</time></trkpt><trkpt lat="44.1361592" lon="10.4453072"><ele>689.0</ele><time>2026-04-18T12:55:36Z</time></trkpt><trkpt lat="44.1362641" lon="10.4452378"><ele>683.8000000000001</ele><time>2026-04-18T12:55:37Z</time></trkpt><trkpt lat="44.1363712" lon="10.4451783"><ele>678.6</ele><time>2026-04-18T12:55:38Z</time></trkpt><trkpt lat="44.1364648" lon="10.4451187"><ele>673.4</ele><time>2026-04-18T12:55:39Z</time></trkpt><trkpt lat="44.1365634" lon="10.4450808"><ele>668.2</ele><time>2026-04-18T12:55:40Z</time></trkpt><trkpt lat="44.136663" lon="10.4450566"><ele>663.0</ele><time>2026-04-18T12:55:41Z</time></trkpt><trkpt lat="44.1367823" lon="10.4450607"><ele>659.0</ele><time>2026-04-18T12:55:42Z</time></trkpt><trkpt lat="44.1369098" lon="10.4450645"><ele>655.0</ele><time>2026-04-18T12:55:43Z</time></trkpt><trkpt lat="44.1370346" lon="10.4450534"><ele>651.0</ele><time>2026-04-18T12:55:43.999Z</time></trkpt><trkpt lat="44.1371407" lon="10.4450464"><ele>647.0</ele><time>2026-04-18T12:55:45Z</time></trkpt><trkpt lat="44.1372374" lon="10.4450271"><ele>647.0</ele><time>2026-04-18T12:55:46Z</time></trkpt><trkpt lat="44.1373477" lon="10.4449737"><ele>647.0</ele><time>2026-04-18T12:55:47.999Z</time></trkpt><trkpt lat="44.1373869" lon="10.4449044"><ele>647.0</ele><time>2026-04-18T12:55:49Z</time></trkpt><trkpt lat="44.1373628" lon="10.4447772"><ele>647.0</ele><time>2026-04-18T12:55:51Z</time></trkpt><trkpt lat="44.1372413" lon="10.444754"><ele>647.0</ele><time>2026-04-18T12:55:53Z</time></trkpt><trkpt lat="44.1371081" lon="10.4447596"><ele>647.0</ele><time>2026-04-18T12:55:55Z</time></trkpt><trkpt lat="44.1370324" lon="10.4447582"><ele>647.0</ele><time>2026-04-18T12:55:56Z</time></trkpt><trkpt lat="44.1369504" lon="10.4447573"><ele>647.0</ele><time>2026-04-18T12:55:57Z</time></trkpt><trkpt lat="44.136872" lon="10.4447557"><ele>647.0</ele><time>2026-04-18T12:55:58Z</time></trkpt><trkpt lat="44.13678" lon="10.444754"><ele>647.0</ele><time>2026-04-18T12:55:59Z</time></trkpt><trkpt lat="44.136687" lon="10.4447452"><ele>647.0</ele><time>2026-04-18T12:56:00Z</time></trkpt><trkpt lat="44.13659" lon="10.4447649"><ele>649.6666666666666</ele><time>2026-04-18T12:56:01Z</time></trkpt><trkpt lat="44.1364946" lon="10.4447951"><ele>652.3333333333333</ele><time>2026-04-18T12:56:02Z</time></trkpt><trkpt lat="44.1364009" lon="10.4448323"><ele>655.0</ele><time>2026-04-18T12:56:03Z</time></trkpt><trkpt lat="44.1363238" lon="10.4448681"><ele>657.6666666666666</ele><time>2026-04-18T12:56:04Z</time></trkpt><trkpt lat="44.1362611" lon="10.4448967"><ele>660.3333333333334</ele><time>2026-04-18T12:56:05Z</time></trkpt><trkpt lat="44.1361771" lon="10.4448493"><ele>663.0</ele><time>2026-04-18T12:56:07Z</time></trkpt><trkpt lat="44.1361911" lon="10.4446962"><ele>661.0</ele><time>2026-04-18T12:56:09Z</time></trkpt><trkpt lat="44.1362694" lon="10.4445497"><ele>659.0</ele><time>2026-04-18T12:56:11Z</time></trkpt><trkpt lat="44.136323" lon="10.444468"><ele>657.0</ele><time>2026-04-18T12:56:12Z</time></trkpt><trkpt lat="44.1363675" lon="10.4443825"><ele>655.0</ele><time>2026-04-18T12:56:13Z</time></trkpt><trkpt lat="44.1364222" lon="10.444285"><ele>653.0</ele><time>2026-04-18T12:56:14Z</time></trkpt><trkpt lat="44.1364583" lon="10.4441586"><ele>653.0</ele><time>2026-04-18T12:56:15Z</time></trkpt><trkpt lat="44.1364811" lon="10.4440317"><ele>653.0</ele><time>2026-04-18T12:56:16Z</time></trkpt><trkpt lat="44.1364483" lon="10.4439036"><ele>653.0</ele><time>2026-04-18T12:56:17Z</time></trkpt><trkpt lat="44.136425" lon="10.4437677"><ele>653.0</ele><time>2026-04-18T12:56:18Z</time></trkpt><trkpt lat="44.1363845" lon="10.4436093"><ele>653.0</ele><time>2026-04-18T12:56:19Z</time></trkpt><trkpt lat="44.1363511" lon="10.4434512"><ele>649.75</ele><time>2026-04-18T12:56:20Z</time></trkpt><trkpt lat="44.1363393" lon="10.4432835"><ele>646.5</ele><time>2026-04-18T12:56:21Z</time></trkpt><trkpt lat="44.1363268" lon="10.4431292"><ele>643.25</ele><time>2026-04-18T12:56:22Z</time></trkpt><trkpt lat="44.1363188" lon="10.4429777"><ele>640.0</ele><time>2026-04-18T12:56:23Z</time></trkpt><trkpt lat="44.1362861" lon="10.4428308"><ele>636.4</ele><time>2026-04-18T12:56:24Z</time></trkpt><trkpt lat="44.1362688" lon="10.4426956"><ele>632.8</ele><time>2026-04-18T12:56:25Z</time></trkpt><trkpt lat="44.1361848" lon="10.4425724"><ele>629.2</ele><time>2026-04-18T12:56:26Z</time></trkpt><trkpt lat="44.1361195" lon="10.4424521"><ele>625.6</ele><time>2026-04-18T12:56:27Z</time></trkpt><trkpt lat="44.1360246" lon="10.4423546"><ele>622.0</ele><time>2026-04-18T12:56:28Z</time></trkpt><trkpt lat="44.135934" lon="10.4422549"><ele>622.0</ele><time>2026-04-18T12:56:29Z</time></trkpt><trkpt lat="44.1358161" lon="10.4421631"><ele>622.0</ele><time>2026-04-18T12:56:30Z</time></trkpt><trkpt lat="44.1357006" lon="10.4420811"><ele>622.0</ele><time>2026-04-18T12:56:31Z</time></trkpt><trkpt lat="44.1355919" lon="10.4420156"><ele>622.0</ele><time>2026-04-18T12:56:32Z</time></trkpt><trkpt lat="44.1354837" lon="10.4419553"><ele>618.75</ele><time>2026-04-18T12:56:33Z</time></trkpt><trkpt lat="44.1353808" lon="10.4418888"><ele>615.5</ele><time>2026-04-18T12:56:34Z</time></trkpt><trkpt lat="44.1352863" lon="10.4417782"><ele>612.25</ele><time>2026-04-18T12:56:35Z</time></trkpt><trkpt lat="44.1352189" lon="10.4416498"><ele>609.0</ele><time>2026-04-18T12:56:36Z</time></trkpt><trkpt lat="44.1351461" lon="10.441528"><ele>609.0</ele><time>2026-04-18T12:56:37Z</time></trkpt><trkpt lat="44.1350849" lon="10.4414267"><ele>609.0</ele><time>2026-04-18T12:56:38Z</time></trkpt><trkpt lat="44.1350193" lon="10.4413536"><ele>609.0</ele><time>2026-04-18T12:56:39Z</time></trkpt><trkpt lat="44.1349275" lon="10.4413467"><ele>609.0</ele><time>2026-04-18T12:56:40Z</time></trkpt><trkpt lat="44.134829" lon="10.4413171"><ele>609.0</ele><time>2026-04-18T12:56:41Z</time></trkpt><trkpt lat="44.1347339" lon="10.4412889"><ele>607.0</ele><time>2026-04-18T12:56:42Z</time></trkpt><trkpt lat="44.1346771" lon="10.4412484"><ele>605.0</ele><time>2026-04-18T12:56:43Z</time></trkpt><trkpt lat="44.1346188" lon="10.441132"><ele>603.0</ele><time>2026-04-18T12:56:45Z</time></trkpt><trkpt lat="44.1346816" lon="10.4410415"><ele>601.0</ele><time>2026-04-18T12:56:47Z</time></trkpt><trkpt lat="44.1347897" lon="10.4410373"><ele>599.0</ele><time>2026-04-18T12:56:49Z</time></trkpt><trkpt lat="44.134859" lon="10.4410509"><ele>597.0</ele><time>2026-04-18T12:56:50Z</time></trkpt><trkpt lat="44.1349307" lon="10.4410588"><ele>596.1666666666666</ele><time>2026-04-18T12:56:50.999Z</time></trkpt><trkpt lat="44.1350115" lon="10.441072"><ele>595.3333333333334</ele><time>2026-04-18T12:56:52Z</time></trkpt><trkpt lat="44.1350936" lon="10.441096"><ele>594.5</ele><time>2026-04-18T12:56:53Z</time></trkpt><trkpt lat="44.1351788" lon="10.441121"><ele>593.6666666666667</ele><time>2026-04-18T12:56:54Z</time></trkpt><trkpt lat="44.1352628" lon="10.4411635"><ele>592.8333333333334</ele><time>2026-04-18T12:56:55Z</time></trkpt><trkpt lat="44.1353519" lon="10.4412139"><ele>592.0</ele><time>2026-04-18T12:56:56Z</time></trkpt><trkpt lat="44.1354446" lon="10.4412693"><ele>592.25</ele><time>2026-04-18T12:56:57Z</time></trkpt><trkpt lat="44.1355425" lon="10.4413258"><ele>592.5</ele><time>2026-04-18T12:56:58Z</time></trkpt><trkpt lat="44.1356574" lon="10.4413875"><ele>592.75</ele><time>2026-04-18T12:56:59Z</time></trkpt><trkpt lat="44.1357673" lon="10.4414449"><ele>593.0</ele><time>2026-04-18T12:57:00Z</time></trkpt><trkpt lat="44.1358825" lon="10.4415018"><ele>593.0</ele><time>2026-04-18T12:57:01Z</time></trkpt><trkpt lat="44.1359815" lon="10.4415608"><ele>593.0</ele><time>2026-04-18T12:57:02Z</time></trkpt><trkpt lat="44.13605" lon="10.4416024"><ele>593.0</ele><time>2026-04-18T12:57:03Z</time></trkpt><trkpt lat="44.1361084" lon="10.4416484"><ele>593.0</ele><time>2026-04-18T12:57:04Z</time></trkpt><trkpt lat="44.1361703" lon="10.4416693"><ele>593.0</ele><time>2026-04-18T12:57:05Z</time></trkpt><trkpt lat="44.1362587" lon="10.4416476"><ele>593.0</ele><time>2026-04-18T12:57:07Z</time></trkpt><trkpt lat="44.136252" lon="10.441548"><ele>593.0</ele><time>2026-04-18T12:57:09Z</time></trkpt><trkpt lat="44.1362056" lon="10.4414756"><ele>593.0</ele><time>2026-04-18T12:57:11Z</time></trkpt><trkpt lat="44.1361637" lon="10.4413938"><ele>593.0</ele><time>2026-04-18T12:57:14Z</time></trkpt><trkpt lat="44.136104" lon="10.4413057"><ele>593.0</ele><time>2026-04-18T12:57:33Z</time></trkpt><trkpt lat="44.13605" lon="10.4412216"><ele>593.0</ele><time>2026-04-18T12:57:35Z</time></trkpt><trkpt lat="44.1359998" lon="10.4411462"><ele>593.0</ele><time>2026-04-18T12:57:36Z</time></trkpt><trkpt lat="44.1359228" lon="10.4410137"><ele>592.8333333333333</ele><time>2026-04-18T12:57:38Z</time></trkpt><trkpt lat="44.13588" lon="10.4409319"><ele>592.6666666666666</ele><time>2026-04-18T12:57:39Z</time></trkpt><trkpt lat="44.1358383" lon="10.4408504"><ele>592.5</ele><time>2026-04-18T12:57:40Z</time></trkpt><trkpt lat="44.1357889" lon="10.4407636"><ele>592.3333333333334</ele><time>2026-04-18T12:57:41Z</time></trkpt><trkpt lat="44.135738" lon="10.4406862"><ele>592.1666666666667</ele><time>2026-04-18T12:57:42Z</time></trkpt><trkpt lat="44.1356805" lon="10.4406093"><ele>592.0</ele><time>2026-04-18T12:57:43Z</time></trkpt><trkpt lat="44.1355989" lon="10.4405226"><ele>588.8333333333334</ele><time>2026-04-18T12:57:44Z</time></trkpt><trkpt lat="44.1355085" lon="10.4404459"><ele>585.6666666666667</ele><time>2026-04-18T12:57:45Z</time></trkpt><trkpt lat="44.1354424" lon="10.4403851"><ele>582.5</ele><time>2026-04-18T12:57:46Z</time></trkpt><trkpt lat="44.1353981" lon="10.4402983"><ele>579.3333333333334</ele><time>2026-04-18T12:57:47Z</time></trkpt><trkpt lat="44.1353826" lon="10.4402125"><ele>576.1666666666666</ele><time>2026-04-18T12:57:48Z</time></trkpt><trkpt lat="44.1353705" lon="10.4401171"><ele>573.0</ele><time>2026-04-18T12:57:49Z</time></trkpt><trkpt lat="44.1353744" lon="10.440004"><ele>573.0</ele><time>2026-04-18T12:57:50Z</time></trkpt><trkpt lat="44.1353608" lon="10.4398942"><ele>573.0</ele><time>2026-04-18T12:57:51Z</time></trkpt><trkpt lat="44.1353462" lon="10.4397739"><ele>573.0</ele><time>2026-04-18T12:57:52Z</time></trkpt><trkpt lat="44.1353059" lon="10.4396493"><ele>573.0</ele><time>2026-04-18T12:57:53Z</time></trkpt><trkpt lat="44.1352337" lon="10.4395472"><ele>573.0</ele><time>2026-04-18T12:57:54Z</time></trkpt><trkpt lat="44.1351544" lon="10.439461"><ele>570.0</ele><time>2026-04-18T12:57:55Z</time></trkpt><trkpt lat="44.1350722" lon="10.4393945"><ele>567.0</ele><time>2026-04-18T12:57:56Z</time></trkpt><trkpt lat="44.134973" lon="10.4393324"><ele>564.0</ele><time>2026-04-18T12:57:57Z</time></trkpt><trkpt lat="44.1348586" lon="10.4392855"><ele>561.0</ele><time>2026-04-18T12:57:58Z</time></trkpt><trkpt lat="44.1347466" lon="10.4392404"><ele>558.0</ele><time>2026-04-18T12:57:59Z</time></trkpt><trkpt lat="44.1346335" lon="10.4391947"><ele>558.0</ele><time>2026-04-18T12:58:00Z</time></trkpt><trkpt lat="44.1345152" lon="10.4391569"><ele>558.0</ele><time>2026-04-18T12:58:01Z</time></trkpt><trkpt lat="44.1344005" lon="10.4391184"><ele>558.0</ele><time>2026-04-18T12:58:02Z</time></trkpt><trkpt lat="44.1342908" lon="10.439098"><ele>558.0</ele><time>2026-04-18T12:58:03Z</time></trkpt><trkpt lat="44.1341831" lon="10.439073"><ele>558.0</ele><time>2026-04-18T12:58:04Z</time></trkpt><trkpt lat="44.1340727" lon="10.4390854"><ele>558.0</ele><time>2026-04-18T12:58:05Z</time></trkpt><trkpt lat="44.1339694" lon="10.4390369"><ele>558.0</ele><time>2026-04-18T12:58:06Z</time></trkpt><trkpt lat="44.1338705" lon="10.438985"><ele>558.0</ele><time>2026-04-18T12:58:07Z</time></trkpt><trkpt lat="44.1337641" lon="10.4389107"><ele>558.0</ele><time>2026-04-18T12:58:08Z</time></trkpt><trkpt lat="44.1336475" lon="10.4388499"><ele>558.5</ele><time>2026-04-18T12:58:09Z</time></trkpt><trkpt lat="44.1335527" lon="10.4388026"><ele>559.0</ele><time>2026-04-18T12:58:10Z</time></trkpt><trkpt lat="44.133468" lon="10.4387679"><ele>559.5</ele><time>2026-04-18T12:58:10.999Z</time></trkpt><trkpt lat="44.1334019" lon="10.4387386"><ele>560.0</ele><time>2026-04-18T12:58:12Z</time></trkpt><trkpt lat="44.1333141" lon="10.4386647"><ele>560.5</ele><time>2026-04-18T12:58:14Z</time></trkpt><trkpt lat="44.1333461" lon="10.4385654"><ele>561.0</ele><time>2026-04-18T12:58:16Z</time></trkpt><trkpt lat="44.1334549" lon="10.4385583"><ele>557.2</ele><time>2026-04-18T12:58:18Z</time></trkpt><trkpt lat="44.1335195" lon="10.4385751"><ele>553.4000000000001</ele><time>2026-04-18T12:58:19Z</time></trkpt><trkpt lat="44.1336567" lon="10.4386219"><ele>549.6</ele><time>2026-04-18T12:58:21Z</time></trkpt><trkpt lat="44.1337243" lon="10.4386425"><ele>545.8000000000001</ele><time>2026-04-18T12:58:22Z</time></trkpt><trkpt lat="44.133806" lon="10.4386628"><ele>542.0</ele><time>2026-04-18T12:58:23Z</time></trkpt><trkpt lat="44.1338942" lon="10.4386928"><ele>542.0</ele><time>2026-04-18T12:58:24Z</time></trkpt><trkpt lat="44.133966" lon="10.4387049"><ele>542.0</ele><time>2026-04-18T12:58:25Z</time></trkpt><trkpt lat="44.1340295" lon="10.4386859"><ele>542.0</ele><time>2026-04-18T12:58:26Z</time></trkpt><trkpt lat="44.1340772" lon="10.4385764"><ele>542.0</ele><time>2026-04-18T12:58:28Z</time></trkpt><trkpt lat="44.1340284" lon="10.4384849"><ele>542.0</ele><time>2026-04-18T12:58:30Z</time></trkpt><trkpt lat="44.1339703" lon="10.438436"><ele>542.0</ele><time>2026-04-18T12:58:31Z</time></trkpt><trkpt lat="44.1339129" lon="10.4383743"><ele>542.0</ele><time>2026-04-18T12:58:32Z</time></trkpt><trkpt lat="44.1338528" lon="10.4383123"><ele>542.0</ele><time>2026-04-18T12:58:33Z</time></trkpt><trkpt lat="44.1337769" lon="10.4382525"><ele>542.0</ele><time>2026-04-18T12:58:34Z</time></trkpt><trkpt lat="44.1336948" lon="10.4381831"><ele>542.0</ele><time>2026-04-18T12:58:35Z</time></trkpt><trkpt lat="44.1336041" lon="10.4381"><ele>542.0</ele><time>2026-04-18T12:58:36Z</time></trkpt><trkpt lat="44.1335139" lon="10.4380435"><ele>542.0</ele><time>2026-04-18T12:58:37Z</time></trkpt><trkpt lat="44.1334188" lon="10.4380004"><ele>542.0</ele><time>2026-04-18T12:58:38Z</time></trkpt><trkpt lat="44.1333178" lon="10.4379967"><ele>542.0</ele><time>2026-04-18T12:58:39Z</time></trkpt><trkpt lat="44.1332157" lon="10.4380146"><ele>542.0</ele><time>2026-04-18T12:58:40Z</time></trkpt><trkpt lat="44.1331161" lon="10.4380559"><ele>542.0</ele><time>2026-04-18T12:58:41Z</time></trkpt><trkpt lat="44.1330219" lon="10.4380692"><ele>541.4</ele><time>2026-04-18T12:58:42Z</time></trkpt><trkpt lat="44.1329272" lon="10.4380529"><ele>540.8000000000001</ele><time>2026-04-18T12:58:43Z</time></trkpt><trkpt lat="44.1328388" lon="10.4380078"><ele>540.2</ele><time>2026-04-18T12:58:44Z</time></trkpt><trkpt lat="44.1327544" lon="10.4379618"><ele>539.6</ele><time>2026-04-18T12:58:45Z</time></trkpt><trkpt lat="44.1326769" lon="10.4378629"><ele>539.0</ele><time>2026-04-18T12:58:46Z</time></trkpt><trkpt lat="44.1326051" lon="10.4377577"><ele>536.2</ele><time>2026-04-18T12:58:47Z</time></trkpt><trkpt lat="44.1325313" lon="10.4376468"><ele>533.4</ele><time>2026-04-18T12:58:48Z</time></trkpt><trkpt lat="44.1324714" lon="10.4375198"><ele>530.6</ele><time>2026-04-18T12:58:49Z</time></trkpt><trkpt lat="44.1324298" lon="10.4373856"><ele>527.8</ele><time>2026-04-18T12:58:50Z</time></trkpt><trkpt lat="44.1324003" lon="10.4372281"><ele>525.0</ele><time>2026-04-18T12:58:51Z</time></trkpt><trkpt lat="44.1323858" lon="10.4370732"><ele>524.8</ele><time>2026-04-18T12:58:52Z</time></trkpt><trkpt lat="44.1323815" lon="10.4369302"><ele>524.6</ele><time>2026-04-18T12:58:53Z</time></trkpt><trkpt lat="44.1323588" lon="10.4368042"><ele>524.4</ele><time>2026-04-18T12:58:54Z</time></trkpt><trkpt lat="44.1323151" lon="10.4366806"><ele>524.2</ele><time>2026-04-18T12:58:55Z</time></trkpt><trkpt lat="44.1322509" lon="10.4365772"><ele>524.0</ele><time>2026-04-18T12:58:56Z</time></trkpt><trkpt lat="44.132172" lon="10.4364981"><ele>524.0</ele><time>2026-04-18T12:58:57Z</time></trkpt><trkpt lat="44.1320904" lon="10.4364243"><ele>524.0</ele><time>2026-04-18T12:58:58Z</time></trkpt><trkpt lat="44.132015" lon="10.4363376"><ele>524.0</ele><time>2026-04-18T12:58:59Z</time></trkpt><trkpt lat="44.1319351" lon="10.4362409"><ele>524.0</ele><time>2026-04-18T12:59:00Z</time></trkpt><trkpt lat="44.131852" lon="10.436156"><ele>524.0</ele><time>2026-04-18T12:59:01Z</time></trkpt><trkpt lat="44.1317623" lon="10.4360804"><ele>519.2</ele><time>2026-04-18T12:59:02Z</time></trkpt><trkpt lat="44.1316621" lon="10.436009"><ele>514.4</ele><time>2026-04-18T12:59:03Z</time></trkpt><trkpt lat="44.1315607" lon="10.4359549"><ele>509.6</ele><time>2026-04-18T12:59:04Z</time></trkpt><trkpt lat="44.1314627" lon="10.4358921"><ele>504.8</ele><time>2026-04-18T12:59:05Z</time></trkpt><trkpt lat="44.1313639" lon="10.4358427"><ele>500.0</ele><time>2026-04-18T12:59:06Z</time></trkpt><trkpt lat="44.1312631" lon="10.4357916"><ele>500.0</ele><time>2026-04-18T12:59:07Z</time></trkpt><trkpt lat="44.1311469" lon="10.4358166"><ele>500.0</ele><time>2026-04-18T12:59:08Z</time></trkpt><trkpt lat="44.1310379" lon="10.4358323"><ele>500.0</ele><time>2026-04-18T12:59:09Z</time></trkpt><trkpt lat="44.1309299" lon="10.4358582"><ele>500.0</ele><time>2026-04-18T12:59:10Z</time></trkpt><trkpt lat="44.1308159" lon="10.4358851"><ele>499.8</ele><time>2026-04-18T12:59:11Z</time></trkpt><trkpt lat="44.1307038" lon="10.4359074"><ele>499.6</ele><time>2026-04-18T12:59:12Z</time></trkpt><trkpt lat="44.1305936" lon="10.4359315"><ele>499.4</ele><time>2026-04-18T12:59:13Z</time></trkpt><trkpt lat="44.1304814" lon="10.4359484"><ele>499.2</ele><time>2026-04-18T12:59:14Z</time></trkpt><trkpt lat="44.1303723" lon="10.4359617"><ele>499.0</ele><time>2026-04-18T12:59:15Z</time></trkpt><trkpt lat="44.1302544" lon="10.4359596"><ele>499.0</ele><time>2026-04-18T12:59:16Z</time></trkpt><trkpt lat="44.1301405" lon="10.4359551"><ele>499.0</ele><time>2026-04-18T12:59:17Z</time></trkpt><trkpt lat="44.1300275" lon="10.4359441"><ele>499.0</ele><time>2026-04-18T12:59:18Z</time></trkpt><trkpt lat="44.1299178" lon="10.4359276"><ele>499.0</ele><time>2026-04-18T12:59:19Z</time></trkpt><trkpt lat="44.1298097" lon="10.43591"><ele>499.0</ele><time>2026-04-18T12:59:20Z</time></trkpt><trkpt lat="44.129735" lon="10.4358914"><ele>496.6666666666667</ele><time>2026-04-18T12:59:21Z</time></trkpt><trkpt lat="44.1296539" lon="10.4358432"><ele>494.33333333333337</ele><time>2026-04-18T12:59:22Z</time></trkpt><trkpt lat="44.1295856" lon="10.4357602"><ele>492.0</ele><time>2026-04-18T12:59:23Z</time></trkpt><trkpt lat="44.1295258" lon="10.435671"><ele>489.66666666666663</ele><time>2026-04-18T12:59:24Z</time></trkpt><trkpt lat="44.1294642" lon="10.4355841"><ele>487.3333333333333</ele><time>2026-04-18T12:59:25Z</time></trkpt><trkpt lat="44.1294105" lon="10.435506"><ele>485.0</ele><time>2026-04-18T12:59:26Z</time></trkpt><trkpt lat="44.1293407" lon="10.4353887"><ele>485.0</ele><time>2026-04-18T12:59:27.999Z</time></trkpt><trkpt lat="44.1293572" lon="10.4353014"><ele>485.0</ele><time>2026-04-18T12:59:30Z</time></trkpt><trkpt lat="44.1294486" lon="10.4353635"><ele>485.0</ele><time>2026-04-18T12:59:32Z</time></trkpt><trkpt lat="44.1295185" lon="10.4354894"><ele>485.0</ele><time>2026-04-18T12:59:34Z</time></trkpt><trkpt lat="44.1296111" lon="10.4356029"><ele>485.0</ele><time>2026-04-18T12:59:36Z</time></trkpt><trkpt lat="44.1296649" lon="10.435653"><ele>485.00000000000006</ele><time>2026-04-18T12:59:37Z</time></trkpt><trkpt lat="44.1297297" lon="10.4356857"><ele>485.0</ele><time>2026-04-18T12:59:38Z</time></trkpt><trkpt lat="44.129795" lon="10.4356961"><ele>485.00000000000006</ele><time>2026-04-18T12:59:39Z</time></trkpt><trkpt lat="44.1298672" lon="10.4357004"><ele>485.00000000000006</ele><time>2026-04-18T12:59:40Z</time></trkpt><trkpt lat="44.1299404" lon="10.4356979"><ele>485.0</ele><time>2026-04-18T12:59:41Z</time></trkpt><trkpt lat="44.130018" lon="10.4357005"><ele>485.00000000000006</ele><time>2026-04-18T12:59:42Z</time></trkpt><trkpt lat="44.1301032" lon="10.4357056"><ele>485.00000000000006</ele><time>2026-04-18T12:59:43Z</time></trkpt><trkpt lat="44.130194" lon="10.4356973"><ele>483.2</ele><time>2026-04-18T12:59:44Z</time></trkpt><trkpt lat="44.1302882" lon="10.4356711"><ele>481.4</ele><time>2026-04-18T12:59:45Z</time></trkpt><trkpt lat="44.1303794" lon="10.4356286"><ele>479.6</ele><time>2026-04-18T12:59:46Z</time></trkpt><trkpt lat="44.130473" lon="10.4355671"><ele>477.8</ele><time>2026-04-18T12:59:47Z</time></trkpt><trkpt lat="44.1305716" lon="10.4354941"><ele>476.0</ele><time>2026-04-18T12:59:48Z</time></trkpt><trkpt lat="44.1306696" lon="10.4354237"><ele>475.25</ele><time>2026-04-18T12:59:49Z</time></trkpt><trkpt lat="44.130773" lon="10.4353483"><ele>474.5</ele><time>2026-04-18T12:59:50Z</time></trkpt><trkpt lat="44.1308777" lon="10.4352707"><ele>473.75</ele><time>2026-04-18T12:59:51Z</time></trkpt><trkpt lat="44.130986" lon="10.4351937"><ele>473.0</ele><time>2026-04-18T12:59:52Z</time></trkpt><trkpt lat="44.1310917" lon="10.4351297"><ele>473.0</ele><time>2026-04-18T12:59:53Z</time></trkpt><trkpt lat="44.1312005" lon="10.4350798"><ele>472.99999999999994</ele><time>2026-04-18T12:59:54Z</time></trkpt><trkpt lat="44.1312905" lon="10.4350515"><ele>472.99999999999994</ele><time>2026-04-18T12:59:55Z</time></trkpt><trkpt lat="44.1313658" lon="10.435025"><ele>473.0</ele><time>2026-04-18T12:59:56Z</time></trkpt><trkpt lat="44.1314318" lon="10.4349883"><ele>473.0</ele><time>2026-04-18T12:59:57Z</time></trkpt><trkpt lat="44.1314741" lon="10.4348688"><ele>473.0</ele><time>2026-04-18T12:59:59Z</time></trkpt><trkpt lat="44.1314174" lon="10.4347745"><ele>472.99999999999994</ele><time>2026-04-18T13:00:01Z</time></trkpt><trkpt lat="44.1312946" lon="10.4347822"><ele>472.99999999999994</ele><time>2026-04-18T13:00:03Z</time></trkpt><trkpt lat="44.1311603" lon="10.4348279"><ele>473.0</ele><time>2026-04-18T13:00:05Z</time></trkpt><trkpt lat="44.1310875" lon="10.43485"><ele>473.0</ele><time>2026-04-18T13:00:06Z</time></trkpt><trkpt lat="44.1310142" lon="10.4348777"><ele>472.99999999999994</ele><time>2026-04-18T13:00:07Z</time></trkpt><trkpt lat="44.1309325" lon="10.4349049"><ele>473.0</ele><time>2026-04-18T13:00:08Z</time></trkpt><trkpt lat="44.1308553" lon="10.434937"><ele>473.0</ele><time>2026-04-18T13:00:09Z</time></trkpt><trkpt lat="44.1307661" lon="10.4349636"><ele>473.0</ele><time>2026-04-18T13:00:10Z</time></trkpt><trkpt lat="44.1306754" lon="10.434961"><ele>472.99999999999994</ele><time>2026-04-18T13:00:11Z</time></trkpt><trkpt lat="44.1305958" lon="10.4349518"><ele>473.0</ele><time>2026-04-18T13:00:12Z</time></trkpt><trkpt lat="44.1305068" lon="10.4348833"><ele>473.59999999999997</ele><time>2026-04-18T13:00:13Z</time></trkpt><trkpt lat="44.1304326" lon="10.434804"><ele>474.19999999999993</ele><time>2026-04-18T13:00:14Z</time></trkpt><trkpt lat="44.1303855" lon="10.4346888"><ele>474.8</ele><time>2026-04-18T13:00:15Z</time></trkpt><trkpt lat="44.1303318" lon="10.4345861"><ele>475.4</ele><time>2026-04-18T13:00:16Z</time></trkpt><trkpt lat="44.1302732" lon="10.4345018"><ele>476.0</ele><time>2026-04-18T13:00:17Z</time></trkpt><trkpt lat="44.1301874" lon="10.4344779"><ele>470.0</ele><time>2026-04-18T13:00:18Z</time></trkpt><trkpt lat="44.1300975" lon="10.4344598"><ele>464.0</ele><time>2026-04-18T13:00:19Z</time></trkpt><trkpt lat="44.1300158" lon="10.4344756"><ele>458.0</ele><time>2026-04-18T13:00:20Z</time></trkpt><trkpt lat="44.1299147" lon="10.4344927"><ele>452.0</ele><time>2026-04-18T13:00:21Z</time></trkpt><trkpt lat="44.1298086" lon="10.4345061"><ele>446.0</ele><time>2026-04-18T13:00:22Z</time></trkpt><trkpt lat="44.1297254" lon="10.4345287"><ele>444.6</ele><time>2026-04-18T13:00:23Z</time></trkpt><trkpt lat="44.1296481" lon="10.434548"><ele>443.20000000000005</ele><time>2026-04-18T13:00:24Z</time></trkpt><trkpt lat="44.1295724" lon="10.4345483"><ele>441.79999999999995</ele><time>2026-04-18T13:00:25Z</time></trkpt><trkpt lat="44.1294901" lon="10.4344657"><ele>440.4</ele><time>2026-04-18T13:00:27Z</time></trkpt><trkpt lat="44.1295278" lon="10.4343623"><ele>439.0</ele><time>2026-04-18T13:00:29Z</time></trkpt><trkpt lat="44.1296383" lon="10.4343155"><ele>439.00000000000006</ele><time>2026-04-18T13:00:31Z</time></trkpt><trkpt lat="44.1296991" lon="10.4342875"><ele>439.0</ele><time>2026-04-18T13:00:32Z</time></trkpt><trkpt lat="44.1297736" lon="10.4342632"><ele>439.0</ele><time>2026-04-18T13:00:33Z</time></trkpt><trkpt lat="44.1298495" lon="10.4342441"><ele>439.0</ele><time>2026-04-18T13:00:34Z</time></trkpt><trkpt lat="44.1299302" lon="10.4342189"><ele>439.00000000000006</ele><time>2026-04-18T13:00:35Z</time></trkpt><trkpt lat="44.1300168" lon="10.4341949"><ele>439.0</ele><time>2026-04-18T13:00:36Z</time></trkpt><trkpt lat="44.1301129" lon="10.4341909"><ele>440.4</ele><time>2026-04-18T13:00:37Z</time></trkpt><trkpt lat="44.1302064" lon="10.4341779"><ele>441.79999999999995</ele><time>2026-04-18T13:00:38Z</time></trkpt><trkpt lat="44.1303081" lon="10.4341678"><ele>443.20000000000005</ele><time>2026-04-18T13:00:39Z</time></trkpt><trkpt lat="44.1304211" lon="10.4341652"><ele>444.6</ele><time>2026-04-18T13:00:40Z</time></trkpt><trkpt lat="44.1305307" lon="10.4341704"><ele>446.0</ele><time>2026-04-18T13:00:41Z</time></trkpt><trkpt lat="44.1306405" lon="10.4341685"><ele>445.25</ele><time>2026-04-18T13:00:42Z</time></trkpt><trkpt lat="44.1307629" lon="10.4341687"><ele>444.5</ele><time>2026-04-18T13:00:43Z</time></trkpt><trkpt lat="44.1308808" lon="10.434143"><ele>443.75</ele><time>2026-04-18T13:00:44Z</time></trkpt><trkpt lat="44.1309976" lon="10.4340926"><ele>443.0</ele><time>2026-04-18T13:00:44.999Z</time></trkpt><trkpt lat="44.1311185" lon="10.4340281"><ele>443.0</ele><time>2026-04-18T13:00:46Z</time></trkpt><trkpt lat="44.1312366" lon="10.4339709"><ele>443.0</ele><time>2026-04-18T13:00:47Z</time></trkpt><trkpt lat="44.131368" lon="10.4339272"><ele>443.0</ele><time>2026-04-18T13:00:48Z</time></trkpt><trkpt lat="44.131508" lon="10.4338996"><ele>443.0</ele><time>2026-04-18T13:00:49Z</time></trkpt><trkpt lat="44.1316503" lon="10.4338807"><ele>444.25</ele><time>2026-04-18T13:00:50Z</time></trkpt><trkpt lat="44.1317829" lon="10.4338582"><ele>445.5</ele><time>2026-04-18T13:00:51Z</time></trkpt><trkpt lat="44.1319001" lon="10.4338377"><ele>446.75</ele><time>2026-04-18T13:00:52Z</time></trkpt><trkpt lat="44.1320068" lon="10.4338104"><ele>448.0</ele><time>2026-04-18T13:00:53Z</time></trkpt><trkpt lat="44.1320967" lon="10.4337832"><ele>448.00000000000006</ele><time>2026-04-18T13:00:54Z</time></trkpt><trkpt lat="44.1321864" lon="10.4337704"><ele>448.0</ele><time>2026-04-18T13:00:55Z</time></trkpt><trkpt lat="44.1322762" lon="10.4337731"><ele>448.0</ele><time>2026-04-18T13:00:56Z</time></trkpt><trkpt lat="44.1323579" lon="10.4338241"><ele>448.0</ele><time>2026-04-18T13:00:57Z</time></trkpt><trkpt lat="44.1324261" lon="10.4338908"><ele>448.00000000000006</ele><time>2026-04-18T13:00:58Z</time></trkpt><trkpt lat="44.1324917" lon="10.4339505"><ele>448.0</ele><time>2026-04-18T13:00:59Z</time></trkpt><trkpt lat="44.1325523" lon="10.4339976"><ele>445.50000000000006</ele><time>2026-04-18T13:01:00Z</time></trkpt><trkpt lat="44.1326185" lon="10.4340123"><ele>443.0</ele><time>2026-04-18T13:01:01Z</time></trkpt><trkpt lat="44.1326914" lon="10.4339909"><ele>440.5</ele><time>2026-04-18T13:01:02Z</time></trkpt><trkpt lat="44.132763" lon="10.4339402"><ele>438.0</ele><time>2026-04-18T13:01:03Z</time></trkpt><trkpt lat="44.1328446" lon="10.433909"><ele>435.50000000000006</ele><time>2026-04-18T13:01:04Z</time></trkpt><trkpt lat="44.1329441" lon="10.4338685"><ele>433.0</ele><time>2026-04-18T13:01:05Z</time></trkpt><trkpt lat="44.1330505" lon="10.4338485"><ele>433.0</ele><time>2026-04-18T13:01:06Z</time></trkpt><trkpt lat="44.1331566" lon="10.4338396"><ele>433.0</ele><time>2026-04-18T13:01:07Z</time></trkpt><trkpt lat="44.1332672" lon="10.4338253"><ele>433.0</ele><time>2026-04-18T13:01:08Z</time></trkpt><trkpt lat="44.1333835" lon="10.4337999"><ele>433.0</ele><time>2026-04-18T13:01:09Z</time></trkpt><trkpt lat="44.1335031" lon="10.4337698"><ele>424.79999999999995</ele><time>2026-04-18T13:01:10Z</time></trkpt><trkpt lat="44.1336119" lon="10.433742"><ele>416.59999999999997</ele><time>2026-04-18T13:01:11Z</time></trkpt><trkpt lat="44.1337035" lon="10.4337168"><ele>408.4</ele><time>2026-04-18T13:01:12Z</time></trkpt><trkpt lat="44.1337872" lon="10.4337143"><ele>400.20000000000005</ele><time>2026-04-18T13:01:13Z</time></trkpt><trkpt lat="44.1338762" lon="10.4337411"><ele>392.0</ele><time>2026-04-18T13:01:14Z</time></trkpt><trkpt lat="44.1339609" lon="10.4337917"><ele>393.49999999999994</ele><time>2026-04-18T13:01:15Z</time></trkpt><trkpt lat="44.1340693" lon="10.4338364"><ele>395.0</ele><time>2026-04-18T13:01:16Z</time></trkpt><trkpt lat="44.1341634" lon="10.4338694"><ele>396.5</ele><time>2026-04-18T13:01:17Z</time></trkpt><trkpt lat="44.1342315" lon="10.4339002"><ele>398.0</ele><time>2026-04-18T13:01:18Z</time></trkpt><trkpt lat="44.1342966" lon="10.4339116"><ele>399.49999999999994</ele><time>2026-04-18T13:01:19Z</time></trkpt><trkpt lat="44.1343494" lon="10.4339607"><ele>401.0</ele><time>2026-04-18T13:01:20Z</time></trkpt><trkpt lat="44.1343466" lon="10.4341222"><ele>400.99999999999994</ele><time>2026-04-18T13:01:22Z</time></trkpt><trkpt lat="44.1343448" lon="10.434212"><ele>401.0</ele><time>2026-04-18T13:01:23Z</time></trkpt><trkpt lat="44.1343683" lon="10.4343132"><ele>401.0</ele><time>2026-04-18T13:01:24Z</time></trkpt><trkpt lat="44.1344654" lon="10.4344243"><ele>401.0</ele><time>2026-04-18T13:01:26Z</time></trkpt><trkpt lat="44.1345336" lon="10.4344135"><ele>400.99999999999994</ele><time>2026-04-18T13:01:27Z</time></trkpt><trkpt lat="44.1346078" lon="10.4343658"><ele>401.0</ele><time>2026-04-18T13:01:28Z</time></trkpt><trkpt lat="44.1346795" lon="10.4343141"><ele>400.99999999999994</ele><time>2026-04-18T13:01:29Z</time></trkpt><trkpt lat="44.1347619" lon="10.4342948"><ele>401.0</ele><time>2026-04-18T13:01:30Z</time></trkpt><trkpt lat="44.1348389" lon="10.4343041"><ele>401.0</ele><time>2026-04-18T13:01:31Z</time></trkpt><trkpt lat="44.1349262" lon="10.434341"><ele>401.0</ele><time>2026-04-18T13:01:32Z</time></trkpt><trkpt lat="44.1350113" lon="10.4343685"><ele>400.99999999999994</ele><time>2026-04-18T13:01:33Z</time></trkpt><trkpt lat="44.1351007" lon="10.4344086"><ele>401.0</ele><time>2026-04-18T13:01:34Z</time></trkpt><trkpt lat="44.1351685" lon="10.4344646"><ele>397.3333333333333</ele><time>2026-04-18T13:01:35Z</time></trkpt><trkpt lat="44.1352264" lon="10.4345174"><ele>393.66666666666663</ele><time>2026-04-18T13:01:36Z</time></trkpt><trkpt lat="44.1352806" lon="10.4345656"><ele>390.0</ele><time>2026-04-18T13:01:37Z</time></trkpt><trkpt lat="44.1353734" lon="10.434565"><ele>386.3333333333333</ele><time>2026-04-18T13:01:39Z</time></trkpt><trkpt lat="44.135391" lon="10.4344502"><ele>382.66666666666663</ele><time>2026-04-18T13:01:41Z</time></trkpt><trkpt lat="44.1353079" lon="10.4343558"><ele>379.0</ele><time>2026-04-18T13:01:43Z</time></trkpt><trkpt lat="44.1352683" lon="10.4341991"><ele>379.0</ele><time>2026-04-18T13:01:45Z</time></trkpt><trkpt lat="44.1353119" lon="10.4341121"><ele>379.0</ele><time>2026-04-18T13:01:46Z</time></trkpt><trkpt lat="44.1353441" lon="10.4339537"><ele>379.0</ele><time>2026-04-18T13:01:48Z</time></trkpt><trkpt lat="44.1353205" lon="10.4338083"><ele>379.0</ele><time>2026-04-18T13:01:50Z</time></trkpt><trkpt lat="44.1352713" lon="10.4337025"><ele>379.0</ele><time>2026-04-18T13:01:52Z</time></trkpt><trkpt lat="44.1352199" lon="10.4336363"><ele>379.16666666666663</ele><time>2026-04-18T13:01:54Z</time></trkpt><trkpt lat="44.1351696" lon="10.4335397"><ele>379.3333333333333</ele><time>2026-04-18T13:01:57Z</time></trkpt><trkpt lat="44.1351057" lon="10.4334629"><ele>379.5</ele><time>2026-04-18T13:02:00Z</time></trkpt><trkpt lat="44.1350324" lon="10.4333905"><ele>379.6666666666667</ele><time>2026-04-18T13:02:03Z</time></trkpt><trkpt lat="44.1349764" lon="10.433328"><ele>379.83333333333337</ele><time>2026-04-18T13:02:06Z</time></trkpt><trkpt lat="44.1349074" lon="10.4332661"><ele>380.0</ele><time>2026-04-18T13:02:09Z</time></trkpt><trkpt lat="44.134849" lon="10.4331837"><ele>380.0</ele><time>2026-04-18T13:02:12Z</time></trkpt><trkpt lat="44.1347932" lon="10.433093"><ele>380.0</ele><time>2026-04-18T13:02:15Z</time></trkpt><trkpt lat="44.1347252" lon="10.4330112"><ele>380.0</ele><time>2026-04-18T13:02:18Z</time></trkpt><trkpt lat="44.1346602" lon="10.4329428"><ele>380.0</ele><time>2026-04-18T13:02:21Z</time></trkpt><trkpt lat="44.1345825" lon="10.432911"><ele>380.0</ele><time>2026-04-18T13:02:24Z</time></trkpt><trkpt lat="44.1345028" lon="10.4329165"><ele>380.0</ele><time>2026-04-18T13:02:27Z</time></trkpt><trkpt lat="44.1344192" lon="10.4329056"><ele>378.5</ele><time>2026-04-18T13:02:30Z</time></trkpt><trkpt lat="44.1343449" lon="10.4328591"><ele>377.0</ele><time>2026-04-18T13:02:33Z</time></trkpt><trkpt lat="44.1342901" lon="10.4327747"><ele>375.5</ele><time>2026-04-18T13:02:36Z</time></trkpt><trkpt lat="44.1342281" lon="10.4326934"><ele>374.0</ele><time>2026-04-18T13:02:39Z</time></trkpt><trkpt lat="44.1341651" lon="10.4326101"><ele>372.5</ele><time>2026-04-18T13:02:42Z</time></trkpt><trkpt lat="44.1341022" lon="10.4325314"><ele>371.0</ele><time>2026-04-18T13:02:45Z</time></trkpt><trkpt lat="44.134045" lon="10.4324421"><ele>371.0</ele><time>2026-04-18T13:02:47.998Z</time></trkpt><trkpt lat="44.1339856" lon="10.4323501"><ele>371.0</ele><time>2026-04-18T13:02:51Z</time></trkpt><trkpt lat="44.1339253" lon="10.4322666"><ele>371.0</ele><time>2026-04-18T13:02:54Z</time></trkpt><trkpt lat="44.1338657" lon="10.4321983"><ele>371.0</ele><time>2026-04-18T13:02:57Z</time></trkpt><trkpt lat="44.1338026" lon="10.4321101"><ele>371.0</ele><time>2026-04-18T13:03:00Z</time></trkpt><trkpt lat="44.1337494" lon="10.432023"><ele>371.0</ele><time>2026-04-18T13:03:03Z</time></trkpt><trkpt lat="44.1337063" lon="10.4319353"><ele>374.1666666666667</ele><time>2026-04-18T13:03:06Z</time></trkpt><trkpt lat="44.1336739" lon="10.4318212"><ele>377.33333333333337</ele><time>2026-04-18T13:03:09Z</time></trkpt><trkpt lat="44.1336452" lon="10.4317377"><ele>380.5</ele><time>2026-04-18T13:03:11Z</time></trkpt><trkpt lat="44.133611" lon="10.4316628"><ele>383.6666666666667</ele><time>2026-04-18T13:03:13Z</time></trkpt><trkpt lat="44.1335442" lon="10.4315812"><ele>386.8333333333333</ele><time>2026-04-18T13:03:16Z</time></trkpt><trkpt lat="44.1334725" lon="10.4315026"><ele>390.0</ele><time>2026-04-18T13:03:19Z</time></trkpt><trkpt lat="44.133417" lon="10.4314024"><ele>390.0</ele><time>2026-04-18T13:03:22Z</time></trkpt><trkpt lat="44.1333815" lon="10.4313106"><ele>390.0</ele><time>2026-04-18T13:03:25Z</time></trkpt><trkpt lat="44.1333281" lon="10.4312061"><ele>390.0</ele><time>2026-04-18T13:03:28Z</time></trkpt><trkpt lat="44.1332629" lon="10.4311305"><ele>390.0</ele><time>2026-04-18T13:03:31Z</time></trkpt><trkpt lat="44.1331905" lon="10.4310536"><ele>390.0</ele><time>2026-04-18T13:03:34Z</time></trkpt><trkpt lat="44.1331219" lon="10.4309836"><ele>390.0</ele><time>2026-04-18T13:03:37Z</time></trkpt><trkpt lat="44.1330618" lon="10.4308964"><ele>394.0</ele><time>2026-04-18T13:03:40Z</time></trkpt><trkpt lat="44.1330185" lon="10.4308025"><ele>398.0</ele><time>2026-04-18T13:03:43Z</time></trkpt><trkpt lat="44.1329754" lon="10.4307065"><ele>402.0</ele><time>2026-04-18T13:03:47Z</time></trkpt><trkpt lat="44.1329423" lon="10.4306262"><ele>406.0</ele><time>2026-04-18T13:03:50Z</time></trkpt><trkpt lat="44.1328686" lon="10.4305652"><ele>410.0</ele><time>2026-04-18T13:03:53Z</time></trkpt><trkpt lat="44.1327872" lon="10.4305879"><ele>414.0</ele><time>2026-04-18T13:03:56Z</time></trkpt><trkpt lat="44.1327193" lon="10.4306564"><ele>414.0</ele><time>2026-04-18T13:03:59Z</time></trkpt><trkpt lat="44.1326536" lon="10.4307267"><ele>414.0</ele><time>2026-04-18T13:04:02Z</time></trkpt><trkpt lat="44.1325792" lon="10.4307888"><ele>414.0</ele><time>2026-04-18T13:04:05Z</time></trkpt><trkpt lat="44.1324955" lon="10.4307813"><ele>414.0</ele><time>2026-04-18T13:04:08Z</time></trkpt><trkpt lat="44.1324176" lon="10.4307505"><ele>414.0</ele><time>2026-04-18T13:04:11Z</time></trkpt><trkpt lat="44.1323287" lon="10.4307332"><ele>414.0</ele><time>2026-04-18T13:04:14Z</time></trkpt><trkpt lat="44.1322386" lon="10.4307451"><ele>413.0</ele><time>2026-04-18T13:04:17Z</time></trkpt><trkpt lat="44.1321503" lon="10.4307773"><ele>412.0</ele><time>2026-04-18T13:04:20Z</time></trkpt><trkpt lat="44.1320638" lon="10.4308072"><ele>411.0</ele><time>2026-04-18T13:04:23Z</time></trkpt><trkpt lat="44.1319741" lon="10.4308394"><ele>410.0</ele><time>2026-04-18T13:04:26Z</time></trkpt><trkpt lat="44.131918" lon="10.4308821"><ele>409.0</ele><time>2026-04-18T13:04:28Z</time></trkpt><trkpt lat="44.1318469" lon="10.4309674"><ele>408.0</ele><time>2026-04-18T13:04:31Z</time></trkpt><trkpt lat="44.1317705" lon="10.4310397"><ele>408.0</ele><time>2026-04-18T13:04:34Z</time></trkpt><trkpt lat="44.1316866" lon="10.4310356"><ele>408.0</ele><time>2026-04-18T13:04:37Z</time></trkpt><trkpt lat="44.1316173" lon="10.4309714"><ele>408.0</ele><time>2026-04-18T13:04:40Z</time></trkpt><trkpt lat="44.1315638" lon="10.4308848"><ele>408.0</ele><time>2026-04-18T13:04:42.999Z</time></trkpt><trkpt lat="44.1315154" lon="10.4307872"><ele>408.0</ele><time>2026-04-18T13:04:46Z</time></trkpt><trkpt lat="44.1314782" lon="10.4306773"><ele>408.0</ele><time>2026-04-18T13:04:49Z</time></trkpt><trkpt lat="44.1314447" lon="10.4305985"><ele>409.5</ele><time>2026-04-18T13:04:51Z</time></trkpt><trkpt lat="44.1314088" lon="10.4305046"><ele>411.0</ele><time>2026-04-18T13:04:54Z</time></trkpt><trkpt lat="44.1313463" lon="10.4304024"><ele>412.5</ele><time>2026-04-18T13:04:57Z</time></trkpt><trkpt lat="44.1312982" lon="10.4303441"><ele>414.0</ele><time>2026-04-18T13:04:59Z</time></trkpt><trkpt lat="44.131221" lon="10.4302967"><ele>415.5</ele><time>2026-04-18T13:05:02Z</time></trkpt><trkpt lat="44.1311393" lon="10.4302744"><ele>417.0</ele><time>2026-04-18T13:05:04.999Z</time></trkpt><trkpt lat="44.131056" lon="10.4302291"><ele>417.0</ele><time>2026-04-18T13:05:08Z</time></trkpt><trkpt lat="44.1309822" lon="10.4301655"><ele>417.0</ele><time>2026-04-18T13:05:11Z</time></trkpt><trkpt lat="44.1309088" lon="10.4300983"><ele>417.0</ele><time>2026-04-18T13:05:14Z</time></trkpt><trkpt lat="44.1308363" lon="10.4300369"><ele>417.0</ele><time>2026-04-18T13:05:17Z</time></trkpt><trkpt lat="44.1307598" lon="10.4299752"><ele>417.0</ele><time>2026-04-18T13:05:20Z</time></trkpt><trkpt lat="44.1306842" lon="10.4299017"><ele>417.0</ele><time>2026-04-18T13:05:23Z</time></trkpt><trkpt lat="44.1306276" lon="10.429801"><ele>418.0</ele><time>2026-04-18T13:05:26Z</time></trkpt><trkpt lat="44.1306106" lon="10.4296758"><ele>419.0</ele><time>2026-04-18T13:05:29Z</time></trkpt><trkpt lat="44.1306087" lon="10.4295459"><ele>420.0</ele><time>2026-04-18T13:05:32Z</time></trkpt><trkpt lat="44.1305906" lon="10.4294181"><ele>421.0</ele><time>2026-04-18T13:05:35Z</time></trkpt><trkpt lat="44.1305779" lon="10.4292933"><ele>422.0</ele><time>2026-04-18T13:05:38Z</time></trkpt><trkpt lat="44.1305453" lon="10.4292181"><ele>423.0</ele><time>2026-04-18T13:05:40Z</time></trkpt><trkpt lat="44.130498" lon="10.4291602"><ele>423.0</ele><time>2026-04-18T13:05:42Z</time></trkpt><trkpt lat="44.1304166" lon="10.4290965"><ele>423.0</ele><time>2026-04-18T13:05:45Z</time></trkpt><trkpt lat="44.1303553" lon="10.429066"><ele>423.0</ele><time>2026-04-18T13:05:47Z</time></trkpt><trkpt lat="44.1302915" lon="10.4290503"><ele>423.0</ele><time>2026-04-18T13:05:49Z</time></trkpt><trkpt lat="44.1302006" lon="10.4290571"><ele>423.0</ele><time>2026-04-18T13:05:52Z</time></trkpt><trkpt lat="44.1301059" lon="10.4290759"><ele>423.0</ele><time>2026-04-18T13:05:55Z</time></trkpt><trkpt lat="44.130012" lon="10.4290936"><ele>423.0</ele><time>2026-04-18T13:05:58Z</time></trkpt><trkpt lat="44.1299224" lon="10.4291155"><ele>423.0</ele><time>2026-04-18T13:06:01Z</time></trkpt><trkpt lat="44.1298384" lon="10.429146"><ele>423.0</ele><time>2026-04-18T13:06:04Z</time></trkpt><trkpt lat="44.1297554" lon="10.4291601"><ele>423.0</ele><time>2026-04-18T13:06:07Z</time></trkpt><trkpt lat="44.1296659" lon="10.4291752"><ele>423.0</ele><time>2026-04-18T13:06:10Z</time></trkpt><trkpt lat="44.1295784" lon="10.429188"><ele>423.0</ele><time>2026-04-18T13:06:13Z</time></trkpt><trkpt lat="44.1294951" lon="10.4291859"><ele>422.1666666666667</ele><time>2026-04-18T13:06:16Z</time></trkpt><trkpt lat="44.1294099" lon="10.4291883"><ele>421.33333333333337</ele><time>2026-04-18T13:06:19Z</time></trkpt><trkpt lat="44.1293325" lon="10.4291594"><ele>420.5</ele><time>2026-04-18T13:06:22Z</time></trkpt><trkpt lat="44.1292553" lon="10.4291392"><ele>419.6666666666667</ele><time>2026-04-18T13:06:27Z</time></trkpt><trkpt lat="44.1291848" lon="10.4291184"><ele>418.83333333333337</ele><time>2026-04-18T13:06:30Z</time></trkpt><trkpt lat="44.1291256" lon="10.4290802"><ele>418.0</ele><time>2026-04-18T13:06:33Z</time></trkpt><trkpt lat="44.129054" lon="10.4290441"><ele>416.1666666666667</ele><time>2026-04-18T13:06:36Z</time></trkpt><trkpt lat="44.1289846" lon="10.4289739"><ele>414.33333333333337</ele><time>2026-04-18T13:06:39Z</time></trkpt><trkpt lat="44.1289229" lon="10.4288918"><ele>412.5</ele><time>2026-04-18T13:06:42Z</time></trkpt><trkpt lat="44.1288705" lon="10.428799"><ele>410.66666666666663</ele><time>2026-04-18T13:06:45Z</time></trkpt><trkpt lat="44.1288089" lon="10.4287085"><ele>408.8333333333333</ele><time>2026-04-18T13:06:48Z</time></trkpt><trkpt lat="44.1287694" lon="10.4286099"><ele>407.0</ele><time>2026-04-18T13:06:51Z</time></trkpt><trkpt lat="44.128729" lon="10.428504"><ele>410.28571428571433</ele><time>2026-04-18T13:06:54Z</time></trkpt><trkpt lat="44.1286903" lon="10.4284338"><ele>413.57142857142856</ele><time>2026-04-18T13:06:55.999Z</time></trkpt><trkpt lat="44.1286337" lon="10.4283939"><ele>416.8571428571429</ele><time>2026-04-18T13:06:58Z</time></trkpt><trkpt lat="44.1285721" lon="10.4283662"><ele>420.14285714285717</ele><time>2026-04-18T13:07:00Z</time></trkpt><trkpt lat="44.1284824" lon="10.4283213"><ele>423.42857142857144</ele><time>2026-04-18T13:07:03Z</time></trkpt><trkpt lat="44.1283953" lon="10.4282728"><ele>426.7142857142857</ele><time>2026-04-18T13:07:06Z</time></trkpt><trkpt lat="44.1283335" lon="10.4282373"><ele>430.0</ele><time>2026-04-18T13:07:08Z</time></trkpt><trkpt lat="44.1282404" lon="10.4282118"><ele>430.1666666666667</ele><time>2026-04-18T13:07:11.01Z</time></trkpt><trkpt lat="44.1281545" lon="10.4281964"><ele>430.33333333333337</ele><time>2026-04-18T13:07:14Z</time></trkpt><trkpt lat="44.1280643" lon="10.4281907"><ele>430.5</ele><time>2026-04-18T13:07:17.005Z</time></trkpt><trkpt lat="44.1279773" lon="10.4281802"><ele>430.66666666666663</ele><time>2026-04-18T13:07:20Z</time></trkpt><trkpt lat="44.1278905" lon="10.4281847"><ele>430.8333333333333</ele><time>2026-04-18T13:07:23Z</time></trkpt><trkpt lat="44.1278046" lon="10.4281928"><ele>431.0</ele><time>2026-04-18T13:07:26Z</time></trkpt><trkpt lat="44.1277116" lon="10.4281983"><ele>431.0</ele><time>2026-04-18T13:07:29Z</time></trkpt><trkpt lat="44.127622" lon="10.4281965"><ele>431.0</ele><time>2026-04-18T13:07:32Z</time></trkpt><trkpt lat="44.1275376" lon="10.4281664"><ele>431.0</ele><time>2026-04-18T13:07:35Z</time></trkpt><trkpt lat="44.1274623" lon="10.4280913"><ele>431.0</ele><time>2026-04-18T13:07:38Z</time></trkpt><trkpt lat="44.1274172" lon="10.4279793"><ele>431.0</ele><time>2026-04-18T13:07:41Z</time></trkpt><trkpt lat="44.1274151" lon="10.427855"><ele>432.14285714285717</ele><time>2026-04-18T13:07:44Z</time></trkpt><trkpt lat="44.1274619" lon="10.427744"><ele>433.2857142857143</ele><time>2026-04-18T13:07:47Z</time></trkpt><trkpt lat="44.1275147" lon="10.4276838"><ele>434.42857142857144</ele><time>2026-04-18T13:07:49Z</time></trkpt><trkpt lat="44.1275925" lon="10.4276315"><ele>435.57142857142856</ele><time>2026-04-18T13:07:52Z</time></trkpt><trkpt lat="44.1276515" lon="10.4276003"><ele>436.71428571428567</ele><time>2026-04-18T13:07:54Z</time></trkpt><trkpt lat="44.1277139" lon="10.4275715"><ele>437.85714285714283</ele><time>2026-04-18T13:07:56Z</time></trkpt><trkpt lat="44.1277772" lon="10.427547"><ele>439.0</ele><time>2026-04-18T13:07:58Z</time></trkpt><trkpt lat="44.1278508" lon="10.4275053"><ele>439.0</ele><time>2026-04-18T13:08:01Z</time></trkpt><trkpt lat="44.1279147" lon="10.4274674"><ele>439.0</ele><time>2026-04-18T13:08:03Z</time></trkpt><trkpt lat="44.1279816" lon="10.4274324"><ele>439.0</ele><time>2026-04-18T13:08:05Z</time></trkpt><trkpt lat="44.1280572" lon="10.4273945"><ele>439.0</ele><time>2026-04-18T13:08:07Z</time></trkpt><trkpt lat="44.1281275" lon="10.4273637"><ele>439.0</ele><time>2026-04-18T13:08:09Z</time></trkpt><trkpt lat="44.1281947" lon="10.4273208"><ele>439.0</ele><time>2026-04-18T13:08:11Z</time></trkpt><trkpt lat="44.128256" lon="10.4272807"><ele>439.0</ele><time>2026-04-18T13:08:13Z</time></trkpt><trkpt lat="44.1283131" lon="10.427243"><ele>439.2857142857143</ele><time>2026-04-18T13:08:15Z</time></trkpt><trkpt lat="44.1283781" lon="10.4272065"><ele>439.57142857142856</ele><time>2026-04-18T13:08:17Z</time></trkpt><trkpt lat="44.128441" lon="10.4271565"><ele>439.8571428571429</ele><time>2026-04-18T13:08:18.999Z</time></trkpt><trkpt lat="44.1285069" lon="10.4271124"><ele>440.1428571428571</ele><time>2026-04-18T13:08:21Z</time></trkpt><trkpt lat="44.1285682" lon="10.4270669"><ele>440.42857142857144</ele><time>2026-04-18T13:08:23Z</time></trkpt><trkpt lat="44.1286267" lon="10.4270179"><ele>440.7142857142857</ele><time>2026-04-18T13:08:25Z</time></trkpt><trkpt lat="44.1286987" lon="10.4269601"><ele>441.0</ele><time>2026-04-18T13:08:27.017Z</time></trkpt><trkpt lat="44.1287603" lon="10.4269096"><ele>441.1666666666667</ele><time>2026-04-18T13:08:29Z</time></trkpt><trkpt lat="44.128818" lon="10.4268559"><ele>441.33333333333337</ele><time>2026-04-18T13:08:31Z</time></trkpt><trkpt lat="44.1288679" lon="10.4267951"><ele>441.5</ele><time>2026-04-18T13:08:33.011Z</time></trkpt><trkpt lat="44.1289212" lon="10.4267462"><ele>441.6666666666667</ele><time>2026-04-18T13:08:35Z</time></trkpt><trkpt lat="44.1289782" lon="10.4266739"><ele>441.83333333333337</ele><time>2026-04-18T13:08:37Z</time></trkpt><trkpt lat="44.1290569" lon="10.4265957"><ele>442.0</ele><time>2026-04-18T13:08:39Z</time></trkpt><trkpt lat="44.1291549" lon="10.4264855"><ele>442.00000000000006</ele><time>2026-04-18T13:08:41Z</time></trkpt><trkpt lat="44.1292119" lon="10.4264296"><ele>442.0</ele><time>2026-04-18T13:08:42Z</time></trkpt><trkpt lat="44.1292777" lon="10.4263771"><ele>442.0</ele><time>2026-04-18T13:08:43Z</time></trkpt><trkpt lat="44.1293494" lon="10.4263294"><ele>442.0</ele><time>2026-04-18T13:08:44Z</time></trkpt><trkpt lat="44.1294284" lon="10.4262898"><ele>442.00000000000006</ele><time>2026-04-18T13:08:45Z</time></trkpt><trkpt lat="44.1295102" lon="10.4262667"><ele>442.0</ele><time>2026-04-18T13:08:46Z</time></trkpt><trkpt lat="44.1296091" lon="10.4262633"><ele>442.00000000000006</ele><time>2026-04-18T13:08:47Z</time></trkpt><trkpt lat="44.1297042" lon="10.4262704"><ele>442.0</ele><time>2026-04-18T13:08:48Z</time></trkpt><trkpt lat="44.1297944" lon="10.4262838"><ele>442.0</ele><time>2026-04-18T13:08:49Z</time></trkpt><trkpt lat="44.1298683" lon="10.4262996"><ele>442.0</ele><time>2026-04-18T13:08:50Z</time></trkpt><trkpt lat="44.1299313" lon="10.4263149"><ele>442.00000000000006</ele><time>2026-04-18T13:08:51Z</time></trkpt><trkpt lat="44.1300293" lon="10.426304"><ele>442.0</ele><time>2026-04-18T13:08:52.999Z</time></trkpt><trkpt lat="44.1300685" lon="10.4262044"><ele>439.33333333333337</ele><time>2026-04-18T13:08:55Z</time></trkpt><trkpt lat="44.1300197" lon="10.4261125"><ele>436.6666666666667</ele><time>2026-04-18T13:08:57Z</time></trkpt><trkpt lat="44.1299321" lon="10.4260394"><ele>434.0</ele><time>2026-04-18T13:08:59Z</time></trkpt><trkpt lat="44.1298269" lon="10.4259731"><ele>431.33333333333337</ele><time>2026-04-18T13:09:01Z</time></trkpt><trkpt lat="44.1297639" lon="10.4259443"><ele>428.6666666666667</ele><time>2026-04-18T13:09:02Z</time></trkpt><trkpt lat="44.1296997" lon="10.4259195"><ele>426.0</ele><time>2026-04-18T13:09:03Z</time></trkpt><trkpt lat="44.1296057" lon="10.42586"><ele>426.0</ele><time>2026-04-18T13:09:05Z</time></trkpt><trkpt lat="44.1295968" lon="10.4257615"><ele>426.0</ele><time>2026-04-18T13:09:07Z</time></trkpt><trkpt lat="44.1296659" lon="10.4257116"><ele>426.0</ele><time>2026-04-18T13:09:09Z</time></trkpt><trkpt lat="44.1297677" lon="10.4257473"><ele>426.0</ele><time>2026-04-18T13:09:11Z</time></trkpt><trkpt lat="44.1298763" lon="10.4257888"><ele>426.0</ele><time>2026-04-18T13:09:13Z</time></trkpt><trkpt lat="44.1299917" lon="10.4258134"><ele>426.0</ele><time>2026-04-18T13:09:15Z</time></trkpt><trkpt lat="44.1300517" lon="10.425729"><ele>426.0</ele><time>2026-04-18T13:09:17Z</time></trkpt><trkpt lat="44.1300505" lon="10.4256197"><ele>426.0</ele><time>2026-04-18T13:09:19Z</time></trkpt><trkpt lat="44.1299947" lon="10.4255724"><ele>426.0</ele><time>2026-04-18T13:09:20Z</time></trkpt><trkpt lat="44.12989" lon="10.42548"><ele>426.0</ele><time>2026-04-18T13:09:22Z</time></trkpt><trkpt lat="44.1298429" lon="10.4254175"><ele>426.0</ele><time>2026-04-18T13:09:23Z</time></trkpt><trkpt lat="44.1297898" lon="10.425345"><ele>422.6666666666667</ele><time>2026-04-18T13:09:24Z</time></trkpt><trkpt lat="44.1297265" lon="10.4252849"><ele>419.33333333333337</ele><time>2026-04-18T13:09:25Z</time></trkpt><trkpt lat="44.1296541" lon="10.4252281"><ele>416.0</ele><time>2026-04-18T13:09:26Z</time></trkpt><trkpt lat="44.1295766" lon="10.425174"><ele>412.6666666666667</ele><time>2026-04-18T13:09:27Z</time></trkpt><trkpt lat="44.1294919" lon="10.4251268"><ele>409.33333333333337</ele><time>2026-04-18T13:09:28Z</time></trkpt><trkpt lat="44.1294091" lon="10.4250787"><ele>406.0</ele><time>2026-04-18T13:09:29Z</time></trkpt><trkpt lat="44.1293173" lon="10.4250282"><ele>406.00000000000006</ele><time>2026-04-18T13:09:30Z</time></trkpt><trkpt lat="44.1292312" lon="10.4249818"><ele>406.0</ele><time>2026-04-18T13:09:31Z</time></trkpt><trkpt lat="44.1291412" lon="10.42493"><ele>406.0</ele><time>2026-04-18T13:09:32Z</time></trkpt><trkpt lat="44.1290702" lon="10.4248692"><ele>406.0</ele><time>2026-04-18T13:09:33Z</time></trkpt><trkpt lat="44.1290102" lon="10.4248009"><ele>406.00000000000006</ele><time>2026-04-18T13:09:34Z</time></trkpt><trkpt lat="44.1289707" lon="10.4247043"><ele>406.0</ele><time>2026-04-18T13:09:35Z</time></trkpt><trkpt lat="44.1289514" lon="10.4245889"><ele>405.0</ele><time>2026-04-18T13:09:36Z</time></trkpt><trkpt lat="44.128948" lon="10.4244648"><ele>404.0</ele><time>2026-04-18T13:09:37Z</time></trkpt><trkpt lat="44.1289494" lon="10.4243382"><ele>403.0</ele><time>2026-04-18T13:09:38Z</time></trkpt><trkpt lat="44.1289499" lon="10.4242125"><ele>402.0</ele><time>2026-04-18T13:09:38.999Z</time></trkpt><trkpt lat="44.1289485" lon="10.4240825"><ele>401.0</ele><time>2026-04-18T13:09:40Z</time></trkpt><trkpt lat="44.1289389" lon="10.4239568"><ele>401.0</ele><time>2026-04-18T13:09:41Z</time></trkpt><trkpt lat="44.1289207" lon="10.4238298"><ele>401.0</ele><time>2026-04-18T13:09:42Z</time></trkpt><trkpt lat="44.1288971" lon="10.4237028"><ele>401.0</ele><time>2026-04-18T13:09:43Z</time></trkpt><trkpt lat="44.1288727" lon="10.4235805"><ele>401.0</ele><time>2026-04-18T13:09:44Z</time></trkpt><trkpt lat="44.1288492" lon="10.4234456"><ele>401.0</ele><time>2026-04-18T13:09:45Z</time></trkpt><trkpt lat="44.1288271" lon="10.423307"><ele>401.8</ele><time>2026-04-18T13:09:46Z</time></trkpt><trkpt lat="44.1288087" lon="10.4231742"><ele>402.6</ele><time>2026-04-18T13:09:47Z</time></trkpt><trkpt lat="44.1287869" lon="10.4230443"><ele>403.4</ele><time>2026-04-18T13:09:48Z</time></trkpt><trkpt lat="44.1287675" lon="10.4229206"><ele>404.2</ele><time>2026-04-18T13:09:49Z</time></trkpt><trkpt lat="44.1287475" lon="10.4228002"><ele>405.0</ele><time>2026-04-18T13:09:50Z</time></trkpt><trkpt lat="44.1287203" lon="10.4226787"><ele>405.5</ele><time>2026-04-18T13:09:51Z</time></trkpt><trkpt lat="44.1286851" lon="10.4225692"><ele>406.0</ele><time>2026-04-18T13:09:52Z</time></trkpt><trkpt lat="44.1286457" lon="10.4224643"><ele>406.5</ele><time>2026-04-18T13:09:53Z</time></trkpt><trkpt lat="44.128615" lon="10.4223555"><ele>407.0</ele><time>2026-04-18T13:09:54Z</time></trkpt><trkpt lat="44.128584" lon="10.4222532"><ele>407.5</ele><time>2026-04-18T13:09:55Z</time></trkpt><trkpt lat="44.1285511" lon="10.4221496"><ele>408.0</ele><time>2026-04-18T13:09:56Z</time></trkpt><trkpt lat="44.1285216" lon="10.4220526"><ele>408.0</ele><time>2026-04-18T13:09:57Z</time></trkpt><trkpt lat="44.128494" lon="10.4219344"><ele>408.0</ele><time>2026-04-18T13:09:58Z</time></trkpt><trkpt lat="44.1284601" lon="10.4218331"><ele>408.0</ele><time>2026-04-18T13:09:59Z</time></trkpt><trkpt lat="44.1284282" lon="10.4217278"><ele>408.0</ele><time>2026-04-18T13:10:00Z</time></trkpt><trkpt lat="44.1284013" lon="10.4216265"><ele>408.0</ele><time>2026-04-18T13:10:01Z</time></trkpt><trkpt lat="44.12838" lon="10.4215239"><ele>408.0</ele><time>2026-04-18T13:10:02Z</time></trkpt><trkpt lat="44.1283431" lon="10.4214036"><ele>408.4</ele><time>2026-04-18T13:10:03Z</time></trkpt><trkpt lat="44.1283072" lon="10.4212925"><ele>408.79999999999995</ele><time>2026-04-18T13:10:04Z</time></trkpt><trkpt lat="44.1282604" lon="10.4211881"><ele>409.2</ele><time>2026-04-18T13:10:05Z</time></trkpt><trkpt lat="44.1282154" lon="10.421064"><ele>409.6</ele><time>2026-04-18T13:10:06Z</time></trkpt><trkpt lat="44.1281895" lon="10.4209355"><ele>410.0</ele><time>2026-04-18T13:10:07Z</time></trkpt><trkpt lat="44.1281693" lon="10.4208028"><ele>410.0</ele><time>2026-04-18T13:10:07.999Z</time></trkpt><trkpt lat="44.1281662" lon="10.4206607"><ele>410.0</ele><time>2026-04-18T13:10:09Z</time></trkpt><trkpt lat="44.1281953" lon="10.420528"><ele>410.0</ele><time>2026-04-18T13:10:10Z</time></trkpt><trkpt lat="44.1282268" lon="10.4204035"><ele>410.0</ele><time>2026-04-18T13:10:11Z</time></trkpt><trkpt lat="44.1282789" lon="10.4202844"><ele>410.0</ele><time>2026-04-18T13:10:12Z</time></trkpt><trkpt lat="44.128329" lon="10.4201739"><ele>406.8</ele><time>2026-04-18T13:10:13Z</time></trkpt><trkpt lat="44.128374" lon="10.4200567"><ele>403.6</ele><time>2026-04-18T13:10:14Z</time></trkpt><trkpt lat="44.1284252" lon="10.4199482"><ele>400.4</ele><time>2026-04-18T13:10:15Z</time></trkpt><trkpt lat="44.1284682" lon="10.4198343"><ele>397.2</ele><time>2026-04-18T13:10:16Z</time></trkpt><trkpt lat="44.1285217" lon="10.4197277"><ele>394.0</ele><time>2026-04-18T13:10:17Z</time></trkpt><trkpt lat="44.1285864" lon="10.4196391"><ele>392.4</ele><time>2026-04-18T13:10:18Z</time></trkpt><trkpt lat="44.1286606" lon="10.4195705"><ele>390.79999999999995</ele><time>2026-04-18T13:10:19Z</time></trkpt><trkpt lat="44.1287341" lon="10.4195088"><ele>389.20000000000005</ele><time>2026-04-18T13:10:20Z</time></trkpt><trkpt lat="44.1288093" lon="10.419442"><ele>387.6</ele><time>2026-04-18T13:10:21Z</time></trkpt><trkpt lat="44.1288843" lon="10.4193658"><ele>386.0</ele><time>2026-04-18T13:10:22Z</time></trkpt><trkpt lat="44.1289645" lon="10.4192905"><ele>386.0</ele><time>2026-04-18T13:10:22.999Z</time></trkpt><trkpt lat="44.1290508" lon="10.4192184"><ele>386.0</ele><time>2026-04-18T13:10:24Z</time></trkpt><trkpt lat="44.1291382" lon="10.4191468"><ele>386.0</ele><time>2026-04-18T13:10:25Z</time></trkpt><trkpt lat="44.1292254" lon="10.4190603"><ele>386.0</ele><time>2026-04-18T13:10:26Z</time></trkpt><trkpt lat="44.1293014" lon="10.4189703"><ele>386.0</ele><time>2026-04-18T13:10:27Z</time></trkpt><trkpt lat="44.1293509" lon="10.4188499"><ele>384.20000000000005</ele><time>2026-04-18T13:10:28Z</time></trkpt><trkpt lat="44.1293826" lon="10.4187225"><ele>382.40000000000003</ele><time>2026-04-18T13:10:29Z</time></trkpt><trkpt lat="44.1293984" lon="10.4185918"><ele>380.6</ele><time>2026-04-18T13:10:30Z</time></trkpt><trkpt lat="44.1294008" lon="10.4184593"><ele>378.8</ele><time>2026-04-18T13:10:31Z</time></trkpt><trkpt lat="44.1294069" lon="10.4183231"><ele>377.0</ele><time>2026-04-18T13:10:32Z</time></trkpt><trkpt lat="44.1294264" lon="10.4181862"><ele>377.0</ele><time>2026-04-18T13:10:33Z</time></trkpt><trkpt lat="44.1294628" lon="10.4180533"><ele>377.0</ele><time>2026-04-18T13:10:34Z</time></trkpt><trkpt lat="44.1294936" lon="10.417916"><ele>377.0</ele><time>2026-04-18T13:10:35Z</time></trkpt><trkpt lat="44.1295287" lon="10.4177804"><ele>377.0</ele><time>2026-04-18T13:10:36Z</time></trkpt><trkpt lat="44.1295598" lon="10.4176393"><ele>377.0</ele><time>2026-04-18T13:10:37Z</time></trkpt><trkpt lat="44.1295959" lon="10.4174909"><ele>376.20000000000005</ele><time>2026-04-18T13:10:38Z</time></trkpt><trkpt lat="44.1296465" lon="10.4173501"><ele>375.4</ele><time>2026-04-18T13:10:39Z</time></trkpt><trkpt lat="44.1297029" lon="10.4172121"><ele>374.6</ele><time>2026-04-18T13:10:40Z</time></trkpt><trkpt lat="44.129766" lon="10.4170881"><ele>373.79999999999995</ele><time>2026-04-18T13:10:41Z</time></trkpt><trkpt lat="44.1298408" lon="10.4169713"><ele>373.0</ele><time>2026-04-18T13:10:42Z</time></trkpt><trkpt lat="44.1299228" lon="10.4168703"><ele>372.4</ele><time>2026-04-18T13:10:43Z</time></trkpt><trkpt lat="44.1300139" lon="10.4167861"><ele>371.79999999999995</ele><time>2026-04-18T13:10:44Z</time></trkpt><trkpt lat="44.130113" lon="10.4167436"><ele>371.2</ele><time>2026-04-18T13:10:45Z</time></trkpt><trkpt lat="44.1302149" lon="10.4167163"><ele>370.6</ele><time>2026-04-18T13:10:46Z</time></trkpt><trkpt lat="44.1303212" lon="10.4167023"><ele>370.0</ele><time>2026-04-18T13:10:47Z</time></trkpt><trkpt lat="44.1304168" lon="10.4166822"><ele>370.0</ele><time>2026-04-18T13:10:48Z</time></trkpt><trkpt lat="44.1305063" lon="10.4166627"><ele>370.0</ele><time>2026-04-18T13:10:49Z</time></trkpt><trkpt lat="44.1305783" lon="10.4166138"><ele>370.0</ele><time>2026-04-18T13:10:50Z</time></trkpt><trkpt lat="44.130641" lon="10.4165438"><ele>370.0</ele><time>2026-04-18T13:10:51Z</time></trkpt><trkpt lat="44.1306925" lon="10.4164581"><ele>370.0</ele><time>2026-04-18T13:10:52Z</time></trkpt><trkpt lat="44.1307337" lon="10.4163628"><ele>370.0</ele><time>2026-04-18T13:10:53Z</time></trkpt><trkpt lat="44.1307642" lon="10.4162664"><ele>369.8333333333333</ele><time>2026-04-18T13:10:54Z</time></trkpt><trkpt lat="44.1307791" lon="10.4161687"><ele>369.66666666666663</ele><time>2026-04-18T13:10:55Z</time></trkpt><trkpt lat="44.1307884" lon="10.4160773"><ele>369.5</ele><time>2026-04-18T13:10:56Z</time></trkpt><trkpt lat="44.1307914" lon="10.4159864"><ele>369.3333333333333</ele><time>2026-04-18T13:10:57Z</time></trkpt><trkpt lat="44.1307874" lon="10.4158156"><ele>369.1666666666667</ele><time>2026-04-18T13:10:59Z</time></trkpt><trkpt lat="44.1307874" lon="10.4156583"><ele>369.0</ele><time>2026-04-18T13:11:01Z</time></trkpt><trkpt lat="44.1307867" lon="10.4155182"><ele>369.0</ele><time>2026-04-18T13:11:03Z</time></trkpt><trkpt lat="44.1308005" lon="10.4153911"><ele>369.0</ele><time>2026-04-18T13:11:05Z</time></trkpt><trkpt lat="44.1308224" lon="10.4152761"><ele>369.0</ele><time>2026-04-18T13:11:07Z</time></trkpt><trkpt lat="44.1308497" lon="10.415179"><ele>369.0</ele><time>2026-04-18T13:11:09Z</time></trkpt><trkpt lat="44.1308841" lon="10.4150963"><ele>369.0</ele><time>2026-04-18T13:11:11Z</time></trkpt><trkpt lat="44.1309253" lon="10.4150225"><ele>369.0</ele><time>2026-04-18T13:11:13Z</time></trkpt><trkpt lat="44.1309624" lon="10.4149459"><ele>369.0</ele><time>2026-04-18T13:11:15Z</time></trkpt><trkpt lat="44.1309991" lon="10.4148672"><ele>369.0</ele><time>2026-04-18T13:11:17Z</time></trkpt><trkpt lat="44.1310389" lon="10.4147903"><ele>369.0</ele><time>2026-04-18T13:11:19Z</time></trkpt><trkpt lat="44.1310724" lon="10.4147114"><ele>369.0</ele><time>2026-04-18T13:11:21Z</time></trkpt><trkpt lat="44.1311036" lon="10.4146311"><ele>369.0</ele><time>2026-04-18T13:11:23Z</time></trkpt><trkpt lat="44.131142" lon="10.4145551"><ele>369.0</ele><time>2026-04-18T13:11:25Z</time></trkpt><trkpt lat="44.1311765" lon="10.4144744"><ele>369.0</ele><time>2026-04-18T13:11:27Z</time></trkpt><trkpt lat="44.1312175" lon="10.4143985"><ele>368.85714285714283</ele><time>2026-04-18T13:11:29Z</time></trkpt><trkpt lat="44.1312608" lon="10.4143176"><ele>368.71428571428567</ele><time>2026-04-18T13:11:31Z</time></trkpt><trkpt lat="44.1313021" lon="10.4142407"><ele>368.57142857142856</ele><time>2026-04-18T13:11:33Z</time></trkpt><trkpt lat="44.1313539" lon="10.4141823"><ele>368.42857142857144</ele><time>2026-04-18T13:11:35Z</time></trkpt><trkpt lat="44.131404" lon="10.4141198"><ele>368.2857142857143</ele><time>2026-04-18T13:11:37Z</time></trkpt><trkpt lat="44.1314595" lon="10.4140705"><ele>368.14285714285717</ele><time>2026-04-18T13:11:39Z</time></trkpt><trkpt lat="44.1315182" lon="10.414028"><ele>368.0</ele><time>2026-04-18T13:11:41Z</time></trkpt><trkpt lat="44.1315779" lon="10.4139825"><ele>368.0</ele><time>2026-04-18T13:11:43Z</time></trkpt><trkpt lat="44.1316322" lon="10.4139269"><ele>368.0</ele><time>2026-04-18T13:11:45Z</time></trkpt><trkpt lat="44.1316837" lon="10.4138701"><ele>368.0</ele><time>2026-04-18T13:11:47Z</time></trkpt><trkpt lat="44.1317383" lon="10.413813"><ele>368.0</ele><time>2026-04-18T13:11:49Z</time></trkpt><trkpt lat="44.1317857" lon="10.4137532"><ele>368.0</ele><time>2026-04-18T13:11:51Z</time></trkpt><trkpt lat="44.1318494" lon="10.4136621"><ele>368.0</ele><time>2026-04-18T13:11:54Z</time></trkpt><trkpt lat="44.1318927" lon="10.4135721"><ele>368.0</ele><time>2026-04-18T13:11:57Z</time></trkpt><trkpt lat="44.1319451" lon="10.4134904"><ele>368.0</ele><time>2026-04-18T13:12:01Z</time></trkpt><trkpt lat="44.1320066" lon="10.4134493"><ele>368.0</ele><time>2026-04-18T13:12:35Z</time></trkpt><trkpt lat="44.13205" lon="10.413374"><ele>368.0</ele><time>2026-04-18T13:12:40Z</time></trkpt><trkpt lat="44.1321222" lon="10.4133939"><ele>368.0</ele><time>2026-04-18T13:12:45Z</time></trkpt><trkpt lat="44.1321912" lon="10.4134329"><ele>368.0</ele><time>2026-04-18T13:12:49Z</time></trkpt><trkpt lat="44.1322692" lon="10.4134595"><ele>368.0</ele><time>2026-04-18T13:12:53Z</time></trkpt><trkpt lat="44.1323317" lon="10.4134894"><ele>368.0</ele><time>2026-04-18T13:12:56Z</time></trkpt><trkpt lat="44.1324108" lon="10.4135212"><ele>368.83333333333337</ele><time>2026-04-18T13:13:00Z</time></trkpt><trkpt lat="44.1324895" lon="10.4135467"><ele>369.6666666666667</ele><time>2026-04-18T13:13:04Z</time></trkpt><trkpt lat="44.1325681" lon="10.4135766"><ele>370.5</ele><time>2026-04-18T13:13:08Z</time></trkpt><trkpt lat="44.132646" lon="10.4136134"><ele>371.3333333333333</ele><time>2026-04-18T13:13:12Z</time></trkpt><trkpt lat="44.1327224" lon="10.4136542"><ele>372.16666666666663</ele><time>2026-04-18T13:13:16Z</time></trkpt><trkpt lat="44.1327847" lon="10.4136806"><ele>373.0</ele><time>2026-04-18T13:13:18.96Z</time></trkpt><trkpt lat="44.1328584" lon="10.4136925"><ele>373.0</ele><time>2026-04-18T13:13:22Z</time></trkpt><trkpt lat="44.1329313" lon="10.4137304"><ele>373.0</ele><time>2026-04-18T13:13:25Z</time></trkpt><trkpt lat="44.1329985" lon="10.4137683"><ele>373.0</ele><time>2026-04-18T13:13:28Z</time></trkpt><trkpt lat="44.1330721" lon="10.4137957"><ele>373.0</ele><time>2026-04-18T13:13:31Z</time></trkpt><trkpt lat="44.1331441" lon="10.4138322"><ele>373.0</ele><time>2026-04-18T13:13:34Z</time></trkpt><trkpt lat="44.1332155" lon="10.4138517"><ele>373.0</ele><time>2026-04-18T13:13:37Z</time></trkpt><trkpt lat="44.1332871" lon="10.4138785"><ele>373.8333333333333</ele><time>2026-04-18T13:13:40Z</time></trkpt><trkpt lat="44.1333574" lon="10.4139158"><ele>374.66666666666663</ele><time>2026-04-18T13:13:43.021Z</time></trkpt><trkpt lat="44.1334211" lon="10.4139769"><ele>375.5</ele><time>2026-04-18T13:13:46Z</time></trkpt><trkpt lat="44.1334859" lon="10.4140411"><ele>376.3333333333333</ele><time>2026-04-18T13:13:49.016Z</time></trkpt><trkpt lat="44.1335563" lon="10.41409"><ele>377.1666666666667</ele><time>2026-04-18T13:13:52Z</time></trkpt><trkpt lat="44.1336215" lon="10.4141493"><ele>378.0</ele><time>2026-04-18T13:13:55.011Z</time></trkpt><trkpt lat="44.133683" lon="10.4142119"><ele>378.0</ele><time>2026-04-18T13:13:58Z</time></trkpt><trkpt lat="44.1337429" lon="10.4142818"><ele>378.0</ele><time>2026-04-18T13:14:01.006Z</time></trkpt><trkpt lat="44.1338066" lon="10.4143494"><ele>378.0</ele><time>2026-04-18T13:14:04Z</time></trkpt><trkpt lat="44.133882" lon="10.4144299"><ele>378.0</ele><time>2026-04-18T13:14:07.001Z</time></trkpt><trkpt lat="44.1339351" lon="10.4144817"><ele>378.0</ele><time>2026-04-18T13:14:09Z</time></trkpt><trkpt lat="44.1339771" lon="10.4145492"><ele>378.0</ele><time>2026-04-18T13:14:11Z</time></trkpt><trkpt lat="44.1340168" lon="10.4146173"><ele>378.0</ele><time>2026-04-18T13:14:13Z</time></trkpt><trkpt lat="44.1340803" lon="10.414691"><ele>378.57142857142856</ele><time>2026-04-18T13:14:16Z</time></trkpt><trkpt lat="44.1341313" lon="10.4147502"><ele>379.1428571428571</ele><time>2026-04-18T13:14:18Z</time></trkpt><trkpt lat="44.1341845" lon="10.4148068"><ele>379.7142857142857</ele><time>2026-04-18T13:14:20Z</time></trkpt><trkpt lat="44.1342368" lon="10.4148667"><ele>380.2857142857143</ele><time>2026-04-18T13:14:22Z</time></trkpt><trkpt lat="44.1342869" lon="10.4149286"><ele>380.85714285714283</ele><time>2026-04-18T13:14:24Z</time></trkpt><trkpt lat="44.1343588" lon="10.4150188"><ele>381.42857142857144</ele><time>2026-04-18T13:14:27Z</time></trkpt><trkpt lat="44.134414" lon="10.4150781"><ele>382.0</ele><time>2026-04-18T13:14:29Z</time></trkpt><trkpt lat="44.134467" lon="10.4151376"><ele>382.0</ele><time>2026-04-18T13:14:31Z</time></trkpt><trkpt lat="44.1345249" lon="10.4151988"><ele>382.0</ele><time>2026-04-18T13:14:33Z</time></trkpt><trkpt lat="44.1345847" lon="10.4152651"><ele>382.0</ele><time>2026-04-18T13:14:35Z</time></trkpt><trkpt lat="44.1346466" lon="10.4153288"><ele>382.0</ele><time>2026-04-18T13:14:37Z</time></trkpt><trkpt lat="44.1347044" lon="10.4153925"><ele>382.0</ele><time>2026-04-18T13:14:39Z</time></trkpt><trkpt lat="44.1347604" lon="10.4154557"><ele>382.0</ele><time>2026-04-18T13:14:41Z</time></trkpt><trkpt lat="44.1348249" lon="10.4155074"><ele>382.0</ele><time>2026-04-18T13:14:43Z</time></trkpt><trkpt lat="44.1348903" lon="10.4155488"><ele>382.3333333333333</ele><time>2026-04-18T13:14:45Z</time></trkpt><trkpt lat="44.1349603" lon="10.4155853"><ele>382.66666666666663</ele><time>2026-04-18T13:14:47Z</time></trkpt><trkpt lat="44.1350317" lon="10.4156193"><ele>383.0</ele><time>2026-04-18T13:14:48.999Z</time></trkpt><trkpt lat="44.1351039" lon="10.4156492"><ele>383.3333333333333</ele><time>2026-04-18T13:14:51Z</time></trkpt><trkpt lat="44.1351766" lon="10.4156825"><ele>383.6666666666667</ele><time>2026-04-18T13:14:53Z</time></trkpt><trkpt lat="44.1352498" lon="10.415719"><ele>384.0</ele><time>2026-04-18T13:14:55Z</time></trkpt><trkpt lat="44.1353234" lon="10.4157521"><ele>384.0</ele><time>2026-04-18T13:14:57Z</time></trkpt><trkpt lat="44.1353965" lon="10.4157841"><ele>384.0</ele><time>2026-04-18T13:14:59Z</time></trkpt><trkpt lat="44.1354707" lon="10.4158148"><ele>384.0</ele><time>2026-04-18T13:15:01Z</time></trkpt><trkpt lat="44.1355437" lon="10.4158479"><ele>384.0</ele><time>2026-04-18T13:15:03Z</time></trkpt><trkpt lat="44.1356151" lon="10.4158818"><ele>384.0</ele><time>2026-04-18T13:15:05Z</time></trkpt><trkpt lat="44.1356866" lon="10.4159173"><ele>384.0</ele><time>2026-04-18T13:15:07Z</time></trkpt><trkpt lat="44.1357577" lon="10.4159515"><ele>384.6666666666667</ele><time>2026-04-18T13:15:09Z</time></trkpt><trkpt lat="44.1358282" lon="10.4159854"><ele>385.33333333333337</ele><time>2026-04-18T13:15:11Z</time></trkpt><trkpt lat="44.1359037" lon="10.4160136"><ele>386.0</ele><time>2026-04-18T13:15:13Z</time></trkpt><trkpt lat="44.1359798" lon="10.4160439"><ele>386.6666666666667</ele><time>2026-04-18T13:15:15Z</time></trkpt><trkpt lat="44.1360529" lon="10.4160796"><ele>387.33333333333337</ele><time>2026-04-18T13:15:17Z</time></trkpt><trkpt lat="44.1361232" lon="10.4161198"><ele>388.0</ele><time>2026-04-18T13:15:19Z</time></trkpt><trkpt lat="44.1361952" lon="10.4161623"><ele>388.00000000000006</ele><time>2026-04-18T13:15:21Z</time></trkpt><trkpt lat="44.1362653" lon="10.4162121"><ele>388.0</ele><time>2026-04-18T13:15:23Z</time></trkpt><trkpt lat="44.1363309" lon="10.4162659"><ele>388.0</ele><time>2026-04-18T13:15:25Z</time></trkpt><trkpt lat="44.1363978" lon="10.4163278"><ele>388.0</ele><time>2026-04-18T13:15:27Z</time></trkpt><trkpt lat="44.1364632" lon="10.416392"><ele>388.00000000000006</ele><time>2026-04-18T13:15:29Z</time></trkpt><trkpt lat="44.1365279" lon="10.4164556"><ele>388.0</ele><time>2026-04-18T13:15:31Z</time></trkpt><trkpt lat="44.1365948" lon="10.41652"><ele>389.00000000000006</ele><time>2026-04-18T13:15:33Z</time></trkpt><trkpt lat="44.1366662" lon="10.4165867"><ele>390.0</ele><time>2026-04-18T13:15:35Z</time></trkpt><trkpt lat="44.1367326" lon="10.4166562"><ele>391.0</ele><time>2026-04-18T13:15:37Z</time></trkpt><trkpt lat="44.136798" lon="10.4167194"><ele>392.0</ele><time>2026-04-18T13:15:39Z</time></trkpt><trkpt lat="44.1368622" lon="10.4167843"><ele>393.00000000000006</ele><time>2026-04-18T13:15:41Z</time></trkpt><trkpt lat="44.1369263" lon="10.4168503"><ele>394.0</ele><time>2026-04-18T13:15:43Z</time></trkpt><trkpt lat="44.1369918" lon="10.416922"><ele>394.00000000000006</ele><time>2026-04-18T13:15:45Z</time></trkpt><trkpt lat="44.1370593" lon="10.4169884"><ele>394.0</ele><time>2026-04-18T13:15:47Z</time></trkpt><trkpt lat="44.1371282" lon="10.4170547"><ele>394.0</ele><time>2026-04-18T13:15:49Z</time></trkpt><trkpt lat="44.1371966" lon="10.4171226"><ele>394.0</ele><time>2026-04-18T13:15:51Z</time></trkpt><trkpt lat="44.1372633" lon="10.4171934"><ele>394.00000000000006</ele><time>2026-04-18T13:15:53Z</time></trkpt><trkpt lat="44.1373222" lon="10.4172657"><ele>394.0</ele><time>2026-04-18T13:15:55Z</time></trkpt><trkpt lat="44.1373816" lon="10.4173327"><ele>395.00000000000006</ele><time>2026-04-18T13:15:57Z</time></trkpt><trkpt lat="44.137441" lon="10.417395"><ele>396.0</ele><time>2026-04-18T13:15:59Z</time></trkpt><trkpt lat="44.1375037" lon="10.4174689"><ele>397.0</ele><time>2026-04-18T13:16:01Z</time></trkpt><trkpt lat="44.1375691" lon="10.4175391"><ele>398.0</ele><time>2026-04-18T13:16:03Z</time></trkpt><trkpt lat="44.1376352" lon="10.4176048"><ele>399.00000000000006</ele><time>2026-04-18T13:16:05Z</time></trkpt><trkpt lat="44.1376974" lon="10.4176774"><ele>400.0</ele><time>2026-04-18T13:16:07Z</time></trkpt><trkpt lat="44.1377656" lon="10.4177438"><ele>400.00000000000006</ele><time>2026-04-18T13:16:09Z</time></trkpt><trkpt lat="44.1378324" lon="10.417814"><ele>400.0</ele><time>2026-04-18T13:16:11Z</time></trkpt><trkpt lat="44.1378973" lon="10.4178886"><ele>400.0</ele><time>2026-04-18T13:16:13Z</time></trkpt><trkpt lat="44.137969" lon="10.4179608"><ele>400.0</ele><time>2026-04-18T13:16:15Z</time></trkpt><trkpt lat="44.1380454" lon="10.4180232"><ele>400.00000000000006</ele><time>2026-04-18T13:16:17Z</time></trkpt><trkpt lat="44.1381326" lon="10.4180758"><ele>400.0</ele><time>2026-04-18T13:16:19Z</time></trkpt><trkpt lat="44.1382291" lon="10.41813"><ele>400.6</ele><time>2026-04-18T13:16:21Z</time></trkpt><trkpt lat="44.1383388" lon="10.4181795"><ele>401.2</ele><time>2026-04-18T13:16:23Z</time></trkpt><trkpt lat="44.138455" lon="10.4182224"><ele>401.79999999999995</ele><time>2026-04-18T13:16:25Z</time></trkpt><trkpt lat="44.1385815" lon="10.4182342"><ele>402.4</ele><time>2026-04-18T13:16:27Z</time></trkpt><trkpt lat="44.1386493" lon="10.4182344"><ele>403.0</ele><time>2026-04-18T13:16:28Z</time></trkpt><trkpt lat="44.1387194" lon="10.418223"><ele>403.0</ele><time>2026-04-18T13:16:29Z</time></trkpt><trkpt lat="44.1387862" lon="10.4182182"><ele>403.0</ele><time>2026-04-18T13:16:30Z</time></trkpt><trkpt lat="44.1388577" lon="10.4182125"><ele>403.0</ele><time>2026-04-18T13:16:31Z</time></trkpt><trkpt lat="44.138931" lon="10.418209"><ele>403.0</ele><time>2026-04-18T13:16:32Z</time></trkpt><trkpt lat="44.1390063" lon="10.4182094"><ele>403.0</ele><time>2026-04-18T13:16:33Z</time></trkpt><trkpt lat="44.1390845" lon="10.4182159"><ele>403.0</ele><time>2026-04-18T13:16:34Z</time></trkpt><trkpt lat="44.1391629" lon="10.4182334"><ele>403.0</ele><time>2026-04-18T13:16:35Z</time></trkpt><trkpt lat="44.1392438" lon="10.4182501"><ele>401.83333333333337</ele><time>2026-04-18T13:16:36Z</time></trkpt><trkpt lat="44.1393242" lon="10.4182598"><ele>400.6666666666667</ele><time>2026-04-18T13:16:37Z</time></trkpt><trkpt lat="44.1393988" lon="10.41826"><ele>399.5</ele><time>2026-04-18T13:16:38Z</time></trkpt><trkpt lat="44.1394773" lon="10.4182547"><ele>398.33333333333337</ele><time>2026-04-18T13:16:39Z</time></trkpt><trkpt lat="44.139553" lon="10.4182521"><ele>397.1666666666667</ele><time>2026-04-18T13:16:40Z</time></trkpt><trkpt lat="44.1396279" lon="10.4182407"><ele>396.0</ele><time>2026-04-18T13:16:41Z</time></trkpt><trkpt lat="44.1397057" lon="10.4182245"><ele>396.0</ele><time>2026-04-18T13:16:42Z</time></trkpt><trkpt lat="44.1397841" lon="10.4182112"><ele>396.0</ele><time>2026-04-18T13:16:43Z</time></trkpt><trkpt lat="44.1398631" lon="10.4182001"><ele>396.0</ele><time>2026-04-18T13:16:44Z</time></trkpt><trkpt lat="44.1399432" lon="10.4181887"><ele>396.0</ele><time>2026-04-18T13:16:45Z</time></trkpt><trkpt lat="44.1400208" lon="10.4181833"><ele>396.0</ele><time>2026-04-18T13:16:46Z</time></trkpt><trkpt lat="44.1401022" lon="10.4181672"><ele>396.0</ele><time>2026-04-18T13:16:47Z</time></trkpt><trkpt lat="44.1401775" lon="10.4181385"><ele>396.0</ele><time>2026-04-18T13:16:48Z</time></trkpt><trkpt lat="44.1402472" lon="10.4180924"><ele>396.0</ele><time>2026-04-18T13:16:49Z</time></trkpt><trkpt lat="44.1403078" lon="10.4180254"><ele>396.0</ele><time>2026-04-18T13:16:50Z</time></trkpt><trkpt lat="44.1403617" lon="10.4179356"><ele>396.0</ele><time>2026-04-18T13:16:51Z</time></trkpt><trkpt lat="44.1404006" lon="10.417835"><ele>396.0</ele><time>2026-04-18T13:16:52Z</time></trkpt><trkpt lat="44.1404265" lon="10.4177307"><ele>396.0</ele><time>2026-04-18T13:16:53Z</time></trkpt><trkpt lat="44.1404382" lon="10.4176239"><ele>394.14285714285717</ele><time>2026-04-18T13:16:54Z</time></trkpt><trkpt lat="44.1404532" lon="10.4175128"><ele>392.2857142857143</ele><time>2026-04-18T13:16:55Z</time></trkpt><trkpt lat="44.1404686" lon="10.4174067"><ele>390.42857142857144</ele><time>2026-04-18T13:16:55.999Z</time></trkpt><trkpt lat="44.1404801" lon="10.417305"><ele>388.57142857142856</ele><time>2026-04-18T13:16:57Z</time></trkpt><trkpt lat="44.1404917" lon="10.4172062"><ele>386.71428571428567</ele><time>2026-04-18T13:16:58Z</time></trkpt><trkpt lat="44.140501" lon="10.4171061"><ele>384.85714285714283</ele><time>2026-04-18T13:16:59Z</time></trkpt><trkpt lat="44.1405115" lon="10.4170136"><ele>383.0</ele><time>2026-04-18T13:17:00Z</time></trkpt><trkpt lat="44.1405302" lon="10.4168428"><ele>382.0</ele><time>2026-04-18T13:17:02Z</time></trkpt><trkpt lat="44.1405375" lon="10.4167543"><ele>381.0</ele><time>2026-04-18T13:17:03Z</time></trkpt><trkpt lat="44.1405582" lon="10.4165943"><ele>380.0</ele><time>2026-04-18T13:17:05Z</time></trkpt><trkpt lat="44.1405793" lon="10.4164446"><ele>379.0</ele><time>2026-04-18T13:17:07Z</time></trkpt><trkpt lat="44.1406083" lon="10.4163053"><ele>378.0</ele><time>2026-04-18T13:17:09Z</time></trkpt><trkpt lat="44.140626" lon="10.4161676"><ele>377.8333333333333</ele><time>2026-04-18T13:17:11Z</time></trkpt><trkpt lat="44.1406453" lon="10.4160388"><ele>377.6666666666667</ele><time>2026-04-18T13:17:13Z</time></trkpt><trkpt lat="44.1406633" lon="10.4159179"><ele>377.5</ele><time>2026-04-18T13:17:15Z</time></trkpt><trkpt lat="44.1406729" lon="10.4158036"><ele>377.33333333333337</ele><time>2026-04-18T13:17:17Z</time></trkpt><trkpt lat="44.1406807" lon="10.4157038"><ele>377.1666666666667</ele><time>2026-04-18T13:17:19Z</time></trkpt><trkpt lat="44.1407003" lon="10.4156038"><ele>377.0</ele><time>2026-04-18T13:17:21Z</time></trkpt><trkpt lat="44.1407159" lon="10.4155076"><ele>377.1428571428571</ele><time>2026-04-18T13:17:23Z</time></trkpt><trkpt lat="44.1407118" lon="10.4154107"><ele>377.2857142857143</ele><time>2026-04-18T13:17:25Z</time></trkpt><trkpt lat="44.1407079" lon="10.4153075"><ele>377.42857142857144</ele><time>2026-04-18T13:17:27Z</time></trkpt><trkpt lat="44.1407087" lon="10.4152009"><ele>377.57142857142856</ele><time>2026-04-18T13:17:29Z</time></trkpt><trkpt lat="44.1407052" lon="10.4150955"><ele>377.7142857142857</ele><time>2026-04-18T13:17:31Z</time></trkpt><trkpt lat="44.1407018" lon="10.4149905"><ele>377.85714285714283</ele><time>2026-04-18T13:17:33Z</time></trkpt><trkpt lat="44.1406961" lon="10.4148855"><ele>378.0</ele><time>2026-04-18T13:17:35Z</time></trkpt><trkpt lat="44.1406922" lon="10.4147831"><ele>378.0</ele><time>2026-04-18T13:17:37Z</time></trkpt><trkpt lat="44.1406922" lon="10.4146812"><ele>378.0</ele><time>2026-04-18T13:17:39Z</time></trkpt><trkpt lat="44.1406842" lon="10.4145759"><ele>378.0</ele><time>2026-04-18T13:17:41Z</time></trkpt><trkpt lat="44.140677" lon="10.414471"><ele>378.0</ele><time>2026-04-18T13:17:43Z</time></trkpt><trkpt lat="44.1406893" lon="10.4143699"><ele>378.0</ele><time>2026-04-18T13:17:45Z</time></trkpt><trkpt lat="44.1407223" lon="10.4142745"><ele>378.0</ele><time>2026-04-18T13:17:47Z</time></trkpt><trkpt lat="44.1407743" lon="10.4142025"><ele>378.0</ele><time>2026-04-18T13:17:49Z</time></trkpt><trkpt lat="44.1408485" lon="10.4141628"><ele>380.5</ele><time>2026-04-18T13:17:51Z</time></trkpt><trkpt lat="44.1409264" lon="10.4141715"><ele>383.0</ele><time>2026-04-18T13:17:53Z</time></trkpt><trkpt lat="44.1409943" lon="10.4142305"><ele>385.5</ele><time>2026-04-18T13:17:55Z</time></trkpt><trkpt lat="44.1410368" lon="10.4143219"><ele>388.0</ele><time>2026-04-18T13:17:57Z</time></trkpt><trkpt lat="44.1410559" lon="10.4144319"><ele>390.5</ele><time>2026-04-18T13:17:59Z</time></trkpt><trkpt lat="44.1410694" lon="10.4145407"><ele>393.0</ele><time>2026-04-18T13:18:01Z</time></trkpt><trkpt lat="44.1410848" lon="10.414647"><ele>392.0</ele><time>2026-04-18T13:18:03Z</time></trkpt><trkpt lat="44.1411126" lon="10.4147453"><ele>391.0</ele><time>2026-04-18T13:18:05Z</time></trkpt><trkpt lat="44.1411563" lon="10.4148286"><ele>390.0</ele><time>2026-04-18T13:18:07Z</time></trkpt><trkpt lat="44.1412181" lon="10.4148882"><ele>389.0</ele><time>2026-04-18T13:18:09Z</time></trkpt><trkpt lat="44.1412899" lon="10.4149196"><ele>388.0</ele><time>2026-04-18T13:18:11Z</time></trkpt><trkpt lat="44.1413664" lon="10.4149286"><ele>387.0</ele><time>2026-04-18T13:18:13Z</time></trkpt><trkpt lat="44.1414431" lon="10.41492"><ele>387.0</ele><time>2026-04-18T13:18:15Z</time></trkpt><trkpt lat="44.1415163" lon="10.4149036"><ele>387.0</ele><time>2026-04-18T13:18:17Z</time></trkpt><trkpt lat="44.1415916" lon="10.4148852"><ele>387.0</ele><time>2026-04-18T13:18:19Z</time></trkpt><trkpt lat="44.1416706" lon="10.4148695"><ele>387.0</ele><time>2026-04-18T13:18:21Z</time></trkpt><trkpt lat="44.1417463" lon="10.4148587"><ele>387.0</ele><time>2026-04-18T13:18:23Z</time></trkpt><trkpt lat="44.1418216" lon="10.4148515"><ele>387.0</ele><time>2026-04-18T13:18:25Z</time></trkpt><trkpt lat="44.1418984" lon="10.4148485"><ele>388.6666666666667</ele><time>2026-04-18T13:18:27Z</time></trkpt><trkpt lat="44.1419791" lon="10.4148506"><ele>390.33333333333337</ele><time>2026-04-18T13:18:29Z</time></trkpt><trkpt lat="44.1420604" lon="10.4148673"><ele>392.0</ele><time>2026-04-18T13:18:31Z</time></trkpt><trkpt lat="44.1421383" lon="10.4148846"><ele>393.6666666666667</ele><time>2026-04-18T13:18:33Z</time></trkpt><trkpt lat="44.1422091" lon="10.414898"><ele>395.33333333333337</ele><time>2026-04-18T13:18:35Z</time></trkpt><trkpt lat="44.1422802" lon="10.4149103"><ele>397.0</ele><time>2026-04-18T13:18:37Z</time></trkpt><trkpt lat="44.1423527" lon="10.4149208"><ele>398.00000000000006</ele><time>2026-04-18T13:18:39Z</time></trkpt><trkpt lat="44.1424213" lon="10.4149338"><ele>399.0</ele><time>2026-04-18T13:18:41Z</time></trkpt><trkpt lat="44.1424916" lon="10.414947"><ele>400.0</ele><time>2026-04-18T13:18:43Z</time></trkpt><trkpt lat="44.1425726" lon="10.4149605"><ele>401.0</ele><time>2026-04-18T13:18:45Z</time></trkpt><trkpt lat="44.1426667" lon="10.4149662"><ele>402.00000000000006</ele><time>2026-04-18T13:18:47Z</time></trkpt><trkpt lat="44.142752" lon="10.4149596"><ele>403.0</ele><time>2026-04-18T13:18:49Z</time></trkpt><trkpt lat="44.1428343" lon="10.4149462"><ele>403.00000000000006</ele><time>2026-04-18T13:18:51Z</time></trkpt><trkpt lat="44.1429152" lon="10.414922"><ele>403.0</ele><time>2026-04-18T13:18:53Z</time></trkpt><trkpt lat="44.1429977" lon="10.4148979"><ele>403.0</ele><time>2026-04-18T13:18:55Z</time></trkpt><trkpt lat="44.1430784" lon="10.4148791"><ele>403.0</ele><time>2026-04-18T13:18:57Z</time></trkpt><trkpt lat="44.1431702" lon="10.4148685"><ele>403.00000000000006</ele><time>2026-04-18T13:18:59Z</time></trkpt><trkpt lat="44.1432588" lon="10.4148838"><ele>403.0</ele><time>2026-04-18T13:19:01Z</time></trkpt><trkpt lat="44.1433428" lon="10.4149043"><ele>405.00000000000006</ele><time>2026-04-18T13:19:03Z</time></trkpt><trkpt lat="44.1434204" lon="10.4149298"><ele>407.0</ele><time>2026-04-18T13:19:05Z</time></trkpt><trkpt lat="44.1434954" lon="10.4149585"><ele>409.0</ele><time>2026-04-18T13:19:07Z</time></trkpt><trkpt lat="44.1435707" lon="10.4149843"><ele>411.0</ele><time>2026-04-18T13:19:09Z</time></trkpt><trkpt lat="44.1436453" lon="10.4150132"><ele>413.00000000000006</ele><time>2026-04-18T13:19:11Z</time></trkpt><trkpt lat="44.1437226" lon="10.4150374"><ele>415.0</ele><time>2026-04-18T13:19:13Z</time></trkpt><trkpt lat="44.1437985" lon="10.4150612"><ele>415.00000000000006</ele><time>2026-04-18T13:19:15Z</time></trkpt><trkpt lat="44.143871" lon="10.4150863"><ele>415.0</ele><time>2026-04-18T13:19:16.999Z</time></trkpt><trkpt lat="44.1439373" lon="10.4151242"><ele>415.0</ele><time>2026-04-18T13:19:19Z</time></trkpt><trkpt lat="44.1440035" lon="10.4151512"><ele>415.0</ele><time>2026-04-18T13:19:21Z</time></trkpt><trkpt lat="44.1440786" lon="10.4151488"><ele>415.00000000000006</ele><time>2026-04-18T13:19:23Z</time></trkpt><trkpt lat="44.1441389" lon="10.4150725"><ele>415.0</ele><time>2026-04-18T13:19:25Z</time></trkpt><trkpt lat="44.1441455" lon="10.4149551"><ele>415.00000000000006</ele><time>2026-04-18T13:19:27Z</time></trkpt><trkpt lat="44.1441091" lon="10.4148584"><ele>415.0</ele><time>2026-04-18T13:19:29Z</time></trkpt><trkpt lat="44.1440442" lon="10.4147949"><ele>415.0</ele><time>2026-04-18T13:19:31Z</time></trkpt><trkpt lat="44.1439701" lon="10.4147519"><ele>415.0</ele><time>2026-04-18T13:19:33Z</time></trkpt><trkpt lat="44.1438937" lon="10.4147195"><ele>415.00000000000006</ele><time>2026-04-18T13:19:34.999Z</time></trkpt><trkpt lat="44.1438153" lon="10.414701"><ele>415.0</ele><time>2026-04-18T13:19:37Z</time></trkpt><trkpt lat="44.1437382" lon="10.414682"><ele>415.00000000000006</ele><time>2026-04-18T13:19:39Z</time></trkpt><trkpt lat="44.1436607" lon="10.4146682"><ele>415.0</ele><time>2026-04-18T13:19:41Z</time></trkpt><trkpt lat="44.1435814" lon="10.4146519"><ele>415.0</ele><time>2026-04-18T13:19:43Z</time></trkpt><trkpt lat="44.1435082" lon="10.4146132"><ele>415.0</ele><time>2026-04-18T13:19:45Z</time></trkpt><trkpt lat="44.1434478" lon="10.414544"><ele>415.00000000000006</ele><time>2026-04-18T13:19:47Z</time></trkpt><trkpt lat="44.1434113" lon="10.4144415"><ele>415.0</ele><time>2026-04-18T13:19:49Z</time></trkpt><trkpt lat="44.1434016" lon="10.4143269"><ele>416.6666666666667</ele><time>2026-04-18T13:19:51Z</time></trkpt><trkpt lat="44.1434048" lon="10.4142073"><ele>418.33333333333337</ele><time>2026-04-18T13:19:53Z</time></trkpt><trkpt lat="44.1434053" lon="10.4140897"><ele>420.0</ele><time>2026-04-18T13:19:55Z</time></trkpt><trkpt lat="44.1434102" lon="10.4139732"><ele>421.66666666666663</ele><time>2026-04-18T13:19:57Z</time></trkpt><trkpt lat="44.1434121" lon="10.4138599"><ele>423.3333333333333</ele><time>2026-04-18T13:19:59Z</time></trkpt><trkpt lat="44.1434089" lon="10.4137484"><ele>425.0</ele><time>2026-04-18T13:20:01Z</time></trkpt><trkpt lat="44.1433956" lon="10.413637"><ele>425.99999999999994</ele><time>2026-04-18T13:20:03Z</time></trkpt><trkpt lat="44.1433732" lon="10.4135232"><ele>427.0</ele><time>2026-04-18T13:20:05Z</time></trkpt><trkpt lat="44.1433547" lon="10.413407"><ele>428.0</ele><time>2026-04-18T13:20:07Z</time></trkpt><trkpt lat="44.1433297" lon="10.4132959"><ele>429.0</ele><time>2026-04-18T13:20:09Z</time></trkpt><trkpt lat="44.1433054" lon="10.4131846"><ele>429.99999999999994</ele><time>2026-04-18T13:20:11Z</time></trkpt><trkpt lat="44.1432814" lon="10.4130736"><ele>431.0</ele><time>2026-04-18T13:20:13Z</time></trkpt><trkpt lat="44.1432392" lon="10.41297"><ele>430.66666666666663</ele><time>2026-04-18T13:20:15Z</time></trkpt><trkpt lat="44.143172" lon="10.4128962"><ele>430.3333333333333</ele><time>2026-04-18T13:20:17Z</time></trkpt><trkpt lat="44.1430906" lon="10.4128611"><ele>430.0</ele><time>2026-04-18T13:20:19Z</time></trkpt><trkpt lat="44.1430096" lon="10.4128407"><ele>429.66666666666663</ele><time>2026-04-18T13:20:21Z</time></trkpt><trkpt lat="44.1429268" lon="10.4128225"><ele>429.3333333333333</ele><time>2026-04-18T13:20:23Z</time></trkpt><trkpt lat="44.1428479" lon="10.4128102"><ele>429.0</ele><time>2026-04-18T13:20:25Z</time></trkpt><trkpt lat="44.142777" lon="10.4127529"><ele>429.0</ele><time>2026-04-18T13:20:27Z</time></trkpt><trkpt lat="44.1427299" lon="10.4126492"><ele>429.0</ele><time>2026-04-18T13:20:29Z</time></trkpt><trkpt lat="44.1427269" lon="10.4125237"><ele>429.0</ele><time>2026-04-18T13:20:31Z</time></trkpt><trkpt lat="44.1427723" lon="10.4124214"><ele>429.0</ele><time>2026-04-18T13:20:33Z</time></trkpt><trkpt lat="44.1428446" lon="10.4123583"><ele>429.0</ele><time>2026-04-18T13:20:35Z</time></trkpt><trkpt lat="44.14293" lon="10.4123188"><ele>429.0</ele><time>2026-04-18T13:20:37Z</time></trkpt><trkpt lat="44.1430158" lon="10.4122796"><ele>429.0</ele><time>2026-04-18T13:20:39Z</time></trkpt><trkpt lat="44.1430987" lon="10.4122402"><ele>429.0</ele><time>2026-04-18T13:20:41Z</time></trkpt><trkpt lat="44.1431811" lon="10.4122026"><ele>429.0</ele><time>2026-04-18T13:20:43Z</time></trkpt><trkpt lat="44.1432622" lon="10.4121701"><ele>429.0</ele><time>2026-04-18T13:20:45Z</time></trkpt><trkpt lat="44.143344" lon="10.412144"><ele>429.0</ele><time>2026-04-18T13:20:47Z</time></trkpt><trkpt lat="44.1434269" lon="10.4121169"><ele>429.0</ele><time>2026-04-18T13:20:49Z</time></trkpt><trkpt lat="44.1435116" lon="10.4120961"><ele>430.8333333333333</ele><time>2026-04-18T13:20:51Z</time></trkpt><trkpt lat="44.1435943" lon="10.4120805"><ele>432.66666666666663</ele><time>2026-04-18T13:20:53Z</time></trkpt><trkpt lat="44.1436774" lon="10.4120568"><ele>434.5</ele><time>2026-04-18T13:20:55Z</time></trkpt><trkpt lat="44.1437552" lon="10.4120104"><ele>436.3333333333333</ele><time>2026-04-18T13:20:56.999Z</time></trkpt><trkpt lat="44.1438203" lon="10.4119411"><ele>438.16666666666663</ele><time>2026-04-18T13:20:59Z</time></trkpt><trkpt lat="44.1438715" lon="10.4118714"><ele>440.0</ele><time>2026-04-18T13:21:01Z</time></trkpt><trkpt lat="44.1439247" lon="10.4117895"><ele>439.99999999999994</ele><time>2026-04-18T13:21:03Z</time></trkpt><trkpt lat="44.1439726" lon="10.411706"><ele>440.0</ele><time>2026-04-18T13:21:05Z</time></trkpt><trkpt lat="44.1440167" lon="10.4116098"><ele>440.0</ele><time>2026-04-18T13:21:07Z</time></trkpt><trkpt lat="44.1440358" lon="10.4114999"><ele>440.0</ele><time>2026-04-18T13:21:09Z</time></trkpt><trkpt lat="44.1440382" lon="10.4113917"><ele>439.99999999999994</ele><time>2026-04-18T13:21:10.999Z</time></trkpt><trkpt lat="44.1440127" lon="10.4112798"><ele>440.0</ele><time>2026-04-18T13:21:12.999Z</time></trkpt><trkpt lat="44.1439673" lon="10.4111798"><ele>441.16666666666663</ele><time>2026-04-18T13:21:15Z</time></trkpt><trkpt lat="44.1439097" lon="10.4110972"><ele>442.3333333333333</ele><time>2026-04-18T13:21:17Z</time></trkpt><trkpt lat="44.143841" lon="10.4110323"><ele>443.5</ele><time>2026-04-18T13:21:19Z</time></trkpt><trkpt lat="44.1437697" lon="10.4109641"><ele>444.66666666666663</ele><time>2026-04-18T13:21:21Z</time></trkpt><trkpt lat="44.1437013" lon="10.4108933"><ele>445.8333333333333</ele><time>2026-04-18T13:21:23Z</time></trkpt><trkpt lat="44.1436333" lon="10.4108206"><ele>447.0</ele><time>2026-04-18T13:21:25Z</time></trkpt><trkpt lat="44.1435649" lon="10.4107467"><ele>447.0</ele><time>2026-04-18T13:21:27Z</time></trkpt><trkpt lat="44.1434995" lon="10.4106809"><ele>447.0</ele><time>2026-04-18T13:21:29Z</time></trkpt><trkpt lat="44.143433" lon="10.4105949"><ele>447.0</ele><time>2026-04-18T13:21:31Z</time></trkpt><trkpt lat="44.143407" lon="10.4104849"><ele>447.0</ele><time>2026-04-18T13:21:33Z</time></trkpt><trkpt lat="44.1434396" lon="10.4103714"><ele>447.0</ele><time>2026-04-18T13:21:35Z</time></trkpt><trkpt lat="44.1435276" lon="10.4102935"><ele>447.0</ele><time>2026-04-18T13:21:37Z</time></trkpt><trkpt lat="44.1436171" lon="10.410253"><ele>447.5</ele><time>2026-04-18T13:21:39Z</time></trkpt><trkpt lat="44.1437022" lon="10.4102098"><ele>448.0</ele><time>2026-04-18T13:21:41Z</time></trkpt><trkpt lat="44.1437882" lon="10.4101713"><ele>448.5</ele><time>2026-04-18T13:21:43Z</time></trkpt><trkpt lat="44.1438702" lon="10.4101312"><ele>449.0</ele><time>2026-04-18T13:21:45Z</time></trkpt><trkpt lat="44.1439513" lon="10.410086"><ele>449.5</ele><time>2026-04-18T13:21:47Z</time></trkpt><trkpt lat="44.1440354" lon="10.4100753"><ele>450.0</ele><time>2026-04-18T13:21:49Z</time></trkpt><trkpt lat="44.1441181" lon="10.4100865"><ele>452.3333333333333</ele><time>2026-04-18T13:21:51Z</time></trkpt><trkpt lat="44.1442017" lon="10.4101094"><ele>454.66666666666663</ele><time>2026-04-18T13:21:53Z</time></trkpt><trkpt lat="44.1442842" lon="10.4101375"><ele>457.0</ele><time>2026-04-18T13:21:55Z</time></trkpt><trkpt lat="44.1443662" lon="10.4101643"><ele>459.3333333333333</ele><time>2026-04-18T13:21:57Z</time></trkpt><trkpt lat="44.144449" lon="10.4101923"><ele>461.66666666666663</ele><time>2026-04-18T13:21:59Z</time></trkpt><trkpt lat="44.1445367" lon="10.4102199"><ele>464.0</ele><time>2026-04-18T13:22:01Z</time></trkpt><trkpt lat="44.1446202" lon="10.4102521"><ele>463.99999999999994</ele><time>2026-04-18T13:22:03Z</time></trkpt><trkpt lat="44.1446991" lon="10.4102791"><ele>464.0</ele><time>2026-04-18T13:22:05Z</time></trkpt><trkpt lat="44.144783" lon="10.4103015"><ele>464.0</ele><time>2026-04-18T13:22:07Z</time></trkpt><trkpt lat="44.1448693" lon="10.4103312"><ele>464.0</ele><time>2026-04-18T13:22:09Z</time></trkpt><trkpt lat="44.1449559" lon="10.4103678"><ele>463.99999999999994</ele><time>2026-04-18T13:22:11Z</time></trkpt><trkpt lat="44.1450397" lon="10.410401"><ele>464.0</ele><time>2026-04-18T13:22:13Z</time></trkpt><trkpt lat="44.1451247" lon="10.4104388"><ele>465.16666666666663</ele><time>2026-04-18T13:22:15Z</time></trkpt><trkpt lat="44.1452099" lon="10.4104746"><ele>466.3333333333333</ele><time>2026-04-18T13:22:17Z</time></trkpt><trkpt lat="44.1452961" lon="10.4105032"><ele>467.5</ele><time>2026-04-18T13:22:19Z</time></trkpt><trkpt lat="44.1453822" lon="10.4105381"><ele>468.66666666666663</ele><time>2026-04-18T13:22:21Z</time></trkpt><trkpt lat="44.1454663" lon="10.4105689"><ele>469.8333333333333</ele><time>2026-04-18T13:22:23Z</time></trkpt><trkpt lat="44.1455493" lon="10.4105894"><ele>471.0</ele><time>2026-04-18T13:22:25Z</time></trkpt><trkpt lat="44.1456278" lon="10.4106191"><ele>471.3333333333333</ele><time>2026-04-18T13:22:27Z</time></trkpt><trkpt lat="44.1457072" lon="10.4106483"><ele>471.66666666666663</ele><time>2026-04-18T13:22:29Z</time></trkpt><trkpt lat="44.145788" lon="10.4106761"><ele>472.0</ele><time>2026-04-18T13:22:31Z</time></trkpt><trkpt lat="44.1458699" lon="10.4107039"><ele>472.3333333333333</ele><time>2026-04-18T13:22:33Z</time></trkpt><trkpt lat="44.145953" lon="10.4107365"><ele>472.66666666666663</ele><time>2026-04-18T13:22:35Z</time></trkpt><trkpt lat="44.1460361" lon="10.4107636"><ele>473.0</ele><time>2026-04-18T13:22:37Z</time></trkpt><trkpt lat="44.1461202" lon="10.4107935"><ele>473.3333333333333</ele><time>2026-04-18T13:22:39Z</time></trkpt><trkpt lat="44.1462061" lon="10.4108226"><ele>473.66666666666663</ele><time>2026-04-18T13:22:41Z</time></trkpt><trkpt lat="44.1462779" lon="10.4108418"><ele>474.0</ele><time>2026-04-18T13:22:43Z</time></trkpt><trkpt lat="44.1463472" lon="10.4108625"><ele>474.33333333333337</ele><time>2026-04-18T13:22:45Z</time></trkpt><trkpt lat="44.1464158" lon="10.4108878"><ele>474.6666666666667</ele><time>2026-04-18T13:22:47Z</time></trkpt><trkpt lat="44.1464851" lon="10.4109262"><ele>475.0</ele><time>2026-04-18T13:22:49Z</time></trkpt><trkpt lat="44.1465525" lon="10.4109787"><ele>475.83333333333337</ele><time>2026-04-18T13:22:51Z</time></trkpt><trkpt lat="44.1466164" lon="10.4110406"><ele>476.6666666666667</ele><time>2026-04-18T13:22:53Z</time></trkpt><trkpt lat="44.1466737" lon="10.4111142"><ele>477.5</ele><time>2026-04-18T13:22:55Z</time></trkpt><trkpt lat="44.1467323" lon="10.4111971"><ele>478.33333333333337</ele><time>2026-04-18T13:22:57Z</time></trkpt><trkpt lat="44.1467899" lon="10.4112849"><ele>479.1666666666667</ele><time>2026-04-18T13:22:59Z</time></trkpt><trkpt lat="44.1468454" lon="10.4113706"><ele>480.0</ele><time>2026-04-18T13:23:01Z</time></trkpt><trkpt lat="44.1469016" lon="10.4114565"><ele>481.1666666666667</ele><time>2026-04-18T13:23:03Z</time></trkpt><trkpt lat="44.1469587" lon="10.4115388"><ele>482.33333333333337</ele><time>2026-04-18T13:23:05Z</time></trkpt><trkpt lat="44.1470149" lon="10.4116184"><ele>483.5</ele><time>2026-04-18T13:23:07Z</time></trkpt><trkpt lat="44.1470725" lon="10.4117008"><ele>484.6666666666667</ele><time>2026-04-18T13:23:09Z</time></trkpt><trkpt lat="44.1471308" lon="10.4117829"><ele>485.83333333333337</ele><time>2026-04-18T13:23:11Z</time></trkpt><trkpt lat="44.1471867" lon="10.4118674"><ele>487.0</ele><time>2026-04-18T13:23:13Z</time></trkpt><trkpt lat="44.1472441" lon="10.4119528"><ele>487.00000000000006</ele><time>2026-04-18T13:23:15Z</time></trkpt><trkpt lat="44.1473055" lon="10.4120393"><ele>487.0</ele><time>2026-04-18T13:23:17Z</time></trkpt><trkpt lat="44.1473663" lon="10.4121261"><ele>487.0</ele><time>2026-04-18T13:23:19Z</time></trkpt><trkpt lat="44.1474277" lon="10.412213"><ele>487.0</ele><time>2026-04-18T13:23:21Z</time></trkpt><trkpt lat="44.1474876" lon="10.4123003"><ele>487.00000000000006</ele><time>2026-04-18T13:23:23Z</time></trkpt><trkpt lat="44.1475505" lon="10.4123851"><ele>487.0</ele><time>2026-04-18T13:23:25Z</time></trkpt><trkpt lat="44.1476106" lon="10.4124731"><ele>487.6666666666667</ele><time>2026-04-18T13:23:27Z</time></trkpt><trkpt lat="44.1476732" lon="10.4125579"><ele>488.33333333333337</ele><time>2026-04-18T13:23:29Z</time></trkpt><trkpt lat="44.1477352" lon="10.4126476"><ele>489.0</ele><time>2026-04-18T13:23:31Z</time></trkpt><trkpt lat="44.1477979" lon="10.4127382"><ele>489.66666666666663</ele><time>2026-04-18T13:23:33Z</time></trkpt><trkpt lat="44.1478619" lon="10.4128258"><ele>490.3333333333333</ele><time>2026-04-18T13:23:35Z</time></trkpt><trkpt lat="44.1479231" lon="10.4129153"><ele>491.0</ele><time>2026-04-18T13:23:37Z</time></trkpt><trkpt lat="44.1479823" lon="10.4129995"><ele>490.99999999999994</ele><time>2026-04-18T13:23:39Z</time></trkpt><trkpt lat="44.1480373" lon="10.4130849"><ele>491.0</ele><time>2026-04-18T13:23:41Z</time></trkpt><trkpt lat="44.1481017" lon="10.4131432"><ele>491.0</ele><time>2026-04-18T13:23:43Z</time></trkpt><trkpt lat="44.1481859" lon="10.4131054"><ele>491.0</ele><time>2026-04-18T13:23:45Z</time></trkpt><trkpt lat="44.1482131" lon="10.4129872"><ele>490.99999999999994</ele><time>2026-04-18T13:23:47Z</time></trkpt><trkpt lat="44.1481869" lon="10.412853"><ele>491.0</ele><time>2026-04-18T13:23:49Z</time></trkpt><trkpt lat="44.148162" lon="10.4127363"><ele>490.99999999999994</ele><time>2026-04-18T13:23:51Z</time></trkpt><trkpt lat="44.1481458" lon="10.4126195"><ele>491.0</ele><time>2026-04-18T13:23:53Z</time></trkpt><trkpt lat="44.1481262" lon="10.4125007"><ele>491.0</ele><time>2026-04-18T13:23:55Z</time></trkpt><trkpt lat="44.1481021" lon="10.4123815"><ele>491.0</ele><time>2026-04-18T13:23:57Z</time></trkpt><trkpt lat="44.1480772" lon="10.4122542"><ele>490.99999999999994</ele><time>2026-04-18T13:23:59Z</time></trkpt><trkpt lat="44.1480581" lon="10.4121389"><ele>491.0</ele><time>2026-04-18T13:24:01Z</time></trkpt><trkpt lat="44.1480382" lon="10.4120244"><ele>490.8333333333333</ele><time>2026-04-18T13:24:03Z</time></trkpt><trkpt lat="44.1480214" lon="10.4119042"><ele>490.66666666666663</ele><time>2026-04-18T13:24:05Z</time></trkpt><trkpt lat="44.1479996" lon="10.4117867"><ele>490.5</ele><time>2026-04-18T13:24:07Z</time></trkpt><trkpt lat="44.1479732" lon="10.4116678"><ele>490.33333333333337</ele><time>2026-04-18T13:24:09Z</time></trkpt><trkpt lat="44.1479519" lon="10.4115482"><ele>490.1666666666667</ele><time>2026-04-18T13:24:11Z</time></trkpt><trkpt lat="44.1479308" lon="10.4114288"><ele>490.0</ele><time>2026-04-18T13:24:13Z</time></trkpt><trkpt lat="44.1479083" lon="10.4113111"><ele>490.6666666666667</ele><time>2026-04-18T13:24:15Z</time></trkpt><trkpt lat="44.1478863" lon="10.4111931"><ele>491.33333333333337</ele><time>2026-04-18T13:24:17Z</time></trkpt><trkpt lat="44.1478633" lon="10.4110736"><ele>492.0</ele><time>2026-04-18T13:24:19Z</time></trkpt><trkpt lat="44.1478445" lon="10.4109473"><ele>492.66666666666663</ele><time>2026-04-18T13:24:21Z</time></trkpt><trkpt lat="44.1478215" lon="10.4108239"><ele>493.3333333333333</ele><time>2026-04-18T13:24:23Z</time></trkpt><trkpt lat="44.1477978" lon="10.4107053"><ele>494.0</ele><time>2026-04-18T13:24:25Z</time></trkpt><trkpt lat="44.1477733" lon="10.4105755"><ele>495.0</ele><time>2026-04-18T13:24:27Z</time></trkpt><trkpt lat="44.1477552" lon="10.4104576"><ele>496.0</ele><time>2026-04-18T13:24:29Z</time></trkpt><trkpt lat="44.1477331" lon="10.4103316"><ele>497.0</ele><time>2026-04-18T13:24:31Z</time></trkpt><trkpt lat="44.1477171" lon="10.4102045"><ele>498.0</ele><time>2026-04-18T13:24:33Z</time></trkpt><trkpt lat="44.1477057" lon="10.4100748"><ele>499.0</ele><time>2026-04-18T13:24:35Z</time></trkpt><trkpt lat="44.1476866" lon="10.4099525"><ele>499.00000000000006</ele><time>2026-04-18T13:24:37Z</time></trkpt><trkpt lat="44.1476666" lon="10.4098565"><ele>499.0</ele><time>2026-04-18T13:24:39Z</time></trkpt><trkpt lat="44.1476462" lon="10.4097215"><ele>499.0</ele><time>2026-04-18T13:24:42Z</time></trkpt><trkpt lat="44.1476327" lon="10.4096001"><ele>499.0</ele><time>2026-04-18T13:24:44Z</time></trkpt><trkpt lat="44.1476169" lon="10.4094732"><ele>499.00000000000006</ele><time>2026-04-18T13:24:46Z</time></trkpt><trkpt lat="44.1476029" lon="10.4093413"><ele>499.0</ele><time>2026-04-18T13:24:48Z</time></trkpt><trkpt lat="44.1475865" lon="10.4092198"><ele>501.0</ele><time>2026-04-18T13:24:50Z</time></trkpt><trkpt lat="44.1475644" lon="10.4090933"><ele>503.0</ele><time>2026-04-18T13:24:52Z</time></trkpt><trkpt lat="44.147551" lon="10.4089597"><ele>505.0</ele><time>2026-04-18T13:24:54Z</time></trkpt><trkpt lat="44.1475253" lon="10.4088333"><ele>507.0</ele><time>2026-04-18T13:24:56Z</time></trkpt><trkpt lat="44.1475092" lon="10.4087033"><ele>509.0</ele><time>2026-04-18T13:24:58Z</time></trkpt><trkpt lat="44.1474914" lon="10.408577"><ele>510.16666666666663</ele><time>2026-04-18T13:25:00Z</time></trkpt><trkpt lat="44.1474544" lon="10.4084532"><ele>511.3333333333333</ele><time>2026-04-18T13:25:02Z</time></trkpt><trkpt lat="44.147414" lon="10.4083372"><ele>512.5</ele><time>2026-04-18T13:25:04Z</time></trkpt><trkpt lat="44.1473565" lon="10.4082409"><ele>513.6666666666666</ele><time>2026-04-18T13:25:06Z</time></trkpt><trkpt lat="44.1473123" lon="10.4081641"><ele>514.8333333333334</ele><time>2026-04-18T13:25:08Z</time></trkpt><trkpt lat="44.1472402" lon="10.4080732"><ele>516.0</ele><time>2026-04-18T13:25:11Z</time></trkpt><trkpt lat="44.1472003" lon="10.4079862"><ele>514.4</ele><time>2026-04-18T13:25:13Z</time></trkpt><trkpt lat="44.1472224" lon="10.4078839"><ele>512.8</ele><time>2026-04-18T13:25:15Z</time></trkpt><trkpt lat="44.1473135" lon="10.4078161"><ele>511.19999999999993</ele><time>2026-04-18T13:25:17Z</time></trkpt><trkpt lat="44.1474033" lon="10.4077663"><ele>509.59999999999997</ele><time>2026-04-18T13:25:19Z</time></trkpt><trkpt lat="44.1474946" lon="10.4077463"><ele>508.0</ele><time>2026-04-18T13:25:21Z</time></trkpt><trkpt lat="44.1475818" lon="10.4077664"><ele>508.0</ele><time>2026-04-18T13:25:23Z</time></trkpt><trkpt lat="44.1476678" lon="10.4077939"><ele>507.99999999999994</ele><time>2026-04-18T13:25:25Z</time></trkpt><trkpt lat="44.1477574" lon="10.4078152"><ele>507.99999999999994</ele><time>2026-04-18T13:25:27Z</time></trkpt><trkpt lat="44.1478544" lon="10.4078433"><ele>508.0</ele><time>2026-04-18T13:25:29Z</time></trkpt><trkpt lat="44.1479263" lon="10.4079157"><ele>508.0</ele><time>2026-04-18T13:25:31Z</time></trkpt><trkpt lat="44.1479779" lon="10.4080338"><ele>509.59999999999997</ele><time>2026-04-18T13:25:33Z</time></trkpt><trkpt lat="44.147981" lon="10.408169"><ele>511.19999999999993</ele><time>2026-04-18T13:25:35Z</time></trkpt><trkpt lat="44.1479945" lon="10.4083021"><ele>512.8</ele><time>2026-04-18T13:25:37Z</time></trkpt><trkpt lat="44.1480067" lon="10.4084398"><ele>514.4</ele><time>2026-04-18T13:25:39Z</time></trkpt><trkpt lat="44.1480186" lon="10.4085738"><ele>516.0</ele><time>2026-04-18T13:25:41Z</time></trkpt><trkpt lat="44.1480265" lon="10.4087073"><ele>514.9999999999999</ele><time>2026-04-18T13:25:43Z</time></trkpt><trkpt lat="44.1480329" lon="10.4088322"><ele>514.0</ele><time>2026-04-18T13:25:45Z</time></trkpt><trkpt lat="44.1480415" lon="10.4089327"><ele>513.0</ele><time>2026-04-18T13:25:47Z</time></trkpt><trkpt lat="44.1480574" lon="10.4090236"><ele>511.99999999999994</ele><time>2026-04-18T13:25:49Z</time></trkpt><trkpt lat="44.1480671" lon="10.4091388"><ele>511.0</ele><time>2026-04-18T13:25:52Z</time></trkpt><trkpt lat="44.1480767" lon="10.4092345"><ele>509.99999999999994</ele><time>2026-04-18T13:25:54Z</time></trkpt><trkpt lat="44.1480876" lon="10.4093211"><ele>508.99999999999994</ele><time>2026-04-18T13:25:56Z</time></trkpt><trkpt lat="44.1480978" lon="10.4094553"><ele>508.99999999999994</ele><time>2026-04-18T13:25:59Z</time></trkpt><trkpt lat="44.1481134" lon="10.4095598"><ele>509.0</ele><time>2026-04-18T13:26:01Z</time></trkpt><trkpt lat="44.1481294" lon="10.4096621"><ele>508.99999999999994</ele><time>2026-04-18T13:26:03Z</time></trkpt><trkpt lat="44.1481473" lon="10.4097567"><ele>508.99999999999994</ele><time>2026-04-18T13:26:05Z</time></trkpt><trkpt lat="44.1481684" lon="10.4098484"><ele>509.0</ele><time>2026-04-18T13:26:07Z</time></trkpt><trkpt lat="44.1481903" lon="10.409935"><ele>508.99999999999994</ele><time>2026-04-18T13:26:09Z</time></trkpt><trkpt lat="44.1482094" lon="10.4100222"><ele>508.99999999999994</ele><time>2026-04-18T13:26:11Z</time></trkpt><trkpt lat="44.1482268" lon="10.4101121"><ele>511.66666666666663</ele><time>2026-04-18T13:26:12.999Z</time></trkpt><trkpt lat="44.1482523" lon="10.410207"><ele>514.3333333333333</ele><time>2026-04-18T13:26:15Z</time></trkpt><trkpt lat="44.1482783" lon="10.410315"><ele>517.0</ele><time>2026-04-18T13:26:17Z</time></trkpt><trkpt lat="44.148301" lon="10.4104159"><ele>519.6666666666666</ele><time>2026-04-18T13:26:19Z</time></trkpt><trkpt lat="44.1483216" lon="10.4105244"><ele>522.3333333333334</ele><time>2026-04-18T13:26:21.016Z</time></trkpt><trkpt lat="44.1483474" lon="10.4106314"><ele>525.0</ele><time>2026-04-18T13:26:23Z</time></trkpt><trkpt lat="44.1483791" lon="10.4107372"><ele>525.0</ele><time>2026-04-18T13:26:25Z</time></trkpt><trkpt lat="44.1484194" lon="10.410843"><ele>525.0</ele><time>2026-04-18T13:26:26.999Z</time></trkpt><trkpt lat="44.1484577" lon="10.4109574"><ele>525.0</ele><time>2026-04-18T13:26:29Z</time></trkpt><trkpt lat="44.1484968" lon="10.41108"><ele>525.0</ele><time>2026-04-18T13:26:31Z</time></trkpt><trkpt lat="44.148543" lon="10.4111792"><ele>525.0</ele><time>2026-04-18T13:26:33Z</time></trkpt><trkpt lat="44.1485973" lon="10.4112755"><ele>525.0</ele><time>2026-04-18T13:26:35Z</time></trkpt><trkpt lat="44.1486423" lon="10.4113575"><ele>525.0</ele><time>2026-04-18T13:26:37Z</time></trkpt><trkpt lat="44.148706" lon="10.4114372"><ele>525.0</ele><time>2026-04-18T13:26:40Z</time></trkpt><trkpt lat="44.1487807" lon="10.4114693"><ele>525.0</ele><time>2026-04-18T13:26:42Z</time></trkpt><trkpt lat="44.148866" lon="10.4114593"><ele>525.0</ele><time>2026-04-18T13:26:44.014Z</time></trkpt><trkpt lat="44.1489403" lon="10.4113819"><ele>525.0</ele><time>2026-04-18T13:26:46Z</time></trkpt><trkpt lat="44.149007" lon="10.411308"><ele>525.0</ele><time>2026-04-18T13:26:48Z</time></trkpt><trkpt lat="44.1490667" lon="10.411242"><ele>526.8333333333334</ele><time>2026-04-18T13:26:50Z</time></trkpt><trkpt lat="44.1491264" lon="10.4111843"><ele>528.6666666666666</ele><time>2026-04-18T13:26:52Z</time></trkpt><trkpt lat="44.1492064" lon="10.4111531"><ele>530.5</ele><time>2026-04-18T13:26:54Z</time></trkpt><trkpt lat="44.1492874" lon="10.4111631"><ele>532.3333333333333</ele><time>2026-04-18T13:26:56Z</time></trkpt><trkpt lat="44.149354" lon="10.4112047"><ele>534.1666666666666</ele><time>2026-04-18T13:26:58Z</time></trkpt><trkpt lat="44.149415" lon="10.4112386"><ele>536.0</ele><time>2026-04-18T13:27:00Z</time></trkpt><trkpt lat="44.1494989" lon="10.4112821"><ele>536.0</ele><time>2026-04-18T13:27:03Z</time></trkpt><trkpt lat="44.1495841" lon="10.4113196"><ele>536.0</ele><time>2026-04-18T13:27:06Z</time></trkpt><trkpt lat="44.149646" lon="10.4113607"><ele>536.0</ele><time>2026-04-18T13:27:08Z</time></trkpt><trkpt lat="44.149708" lon="10.4113927"><ele>536.0</ele><time>2026-04-18T13:27:10Z</time></trkpt><trkpt lat="44.1497908" lon="10.4114279"><ele>536.0</ele><time>2026-04-18T13:27:13Z</time></trkpt><trkpt lat="44.1498559" lon="10.4114608"><ele>536.0</ele><time>2026-04-18T13:27:15Z</time></trkpt><trkpt lat="44.1499272" lon="10.4114911"><ele>535.0</ele><time>2026-04-18T13:27:17Z</time></trkpt><trkpt lat="44.1500054" lon="10.4115311"><ele>534.0</ele><time>2026-04-18T13:27:19Z</time></trkpt><trkpt lat="44.1500842" lon="10.4115722"><ele>533.0</ele><time>2026-04-18T13:27:21Z</time></trkpt><trkpt lat="44.1501629" lon="10.4116143"><ele>532.0</ele><time>2026-04-18T13:27:22.999Z</time></trkpt><trkpt lat="44.1502323" lon="10.4116506"><ele>531.0</ele><time>2026-04-18T13:27:25Z</time></trkpt><trkpt lat="44.1503044" lon="10.4116924"><ele>530.0</ele><time>2026-04-18T13:27:27Z</time></trkpt><trkpt lat="44.1503797" lon="10.411743"><ele>530.0</ele><time>2026-04-18T13:27:29Z</time></trkpt><trkpt lat="44.1504527" lon="10.4117786"><ele>530.0</ele><time>2026-04-18T13:27:31Z</time></trkpt><trkpt lat="44.1505271" lon="10.411804"><ele>530.0</ele><time>2026-04-18T13:27:33Z</time></trkpt><trkpt lat="44.1506051" lon="10.4118305"><ele>530.0</ele><time>2026-04-18T13:27:35Z</time></trkpt><trkpt lat="44.150685" lon="10.4118296"><ele>530.0</ele><time>2026-04-18T13:27:37Z</time></trkpt><trkpt lat="44.1507583" lon="10.4118166"><ele>530.0</ele><time>2026-04-18T13:27:39Z</time></trkpt><trkpt lat="44.1508466" lon="10.4118203"><ele>530.1666666666666</ele><time>2026-04-18T13:27:42Z</time></trkpt><trkpt lat="44.1509203" lon="10.4118695"><ele>530.3333333333333</ele><time>2026-04-18T13:27:44.999Z</time></trkpt><trkpt lat="44.1509964" lon="10.4119248"><ele>530.5</ele><time>2026-04-18T13:27:48Z</time></trkpt><trkpt lat="44.151065" lon="10.4119702"><ele>530.6666666666666</ele><time>2026-04-18T13:27:51Z</time></trkpt><trkpt lat="44.1510811" lon="10.4120584"><ele>530.8333333333334</ele><time>2026-04-18T13:27:54Z</time></trkpt><trkpt lat="44.1510149" lon="10.4120905"><ele>531.0</ele><time>2026-04-18T13:27:57Z</time></trkpt><trkpt lat="44.1509334" lon="10.4121011"><ele>531.0</ele><time>2026-04-18T13:28:00Z</time></trkpt><trkpt lat="44.1508611" lon="10.4121207"><ele>531.0</ele><time>2026-04-18T13:28:03Z</time></trkpt><trkpt lat="44.1508234" lon="10.412199"><ele>546.0</ele><time>2026-04-18T13:28:06Z</time></trkpt><trkpt lat="44.1508129" lon="10.4123055"><ele>546.0</ele><time>2026-04-18T13:28:09Z</time></trkpt><trkpt lat="44.1507901" lon="10.4124252"><ele>546.0</ele><time>2026-04-18T13:28:11Z</time></trkpt><trkpt lat="44.1507738" lon="10.4125184"><ele>546.0</ele><time>2026-04-18T13:28:13Z</time></trkpt></trkseg></trk></gpx>